<?xml version="1.0" encoding="UTF-8" standalone="no" ?>
<gpx xmlns="http://www.topografix.com/GPX/1/1" xmlns:xsi="http://www.w3.org/2001/XMLSchema-instance" xsi:schemaLocation="http://www.topografix.com/GPX/1/1 http://www.topografix.com/GPX/1/1/gpx.xsd" version="1.1" creator="VisuGPX - https://www.visugpx.com">
  <metadata>
    <name>Sospel Moulinet + spéciale Sud</name>
    <desc><![CDATA[Départ du parking, le GPS à été déclenché avec retard. La première montée est la " classique". Ensuite la montée jusqu'au canon est assez rude, même en VAE. Le reste est magnifique, paysage somptueux, descentes techniques avec virages serrés...
La dernière boucle est indépendante, elle se compose d'une longue montée par la piste Sud puis une belle descente qui se termine par un final très caillouteux.]]></desc>
  </metadata>
  <trk>
    <name><![CDATA[Sospel Cyclisme]]></name>
    <extensions>
      <line xmlns="http://www.topografix.com/GPX/gpx_style/0/2">
        <color>0000FF</color>
        <width>4</width>
      </line>
    </extensions>
    <trkseg>
      <trkpt lat="43.89766" lon="7.44432">
        <ele>759.20001220703</ele>
        <time>2022-04-09T08:42:01.000Z</time>
      </trkpt>
      <trkpt lat="43.89767" lon="7.44432">
        <ele>759.20001220703</ele>
        <time>2022-04-09T08:42:09.000Z</time>
      </trkpt>
      <trkpt lat="43.89767" lon="7.44431">
        <ele>759.20001220703</ele>
        <time>2022-04-09T08:42:16.000Z</time>
      </trkpt>
      <trkpt lat="43.89766" lon="7.44434">
        <ele>759</ele>
        <time>2022-04-09T08:42:32.000Z</time>
      </trkpt>
      <trkpt lat="43.89767" lon="7.44434">
        <ele>759.20001220703</ele>
        <time>2022-04-09T08:42:41.000Z</time>
      </trkpt>
      <trkpt lat="43.89767" lon="7.44433">
        <ele>759</ele>
        <time>2022-04-09T08:42:53.000Z</time>
      </trkpt>
      <trkpt lat="43.89767" lon="7.44432">
        <ele>758.79998779297</ele>
        <time>2022-04-09T08:43:09.000Z</time>
      </trkpt>
      <trkpt lat="43.89766" lon="7.44435">
        <ele>759</ele>
        <time>2022-04-09T08:43:30.000Z</time>
      </trkpt>
      <trkpt lat="43.89765" lon="7.44435">
        <ele>759</ele>
        <time>2022-04-09T08:43:38.000Z</time>
      </trkpt>
      <trkpt lat="43.89764" lon="7.44435">
        <ele>758.79998779297</ele>
        <time>2022-04-09T08:43:40.000Z</time>
      </trkpt>
      <trkpt lat="43.89764" lon="7.44434">
        <ele>758.79998779297</ele>
        <time>2022-04-09T08:43:47.000Z</time>
      </trkpt>
      <trkpt lat="43.89764" lon="7.44432">
        <ele>759</ele>
        <time>2022-04-09T08:43:56.000Z</time>
      </trkpt>
      <trkpt lat="43.89765" lon="7.44431">
        <ele>758.79998779297</ele>
        <time>2022-04-09T08:44:04.000Z</time>
      </trkpt>
      <trkpt lat="43.89769" lon="7.44428">
        <ele>758.79998779297</ele>
        <time>2022-04-09T08:44:11.000Z</time>
      </trkpt>
      <trkpt lat="43.89774" lon="7.4442">
        <ele>758.79998779297</ele>
        <time>2022-04-09T08:44:16.000Z</time>
      </trkpt>
      <trkpt lat="43.89777" lon="7.44416">
        <ele>759.59997558594</ele>
        <time>2022-04-09T08:44:18.000Z</time>
      </trkpt>
      <trkpt lat="43.89779" lon="7.44411">
        <ele>760.40002441406</ele>
        <time>2022-04-09T08:44:20.000Z</time>
      </trkpt>
      <trkpt lat="43.89779" lon="7.44409">
        <ele>761</ele>
        <time>2022-04-09T08:44:21.000Z</time>
      </trkpt>
      <trkpt lat="43.8978" lon="7.44407">
        <ele>761.40002441406</ele>
        <time>2022-04-09T08:44:22.000Z</time>
      </trkpt>
      <trkpt lat="43.8978" lon="7.44405">
        <ele>761.79998779297</ele>
        <time>2022-04-09T08:44:23.000Z</time>
      </trkpt>
      <trkpt lat="43.8978" lon="7.44404">
        <ele>762.79998779297</ele>
        <time>2022-04-09T08:44:25.000Z</time>
      </trkpt>
      <trkpt lat="43.8978" lon="7.44403">
        <ele>763.59997558594</ele>
        <time>2022-04-09T08:44:27.000Z</time>
      </trkpt>
      <trkpt lat="43.8978" lon="7.44402">
        <ele>763.79998779297</ele>
        <time>2022-04-09T08:44:28.000Z</time>
      </trkpt>
      <trkpt lat="43.89781" lon="7.44401">
        <ele>765</ele>
        <time>2022-04-09T08:44:35.000Z</time>
      </trkpt>
      <trkpt lat="43.89781" lon="7.444">
        <ele>765</ele>
        <time>2022-04-09T08:44:36.000Z</time>
      </trkpt>
      <trkpt lat="43.89781" lon="7.444">
        <ele>765.40002441406</ele>
        <time>2022-04-09T08:44:42.000Z</time>
      </trkpt>
      <trkpt lat="43.8978" lon="7.44398">
        <ele>765.59997558594</ele>
        <time>2022-04-09T08:45:00.000Z</time>
      </trkpt>
      <trkpt lat="43.8978" lon="7.44397">
        <ele>765.59997558594</ele>
        <time>2022-04-09T08:45:06.000Z</time>
      </trkpt>
      <trkpt lat="43.8978" lon="7.44394">
        <ele>765.59997558594</ele>
        <time>2022-04-09T08:45:12.000Z</time>
      </trkpt>
      <trkpt lat="43.89781" lon="7.44392">
        <ele>765.79998779297</ele>
        <time>2022-04-09T08:45:13.000Z</time>
      </trkpt>
      <trkpt lat="43.89783" lon="7.44388">
        <ele>766</ele>
        <time>2022-04-09T08:45:15.000Z</time>
      </trkpt>
      <trkpt lat="43.89785" lon="7.44382">
        <ele>766.79998779297</ele>
        <time>2022-04-09T08:45:18.000Z</time>
      </trkpt>
      <trkpt lat="43.89785" lon="7.4438">
        <ele>767</ele>
        <time>2022-04-09T08:45:19.000Z</time>
      </trkpt>
      <trkpt lat="43.89787" lon="7.44374">
        <ele>768</ele>
        <time>2022-04-09T08:45:22.000Z</time>
      </trkpt>
      <trkpt lat="43.89787" lon="7.44373">
        <ele>768.20001220703</ele>
        <time>2022-04-09T08:45:23.000Z</time>
      </trkpt>
      <trkpt lat="43.89787" lon="7.44371">
        <ele>768.59997558594</ele>
        <time>2022-04-09T08:45:24.000Z</time>
      </trkpt>
      <trkpt lat="43.89786" lon="7.44369">
        <ele>769.40002441406</ele>
        <time>2022-04-09T08:45:25.000Z</time>
      </trkpt>
      <trkpt lat="43.89787" lon="7.44362">
        <ele>770.59997558594</ele>
        <time>2022-04-09T08:45:28.000Z</time>
      </trkpt>
      <trkpt lat="43.89788" lon="7.44357">
        <ele>771.20001220703</ele>
        <time>2022-04-09T08:45:30.000Z</time>
      </trkpt>
      <trkpt lat="43.89788" lon="7.44352">
        <ele>772.20001220703</ele>
        <time>2022-04-09T08:45:32.000Z</time>
      </trkpt>
      <trkpt lat="43.89788" lon="7.44344">
        <ele>773.20001220703</ele>
        <time>2022-04-09T08:45:35.000Z</time>
      </trkpt>
      <trkpt lat="43.89788" lon="7.44339">
        <ele>773.79998779297</ele>
        <time>2022-04-09T08:45:37.000Z</time>
      </trkpt>
      <trkpt lat="43.89788" lon="7.44334">
        <ele>774.40002441406</ele>
        <time>2022-04-09T08:45:39.000Z</time>
      </trkpt>
      <trkpt lat="43.89788" lon="7.4433">
        <ele>775.40002441406</ele>
        <time>2022-04-09T08:45:41.000Z</time>
      </trkpt>
      <trkpt lat="43.89788" lon="7.44325">
        <ele>776.20001220703</ele>
        <time>2022-04-09T08:45:43.000Z</time>
      </trkpt>
      <trkpt lat="43.89789" lon="7.44324">
        <ele>776.59997558594</ele>
        <time>2022-04-09T08:45:44.000Z</time>
      </trkpt>
      <trkpt lat="43.8979" lon="7.44322">
        <ele>777.79998779297</ele>
        <time>2022-04-09T08:45:47.000Z</time>
      </trkpt>
      <trkpt lat="43.8979" lon="7.44321">
        <ele>778.20001220703</ele>
        <time>2022-04-09T08:45:48.000Z</time>
      </trkpt>
      <trkpt lat="43.89791" lon="7.4432">
        <ele>778.79998779297</ele>
        <time>2022-04-09T08:45:51.000Z</time>
      </trkpt>
      <trkpt lat="43.89791" lon="7.4432">
        <ele>779.20001220703</ele>
        <time>2022-04-09T08:45:53.000Z</time>
      </trkpt>
      <trkpt lat="43.89792" lon="7.44318">
        <ele>780</ele>
        <time>2022-04-09T08:45:59.000Z</time>
      </trkpt>
      <trkpt lat="43.89793" lon="7.44312">
        <ele>781</ele>
        <time>2022-04-09T08:46:05.000Z</time>
      </trkpt>
      <trkpt lat="43.89793" lon="7.44312">
        <ele>781.20001220703</ele>
        <time>2022-04-09T08:46:06.000Z</time>
      </trkpt>
      <trkpt lat="43.89794" lon="7.44308">
        <ele>781.79998779297</ele>
        <time>2022-04-09T08:46:12.000Z</time>
      </trkpt>
      <trkpt lat="43.89796" lon="7.443">
        <ele>781.59997558594</ele>
        <time>2022-04-09T08:46:16.000Z</time>
      </trkpt>
      <trkpt lat="43.89797" lon="7.44297">
        <ele>781.59997558594</ele>
        <time>2022-04-09T08:46:17.000Z</time>
      </trkpt>
      <trkpt lat="43.89805" lon="7.44281">
        <ele>781.20001220703</ele>
        <time>2022-04-09T08:46:23.000Z</time>
      </trkpt>
      <trkpt lat="43.89807" lon="7.44278">
        <ele>781</ele>
        <time>2022-04-09T08:46:24.000Z</time>
      </trkpt>
      <trkpt lat="43.89811" lon="7.44276">
        <ele>781</ele>
        <time>2022-04-09T08:46:26.000Z</time>
      </trkpt>
      <trkpt lat="43.89814" lon="7.44273">
        <ele>781.20001220703</ele>
        <time>2022-04-09T08:46:28.000Z</time>
      </trkpt>
      <trkpt lat="43.89819" lon="7.44269">
        <ele>781.79998779297</ele>
        <time>2022-04-09T08:46:31.000Z</time>
      </trkpt>
      <trkpt lat="43.89821" lon="7.44268">
        <ele>782.20001220703</ele>
        <time>2022-04-09T08:46:32.000Z</time>
      </trkpt>
      <trkpt lat="43.89825" lon="7.44266">
        <ele>783</ele>
        <time>2022-04-09T08:46:34.000Z</time>
      </trkpt>
      <trkpt lat="43.89827" lon="7.44264">
        <ele>783.40002441406</ele>
        <time>2022-04-09T08:46:35.000Z</time>
      </trkpt>
      <trkpt lat="43.89833" lon="7.44258">
        <ele>784.40002441406</ele>
        <time>2022-04-09T08:46:38.000Z</time>
      </trkpt>
      <trkpt lat="43.89836" lon="7.44256">
        <ele>785</ele>
        <time>2022-04-09T08:46:39.000Z</time>
      </trkpt>
      <trkpt lat="43.89841" lon="7.44254">
        <ele>785.79998779297</ele>
        <time>2022-04-09T08:46:41.000Z</time>
      </trkpt>
      <trkpt lat="43.89848" lon="7.44251">
        <ele>786.59997558594</ele>
        <time>2022-04-09T08:46:44.000Z</time>
      </trkpt>
      <trkpt lat="43.8985" lon="7.4425">
        <ele>786.79998779297</ele>
        <time>2022-04-09T08:46:45.000Z</time>
      </trkpt>
      <trkpt lat="43.89861" lon="7.44246">
        <ele>787.40002441406</ele>
        <time>2022-04-09T08:46:49.000Z</time>
      </trkpt>
      <trkpt lat="43.8988" lon="7.44236">
        <ele>787.40002441406</ele>
        <time>2022-04-09T08:46:55.000Z</time>
      </trkpt>
      <trkpt lat="43.89896" lon="7.4423">
        <ele>788</ele>
        <time>2022-04-09T08:47:00.000Z</time>
      </trkpt>
      <trkpt lat="43.899" lon="7.44228">
        <ele>788.40002441406</ele>
        <time>2022-04-09T08:47:01.000Z</time>
      </trkpt>
      <trkpt lat="43.89923" lon="7.44214">
        <ele>788</ele>
        <time>2022-04-09T08:47:07.000Z</time>
      </trkpt>
      <trkpt lat="43.89926" lon="7.44212">
        <ele>788</ele>
        <time>2022-04-09T08:47:08.000Z</time>
      </trkpt>
      <trkpt lat="43.89943" lon="7.44205">
        <ele>788</ele>
        <time>2022-04-09T08:47:12.000Z</time>
      </trkpt>
      <trkpt lat="43.89947" lon="7.44202">
        <ele>788.20001220703</ele>
        <time>2022-04-09T08:47:13.000Z</time>
      </trkpt>
      <trkpt lat="43.89955" lon="7.44188">
        <ele>788.20001220703</ele>
        <time>2022-04-09T08:47:17.000Z</time>
      </trkpt>
      <trkpt lat="43.89961" lon="7.44181">
        <ele>789.20001220703</ele>
        <time>2022-04-09T08:47:20.000Z</time>
      </trkpt>
      <trkpt lat="43.89965" lon="7.44177">
        <ele>790.40002441406</ele>
        <time>2022-04-09T08:47:22.000Z</time>
      </trkpt>
      <trkpt lat="43.89967" lon="7.44174">
        <ele>791</ele>
        <time>2022-04-09T08:47:23.000Z</time>
      </trkpt>
      <trkpt lat="43.89969" lon="7.44173">
        <ele>791.40002441406</ele>
        <time>2022-04-09T08:47:24.000Z</time>
      </trkpt>
      <trkpt lat="43.89973" lon="7.44172">
        <ele>792.40002441406</ele>
        <time>2022-04-09T08:47:26.000Z</time>
      </trkpt>
      <trkpt lat="43.89976" lon="7.4417">
        <ele>792.79998779297</ele>
        <time>2022-04-09T08:47:27.000Z</time>
      </trkpt>
      <trkpt lat="43.89977" lon="7.44168">
        <ele>793.20001220703</ele>
        <time>2022-04-09T08:47:28.000Z</time>
      </trkpt>
      <trkpt lat="43.89978" lon="7.44164">
        <ele>793.59997558594</ele>
        <time>2022-04-09T08:47:29.000Z</time>
      </trkpt>
      <trkpt lat="43.89981" lon="7.44159">
        <ele>794.20001220703</ele>
        <time>2022-04-09T08:47:31.000Z</time>
      </trkpt>
      <trkpt lat="43.89984" lon="7.44152">
        <ele>794.79998779297</ele>
        <time>2022-04-09T08:47:33.000Z</time>
      </trkpt>
      <trkpt lat="43.89988" lon="7.44145">
        <ele>795.79998779297</ele>
        <time>2022-04-09T08:47:36.000Z</time>
      </trkpt>
      <trkpt lat="43.8999" lon="7.44142">
        <ele>796.20001220703</ele>
        <time>2022-04-09T08:47:37.000Z</time>
      </trkpt>
      <trkpt lat="43.89995" lon="7.44136">
        <ele>797.40002441406</ele>
        <time>2022-04-09T08:47:40.000Z</time>
      </trkpt>
      <trkpt lat="43.89999" lon="7.44133">
        <ele>798.20001220703</ele>
        <time>2022-04-09T08:47:42.000Z</time>
      </trkpt>
      <trkpt lat="43.9" lon="7.4413">
        <ele>798.59997558594</ele>
        <time>2022-04-09T08:47:43.000Z</time>
      </trkpt>
      <trkpt lat="43.90005" lon="7.44122">
        <ele>800.20001220703</ele>
        <time>2022-04-09T08:47:46.000Z</time>
      </trkpt>
      <trkpt lat="43.90007" lon="7.44119">
        <ele>800.59997558594</ele>
        <time>2022-04-09T08:47:47.000Z</time>
      </trkpt>
      <trkpt lat="43.9001" lon="7.44113">
        <ele>801.20001220703</ele>
        <time>2022-04-09T08:47:49.000Z</time>
      </trkpt>
      <trkpt lat="43.9002" lon="7.44102">
        <ele>802.20001220703</ele>
        <time>2022-04-09T08:47:54.000Z</time>
      </trkpt>
      <trkpt lat="43.90022" lon="7.44101">
        <ele>802.20001220703</ele>
        <time>2022-04-09T08:47:55.000Z</time>
      </trkpt>
      <trkpt lat="43.90028" lon="7.44092">
        <ele>803.20001220703</ele>
        <time>2022-04-09T08:47:59.000Z</time>
      </trkpt>
      <trkpt lat="43.90033" lon="7.44085">
        <ele>804.40002441406</ele>
        <time>2022-04-09T08:48:02.000Z</time>
      </trkpt>
      <trkpt lat="43.90038" lon="7.44079">
        <ele>804.79998779297</ele>
        <time>2022-04-09T08:48:05.000Z</time>
      </trkpt>
      <trkpt lat="43.90042" lon="7.44073">
        <ele>805.40002441406</ele>
        <time>2022-04-09T08:48:08.000Z</time>
      </trkpt>
      <trkpt lat="43.90048" lon="7.44071">
        <ele>805.79998779297</ele>
        <time>2022-04-09T08:48:11.000Z</time>
      </trkpt>
      <trkpt lat="43.90052" lon="7.4407">
        <ele>806.40002441406</ele>
        <time>2022-04-09T08:48:13.000Z</time>
      </trkpt>
      <trkpt lat="43.90056" lon="7.44067">
        <ele>807.20001220703</ele>
        <time>2022-04-09T08:48:15.000Z</time>
      </trkpt>
      <trkpt lat="43.90059" lon="7.44066">
        <ele>807.59997558594</ele>
        <time>2022-04-09T08:48:16.000Z</time>
      </trkpt>
      <trkpt lat="43.90067" lon="7.44066">
        <ele>808.79998779297</ele>
        <time>2022-04-09T08:48:19.000Z</time>
      </trkpt>
      <trkpt lat="43.90069" lon="7.44066">
        <ele>809.20001220703</ele>
        <time>2022-04-09T08:48:20.000Z</time>
      </trkpt>
      <trkpt lat="43.90075" lon="7.44067">
        <ele>810</ele>
        <time>2022-04-09T08:48:22.000Z</time>
      </trkpt>
      <trkpt lat="43.90079" lon="7.44068">
        <ele>811.40002441406</ele>
        <time>2022-04-09T08:48:24.000Z</time>
      </trkpt>
      <trkpt lat="43.90083" lon="7.44069">
        <ele>812.59997558594</ele>
        <time>2022-04-09T08:48:26.000Z</time>
      </trkpt>
      <trkpt lat="43.90087" lon="7.44069">
        <ele>813.79998779297</ele>
        <time>2022-04-09T08:48:28.000Z</time>
      </trkpt>
      <trkpt lat="43.90094" lon="7.4407">
        <ele>814.79998779297</ele>
        <time>2022-04-09T08:48:31.000Z</time>
      </trkpt>
      <trkpt lat="43.901" lon="7.4407">
        <ele>816.20001220703</ele>
        <time>2022-04-09T08:48:34.000Z</time>
      </trkpt>
      <trkpt lat="43.90102" lon="7.44071">
        <ele>816.40002441406</ele>
        <time>2022-04-09T08:48:35.000Z</time>
      </trkpt>
      <trkpt lat="43.90106" lon="7.44072">
        <ele>817.40002441406</ele>
        <time>2022-04-09T08:48:37.000Z</time>
      </trkpt>
      <trkpt lat="43.9011" lon="7.44074">
        <ele>818.79998779297</ele>
        <time>2022-04-09T08:48:40.000Z</time>
      </trkpt>
      <trkpt lat="43.90119" lon="7.44074">
        <ele>820</ele>
        <time>2022-04-09T08:48:44.000Z</time>
      </trkpt>
      <trkpt lat="43.90122" lon="7.44073">
        <ele>820.79998779297</ele>
        <time>2022-04-09T08:48:46.000Z</time>
      </trkpt>
      <trkpt lat="43.90125" lon="7.44073">
        <ele>821</ele>
        <time>2022-04-09T08:48:47.000Z</time>
      </trkpt>
      <trkpt lat="43.90132" lon="7.44074">
        <ele>822.20001220703</ele>
        <time>2022-04-09T08:48:50.000Z</time>
      </trkpt>
      <trkpt lat="43.90136" lon="7.44075">
        <ele>822.79998779297</ele>
        <time>2022-04-09T08:48:52.000Z</time>
      </trkpt>
      <trkpt lat="43.90138" lon="7.44077">
        <ele>823.20001220703</ele>
        <time>2022-04-09T08:48:53.000Z</time>
      </trkpt>
      <trkpt lat="43.90145" lon="7.44075">
        <ele>824.40002441406</ele>
        <time>2022-04-09T08:48:56.000Z</time>
      </trkpt>
      <trkpt lat="43.90161" lon="7.44063">
        <ele>825</ele>
        <time>2022-04-09T08:49:02.000Z</time>
      </trkpt>
      <trkpt lat="43.90176" lon="7.44047">
        <ele>825.40002441406</ele>
        <time>2022-04-09T08:49:08.000Z</time>
      </trkpt>
      <trkpt lat="43.90187" lon="7.44039">
        <ele>826.59997558594</ele>
        <time>2022-04-09T08:49:12.000Z</time>
      </trkpt>
      <trkpt lat="43.90189" lon="7.44038">
        <ele>826.79998779297</ele>
        <time>2022-04-09T08:49:13.000Z</time>
      </trkpt>
      <trkpt lat="43.90194" lon="7.44037">
        <ele>827.59997558594</ele>
        <time>2022-04-09T08:49:15.000Z</time>
      </trkpt>
      <trkpt lat="43.90201" lon="7.44034">
        <ele>829</ele>
        <time>2022-04-09T08:49:18.000Z</time>
      </trkpt>
      <trkpt lat="43.90203" lon="7.44034">
        <ele>829.59997558594</ele>
        <time>2022-04-09T08:49:19.000Z</time>
      </trkpt>
      <trkpt lat="43.90205" lon="7.44033">
        <ele>830</ele>
        <time>2022-04-09T08:49:20.000Z</time>
      </trkpt>
      <trkpt lat="43.90208" lon="7.44032">
        <ele>831</ele>
        <time>2022-04-09T08:49:22.000Z</time>
      </trkpt>
      <trkpt lat="43.9022" lon="7.44029">
        <ele>832.20001220703</ele>
        <time>2022-04-09T08:49:27.000Z</time>
      </trkpt>
      <trkpt lat="43.90226" lon="7.44028">
        <ele>833.40002441406</ele>
        <time>2022-04-09T08:49:30.000Z</time>
      </trkpt>
      <trkpt lat="43.90229" lon="7.44028">
        <ele>833.79998779297</ele>
        <time>2022-04-09T08:49:32.000Z</time>
      </trkpt>
      <trkpt lat="43.90236" lon="7.44028">
        <ele>834.40002441406</ele>
        <time>2022-04-09T08:49:35.000Z</time>
      </trkpt>
      <trkpt lat="43.9024" lon="7.44027">
        <ele>835</ele>
        <time>2022-04-09T08:49:37.000Z</time>
      </trkpt>
      <trkpt lat="43.90242" lon="7.44027">
        <ele>835.59997558594</ele>
        <time>2022-04-09T08:49:38.000Z</time>
      </trkpt>
      <trkpt lat="43.9025" lon="7.44026">
        <ele>836.59997558594</ele>
        <time>2022-04-09T08:49:42.000Z</time>
      </trkpt>
      <trkpt lat="43.90257" lon="7.44026">
        <ele>837</ele>
        <time>2022-04-09T08:49:45.000Z</time>
      </trkpt>
      <trkpt lat="43.90263" lon="7.44028">
        <ele>837.79998779297</ele>
        <time>2022-04-09T08:49:48.000Z</time>
      </trkpt>
      <trkpt lat="43.90269" lon="7.4403">
        <ele>838.79998779297</ele>
        <time>2022-04-09T08:49:51.000Z</time>
      </trkpt>
      <trkpt lat="43.90274" lon="7.4403">
        <ele>840</ele>
        <time>2022-04-09T08:49:54.000Z</time>
      </trkpt>
      <trkpt lat="43.90278" lon="7.44032">
        <ele>840.59997558594</ele>
        <time>2022-04-09T08:49:56.000Z</time>
      </trkpt>
      <trkpt lat="43.90279" lon="7.44032">
        <ele>841.20001220703</ele>
        <time>2022-04-09T08:49:57.000Z</time>
      </trkpt>
      <trkpt lat="43.90279" lon="7.44031">
        <ele>842.40002441406</ele>
        <time>2022-04-09T08:50:00.000Z</time>
      </trkpt>
      <trkpt lat="43.9028" lon="7.4403">
        <ele>842.59997558594</ele>
        <time>2022-04-09T08:50:16.000Z</time>
      </trkpt>
      <trkpt lat="43.90284" lon="7.44028">
        <ele>842.59997558594</ele>
        <time>2022-04-09T08:50:38.000Z</time>
      </trkpt>
      <trkpt lat="43.90284" lon="7.44027">
        <ele>842.59997558594</ele>
        <time>2022-04-09T08:51:03.000Z</time>
      </trkpt>
      <trkpt lat="43.90291" lon="7.44028">
        <ele>842.59997558594</ele>
        <time>2022-04-09T08:51:14.000Z</time>
      </trkpt>
      <trkpt lat="43.90308" lon="7.44035">
        <ele>842.79998779297</ele>
        <time>2022-04-09T08:51:19.000Z</time>
      </trkpt>
      <trkpt lat="43.90314" lon="7.44037">
        <ele>843.79998779297</ele>
        <time>2022-04-09T08:51:21.000Z</time>
      </trkpt>
      <trkpt lat="43.90324" lon="7.44043">
        <ele>845.40002441406</ele>
        <time>2022-04-09T08:51:24.000Z</time>
      </trkpt>
      <trkpt lat="43.90327" lon="7.44045">
        <ele>845.59997558594</ele>
        <time>2022-04-09T08:51:25.000Z</time>
      </trkpt>
      <trkpt lat="43.90334" lon="7.44049">
        <ele>846.40002441406</ele>
        <time>2022-04-09T08:51:27.000Z</time>
      </trkpt>
      <trkpt lat="43.90342" lon="7.44055">
        <ele>848.20001220703</ele>
        <time>2022-04-09T08:51:30.000Z</time>
      </trkpt>
      <trkpt lat="43.90343" lon="7.44055">
        <ele>848.79998779297</ele>
        <time>2022-04-09T08:51:31.000Z</time>
      </trkpt>
      <trkpt lat="43.90346" lon="7.44056">
        <ele>849.59997558594</ele>
        <time>2022-04-09T08:51:32.000Z</time>
      </trkpt>
      <trkpt lat="43.9035" lon="7.44057">
        <ele>850.79998779297</ele>
        <time>2022-04-09T08:51:34.000Z</time>
      </trkpt>
      <trkpt lat="43.90355" lon="7.44058">
        <ele>850.79998779297</ele>
        <time>2022-04-09T08:51:36.000Z</time>
      </trkpt>
      <trkpt lat="43.90366" lon="7.44063">
        <ele>850.20001220703</ele>
        <time>2022-04-09T08:51:40.000Z</time>
      </trkpt>
      <trkpt lat="43.90379" lon="7.44074">
        <ele>850</ele>
        <time>2022-04-09T08:51:44.000Z</time>
      </trkpt>
      <trkpt lat="43.90388" lon="7.44083">
        <ele>850.59997558594</ele>
        <time>2022-04-09T08:51:48.000Z</time>
      </trkpt>
      <trkpt lat="43.90395" lon="7.44084">
        <ele>852</ele>
        <time>2022-04-09T08:51:51.000Z</time>
      </trkpt>
      <trkpt lat="43.90396" lon="7.44083">
        <ele>852.59997558594</ele>
        <time>2022-04-09T08:51:53.000Z</time>
      </trkpt>
      <trkpt lat="43.90397" lon="7.44075">
        <ele>853</ele>
        <time>2022-04-09T08:51:55.000Z</time>
      </trkpt>
      <trkpt lat="43.90397" lon="7.44071">
        <ele>853.20001220703</ele>
        <time>2022-04-09T08:51:56.000Z</time>
      </trkpt>
      <trkpt lat="43.90402" lon="7.44054">
        <ele>854.20001220703</ele>
        <time>2022-04-09T08:52:01.000Z</time>
      </trkpt>
      <trkpt lat="43.90403" lon="7.44051">
        <ele>854.40002441406</ele>
        <time>2022-04-09T08:52:02.000Z</time>
      </trkpt>
      <trkpt lat="43.90404" lon="7.44048">
        <ele>854.79998779297</ele>
        <time>2022-04-09T08:52:03.000Z</time>
      </trkpt>
      <trkpt lat="43.90406" lon="7.44041">
        <ele>855.40002441406</ele>
        <time>2022-04-09T08:52:05.000Z</time>
      </trkpt>
      <trkpt lat="43.90407" lon="7.44035">
        <ele>856.20001220703</ele>
        <time>2022-04-09T08:52:07.000Z</time>
      </trkpt>
      <trkpt lat="43.90408" lon="7.44032">
        <ele>856.59997558594</ele>
        <time>2022-04-09T08:52:08.000Z</time>
      </trkpt>
      <trkpt lat="43.90412" lon="7.44022">
        <ele>857.79998779297</ele>
        <time>2022-04-09T08:52:11.000Z</time>
      </trkpt>
      <trkpt lat="43.90414" lon="7.44015">
        <ele>858.59997558594</ele>
        <time>2022-04-09T08:52:13.000Z</time>
      </trkpt>
      <trkpt lat="43.90416" lon="7.44012">
        <ele>859</ele>
        <time>2022-04-09T08:52:14.000Z</time>
      </trkpt>
      <trkpt lat="43.90426" lon="7.43996">
        <ele>860.20001220703</ele>
        <time>2022-04-09T08:52:19.000Z</time>
      </trkpt>
      <trkpt lat="43.90432" lon="7.43973">
        <ele>860.79998779297</ele>
        <time>2022-04-09T08:52:25.000Z</time>
      </trkpt>
      <trkpt lat="43.90432" lon="7.4396">
        <ele>861.20001220703</ele>
        <time>2022-04-09T08:52:29.000Z</time>
      </trkpt>
      <trkpt lat="43.9043" lon="7.43949">
        <ele>862.59997558594</ele>
        <time>2022-04-09T08:52:32.000Z</time>
      </trkpt>
      <trkpt lat="43.90427" lon="7.43942">
        <ele>863.40002441406</ele>
        <time>2022-04-09T08:52:34.000Z</time>
      </trkpt>
      <trkpt lat="43.90426" lon="7.43937">
        <ele>863.59997558594</ele>
        <time>2022-04-09T08:52:35.000Z</time>
      </trkpt>
      <trkpt lat="43.90424" lon="7.43913">
        <ele>864.40002441406</ele>
        <time>2022-04-09T08:52:40.000Z</time>
      </trkpt>
      <trkpt lat="43.90425" lon="7.43909">
        <ele>864.59997558594</ele>
        <time>2022-04-09T08:52:41.000Z</time>
      </trkpt>
      <trkpt lat="43.90428" lon="7.43897">
        <ele>865.59997558594</ele>
        <time>2022-04-09T08:52:45.000Z</time>
      </trkpt>
      <trkpt lat="43.90427" lon="7.43895">
        <ele>866</ele>
        <time>2022-04-09T08:52:46.000Z</time>
      </trkpt>
      <trkpt lat="43.90427" lon="7.43886">
        <ele>867.40002441406</ele>
        <time>2022-04-09T08:52:49.000Z</time>
      </trkpt>
      <trkpt lat="43.90427" lon="7.43884">
        <ele>867.79998779297</ele>
        <time>2022-04-09T08:52:50.000Z</time>
      </trkpt>
      <trkpt lat="43.90426" lon="7.43878">
        <ele>868.79998779297</ele>
        <time>2022-04-09T08:52:52.000Z</time>
      </trkpt>
      <trkpt lat="43.90427" lon="7.43869">
        <ele>870.40002441406</ele>
        <time>2022-04-09T08:52:55.000Z</time>
      </trkpt>
      <trkpt lat="43.90427" lon="7.43866">
        <ele>870.79998779297</ele>
        <time>2022-04-09T08:52:56.000Z</time>
      </trkpt>
      <trkpt lat="43.90428" lon="7.43861">
        <ele>871.59997558594</ele>
        <time>2022-04-09T08:52:58.000Z</time>
      </trkpt>
      <trkpt lat="43.90427" lon="7.43852">
        <ele>873</ele>
        <time>2022-04-09T08:53:01.000Z</time>
      </trkpt>
      <trkpt lat="43.90426" lon="7.43846">
        <ele>873.79998779297</ele>
        <time>2022-04-09T08:53:03.000Z</time>
      </trkpt>
      <trkpt lat="43.90426" lon="7.4384">
        <ele>874.20001220703</ele>
        <time>2022-04-09T08:53:05.000Z</time>
      </trkpt>
      <trkpt lat="43.9043" lon="7.4383">
        <ele>875.20001220703</ele>
        <time>2022-04-09T08:53:09.000Z</time>
      </trkpt>
      <trkpt lat="43.90433" lon="7.43826">
        <ele>876.40002441406</ele>
        <time>2022-04-09T08:53:11.000Z</time>
      </trkpt>
      <trkpt lat="43.9044" lon="7.43818">
        <ele>877.40002441406</ele>
        <time>2022-04-09T08:53:15.000Z</time>
      </trkpt>
      <trkpt lat="43.90442" lon="7.43816">
        <ele>877.59997558594</ele>
        <time>2022-04-09T08:53:16.000Z</time>
      </trkpt>
      <trkpt lat="43.90451" lon="7.43809">
        <ele>878.79998779297</ele>
        <time>2022-04-09T08:53:20.000Z</time>
      </trkpt>
      <trkpt lat="43.90458" lon="7.43805">
        <ele>879.40002441406</ele>
        <time>2022-04-09T08:53:23.000Z</time>
      </trkpt>
      <trkpt lat="43.9046" lon="7.43804">
        <ele>879.79998779297</ele>
        <time>2022-04-09T08:53:24.000Z</time>
      </trkpt>
      <trkpt lat="43.90463" lon="7.438">
        <ele>880.40002441406</ele>
        <time>2022-04-09T08:53:26.000Z</time>
      </trkpt>
      <trkpt lat="43.90466" lon="7.43798">
        <ele>881.20001220703</ele>
        <time>2022-04-09T08:53:28.000Z</time>
      </trkpt>
      <trkpt lat="43.90469" lon="7.43794">
        <ele>882.20001220703</ele>
        <time>2022-04-09T08:53:30.000Z</time>
      </trkpt>
      <trkpt lat="43.90471" lon="7.43793">
        <ele>882.79998779297</ele>
        <time>2022-04-09T08:53:31.000Z</time>
      </trkpt>
      <trkpt lat="43.90474" lon="7.43789">
        <ele>883.59997558594</ele>
        <time>2022-04-09T08:53:33.000Z</time>
      </trkpt>
      <trkpt lat="43.90477" lon="7.43786">
        <ele>884.20001220703</ele>
        <time>2022-04-09T08:53:35.000Z</time>
      </trkpt>
      <trkpt lat="43.90481" lon="7.43783">
        <ele>884.79998779297</ele>
        <time>2022-04-09T08:53:37.000Z</time>
      </trkpt>
      <trkpt lat="43.90488" lon="7.43777">
        <ele>885.79998779297</ele>
        <time>2022-04-09T08:53:41.000Z</time>
      </trkpt>
      <trkpt lat="43.9049" lon="7.43776">
        <ele>885.79998779297</ele>
        <time>2022-04-09T08:53:42.000Z</time>
      </trkpt>
      <trkpt lat="43.905" lon="7.43774">
        <ele>886.79998779297</ele>
        <time>2022-04-09T08:53:46.000Z</time>
      </trkpt>
      <trkpt lat="43.90502" lon="7.43773">
        <ele>887</ele>
        <time>2022-04-09T08:53:47.000Z</time>
      </trkpt>
      <trkpt lat="43.90507" lon="7.43775">
        <ele>887.79998779297</ele>
        <time>2022-04-09T08:53:51.000Z</time>
      </trkpt>
      <trkpt lat="43.90506" lon="7.43777">
        <ele>888</ele>
        <time>2022-04-09T08:53:52.000Z</time>
      </trkpt>
      <trkpt lat="43.90505" lon="7.43778">
        <ele>888.40002441406</ele>
        <time>2022-04-09T08:53:53.000Z</time>
      </trkpt>
      <trkpt lat="43.90499" lon="7.43781">
        <ele>889.20001220703</ele>
        <time>2022-04-09T08:53:56.000Z</time>
      </trkpt>
      <trkpt lat="43.90497" lon="7.43783">
        <ele>889.40002441406</ele>
        <time>2022-04-09T08:53:57.000Z</time>
      </trkpt>
      <trkpt lat="43.90495" lon="7.43787">
        <ele>890</ele>
        <time>2022-04-09T08:54:01.000Z</time>
      </trkpt>
      <trkpt lat="43.90496" lon="7.43788">
        <ele>890.40002441406</ele>
        <time>2022-04-09T08:54:03.000Z</time>
      </trkpt>
      <trkpt lat="43.90502" lon="7.43786">
        <ele>891.20001220703</ele>
        <time>2022-04-09T08:54:05.000Z</time>
      </trkpt>
      <trkpt lat="43.90505" lon="7.43785">
        <ele>891.40002441406</ele>
        <time>2022-04-09T08:54:06.000Z</time>
      </trkpt>
      <trkpt lat="43.90515" lon="7.43784">
        <ele>892.59997558594</ele>
        <time>2022-04-09T08:54:10.000Z</time>
      </trkpt>
      <trkpt lat="43.90521" lon="7.43783">
        <ele>893.59997558594</ele>
        <time>2022-04-09T08:54:13.000Z</time>
      </trkpt>
      <trkpt lat="43.90523" lon="7.43783">
        <ele>894</ele>
        <time>2022-04-09T08:54:14.000Z</time>
      </trkpt>
      <trkpt lat="43.90533" lon="7.43788">
        <ele>895.20001220703</ele>
        <time>2022-04-09T08:54:19.000Z</time>
      </trkpt>
      <trkpt lat="43.9054" lon="7.4379">
        <ele>896.40002441406</ele>
        <time>2022-04-09T08:54:23.000Z</time>
      </trkpt>
      <trkpt lat="43.90542" lon="7.4379">
        <ele>896.79998779297</ele>
        <time>2022-04-09T08:54:24.000Z</time>
      </trkpt>
      <trkpt lat="43.90546" lon="7.4379">
        <ele>897.79998779297</ele>
        <time>2022-04-09T08:54:26.000Z</time>
      </trkpt>
      <trkpt lat="43.90552" lon="7.43792">
        <ele>898.79998779297</ele>
        <time>2022-04-09T08:54:29.000Z</time>
      </trkpt>
      <trkpt lat="43.90553" lon="7.43792">
        <ele>899</ele>
        <time>2022-04-09T08:54:30.000Z</time>
      </trkpt>
      <trkpt lat="43.90557" lon="7.43792">
        <ele>900.40002441406</ele>
        <time>2022-04-09T08:54:33.000Z</time>
      </trkpt>
      <trkpt lat="43.90559" lon="7.43793">
        <ele>901.20001220703</ele>
        <time>2022-04-09T08:54:35.000Z</time>
      </trkpt>
      <trkpt lat="43.90559" lon="7.43796">
        <ele>901.59997558594</ele>
        <time>2022-04-09T08:54:36.000Z</time>
      </trkpt>
      <trkpt lat="43.90556" lon="7.43798">
        <ele>902.40002441406</ele>
        <time>2022-04-09T08:54:38.000Z</time>
      </trkpt>
      <trkpt lat="43.90554" lon="7.43798">
        <ele>902.59997558594</ele>
        <time>2022-04-09T08:54:39.000Z</time>
      </trkpt>
      <trkpt lat="43.90552" lon="7.43798">
        <ele>903</ele>
        <time>2022-04-09T08:54:40.000Z</time>
      </trkpt>
      <trkpt lat="43.90548" lon="7.438">
        <ele>903.59997558594</ele>
        <time>2022-04-09T08:54:43.000Z</time>
      </trkpt>
      <trkpt lat="43.90547" lon="7.43801">
        <ele>903.59997558594</ele>
        <time>2022-04-09T08:54:44.000Z</time>
      </trkpt>
      <trkpt lat="43.90548" lon="7.43801">
        <ele>903.59997558594</ele>
        <time>2022-04-09T08:54:45.000Z</time>
      </trkpt>
      <trkpt lat="43.90547" lon="7.43801">
        <ele>904</ele>
        <time>2022-04-09T08:54:48.000Z</time>
      </trkpt>
      <trkpt lat="43.90548" lon="7.43801">
        <ele>904.20001220703</ele>
        <time>2022-04-09T08:54:54.000Z</time>
      </trkpt>
      <trkpt lat="43.90555" lon="7.43802">
        <ele>904.79998779297</ele>
        <time>2022-04-09T08:54:57.000Z</time>
      </trkpt>
      <trkpt lat="43.90557" lon="7.43802">
        <ele>905</ele>
        <time>2022-04-09T08:54:58.000Z</time>
      </trkpt>
      <trkpt lat="43.90562" lon="7.43804">
        <ele>906</ele>
        <time>2022-04-09T08:55:00.000Z</time>
      </trkpt>
      <trkpt lat="43.90568" lon="7.43806">
        <ele>907</ele>
        <time>2022-04-09T08:55:02.000Z</time>
      </trkpt>
      <trkpt lat="43.90571" lon="7.43806">
        <ele>907.59997558594</ele>
        <time>2022-04-09T08:55:03.000Z</time>
      </trkpt>
      <trkpt lat="43.90573" lon="7.43807">
        <ele>908.20001220703</ele>
        <time>2022-04-09T08:55:04.000Z</time>
      </trkpt>
      <trkpt lat="43.90578" lon="7.43807">
        <ele>909.40002441406</ele>
        <time>2022-04-09T08:55:06.000Z</time>
      </trkpt>
      <trkpt lat="43.90582" lon="7.43807">
        <ele>910.79998779297</ele>
        <time>2022-04-09T08:55:08.000Z</time>
      </trkpt>
      <trkpt lat="43.90584" lon="7.43808">
        <ele>911.40002441406</ele>
        <time>2022-04-09T08:55:09.000Z</time>
      </trkpt>
      <trkpt lat="43.90588" lon="7.43808">
        <ele>912.20001220703</ele>
        <time>2022-04-09T08:55:11.000Z</time>
      </trkpt>
      <trkpt lat="43.90594" lon="7.43808">
        <ele>913.40002441406</ele>
        <time>2022-04-09T08:55:14.000Z</time>
      </trkpt>
      <trkpt lat="43.90597" lon="7.43808">
        <ele>914.40002441406</ele>
        <time>2022-04-09T08:55:16.000Z</time>
      </trkpt>
      <trkpt lat="43.90599" lon="7.43808">
        <ele>915.79998779297</ele>
        <time>2022-04-09T08:55:18.000Z</time>
      </trkpt>
      <trkpt lat="43.90602" lon="7.43808">
        <ele>916.59997558594</ele>
        <time>2022-04-09T08:55:20.000Z</time>
      </trkpt>
      <trkpt lat="43.90603" lon="7.4381">
        <ele>917</ele>
        <time>2022-04-09T08:55:21.000Z</time>
      </trkpt>
      <trkpt lat="43.90598" lon="7.43813">
        <ele>918.20001220703</ele>
        <time>2022-04-09T08:55:24.000Z</time>
      </trkpt>
      <trkpt lat="43.90592" lon="7.43818">
        <ele>919.40002441406</ele>
        <time>2022-04-09T08:55:28.000Z</time>
      </trkpt>
      <trkpt lat="43.90589" lon="7.43818">
        <ele>919.40002441406</ele>
        <time>2022-04-09T08:55:29.000Z</time>
      </trkpt>
      <trkpt lat="43.9058" lon="7.4382">
        <ele>920.40002441406</ele>
        <time>2022-04-09T08:55:33.000Z</time>
      </trkpt>
      <trkpt lat="43.90578" lon="7.4382">
        <ele>920.59997558594</ele>
        <time>2022-04-09T08:55:34.000Z</time>
      </trkpt>
      <trkpt lat="43.90576" lon="7.43821">
        <ele>920.79998779297</ele>
        <time>2022-04-09T08:55:35.000Z</time>
      </trkpt>
      <trkpt lat="43.90568" lon="7.43825">
        <ele>920.59997558594</ele>
        <time>2022-04-09T08:55:39.000Z</time>
      </trkpt>
      <trkpt lat="43.90567" lon="7.43827">
        <ele>921</ele>
        <time>2022-04-09T08:55:40.000Z</time>
      </trkpt>
      <trkpt lat="43.90562" lon="7.43829">
        <ele>921.59997558594</ele>
        <time>2022-04-09T08:55:42.000Z</time>
      </trkpt>
      <trkpt lat="43.90557" lon="7.43831">
        <ele>922.40002441406</ele>
        <time>2022-04-09T08:55:44.000Z</time>
      </trkpt>
      <trkpt lat="43.90553" lon="7.43835">
        <ele>922.79998779297</ele>
        <time>2022-04-09T08:55:46.000Z</time>
      </trkpt>
      <trkpt lat="43.90552" lon="7.43836">
        <ele>922.79998779297</ele>
        <time>2022-04-09T08:55:47.000Z</time>
      </trkpt>
      <trkpt lat="43.90548" lon="7.4384">
        <ele>923</ele>
        <time>2022-04-09T08:55:49.000Z</time>
      </trkpt>
      <trkpt lat="43.90541" lon="7.43843">
        <ele>924</ele>
        <time>2022-04-09T08:55:53.000Z</time>
      </trkpt>
      <trkpt lat="43.9054" lon="7.43844">
        <ele>924.40002441406</ele>
        <time>2022-04-09T08:55:55.000Z</time>
      </trkpt>
      <trkpt lat="43.90542" lon="7.43844">
        <ele>924.79998779297</ele>
        <time>2022-04-09T08:55:56.000Z</time>
      </trkpt>
      <trkpt lat="43.90546" lon="7.43842">
        <ele>925</ele>
        <time>2022-04-09T08:55:58.000Z</time>
      </trkpt>
      <trkpt lat="43.90551" lon="7.4384">
        <ele>925.20001220703</ele>
        <time>2022-04-09T08:56:00.000Z</time>
      </trkpt>
      <trkpt lat="43.90559" lon="7.4384">
        <ele>925.79998779297</ele>
        <time>2022-04-09T08:56:03.000Z</time>
      </trkpt>
      <trkpt lat="43.90561" lon="7.43841">
        <ele>926.40002441406</ele>
        <time>2022-04-09T08:56:04.000Z</time>
      </trkpt>
      <trkpt lat="43.90567" lon="7.43844">
        <ele>927.59997558594</ele>
        <time>2022-04-09T08:56:08.000Z</time>
      </trkpt>
      <trkpt lat="43.90571" lon="7.43846">
        <ele>928.79998779297</ele>
        <time>2022-04-09T08:56:10.000Z</time>
      </trkpt>
      <trkpt lat="43.90575" lon="7.43846">
        <ele>929.59997558594</ele>
        <time>2022-04-09T08:56:12.000Z</time>
      </trkpt>
      <trkpt lat="43.90576" lon="7.43847">
        <ele>930</ele>
        <time>2022-04-09T08:56:13.000Z</time>
      </trkpt>
      <trkpt lat="43.90579" lon="7.43848">
        <ele>931.20001220703</ele>
        <time>2022-04-09T08:56:15.000Z</time>
      </trkpt>
      <trkpt lat="43.90582" lon="7.43848">
        <ele>932.59997558594</ele>
        <time>2022-04-09T08:56:17.000Z</time>
      </trkpt>
      <trkpt lat="43.90585" lon="7.43848">
        <ele>933.79998779297</ele>
        <time>2022-04-09T08:56:19.000Z</time>
      </trkpt>
      <trkpt lat="43.90589" lon="7.43848">
        <ele>935</ele>
        <time>2022-04-09T08:56:21.000Z</time>
      </trkpt>
      <trkpt lat="43.90593" lon="7.43849">
        <ele>936</ele>
        <time>2022-04-09T08:56:24.000Z</time>
      </trkpt>
      <trkpt lat="43.90593" lon="7.43851">
        <ele>936.59997558594</ele>
        <time>2022-04-09T08:56:25.000Z</time>
      </trkpt>
      <trkpt lat="43.90592" lon="7.43853">
        <ele>937</ele>
        <time>2022-04-09T08:56:26.000Z</time>
      </trkpt>
      <trkpt lat="43.90591" lon="7.43852">
        <ele>937.59997558594</ele>
        <time>2022-04-09T08:56:27.000Z</time>
      </trkpt>
      <trkpt lat="43.90591" lon="7.43852">
        <ele>938</ele>
        <time>2022-04-09T08:56:28.000Z</time>
      </trkpt>
      <trkpt lat="43.90589" lon="7.43853">
        <ele>938.59997558594</ele>
        <time>2022-04-09T08:56:30.000Z</time>
      </trkpt>
      <trkpt lat="43.90587" lon="7.43854">
        <ele>938.79998779297</ele>
        <time>2022-04-09T08:56:32.000Z</time>
      </trkpt>
      <trkpt lat="43.90581" lon="7.43858">
        <ele>939</ele>
        <time>2022-04-09T08:56:35.000Z</time>
      </trkpt>
      <trkpt lat="43.90575" lon="7.4386">
        <ele>939.59997558594</ele>
        <time>2022-04-09T08:56:38.000Z</time>
      </trkpt>
      <trkpt lat="43.90568" lon="7.43863">
        <ele>940.20001220703</ele>
        <time>2022-04-09T08:56:42.000Z</time>
      </trkpt>
      <trkpt lat="43.90568" lon="7.43865">
        <ele>940.40002441406</ele>
        <time>2022-04-09T08:56:44.000Z</time>
      </trkpt>
      <trkpt lat="43.90568" lon="7.43865">
        <ele>940.59997558594</ele>
        <time>2022-04-09T08:56:45.000Z</time>
      </trkpt>
      <trkpt lat="43.90572" lon="7.43864">
        <ele>941.20001220703</ele>
        <time>2022-04-09T08:56:47.000Z</time>
      </trkpt>
      <trkpt lat="43.90574" lon="7.43863">
        <ele>941.59997558594</ele>
        <time>2022-04-09T08:56:48.000Z</time>
      </trkpt>
      <trkpt lat="43.90576" lon="7.43863">
        <ele>941.79998779297</ele>
        <time>2022-04-09T08:56:49.000Z</time>
      </trkpt>
      <trkpt lat="43.90577" lon="7.43863">
        <ele>942.59997558594</ele>
        <time>2022-04-09T08:56:50.000Z</time>
      </trkpt>
      <trkpt lat="43.90581" lon="7.43862">
        <ele>943.59997558594</ele>
        <time>2022-04-09T08:56:52.000Z</time>
      </trkpt>
      <trkpt lat="43.90585" lon="7.43861">
        <ele>944.59997558594</ele>
        <time>2022-04-09T08:56:54.000Z</time>
      </trkpt>
      <trkpt lat="43.90587" lon="7.43861">
        <ele>944.79998779297</ele>
        <time>2022-04-09T08:56:55.000Z</time>
      </trkpt>
      <trkpt lat="43.90594" lon="7.43862">
        <ele>945.59997558594</ele>
        <time>2022-04-09T08:57:00.000Z</time>
      </trkpt>
      <trkpt lat="43.90596" lon="7.43862">
        <ele>945.79998779297</ele>
        <time>2022-04-09T08:57:01.000Z</time>
      </trkpt>
      <trkpt lat="43.906" lon="7.43863">
        <ele>947</ele>
        <time>2022-04-09T08:57:03.000Z</time>
      </trkpt>
      <trkpt lat="43.90604" lon="7.43861">
        <ele>948.20001220703</ele>
        <time>2022-04-09T08:57:05.000Z</time>
      </trkpt>
      <trkpt lat="43.90606" lon="7.4386">
        <ele>948.79998779297</ele>
        <time>2022-04-09T08:57:06.000Z</time>
      </trkpt>
      <trkpt lat="43.90608" lon="7.43859">
        <ele>949.20001220703</ele>
        <time>2022-04-09T08:57:07.000Z</time>
      </trkpt>
      <trkpt lat="43.9061" lon="7.43858">
        <ele>949.59997558594</ele>
        <time>2022-04-09T08:57:08.000Z</time>
      </trkpt>
      <trkpt lat="43.90614" lon="7.43856">
        <ele>950.40002441406</ele>
        <time>2022-04-09T08:57:10.000Z</time>
      </trkpt>
      <trkpt lat="43.90619" lon="7.43854">
        <ele>950.59997558594</ele>
        <time>2022-04-09T08:57:12.000Z</time>
      </trkpt>
      <trkpt lat="43.90631" lon="7.43856">
        <ele>951.40002441406</ele>
        <time>2022-04-09T08:57:17.000Z</time>
      </trkpt>
      <trkpt lat="43.90636" lon="7.43856">
        <ele>952.59997558594</ele>
        <time>2022-04-09T08:57:20.000Z</time>
      </trkpt>
      <trkpt lat="43.90638" lon="7.43856">
        <ele>953.59997558594</ele>
        <time>2022-04-09T08:57:22.000Z</time>
      </trkpt>
      <trkpt lat="43.9064" lon="7.43856">
        <ele>954.20001220703</ele>
        <time>2022-04-09T08:57:23.000Z</time>
      </trkpt>
      <trkpt lat="43.90646" lon="7.43855">
        <ele>955.59997558594</ele>
        <time>2022-04-09T08:57:26.000Z</time>
      </trkpt>
      <trkpt lat="43.90648" lon="7.43855">
        <ele>956</ele>
        <time>2022-04-09T08:57:27.000Z</time>
      </trkpt>
      <trkpt lat="43.90654" lon="7.43856">
        <ele>956.79998779297</ele>
        <time>2022-04-09T08:57:30.000Z</time>
      </trkpt>
      <trkpt lat="43.90657" lon="7.43856">
        <ele>957.40002441406</ele>
        <time>2022-04-09T08:57:32.000Z</time>
      </trkpt>
      <trkpt lat="43.90663" lon="7.43855">
        <ele>958</ele>
        <time>2022-04-09T08:57:36.000Z</time>
      </trkpt>
      <trkpt lat="43.90664" lon="7.43854">
        <ele>958.20001220703</ele>
        <time>2022-04-09T08:57:37.000Z</time>
      </trkpt>
      <trkpt lat="43.9067" lon="7.43852">
        <ele>959.59997558594</ele>
        <time>2022-04-09T08:57:40.000Z</time>
      </trkpt>
      <trkpt lat="43.90674" lon="7.43852">
        <ele>960.40002441406</ele>
        <time>2022-04-09T08:57:42.000Z</time>
      </trkpt>
      <trkpt lat="43.90676" lon="7.43852">
        <ele>960.79998779297</ele>
        <time>2022-04-09T08:57:43.000Z</time>
      </trkpt>
      <trkpt lat="43.90681" lon="7.43852">
        <ele>962</ele>
        <time>2022-04-09T08:57:46.000Z</time>
      </trkpt>
      <trkpt lat="43.90683" lon="7.43852">
        <ele>962.40002441406</ele>
        <time>2022-04-09T08:57:47.000Z</time>
      </trkpt>
      <trkpt lat="43.90687" lon="7.43852">
        <ele>963.20001220703</ele>
        <time>2022-04-09T08:57:49.000Z</time>
      </trkpt>
      <trkpt lat="43.90696" lon="7.43849">
        <ele>964.20001220703</ele>
        <time>2022-04-09T08:57:53.000Z</time>
      </trkpt>
      <trkpt lat="43.90698" lon="7.43849">
        <ele>964.59997558594</ele>
        <time>2022-04-09T08:57:54.000Z</time>
      </trkpt>
      <trkpt lat="43.90702" lon="7.43847">
        <ele>965.40002441406</ele>
        <time>2022-04-09T08:57:56.000Z</time>
      </trkpt>
      <trkpt lat="43.9071" lon="7.43844">
        <ele>966.40002441406</ele>
        <time>2022-04-09T08:58:00.000Z</time>
      </trkpt>
      <trkpt lat="43.90715" lon="7.43843">
        <ele>967.59997558594</ele>
        <time>2022-04-09T08:58:03.000Z</time>
      </trkpt>
      <trkpt lat="43.90717" lon="7.43842">
        <ele>967.79998779297</ele>
        <time>2022-04-09T08:58:04.000Z</time>
      </trkpt>
      <trkpt lat="43.90723" lon="7.43841">
        <ele>968.79998779297</ele>
        <time>2022-04-09T08:58:07.000Z</time>
      </trkpt>
      <trkpt lat="43.90728" lon="7.43839">
        <ele>969.59997558594</ele>
        <time>2022-04-09T08:58:10.000Z</time>
      </trkpt>
      <trkpt lat="43.9073" lon="7.43839">
        <ele>970</ele>
        <time>2022-04-09T08:58:11.000Z</time>
      </trkpt>
      <trkpt lat="43.90734" lon="7.43837">
        <ele>971.20001220703</ele>
        <time>2022-04-09T08:58:14.000Z</time>
      </trkpt>
      <trkpt lat="43.90736" lon="7.43837">
        <ele>971.40002441406</ele>
        <time>2022-04-09T08:58:15.000Z</time>
      </trkpt>
      <trkpt lat="43.90736" lon="7.4384">
        <ele>971.40002441406</ele>
        <time>2022-04-09T08:58:16.000Z</time>
      </trkpt>
      <trkpt lat="43.90732" lon="7.43845">
        <ele>972.20001220703</ele>
        <time>2022-04-09T08:58:20.000Z</time>
      </trkpt>
      <trkpt lat="43.90726" lon="7.43849">
        <ele>973.20001220703</ele>
        <time>2022-04-09T08:58:24.000Z</time>
      </trkpt>
      <trkpt lat="43.90725" lon="7.4385">
        <ele>973.40002441406</ele>
        <time>2022-04-09T08:58:25.000Z</time>
      </trkpt>
      <trkpt lat="43.90724" lon="7.43851">
        <ele>973.59997558594</ele>
        <time>2022-04-09T08:58:26.000Z</time>
      </trkpt>
      <trkpt lat="43.90722" lon="7.43854">
        <ele>974</ele>
        <time>2022-04-09T08:58:32.000Z</time>
      </trkpt>
      <trkpt lat="43.90726" lon="7.43854">
        <ele>974.59997558594</ele>
        <time>2022-04-09T08:58:38.000Z</time>
      </trkpt>
      <trkpt lat="43.90735" lon="7.43852">
        <ele>975.79998779297</ele>
        <time>2022-04-09T08:58:42.000Z</time>
      </trkpt>
      <trkpt lat="43.90738" lon="7.43849">
        <ele>976</ele>
        <time>2022-04-09T08:58:44.000Z</time>
      </trkpt>
      <trkpt lat="43.90745" lon="7.43846">
        <ele>976.79998779297</ele>
        <time>2022-04-09T08:58:47.000Z</time>
      </trkpt>
      <trkpt lat="43.90747" lon="7.43845">
        <ele>977.20001220703</ele>
        <time>2022-04-09T08:58:48.000Z</time>
      </trkpt>
      <trkpt lat="43.90749" lon="7.43845">
        <ele>977.59997558594</ele>
        <time>2022-04-09T08:58:49.000Z</time>
      </trkpt>
      <trkpt lat="43.90751" lon="7.43846">
        <ele>978.20001220703</ele>
        <time>2022-04-09T08:58:50.000Z</time>
      </trkpt>
      <trkpt lat="43.90754" lon="7.43847">
        <ele>979.40002441406</ele>
        <time>2022-04-09T08:58:52.000Z</time>
      </trkpt>
      <trkpt lat="43.90757" lon="7.43847">
        <ele>980</ele>
        <time>2022-04-09T08:58:53.000Z</time>
      </trkpt>
      <trkpt lat="43.90759" lon="7.43849">
        <ele>980.59997558594</ele>
        <time>2022-04-09T08:58:54.000Z</time>
      </trkpt>
      <trkpt lat="43.90763" lon="7.43849">
        <ele>981.79998779297</ele>
        <time>2022-04-09T08:58:56.000Z</time>
      </trkpt>
      <trkpt lat="43.90764" lon="7.43849">
        <ele>982.20001220703</ele>
        <time>2022-04-09T08:58:57.000Z</time>
      </trkpt>
      <trkpt lat="43.90768" lon="7.43849">
        <ele>983</ele>
        <time>2022-04-09T08:58:59.000Z</time>
      </trkpt>
      <trkpt lat="43.90777" lon="7.43849">
        <ele>984</ele>
        <time>2022-04-09T08:59:04.000Z</time>
      </trkpt>
      <trkpt lat="43.9078" lon="7.43849">
        <ele>984.20001220703</ele>
        <time>2022-04-09T08:59:06.000Z</time>
      </trkpt>
      <trkpt lat="43.90786" lon="7.43848">
        <ele>985.20001220703</ele>
        <time>2022-04-09T08:59:10.000Z</time>
      </trkpt>
      <trkpt lat="43.90786" lon="7.4385">
        <ele>986.40002441406</ele>
        <time>2022-04-09T08:59:13.000Z</time>
      </trkpt>
      <trkpt lat="43.90786" lon="7.4385">
        <ele>987.20001220703</ele>
        <time>2022-04-09T08:59:21.000Z</time>
      </trkpt>
      <trkpt lat="43.90786" lon="7.4385">
        <ele>987.40002441406</ele>
        <time>2022-04-09T08:59:24.000Z</time>
      </trkpt>
      <trkpt lat="43.90787" lon="7.43851">
        <ele>987.59997558594</ele>
        <time>2022-04-09T08:59:29.000Z</time>
      </trkpt>
      <trkpt lat="43.90786" lon="7.43853">
        <ele>987.79998779297</ele>
        <time>2022-04-09T08:59:36.000Z</time>
      </trkpt>
      <trkpt lat="43.90786" lon="7.43854">
        <ele>988.40002441406</ele>
        <time>2022-04-09T08:59:41.000Z</time>
      </trkpt>
      <trkpt lat="43.90788" lon="7.43855">
        <ele>989</ele>
        <time>2022-04-09T08:59:44.000Z</time>
      </trkpt>
      <trkpt lat="43.9079" lon="7.43854">
        <ele>989.59997558594</ele>
        <time>2022-04-09T08:59:47.000Z</time>
      </trkpt>
      <trkpt lat="43.90791" lon="7.43855">
        <ele>989.79998779297</ele>
        <time>2022-04-09T08:59:50.000Z</time>
      </trkpt>
      <trkpt lat="43.90791" lon="7.43858">
        <ele>990.20001220703</ele>
        <time>2022-04-09T08:59:56.000Z</time>
      </trkpt>
      <trkpt lat="43.90791" lon="7.43859">
        <ele>990.59997558594</ele>
        <time>2022-04-09T08:59:58.000Z</time>
      </trkpt>
      <trkpt lat="43.90791" lon="7.4386">
        <ele>990.79998779297</ele>
        <time>2022-04-09T08:59:59.000Z</time>
      </trkpt>
      <trkpt lat="43.90791" lon="7.43859">
        <ele>991</ele>
        <time>2022-04-09T09:00:00.000Z</time>
      </trkpt>
      <trkpt lat="43.9079" lon="7.43863">
        <ele>991.40002441406</ele>
        <time>2022-04-09T09:00:04.000Z</time>
      </trkpt>
      <trkpt lat="43.90787" lon="7.43865">
        <ele>991.59997558594</ele>
        <time>2022-04-09T09:00:06.000Z</time>
      </trkpt>
      <trkpt lat="43.90786" lon="7.43866">
        <ele>991.59997558594</ele>
        <time>2022-04-09T09:00:08.000Z</time>
      </trkpt>
      <trkpt lat="43.90786" lon="7.43867">
        <ele>991.79998779297</ele>
        <time>2022-04-09T09:00:11.000Z</time>
      </trkpt>
      <trkpt lat="43.90788" lon="7.43867">
        <ele>992.40002441406</ele>
        <time>2022-04-09T09:00:15.000Z</time>
      </trkpt>
      <trkpt lat="43.90788" lon="7.43867">
        <ele>992.79998779297</ele>
        <time>2022-04-09T09:00:17.000Z</time>
      </trkpt>
      <trkpt lat="43.90791" lon="7.43869">
        <ele>993</ele>
        <time>2022-04-09T09:00:22.000Z</time>
      </trkpt>
      <trkpt lat="43.90792" lon="7.43872">
        <ele>994</ele>
        <time>2022-04-09T09:00:27.000Z</time>
      </trkpt>
      <trkpt lat="43.90792" lon="7.43872">
        <ele>994.20001220703</ele>
        <time>2022-04-09T09:00:29.000Z</time>
      </trkpt>
      <trkpt lat="43.90793" lon="7.43872">
        <ele>994.40002441406</ele>
        <time>2022-04-09T09:00:47.000Z</time>
      </trkpt>
      <trkpt lat="43.90793" lon="7.43872">
        <ele>994.20001220703</ele>
        <time>2022-04-09T09:00:57.000Z</time>
      </trkpt>
      <trkpt lat="43.90793" lon="7.43873">
        <ele>993.79998779297</ele>
        <time>2022-04-09T09:01:04.000Z</time>
      </trkpt>
      <trkpt lat="43.90794" lon="7.43874">
        <ele>993.59997558594</ele>
        <time>2022-04-09T09:01:15.000Z</time>
      </trkpt>
      <trkpt lat="43.90795" lon="7.43874">
        <ele>994.20001220703</ele>
        <time>2022-04-09T09:01:21.000Z</time>
      </trkpt>
      <trkpt lat="43.90796" lon="7.43874">
        <ele>994.59997558594</ele>
        <time>2022-04-09T09:01:27.000Z</time>
      </trkpt>
      <trkpt lat="43.90796" lon="7.43874">
        <ele>995</ele>
        <time>2022-04-09T09:01:31.000Z</time>
      </trkpt>
      <trkpt lat="43.90796" lon="7.43874">
        <ele>994.79998779297</ele>
        <time>2022-04-09T09:01:45.000Z</time>
      </trkpt>
      <trkpt lat="43.90796" lon="7.43875">
        <ele>994.40002441406</ele>
        <time>2022-04-09T09:01:55.000Z</time>
      </trkpt>
      <trkpt lat="43.90797" lon="7.43878">
        <ele>994.40002441406</ele>
        <time>2022-04-09T09:02:12.000Z</time>
      </trkpt>
      <trkpt lat="43.90797" lon="7.43877">
        <ele>994.40002441406</ele>
        <time>2022-04-09T09:02:21.000Z</time>
      </trkpt>
      <trkpt lat="43.90796" lon="7.43877">
        <ele>994</ele>
        <time>2022-04-09T09:02:25.000Z</time>
      </trkpt>
      <trkpt lat="43.90796" lon="7.43877">
        <ele>993.79998779297</ele>
        <time>2022-04-09T09:02:28.000Z</time>
      </trkpt>
      <trkpt lat="43.90795" lon="7.43877">
        <ele>993.40002441406</ele>
        <time>2022-04-09T09:02:46.000Z</time>
      </trkpt>
      <trkpt lat="43.90795" lon="7.43877">
        <ele>993.40002441406</ele>
        <time>2022-04-09T09:03:00.000Z</time>
      </trkpt>
      <trkpt lat="43.90795" lon="7.43877">
        <ele>993.59997558594</ele>
        <time>2022-04-09T09:03:13.000Z</time>
      </trkpt>
      <trkpt lat="43.90796" lon="7.43876">
        <ele>993.59997558594</ele>
        <time>2022-04-09T09:03:33.000Z</time>
      </trkpt>
      <trkpt lat="43.90795" lon="7.43876">
        <ele>993.59997558594</ele>
        <time>2022-04-09T09:03:46.000Z</time>
      </trkpt>
      <trkpt lat="43.90794" lon="7.43875">
        <ele>993.40002441406</ele>
        <time>2022-04-09T09:03:56.000Z</time>
      </trkpt>
      <trkpt lat="43.90794" lon="7.43875">
        <ele>992.79998779297</ele>
        <time>2022-04-09T09:04:01.000Z</time>
      </trkpt>
      <trkpt lat="43.90794" lon="7.43876">
        <ele>992.79998779297</ele>
        <time>2022-04-09T09:04:02.000Z</time>
      </trkpt>
      <trkpt lat="43.90795" lon="7.43879">
        <ele>993.20001220703</ele>
        <time>2022-04-09T09:04:09.000Z</time>
      </trkpt>
      <trkpt lat="43.90798" lon="7.43881">
        <ele>993.40002441406</ele>
        <time>2022-04-09T09:04:17.000Z</time>
      </trkpt>
      <trkpt lat="43.90803" lon="7.43886">
        <ele>992.79998779297</ele>
        <time>2022-04-09T09:04:22.000Z</time>
      </trkpt>
      <trkpt lat="43.90813" lon="7.43887">
        <ele>993</ele>
        <time>2022-04-09T09:04:27.000Z</time>
      </trkpt>
      <trkpt lat="43.90821" lon="7.43884">
        <ele>994</ele>
        <time>2022-04-09T09:04:31.000Z</time>
      </trkpt>
      <trkpt lat="43.90824" lon="7.43884">
        <ele>994.59997558594</ele>
        <time>2022-04-09T09:04:32.000Z</time>
      </trkpt>
      <trkpt lat="43.90826" lon="7.43883">
        <ele>995.20001220703</ele>
        <time>2022-04-09T09:04:33.000Z</time>
      </trkpt>
      <trkpt lat="43.9083" lon="7.43881">
        <ele>996.40002441406</ele>
        <time>2022-04-09T09:04:35.000Z</time>
      </trkpt>
      <trkpt lat="43.90835" lon="7.4388">
        <ele>997.59997558594</ele>
        <time>2022-04-09T09:04:37.000Z</time>
      </trkpt>
      <trkpt lat="43.90837" lon="7.43879">
        <ele>997.79998779297</ele>
        <time>2022-04-09T09:04:38.000Z</time>
      </trkpt>
      <trkpt lat="43.90842" lon="7.43877">
        <ele>998.79998779297</ele>
        <time>2022-04-09T09:04:40.000Z</time>
      </trkpt>
      <trkpt lat="43.90843" lon="7.43875">
        <ele>999.20001220703</ele>
        <time>2022-04-09T09:04:41.000Z</time>
      </trkpt>
      <trkpt lat="43.90847" lon="7.43871">
        <ele>1000.200012207</ele>
        <time>2022-04-09T09:04:43.000Z</time>
      </trkpt>
      <trkpt lat="43.90851" lon="7.43871">
        <ele>1001.799987793</ele>
        <time>2022-04-09T09:04:45.000Z</time>
      </trkpt>
      <trkpt lat="43.90855" lon="7.43871">
        <ele>1003.200012207</ele>
        <time>2022-04-09T09:04:47.000Z</time>
      </trkpt>
      <trkpt lat="43.90859" lon="7.43871">
        <ele>1004.799987793</ele>
        <time>2022-04-09T09:04:49.000Z</time>
      </trkpt>
      <trkpt lat="43.90863" lon="7.4387">
        <ele>1006</ele>
        <time>2022-04-09T09:04:51.000Z</time>
      </trkpt>
      <trkpt lat="43.90869" lon="7.4387">
        <ele>1007.200012207</ele>
        <time>2022-04-09T09:04:54.000Z</time>
      </trkpt>
      <trkpt lat="43.90875" lon="7.43868">
        <ele>1008.5999755859</ele>
        <time>2022-04-09T09:04:57.000Z</time>
      </trkpt>
      <trkpt lat="43.9088" lon="7.43863">
        <ele>1009.5999755859</ele>
        <time>2022-04-09T09:05:00.000Z</time>
      </trkpt>
      <trkpt lat="43.90882" lon="7.43862">
        <ele>1010</ele>
        <time>2022-04-09T09:05:01.000Z</time>
      </trkpt>
      <trkpt lat="43.90886" lon="7.43859">
        <ele>1011.4000244141</ele>
        <time>2022-04-09T09:05:03.000Z</time>
      </trkpt>
      <trkpt lat="43.9089" lon="7.43857">
        <ele>1013</ele>
        <time>2022-04-09T09:05:05.000Z</time>
      </trkpt>
      <trkpt lat="43.90893" lon="7.43856">
        <ele>1013.5999755859</ele>
        <time>2022-04-09T09:05:06.000Z</time>
      </trkpt>
      <trkpt lat="43.90895" lon="7.43856">
        <ele>1014.200012207</ele>
        <time>2022-04-09T09:05:07.000Z</time>
      </trkpt>
      <trkpt lat="43.90896" lon="7.43855">
        <ele>1014.799987793</ele>
        <time>2022-04-09T09:05:08.000Z</time>
      </trkpt>
      <trkpt lat="43.90897" lon="7.43853">
        <ele>1015.200012207</ele>
        <time>2022-04-09T09:05:09.000Z</time>
      </trkpt>
      <trkpt lat="43.90901" lon="7.43851">
        <ele>1016</ele>
        <time>2022-04-09T09:05:11.000Z</time>
      </trkpt>
      <trkpt lat="43.90903" lon="7.4385">
        <ele>1016.5999755859</ele>
        <time>2022-04-09T09:05:12.000Z</time>
      </trkpt>
      <trkpt lat="43.90907" lon="7.43848">
        <ele>1017.200012207</ele>
        <time>2022-04-09T09:05:15.000Z</time>
      </trkpt>
      <trkpt lat="43.90908" lon="7.43846">
        <ele>1017.5999755859</ele>
        <time>2022-04-09T09:05:16.000Z</time>
      </trkpt>
      <trkpt lat="43.90907" lon="7.43841">
        <ele>1019</ele>
        <time>2022-04-09T09:05:19.000Z</time>
      </trkpt>
      <trkpt lat="43.90907" lon="7.43842">
        <ele>1019.799987793</ele>
        <time>2022-04-09T09:05:20.000Z</time>
      </trkpt>
      <trkpt lat="43.90907" lon="7.43841">
        <ele>1020.4000244141</ele>
        <time>2022-04-09T09:05:21.000Z</time>
      </trkpt>
      <trkpt lat="43.90905" lon="7.43839">
        <ele>1021.4000244141</ele>
        <time>2022-04-09T09:05:26.000Z</time>
      </trkpt>
      <trkpt lat="43.90904" lon="7.43839">
        <ele>1022</ele>
        <time>2022-04-09T09:05:30.000Z</time>
      </trkpt>
      <trkpt lat="43.90903" lon="7.43837">
        <ele>1022.200012207</ele>
        <time>2022-04-09T09:05:32.000Z</time>
      </trkpt>
      <trkpt lat="43.90901" lon="7.43829">
        <ele>1022.4000244141</ele>
        <time>2022-04-09T09:05:35.000Z</time>
      </trkpt>
      <trkpt lat="43.90907" lon="7.43822">
        <ele>1023.200012207</ele>
        <time>2022-04-09T09:05:39.000Z</time>
      </trkpt>
      <trkpt lat="43.90909" lon="7.43821">
        <ele>1023.5999755859</ele>
        <time>2022-04-09T09:05:40.000Z</time>
      </trkpt>
      <trkpt lat="43.90911" lon="7.43818">
        <ele>1025.1999511719</ele>
        <time>2022-04-09T09:05:43.000Z</time>
      </trkpt>
      <trkpt lat="43.90911" lon="7.43818">
        <ele>1025.8000488281</ele>
        <time>2022-04-09T09:05:44.000Z</time>
      </trkpt>
      <trkpt lat="43.90911" lon="7.43818">
        <ele>1026.1999511719</ele>
        <time>2022-04-09T09:05:45.000Z</time>
      </trkpt>
      <trkpt lat="43.90913" lon="7.43815">
        <ele>1027</ele>
        <time>2022-04-09T09:05:50.000Z</time>
      </trkpt>
      <trkpt lat="43.90913" lon="7.43815">
        <ele>1027.4000244141</ele>
        <time>2022-04-09T09:05:52.000Z</time>
      </trkpt>
      <trkpt lat="43.90914" lon="7.43813">
        <ele>1028</ele>
        <time>2022-04-09T09:05:57.000Z</time>
      </trkpt>
      <trkpt lat="43.90921" lon="7.43804">
        <ele>1028.1999511719</ele>
        <time>2022-04-09T09:06:02.000Z</time>
      </trkpt>
      <trkpt lat="43.90923" lon="7.43802">
        <ele>1028.5999755859</ele>
        <time>2022-04-09T09:06:03.000Z</time>
      </trkpt>
      <trkpt lat="43.90926" lon="7.43798">
        <ele>1029.8000488281</ele>
        <time>2022-04-09T09:06:05.000Z</time>
      </trkpt>
      <trkpt lat="43.90929" lon="7.43796">
        <ele>1031.1999511719</ele>
        <time>2022-04-09T09:06:07.000Z</time>
      </trkpt>
      <trkpt lat="43.9093" lon="7.43794">
        <ele>1031.8000488281</ele>
        <time>2022-04-09T09:06:08.000Z</time>
      </trkpt>
      <trkpt lat="43.90933" lon="7.4379">
        <ele>1032.1999511719</ele>
        <time>2022-04-09T09:06:10.000Z</time>
      </trkpt>
      <trkpt lat="43.90937" lon="7.43787">
        <ele>1032.8000488281</ele>
        <time>2022-04-09T09:06:12.000Z</time>
      </trkpt>
      <trkpt lat="43.90939" lon="7.43786">
        <ele>1033.1999511719</ele>
        <time>2022-04-09T09:06:13.000Z</time>
      </trkpt>
      <trkpt lat="43.9094" lon="7.43784">
        <ele>1033.8000488281</ele>
        <time>2022-04-09T09:06:14.000Z</time>
      </trkpt>
      <trkpt lat="43.90945" lon="7.43782">
        <ele>1035</ele>
        <time>2022-04-09T09:06:16.000Z</time>
      </trkpt>
      <trkpt lat="43.90948" lon="7.4378">
        <ele>1036.1999511719</ele>
        <time>2022-04-09T09:06:18.000Z</time>
      </trkpt>
      <trkpt lat="43.9095" lon="7.43779">
        <ele>1036.5999755859</ele>
        <time>2022-04-09T09:06:19.000Z</time>
      </trkpt>
      <trkpt lat="43.90954" lon="7.43776">
        <ele>1037.4000244141</ele>
        <time>2022-04-09T09:06:21.000Z</time>
      </trkpt>
      <trkpt lat="43.9096" lon="7.43772">
        <ele>1038.5999755859</ele>
        <time>2022-04-09T09:06:24.000Z</time>
      </trkpt>
      <trkpt lat="43.90962" lon="7.43771">
        <ele>1038.8000488281</ele>
        <time>2022-04-09T09:06:25.000Z</time>
      </trkpt>
      <trkpt lat="43.90966" lon="7.43768">
        <ele>1040</ele>
        <time>2022-04-09T09:06:28.000Z</time>
      </trkpt>
      <trkpt lat="43.9097" lon="7.43765">
        <ele>1041</ele>
        <time>2022-04-09T09:06:30.000Z</time>
      </trkpt>
      <trkpt lat="43.90972" lon="7.43764">
        <ele>1041.4000244141</ele>
        <time>2022-04-09T09:06:31.000Z</time>
      </trkpt>
      <trkpt lat="43.90975" lon="7.43763">
        <ele>1043</ele>
        <time>2022-04-09T09:06:33.000Z</time>
      </trkpt>
      <trkpt lat="43.90981" lon="7.43758">
        <ele>1044</ele>
        <time>2022-04-09T09:06:36.000Z</time>
      </trkpt>
      <trkpt lat="43.90985" lon="7.43756">
        <ele>1045.1999511719</ele>
        <time>2022-04-09T09:06:38.000Z</time>
      </trkpt>
      <trkpt lat="43.90989" lon="7.43754">
        <ele>1046.5999755859</ele>
        <time>2022-04-09T09:06:40.000Z</time>
      </trkpt>
      <trkpt lat="43.90994" lon="7.43753">
        <ele>1047.8000488281</ele>
        <time>2022-04-09T09:06:42.000Z</time>
      </trkpt>
      <trkpt lat="43.90999" lon="7.4375">
        <ele>1049</ele>
        <time>2022-04-09T09:06:45.000Z</time>
      </trkpt>
      <trkpt lat="43.91004" lon="7.43748">
        <ele>1050.5999755859</ele>
        <time>2022-04-09T09:06:48.000Z</time>
      </trkpt>
      <trkpt lat="43.91004" lon="7.43749">
        <ele>1051.1999511719</ele>
        <time>2022-04-09T09:06:49.000Z</time>
      </trkpt>
      <trkpt lat="43.91004" lon="7.43748">
        <ele>1051.5999755859</ele>
        <time>2022-04-09T09:06:50.000Z</time>
      </trkpt>
      <trkpt lat="43.91004" lon="7.43748">
        <ele>1053.1999511719</ele>
        <time>2022-04-09T09:06:52.000Z</time>
      </trkpt>
      <trkpt lat="43.91004" lon="7.43748">
        <ele>1053.8000488281</ele>
        <time>2022-04-09T09:06:55.000Z</time>
      </trkpt>
      <trkpt lat="43.91004" lon="7.43746">
        <ele>1053.8000488281</ele>
        <time>2022-04-09T09:07:07.000Z</time>
      </trkpt>
      <trkpt lat="43.91004" lon="7.43746">
        <ele>1054.1999511719</ele>
        <time>2022-04-09T09:07:14.000Z</time>
      </trkpt>
      <trkpt lat="43.91004" lon="7.43745">
        <ele>1054.1999511719</ele>
        <time>2022-04-09T09:07:25.000Z</time>
      </trkpt>
      <trkpt lat="43.91004" lon="7.43744">
        <ele>1054</ele>
        <time>2022-04-09T09:07:33.000Z</time>
      </trkpt>
      <trkpt lat="43.91011" lon="7.43746">
        <ele>1054.1999511719</ele>
        <time>2022-04-09T09:07:37.000Z</time>
      </trkpt>
      <trkpt lat="43.91013" lon="7.43746">
        <ele>1054.8000488281</ele>
        <time>2022-04-09T09:07:39.000Z</time>
      </trkpt>
      <trkpt lat="43.91013" lon="7.43747">
        <ele>1055.4000244141</ele>
        <time>2022-04-09T09:07:41.000Z</time>
      </trkpt>
      <trkpt lat="43.91014" lon="7.43747">
        <ele>1056.8000488281</ele>
        <time>2022-04-09T09:07:44.000Z</time>
      </trkpt>
      <trkpt lat="43.91015" lon="7.43746">
        <ele>1057</ele>
        <time>2022-04-09T09:07:48.000Z</time>
      </trkpt>
      <trkpt lat="43.91017" lon="7.43745">
        <ele>1057.8000488281</ele>
        <time>2022-04-09T09:07:55.000Z</time>
      </trkpt>
      <trkpt lat="43.91018" lon="7.43745">
        <ele>1058</ele>
        <time>2022-04-09T09:07:56.000Z</time>
      </trkpt>
      <trkpt lat="43.91021" lon="7.43745">
        <ele>1058.8000488281</ele>
        <time>2022-04-09T09:08:01.000Z</time>
      </trkpt>
      <trkpt lat="43.91022" lon="7.43745">
        <ele>1059.8000488281</ele>
        <time>2022-04-09T09:08:05.000Z</time>
      </trkpt>
      <trkpt lat="43.91024" lon="7.43745">
        <ele>1060.1999511719</ele>
        <time>2022-04-09T09:08:07.000Z</time>
      </trkpt>
      <trkpt lat="43.91025" lon="7.43745">
        <ele>1061.1999511719</ele>
        <time>2022-04-09T09:08:10.000Z</time>
      </trkpt>
      <trkpt lat="43.91025" lon="7.43746">
        <ele>1061.4000244141</ele>
        <time>2022-04-09T09:08:11.000Z</time>
      </trkpt>
      <trkpt lat="43.91029" lon="7.43745">
        <ele>1062.1999511719</ele>
        <time>2022-04-09T09:08:19.000Z</time>
      </trkpt>
      <trkpt lat="43.9103" lon="7.43745">
        <ele>1062.4000244141</ele>
        <time>2022-04-09T09:08:20.000Z</time>
      </trkpt>
      <trkpt lat="43.91032" lon="7.43744">
        <ele>1063.4000244141</ele>
        <time>2022-04-09T09:08:24.000Z</time>
      </trkpt>
      <trkpt lat="43.91034" lon="7.43744">
        <ele>1064</ele>
        <time>2022-04-09T09:08:28.000Z</time>
      </trkpt>
      <trkpt lat="43.91035" lon="7.43744">
        <ele>1064.4000244141</ele>
        <time>2022-04-09T09:08:31.000Z</time>
      </trkpt>
      <trkpt lat="43.91036" lon="7.43744">
        <ele>1064.8000488281</ele>
        <time>2022-04-09T09:08:34.000Z</time>
      </trkpt>
      <trkpt lat="43.91037" lon="7.43743">
        <ele>1065.1999511719</ele>
        <time>2022-04-09T09:08:41.000Z</time>
      </trkpt>
      <trkpt lat="43.91038" lon="7.43744">
        <ele>1065.5999755859</ele>
        <time>2022-04-09T09:08:44.000Z</time>
      </trkpt>
      <trkpt lat="43.91039" lon="7.43744">
        <ele>1065.8000488281</ele>
        <time>2022-04-09T09:08:49.000Z</time>
      </trkpt>
      <trkpt lat="43.91043" lon="7.43746">
        <ele>1066.5999755859</ele>
        <time>2022-04-09T09:08:56.000Z</time>
      </trkpt>
      <trkpt lat="43.91044" lon="7.43746">
        <ele>1067.1999511719</ele>
        <time>2022-04-09T09:08:58.000Z</time>
      </trkpt>
      <trkpt lat="43.91046" lon="7.43746">
        <ele>1067.5999755859</ele>
        <time>2022-04-09T09:09:01.000Z</time>
      </trkpt>
      <trkpt lat="43.91049" lon="7.43747">
        <ele>1068.8000488281</ele>
        <time>2022-04-09T09:09:06.000Z</time>
      </trkpt>
      <trkpt lat="43.91053" lon="7.43748">
        <ele>1069.5999755859</ele>
        <time>2022-04-09T09:09:12.000Z</time>
      </trkpt>
      <trkpt lat="43.91053" lon="7.43748">
        <ele>1069.8000488281</ele>
        <time>2022-04-09T09:09:13.000Z</time>
      </trkpt>
      <trkpt lat="43.91056" lon="7.43749">
        <ele>1070.8000488281</ele>
        <time>2022-04-09T09:09:19.000Z</time>
      </trkpt>
      <trkpt lat="43.91057" lon="7.43748">
        <ele>1071</ele>
        <time>2022-04-09T09:09:20.000Z</time>
      </trkpt>
      <trkpt lat="43.91061" lon="7.43748">
        <ele>1071.8000488281</ele>
        <time>2022-04-09T09:09:26.000Z</time>
      </trkpt>
      <trkpt lat="43.91061" lon="7.43748">
        <ele>1072.1999511719</ele>
        <time>2022-04-09T09:09:27.000Z</time>
      </trkpt>
      <trkpt lat="43.91065" lon="7.4375">
        <ele>1073</ele>
        <time>2022-04-09T09:09:33.000Z</time>
      </trkpt>
      <trkpt lat="43.91065" lon="7.4375">
        <ele>1073.1999511719</ele>
        <time>2022-04-09T09:09:35.000Z</time>
      </trkpt>
      <trkpt lat="43.91066" lon="7.4375">
        <ele>1073.5999755859</ele>
        <time>2022-04-09T09:09:39.000Z</time>
      </trkpt>
      <trkpt lat="43.91068" lon="7.43751">
        <ele>1073.8000488281</ele>
        <time>2022-04-09T09:09:48.000Z</time>
      </trkpt>
      <trkpt lat="43.91075" lon="7.4375">
        <ele>1074.1999511719</ele>
        <time>2022-04-09T09:09:52.000Z</time>
      </trkpt>
      <trkpt lat="43.91079" lon="7.4375">
        <ele>1074.8000488281</ele>
        <time>2022-04-09T09:09:54.000Z</time>
      </trkpt>
      <trkpt lat="43.9108" lon="7.4375">
        <ele>1075.4000244141</ele>
        <time>2022-04-09T09:09:55.000Z</time>
      </trkpt>
      <trkpt lat="43.9109" lon="7.43749">
        <ele>1076.5999755859</ele>
        <time>2022-04-09T09:10:00.000Z</time>
      </trkpt>
      <trkpt lat="43.91094" lon="7.43747">
        <ele>1077</ele>
        <time>2022-04-09T09:10:02.000Z</time>
      </trkpt>
      <trkpt lat="43.91096" lon="7.43746">
        <ele>1077.5999755859</ele>
        <time>2022-04-09T09:10:05.000Z</time>
      </trkpt>
      <trkpt lat="43.91097" lon="7.43746">
        <ele>1078.8000488281</ele>
        <time>2022-04-09T09:10:07.000Z</time>
      </trkpt>
      <trkpt lat="43.91098" lon="7.43746">
        <ele>1079.1999511719</ele>
        <time>2022-04-09T09:10:08.000Z</time>
      </trkpt>
      <trkpt lat="43.91105" lon="7.43747">
        <ele>1080</ele>
        <time>2022-04-09T09:10:13.000Z</time>
      </trkpt>
      <trkpt lat="43.91112" lon="7.43748">
        <ele>1080.8000488281</ele>
        <time>2022-04-09T09:10:17.000Z</time>
      </trkpt>
      <trkpt lat="43.91114" lon="7.43748">
        <ele>1081</ele>
        <time>2022-04-09T09:10:18.000Z</time>
      </trkpt>
      <trkpt lat="43.91125" lon="7.4375">
        <ele>1082.4000244141</ele>
        <time>2022-04-09T09:10:23.000Z</time>
      </trkpt>
      <trkpt lat="43.91127" lon="7.4375">
        <ele>1083</ele>
        <time>2022-04-09T09:10:25.000Z</time>
      </trkpt>
      <trkpt lat="43.91131" lon="7.43748">
        <ele>1083.8000488281</ele>
        <time>2022-04-09T09:10:27.000Z</time>
      </trkpt>
      <trkpt lat="43.91133" lon="7.43748">
        <ele>1084.5999755859</ele>
        <time>2022-04-09T09:10:29.000Z</time>
      </trkpt>
      <trkpt lat="43.91135" lon="7.43748">
        <ele>1085</ele>
        <time>2022-04-09T09:10:30.000Z</time>
      </trkpt>
      <trkpt lat="43.91135" lon="7.43748">
        <ele>1086</ele>
        <time>2022-04-09T09:10:32.000Z</time>
      </trkpt>
      <trkpt lat="43.91136" lon="7.43748">
        <ele>1086.1999511719</ele>
        <time>2022-04-09T09:10:33.000Z</time>
      </trkpt>
      <trkpt lat="43.91137" lon="7.43747">
        <ele>1087.1999511719</ele>
        <time>2022-04-09T09:10:39.000Z</time>
      </trkpt>
      <trkpt lat="43.91139" lon="7.43747">
        <ele>1087.4000244141</ele>
        <time>2022-04-09T09:10:42.000Z</time>
      </trkpt>
      <trkpt lat="43.91139" lon="7.43747">
        <ele>1088</ele>
        <time>2022-04-09T09:10:46.000Z</time>
      </trkpt>
      <trkpt lat="43.91141" lon="7.43746">
        <ele>1088.1999511719</ele>
        <time>2022-04-09T09:10:54.000Z</time>
      </trkpt>
      <trkpt lat="43.91142" lon="7.43746">
        <ele>1088.4000244141</ele>
        <time>2022-04-09T09:10:56.000Z</time>
      </trkpt>
      <trkpt lat="43.91145" lon="7.43745">
        <ele>1089</ele>
        <time>2022-04-09T09:11:02.000Z</time>
      </trkpt>
      <trkpt lat="43.91146" lon="7.43745">
        <ele>1089.4000244141</ele>
        <time>2022-04-09T09:11:05.000Z</time>
      </trkpt>
      <trkpt lat="43.91148" lon="7.43745">
        <ele>1090</ele>
        <time>2022-04-09T09:11:09.000Z</time>
      </trkpt>
      <trkpt lat="43.9115" lon="7.43745">
        <ele>1090.4000244141</ele>
        <time>2022-04-09T09:11:12.000Z</time>
      </trkpt>
      <trkpt lat="43.91152" lon="7.43744">
        <ele>1091.1999511719</ele>
        <time>2022-04-09T09:11:18.000Z</time>
      </trkpt>
      <trkpt lat="43.91152" lon="7.43743">
        <ele>1091.5999755859</ele>
        <time>2022-04-09T09:11:21.000Z</time>
      </trkpt>
      <trkpt lat="43.91152" lon="7.43742">
        <ele>1092</ele>
        <time>2022-04-09T09:11:24.000Z</time>
      </trkpt>
      <trkpt lat="43.91151" lon="7.4374">
        <ele>1092.8000488281</ele>
        <time>2022-04-09T09:11:29.000Z</time>
      </trkpt>
      <trkpt lat="43.91151" lon="7.43739">
        <ele>1093</ele>
        <time>2022-04-09T09:11:31.000Z</time>
      </trkpt>
      <trkpt lat="43.91149" lon="7.43736">
        <ele>1093.8000488281</ele>
        <time>2022-04-09T09:11:40.000Z</time>
      </trkpt>
      <trkpt lat="43.91145" lon="7.43735">
        <ele>1095</ele>
        <time>2022-04-09T09:11:46.000Z</time>
      </trkpt>
      <trkpt lat="43.91145" lon="7.43734">
        <ele>1095.1999511719</ele>
        <time>2022-04-09T09:11:47.000Z</time>
      </trkpt>
      <trkpt lat="43.91143" lon="7.43732">
        <ele>1096</ele>
        <time>2022-04-09T09:11:54.000Z</time>
      </trkpt>
      <trkpt lat="43.91142" lon="7.43731">
        <ele>1096</ele>
        <time>2022-04-09T09:11:55.000Z</time>
      </trkpt>
      <trkpt lat="43.91141" lon="7.43725">
        <ele>1097</ele>
        <time>2022-04-09T09:12:04.000Z</time>
      </trkpt>
      <trkpt lat="43.91142" lon="7.43722">
        <ele>1098</ele>
        <time>2022-04-09T09:12:08.000Z</time>
      </trkpt>
      <trkpt lat="43.91142" lon="7.43721">
        <ele>1099</ele>
        <time>2022-04-09T09:12:12.000Z</time>
      </trkpt>
      <trkpt lat="43.91142" lon="7.4372">
        <ele>1099.1999511719</ele>
        <time>2022-04-09T09:12:13.000Z</time>
      </trkpt>
      <trkpt lat="43.91142" lon="7.43718">
        <ele>1099.8000488281</ele>
        <time>2022-04-09T09:12:18.000Z</time>
      </trkpt>
      <trkpt lat="43.91141" lon="7.43716">
        <ele>1100.1999511719</ele>
        <time>2022-04-09T09:12:21.000Z</time>
      </trkpt>
      <trkpt lat="43.91139" lon="7.43714">
        <ele>1101</ele>
        <time>2022-04-09T09:12:26.000Z</time>
      </trkpt>
      <trkpt lat="43.91138" lon="7.43713">
        <ele>1101.1999511719</ele>
        <time>2022-04-09T09:12:28.000Z</time>
      </trkpt>
      <trkpt lat="43.91137" lon="7.43713">
        <ele>1102</ele>
        <time>2022-04-09T09:12:32.000Z</time>
      </trkpt>
      <trkpt lat="43.91136" lon="7.43712">
        <ele>1102.4000244141</ele>
        <time>2022-04-09T09:12:34.000Z</time>
      </trkpt>
      <trkpt lat="43.91134" lon="7.43711">
        <ele>1103.4000244141</ele>
        <time>2022-04-09T09:12:40.000Z</time>
      </trkpt>
      <trkpt lat="43.91133" lon="7.43711">
        <ele>1104</ele>
        <time>2022-04-09T09:12:47.000Z</time>
      </trkpt>
      <trkpt lat="43.91131" lon="7.43709">
        <ele>1104.5999755859</ele>
        <time>2022-04-09T09:12:53.000Z</time>
      </trkpt>
      <trkpt lat="43.9113" lon="7.43708">
        <ele>1105</ele>
        <time>2022-04-09T09:12:55.000Z</time>
      </trkpt>
      <trkpt lat="43.9113" lon="7.43707">
        <ele>1105.5999755859</ele>
        <time>2022-04-09T09:12:58.000Z</time>
      </trkpt>
      <trkpt lat="43.91129" lon="7.43706">
        <ele>1106</ele>
        <time>2022-04-09T09:13:02.000Z</time>
      </trkpt>
      <trkpt lat="43.91129" lon="7.43704">
        <ele>1106.5999755859</ele>
        <time>2022-04-09T09:13:06.000Z</time>
      </trkpt>
      <trkpt lat="43.91128" lon="7.43703">
        <ele>1106.8000488281</ele>
        <time>2022-04-09T09:13:09.000Z</time>
      </trkpt>
      <trkpt lat="43.91126" lon="7.43699">
        <ele>1107.5999755859</ele>
        <time>2022-04-09T09:13:16.000Z</time>
      </trkpt>
      <trkpt lat="43.91126" lon="7.43699">
        <ele>1107.5999755859</ele>
        <time>2022-04-09T09:13:17.000Z</time>
      </trkpt>
      <trkpt lat="43.91123" lon="7.43697">
        <ele>1108.5999755859</ele>
        <time>2022-04-09T09:13:23.000Z</time>
      </trkpt>
      <trkpt lat="43.91123" lon="7.43696">
        <ele>1108.5999755859</ele>
        <time>2022-04-09T09:13:24.000Z</time>
      </trkpt>
      <trkpt lat="43.91121" lon="7.43692">
        <ele>1109.5999755859</ele>
        <time>2022-04-09T09:13:32.000Z</time>
      </trkpt>
      <trkpt lat="43.91121" lon="7.43691">
        <ele>1109.8000488281</ele>
        <time>2022-04-09T09:13:35.000Z</time>
      </trkpt>
      <trkpt lat="43.91121" lon="7.43689">
        <ele>1110</ele>
        <time>2022-04-09T09:13:39.000Z</time>
      </trkpt>
      <trkpt lat="43.9112" lon="7.43687">
        <ele>1110.1999511719</ele>
        <time>2022-04-09T09:13:47.000Z</time>
      </trkpt>
      <trkpt lat="43.91121" lon="7.43685">
        <ele>1110.8000488281</ele>
        <time>2022-04-09T09:13:50.000Z</time>
      </trkpt>
      <trkpt lat="43.9112" lon="7.43685">
        <ele>1111.1999511719</ele>
        <time>2022-04-09T09:13:52.000Z</time>
      </trkpt>
      <trkpt lat="43.91123" lon="7.43682">
        <ele>1111.5999755859</ele>
        <time>2022-04-09T09:13:57.000Z</time>
      </trkpt>
      <trkpt lat="43.91123" lon="7.43683">
        <ele>1112</ele>
        <time>2022-04-09T09:14:02.000Z</time>
      </trkpt>
      <trkpt lat="43.91124" lon="7.43681">
        <ele>1112.1999511719</ele>
        <time>2022-04-09T09:14:04.000Z</time>
      </trkpt>
      <trkpt lat="43.91127" lon="7.43681">
        <ele>1113</ele>
        <time>2022-04-09T09:14:11.000Z</time>
      </trkpt>
      <trkpt lat="43.91127" lon="7.43682">
        <ele>1113</ele>
        <time>2022-04-09T09:14:12.000Z</time>
      </trkpt>
      <trkpt lat="43.91129" lon="7.43685">
        <ele>1114</ele>
        <time>2022-04-09T09:14:18.000Z</time>
      </trkpt>
      <trkpt lat="43.91129" lon="7.43685">
        <ele>1115</ele>
        <time>2022-04-09T09:14:23.000Z</time>
      </trkpt>
      <trkpt lat="43.91131" lon="7.43685">
        <ele>1115</ele>
        <time>2022-04-09T09:14:24.000Z</time>
      </trkpt>
      <trkpt lat="43.91134" lon="7.43685">
        <ele>1116.1999511719</ele>
        <time>2022-04-09T09:14:31.000Z</time>
      </trkpt>
      <trkpt lat="43.91135" lon="7.43685">
        <ele>1117</ele>
        <time>2022-04-09T09:14:37.000Z</time>
      </trkpt>
      <trkpt lat="43.91136" lon="7.43684">
        <ele>1117.1999511719</ele>
        <time>2022-04-09T09:14:48.000Z</time>
      </trkpt>
      <trkpt lat="43.91139" lon="7.43684">
        <ele>1117.1999511719</ele>
        <time>2022-04-09T09:14:50.000Z</time>
      </trkpt>
      <trkpt lat="43.91141" lon="7.43685">
        <ele>1117.4000244141</ele>
        <time>2022-04-09T09:14:51.000Z</time>
      </trkpt>
      <trkpt lat="43.91143" lon="7.43686">
        <ele>1117.5999755859</ele>
        <time>2022-04-09T09:14:53.000Z</time>
      </trkpt>
      <trkpt lat="43.91143" lon="7.43686">
        <ele>1118.5999755859</ele>
        <time>2022-04-09T09:14:55.000Z</time>
      </trkpt>
      <trkpt lat="43.91144" lon="7.43685">
        <ele>1119</ele>
        <time>2022-04-09T09:14:57.000Z</time>
      </trkpt>
      <trkpt lat="43.91142" lon="7.43681">
        <ele>1119.1999511719</ele>
        <time>2022-04-09T09:15:04.000Z</time>
      </trkpt>
      <trkpt lat="43.91141" lon="7.4368">
        <ele>1119.5999755859</ele>
        <time>2022-04-09T09:15:06.000Z</time>
      </trkpt>
      <trkpt lat="43.91141" lon="7.4368">
        <ele>1120</ele>
        <time>2022-04-09T09:15:11.000Z</time>
      </trkpt>
      <trkpt lat="43.9114" lon="7.43672">
        <ele>1120</ele>
        <time>2022-04-09T09:15:15.000Z</time>
      </trkpt>
      <trkpt lat="43.91144" lon="7.43665">
        <ele>1120.8000488281</ele>
        <time>2022-04-09T09:15:18.000Z</time>
      </trkpt>
      <trkpt lat="43.91146" lon="7.4366">
        <ele>1121.4000244141</ele>
        <time>2022-04-09T09:15:20.000Z</time>
      </trkpt>
      <trkpt lat="43.91149" lon="7.43657">
        <ele>1122</ele>
        <time>2022-04-09T09:15:22.000Z</time>
      </trkpt>
      <trkpt lat="43.91151" lon="7.43657">
        <ele>1122.1999511719</ele>
        <time>2022-04-09T09:15:23.000Z</time>
      </trkpt>
      <trkpt lat="43.91152" lon="7.43659">
        <ele>1122.5999755859</ele>
        <time>2022-04-09T09:15:24.000Z</time>
      </trkpt>
      <trkpt lat="43.91152" lon="7.43659">
        <ele>1123.5999755859</ele>
        <time>2022-04-09T09:15:26.000Z</time>
      </trkpt>
      <trkpt lat="43.91152" lon="7.4366">
        <ele>1124.1999511719</ele>
        <time>2022-04-09T09:15:27.000Z</time>
      </trkpt>
      <trkpt lat="43.91152" lon="7.4366">
        <ele>1124.8000488281</ele>
        <time>2022-04-09T09:15:29.000Z</time>
      </trkpt>
      <trkpt lat="43.91154" lon="7.43661">
        <ele>1124.8000488281</ele>
        <time>2022-04-09T09:15:34.000Z</time>
      </trkpt>
      <trkpt lat="43.91153" lon="7.43661">
        <ele>1125</ele>
        <time>2022-04-09T09:15:38.000Z</time>
      </trkpt>
      <trkpt lat="43.91155" lon="7.43664">
        <ele>1125.8000488281</ele>
        <time>2022-04-09T09:15:45.000Z</time>
      </trkpt>
      <trkpt lat="43.91156" lon="7.43664">
        <ele>1126.4000244141</ele>
        <time>2022-04-09T09:15:49.000Z</time>
      </trkpt>
      <trkpt lat="43.91155" lon="7.43663">
        <ele>1126.4000244141</ele>
        <time>2022-04-09T09:15:50.000Z</time>
      </trkpt>
      <trkpt lat="43.91156" lon="7.43664">
        <ele>1126.8000488281</ele>
        <time>2022-04-09T09:15:53.000Z</time>
      </trkpt>
      <trkpt lat="43.91157" lon="7.43668">
        <ele>1127.8000488281</ele>
        <time>2022-04-09T09:15:58.000Z</time>
      </trkpt>
      <trkpt lat="43.91158" lon="7.43668">
        <ele>1128</ele>
        <time>2022-04-09T09:16:00.000Z</time>
      </trkpt>
      <trkpt lat="43.91159" lon="7.43668">
        <ele>1129.1999511719</ele>
        <time>2022-04-09T09:16:04.000Z</time>
      </trkpt>
      <trkpt lat="43.9116" lon="7.43668">
        <ele>1129.4000244141</ele>
        <time>2022-04-09T09:16:05.000Z</time>
      </trkpt>
      <trkpt lat="43.9116" lon="7.43667">
        <ele>1129.8000488281</ele>
        <time>2022-04-09T09:16:11.000Z</time>
      </trkpt>
      <trkpt lat="43.91162" lon="7.43666">
        <ele>1130.1999511719</ele>
        <time>2022-04-09T09:16:19.000Z</time>
      </trkpt>
      <trkpt lat="43.91162" lon="7.43666">
        <ele>1130.4000244141</ele>
        <time>2022-04-09T09:16:20.000Z</time>
      </trkpt>
      <trkpt lat="43.91163" lon="7.43666">
        <ele>1131</ele>
        <time>2022-04-09T09:16:26.000Z</time>
      </trkpt>
      <trkpt lat="43.91166" lon="7.43666">
        <ele>1131.1999511719</ele>
        <time>2022-04-09T09:16:33.000Z</time>
      </trkpt>
      <trkpt lat="43.91167" lon="7.43666">
        <ele>1131.4000244141</ele>
        <time>2022-04-09T09:16:34.000Z</time>
      </trkpt>
      <trkpt lat="43.91169" lon="7.43667">
        <ele>1132.8000488281</ele>
        <time>2022-04-09T09:16:38.000Z</time>
      </trkpt>
      <trkpt lat="43.91171" lon="7.43669">
        <ele>1133.4000244141</ele>
        <time>2022-04-09T09:16:41.000Z</time>
      </trkpt>
      <trkpt lat="43.91172" lon="7.4367">
        <ele>1133.8000488281</ele>
        <time>2022-04-09T09:16:43.000Z</time>
      </trkpt>
      <trkpt lat="43.91173" lon="7.43671">
        <ele>1135</ele>
        <time>2022-04-09T09:16:48.000Z</time>
      </trkpt>
      <trkpt lat="43.91174" lon="7.43671">
        <ele>1136</ele>
        <time>2022-04-09T09:16:56.000Z</time>
      </trkpt>
      <trkpt lat="43.91174" lon="7.43671">
        <ele>1136</ele>
        <time>2022-04-09T09:16:57.000Z</time>
      </trkpt>
      <trkpt lat="43.91174" lon="7.43671">
        <ele>1135.5999755859</ele>
        <time>2022-04-09T09:17:22.000Z</time>
      </trkpt>
      <trkpt lat="43.91181" lon="7.4367">
        <ele>1135.8000488281</ele>
        <time>2022-04-09T09:17:28.000Z</time>
      </trkpt>
      <trkpt lat="43.91188" lon="7.43674">
        <ele>1137.1999511719</ele>
        <time>2022-04-09T09:17:32.000Z</time>
      </trkpt>
      <trkpt lat="43.9119" lon="7.43674">
        <ele>1138.4000244141</ele>
        <time>2022-04-09T09:17:34.000Z</time>
      </trkpt>
      <trkpt lat="43.91194" lon="7.43676">
        <ele>1139.5999755859</ele>
        <time>2022-04-09T09:17:36.000Z</time>
      </trkpt>
      <trkpt lat="43.91201" lon="7.43675">
        <ele>1141.4000244141</ele>
        <time>2022-04-09T09:17:39.000Z</time>
      </trkpt>
      <trkpt lat="43.91205" lon="7.43675">
        <ele>1143</ele>
        <time>2022-04-09T09:17:42.000Z</time>
      </trkpt>
      <trkpt lat="43.91209" lon="7.43676">
        <ele>1144</ele>
        <time>2022-04-09T09:17:44.000Z</time>
      </trkpt>
      <trkpt lat="43.91211" lon="7.43677">
        <ele>1144.5999755859</ele>
        <time>2022-04-09T09:17:45.000Z</time>
      </trkpt>
      <trkpt lat="43.91213" lon="7.43679">
        <ele>1145.4000244141</ele>
        <time>2022-04-09T09:17:46.000Z</time>
      </trkpt>
      <trkpt lat="43.91216" lon="7.43679">
        <ele>1146</ele>
        <time>2022-04-09T09:17:48.000Z</time>
      </trkpt>
      <trkpt lat="43.91218" lon="7.4368">
        <ele>1146.5999755859</ele>
        <time>2022-04-09T09:17:49.000Z</time>
      </trkpt>
      <trkpt lat="43.91222" lon="7.43679">
        <ele>1147.5999755859</ele>
        <time>2022-04-09T09:17:52.000Z</time>
      </trkpt>
      <trkpt lat="43.91223" lon="7.43679">
        <ele>1148.1999511719</ele>
        <time>2022-04-09T09:17:53.000Z</time>
      </trkpt>
      <trkpt lat="43.91223" lon="7.43679">
        <ele>1148.8000488281</ele>
        <time>2022-04-09T09:17:54.000Z</time>
      </trkpt>
      <trkpt lat="43.91224" lon="7.43678">
        <ele>1149.8000488281</ele>
        <time>2022-04-09T09:17:57.000Z</time>
      </trkpt>
      <trkpt lat="43.91225" lon="7.43678">
        <ele>1149.8000488281</ele>
        <time>2022-04-09T09:17:58.000Z</time>
      </trkpt>
      <trkpt lat="43.9123" lon="7.43679">
        <ele>1150.8000488281</ele>
        <time>2022-04-09T09:18:04.000Z</time>
      </trkpt>
      <trkpt lat="43.91238" lon="7.43681">
        <ele>1152</ele>
        <time>2022-04-09T09:18:08.000Z</time>
      </trkpt>
      <trkpt lat="43.91242" lon="7.4368">
        <ele>1152.8000488281</ele>
        <time>2022-04-09T09:18:10.000Z</time>
      </trkpt>
      <trkpt lat="43.91243" lon="7.4368">
        <ele>1153</ele>
        <time>2022-04-09T09:18:11.000Z</time>
      </trkpt>
      <trkpt lat="43.91249" lon="7.43679">
        <ele>1154.1999511719</ele>
        <time>2022-04-09T09:18:14.000Z</time>
      </trkpt>
      <trkpt lat="43.9125" lon="7.43678">
        <ele>1154.4000244141</ele>
        <time>2022-04-09T09:18:15.000Z</time>
      </trkpt>
      <trkpt lat="43.91253" lon="7.43677">
        <ele>1155.1999511719</ele>
        <time>2022-04-09T09:18:17.000Z</time>
      </trkpt>
      <trkpt lat="43.91258" lon="7.43675">
        <ele>1156.5999755859</ele>
        <time>2022-04-09T09:18:20.000Z</time>
      </trkpt>
      <trkpt lat="43.91261" lon="7.43673">
        <ele>1157.8000488281</ele>
        <time>2022-04-09T09:18:22.000Z</time>
      </trkpt>
      <trkpt lat="43.91266" lon="7.43668">
        <ele>1159</ele>
        <time>2022-04-09T09:18:25.000Z</time>
      </trkpt>
      <trkpt lat="43.91268" lon="7.43666">
        <ele>1159.1999511719</ele>
        <time>2022-04-09T09:18:26.000Z</time>
      </trkpt>
      <trkpt lat="43.91273" lon="7.43662">
        <ele>1160.4000244141</ele>
        <time>2022-04-09T09:18:29.000Z</time>
      </trkpt>
      <trkpt lat="43.91278" lon="7.43658">
        <ele>1161.1999511719</ele>
        <time>2022-04-09T09:18:32.000Z</time>
      </trkpt>
      <trkpt lat="43.9128" lon="7.43657">
        <ele>1161.4000244141</ele>
        <time>2022-04-09T09:18:33.000Z</time>
      </trkpt>
      <trkpt lat="43.91282" lon="7.43657">
        <ele>1161.8000488281</ele>
        <time>2022-04-09T09:18:34.000Z</time>
      </trkpt>
      <trkpt lat="43.91285" lon="7.43655">
        <ele>1162.8000488281</ele>
        <time>2022-04-09T09:18:36.000Z</time>
      </trkpt>
      <trkpt lat="43.91287" lon="7.43654">
        <ele>1163.1999511719</ele>
        <time>2022-04-09T09:18:37.000Z</time>
      </trkpt>
      <trkpt lat="43.91291" lon="7.43652">
        <ele>1164</ele>
        <time>2022-04-09T09:18:39.000Z</time>
      </trkpt>
      <trkpt lat="43.91299" lon="7.4365">
        <ele>1165.1999511719</ele>
        <time>2022-04-09T09:18:42.000Z</time>
      </trkpt>
      <trkpt lat="43.91304" lon="7.43649">
        <ele>1166</ele>
        <time>2022-04-09T09:18:44.000Z</time>
      </trkpt>
      <trkpt lat="43.91307" lon="7.43649">
        <ele>1166.4000244141</ele>
        <time>2022-04-09T09:18:45.000Z</time>
      </trkpt>
      <trkpt lat="43.91311" lon="7.43647">
        <ele>1167.5999755859</ele>
        <time>2022-04-09T09:18:47.000Z</time>
      </trkpt>
      <trkpt lat="43.91315" lon="7.43647">
        <ele>1169</ele>
        <time>2022-04-09T09:18:49.000Z</time>
      </trkpt>
      <trkpt lat="43.91317" lon="7.43647">
        <ele>1169.5999755859</ele>
        <time>2022-04-09T09:18:50.000Z</time>
      </trkpt>
      <trkpt lat="43.91319" lon="7.43646">
        <ele>1170.1999511719</ele>
        <time>2022-04-09T09:18:51.000Z</time>
      </trkpt>
      <trkpt lat="43.91326" lon="7.43646">
        <ele>1171.4000244141</ele>
        <time>2022-04-09T09:18:54.000Z</time>
      </trkpt>
      <trkpt lat="43.91332" lon="7.43646">
        <ele>1172.1999511719</ele>
        <time>2022-04-09T09:18:57.000Z</time>
      </trkpt>
      <trkpt lat="43.91336" lon="7.43647">
        <ele>1172.5999755859</ele>
        <time>2022-04-09T09:18:59.000Z</time>
      </trkpt>
      <trkpt lat="43.91342" lon="7.43646">
        <ele>1172.8000488281</ele>
        <time>2022-04-09T09:19:02.000Z</time>
      </trkpt>
      <trkpt lat="43.91344" lon="7.43646">
        <ele>1173</ele>
        <time>2022-04-09T09:19:03.000Z</time>
      </trkpt>
      <trkpt lat="43.91354" lon="7.43644">
        <ele>1173.5999755859</ele>
        <time>2022-04-09T09:19:07.000Z</time>
      </trkpt>
      <trkpt lat="43.91363" lon="7.43644">
        <ele>1175</ele>
        <time>2022-04-09T09:19:11.000Z</time>
      </trkpt>
      <trkpt lat="43.91369" lon="7.43638">
        <ele>1176.1999511719</ele>
        <time>2022-04-09T09:19:15.000Z</time>
      </trkpt>
      <trkpt lat="43.91369" lon="7.43639">
        <ele>1176.8000488281</ele>
        <time>2022-04-09T09:19:16.000Z</time>
      </trkpt>
      <trkpt lat="43.9137" lon="7.43639">
        <ele>1177.4000244141</ele>
        <time>2022-04-09T09:19:18.000Z</time>
      </trkpt>
      <trkpt lat="43.9137" lon="7.43639">
        <ele>1178.4000244141</ele>
        <time>2022-04-09T09:19:21.000Z</time>
      </trkpt>
      <trkpt lat="43.91372" lon="7.43638">
        <ele>1178.5999755859</ele>
        <time>2022-04-09T09:19:24.000Z</time>
      </trkpt>
      <trkpt lat="43.91374" lon="7.43637">
        <ele>1179.4000244141</ele>
        <time>2022-04-09T09:19:31.000Z</time>
      </trkpt>
      <trkpt lat="43.91375" lon="7.43637">
        <ele>1179.5999755859</ele>
        <time>2022-04-09T09:19:32.000Z</time>
      </trkpt>
      <trkpt lat="43.91378" lon="7.43635">
        <ele>1180</ele>
        <time>2022-04-09T09:19:38.000Z</time>
      </trkpt>
      <trkpt lat="43.91381" lon="7.43632">
        <ele>1180.8000488281</ele>
        <time>2022-04-09T09:19:43.000Z</time>
      </trkpt>
      <trkpt lat="43.91381" lon="7.43631">
        <ele>1181</ele>
        <time>2022-04-09T09:19:45.000Z</time>
      </trkpt>
      <trkpt lat="43.91383" lon="7.4363">
        <ele>1181.8000488281</ele>
        <time>2022-04-09T09:19:50.000Z</time>
      </trkpt>
      <trkpt lat="43.91385" lon="7.4363">
        <ele>1182.4000244141</ele>
        <time>2022-04-09T09:19:53.000Z</time>
      </trkpt>
      <trkpt lat="43.91386" lon="7.43632">
        <ele>1183</ele>
        <time>2022-04-09T09:19:58.000Z</time>
      </trkpt>
      <trkpt lat="43.91387" lon="7.43633">
        <ele>1183</ele>
        <time>2022-04-09T09:20:00.000Z</time>
      </trkpt>
      <trkpt lat="43.91392" lon="7.43633">
        <ele>1184</ele>
        <time>2022-04-09T09:20:07.000Z</time>
      </trkpt>
      <trkpt lat="43.91393" lon="7.43634">
        <ele>1184</ele>
        <time>2022-04-09T09:20:09.000Z</time>
      </trkpt>
      <trkpt lat="43.91398" lon="7.43634">
        <ele>1185</ele>
        <time>2022-04-09T09:20:15.000Z</time>
      </trkpt>
      <trkpt lat="43.91398" lon="7.43634">
        <ele>1185.1999511719</ele>
        <time>2022-04-09T09:20:16.000Z</time>
      </trkpt>
      <trkpt lat="43.914" lon="7.43633">
        <ele>1186.1999511719</ele>
        <time>2022-04-09T09:20:20.000Z</time>
      </trkpt>
      <trkpt lat="43.91402" lon="7.43633">
        <ele>1186.8000488281</ele>
        <time>2022-04-09T09:20:23.000Z</time>
      </trkpt>
      <trkpt lat="43.91404" lon="7.43633">
        <ele>1187.4000244141</ele>
        <time>2022-04-09T09:20:25.000Z</time>
      </trkpt>
      <trkpt lat="43.91405" lon="7.43633">
        <ele>1187.5999755859</ele>
        <time>2022-04-09T09:20:31.000Z</time>
      </trkpt>
      <trkpt lat="43.91405" lon="7.43633">
        <ele>1187.8000488281</ele>
        <time>2022-04-09T09:20:40.000Z</time>
      </trkpt>
      <trkpt lat="43.9141" lon="7.43633">
        <ele>1188</ele>
        <time>2022-04-09T09:20:47.000Z</time>
      </trkpt>
      <trkpt lat="43.9141" lon="7.43634">
        <ele>1188.4000244141</ele>
        <time>2022-04-09T09:20:49.000Z</time>
      </trkpt>
      <trkpt lat="43.91413" lon="7.43635">
        <ele>1189.1999511719</ele>
        <time>2022-04-09T09:20:53.000Z</time>
      </trkpt>
      <trkpt lat="43.91417" lon="7.43635">
        <ele>1189.5999755859</ele>
        <time>2022-04-09T09:20:56.000Z</time>
      </trkpt>
      <trkpt lat="43.91419" lon="7.43635">
        <ele>1190</ele>
        <time>2022-04-09T09:20:57.000Z</time>
      </trkpt>
      <trkpt lat="43.91422" lon="7.43636">
        <ele>1190.5999755859</ele>
        <time>2022-04-09T09:20:59.000Z</time>
      </trkpt>
      <trkpt lat="43.9143" lon="7.43638">
        <ele>1191.5999755859</ele>
        <time>2022-04-09T09:21:03.000Z</time>
      </trkpt>
      <trkpt lat="43.91431" lon="7.43639">
        <ele>1192</ele>
        <time>2022-04-09T09:21:04.000Z</time>
      </trkpt>
      <trkpt lat="43.91438" lon="7.43642">
        <ele>1193.5999755859</ele>
        <time>2022-04-09T09:21:07.000Z</time>
      </trkpt>
      <trkpt lat="43.91444" lon="7.43645">
        <ele>1194.5999755859</ele>
        <time>2022-04-09T09:21:10.000Z</time>
      </trkpt>
      <trkpt lat="43.91451" lon="7.43647">
        <ele>1195.8000488281</ele>
        <time>2022-04-09T09:21:13.000Z</time>
      </trkpt>
      <trkpt lat="43.91455" lon="7.43647">
        <ele>1196.8000488281</ele>
        <time>2022-04-09T09:21:16.000Z</time>
      </trkpt>
      <trkpt lat="43.91458" lon="7.43646">
        <ele>1197.1999511719</ele>
        <time>2022-04-09T09:21:17.000Z</time>
      </trkpt>
      <trkpt lat="43.91464" lon="7.43647">
        <ele>1198.5999755859</ele>
        <time>2022-04-09T09:21:20.000Z</time>
      </trkpt>
      <trkpt lat="43.91466" lon="7.43647">
        <ele>1199</ele>
        <time>2022-04-09T09:21:21.000Z</time>
      </trkpt>
      <trkpt lat="43.91467" lon="7.43645">
        <ele>1199.5999755859</ele>
        <time>2022-04-09T09:21:22.000Z</time>
      </trkpt>
      <trkpt lat="43.9147" lon="7.43642">
        <ele>1200.8000488281</ele>
        <time>2022-04-09T09:21:24.000Z</time>
      </trkpt>
      <trkpt lat="43.91472" lon="7.43641">
        <ele>1201.4000244141</ele>
        <time>2022-04-09T09:21:25.000Z</time>
      </trkpt>
      <trkpt lat="43.91473" lon="7.4364">
        <ele>1202</ele>
        <time>2022-04-09T09:21:26.000Z</time>
      </trkpt>
      <trkpt lat="43.91477" lon="7.4364">
        <ele>1203.4000244141</ele>
        <time>2022-04-09T09:21:28.000Z</time>
      </trkpt>
      <trkpt lat="43.91478" lon="7.4364">
        <ele>1204.4000244141</ele>
        <time>2022-04-09T09:21:30.000Z</time>
      </trkpt>
      <trkpt lat="43.91479" lon="7.4364">
        <ele>1204.8000488281</ele>
        <time>2022-04-09T09:21:31.000Z</time>
      </trkpt>
      <trkpt lat="43.91483" lon="7.43641">
        <ele>1206.1999511719</ele>
        <time>2022-04-09T09:21:34.000Z</time>
      </trkpt>
      <trkpt lat="43.91485" lon="7.43642">
        <ele>1206.4000244141</ele>
        <time>2022-04-09T09:21:35.000Z</time>
      </trkpt>
      <trkpt lat="43.91487" lon="7.43642">
        <ele>1206.5999755859</ele>
        <time>2022-04-09T09:21:36.000Z</time>
      </trkpt>
      <trkpt lat="43.91496" lon="7.43642">
        <ele>1207.1999511719</ele>
        <time>2022-04-09T09:21:40.000Z</time>
      </trkpt>
      <trkpt lat="43.91501" lon="7.43642">
        <ele>1208.1999511719</ele>
        <time>2022-04-09T09:21:43.000Z</time>
      </trkpt>
      <trkpt lat="43.91503" lon="7.43642">
        <ele>1208.5999755859</ele>
        <time>2022-04-09T09:21:44.000Z</time>
      </trkpt>
      <trkpt lat="43.91506" lon="7.43642">
        <ele>1209.1999511719</ele>
        <time>2022-04-09T09:21:45.000Z</time>
      </trkpt>
      <trkpt lat="43.91508" lon="7.43644">
        <ele>1209.8000488281</ele>
        <time>2022-04-09T09:21:46.000Z</time>
      </trkpt>
      <trkpt lat="43.91512" lon="7.43644">
        <ele>1210.8000488281</ele>
        <time>2022-04-09T09:21:48.000Z</time>
      </trkpt>
      <trkpt lat="43.91514" lon="7.43645">
        <ele>1211.1999511719</ele>
        <time>2022-04-09T09:21:49.000Z</time>
      </trkpt>
      <trkpt lat="43.91516" lon="7.43645">
        <ele>1211.8000488281</ele>
        <time>2022-04-09T09:21:50.000Z</time>
      </trkpt>
      <trkpt lat="43.91518" lon="7.43645">
        <ele>1212</ele>
        <time>2022-04-09T09:21:51.000Z</time>
      </trkpt>
      <trkpt lat="43.91524" lon="7.43646">
        <ele>1213.1999511719</ele>
        <time>2022-04-09T09:21:54.000Z</time>
      </trkpt>
      <trkpt lat="43.91526" lon="7.43647">
        <ele>1213.5999755859</ele>
        <time>2022-04-09T09:21:55.000Z</time>
      </trkpt>
      <trkpt lat="43.91531" lon="7.43648">
        <ele>1214.4000244141</ele>
        <time>2022-04-09T09:21:57.000Z</time>
      </trkpt>
      <trkpt lat="43.91536" lon="7.43649">
        <ele>1215.5999755859</ele>
        <time>2022-04-09T09:21:59.000Z</time>
      </trkpt>
      <trkpt lat="43.91544" lon="7.43651">
        <ele>1217</ele>
        <time>2022-04-09T09:22:02.000Z</time>
      </trkpt>
      <trkpt lat="43.91548" lon="7.43652">
        <ele>1218.1999511719</ele>
        <time>2022-04-09T09:22:04.000Z</time>
      </trkpt>
      <trkpt lat="43.91549" lon="7.43653">
        <ele>1218.8000488281</ele>
        <time>2022-04-09T09:22:05.000Z</time>
      </trkpt>
      <trkpt lat="43.91549" lon="7.43652">
        <ele>1219.5999755859</ele>
        <time>2022-04-09T09:22:06.000Z</time>
      </trkpt>
      <trkpt lat="43.9155" lon="7.43653">
        <ele>1220.5999755859</ele>
        <time>2022-04-09T09:22:08.000Z</time>
      </trkpt>
      <trkpt lat="43.91551" lon="7.43653">
        <ele>1221</ele>
        <time>2022-04-09T09:22:09.000Z</time>
      </trkpt>
      <trkpt lat="43.91553" lon="7.43654">
        <ele>1221.1999511719</ele>
        <time>2022-04-09T09:22:16.000Z</time>
      </trkpt>
      <trkpt lat="43.91555" lon="7.43653">
        <ele>1221.1999511719</ele>
        <time>2022-04-09T09:22:17.000Z</time>
      </trkpt>
      <trkpt lat="43.91558" lon="7.43654">
        <ele>1221.4000244141</ele>
        <time>2022-04-09T09:22:19.000Z</time>
      </trkpt>
      <trkpt lat="43.91557" lon="7.43653">
        <ele>1221.5999755859</ele>
        <time>2022-04-09T09:22:20.000Z</time>
      </trkpt>
      <trkpt lat="43.9156" lon="7.43654">
        <ele>1222.8000488281</ele>
        <time>2022-04-09T09:22:24.000Z</time>
      </trkpt>
      <trkpt lat="43.91564" lon="7.43654">
        <ele>1223.4000244141</ele>
        <time>2022-04-09T09:22:30.000Z</time>
      </trkpt>
      <trkpt lat="43.91565" lon="7.43655">
        <ele>1223.8000488281</ele>
        <time>2022-04-09T09:22:33.000Z</time>
      </trkpt>
      <trkpt lat="43.91567" lon="7.43655">
        <ele>1224.4000244141</ele>
        <time>2022-04-09T09:22:38.000Z</time>
      </trkpt>
      <trkpt lat="43.91569" lon="7.43656">
        <ele>1224.8000488281</ele>
        <time>2022-04-09T09:22:41.000Z</time>
      </trkpt>
      <trkpt lat="43.91569" lon="7.43655">
        <ele>1225.1999511719</ele>
        <time>2022-04-09T09:22:44.000Z</time>
      </trkpt>
      <trkpt lat="43.91572" lon="7.43657">
        <ele>1225.4000244141</ele>
        <time>2022-04-09T09:22:53.000Z</time>
      </trkpt>
      <trkpt lat="43.91574" lon="7.43657">
        <ele>1225.8000488281</ele>
        <time>2022-04-09T09:22:59.000Z</time>
      </trkpt>
      <trkpt lat="43.9158" lon="7.43658">
        <ele>1226.4000244141</ele>
        <time>2022-04-09T09:23:05.000Z</time>
      </trkpt>
      <trkpt lat="43.91583" lon="7.43659">
        <ele>1227</ele>
        <time>2022-04-09T09:23:07.000Z</time>
      </trkpt>
      <trkpt lat="43.91583" lon="7.43659">
        <ele>1228.4000244141</ele>
        <time>2022-04-09T09:23:10.000Z</time>
      </trkpt>
      <trkpt lat="43.91586" lon="7.4366">
        <ele>1228.8000488281</ele>
        <time>2022-04-09T09:23:17.000Z</time>
      </trkpt>
      <trkpt lat="43.91587" lon="7.43661">
        <ele>1229.4000244141</ele>
        <time>2022-04-09T09:23:20.000Z</time>
      </trkpt>
      <trkpt lat="43.9159" lon="7.43662">
        <ele>1230.1999511719</ele>
        <time>2022-04-09T09:23:26.000Z</time>
      </trkpt>
      <trkpt lat="43.91591" lon="7.43662">
        <ele>1230.4000244141</ele>
        <time>2022-04-09T09:23:28.000Z</time>
      </trkpt>
      <trkpt lat="43.91592" lon="7.43661">
        <ele>1231</ele>
        <time>2022-04-09T09:23:32.000Z</time>
      </trkpt>
      <trkpt lat="43.91593" lon="7.43661">
        <ele>1231.4000244141</ele>
        <time>2022-04-09T09:23:34.000Z</time>
      </trkpt>
      <trkpt lat="43.91597" lon="7.43663">
        <ele>1231.5999755859</ele>
        <time>2022-04-09T09:23:40.000Z</time>
      </trkpt>
      <trkpt lat="43.91597" lon="7.43663">
        <ele>1232.4000244141</ele>
        <time>2022-04-09T09:23:44.000Z</time>
      </trkpt>
      <trkpt lat="43.91603" lon="7.43665">
        <ele>1232.8000488281</ele>
        <time>2022-04-09T09:23:50.000Z</time>
      </trkpt>
      <trkpt lat="43.91607" lon="7.43667">
        <ele>1233.8000488281</ele>
        <time>2022-04-09T09:23:53.000Z</time>
      </trkpt>
      <trkpt lat="43.91611" lon="7.43668">
        <ele>1234.5999755859</ele>
        <time>2022-04-09T09:23:55.000Z</time>
      </trkpt>
      <trkpt lat="43.91613" lon="7.43669">
        <ele>1235</ele>
        <time>2022-04-09T09:23:56.000Z</time>
      </trkpt>
      <trkpt lat="43.9162" lon="7.43669">
        <ele>1236.4000244141</ele>
        <time>2022-04-09T09:24:00.000Z</time>
      </trkpt>
      <trkpt lat="43.91624" lon="7.43671">
        <ele>1237.4000244141</ele>
        <time>2022-04-09T09:24:02.000Z</time>
      </trkpt>
      <trkpt lat="43.9163" lon="7.43672">
        <ele>1238.5999755859</ele>
        <time>2022-04-09T09:24:05.000Z</time>
      </trkpt>
      <trkpt lat="43.91633" lon="7.43673">
        <ele>1239.5999755859</ele>
        <time>2022-04-09T09:24:07.000Z</time>
      </trkpt>
      <trkpt lat="43.91635" lon="7.43673">
        <ele>1240</ele>
        <time>2022-04-09T09:24:08.000Z</time>
      </trkpt>
      <trkpt lat="43.91636" lon="7.43673">
        <ele>1240.5999755859</ele>
        <time>2022-04-09T09:24:09.000Z</time>
      </trkpt>
      <trkpt lat="43.91638" lon="7.43672">
        <ele>1241</ele>
        <time>2022-04-09T09:24:10.000Z</time>
      </trkpt>
      <trkpt lat="43.91639" lon="7.43673">
        <ele>1241.4000244141</ele>
        <time>2022-04-09T09:24:11.000Z</time>
      </trkpt>
      <trkpt lat="43.91639" lon="7.43673">
        <ele>1242</ele>
        <time>2022-04-09T09:24:12.000Z</time>
      </trkpt>
      <trkpt lat="43.9164" lon="7.43674">
        <ele>1242.8000488281</ele>
        <time>2022-04-09T09:24:14.000Z</time>
      </trkpt>
      <trkpt lat="43.9164" lon="7.43674">
        <ele>1243.1999511719</ele>
        <time>2022-04-09T09:24:15.000Z</time>
      </trkpt>
      <trkpt lat="43.91642" lon="7.43674">
        <ele>1243.5999755859</ele>
        <time>2022-04-09T09:24:20.000Z</time>
      </trkpt>
      <trkpt lat="43.91644" lon="7.43675">
        <ele>1244.1999511719</ele>
        <time>2022-04-09T09:24:23.000Z</time>
      </trkpt>
      <trkpt lat="43.91644" lon="7.43675">
        <ele>1244.4000244141</ele>
        <time>2022-04-09T09:24:25.000Z</time>
      </trkpt>
      <trkpt lat="43.91646" lon="7.43675">
        <ele>1244.4000244141</ele>
        <time>2022-04-09T09:24:42.000Z</time>
      </trkpt>
      <trkpt lat="43.91653" lon="7.43678">
        <ele>1244.5999755859</ele>
        <time>2022-04-09T09:24:48.000Z</time>
      </trkpt>
      <trkpt lat="43.91658" lon="7.43682">
        <ele>1245.1999511719</ele>
        <time>2022-04-09T09:24:51.000Z</time>
      </trkpt>
      <trkpt lat="43.91662" lon="7.43686">
        <ele>1245.8000488281</ele>
        <time>2022-04-09T09:24:53.000Z</time>
      </trkpt>
      <trkpt lat="43.91664" lon="7.43689">
        <ele>1246.4000244141</ele>
        <time>2022-04-09T09:24:55.000Z</time>
      </trkpt>
      <trkpt lat="43.91667" lon="7.43693">
        <ele>1246.5999755859</ele>
        <time>2022-04-09T09:24:57.000Z</time>
      </trkpt>
      <trkpt lat="43.91675" lon="7.43695">
        <ele>1247.8000488281</ele>
        <time>2022-04-09T09:25:01.000Z</time>
      </trkpt>
      <trkpt lat="43.91677" lon="7.43695">
        <ele>1248</ele>
        <time>2022-04-09T09:25:02.000Z</time>
      </trkpt>
      <trkpt lat="43.91677" lon="7.43696">
        <ele>1248.8000488281</ele>
        <time>2022-04-09T09:25:04.000Z</time>
      </trkpt>
      <trkpt lat="43.91677" lon="7.43695">
        <ele>1249.8000488281</ele>
        <time>2022-04-09T09:25:06.000Z</time>
      </trkpt>
      <trkpt lat="43.91678" lon="7.43695">
        <ele>1250</ele>
        <time>2022-04-09T09:25:07.000Z</time>
      </trkpt>
      <trkpt lat="43.91679" lon="7.43697">
        <ele>1250.5999755859</ele>
        <time>2022-04-09T09:25:13.000Z</time>
      </trkpt>
      <trkpt lat="43.91682" lon="7.43699">
        <ele>1251</ele>
        <time>2022-04-09T09:25:18.000Z</time>
      </trkpt>
      <trkpt lat="43.91683" lon="7.437">
        <ele>1251</ele>
        <time>2022-04-09T09:25:19.000Z</time>
      </trkpt>
      <trkpt lat="43.91696" lon="7.43708">
        <ele>1251.1999511719</ele>
        <time>2022-04-09T09:25:25.000Z</time>
      </trkpt>
      <trkpt lat="43.9171" lon="7.43713">
        <ele>1251.4000244141</ele>
        <time>2022-04-09T09:25:32.000Z</time>
      </trkpt>
      <trkpt lat="43.91714" lon="7.43714">
        <ele>1252.1999511719</ele>
        <time>2022-04-09T09:25:36.000Z</time>
      </trkpt>
      <trkpt lat="43.91715" lon="7.43714">
        <ele>1252.4000244141</ele>
        <time>2022-04-09T09:25:37.000Z</time>
      </trkpt>
      <trkpt lat="43.91716" lon="7.43714">
        <ele>1253.1999511719</ele>
        <time>2022-04-09T09:25:42.000Z</time>
      </trkpt>
      <trkpt lat="43.91716" lon="7.43714">
        <ele>1253.5999755859</ele>
        <time>2022-04-09T09:25:44.000Z</time>
      </trkpt>
      <trkpt lat="43.91719" lon="7.43714">
        <ele>1254</ele>
        <time>2022-04-09T09:25:50.000Z</time>
      </trkpt>
      <trkpt lat="43.91719" lon="7.43714">
        <ele>1254.1999511719</ele>
        <time>2022-04-09T09:25:51.000Z</time>
      </trkpt>
      <trkpt lat="43.91723" lon="7.43713">
        <ele>1255</ele>
        <time>2022-04-09T09:25:58.000Z</time>
      </trkpt>
      <trkpt lat="43.91723" lon="7.43713">
        <ele>1255.4000244141</ele>
        <time>2022-04-09T09:26:00.000Z</time>
      </trkpt>
      <trkpt lat="43.91726" lon="7.43712">
        <ele>1256.1999511719</ele>
        <time>2022-04-09T09:26:06.000Z</time>
      </trkpt>
      <trkpt lat="43.91727" lon="7.43711">
        <ele>1256.4000244141</ele>
        <time>2022-04-09T09:26:07.000Z</time>
      </trkpt>
      <trkpt lat="43.91729" lon="7.43711">
        <ele>1257.5999755859</ele>
        <time>2022-04-09T09:26:13.000Z</time>
      </trkpt>
      <trkpt lat="43.91738" lon="7.43713">
        <ele>1257.8000488281</ele>
        <time>2022-04-09T09:26:18.000Z</time>
      </trkpt>
      <trkpt lat="43.91746" lon="7.43713">
        <ele>1258.8000488281</ele>
        <time>2022-04-09T09:26:22.000Z</time>
      </trkpt>
      <trkpt lat="43.91746" lon="7.43713">
        <ele>1259.4000244141</ele>
        <time>2022-04-09T09:26:24.000Z</time>
      </trkpt>
      <trkpt lat="43.91747" lon="7.43714">
        <ele>1260</ele>
        <time>2022-04-09T09:26:25.000Z</time>
      </trkpt>
      <trkpt lat="43.91748" lon="7.43714">
        <ele>1260.8000488281</ele>
        <time>2022-04-09T09:26:30.000Z</time>
      </trkpt>
      <trkpt lat="43.91749" lon="7.43713">
        <ele>1261</ele>
        <time>2022-04-09T09:26:31.000Z</time>
      </trkpt>
      <trkpt lat="43.91753" lon="7.43714">
        <ele>1261.8000488281</ele>
        <time>2022-04-09T09:26:37.000Z</time>
      </trkpt>
      <trkpt lat="43.91753" lon="7.43714">
        <ele>1262</ele>
        <time>2022-04-09T09:26:39.000Z</time>
      </trkpt>
      <trkpt lat="43.91756" lon="7.43714">
        <ele>1262.5999755859</ele>
        <time>2022-04-09T09:26:44.000Z</time>
      </trkpt>
      <trkpt lat="43.91758" lon="7.43713">
        <ele>1263</ele>
        <time>2022-04-09T09:26:48.000Z</time>
      </trkpt>
      <trkpt lat="43.91758" lon="7.43714">
        <ele>1263.4000244141</ele>
        <time>2022-04-09T09:26:50.000Z</time>
      </trkpt>
      <trkpt lat="43.91761" lon="7.43713">
        <ele>1263.4000244141</ele>
        <time>2022-04-09T09:26:54.000Z</time>
      </trkpt>
      <trkpt lat="43.91762" lon="7.43713">
        <ele>1263.4000244141</ele>
        <time>2022-04-09T09:26:55.000Z</time>
      </trkpt>
      <trkpt lat="43.91762" lon="7.43712">
        <ele>1264.1999511719</ele>
        <time>2022-04-09T09:26:58.000Z</time>
      </trkpt>
      <trkpt lat="43.91764" lon="7.43712">
        <ele>1264.8000488281</ele>
        <time>2022-04-09T09:27:01.000Z</time>
      </trkpt>
      <trkpt lat="43.91765" lon="7.43711">
        <ele>1265.4000244141</ele>
        <time>2022-04-09T09:27:05.000Z</time>
      </trkpt>
      <trkpt lat="43.91766" lon="7.43711">
        <ele>1265.8000488281</ele>
        <time>2022-04-09T09:27:07.000Z</time>
      </trkpt>
      <trkpt lat="43.91772" lon="7.4371">
        <ele>1266</ele>
        <time>2022-04-09T09:27:12.000Z</time>
      </trkpt>
      <trkpt lat="43.91778" lon="7.43709">
        <ele>1266.5999755859</ele>
        <time>2022-04-09T09:27:15.000Z</time>
      </trkpt>
      <trkpt lat="43.91781" lon="7.4371">
        <ele>1267.1999511719</ele>
        <time>2022-04-09T09:27:17.000Z</time>
      </trkpt>
      <trkpt lat="43.91785" lon="7.43712">
        <ele>1267.8000488281</ele>
        <time>2022-04-09T09:27:19.000Z</time>
      </trkpt>
      <trkpt lat="43.91787" lon="7.43711">
        <ele>1268.1999511719</ele>
        <time>2022-04-09T09:27:20.000Z</time>
      </trkpt>
      <trkpt lat="43.91791" lon="7.43711">
        <ele>1269.1999511719</ele>
        <time>2022-04-09T09:27:22.000Z</time>
      </trkpt>
      <trkpt lat="43.91795" lon="7.4371">
        <ele>1270</ele>
        <time>2022-04-09T09:27:24.000Z</time>
      </trkpt>
      <trkpt lat="43.91797" lon="7.4371">
        <ele>1270.4000244141</ele>
        <time>2022-04-09T09:27:25.000Z</time>
      </trkpt>
      <trkpt lat="43.918" lon="7.43711">
        <ele>1271</ele>
        <time>2022-04-09T09:27:27.000Z</time>
      </trkpt>
      <trkpt lat="43.91802" lon="7.4371">
        <ele>1271.4000244141</ele>
        <time>2022-04-09T09:27:28.000Z</time>
      </trkpt>
      <trkpt lat="43.91804" lon="7.43709">
        <ele>1272.1999511719</ele>
        <time>2022-04-09T09:27:31.000Z</time>
      </trkpt>
      <trkpt lat="43.91806" lon="7.43708">
        <ele>1272.4000244141</ele>
        <time>2022-04-09T09:27:32.000Z</time>
      </trkpt>
      <trkpt lat="43.91808" lon="7.43708">
        <ele>1273.5999755859</ele>
        <time>2022-04-09T09:27:36.000Z</time>
      </trkpt>
      <trkpt lat="43.9181" lon="7.43708">
        <ele>1273.5999755859</ele>
        <time>2022-04-09T09:27:37.000Z</time>
      </trkpt>
      <trkpt lat="43.91821" lon="7.43706">
        <ele>1274.4000244141</ele>
        <time>2022-04-09T09:27:42.000Z</time>
      </trkpt>
      <trkpt lat="43.91823" lon="7.43706">
        <ele>1274.5999755859</ele>
        <time>2022-04-09T09:27:43.000Z</time>
      </trkpt>
      <trkpt lat="43.91832" lon="7.43706">
        <ele>1275.8000488281</ele>
        <time>2022-04-09T09:27:47.000Z</time>
      </trkpt>
      <trkpt lat="43.91835" lon="7.43706">
        <ele>1276.1999511719</ele>
        <time>2022-04-09T09:27:48.000Z</time>
      </trkpt>
      <trkpt lat="43.9184" lon="7.43706">
        <ele>1277</ele>
        <time>2022-04-09T09:27:50.000Z</time>
      </trkpt>
      <trkpt lat="43.91846" lon="7.43705">
        <ele>1278</ele>
        <time>2022-04-09T09:27:53.000Z</time>
      </trkpt>
      <trkpt lat="43.91847" lon="7.43706">
        <ele>1278.5999755859</ele>
        <time>2022-04-09T09:27:54.000Z</time>
      </trkpt>
      <trkpt lat="43.91851" lon="7.43705">
        <ele>1279.1999511719</ele>
        <time>2022-04-09T09:27:56.000Z</time>
      </trkpt>
      <trkpt lat="43.91859" lon="7.43705">
        <ele>1280.4000244141</ele>
        <time>2022-04-09T09:27:59.000Z</time>
      </trkpt>
      <trkpt lat="43.91866" lon="7.43703">
        <ele>1281.8000488281</ele>
        <time>2022-04-09T09:28:02.000Z</time>
      </trkpt>
      <trkpt lat="43.91869" lon="7.43704">
        <ele>1282.5999755859</ele>
        <time>2022-04-09T09:28:03.000Z</time>
      </trkpt>
      <trkpt lat="43.91871" lon="7.43704">
        <ele>1283.1999511719</ele>
        <time>2022-04-09T09:28:04.000Z</time>
      </trkpt>
      <trkpt lat="43.91876" lon="7.43704">
        <ele>1284.5999755859</ele>
        <time>2022-04-09T09:28:06.000Z</time>
      </trkpt>
      <trkpt lat="43.9188" lon="7.43702">
        <ele>1286</ele>
        <time>2022-04-09T09:28:08.000Z</time>
      </trkpt>
      <trkpt lat="43.91882" lon="7.43702">
        <ele>1286.5999755859</ele>
        <time>2022-04-09T09:28:09.000Z</time>
      </trkpt>
      <trkpt lat="43.91884" lon="7.43702">
        <ele>1287</ele>
        <time>2022-04-09T09:28:10.000Z</time>
      </trkpt>
      <trkpt lat="43.91885" lon="7.43702">
        <ele>1287.5999755859</ele>
        <time>2022-04-09T09:28:11.000Z</time>
      </trkpt>
      <trkpt lat="43.91888" lon="7.43702">
        <ele>1288.4000244141</ele>
        <time>2022-04-09T09:28:12.000Z</time>
      </trkpt>
      <trkpt lat="43.91891" lon="7.43702">
        <ele>1289.4000244141</ele>
        <time>2022-04-09T09:28:14.000Z</time>
      </trkpt>
      <trkpt lat="43.91897" lon="7.437">
        <ele>1290.8000488281</ele>
        <time>2022-04-09T09:28:17.000Z</time>
      </trkpt>
      <trkpt lat="43.91901" lon="7.437">
        <ele>1291.8000488281</ele>
        <time>2022-04-09T09:28:19.000Z</time>
      </trkpt>
      <trkpt lat="43.91903" lon="7.437">
        <ele>1292.1999511719</ele>
        <time>2022-04-09T09:28:20.000Z</time>
      </trkpt>
      <trkpt lat="43.91911" lon="7.43701">
        <ele>1293.1999511719</ele>
        <time>2022-04-09T09:28:24.000Z</time>
      </trkpt>
      <trkpt lat="43.91915" lon="7.43701">
        <ele>1294</ele>
        <time>2022-04-09T09:28:26.000Z</time>
      </trkpt>
      <trkpt lat="43.91917" lon="7.437">
        <ele>1294.4000244141</ele>
        <time>2022-04-09T09:28:27.000Z</time>
      </trkpt>
      <trkpt lat="43.9192" lon="7.43698">
        <ele>1295.8000488281</ele>
        <time>2022-04-09T09:28:30.000Z</time>
      </trkpt>
      <trkpt lat="43.91921" lon="7.43698">
        <ele>1296.1999511719</ele>
        <time>2022-04-09T09:28:31.000Z</time>
      </trkpt>
      <trkpt lat="43.91921" lon="7.43698">
        <ele>1297</ele>
        <time>2022-04-09T09:28:33.000Z</time>
      </trkpt>
      <trkpt lat="43.91923" lon="7.437">
        <ele>1297.5999755859</ele>
        <time>2022-04-09T09:28:37.000Z</time>
      </trkpt>
      <trkpt lat="43.91926" lon="7.43701">
        <ele>1297.8000488281</ele>
        <time>2022-04-09T09:28:41.000Z</time>
      </trkpt>
      <trkpt lat="43.91931" lon="7.43701">
        <ele>1297.8000488281</ele>
        <time>2022-04-09T09:28:44.000Z</time>
      </trkpt>
      <trkpt lat="43.91935" lon="7.43701">
        <ele>1298.1999511719</ele>
        <time>2022-04-09T09:28:46.000Z</time>
      </trkpt>
      <trkpt lat="43.91943" lon="7.437">
        <ele>1299.1999511719</ele>
        <time>2022-04-09T09:28:49.000Z</time>
      </trkpt>
      <trkpt lat="43.91945" lon="7.43699">
        <ele>1299.4000244141</ele>
        <time>2022-04-09T09:28:50.000Z</time>
      </trkpt>
      <trkpt lat="43.91949" lon="7.43697">
        <ele>1300.1999511719</ele>
        <time>2022-04-09T09:28:52.000Z</time>
      </trkpt>
      <trkpt lat="43.91953" lon="7.43696">
        <ele>1301.1999511719</ele>
        <time>2022-04-09T09:28:54.000Z</time>
      </trkpt>
      <trkpt lat="43.91956" lon="7.43697">
        <ele>1301.8000488281</ele>
        <time>2022-04-09T09:28:55.000Z</time>
      </trkpt>
      <trkpt lat="43.91959" lon="7.43695">
        <ele>1302.8000488281</ele>
        <time>2022-04-09T09:28:57.000Z</time>
      </trkpt>
      <trkpt lat="43.91962" lon="7.43694">
        <ele>1304</ele>
        <time>2022-04-09T09:28:59.000Z</time>
      </trkpt>
      <trkpt lat="43.91963" lon="7.43693">
        <ele>1305.4000244141</ele>
        <time>2022-04-09T09:29:02.000Z</time>
      </trkpt>
      <trkpt lat="43.91963" lon="7.43693">
        <ele>1305.5999755859</ele>
        <time>2022-04-09T09:29:03.000Z</time>
      </trkpt>
      <trkpt lat="43.91966" lon="7.43693">
        <ele>1305.8000488281</ele>
        <time>2022-04-09T09:29:11.000Z</time>
      </trkpt>
      <trkpt lat="43.9197" lon="7.4369">
        <ele>1306.1999511719</ele>
        <time>2022-04-09T09:29:30.000Z</time>
      </trkpt>
      <trkpt lat="43.91976" lon="7.43687">
        <ele>1305.8000488281</ele>
        <time>2022-04-09T09:29:51.000Z</time>
      </trkpt>
      <trkpt lat="43.91983" lon="7.43684">
        <ele>1307</ele>
        <time>2022-04-09T09:29:55.000Z</time>
      </trkpt>
      <trkpt lat="43.91985" lon="7.43683">
        <ele>1307.5999755859</ele>
        <time>2022-04-09T09:29:56.000Z</time>
      </trkpt>
      <trkpt lat="43.91988" lon="7.43682">
        <ele>1308.1999511719</ele>
        <time>2022-04-09T09:29:57.000Z</time>
      </trkpt>
      <trkpt lat="43.91992" lon="7.43681">
        <ele>1309.4000244141</ele>
        <time>2022-04-09T09:29:59.000Z</time>
      </trkpt>
      <trkpt lat="43.91993" lon="7.43681">
        <ele>1309.8000488281</ele>
        <time>2022-04-09T09:30:00.000Z</time>
      </trkpt>
      <trkpt lat="43.91997" lon="7.43679">
        <ele>1311</ele>
        <time>2022-04-09T09:30:02.000Z</time>
      </trkpt>
      <trkpt lat="43.91998" lon="7.43678">
        <ele>1311.5999755859</ele>
        <time>2022-04-09T09:30:03.000Z</time>
      </trkpt>
      <trkpt lat="43.92" lon="7.43678">
        <ele>1312</ele>
        <time>2022-04-09T09:30:04.000Z</time>
      </trkpt>
      <trkpt lat="43.92001" lon="7.43677">
        <ele>1312.8000488281</ele>
        <time>2022-04-09T09:30:05.000Z</time>
      </trkpt>
      <trkpt lat="43.92002" lon="7.43677">
        <ele>1313.4000244141</ele>
        <time>2022-04-09T09:30:06.000Z</time>
      </trkpt>
      <trkpt lat="43.92006" lon="7.43675">
        <ele>1314.4000244141</ele>
        <time>2022-04-09T09:30:08.000Z</time>
      </trkpt>
      <trkpt lat="43.92007" lon="7.43674">
        <ele>1315</ele>
        <time>2022-04-09T09:30:09.000Z</time>
      </trkpt>
      <trkpt lat="43.92008" lon="7.43673">
        <ele>1315.5999755859</ele>
        <time>2022-04-09T09:30:10.000Z</time>
      </trkpt>
      <trkpt lat="43.92011" lon="7.43672">
        <ele>1316.8000488281</ele>
        <time>2022-04-09T09:30:12.000Z</time>
      </trkpt>
      <trkpt lat="43.92014" lon="7.4367">
        <ele>1317.8000488281</ele>
        <time>2022-04-09T09:30:14.000Z</time>
      </trkpt>
      <trkpt lat="43.92017" lon="7.43669">
        <ele>1318.8000488281</ele>
        <time>2022-04-09T09:30:16.000Z</time>
      </trkpt>
      <trkpt lat="43.92019" lon="7.43669">
        <ele>1319.1999511719</ele>
        <time>2022-04-09T09:30:17.000Z</time>
      </trkpt>
      <trkpt lat="43.9202" lon="7.43669">
        <ele>1319.5999755859</ele>
        <time>2022-04-09T09:30:18.000Z</time>
      </trkpt>
      <trkpt lat="43.92021" lon="7.43669">
        <ele>1320.1999511719</ele>
        <time>2022-04-09T09:30:19.000Z</time>
      </trkpt>
      <trkpt lat="43.92022" lon="7.43668">
        <ele>1321.5999755859</ele>
        <time>2022-04-09T09:30:22.000Z</time>
      </trkpt>
      <trkpt lat="43.92023" lon="7.43669">
        <ele>1321.8000488281</ele>
        <time>2022-04-09T09:30:23.000Z</time>
      </trkpt>
      <trkpt lat="43.92025" lon="7.4367">
        <ele>1322</ele>
        <time>2022-04-09T09:30:33.000Z</time>
      </trkpt>
      <trkpt lat="43.92028" lon="7.4367">
        <ele>1322.1999511719</ele>
        <time>2022-04-09T09:30:48.000Z</time>
      </trkpt>
      <trkpt lat="43.92031" lon="7.43669">
        <ele>1322.5999755859</ele>
        <time>2022-04-09T09:30:55.000Z</time>
      </trkpt>
      <trkpt lat="43.92037" lon="7.43668">
        <ele>1322.5999755859</ele>
        <time>2022-04-09T09:31:01.000Z</time>
      </trkpt>
      <trkpt lat="43.92044" lon="7.43667">
        <ele>1323.8000488281</ele>
        <time>2022-04-09T09:31:05.000Z</time>
      </trkpt>
      <trkpt lat="43.92045" lon="7.43665">
        <ele>1324.4000244141</ele>
        <time>2022-04-09T09:31:06.000Z</time>
      </trkpt>
      <trkpt lat="43.92049" lon="7.43664">
        <ele>1325.4000244141</ele>
        <time>2022-04-09T09:31:08.000Z</time>
      </trkpt>
      <trkpt lat="43.92052" lon="7.43663">
        <ele>1326.5999755859</ele>
        <time>2022-04-09T09:31:10.000Z</time>
      </trkpt>
      <trkpt lat="43.92053" lon="7.43662">
        <ele>1327.1999511719</ele>
        <time>2022-04-09T09:31:11.000Z</time>
      </trkpt>
      <trkpt lat="43.92055" lon="7.43661">
        <ele>1327.8000488281</ele>
        <time>2022-04-09T09:31:12.000Z</time>
      </trkpt>
      <trkpt lat="43.92058" lon="7.43659">
        <ele>1329.4000244141</ele>
        <time>2022-04-09T09:31:15.000Z</time>
      </trkpt>
      <trkpt lat="43.92061" lon="7.43656">
        <ele>1331</ele>
        <time>2022-04-09T09:31:18.000Z</time>
      </trkpt>
      <trkpt lat="43.9206" lon="7.43656">
        <ele>1331.1999511719</ele>
        <time>2022-04-09T09:31:19.000Z</time>
      </trkpt>
      <trkpt lat="43.92061" lon="7.43656">
        <ele>1331.8000488281</ele>
        <time>2022-04-09T09:31:24.000Z</time>
      </trkpt>
      <trkpt lat="43.92063" lon="7.43656">
        <ele>1332</ele>
        <time>2022-04-09T09:31:28.000Z</time>
      </trkpt>
      <trkpt lat="43.92064" lon="7.43655">
        <ele>1332.1999511719</ele>
        <time>2022-04-09T09:31:30.000Z</time>
      </trkpt>
      <trkpt lat="43.92069" lon="7.43652">
        <ele>1332.8000488281</ele>
        <time>2022-04-09T09:31:37.000Z</time>
      </trkpt>
      <trkpt lat="43.92073" lon="7.43652">
        <ele>1333.1999511719</ele>
        <time>2022-04-09T09:31:39.000Z</time>
      </trkpt>
      <trkpt lat="43.92074" lon="7.43653">
        <ele>1333.4000244141</ele>
        <time>2022-04-09T09:31:40.000Z</time>
      </trkpt>
      <trkpt lat="43.92078" lon="7.43653">
        <ele>1334.1999511719</ele>
        <time>2022-04-09T09:31:42.000Z</time>
      </trkpt>
      <trkpt lat="43.92084" lon="7.43654">
        <ele>1335.4000244141</ele>
        <time>2022-04-09T09:31:45.000Z</time>
      </trkpt>
      <trkpt lat="43.92088" lon="7.43655">
        <ele>1336.1999511719</ele>
        <time>2022-04-09T09:31:47.000Z</time>
      </trkpt>
      <trkpt lat="43.9209" lon="7.43655">
        <ele>1336.5999755859</ele>
        <time>2022-04-09T09:31:48.000Z</time>
      </trkpt>
      <trkpt lat="43.92098" lon="7.43661">
        <ele>1337.5999755859</ele>
        <time>2022-04-09T09:31:53.000Z</time>
      </trkpt>
      <trkpt lat="43.92102" lon="7.43663">
        <ele>1337.8000488281</ele>
        <time>2022-04-09T09:31:55.000Z</time>
      </trkpt>
      <trkpt lat="43.92105" lon="7.43662">
        <ele>1338</ele>
        <time>2022-04-09T09:31:57.000Z</time>
      </trkpt>
      <trkpt lat="43.92107" lon="7.43663">
        <ele>1338.1999511719</ele>
        <time>2022-04-09T09:32:00.000Z</time>
      </trkpt>
      <trkpt lat="43.92107" lon="7.43662">
        <ele>1338.5999755859</ele>
        <time>2022-04-09T09:32:02.000Z</time>
      </trkpt>
      <trkpt lat="43.92107" lon="7.43662">
        <ele>1339</ele>
        <time>2022-04-09T09:32:05.000Z</time>
      </trkpt>
      <trkpt lat="43.9211" lon="7.43662">
        <ele>1339</ele>
        <time>2022-04-09T09:32:11.000Z</time>
      </trkpt>
      <trkpt lat="43.92113" lon="7.43661">
        <ele>1339.5999755859</ele>
        <time>2022-04-09T09:32:16.000Z</time>
      </trkpt>
      <trkpt lat="43.92115" lon="7.4366">
        <ele>1340.4000244141</ele>
        <time>2022-04-09T09:32:22.000Z</time>
      </trkpt>
      <trkpt lat="43.92115" lon="7.4366">
        <ele>1340.8000488281</ele>
        <time>2022-04-09T09:32:24.000Z</time>
      </trkpt>
      <trkpt lat="43.92117" lon="7.43661">
        <ele>1341.1999511719</ele>
        <time>2022-04-09T09:32:30.000Z</time>
      </trkpt>
      <trkpt lat="43.92119" lon="7.43662">
        <ele>1341.8000488281</ele>
        <time>2022-04-09T09:32:37.000Z</time>
      </trkpt>
      <trkpt lat="43.92124" lon="7.43663">
        <ele>1342.8000488281</ele>
        <time>2022-04-09T09:32:46.000Z</time>
      </trkpt>
      <trkpt lat="43.92124" lon="7.43663">
        <ele>1343</ele>
        <time>2022-04-09T09:32:47.000Z</time>
      </trkpt>
      <trkpt lat="43.92127" lon="7.43664">
        <ele>1343.8000488281</ele>
        <time>2022-04-09T09:32:53.000Z</time>
      </trkpt>
      <trkpt lat="43.92129" lon="7.43665">
        <ele>1344</ele>
        <time>2022-04-09T09:32:56.000Z</time>
      </trkpt>
      <trkpt lat="43.92133" lon="7.43666">
        <ele>1345</ele>
        <time>2022-04-09T09:33:03.000Z</time>
      </trkpt>
      <trkpt lat="43.92134" lon="7.43665">
        <ele>1345.5999755859</ele>
        <time>2022-04-09T09:33:06.000Z</time>
      </trkpt>
      <trkpt lat="43.92136" lon="7.43665">
        <ele>1346</ele>
        <time>2022-04-09T09:33:10.000Z</time>
      </trkpt>
      <trkpt lat="43.92139" lon="7.43665">
        <ele>1346.8000488281</ele>
        <time>2022-04-09T09:33:14.000Z</time>
      </trkpt>
      <trkpt lat="43.9214" lon="7.43665">
        <ele>1347</ele>
        <time>2022-04-09T09:33:16.000Z</time>
      </trkpt>
      <trkpt lat="43.92143" lon="7.43666">
        <ele>1347.5999755859</ele>
        <time>2022-04-09T09:33:21.000Z</time>
      </trkpt>
      <trkpt lat="43.92145" lon="7.43666">
        <ele>1348.1999511719</ele>
        <time>2022-04-09T09:33:24.000Z</time>
      </trkpt>
      <trkpt lat="43.92145" lon="7.43666">
        <ele>1348.5999755859</ele>
        <time>2022-04-09T09:33:28.000Z</time>
      </trkpt>
      <trkpt lat="43.92148" lon="7.43666">
        <ele>1348.8000488281</ele>
        <time>2022-04-09T09:33:34.000Z</time>
      </trkpt>
      <trkpt lat="43.9215" lon="7.43667">
        <ele>1348.8000488281</ele>
        <time>2022-04-09T09:33:35.000Z</time>
      </trkpt>
      <trkpt lat="43.92153" lon="7.4367">
        <ele>1349.1999511719</ele>
        <time>2022-04-09T09:33:38.000Z</time>
      </trkpt>
      <trkpt lat="43.92154" lon="7.43672">
        <ele>1349.4000244141</ele>
        <time>2022-04-09T09:33:39.000Z</time>
      </trkpt>
      <trkpt lat="43.92163" lon="7.43678">
        <ele>1350.4000244141</ele>
        <time>2022-04-09T09:33:45.000Z</time>
      </trkpt>
      <trkpt lat="43.92165" lon="7.43679">
        <ele>1350.4000244141</ele>
        <time>2022-04-09T09:33:46.000Z</time>
      </trkpt>
      <trkpt lat="43.92174" lon="7.43685">
        <ele>1351.4000244141</ele>
        <time>2022-04-09T09:33:52.000Z</time>
      </trkpt>
      <trkpt lat="43.92178" lon="7.43686">
        <ele>1351.4000244141</ele>
        <time>2022-04-09T09:33:54.000Z</time>
      </trkpt>
      <trkpt lat="43.92181" lon="7.43686">
        <ele>1351.5999755859</ele>
        <time>2022-04-09T09:33:55.000Z</time>
      </trkpt>
      <trkpt lat="43.92183" lon="7.43684">
        <ele>1351.8000488281</ele>
        <time>2022-04-09T09:33:57.000Z</time>
      </trkpt>
      <trkpt lat="43.92189" lon="7.43679">
        <ele>1352.4000244141</ele>
        <time>2022-04-09T09:34:01.000Z</time>
      </trkpt>
      <trkpt lat="43.9219" lon="7.43679">
        <ele>1352.5999755859</ele>
        <time>2022-04-09T09:34:02.000Z</time>
      </trkpt>
      <trkpt lat="43.92195" lon="7.43678">
        <ele>1353</ele>
        <time>2022-04-09T09:34:07.000Z</time>
      </trkpt>
      <trkpt lat="43.92196" lon="7.43679">
        <ele>1352.8000488281</ele>
        <time>2022-04-09T09:34:11.000Z</time>
      </trkpt>
      <trkpt lat="43.92197" lon="7.4368">
        <ele>1352.8000488281</ele>
        <time>2022-04-09T09:34:15.000Z</time>
      </trkpt>
      <trkpt lat="43.92198" lon="7.43679">
        <ele>1353.4000244141</ele>
        <time>2022-04-09T09:34:22.000Z</time>
      </trkpt>
      <trkpt lat="43.922" lon="7.43679">
        <ele>1352.8000488281</ele>
        <time>2022-04-09T09:34:31.000Z</time>
      </trkpt>
      <trkpt lat="43.922" lon="7.4368">
        <ele>1353</ele>
        <time>2022-04-09T09:34:37.000Z</time>
      </trkpt>
      <trkpt lat="43.922" lon="7.43679">
        <ele>1352.5999755859</ele>
        <time>2022-04-09T09:34:46.000Z</time>
      </trkpt>
      <trkpt lat="43.92201" lon="7.4368">
        <ele>1353.1999511719</ele>
        <time>2022-04-09T09:34:57.000Z</time>
      </trkpt>
      <trkpt lat="43.92201" lon="7.4368">
        <ele>1353.5999755859</ele>
        <time>2022-04-09T09:35:00.000Z</time>
      </trkpt>
      <trkpt lat="43.92202" lon="7.43681">
        <ele>1353.5999755859</ele>
        <time>2022-04-09T09:35:10.000Z</time>
      </trkpt>
      <trkpt lat="43.92204" lon="7.43683">
        <ele>1353.5999755859</ele>
        <time>2022-04-09T09:35:22.000Z</time>
      </trkpt>
      <trkpt lat="43.92205" lon="7.43683">
        <ele>1353.4000244141</ele>
        <time>2022-04-09T09:35:31.000Z</time>
      </trkpt>
      <trkpt lat="43.92204" lon="7.43681">
        <ele>1353.4000244141</ele>
        <time>2022-04-09T09:35:40.000Z</time>
      </trkpt>
      <trkpt lat="43.92204" lon="7.4368">
        <ele>1353.4000244141</ele>
        <time>2022-04-09T09:35:46.000Z</time>
      </trkpt>
      <trkpt lat="43.92204" lon="7.43677">
        <ele>1353.1999511719</ele>
        <time>2022-04-09T09:35:58.000Z</time>
      </trkpt>
      <trkpt lat="43.92204" lon="7.43673">
        <ele>1353.1999511719</ele>
        <time>2022-04-09T09:36:23.000Z</time>
      </trkpt>
      <trkpt lat="43.92205" lon="7.43674">
        <ele>1353</ele>
        <time>2022-04-09T09:36:37.000Z</time>
      </trkpt>
      <trkpt lat="43.92205" lon="7.43675">
        <ele>1353</ele>
        <time>2022-04-09T09:36:52.000Z</time>
      </trkpt>
      <trkpt lat="43.92206" lon="7.43677">
        <ele>1353.1999511719</ele>
        <time>2022-04-09T09:37:07.000Z</time>
      </trkpt>
      <trkpt lat="43.92205" lon="7.43678">
        <ele>1353.1999511719</ele>
        <time>2022-04-09T09:37:19.000Z</time>
      </trkpt>
      <trkpt lat="43.92206" lon="7.43679">
        <ele>1352.8000488281</ele>
        <time>2022-04-09T09:37:26.000Z</time>
      </trkpt>
      <trkpt lat="43.92206" lon="7.4368">
        <ele>1352.8000488281</ele>
        <time>2022-04-09T09:37:39.000Z</time>
      </trkpt>
      <trkpt lat="43.92207" lon="7.43681">
        <ele>1352.5999755859</ele>
        <time>2022-04-09T09:37:45.000Z</time>
      </trkpt>
      <trkpt lat="43.92207" lon="7.43681">
        <ele>1352.8000488281</ele>
        <time>2022-04-09T09:37:49.000Z</time>
      </trkpt>
      <trkpt lat="43.92207" lon="7.4368">
        <ele>1352.5999755859</ele>
        <time>2022-04-09T09:38:03.000Z</time>
      </trkpt>
      <trkpt lat="43.92205" lon="7.43679">
        <ele>1353</ele>
        <time>2022-04-09T09:38:15.000Z</time>
      </trkpt>
      <trkpt lat="43.92205" lon="7.4368">
        <ele>1353</ele>
        <time>2022-04-09T09:38:28.000Z</time>
      </trkpt>
      <trkpt lat="43.92205" lon="7.43681">
        <ele>1353.4000244141</ele>
        <time>2022-04-09T09:38:39.000Z</time>
      </trkpt>
      <trkpt lat="43.92205" lon="7.43679">
        <ele>1352.8000488281</ele>
        <time>2022-04-09T09:38:50.000Z</time>
      </trkpt>
      <trkpt lat="43.92206" lon="7.4368">
        <ele>1352.8000488281</ele>
        <time>2022-04-09T09:39:00.000Z</time>
      </trkpt>
      <trkpt lat="43.92207" lon="7.43681">
        <ele>1352.5999755859</ele>
        <time>2022-04-09T09:39:14.000Z</time>
      </trkpt>
      <trkpt lat="43.92207" lon="7.4368">
        <ele>1353.4000244141</ele>
        <time>2022-04-09T09:39:25.000Z</time>
      </trkpt>
      <trkpt lat="43.92205" lon="7.43681">
        <ele>1353</ele>
        <time>2022-04-09T09:39:32.000Z</time>
      </trkpt>
      <trkpt lat="43.92202" lon="7.43679">
        <ele>1352.5999755859</ele>
        <time>2022-04-09T09:39:39.000Z</time>
      </trkpt>
      <trkpt lat="43.922" lon="7.4368">
        <ele>1352.8000488281</ele>
        <time>2022-04-09T09:39:49.000Z</time>
      </trkpt>
      <trkpt lat="43.92198" lon="7.43679">
        <ele>1352.4000244141</ele>
        <time>2022-04-09T09:39:56.000Z</time>
      </trkpt>
      <trkpt lat="43.92197" lon="7.4368">
        <ele>1352.4000244141</ele>
        <time>2022-04-09T09:40:04.000Z</time>
      </trkpt>
      <trkpt lat="43.92196" lon="7.4368">
        <ele>1352.1999511719</ele>
        <time>2022-04-09T09:40:12.000Z</time>
      </trkpt>
      <trkpt lat="43.92198" lon="7.4368">
        <ele>1352.4000244141</ele>
        <time>2022-04-09T09:40:20.000Z</time>
      </trkpt>
      <trkpt lat="43.92199" lon="7.4368">
        <ele>1352.4000244141</ele>
        <time>2022-04-09T09:40:27.000Z</time>
      </trkpt>
      <trkpt lat="43.92199" lon="7.43679">
        <ele>1352.5999755859</ele>
        <time>2022-04-09T09:40:35.000Z</time>
      </trkpt>
      <trkpt lat="43.92198" lon="7.43678">
        <ele>1353</ele>
        <time>2022-04-09T09:40:43.000Z</time>
      </trkpt>
      <trkpt lat="43.92197" lon="7.43675">
        <ele>1352.8000488281</ele>
        <time>2022-04-09T09:40:55.000Z</time>
      </trkpt>
      <trkpt lat="43.92198" lon="7.43676">
        <ele>1352.1999511719</ele>
        <time>2022-04-09T09:41:03.000Z</time>
      </trkpt>
      <trkpt lat="43.92199" lon="7.43677">
        <ele>1352.8000488281</ele>
        <time>2022-04-09T09:41:13.000Z</time>
      </trkpt>
      <trkpt lat="43.92201" lon="7.43677">
        <ele>1352.5999755859</ele>
        <time>2022-04-09T09:41:22.000Z</time>
      </trkpt>
      <trkpt lat="43.92203" lon="7.43677">
        <ele>1352.1999511719</ele>
        <time>2022-04-09T09:41:32.000Z</time>
      </trkpt>
      <trkpt lat="43.92203" lon="7.43674">
        <ele>1352</ele>
        <time>2022-04-09T09:41:47.000Z</time>
      </trkpt>
      <trkpt lat="43.92203" lon="7.43674">
        <ele>1352</ele>
        <time>2022-04-09T09:41:48.000Z</time>
      </trkpt>
      <trkpt lat="43.92206" lon="7.43675">
        <ele>1351.8000488281</ele>
        <time>2022-04-09T09:41:52.000Z</time>
      </trkpt>
      <trkpt lat="43.92206" lon="7.43676">
        <ele>1351.5999755859</ele>
        <time>2022-04-09T09:41:58.000Z</time>
      </trkpt>
      <trkpt lat="43.92206" lon="7.43676">
        <ele>1351.4000244141</ele>
        <time>2022-04-09T09:41:59.000Z</time>
      </trkpt>
      <trkpt lat="43.92206" lon="7.43675">
        <ele>1350.8000488281</ele>
        <time>2022-04-09T09:42:09.000Z</time>
      </trkpt>
      <trkpt lat="43.92205" lon="7.43675">
        <ele>1351.4000244141</ele>
        <time>2022-04-09T09:42:18.000Z</time>
      </trkpt>
      <trkpt lat="43.92205" lon="7.43677">
        <ele>1352.1999511719</ele>
        <time>2022-04-09T09:42:28.000Z</time>
      </trkpt>
      <trkpt lat="43.92206" lon="7.43678">
        <ele>1352.1999511719</ele>
        <time>2022-04-09T09:42:35.000Z</time>
      </trkpt>
      <trkpt lat="43.92206" lon="7.43678">
        <ele>1352.4000244141</ele>
        <time>2022-04-09T09:42:36.000Z</time>
      </trkpt>
      <trkpt lat="43.92206" lon="7.43679">
        <ele>1352.1999511719</ele>
        <time>2022-04-09T09:42:42.000Z</time>
      </trkpt>
      <trkpt lat="43.92206" lon="7.43679">
        <ele>1352.5999755859</ele>
        <time>2022-04-09T09:42:51.000Z</time>
      </trkpt>
      <trkpt lat="43.92206" lon="7.43679">
        <ele>1352.1999511719</ele>
        <time>2022-04-09T09:43:01.000Z</time>
      </trkpt>
      <trkpt lat="43.92205" lon="7.43679">
        <ele>1352.4000244141</ele>
        <time>2022-04-09T09:43:15.000Z</time>
      </trkpt>
      <trkpt lat="43.92206" lon="7.4368">
        <ele>1352.5999755859</ele>
        <time>2022-04-09T09:43:29.000Z</time>
      </trkpt>
      <trkpt lat="43.92207" lon="7.43681">
        <ele>1352.5999755859</ele>
        <time>2022-04-09T09:43:38.000Z</time>
      </trkpt>
      <trkpt lat="43.92207" lon="7.4368">
        <ele>1352.4000244141</ele>
        <time>2022-04-09T09:43:51.000Z</time>
      </trkpt>
      <trkpt lat="43.92205" lon="7.43679">
        <ele>1352.4000244141</ele>
        <time>2022-04-09T09:43:59.000Z</time>
      </trkpt>
      <trkpt lat="43.92203" lon="7.43679">
        <ele>1352.4000244141</ele>
        <time>2022-04-09T09:44:06.000Z</time>
      </trkpt>
      <trkpt lat="43.92202" lon="7.4368">
        <ele>1352.4000244141</ele>
        <time>2022-04-09T09:44:17.000Z</time>
      </trkpt>
      <trkpt lat="43.92201" lon="7.43681">
        <ele>1352.5999755859</ele>
        <time>2022-04-09T09:44:25.000Z</time>
      </trkpt>
      <trkpt lat="43.92201" lon="7.43681">
        <ele>1353</ele>
        <time>2022-04-09T09:44:39.000Z</time>
      </trkpt>
      <trkpt lat="43.922" lon="7.43682">
        <ele>1352.4000244141</ele>
        <time>2022-04-09T09:44:50.000Z</time>
      </trkpt>
      <trkpt lat="43.92201" lon="7.43682">
        <ele>1352</ele>
        <time>2022-04-09T09:45:04.000Z</time>
      </trkpt>
      <trkpt lat="43.92201" lon="7.43682">
        <ele>1352.4000244141</ele>
        <time>2022-04-09T09:45:13.000Z</time>
      </trkpt>
      <trkpt lat="43.922" lon="7.43681">
        <ele>1352.4000244141</ele>
        <time>2022-04-09T09:45:20.000Z</time>
      </trkpt>
      <trkpt lat="43.92198" lon="7.43679">
        <ele>1352.8000488281</ele>
        <time>2022-04-09T09:45:33.000Z</time>
      </trkpt>
      <trkpt lat="43.92198" lon="7.43678">
        <ele>1352.8000488281</ele>
        <time>2022-04-09T09:45:38.000Z</time>
      </trkpt>
      <trkpt lat="43.92198" lon="7.43678">
        <ele>1352.5999755859</ele>
        <time>2022-04-09T09:45:48.000Z</time>
      </trkpt>
      <trkpt lat="43.92199" lon="7.43679">
        <ele>1352.5999755859</ele>
        <time>2022-04-09T09:45:55.000Z</time>
      </trkpt>
      <trkpt lat="43.92197" lon="7.43677">
        <ele>1352.1999511719</ele>
        <time>2022-04-09T09:46:02.000Z</time>
      </trkpt>
      <trkpt lat="43.92197" lon="7.43676">
        <ele>1352.5999755859</ele>
        <time>2022-04-09T09:46:08.000Z</time>
      </trkpt>
      <trkpt lat="43.92201" lon="7.43678">
        <ele>1352.5999755859</ele>
        <time>2022-04-09T09:46:13.000Z</time>
      </trkpt>
      <trkpt lat="43.92204" lon="7.43682">
        <ele>1353</ele>
        <time>2022-04-09T09:46:18.000Z</time>
      </trkpt>
      <trkpt lat="43.92209" lon="7.43687">
        <ele>1353.5999755859</ele>
        <time>2022-04-09T09:46:23.000Z</time>
      </trkpt>
      <trkpt lat="43.92215" lon="7.43693">
        <ele>1354.4000244141</ele>
        <time>2022-04-09T09:46:27.000Z</time>
      </trkpt>
      <trkpt lat="43.92218" lon="7.43695">
        <ele>1354.5999755859</ele>
        <time>2022-04-09T09:46:29.000Z</time>
      </trkpt>
      <trkpt lat="43.92221" lon="7.43698">
        <ele>1355.4000244141</ele>
        <time>2022-04-09T09:46:32.000Z</time>
      </trkpt>
      <trkpt lat="43.92224" lon="7.437">
        <ele>1355.8000488281</ele>
        <time>2022-04-09T09:46:34.000Z</time>
      </trkpt>
      <trkpt lat="43.92229" lon="7.43703">
        <ele>1356.8000488281</ele>
        <time>2022-04-09T09:46:37.000Z</time>
      </trkpt>
      <trkpt lat="43.92231" lon="7.43705">
        <ele>1357.1999511719</ele>
        <time>2022-04-09T09:46:38.000Z</time>
      </trkpt>
      <trkpt lat="43.92237" lon="7.43707">
        <ele>1358.4000244141</ele>
        <time>2022-04-09T09:46:41.000Z</time>
      </trkpt>
      <trkpt lat="43.92239" lon="7.43705">
        <ele>1359</ele>
        <time>2022-04-09T09:46:42.000Z</time>
      </trkpt>
      <trkpt lat="43.9224" lon="7.43705">
        <ele>1359.5999755859</ele>
        <time>2022-04-09T09:46:43.000Z</time>
      </trkpt>
      <trkpt lat="43.92243" lon="7.43707">
        <ele>1360.8000488281</ele>
        <time>2022-04-09T09:46:45.000Z</time>
      </trkpt>
      <trkpt lat="43.92244" lon="7.43708">
        <ele>1361.4000244141</ele>
        <time>2022-04-09T09:46:46.000Z</time>
      </trkpt>
      <trkpt lat="43.92246" lon="7.43709">
        <ele>1361.8000488281</ele>
        <time>2022-04-09T09:46:47.000Z</time>
      </trkpt>
      <trkpt lat="43.92254" lon="7.43712">
        <ele>1362.5999755859</ele>
        <time>2022-04-09T09:46:51.000Z</time>
      </trkpt>
      <trkpt lat="43.92256" lon="7.43712">
        <ele>1363.1999511719</ele>
        <time>2022-04-09T09:46:52.000Z</time>
      </trkpt>
      <trkpt lat="43.92259" lon="7.43715">
        <ele>1364.4000244141</ele>
        <time>2022-04-09T09:46:54.000Z</time>
      </trkpt>
      <trkpt lat="43.92262" lon="7.43716">
        <ele>1365.5999755859</ele>
        <time>2022-04-09T09:46:56.000Z</time>
      </trkpt>
      <trkpt lat="43.92268" lon="7.43719">
        <ele>1367</ele>
        <time>2022-04-09T09:46:59.000Z</time>
      </trkpt>
      <trkpt lat="43.92271" lon="7.43721">
        <ele>1368</ele>
        <time>2022-04-09T09:47:01.000Z</time>
      </trkpt>
      <trkpt lat="43.92277" lon="7.43724">
        <ele>1369.1999511719</ele>
        <time>2022-04-09T09:47:04.000Z</time>
      </trkpt>
      <trkpt lat="43.9228" lon="7.43728">
        <ele>1370</ele>
        <time>2022-04-09T09:47:06.000Z</time>
      </trkpt>
      <trkpt lat="43.92282" lon="7.43728">
        <ele>1370.4000244141</ele>
        <time>2022-04-09T09:47:07.000Z</time>
      </trkpt>
      <trkpt lat="43.92285" lon="7.43733">
        <ele>1371.5999755859</ele>
        <time>2022-04-09T09:47:10.000Z</time>
      </trkpt>
      <trkpt lat="43.92287" lon="7.43735">
        <ele>1372.1999511719</ele>
        <time>2022-04-09T09:47:11.000Z</time>
      </trkpt>
      <trkpt lat="43.92289" lon="7.43736">
        <ele>1372.8000488281</ele>
        <time>2022-04-09T09:47:12.000Z</time>
      </trkpt>
      <trkpt lat="43.92295" lon="7.4374">
        <ele>1373.8000488281</ele>
        <time>2022-04-09T09:47:15.000Z</time>
      </trkpt>
      <trkpt lat="43.92298" lon="7.43744">
        <ele>1374.4000244141</ele>
        <time>2022-04-09T09:47:17.000Z</time>
      </trkpt>
      <trkpt lat="43.92309" lon="7.43753">
        <ele>1374.5999755859</ele>
        <time>2022-04-09T09:47:23.000Z</time>
      </trkpt>
      <trkpt lat="43.92314" lon="7.43755">
        <ele>1374.8000488281</ele>
        <time>2022-04-09T09:47:25.000Z</time>
      </trkpt>
      <trkpt lat="43.92327" lon="7.43762">
        <ele>1375.4000244141</ele>
        <time>2022-04-09T09:47:31.000Z</time>
      </trkpt>
      <trkpt lat="43.92339" lon="7.4377">
        <ele>1375.5999755859</ele>
        <time>2022-04-09T09:47:37.000Z</time>
      </trkpt>
      <trkpt lat="43.92347" lon="7.43779">
        <ele>1375.1999511719</ele>
        <time>2022-04-09T09:47:44.000Z</time>
      </trkpt>
      <trkpt lat="43.92351" lon="7.43778">
        <ele>1375.1999511719</ele>
        <time>2022-04-09T09:47:47.000Z</time>
      </trkpt>
      <trkpt lat="43.92352" lon="7.4378">
        <ele>1375.1999511719</ele>
        <time>2022-04-09T09:47:49.000Z</time>
      </trkpt>
      <trkpt lat="43.92352" lon="7.43781">
        <ele>1375.5999755859</ele>
        <time>2022-04-09T09:47:53.000Z</time>
      </trkpt>
      <trkpt lat="43.92353" lon="7.43781">
        <ele>1375.4000244141</ele>
        <time>2022-04-09T09:48:06.000Z</time>
      </trkpt>
      <trkpt lat="43.92355" lon="7.43782">
        <ele>1375.5999755859</ele>
        <time>2022-04-09T09:48:33.000Z</time>
      </trkpt>
      <trkpt lat="43.92357" lon="7.43783">
        <ele>1375.1999511719</ele>
        <time>2022-04-09T09:48:59.000Z</time>
      </trkpt>
      <trkpt lat="43.92358" lon="7.43783">
        <ele>1375.1999511719</ele>
        <time>2022-04-09T09:49:30.000Z</time>
      </trkpt>
      <trkpt lat="43.92359" lon="7.43783">
        <ele>1375.4000244141</ele>
        <time>2022-04-09T09:49:54.000Z</time>
      </trkpt>
      <trkpt lat="43.92358" lon="7.43783">
        <ele>1374.8000488281</ele>
        <time>2022-04-09T09:50:03.000Z</time>
      </trkpt>
      <trkpt lat="43.92358" lon="7.43784">
        <ele>1374.5999755859</ele>
        <time>2022-04-09T09:50:12.000Z</time>
      </trkpt>
      <trkpt lat="43.9236" lon="7.43787">
        <ele>1374.5999755859</ele>
        <time>2022-04-09T09:50:23.000Z</time>
      </trkpt>
      <trkpt lat="43.92359" lon="7.43788">
        <ele>1374.4000244141</ele>
        <time>2022-04-09T09:50:29.000Z</time>
      </trkpt>
      <trkpt lat="43.92359" lon="7.43788">
        <ele>1374.5999755859</ele>
        <time>2022-04-09T09:50:36.000Z</time>
      </trkpt>
      <trkpt lat="43.92359" lon="7.43787">
        <ele>1374.8000488281</ele>
        <time>2022-04-09T09:50:47.000Z</time>
      </trkpt>
      <trkpt lat="43.92359" lon="7.43785">
        <ele>1374.8000488281</ele>
        <time>2022-04-09T09:50:54.000Z</time>
      </trkpt>
      <trkpt lat="43.92359" lon="7.43785">
        <ele>1375</ele>
        <time>2022-04-09T09:51:06.000Z</time>
      </trkpt>
      <trkpt lat="43.9236" lon="7.43783">
        <ele>1375</ele>
        <time>2022-04-09T09:51:14.000Z</time>
      </trkpt>
      <trkpt lat="43.92361" lon="7.43782">
        <ele>1375.5999755859</ele>
        <time>2022-04-09T09:51:19.000Z</time>
      </trkpt>
      <trkpt lat="43.92361" lon="7.43782">
        <ele>1375.8000488281</ele>
        <time>2022-04-09T09:51:21.000Z</time>
      </trkpt>
      <trkpt lat="43.92361" lon="7.43782">
        <ele>1375.8000488281</ele>
        <time>2022-04-09T09:51:25.000Z</time>
      </trkpt>
      <trkpt lat="43.92362" lon="7.43779">
        <ele>1375.8000488281</ele>
        <time>2022-04-09T09:51:31.000Z</time>
      </trkpt>
      <trkpt lat="43.92367" lon="7.43774">
        <ele>1376</ele>
        <time>2022-04-09T09:51:38.000Z</time>
      </trkpt>
      <trkpt lat="43.92368" lon="7.43772">
        <ele>1376</ele>
        <time>2022-04-09T09:51:56.000Z</time>
      </trkpt>
      <trkpt lat="43.92368" lon="7.4377">
        <ele>1376.1999511719</ele>
        <time>2022-04-09T09:51:58.000Z</time>
      </trkpt>
      <trkpt lat="43.92367" lon="7.43764">
        <ele>1376</ele>
        <time>2022-04-09T09:52:01.000Z</time>
      </trkpt>
      <trkpt lat="43.9237" lon="7.43761">
        <ele>1375.4000244141</ele>
        <time>2022-04-09T09:52:05.000Z</time>
      </trkpt>
      <trkpt lat="43.92371" lon="7.43758">
        <ele>1374.5999755859</ele>
        <time>2022-04-09T09:52:07.000Z</time>
      </trkpt>
      <trkpt lat="43.92377" lon="7.43755">
        <ele>1373.5999755859</ele>
        <time>2022-04-09T09:52:09.000Z</time>
      </trkpt>
      <trkpt lat="43.92385" lon="7.43757">
        <ele>1372.8000488281</ele>
        <time>2022-04-09T09:52:11.000Z</time>
      </trkpt>
      <trkpt lat="43.92389" lon="7.43757">
        <ele>1372</ele>
        <time>2022-04-09T09:52:12.000Z</time>
      </trkpt>
      <trkpt lat="43.92391" lon="7.43756">
        <ele>1371</ele>
        <time>2022-04-09T09:52:13.000Z</time>
      </trkpt>
      <trkpt lat="43.92394" lon="7.43756">
        <ele>1369.8000488281</ele>
        <time>2022-04-09T09:52:14.000Z</time>
      </trkpt>
      <trkpt lat="43.92396" lon="7.43754">
        <ele>1368.4000244141</ele>
        <time>2022-04-09T09:52:15.000Z</time>
      </trkpt>
      <trkpt lat="43.92397" lon="7.43752">
        <ele>1367.1999511719</ele>
        <time>2022-04-09T09:52:16.000Z</time>
      </trkpt>
      <trkpt lat="43.92399" lon="7.43751">
        <ele>1366</ele>
        <time>2022-04-09T09:52:17.000Z</time>
      </trkpt>
      <trkpt lat="43.92404" lon="7.43749">
        <ele>1364.1999511719</ele>
        <time>2022-04-09T09:52:19.000Z</time>
      </trkpt>
      <trkpt lat="43.92411" lon="7.43746">
        <ele>1362.8000488281</ele>
        <time>2022-04-09T09:52:21.000Z</time>
      </trkpt>
      <trkpt lat="43.92414" lon="7.43745">
        <ele>1361.1999511719</ele>
        <time>2022-04-09T09:52:22.000Z</time>
      </trkpt>
      <trkpt lat="43.92419" lon="7.43744">
        <ele>1359.8000488281</ele>
        <time>2022-04-09T09:52:23.000Z</time>
      </trkpt>
      <trkpt lat="43.92422" lon="7.43741">
        <ele>1358.5999755859</ele>
        <time>2022-04-09T09:52:24.000Z</time>
      </trkpt>
      <trkpt lat="43.92425" lon="7.4374">
        <ele>1357.5999755859</ele>
        <time>2022-04-09T09:52:25.000Z</time>
      </trkpt>
      <trkpt lat="43.92429" lon="7.43739">
        <ele>1356</ele>
        <time>2022-04-09T09:52:26.000Z</time>
      </trkpt>
      <trkpt lat="43.92431" lon="7.43736">
        <ele>1354.8000488281</ele>
        <time>2022-04-09T09:52:28.000Z</time>
      </trkpt>
      <trkpt lat="43.9243" lon="7.43735">
        <ele>1353.8000488281</ele>
        <time>2022-04-09T09:52:29.000Z</time>
      </trkpt>
      <trkpt lat="43.9243" lon="7.43732">
        <ele>1352.4000244141</ele>
        <time>2022-04-09T09:52:30.000Z</time>
      </trkpt>
      <trkpt lat="43.92432" lon="7.43731">
        <ele>1351.5999755859</ele>
        <time>2022-04-09T09:52:31.000Z</time>
      </trkpt>
      <trkpt lat="43.92434" lon="7.43729">
        <ele>1350.8000488281</ele>
        <time>2022-04-09T09:52:32.000Z</time>
      </trkpt>
      <trkpt lat="43.92446" lon="7.43726">
        <ele>1349.5999755859</ele>
        <time>2022-04-09T09:52:35.000Z</time>
      </trkpt>
      <trkpt lat="43.92452" lon="7.4372">
        <ele>1348</ele>
        <time>2022-04-09T09:52:38.000Z</time>
      </trkpt>
      <trkpt lat="43.92456" lon="7.43717">
        <ele>1347.4000244141</ele>
        <time>2022-04-09T09:52:39.000Z</time>
      </trkpt>
      <trkpt lat="43.92461" lon="7.43715">
        <ele>1346.8000488281</ele>
        <time>2022-04-09T09:52:41.000Z</time>
      </trkpt>
      <trkpt lat="43.92463" lon="7.43714">
        <ele>1346.5999755859</ele>
        <time>2022-04-09T09:52:42.000Z</time>
      </trkpt>
      <trkpt lat="43.92469" lon="7.4371">
        <ele>1346</ele>
        <time>2022-04-09T09:52:47.000Z</time>
      </trkpt>
      <trkpt lat="43.92481" lon="7.43704">
        <ele>1346.4000244141</ele>
        <time>2022-04-09T09:52:53.000Z</time>
      </trkpt>
      <trkpt lat="43.92496" lon="7.43697">
        <ele>1346</ele>
        <time>2022-04-09T09:52:57.000Z</time>
      </trkpt>
      <trkpt lat="43.92502" lon="7.43694">
        <ele>1345.5999755859</ele>
        <time>2022-04-09T09:52:59.000Z</time>
      </trkpt>
      <trkpt lat="43.9251" lon="7.4369">
        <ele>1345.8000488281</ele>
        <time>2022-04-09T09:53:02.000Z</time>
      </trkpt>
      <trkpt lat="43.92517" lon="7.43687">
        <ele>1346.8000488281</ele>
        <time>2022-04-09T09:53:05.000Z</time>
      </trkpt>
      <trkpt lat="43.92522" lon="7.43685">
        <ele>1347.1999511719</ele>
        <time>2022-04-09T09:53:08.000Z</time>
      </trkpt>
      <trkpt lat="43.92533" lon="7.43681">
        <ele>1347</ele>
        <time>2022-04-09T09:53:12.000Z</time>
      </trkpt>
      <trkpt lat="43.92546" lon="7.43675">
        <ele>1347.4000244141</ele>
        <time>2022-04-09T09:53:17.000Z</time>
      </trkpt>
      <trkpt lat="43.92556" lon="7.43671">
        <ele>1347.5999755859</ele>
        <time>2022-04-09T09:53:21.000Z</time>
      </trkpt>
      <trkpt lat="43.92573" lon="7.43665">
        <ele>1346.1999511719</ele>
        <time>2022-04-09T09:53:25.000Z</time>
      </trkpt>
      <trkpt lat="43.92577" lon="7.43662">
        <ele>1345.8000488281</ele>
        <time>2022-04-09T09:53:26.000Z</time>
      </trkpt>
      <trkpt lat="43.92579" lon="7.4366">
        <ele>1345.5999755859</ele>
        <time>2022-04-09T09:53:27.000Z</time>
      </trkpt>
      <trkpt lat="43.92584" lon="7.43657">
        <ele>1344.5999755859</ele>
        <time>2022-04-09T09:53:28.000Z</time>
      </trkpt>
      <trkpt lat="43.92588" lon="7.43653">
        <ele>1344.4000244141</ele>
        <time>2022-04-09T09:53:29.000Z</time>
      </trkpt>
      <trkpt lat="43.92594" lon="7.43647">
        <ele>1343.1999511719</ele>
        <time>2022-04-09T09:53:31.000Z</time>
      </trkpt>
      <trkpt lat="43.92595" lon="7.43645">
        <ele>1342.5999755859</ele>
        <time>2022-04-09T09:53:32.000Z</time>
      </trkpt>
      <trkpt lat="43.92598" lon="7.43642">
        <ele>1342.8000488281</ele>
        <time>2022-04-09T09:53:33.000Z</time>
      </trkpt>
      <trkpt lat="43.92604" lon="7.43638">
        <ele>1342.1999511719</ele>
        <time>2022-04-09T09:53:35.000Z</time>
      </trkpt>
      <trkpt lat="43.92611" lon="7.43635">
        <ele>1341.5999755859</ele>
        <time>2022-04-09T09:53:37.000Z</time>
      </trkpt>
      <trkpt lat="43.92619" lon="7.43631">
        <ele>1341</ele>
        <time>2022-04-09T09:53:39.000Z</time>
      </trkpt>
      <trkpt lat="43.92631" lon="7.43623">
        <ele>1340.8000488281</ele>
        <time>2022-04-09T09:53:43.000Z</time>
      </trkpt>
      <trkpt lat="43.92647" lon="7.43614">
        <ele>1339.8000488281</ele>
        <time>2022-04-09T09:53:48.000Z</time>
      </trkpt>
      <trkpt lat="43.92665" lon="7.43602">
        <ele>1339.8000488281</ele>
        <time>2022-04-09T09:53:53.000Z</time>
      </trkpt>
      <trkpt lat="43.92672" lon="7.43598">
        <ele>1339.8000488281</ele>
        <time>2022-04-09T09:53:55.000Z</time>
      </trkpt>
      <trkpt lat="43.9268" lon="7.43591">
        <ele>1339.8000488281</ele>
        <time>2022-04-09T09:53:58.000Z</time>
      </trkpt>
      <trkpt lat="43.92683" lon="7.43588">
        <ele>1340</ele>
        <time>2022-04-09T09:53:59.000Z</time>
      </trkpt>
      <trkpt lat="43.927" lon="7.43569">
        <ele>1340.1999511719</ele>
        <time>2022-04-09T09:54:05.000Z</time>
      </trkpt>
      <trkpt lat="43.92712" lon="7.43557">
        <ele>1340</ele>
        <time>2022-04-09T09:54:10.000Z</time>
      </trkpt>
      <trkpt lat="43.92726" lon="7.43541">
        <ele>1341</ele>
        <time>2022-04-09T09:54:15.000Z</time>
      </trkpt>
      <trkpt lat="43.92731" lon="7.43536">
        <ele>1341.1999511719</ele>
        <time>2022-04-09T09:54:17.000Z</time>
      </trkpt>
      <trkpt lat="43.92744" lon="7.43521">
        <ele>1341</ele>
        <time>2022-04-09T09:54:23.000Z</time>
      </trkpt>
      <trkpt lat="43.92753" lon="7.43507">
        <ele>1339.8000488281</ele>
        <time>2022-04-09T09:54:26.000Z</time>
      </trkpt>
      <trkpt lat="43.92755" lon="7.43502">
        <ele>1339</ele>
        <time>2022-04-09T09:54:28.000Z</time>
      </trkpt>
      <trkpt lat="43.92754" lon="7.43504">
        <ele>1338.5999755859</ele>
        <time>2022-04-09T09:54:29.000Z</time>
      </trkpt>
      <trkpt lat="43.92755" lon="7.43503">
        <ele>1338.1999511719</ele>
        <time>2022-04-09T09:54:32.000Z</time>
      </trkpt>
      <trkpt lat="43.92756" lon="7.435">
        <ele>1338.1999511719</ele>
        <time>2022-04-09T09:54:42.000Z</time>
      </trkpt>
      <trkpt lat="43.92757" lon="7.43497">
        <ele>1338.1999511719</ele>
        <time>2022-04-09T09:54:44.000Z</time>
      </trkpt>
      <trkpt lat="43.9276" lon="7.43493">
        <ele>1337.5999755859</ele>
        <time>2022-04-09T09:54:48.000Z</time>
      </trkpt>
      <trkpt lat="43.9276" lon="7.43493">
        <ele>1337.4000244141</ele>
        <time>2022-04-09T09:54:49.000Z</time>
      </trkpt>
      <trkpt lat="43.92761" lon="7.43491">
        <ele>1336.5999755859</ele>
        <time>2022-04-09T09:54:55.000Z</time>
      </trkpt>
      <trkpt lat="43.92762" lon="7.43491">
        <ele>1336.5999755859</ele>
        <time>2022-04-09T09:54:56.000Z</time>
      </trkpt>
      <trkpt lat="43.92762" lon="7.4349">
        <ele>1336</ele>
        <time>2022-04-09T09:55:03.000Z</time>
      </trkpt>
      <trkpt lat="43.92764" lon="7.43488">
        <ele>1335.5999755859</ele>
        <time>2022-04-09T09:55:11.000Z</time>
      </trkpt>
      <trkpt lat="43.92764" lon="7.43487">
        <ele>1334.5999755859</ele>
        <time>2022-04-09T09:55:19.000Z</time>
      </trkpt>
      <trkpt lat="43.92764" lon="7.43486">
        <ele>1334.4000244141</ele>
        <time>2022-04-09T09:55:20.000Z</time>
      </trkpt>
      <trkpt lat="43.92764" lon="7.43483">
        <ele>1334</ele>
        <time>2022-04-09T09:55:25.000Z</time>
      </trkpt>
      <trkpt lat="43.92764" lon="7.43482">
        <ele>1334.1999511719</ele>
        <time>2022-04-09T09:55:26.000Z</time>
      </trkpt>
      <trkpt lat="43.92764" lon="7.43481">
        <ele>1335</ele>
        <time>2022-04-09T09:55:31.000Z</time>
      </trkpt>
      <trkpt lat="43.92764" lon="7.4348">
        <ele>1335.4000244141</ele>
        <time>2022-04-09T09:55:33.000Z</time>
      </trkpt>
      <trkpt lat="43.92764" lon="7.43478">
        <ele>1335.4000244141</ele>
        <time>2022-04-09T09:55:34.000Z</time>
      </trkpt>
      <trkpt lat="43.92762" lon="7.43475">
        <ele>1335.5999755859</ele>
        <time>2022-04-09T09:55:36.000Z</time>
      </trkpt>
      <trkpt lat="43.9275" lon="7.43465">
        <ele>1334.5999755859</ele>
        <time>2022-04-09T09:55:40.000Z</time>
      </trkpt>
      <trkpt lat="43.92747" lon="7.43462">
        <ele>1333.8000488281</ele>
        <time>2022-04-09T09:55:41.000Z</time>
      </trkpt>
      <trkpt lat="43.92741" lon="7.43453">
        <ele>1332.4000244141</ele>
        <time>2022-04-09T09:55:43.000Z</time>
      </trkpt>
      <trkpt lat="43.92738" lon="7.43448">
        <ele>1331.8000488281</ele>
        <time>2022-04-09T09:55:44.000Z</time>
      </trkpt>
      <trkpt lat="43.92736" lon="7.43445">
        <ele>1330.5999755859</ele>
        <time>2022-04-09T09:55:46.000Z</time>
      </trkpt>
      <trkpt lat="43.92734" lon="7.43443">
        <ele>1330.4000244141</ele>
        <time>2022-04-09T09:55:47.000Z</time>
      </trkpt>
      <trkpt lat="43.92729" lon="7.43435">
        <ele>1329.5999755859</ele>
        <time>2022-04-09T09:55:49.000Z</time>
      </trkpt>
      <trkpt lat="43.92723" lon="7.43426">
        <ele>1329.8000488281</ele>
        <time>2022-04-09T09:55:51.000Z</time>
      </trkpt>
      <trkpt lat="43.92714" lon="7.4341">
        <ele>1329.1999511719</ele>
        <time>2022-04-09T09:55:54.000Z</time>
      </trkpt>
      <trkpt lat="43.92708" lon="7.434">
        <ele>1327.8000488281</ele>
        <time>2022-04-09T09:55:56.000Z</time>
      </trkpt>
      <trkpt lat="43.92702" lon="7.4339">
        <ele>1326.8000488281</ele>
        <time>2022-04-09T09:55:58.000Z</time>
      </trkpt>
      <trkpt lat="43.92697" lon="7.43379">
        <ele>1325.8000488281</ele>
        <time>2022-04-09T09:56:00.000Z</time>
      </trkpt>
      <trkpt lat="43.92694" lon="7.43371">
        <ele>1325.5999755859</ele>
        <time>2022-04-09T09:56:02.000Z</time>
      </trkpt>
      <trkpt lat="43.92686" lon="7.43348">
        <ele>1324.5999755859</ele>
        <time>2022-04-09T09:56:06.000Z</time>
      </trkpt>
      <trkpt lat="43.92683" lon="7.43334">
        <ele>1323.5999755859</ele>
        <time>2022-04-09T09:56:09.000Z</time>
      </trkpt>
      <trkpt lat="43.92683" lon="7.4333">
        <ele>1323.5999755859</ele>
        <time>2022-04-09T09:56:10.000Z</time>
      </trkpt>
      <trkpt lat="43.92681" lon="7.43322">
        <ele>1323.5999755859</ele>
        <time>2022-04-09T09:56:12.000Z</time>
      </trkpt>
      <trkpt lat="43.92678" lon="7.43312">
        <ele>1324</ele>
        <time>2022-04-09T09:56:14.000Z</time>
      </trkpt>
      <trkpt lat="43.92676" lon="7.43293">
        <ele>1324</ele>
        <time>2022-04-09T09:56:19.000Z</time>
      </trkpt>
      <trkpt lat="43.92676" lon="7.43293">
        <ele>1324.4000244141</ele>
        <time>2022-04-09T09:56:25.000Z</time>
      </trkpt>
      <trkpt lat="43.92676" lon="7.43285">
        <ele>1324.4000244141</ele>
        <time>2022-04-09T09:56:36.000Z</time>
      </trkpt>
      <trkpt lat="43.92676" lon="7.43273">
        <ele>1324.5999755859</ele>
        <time>2022-04-09T09:56:39.000Z</time>
      </trkpt>
      <trkpt lat="43.92676" lon="7.43263">
        <ele>1325.1999511719</ele>
        <time>2022-04-09T09:56:41.000Z</time>
      </trkpt>
      <trkpt lat="43.9268" lon="7.43241">
        <ele>1324.8000488281</ele>
        <time>2022-04-09T09:56:46.000Z</time>
      </trkpt>
      <trkpt lat="43.9268" lon="7.43235">
        <ele>1325</ele>
        <time>2022-04-09T09:56:47.000Z</time>
      </trkpt>
      <trkpt lat="43.92684" lon="7.43223">
        <ele>1324.8000488281</ele>
        <time>2022-04-09T09:56:49.000Z</time>
      </trkpt>
      <trkpt lat="43.92688" lon="7.43212">
        <ele>1323.8000488281</ele>
        <time>2022-04-09T09:56:51.000Z</time>
      </trkpt>
      <trkpt lat="43.92689" lon="7.43206">
        <ele>1323.1999511719</ele>
        <time>2022-04-09T09:56:52.000Z</time>
      </trkpt>
      <trkpt lat="43.92692" lon="7.432">
        <ele>1322.5999755859</ele>
        <time>2022-04-09T09:56:53.000Z</time>
      </trkpt>
      <trkpt lat="43.92695" lon="7.43197">
        <ele>1321.8000488281</ele>
        <time>2022-04-09T09:56:54.000Z</time>
      </trkpt>
      <trkpt lat="43.92696" lon="7.43195">
        <ele>1321.4000244141</ele>
        <time>2022-04-09T09:56:55.000Z</time>
      </trkpt>
      <trkpt lat="43.92697" lon="7.43191">
        <ele>1321</ele>
        <time>2022-04-09T09:56:56.000Z</time>
      </trkpt>
      <trkpt lat="43.927" lon="7.43184">
        <ele>1320.5999755859</ele>
        <time>2022-04-09T09:56:58.000Z</time>
      </trkpt>
      <trkpt lat="43.92706" lon="7.43172">
        <ele>1319.8000488281</ele>
        <time>2022-04-09T09:57:01.000Z</time>
      </trkpt>
      <trkpt lat="43.92709" lon="7.43168">
        <ele>1319.4000244141</ele>
        <time>2022-04-09T09:57:02.000Z</time>
      </trkpt>
      <trkpt lat="43.92719" lon="7.43149">
        <ele>1318</ele>
        <time>2022-04-09T09:57:06.000Z</time>
      </trkpt>
      <trkpt lat="43.9272" lon="7.43137">
        <ele>1316.8000488281</ele>
        <time>2022-04-09T09:57:09.000Z</time>
      </trkpt>
      <trkpt lat="43.9272" lon="7.43132">
        <ele>1316</ele>
        <time>2022-04-09T09:57:10.000Z</time>
      </trkpt>
      <trkpt lat="43.92721" lon="7.43127">
        <ele>1315.4000244141</ele>
        <time>2022-04-09T09:57:11.000Z</time>
      </trkpt>
      <trkpt lat="43.92723" lon="7.43122">
        <ele>1314.4000244141</ele>
        <time>2022-04-09T09:57:12.000Z</time>
      </trkpt>
      <trkpt lat="43.92725" lon="7.43112">
        <ele>1313</ele>
        <time>2022-04-09T09:57:14.000Z</time>
      </trkpt>
      <trkpt lat="43.92725" lon="7.43105">
        <ele>1312</ele>
        <time>2022-04-09T09:57:16.000Z</time>
      </trkpt>
      <trkpt lat="43.92724" lon="7.43093">
        <ele>1311</ele>
        <time>2022-04-09T09:57:18.000Z</time>
      </trkpt>
      <trkpt lat="43.92724" lon="7.43085">
        <ele>1309.5999755859</ele>
        <time>2022-04-09T09:57:20.000Z</time>
      </trkpt>
      <trkpt lat="43.92726" lon="7.43078">
        <ele>1308.1999511719</ele>
        <time>2022-04-09T09:57:22.000Z</time>
      </trkpt>
      <trkpt lat="43.92727" lon="7.43069">
        <ele>1307.1999511719</ele>
        <time>2022-04-09T09:57:24.000Z</time>
      </trkpt>
      <trkpt lat="43.92729" lon="7.43058">
        <ele>1307.1999511719</ele>
        <time>2022-04-09T09:57:26.000Z</time>
      </trkpt>
      <trkpt lat="43.92732" lon="7.43037">
        <ele>1307.5999755859</ele>
        <time>2022-04-09T09:57:32.000Z</time>
      </trkpt>
      <trkpt lat="43.92732" lon="7.43034">
        <ele>1306.8000488281</ele>
        <time>2022-04-09T09:57:35.000Z</time>
      </trkpt>
      <trkpt lat="43.92732" lon="7.43034">
        <ele>1306.8000488281</ele>
        <time>2022-04-09T09:57:37.000Z</time>
      </trkpt>
      <trkpt lat="43.92733" lon="7.43021">
        <ele>1307.5999755859</ele>
        <time>2022-04-09T09:57:43.000Z</time>
      </trkpt>
      <trkpt lat="43.92735" lon="7.42993">
        <ele>1307.5999755859</ele>
        <time>2022-04-09T09:57:48.000Z</time>
      </trkpt>
      <trkpt lat="43.92738" lon="7.42973">
        <ele>1307</ele>
        <time>2022-04-09T09:57:53.000Z</time>
      </trkpt>
      <trkpt lat="43.92741" lon="7.42967">
        <ele>1306.8000488281</ele>
        <time>2022-04-09T09:57:55.000Z</time>
      </trkpt>
      <trkpt lat="43.92744" lon="7.42967">
        <ele>1306.4000244141</ele>
        <time>2022-04-09T09:57:56.000Z</time>
      </trkpt>
      <trkpt lat="43.92746" lon="7.42967">
        <ele>1306</ele>
        <time>2022-04-09T09:57:57.000Z</time>
      </trkpt>
      <trkpt lat="43.92746" lon="7.42965">
        <ele>1304.5999755859</ele>
        <time>2022-04-09T09:57:59.000Z</time>
      </trkpt>
      <trkpt lat="43.92745" lon="7.42964">
        <ele>1303.8000488281</ele>
        <time>2022-04-09T09:58:00.000Z</time>
      </trkpt>
      <trkpt lat="43.92743" lon="7.42962">
        <ele>1303.5999755859</ele>
        <time>2022-04-09T09:58:01.000Z</time>
      </trkpt>
      <trkpt lat="43.92737" lon="7.42954">
        <ele>1302.5999755859</ele>
        <time>2022-04-09T09:58:03.000Z</time>
      </trkpt>
      <trkpt lat="43.92735" lon="7.42952">
        <ele>1301.8000488281</ele>
        <time>2022-04-09T09:58:04.000Z</time>
      </trkpt>
      <trkpt lat="43.92733" lon="7.4295">
        <ele>1301</ele>
        <time>2022-04-09T09:58:05.000Z</time>
      </trkpt>
      <trkpt lat="43.92731" lon="7.42946">
        <ele>1299.8000488281</ele>
        <time>2022-04-09T09:58:06.000Z</time>
      </trkpt>
      <trkpt lat="43.92727" lon="7.42943">
        <ele>1298.8000488281</ele>
        <time>2022-04-09T09:58:07.000Z</time>
      </trkpt>
      <trkpt lat="43.92724" lon="7.42941">
        <ele>1298</ele>
        <time>2022-04-09T09:58:08.000Z</time>
      </trkpt>
      <trkpt lat="43.92722" lon="7.42941">
        <ele>1298.8000488281</ele>
        <time>2022-04-09T09:58:09.000Z</time>
      </trkpt>
      <trkpt lat="43.9272" lon="7.42937">
        <ele>1297</ele>
        <time>2022-04-09T09:58:11.000Z</time>
      </trkpt>
      <trkpt lat="43.92721" lon="7.42935">
        <ele>1295.8000488281</ele>
        <time>2022-04-09T09:58:12.000Z</time>
      </trkpt>
      <trkpt lat="43.92719" lon="7.4293">
        <ele>1294</ele>
        <time>2022-04-09T09:58:14.000Z</time>
      </trkpt>
      <trkpt lat="43.92713" lon="7.42924">
        <ele>1292.8000488281</ele>
        <time>2022-04-09T09:58:16.000Z</time>
      </trkpt>
      <trkpt lat="43.92707" lon="7.42917">
        <ele>1291.5999755859</ele>
        <time>2022-04-09T09:58:18.000Z</time>
      </trkpt>
      <trkpt lat="43.92704" lon="7.42913">
        <ele>1290.4000244141</ele>
        <time>2022-04-09T09:58:19.000Z</time>
      </trkpt>
      <trkpt lat="43.92703" lon="7.42908">
        <ele>1289.4000244141</ele>
        <time>2022-04-09T09:58:20.000Z</time>
      </trkpt>
      <trkpt lat="43.927" lon="7.42905">
        <ele>1288.8000488281</ele>
        <time>2022-04-09T09:58:21.000Z</time>
      </trkpt>
      <trkpt lat="43.92697" lon="7.42902">
        <ele>1287.8000488281</ele>
        <time>2022-04-09T09:58:22.000Z</time>
      </trkpt>
      <trkpt lat="43.92692" lon="7.42899">
        <ele>1287.4000244141</ele>
        <time>2022-04-09T09:58:23.000Z</time>
      </trkpt>
      <trkpt lat="43.92689" lon="7.42896">
        <ele>1286.5999755859</ele>
        <time>2022-04-09T09:58:24.000Z</time>
      </trkpt>
      <trkpt lat="43.92686" lon="7.42894">
        <ele>1286</ele>
        <time>2022-04-09T09:58:25.000Z</time>
      </trkpt>
      <trkpt lat="43.92683" lon="7.42891">
        <ele>1284.4000244141</ele>
        <time>2022-04-09T09:58:26.000Z</time>
      </trkpt>
      <trkpt lat="43.9268" lon="7.4289">
        <ele>1283.4000244141</ele>
        <time>2022-04-09T09:58:27.000Z</time>
      </trkpt>
      <trkpt lat="43.92675" lon="7.42889">
        <ele>1281.8000488281</ele>
        <time>2022-04-09T09:58:29.000Z</time>
      </trkpt>
      <trkpt lat="43.92674" lon="7.42885">
        <ele>1280.8000488281</ele>
        <time>2022-04-09T09:58:30.000Z</time>
      </trkpt>
      <trkpt lat="43.92676" lon="7.42883">
        <ele>1280</ele>
        <time>2022-04-09T09:58:31.000Z</time>
      </trkpt>
      <trkpt lat="43.92675" lon="7.4288">
        <ele>1278</ele>
        <time>2022-04-09T09:58:33.000Z</time>
      </trkpt>
      <trkpt lat="43.92668" lon="7.42873">
        <ele>1276.5999755859</ele>
        <time>2022-04-09T09:58:35.000Z</time>
      </trkpt>
      <trkpt lat="43.92665" lon="7.42872">
        <ele>1275.5999755859</ele>
        <time>2022-04-09T09:58:36.000Z</time>
      </trkpt>
      <trkpt lat="43.92663" lon="7.42871">
        <ele>1274.4000244141</ele>
        <time>2022-04-09T09:58:37.000Z</time>
      </trkpt>
      <trkpt lat="43.92663" lon="7.42869">
        <ele>1273</ele>
        <time>2022-04-09T09:58:38.000Z</time>
      </trkpt>
      <trkpt lat="43.92664" lon="7.42868">
        <ele>1272</ele>
        <time>2022-04-09T09:58:39.000Z</time>
      </trkpt>
      <trkpt lat="43.92665" lon="7.42867">
        <ele>1271</ele>
        <time>2022-04-09T09:58:40.000Z</time>
      </trkpt>
      <trkpt lat="43.92665" lon="7.42865">
        <ele>1269.8000488281</ele>
        <time>2022-04-09T09:58:41.000Z</time>
      </trkpt>
      <trkpt lat="43.92664" lon="7.4286">
        <ele>1269</ele>
        <time>2022-04-09T09:58:43.000Z</time>
      </trkpt>
      <trkpt lat="43.92667" lon="7.42859">
        <ele>1267.8000488281</ele>
        <time>2022-04-09T09:58:44.000Z</time>
      </trkpt>
      <trkpt lat="43.92668" lon="7.42858">
        <ele>1267</ele>
        <time>2022-04-09T09:58:45.000Z</time>
      </trkpt>
      <trkpt lat="43.92671" lon="7.42857">
        <ele>1265.8000488281</ele>
        <time>2022-04-09T09:58:46.000Z</time>
      </trkpt>
      <trkpt lat="43.92682" lon="7.42855">
        <ele>1264.5999755859</ele>
        <time>2022-04-09T09:58:49.000Z</time>
      </trkpt>
      <trkpt lat="43.92689" lon="7.42856">
        <ele>1263.5999755859</ele>
        <time>2022-04-09T09:58:51.000Z</time>
      </trkpt>
      <trkpt lat="43.92693" lon="7.42855">
        <ele>1263.4000244141</ele>
        <time>2022-04-09T09:58:52.000Z</time>
      </trkpt>
      <trkpt lat="43.92704" lon="7.42854">
        <ele>1262.4000244141</ele>
        <time>2022-04-09T09:58:54.000Z</time>
      </trkpt>
      <trkpt lat="43.92709" lon="7.42855">
        <ele>1261.8000488281</ele>
        <time>2022-04-09T09:58:55.000Z</time>
      </trkpt>
      <trkpt lat="43.92714" lon="7.42856">
        <ele>1260.5999755859</ele>
        <time>2022-04-09T09:58:56.000Z</time>
      </trkpt>
      <trkpt lat="43.92722" lon="7.42857">
        <ele>1259</ele>
        <time>2022-04-09T09:58:58.000Z</time>
      </trkpt>
      <trkpt lat="43.92728" lon="7.42859">
        <ele>1258.1999511719</ele>
        <time>2022-04-09T09:58:59.000Z</time>
      </trkpt>
      <trkpt lat="43.92733" lon="7.42863">
        <ele>1257.1999511719</ele>
        <time>2022-04-09T09:59:00.000Z</time>
      </trkpt>
      <trkpt lat="43.9274" lon="7.42871">
        <ele>1254.5999755859</ele>
        <time>2022-04-09T09:59:02.000Z</time>
      </trkpt>
      <trkpt lat="43.92749" lon="7.42879">
        <ele>1252.1999511719</ele>
        <time>2022-04-09T09:59:04.000Z</time>
      </trkpt>
      <trkpt lat="43.92754" lon="7.42884">
        <ele>1252.1999511719</ele>
        <time>2022-04-09T09:59:05.000Z</time>
      </trkpt>
      <trkpt lat="43.92757" lon="7.42889">
        <ele>1251.1999511719</ele>
        <time>2022-04-09T09:59:06.000Z</time>
      </trkpt>
      <trkpt lat="43.92765" lon="7.42893">
        <ele>1250.1999511719</ele>
        <time>2022-04-09T09:59:08.000Z</time>
      </trkpt>
      <trkpt lat="43.92769" lon="7.42894">
        <ele>1249.5999755859</ele>
        <time>2022-04-09T09:59:09.000Z</time>
      </trkpt>
      <trkpt lat="43.92779" lon="7.42895">
        <ele>1249</ele>
        <time>2022-04-09T09:59:11.000Z</time>
      </trkpt>
      <trkpt lat="43.92785" lon="7.42897">
        <ele>1249</ele>
        <time>2022-04-09T09:59:12.000Z</time>
      </trkpt>
      <trkpt lat="43.92787" lon="7.42899">
        <ele>1248.4000244141</ele>
        <time>2022-04-09T09:59:13.000Z</time>
      </trkpt>
      <trkpt lat="43.92794" lon="7.42899">
        <ele>1248</ele>
        <time>2022-04-09T09:59:15.000Z</time>
      </trkpt>
      <trkpt lat="43.92799" lon="7.429">
        <ele>1247.5999755859</ele>
        <time>2022-04-09T09:59:16.000Z</time>
      </trkpt>
      <trkpt lat="43.92803" lon="7.42902">
        <ele>1246.8000488281</ele>
        <time>2022-04-09T09:59:17.000Z</time>
      </trkpt>
      <trkpt lat="43.92807" lon="7.42904">
        <ele>1246</ele>
        <time>2022-04-09T09:59:18.000Z</time>
      </trkpt>
      <trkpt lat="43.92811" lon="7.42905">
        <ele>1245.5999755859</ele>
        <time>2022-04-09T09:59:19.000Z</time>
      </trkpt>
      <trkpt lat="43.92819" lon="7.42905">
        <ele>1244</ele>
        <time>2022-04-09T09:59:21.000Z</time>
      </trkpt>
      <trkpt lat="43.92828" lon="7.42908">
        <ele>1243</ele>
        <time>2022-04-09T09:59:23.000Z</time>
      </trkpt>
      <trkpt lat="43.92834" lon="7.4291">
        <ele>1242</ele>
        <time>2022-04-09T09:59:24.000Z</time>
      </trkpt>
      <trkpt lat="43.92838" lon="7.42911">
        <ele>1241</ele>
        <time>2022-04-09T09:59:25.000Z</time>
      </trkpt>
      <trkpt lat="43.92842" lon="7.42912">
        <ele>1240</ele>
        <time>2022-04-09T09:59:26.000Z</time>
      </trkpt>
      <trkpt lat="43.92849" lon="7.42915">
        <ele>1238.5999755859</ele>
        <time>2022-04-09T09:59:28.000Z</time>
      </trkpt>
      <trkpt lat="43.92861" lon="7.42924">
        <ele>1238</ele>
        <time>2022-04-09T09:59:31.000Z</time>
      </trkpt>
      <trkpt lat="43.92868" lon="7.42935">
        <ele>1237.5999755859</ele>
        <time>2022-04-09T09:59:33.000Z</time>
      </trkpt>
      <trkpt lat="43.92874" lon="7.42945">
        <ele>1236.5999755859</ele>
        <time>2022-04-09T09:59:35.000Z</time>
      </trkpt>
      <trkpt lat="43.92876" lon="7.42949">
        <ele>1236.1999511719</ele>
        <time>2022-04-09T09:59:36.000Z</time>
      </trkpt>
      <trkpt lat="43.9288" lon="7.42953">
        <ele>1235.8000488281</ele>
        <time>2022-04-09T09:59:37.000Z</time>
      </trkpt>
      <trkpt lat="43.92889" lon="7.42956">
        <ele>1235</ele>
        <time>2022-04-09T09:59:39.000Z</time>
      </trkpt>
      <trkpt lat="43.92904" lon="7.42963">
        <ele>1235</ele>
        <time>2022-04-09T09:59:42.000Z</time>
      </trkpt>
      <trkpt lat="43.92918" lon="7.42974">
        <ele>1233.8000488281</ele>
        <time>2022-04-09T09:59:46.000Z</time>
      </trkpt>
      <trkpt lat="43.92923" lon="7.42976">
        <ele>1232.8000488281</ele>
        <time>2022-04-09T09:59:48.000Z</time>
      </trkpt>
      <trkpt lat="43.92935" lon="7.4297">
        <ele>1233.4000244141</ele>
        <time>2022-04-09T09:59:52.000Z</time>
      </trkpt>
      <trkpt lat="43.92945" lon="7.42956">
        <ele>1234</ele>
        <time>2022-04-09T09:59:56.000Z</time>
      </trkpt>
      <trkpt lat="43.9296" lon="7.42941">
        <ele>1232.8000488281</ele>
        <time>2022-04-09T10:00:01.000Z</time>
      </trkpt>
      <trkpt lat="43.92964" lon="7.42939">
        <ele>1232.5999755859</ele>
        <time>2022-04-09T10:00:02.000Z</time>
      </trkpt>
      <trkpt lat="43.92974" lon="7.42931">
        <ele>1232.5999755859</ele>
        <time>2022-04-09T10:00:06.000Z</time>
      </trkpt>
      <trkpt lat="43.92993" lon="7.42923">
        <ele>1233.5999755859</ele>
        <time>2022-04-09T10:00:12.000Z</time>
      </trkpt>
      <trkpt lat="43.93008" lon="7.42906">
        <ele>1233</ele>
        <time>2022-04-09T10:00:17.000Z</time>
      </trkpt>
      <trkpt lat="43.93011" lon="7.42901">
        <ele>1232.8000488281</ele>
        <time>2022-04-09T10:00:18.000Z</time>
      </trkpt>
      <trkpt lat="43.93015" lon="7.42893">
        <ele>1232.4000244141</ele>
        <time>2022-04-09T10:00:20.000Z</time>
      </trkpt>
      <trkpt lat="43.9302" lon="7.42886">
        <ele>1232.1999511719</ele>
        <time>2022-04-09T10:00:22.000Z</time>
      </trkpt>
      <trkpt lat="43.93023" lon="7.42886">
        <ele>1232</ele>
        <time>2022-04-09T10:00:23.000Z</time>
      </trkpt>
      <trkpt lat="43.93033" lon="7.42886">
        <ele>1231.8000488281</ele>
        <time>2022-04-09T10:00:26.000Z</time>
      </trkpt>
      <trkpt lat="43.93038" lon="7.42887">
        <ele>1231.4000244141</ele>
        <time>2022-04-09T10:00:27.000Z</time>
      </trkpt>
      <trkpt lat="43.93042" lon="7.42889">
        <ele>1230.5999755859</ele>
        <time>2022-04-09T10:00:28.000Z</time>
      </trkpt>
      <trkpt lat="43.93046" lon="7.42896">
        <ele>1229</ele>
        <time>2022-04-09T10:00:30.000Z</time>
      </trkpt>
      <trkpt lat="43.93051" lon="7.429">
        <ele>1227.4000244141</ele>
        <time>2022-04-09T10:00:32.000Z</time>
      </trkpt>
      <trkpt lat="43.9306" lon="7.42904">
        <ele>1226.1999511719</ele>
        <time>2022-04-09T10:00:34.000Z</time>
      </trkpt>
      <trkpt lat="43.93067" lon="7.42895">
        <ele>1225</ele>
        <time>2022-04-09T10:00:37.000Z</time>
      </trkpt>
      <trkpt lat="43.9307" lon="7.42891">
        <ele>1224.5999755859</ele>
        <time>2022-04-09T10:00:38.000Z</time>
      </trkpt>
      <trkpt lat="43.93075" lon="7.42883">
        <ele>1223.5999755859</ele>
        <time>2022-04-09T10:00:40.000Z</time>
      </trkpt>
      <trkpt lat="43.93084" lon="7.42868">
        <ele>1222.4000244141</ele>
        <time>2022-04-09T10:00:43.000Z</time>
      </trkpt>
      <trkpt lat="43.93093" lon="7.42855">
        <ele>1221</ele>
        <time>2022-04-09T10:00:46.000Z</time>
      </trkpt>
      <trkpt lat="43.93098" lon="7.42847">
        <ele>1220</ele>
        <time>2022-04-09T10:00:48.000Z</time>
      </trkpt>
      <trkpt lat="43.93106" lon="7.42836">
        <ele>1218.4000244141</ele>
        <time>2022-04-09T10:00:51.000Z</time>
      </trkpt>
      <trkpt lat="43.93112" lon="7.42827">
        <ele>1218.4000244141</ele>
        <time>2022-04-09T10:00:54.000Z</time>
      </trkpt>
      <trkpt lat="43.93121" lon="7.42808">
        <ele>1218.1999511719</ele>
        <time>2022-04-09T10:00:58.000Z</time>
      </trkpt>
      <trkpt lat="43.93126" lon="7.42792">
        <ele>1217.4000244141</ele>
        <time>2022-04-09T10:01:02.000Z</time>
      </trkpt>
      <trkpt lat="43.93135" lon="7.42773">
        <ele>1216.5999755859</ele>
        <time>2022-04-09T10:01:06.000Z</time>
      </trkpt>
      <trkpt lat="43.93138" lon="7.42767">
        <ele>1216</ele>
        <time>2022-04-09T10:01:07.000Z</time>
      </trkpt>
      <trkpt lat="43.93142" lon="7.42755">
        <ele>1215</ele>
        <time>2022-04-09T10:01:09.000Z</time>
      </trkpt>
      <trkpt lat="43.93142" lon="7.42748">
        <ele>1214.4000244141</ele>
        <time>2022-04-09T10:01:11.000Z</time>
      </trkpt>
      <trkpt lat="43.93143" lon="7.42734">
        <ele>1213.5999755859</ele>
        <time>2022-04-09T10:01:14.000Z</time>
      </trkpt>
      <trkpt lat="43.93145" lon="7.42728">
        <ele>1212.8000488281</ele>
        <time>2022-04-09T10:01:15.000Z</time>
      </trkpt>
      <trkpt lat="43.93147" lon="7.42723">
        <ele>1211.8000488281</ele>
        <time>2022-04-09T10:01:16.000Z</time>
      </trkpt>
      <trkpt lat="43.93152" lon="7.42715">
        <ele>1210.4000244141</ele>
        <time>2022-04-09T10:01:18.000Z</time>
      </trkpt>
      <trkpt lat="43.93153" lon="7.42712">
        <ele>1210</ele>
        <time>2022-04-09T10:01:19.000Z</time>
      </trkpt>
      <trkpt lat="43.93155" lon="7.42709">
        <ele>1209.8000488281</ele>
        <time>2022-04-09T10:01:20.000Z</time>
      </trkpt>
      <trkpt lat="43.9316" lon="7.42696">
        <ele>1209</ele>
        <time>2022-04-09T10:01:24.000Z</time>
      </trkpt>
      <trkpt lat="43.93162" lon="7.4269">
        <ele>1208.5999755859</ele>
        <time>2022-04-09T10:01:25.000Z</time>
      </trkpt>
      <trkpt lat="43.93163" lon="7.42683">
        <ele>1208.1999511719</ele>
        <time>2022-04-09T10:01:26.000Z</time>
      </trkpt>
      <trkpt lat="43.93164" lon="7.42676">
        <ele>1207.4000244141</ele>
        <time>2022-04-09T10:01:27.000Z</time>
      </trkpt>
      <trkpt lat="43.93164" lon="7.42666">
        <ele>1206.5999755859</ele>
        <time>2022-04-09T10:01:29.000Z</time>
      </trkpt>
      <trkpt lat="43.93164" lon="7.42659">
        <ele>1205.8000488281</ele>
        <time>2022-04-09T10:01:30.000Z</time>
      </trkpt>
      <trkpt lat="43.93164" lon="7.42645">
        <ele>1204.5999755859</ele>
        <time>2022-04-09T10:01:32.000Z</time>
      </trkpt>
      <trkpt lat="43.93165" lon="7.42639">
        <ele>1204</ele>
        <time>2022-04-09T10:01:33.000Z</time>
      </trkpt>
      <trkpt lat="43.93166" lon="7.42632">
        <ele>1204</ele>
        <time>2022-04-09T10:01:34.000Z</time>
      </trkpt>
      <trkpt lat="43.93168" lon="7.42631">
        <ele>1203.8000488281</ele>
        <time>2022-04-09T10:01:35.000Z</time>
      </trkpt>
      <trkpt lat="43.93176" lon="7.42621">
        <ele>1203.1999511719</ele>
        <time>2022-04-09T10:01:37.000Z</time>
      </trkpt>
      <trkpt lat="43.9318" lon="7.42613">
        <ele>1201.8000488281</ele>
        <time>2022-04-09T10:01:39.000Z</time>
      </trkpt>
      <trkpt lat="43.93184" lon="7.42605">
        <ele>1200.5999755859</ele>
        <time>2022-04-09T10:01:41.000Z</time>
      </trkpt>
      <trkpt lat="43.93186" lon="7.42601">
        <ele>1199.8000488281</ele>
        <time>2022-04-09T10:01:42.000Z</time>
      </trkpt>
      <trkpt lat="43.93187" lon="7.42598">
        <ele>1199</ele>
        <time>2022-04-09T10:01:43.000Z</time>
      </trkpt>
      <trkpt lat="43.93188" lon="7.42596">
        <ele>1197.5999755859</ele>
        <time>2022-04-09T10:01:44.000Z</time>
      </trkpt>
      <trkpt lat="43.9319" lon="7.42593">
        <ele>1196.4000244141</ele>
        <time>2022-04-09T10:01:45.000Z</time>
      </trkpt>
      <trkpt lat="43.93194" lon="7.42587">
        <ele>1194.5999755859</ele>
        <time>2022-04-09T10:01:47.000Z</time>
      </trkpt>
      <trkpt lat="43.93199" lon="7.4258">
        <ele>1193.4000244141</ele>
        <time>2022-04-09T10:01:49.000Z</time>
      </trkpt>
      <trkpt lat="43.93198" lon="7.42579">
        <ele>1192</ele>
        <time>2022-04-09T10:01:51.000Z</time>
      </trkpt>
      <trkpt lat="43.93196" lon="7.42581">
        <ele>1191.5999755859</ele>
        <time>2022-04-09T10:01:53.000Z</time>
      </trkpt>
      <trkpt lat="43.93196" lon="7.42581">
        <ele>1191</ele>
        <time>2022-04-09T10:01:54.000Z</time>
      </trkpt>
      <trkpt lat="43.93195" lon="7.42582">
        <ele>1190</ele>
        <time>2022-04-09T10:01:56.000Z</time>
      </trkpt>
      <trkpt lat="43.93192" lon="7.42585">
        <ele>1189.8000488281</ele>
        <time>2022-04-09T10:01:59.000Z</time>
      </trkpt>
      <trkpt lat="43.9319" lon="7.42588">
        <ele>1189.8000488281</ele>
        <time>2022-04-09T10:02:01.000Z</time>
      </trkpt>
      <trkpt lat="43.93183" lon="7.42592">
        <ele>1189.8000488281</ele>
        <time>2022-04-09T10:02:06.000Z</time>
      </trkpt>
      <trkpt lat="43.93183" lon="7.42592">
        <ele>1188.4000244141</ele>
        <time>2022-04-09T10:02:09.000Z</time>
      </trkpt>
      <trkpt lat="43.93182" lon="7.42591">
        <ele>1187.8000488281</ele>
        <time>2022-04-09T10:02:11.000Z</time>
      </trkpt>
      <trkpt lat="43.93183" lon="7.4259">
        <ele>1187.4000244141</ele>
        <time>2022-04-09T10:02:12.000Z</time>
      </trkpt>
      <trkpt lat="43.93183" lon="7.4259">
        <ele>1187.5999755859</ele>
        <time>2022-04-09T10:02:16.000Z</time>
      </trkpt>
      <trkpt lat="43.93189" lon="7.42579">
        <ele>1187</ele>
        <time>2022-04-09T10:02:21.000Z</time>
      </trkpt>
      <trkpt lat="43.93192" lon="7.42572">
        <ele>1186.1999511719</ele>
        <time>2022-04-09T10:02:23.000Z</time>
      </trkpt>
      <trkpt lat="43.93199" lon="7.42563">
        <ele>1185.1999511719</ele>
        <time>2022-04-09T10:02:26.000Z</time>
      </trkpt>
      <trkpt lat="43.93204" lon="7.42557">
        <ele>1184.5999755859</ele>
        <time>2022-04-09T10:02:28.000Z</time>
      </trkpt>
      <trkpt lat="43.9321" lon="7.4255">
        <ele>1184</ele>
        <time>2022-04-09T10:02:30.000Z</time>
      </trkpt>
      <trkpt lat="43.93219" lon="7.42543">
        <ele>1182.5999755859</ele>
        <time>2022-04-09T10:02:33.000Z</time>
      </trkpt>
      <trkpt lat="43.93226" lon="7.42538">
        <ele>1181.5999755859</ele>
        <time>2022-04-09T10:02:35.000Z</time>
      </trkpt>
      <trkpt lat="43.93231" lon="7.42533">
        <ele>1179.5999755859</ele>
        <time>2022-04-09T10:02:37.000Z</time>
      </trkpt>
      <trkpt lat="43.93233" lon="7.4253">
        <ele>1178.8000488281</ele>
        <time>2022-04-09T10:02:38.000Z</time>
      </trkpt>
      <trkpt lat="43.93236" lon="7.42527">
        <ele>1178</ele>
        <time>2022-04-09T10:02:39.000Z</time>
      </trkpt>
      <trkpt lat="43.93237" lon="7.42524">
        <ele>1176.5999755859</ele>
        <time>2022-04-09T10:02:41.000Z</time>
      </trkpt>
      <trkpt lat="43.93237" lon="7.42525">
        <ele>1176</ele>
        <time>2022-04-09T10:02:42.000Z</time>
      </trkpt>
      <trkpt lat="43.93237" lon="7.42524">
        <ele>1175.4000244141</ele>
        <time>2022-04-09T10:02:44.000Z</time>
      </trkpt>
      <trkpt lat="43.93238" lon="7.42523">
        <ele>1175.1999511719</ele>
        <time>2022-04-09T10:02:48.000Z</time>
      </trkpt>
      <trkpt lat="43.93239" lon="7.42521">
        <ele>1175.4000244141</ele>
        <time>2022-04-09T10:03:07.000Z</time>
      </trkpt>
      <trkpt lat="43.93238" lon="7.42521">
        <ele>1175</ele>
        <time>2022-04-09T10:03:14.000Z</time>
      </trkpt>
      <trkpt lat="43.93232" lon="7.42522">
        <ele>1174.8000488281</ele>
        <time>2022-04-09T10:03:21.000Z</time>
      </trkpt>
      <trkpt lat="43.93226" lon="7.42525">
        <ele>1174.4000244141</ele>
        <time>2022-04-09T10:03:23.000Z</time>
      </trkpt>
      <trkpt lat="43.93219" lon="7.42527">
        <ele>1173.1999511719</ele>
        <time>2022-04-09T10:03:25.000Z</time>
      </trkpt>
      <trkpt lat="43.93216" lon="7.42527">
        <ele>1171.4000244141</ele>
        <time>2022-04-09T10:03:27.000Z</time>
      </trkpt>
      <trkpt lat="43.93216" lon="7.42525">
        <ele>1171</ele>
        <time>2022-04-09T10:03:28.000Z</time>
      </trkpt>
      <trkpt lat="43.93219" lon="7.4252">
        <ele>1170.1999511719</ele>
        <time>2022-04-09T10:03:30.000Z</time>
      </trkpt>
      <trkpt lat="43.93221" lon="7.42517">
        <ele>1169.5999755859</ele>
        <time>2022-04-09T10:03:31.000Z</time>
      </trkpt>
      <trkpt lat="43.93226" lon="7.42509">
        <ele>1168.8000488281</ele>
        <time>2022-04-09T10:03:33.000Z</time>
      </trkpt>
      <trkpt lat="43.93231" lon="7.42501">
        <ele>1167.4000244141</ele>
        <time>2022-04-09T10:03:35.000Z</time>
      </trkpt>
      <trkpt lat="43.93238" lon="7.42493">
        <ele>1166</ele>
        <time>2022-04-09T10:03:37.000Z</time>
      </trkpt>
      <trkpt lat="43.93243" lon="7.42484">
        <ele>1165.1999511719</ele>
        <time>2022-04-09T10:03:39.000Z</time>
      </trkpt>
      <trkpt lat="43.93247" lon="7.42475">
        <ele>1164.5999755859</ele>
        <time>2022-04-09T10:03:41.000Z</time>
      </trkpt>
      <trkpt lat="43.93252" lon="7.42461">
        <ele>1162.8000488281</ele>
        <time>2022-04-09T10:03:44.000Z</time>
      </trkpt>
      <trkpt lat="43.93254" lon="7.42456">
        <ele>1162</ele>
        <time>2022-04-09T10:03:45.000Z</time>
      </trkpt>
      <trkpt lat="43.93256" lon="7.42451">
        <ele>1161.5999755859</ele>
        <time>2022-04-09T10:03:46.000Z</time>
      </trkpt>
      <trkpt lat="43.9326" lon="7.42437">
        <ele>1160</ele>
        <time>2022-04-09T10:03:49.000Z</time>
      </trkpt>
      <trkpt lat="43.93262" lon="7.42433">
        <ele>1159</ele>
        <time>2022-04-09T10:03:50.000Z</time>
      </trkpt>
      <trkpt lat="43.93264" lon="7.42429">
        <ele>1157.8000488281</ele>
        <time>2022-04-09T10:03:51.000Z</time>
      </trkpt>
      <trkpt lat="43.93265" lon="7.42421">
        <ele>1156.1999511719</ele>
        <time>2022-04-09T10:03:53.000Z</time>
      </trkpt>
      <trkpt lat="43.93269" lon="7.42412">
        <ele>1155</ele>
        <time>2022-04-09T10:03:55.000Z</time>
      </trkpt>
      <trkpt lat="43.93273" lon="7.42401">
        <ele>1154</ele>
        <time>2022-04-09T10:03:58.000Z</time>
      </trkpt>
      <trkpt lat="43.93276" lon="7.4239">
        <ele>1153.4000244141</ele>
        <time>2022-04-09T10:04:00.000Z</time>
      </trkpt>
      <trkpt lat="43.9328" lon="7.42374">
        <ele>1152.4000244141</ele>
        <time>2022-04-09T10:04:03.000Z</time>
      </trkpt>
      <trkpt lat="43.93285" lon="7.42365">
        <ele>1150.8000488281</ele>
        <time>2022-04-09T10:04:05.000Z</time>
      </trkpt>
      <trkpt lat="43.93286" lon="7.42361">
        <ele>1149.8000488281</ele>
        <time>2022-04-09T10:04:06.000Z</time>
      </trkpt>
      <trkpt lat="43.93287" lon="7.42357">
        <ele>1148.8000488281</ele>
        <time>2022-04-09T10:04:07.000Z</time>
      </trkpt>
      <trkpt lat="43.93292" lon="7.42341">
        <ele>1147.5999755859</ele>
        <time>2022-04-09T10:04:10.000Z</time>
      </trkpt>
      <trkpt lat="43.93293" lon="7.42334">
        <ele>1147.1999511719</ele>
        <time>2022-04-09T10:04:11.000Z</time>
      </trkpt>
      <trkpt lat="43.93294" lon="7.42326">
        <ele>1146.5999755859</ele>
        <time>2022-04-09T10:04:12.000Z</time>
      </trkpt>
      <trkpt lat="43.93298" lon="7.42316">
        <ele>1145.1999511719</ele>
        <time>2022-04-09T10:04:14.000Z</time>
      </trkpt>
      <trkpt lat="43.933" lon="7.42311">
        <ele>1144.5999755859</ele>
        <time>2022-04-09T10:04:15.000Z</time>
      </trkpt>
      <trkpt lat="43.93299" lon="7.42304">
        <ele>1144.5999755859</ele>
        <time>2022-04-09T10:04:17.000Z</time>
      </trkpt>
      <trkpt lat="43.93298" lon="7.42299">
        <ele>1144.8000488281</ele>
        <time>2022-04-09T10:04:18.000Z</time>
      </trkpt>
      <trkpt lat="43.93295" lon="7.42279">
        <ele>1145.5999755859</ele>
        <time>2022-04-09T10:04:23.000Z</time>
      </trkpt>
      <trkpt lat="43.93298" lon="7.42269">
        <ele>1146.4000244141</ele>
        <time>2022-04-09T10:04:26.000Z</time>
      </trkpt>
      <trkpt lat="43.93299" lon="7.42266">
        <ele>1146.5999755859</ele>
        <time>2022-04-09T10:04:27.000Z</time>
      </trkpt>
      <trkpt lat="43.93308" lon="7.42259">
        <ele>1147.4000244141</ele>
        <time>2022-04-09T10:04:30.000Z</time>
      </trkpt>
      <trkpt lat="43.93311" lon="7.42256">
        <ele>1147.8000488281</ele>
        <time>2022-04-09T10:04:31.000Z</time>
      </trkpt>
      <trkpt lat="43.93319" lon="7.42248">
        <ele>1148</ele>
        <time>2022-04-09T10:04:35.000Z</time>
      </trkpt>
      <trkpt lat="43.93329" lon="7.42225">
        <ele>1147.5999755859</ele>
        <time>2022-04-09T10:04:40.000Z</time>
      </trkpt>
      <trkpt lat="43.93331" lon="7.4222">
        <ele>1147</ele>
        <time>2022-04-09T10:04:41.000Z</time>
      </trkpt>
      <trkpt lat="43.93335" lon="7.42217">
        <ele>1146.1999511719</ele>
        <time>2022-04-09T10:04:42.000Z</time>
      </trkpt>
      <trkpt lat="43.93337" lon="7.42212">
        <ele>1144.8000488281</ele>
        <time>2022-04-09T10:04:44.000Z</time>
      </trkpt>
      <trkpt lat="43.9334" lon="7.42197">
        <ele>1143.8000488281</ele>
        <time>2022-04-09T10:04:47.000Z</time>
      </trkpt>
      <trkpt lat="43.93341" lon="7.42193">
        <ele>1143.8000488281</ele>
        <time>2022-04-09T10:04:48.000Z</time>
      </trkpt>
      <trkpt lat="43.93352" lon="7.42165">
        <ele>1143.5999755859</ele>
        <time>2022-04-09T10:04:54.000Z</time>
      </trkpt>
      <trkpt lat="43.93355" lon="7.42145">
        <ele>1142.8000488281</ele>
        <time>2022-04-09T10:04:58.000Z</time>
      </trkpt>
      <trkpt lat="43.93358" lon="7.42127">
        <ele>1141.8000488281</ele>
        <time>2022-04-09T10:05:02.000Z</time>
      </trkpt>
      <trkpt lat="43.93359" lon="7.42124">
        <ele>1141.5999755859</ele>
        <time>2022-04-09T10:05:03.000Z</time>
      </trkpt>
      <trkpt lat="43.93365" lon="7.42099">
        <ele>1141</ele>
        <time>2022-04-09T10:05:08.000Z</time>
      </trkpt>
      <trkpt lat="43.93372" lon="7.42082">
        <ele>1140.4000244141</ele>
        <time>2022-04-09T10:05:12.000Z</time>
      </trkpt>
      <trkpt lat="43.93373" lon="7.42079">
        <ele>1140.4000244141</ele>
        <time>2022-04-09T10:05:13.000Z</time>
      </trkpt>
      <trkpt lat="43.9338" lon="7.42062">
        <ele>1140.8000488281</ele>
        <time>2022-04-09T10:05:17.000Z</time>
      </trkpt>
      <trkpt lat="43.93383" lon="7.42045">
        <ele>1141.1999511719</ele>
        <time>2022-04-09T10:05:21.000Z</time>
      </trkpt>
      <trkpt lat="43.93383" lon="7.42039">
        <ele>1141</ele>
        <time>2022-04-09T10:05:22.000Z</time>
      </trkpt>
      <trkpt lat="43.93386" lon="7.42031">
        <ele>1140.1999511719</ele>
        <time>2022-04-09T10:05:24.000Z</time>
      </trkpt>
      <trkpt lat="43.93389" lon="7.42031">
        <ele>1139.4000244141</ele>
        <time>2022-04-09T10:05:25.000Z</time>
      </trkpt>
      <trkpt lat="43.9339" lon="7.42031">
        <ele>1139.1999511719</ele>
        <time>2022-04-09T10:05:26.000Z</time>
      </trkpt>
      <trkpt lat="43.93394" lon="7.42016">
        <ele>1137.8000488281</ele>
        <time>2022-04-09T10:05:29.000Z</time>
      </trkpt>
      <trkpt lat="43.93395" lon="7.42006">
        <ele>1136.8000488281</ele>
        <time>2022-04-09T10:05:31.000Z</time>
      </trkpt>
      <trkpt lat="43.93391" lon="7.41996">
        <ele>1135.4000244141</ele>
        <time>2022-04-09T10:05:33.000Z</time>
      </trkpt>
      <trkpt lat="43.93392" lon="7.41991">
        <ele>1133.8000488281</ele>
        <time>2022-04-09T10:05:35.000Z</time>
      </trkpt>
      <trkpt lat="43.93395" lon="7.41992">
        <ele>1132.4000244141</ele>
        <time>2022-04-09T10:05:36.000Z</time>
      </trkpt>
      <trkpt lat="43.93397" lon="7.41993">
        <ele>1131.4000244141</ele>
        <time>2022-04-09T10:05:37.000Z</time>
      </trkpt>
      <trkpt lat="43.93403" lon="7.42">
        <ele>1129</ele>
        <time>2022-04-09T10:05:39.000Z</time>
      </trkpt>
      <trkpt lat="43.93404" lon="7.42003">
        <ele>1128.1999511719</ele>
        <time>2022-04-09T10:05:40.000Z</time>
      </trkpt>
      <trkpt lat="43.93405" lon="7.42004">
        <ele>1127.8000488281</ele>
        <time>2022-04-09T10:05:41.000Z</time>
      </trkpt>
      <trkpt lat="43.93406" lon="7.41998">
        <ele>1126.1999511719</ele>
        <time>2022-04-09T10:05:43.000Z</time>
      </trkpt>
      <trkpt lat="43.93405" lon="7.41987">
        <ele>1124.5999755859</ele>
        <time>2022-04-09T10:05:45.000Z</time>
      </trkpt>
      <trkpt lat="43.93403" lon="7.41982">
        <ele>1124.1999511719</ele>
        <time>2022-04-09T10:05:46.000Z</time>
      </trkpt>
      <trkpt lat="43.93401" lon="7.41978">
        <ele>1123.1999511719</ele>
        <time>2022-04-09T10:05:47.000Z</time>
      </trkpt>
      <trkpt lat="43.93397" lon="7.41967">
        <ele>1122.1999511719</ele>
        <time>2022-04-09T10:05:49.000Z</time>
      </trkpt>
      <trkpt lat="43.93394" lon="7.41961">
        <ele>1121</ele>
        <time>2022-04-09T10:05:50.000Z</time>
      </trkpt>
      <trkpt lat="43.93391" lon="7.41954">
        <ele>1119.5999755859</ele>
        <time>2022-04-09T10:05:51.000Z</time>
      </trkpt>
      <trkpt lat="43.9339" lon="7.41948">
        <ele>1118.4000244141</ele>
        <time>2022-04-09T10:05:52.000Z</time>
      </trkpt>
      <trkpt lat="43.93388" lon="7.41943">
        <ele>1117</ele>
        <time>2022-04-09T10:05:53.000Z</time>
      </trkpt>
      <trkpt lat="43.93386" lon="7.41939">
        <ele>1115.5999755859</ele>
        <time>2022-04-09T10:05:54.000Z</time>
      </trkpt>
      <trkpt lat="43.93385" lon="7.41935">
        <ele>1114.4000244141</ele>
        <time>2022-04-09T10:05:55.000Z</time>
      </trkpt>
      <trkpt lat="43.93384" lon="7.41931">
        <ele>1113.1999511719</ele>
        <time>2022-04-09T10:05:56.000Z</time>
      </trkpt>
      <trkpt lat="43.93383" lon="7.41927">
        <ele>1111.8000488281</ele>
        <time>2022-04-09T10:05:57.000Z</time>
      </trkpt>
      <trkpt lat="43.93381" lon="7.41923">
        <ele>1110.5999755859</ele>
        <time>2022-04-09T10:05:58.000Z</time>
      </trkpt>
      <trkpt lat="43.93377" lon="7.41914">
        <ele>1108.5999755859</ele>
        <time>2022-04-09T10:06:00.000Z</time>
      </trkpt>
      <trkpt lat="43.93375" lon="7.4191">
        <ele>1107.4000244141</ele>
        <time>2022-04-09T10:06:01.000Z</time>
      </trkpt>
      <trkpt lat="43.93374" lon="7.41904">
        <ele>1105.5999755859</ele>
        <time>2022-04-09T10:06:03.000Z</time>
      </trkpt>
      <trkpt lat="43.93376" lon="7.41903">
        <ele>1104.1999511719</ele>
        <time>2022-04-09T10:06:04.000Z</time>
      </trkpt>
      <trkpt lat="43.93378" lon="7.41905">
        <ele>1102.8000488281</ele>
        <time>2022-04-09T10:06:06.000Z</time>
      </trkpt>
      <trkpt lat="43.93378" lon="7.41904">
        <ele>1101.8000488281</ele>
        <time>2022-04-09T10:06:08.000Z</time>
      </trkpt>
      <trkpt lat="43.93377" lon="7.41902">
        <ele>1101.1999511719</ele>
        <time>2022-04-09T10:06:09.000Z</time>
      </trkpt>
      <trkpt lat="43.93376" lon="7.41898">
        <ele>1101</ele>
        <time>2022-04-09T10:06:10.000Z</time>
      </trkpt>
      <trkpt lat="43.93375" lon="7.41893">
        <ele>1100.4000244141</ele>
        <time>2022-04-09T10:06:11.000Z</time>
      </trkpt>
      <trkpt lat="43.93367" lon="7.41886">
        <ele>1098.5999755859</ele>
        <time>2022-04-09T10:06:14.000Z</time>
      </trkpt>
      <trkpt lat="43.93369" lon="7.41879">
        <ele>1096.5999755859</ele>
        <time>2022-04-09T10:06:16.000Z</time>
      </trkpt>
      <trkpt lat="43.93372" lon="7.41879">
        <ele>1095.8000488281</ele>
        <time>2022-04-09T10:06:17.000Z</time>
      </trkpt>
      <trkpt lat="43.93376" lon="7.41879">
        <ele>1095.1999511719</ele>
        <time>2022-04-09T10:06:18.000Z</time>
      </trkpt>
      <trkpt lat="43.93383" lon="7.41881">
        <ele>1093.8000488281</ele>
        <time>2022-04-09T10:06:20.000Z</time>
      </trkpt>
      <trkpt lat="43.93386" lon="7.41881">
        <ele>1093</ele>
        <time>2022-04-09T10:06:21.000Z</time>
      </trkpt>
      <trkpt lat="43.93389" lon="7.41883">
        <ele>1091.8000488281</ele>
        <time>2022-04-09T10:06:22.000Z</time>
      </trkpt>
      <trkpt lat="43.93391" lon="7.41883">
        <ele>1090</ele>
        <time>2022-04-09T10:06:24.000Z</time>
      </trkpt>
      <trkpt lat="43.9339" lon="7.41883">
        <ele>1089.1999511719</ele>
        <time>2022-04-09T10:06:25.000Z</time>
      </trkpt>
      <trkpt lat="43.9339" lon="7.41881">
        <ele>1088.5999755859</ele>
        <time>2022-04-09T10:06:26.000Z</time>
      </trkpt>
      <trkpt lat="43.93388" lon="7.41878">
        <ele>1087.1999511719</ele>
        <time>2022-04-09T10:06:28.000Z</time>
      </trkpt>
      <trkpt lat="43.93387" lon="7.41874">
        <ele>1086.8000488281</ele>
        <time>2022-04-09T10:06:29.000Z</time>
      </trkpt>
      <trkpt lat="43.93386" lon="7.4187">
        <ele>1086.1999511719</ele>
        <time>2022-04-09T10:06:30.000Z</time>
      </trkpt>
      <trkpt lat="43.9338" lon="7.41859">
        <ele>1084.8000488281</ele>
        <time>2022-04-09T10:06:33.000Z</time>
      </trkpt>
      <trkpt lat="43.93377" lon="7.41856">
        <ele>1083.8000488281</ele>
        <time>2022-04-09T10:06:34.000Z</time>
      </trkpt>
      <trkpt lat="43.93375" lon="7.41854">
        <ele>1083.1999511719</ele>
        <time>2022-04-09T10:06:35.000Z</time>
      </trkpt>
      <trkpt lat="43.93373" lon="7.41851">
        <ele>1082.4000244141</ele>
        <time>2022-04-09T10:06:36.000Z</time>
      </trkpt>
      <trkpt lat="43.93367" lon="7.41848">
        <ele>1080.8000488281</ele>
        <time>2022-04-09T10:06:38.000Z</time>
      </trkpt>
      <trkpt lat="43.93363" lon="7.41844">
        <ele>1079.4000244141</ele>
        <time>2022-04-09T10:06:40.000Z</time>
      </trkpt>
      <trkpt lat="43.93364" lon="7.41843">
        <ele>1078.5999755859</ele>
        <time>2022-04-09T10:06:41.000Z</time>
      </trkpt>
      <trkpt lat="43.93365" lon="7.41843">
        <ele>1077.8000488281</ele>
        <time>2022-04-09T10:06:42.000Z</time>
      </trkpt>
      <trkpt lat="43.93367" lon="7.41843">
        <ele>1077.1999511719</ele>
        <time>2022-04-09T10:06:43.000Z</time>
      </trkpt>
      <trkpt lat="43.9337" lon="7.41842">
        <ele>1076.1999511719</ele>
        <time>2022-04-09T10:06:45.000Z</time>
      </trkpt>
      <trkpt lat="43.93375" lon="7.41842">
        <ele>1075.1999511719</ele>
        <time>2022-04-09T10:06:47.000Z</time>
      </trkpt>
      <trkpt lat="43.93375" lon="7.41842">
        <ele>1074.8000488281</ele>
        <time>2022-04-09T10:06:48.000Z</time>
      </trkpt>
      <trkpt lat="43.93376" lon="7.41842">
        <ele>1074</ele>
        <time>2022-04-09T10:06:50.000Z</time>
      </trkpt>
      <trkpt lat="43.93378" lon="7.41841">
        <ele>1073.1999511719</ele>
        <time>2022-04-09T10:06:54.000Z</time>
      </trkpt>
      <trkpt lat="43.93379" lon="7.41841">
        <ele>1072.8000488281</ele>
        <time>2022-04-09T10:06:57.000Z</time>
      </trkpt>
      <trkpt lat="43.93378" lon="7.4184">
        <ele>1072.5999755859</ele>
        <time>2022-04-09T10:06:59.000Z</time>
      </trkpt>
      <trkpt lat="43.93374" lon="7.41836">
        <ele>1072</ele>
        <time>2022-04-09T10:07:04.000Z</time>
      </trkpt>
      <trkpt lat="43.93375" lon="7.41836">
        <ele>1071.8000488281</ele>
        <time>2022-04-09T10:07:05.000Z</time>
      </trkpt>
      <trkpt lat="43.93375" lon="7.41836">
        <ele>1071</ele>
        <time>2022-04-09T10:07:09.000Z</time>
      </trkpt>
      <trkpt lat="43.93382" lon="7.41834">
        <ele>1071</ele>
        <time>2022-04-09T10:07:13.000Z</time>
      </trkpt>
      <trkpt lat="43.93387" lon="7.41835">
        <ele>1070.4000244141</ele>
        <time>2022-04-09T10:07:15.000Z</time>
      </trkpt>
      <trkpt lat="43.93387" lon="7.41834">
        <ele>1070.1999511719</ele>
        <time>2022-04-09T10:07:16.000Z</time>
      </trkpt>
      <trkpt lat="43.93386" lon="7.41833">
        <ele>1069.5999755859</ele>
        <time>2022-04-09T10:07:17.000Z</time>
      </trkpt>
      <trkpt lat="43.93386" lon="7.41833">
        <ele>1069.1999511719</ele>
        <time>2022-04-09T10:07:18.000Z</time>
      </trkpt>
      <trkpt lat="43.93384" lon="7.41832">
        <ele>1068</ele>
        <time>2022-04-09T10:07:21.000Z</time>
      </trkpt>
      <trkpt lat="43.93383" lon="7.4183">
        <ele>1067.5999755859</ele>
        <time>2022-04-09T10:07:22.000Z</time>
      </trkpt>
      <trkpt lat="43.93382" lon="7.41829">
        <ele>1067</ele>
        <time>2022-04-09T10:07:24.000Z</time>
      </trkpt>
      <trkpt lat="43.93377" lon="7.41823">
        <ele>1066.1999511719</ele>
        <time>2022-04-09T10:07:27.000Z</time>
      </trkpt>
      <trkpt lat="43.93372" lon="7.4182">
        <ele>1065.5999755859</ele>
        <time>2022-04-09T10:07:29.000Z</time>
      </trkpt>
      <trkpt lat="43.93366" lon="7.41818">
        <ele>1064.4000244141</ele>
        <time>2022-04-09T10:07:31.000Z</time>
      </trkpt>
      <trkpt lat="43.93362" lon="7.41816">
        <ele>1063.1999511719</ele>
        <time>2022-04-09T10:07:33.000Z</time>
      </trkpt>
      <trkpt lat="43.93358" lon="7.41812">
        <ele>1062</ele>
        <time>2022-04-09T10:07:35.000Z</time>
      </trkpt>
      <trkpt lat="43.93355" lon="7.41809">
        <ele>1061.5999755859</ele>
        <time>2022-04-09T10:07:36.000Z</time>
      </trkpt>
      <trkpt lat="43.93352" lon="7.41804">
        <ele>1060.5999755859</ele>
        <time>2022-04-09T10:07:38.000Z</time>
      </trkpt>
      <trkpt lat="43.9335" lon="7.41802">
        <ele>1059.4000244141</ele>
        <time>2022-04-09T10:07:39.000Z</time>
      </trkpt>
      <trkpt lat="43.93347" lon="7.41796">
        <ele>1057.1999511719</ele>
        <time>2022-04-09T10:07:41.000Z</time>
      </trkpt>
      <trkpt lat="43.93344" lon="7.41795">
        <ele>1055.8000488281</ele>
        <time>2022-04-09T10:07:42.000Z</time>
      </trkpt>
      <trkpt lat="43.93343" lon="7.41793">
        <ele>1054.5999755859</ele>
        <time>2022-04-09T10:07:43.000Z</time>
      </trkpt>
      <trkpt lat="43.93346" lon="7.41791">
        <ele>1053.1999511719</ele>
        <time>2022-04-09T10:07:45.000Z</time>
      </trkpt>
      <trkpt lat="43.93348" lon="7.41792">
        <ele>1052</ele>
        <time>2022-04-09T10:07:48.000Z</time>
      </trkpt>
      <trkpt lat="43.93348" lon="7.41792">
        <ele>1051.1999511719</ele>
        <time>2022-04-09T10:07:50.000Z</time>
      </trkpt>
      <trkpt lat="43.93348" lon="7.41792">
        <ele>1050.8000488281</ele>
        <time>2022-04-09T10:07:52.000Z</time>
      </trkpt>
      <trkpt lat="43.93349" lon="7.4179">
        <ele>1051</ele>
        <time>2022-04-09T10:08:14.000Z</time>
      </trkpt>
      <trkpt lat="43.93349" lon="7.4179">
        <ele>1051</ele>
        <time>2022-04-09T10:08:28.000Z</time>
      </trkpt>
      <trkpt lat="43.93355" lon="7.41789">
        <ele>1050.5999755859</ele>
        <time>2022-04-09T10:08:33.000Z</time>
      </trkpt>
      <trkpt lat="43.93358" lon="7.41787">
        <ele>1049.5999755859</ele>
        <time>2022-04-09T10:08:36.000Z</time>
      </trkpt>
      <trkpt lat="43.93354" lon="7.41786">
        <ele>1048.5999755859</ele>
        <time>2022-04-09T10:08:38.000Z</time>
      </trkpt>
      <trkpt lat="43.93352" lon="7.41782">
        <ele>1047.5999755859</ele>
        <time>2022-04-09T10:08:40.000Z</time>
      </trkpt>
      <trkpt lat="43.93354" lon="7.41781">
        <ele>1046.4000244141</ele>
        <time>2022-04-09T10:08:42.000Z</time>
      </trkpt>
      <trkpt lat="43.93355" lon="7.41782">
        <ele>1045.1999511719</ele>
        <time>2022-04-09T10:08:46.000Z</time>
      </trkpt>
      <trkpt lat="43.93355" lon="7.41781">
        <ele>1045.1999511719</ele>
        <time>2022-04-09T10:08:47.000Z</time>
      </trkpt>
      <trkpt lat="43.93354" lon="7.41779">
        <ele>1045</ele>
        <time>2022-04-09T10:08:50.000Z</time>
      </trkpt>
      <trkpt lat="43.93352" lon="7.41777">
        <ele>1044.8000488281</ele>
        <time>2022-04-09T10:08:52.000Z</time>
      </trkpt>
      <trkpt lat="43.93347" lon="7.41775">
        <ele>1044.1999511719</ele>
        <time>2022-04-09T10:08:54.000Z</time>
      </trkpt>
      <trkpt lat="43.93343" lon="7.41772">
        <ele>1043.4000244141</ele>
        <time>2022-04-09T10:08:56.000Z</time>
      </trkpt>
      <trkpt lat="43.93344" lon="7.4177">
        <ele>1043</ele>
        <time>2022-04-09T10:08:57.000Z</time>
      </trkpt>
      <trkpt lat="43.93346" lon="7.4177">
        <ele>1042.1999511719</ele>
        <time>2022-04-09T10:08:59.000Z</time>
      </trkpt>
      <trkpt lat="43.93345" lon="7.41768">
        <ele>1041.8000488281</ele>
        <time>2022-04-09T10:09:00.000Z</time>
      </trkpt>
      <trkpt lat="43.93341" lon="7.41761">
        <ele>1040.4000244141</ele>
        <time>2022-04-09T10:09:03.000Z</time>
      </trkpt>
      <trkpt lat="43.93338" lon="7.4176">
        <ele>1038.8000488281</ele>
        <time>2022-04-09T10:09:05.000Z</time>
      </trkpt>
      <trkpt lat="43.93337" lon="7.41757">
        <ele>1038</ele>
        <time>2022-04-09T10:09:06.000Z</time>
      </trkpt>
      <trkpt lat="43.93339" lon="7.41755">
        <ele>1037.1999511719</ele>
        <time>2022-04-09T10:09:07.000Z</time>
      </trkpt>
      <trkpt lat="43.93343" lon="7.41755">
        <ele>1036.1999511719</ele>
        <time>2022-04-09T10:09:09.000Z</time>
      </trkpt>
      <trkpt lat="43.93345" lon="7.41752">
        <ele>1035</ele>
        <time>2022-04-09T10:09:12.000Z</time>
      </trkpt>
      <trkpt lat="43.93344" lon="7.41752">
        <ele>1034.5999755859</ele>
        <time>2022-04-09T10:09:13.000Z</time>
      </trkpt>
      <trkpt lat="43.93342" lon="7.4175">
        <ele>1034</ele>
        <time>2022-04-09T10:09:14.000Z</time>
      </trkpt>
      <trkpt lat="43.93341" lon="7.41743">
        <ele>1032.8000488281</ele>
        <time>2022-04-09T10:09:17.000Z</time>
      </trkpt>
      <trkpt lat="43.93343" lon="7.41742">
        <ele>1031.4000244141</ele>
        <time>2022-04-09T10:09:19.000Z</time>
      </trkpt>
      <trkpt lat="43.93343" lon="7.41739">
        <ele>1030</ele>
        <time>2022-04-09T10:09:21.000Z</time>
      </trkpt>
      <trkpt lat="43.93339" lon="7.41736">
        <ele>1029</ele>
        <time>2022-04-09T10:09:23.000Z</time>
      </trkpt>
      <trkpt lat="43.93335" lon="7.4173">
        <ele>1028</ele>
        <time>2022-04-09T10:09:25.000Z</time>
      </trkpt>
      <trkpt lat="43.93333" lon="7.41729">
        <ele>1027.1999511719</ele>
        <time>2022-04-09T10:09:26.000Z</time>
      </trkpt>
      <trkpt lat="43.93333" lon="7.41726">
        <ele>1026.5999755859</ele>
        <time>2022-04-09T10:09:27.000Z</time>
      </trkpt>
      <trkpt lat="43.93335" lon="7.41725">
        <ele>1025.8000488281</ele>
        <time>2022-04-09T10:09:28.000Z</time>
      </trkpt>
      <trkpt lat="43.9334" lon="7.41725">
        <ele>1024.4000244141</ele>
        <time>2022-04-09T10:09:30.000Z</time>
      </trkpt>
      <trkpt lat="43.93343" lon="7.41725">
        <ele>1024</ele>
        <time>2022-04-09T10:09:31.000Z</time>
      </trkpt>
      <trkpt lat="43.93345" lon="7.41726">
        <ele>1023.5999755859</ele>
        <time>2022-04-09T10:09:32.000Z</time>
      </trkpt>
      <trkpt lat="43.93347" lon="7.41726">
        <ele>1023</ele>
        <time>2022-04-09T10:09:33.000Z</time>
      </trkpt>
      <trkpt lat="43.9335" lon="7.41726">
        <ele>1021.5999755859</ele>
        <time>2022-04-09T10:09:35.000Z</time>
      </trkpt>
      <trkpt lat="43.9335" lon="7.41725">
        <ele>1020.799987793</ele>
        <time>2022-04-09T10:09:36.000Z</time>
      </trkpt>
      <trkpt lat="43.93349" lon="7.41723">
        <ele>1019.799987793</ele>
        <time>2022-04-09T10:09:37.000Z</time>
      </trkpt>
      <trkpt lat="43.93344" lon="7.41717">
        <ele>1018.4000244141</ele>
        <time>2022-04-09T10:09:39.000Z</time>
      </trkpt>
      <trkpt lat="43.93341" lon="7.41709">
        <ele>1017.4000244141</ele>
        <time>2022-04-09T10:09:41.000Z</time>
      </trkpt>
      <trkpt lat="43.93339" lon="7.41703">
        <ele>1016</ele>
        <time>2022-04-09T10:09:43.000Z</time>
      </trkpt>
      <trkpt lat="43.93337" lon="7.41699">
        <ele>1015</ele>
        <time>2022-04-09T10:09:44.000Z</time>
      </trkpt>
      <trkpt lat="43.93339" lon="7.41698">
        <ele>1014.200012207</ele>
        <time>2022-04-09T10:09:45.000Z</time>
      </trkpt>
      <trkpt lat="43.9334" lon="7.41699">
        <ele>1013.200012207</ele>
        <time>2022-04-09T10:09:46.000Z</time>
      </trkpt>
      <trkpt lat="43.93341" lon="7.417">
        <ele>1012.200012207</ele>
        <time>2022-04-09T10:09:47.000Z</time>
      </trkpt>
      <trkpt lat="43.93342" lon="7.41701">
        <ele>1011.5999755859</ele>
        <time>2022-04-09T10:09:48.000Z</time>
      </trkpt>
      <trkpt lat="43.93345" lon="7.41701">
        <ele>1010.4000244141</ele>
        <time>2022-04-09T10:09:50.000Z</time>
      </trkpt>
      <trkpt lat="43.93345" lon="7.41699">
        <ele>1010.200012207</ele>
        <time>2022-04-09T10:09:51.000Z</time>
      </trkpt>
      <trkpt lat="43.93343" lon="7.41696">
        <ele>1009.200012207</ele>
        <time>2022-04-09T10:09:53.000Z</time>
      </trkpt>
      <trkpt lat="43.93339" lon="7.41693">
        <ele>1008.4000244141</ele>
        <time>2022-04-09T10:09:55.000Z</time>
      </trkpt>
      <trkpt lat="43.93337" lon="7.4169">
        <ele>1008.200012207</ele>
        <time>2022-04-09T10:09:56.000Z</time>
      </trkpt>
      <trkpt lat="43.93329" lon="7.41684">
        <ele>1007</ele>
        <time>2022-04-09T10:09:59.000Z</time>
      </trkpt>
      <trkpt lat="43.93327" lon="7.41684">
        <ele>1006.799987793</ele>
        <time>2022-04-09T10:10:00.000Z</time>
      </trkpt>
      <trkpt lat="43.93325" lon="7.4168">
        <ele>1005.4000244141</ele>
        <time>2022-04-09T10:10:02.000Z</time>
      </trkpt>
      <trkpt lat="43.93327" lon="7.41679">
        <ele>1005</ele>
        <time>2022-04-09T10:10:03.000Z</time>
      </trkpt>
      <trkpt lat="43.93328" lon="7.41679">
        <ele>1004.4000244141</ele>
        <time>2022-04-09T10:10:04.000Z</time>
      </trkpt>
      <trkpt lat="43.9333" lon="7.41678">
        <ele>1003.4000244141</ele>
        <time>2022-04-09T10:10:06.000Z</time>
      </trkpt>
      <trkpt lat="43.93332" lon="7.41677">
        <ele>1003</ele>
        <time>2022-04-09T10:10:07.000Z</time>
      </trkpt>
      <trkpt lat="43.93341" lon="7.41677">
        <ele>1001.799987793</ele>
        <time>2022-04-09T10:10:10.000Z</time>
      </trkpt>
      <trkpt lat="43.93344" lon="7.41678">
        <ele>1000.4000244141</ele>
        <time>2022-04-09T10:10:12.000Z</time>
      </trkpt>
      <trkpt lat="43.93344" lon="7.41677">
        <ele>999.79998779297</ele>
        <time>2022-04-09T10:10:13.000Z</time>
      </trkpt>
      <trkpt lat="43.93343" lon="7.41676">
        <ele>999.20001220703</ele>
        <time>2022-04-09T10:10:14.000Z</time>
      </trkpt>
      <trkpt lat="43.93339" lon="7.41671">
        <ele>997.79998779297</ele>
        <time>2022-04-09T10:10:17.000Z</time>
      </trkpt>
      <trkpt lat="43.93337" lon="7.41669">
        <ele>997.59997558594</ele>
        <time>2022-04-09T10:10:18.000Z</time>
      </trkpt>
      <trkpt lat="43.93332" lon="7.41664">
        <ele>996.79998779297</ele>
        <time>2022-04-09T10:10:20.000Z</time>
      </trkpt>
      <trkpt lat="43.93327" lon="7.4166">
        <ele>995.40002441406</ele>
        <time>2022-04-09T10:10:22.000Z</time>
      </trkpt>
      <trkpt lat="43.9332" lon="7.41655">
        <ele>994.40002441406</ele>
        <time>2022-04-09T10:10:24.000Z</time>
      </trkpt>
      <trkpt lat="43.93315" lon="7.41653">
        <ele>993.20001220703</ele>
        <time>2022-04-09T10:10:26.000Z</time>
      </trkpt>
      <trkpt lat="43.93314" lon="7.41653">
        <ele>992.59997558594</ele>
        <time>2022-04-09T10:10:27.000Z</time>
      </trkpt>
      <trkpt lat="43.93312" lon="7.41653">
        <ele>991.79998779297</ele>
        <time>2022-04-09T10:10:28.000Z</time>
      </trkpt>
      <trkpt lat="43.93311" lon="7.41651">
        <ele>991</ele>
        <time>2022-04-09T10:10:29.000Z</time>
      </trkpt>
      <trkpt lat="43.93311" lon="7.41649">
        <ele>990.40002441406</ele>
        <time>2022-04-09T10:10:30.000Z</time>
      </trkpt>
      <trkpt lat="43.93312" lon="7.41646">
        <ele>990</ele>
        <time>2022-04-09T10:10:31.000Z</time>
      </trkpt>
      <trkpt lat="43.93316" lon="7.41643">
        <ele>989.40002441406</ele>
        <time>2022-04-09T10:10:33.000Z</time>
      </trkpt>
      <trkpt lat="43.93321" lon="7.41642">
        <ele>987.79998779297</ele>
        <time>2022-04-09T10:10:35.000Z</time>
      </trkpt>
      <trkpt lat="43.93321" lon="7.4164">
        <ele>986.20001220703</ele>
        <time>2022-04-09T10:10:37.000Z</time>
      </trkpt>
      <trkpt lat="43.9332" lon="7.41639">
        <ele>985.40002441406</ele>
        <time>2022-04-09T10:10:38.000Z</time>
      </trkpt>
      <trkpt lat="43.93318" lon="7.41638">
        <ele>984.79998779297</ele>
        <time>2022-04-09T10:10:39.000Z</time>
      </trkpt>
      <trkpt lat="43.93308" lon="7.41632">
        <ele>983.40002441406</ele>
        <time>2022-04-09T10:10:42.000Z</time>
      </trkpt>
      <trkpt lat="43.93304" lon="7.41633">
        <ele>981.79998779297</ele>
        <time>2022-04-09T10:10:44.000Z</time>
      </trkpt>
      <trkpt lat="43.93301" lon="7.41635">
        <ele>980.59997558594</ele>
        <time>2022-04-09T10:10:45.000Z</time>
      </trkpt>
      <trkpt lat="43.93299" lon="7.41637">
        <ele>979.79998779297</ele>
        <time>2022-04-09T10:10:46.000Z</time>
      </trkpt>
      <trkpt lat="43.93297" lon="7.41637">
        <ele>979</ele>
        <time>2022-04-09T10:10:47.000Z</time>
      </trkpt>
      <trkpt lat="43.93297" lon="7.41631">
        <ele>977.79998779297</ele>
        <time>2022-04-09T10:10:49.000Z</time>
      </trkpt>
      <trkpt lat="43.93298" lon="7.41614">
        <ele>976.79998779297</ele>
        <time>2022-04-09T10:10:52.000Z</time>
      </trkpt>
      <trkpt lat="43.93302" lon="7.41607">
        <ele>975</ele>
        <time>2022-04-09T10:10:54.000Z</time>
      </trkpt>
      <trkpt lat="43.93304" lon="7.41606">
        <ele>973.59997558594</ele>
        <time>2022-04-09T10:10:55.000Z</time>
      </trkpt>
      <trkpt lat="43.93303" lon="7.41606">
        <ele>972.40002441406</ele>
        <time>2022-04-09T10:10:56.000Z</time>
      </trkpt>
      <trkpt lat="43.93303" lon="7.41604">
        <ele>971.40002441406</ele>
        <time>2022-04-09T10:10:57.000Z</time>
      </trkpt>
      <trkpt lat="43.93303" lon="7.41605">
        <ele>970.79998779297</ele>
        <time>2022-04-09T10:10:58.000Z</time>
      </trkpt>
      <trkpt lat="43.93295" lon="7.41603">
        <ele>970.20001220703</ele>
        <time>2022-04-09T10:11:02.000Z</time>
      </trkpt>
      <trkpt lat="43.93293" lon="7.41605">
        <ele>969.79998779297</ele>
        <time>2022-04-09T10:11:03.000Z</time>
      </trkpt>
      <trkpt lat="43.93291" lon="7.4161">
        <ele>968.79998779297</ele>
        <time>2022-04-09T10:11:05.000Z</time>
      </trkpt>
      <trkpt lat="43.93289" lon="7.4161">
        <ele>968</ele>
        <time>2022-04-09T10:11:06.000Z</time>
      </trkpt>
      <trkpt lat="43.93288" lon="7.41609">
        <ele>967.59997558594</ele>
        <time>2022-04-09T10:11:07.000Z</time>
      </trkpt>
      <trkpt lat="43.93288" lon="7.41604">
        <ele>966.40002441406</ele>
        <time>2022-04-09T10:11:09.000Z</time>
      </trkpt>
      <trkpt lat="43.93289" lon="7.41587">
        <ele>965</ele>
        <time>2022-04-09T10:11:13.000Z</time>
      </trkpt>
      <trkpt lat="43.93292" lon="7.4158">
        <ele>963.79998779297</ele>
        <time>2022-04-09T10:11:15.000Z</time>
      </trkpt>
      <trkpt lat="43.93296" lon="7.41577">
        <ele>962.59997558594</ele>
        <time>2022-04-09T10:11:17.000Z</time>
      </trkpt>
      <trkpt lat="43.93295" lon="7.41576">
        <ele>962</ele>
        <time>2022-04-09T10:11:18.000Z</time>
      </trkpt>
      <trkpt lat="43.93295" lon="7.41575">
        <ele>961.20001220703</ele>
        <time>2022-04-09T10:11:19.000Z</time>
      </trkpt>
      <trkpt lat="43.93293" lon="7.41573">
        <ele>960.40002441406</ele>
        <time>2022-04-09T10:11:20.000Z</time>
      </trkpt>
      <trkpt lat="43.9329" lon="7.41571">
        <ele>959.59997558594</ele>
        <time>2022-04-09T10:11:21.000Z</time>
      </trkpt>
      <trkpt lat="43.93284" lon="7.41572">
        <ele>958.40002441406</ele>
        <time>2022-04-09T10:11:23.000Z</time>
      </trkpt>
      <trkpt lat="43.93284" lon="7.41566">
        <ele>957.79998779297</ele>
        <time>2022-04-09T10:11:25.000Z</time>
      </trkpt>
      <trkpt lat="43.93286" lon="7.41565">
        <ele>957.40002441406</ele>
        <time>2022-04-09T10:11:26.000Z</time>
      </trkpt>
      <trkpt lat="43.93291" lon="7.41566">
        <ele>956.59997558594</ele>
        <time>2022-04-09T10:11:28.000Z</time>
      </trkpt>
      <trkpt lat="43.93293" lon="7.41566">
        <ele>956</ele>
        <time>2022-04-09T10:11:29.000Z</time>
      </trkpt>
      <trkpt lat="43.93293" lon="7.41565">
        <ele>955.20001220703</ele>
        <time>2022-04-09T10:11:32.000Z</time>
      </trkpt>
      <trkpt lat="43.93292" lon="7.41564">
        <ele>954.79998779297</ele>
        <time>2022-04-09T10:11:33.000Z</time>
      </trkpt>
      <trkpt lat="43.93291" lon="7.41563">
        <ele>954.59997558594</ele>
        <time>2022-04-09T10:11:34.000Z</time>
      </trkpt>
      <trkpt lat="43.93286" lon="7.41558">
        <ele>954.40002441406</ele>
        <time>2022-04-09T10:11:36.000Z</time>
      </trkpt>
      <trkpt lat="43.93279" lon="7.41559">
        <ele>953.59997558594</ele>
        <time>2022-04-09T10:11:39.000Z</time>
      </trkpt>
      <trkpt lat="43.93277" lon="7.41558">
        <ele>953</ele>
        <time>2022-04-09T10:11:40.000Z</time>
      </trkpt>
      <trkpt lat="43.93277" lon="7.41555">
        <ele>952.40002441406</ele>
        <time>2022-04-09T10:11:41.000Z</time>
      </trkpt>
      <trkpt lat="43.9328" lon="7.41553">
        <ele>951.79998779297</ele>
        <time>2022-04-09T10:11:43.000Z</time>
      </trkpt>
      <trkpt lat="43.93279" lon="7.4155">
        <ele>951.40002441406</ele>
        <time>2022-04-09T10:11:46.000Z</time>
      </trkpt>
      <trkpt lat="43.93279" lon="7.41547">
        <ele>951.20001220703</ele>
        <time>2022-04-09T10:11:47.000Z</time>
      </trkpt>
      <trkpt lat="43.93277" lon="7.41547">
        <ele>950</ele>
        <time>2022-04-09T10:11:50.000Z</time>
      </trkpt>
      <trkpt lat="43.93277" lon="7.41545">
        <ele>949.59997558594</ele>
        <time>2022-04-09T10:11:51.000Z</time>
      </trkpt>
      <trkpt lat="43.93275" lon="7.41541">
        <ele>949</ele>
        <time>2022-04-09T10:11:53.000Z</time>
      </trkpt>
      <trkpt lat="43.93272" lon="7.41537">
        <ele>948.20001220703</ele>
        <time>2022-04-09T10:11:55.000Z</time>
      </trkpt>
      <trkpt lat="43.93271" lon="7.41536">
        <ele>947.79998779297</ele>
        <time>2022-04-09T10:11:56.000Z</time>
      </trkpt>
      <trkpt lat="43.93268" lon="7.41532">
        <ele>946.59997558594</ele>
        <time>2022-04-09T10:11:58.000Z</time>
      </trkpt>
      <trkpt lat="43.93265" lon="7.41528">
        <ele>945.59997558594</ele>
        <time>2022-04-09T10:12:00.000Z</time>
      </trkpt>
      <trkpt lat="43.93264" lon="7.41528">
        <ele>945</ele>
        <time>2022-04-09T10:12:01.000Z</time>
      </trkpt>
      <trkpt lat="43.93262" lon="7.41528">
        <ele>944.20001220703</ele>
        <time>2022-04-09T10:12:02.000Z</time>
      </trkpt>
      <trkpt lat="43.9326" lon="7.41526">
        <ele>942.79998779297</ele>
        <time>2022-04-09T10:12:04.000Z</time>
      </trkpt>
      <trkpt lat="43.93258" lon="7.41524">
        <ele>942</ele>
        <time>2022-04-09T10:12:05.000Z</time>
      </trkpt>
      <trkpt lat="43.93257" lon="7.41523">
        <ele>941.40002441406</ele>
        <time>2022-04-09T10:12:06.000Z</time>
      </trkpt>
      <trkpt lat="43.93254" lon="7.41517">
        <ele>940.40002441406</ele>
        <time>2022-04-09T10:12:08.000Z</time>
      </trkpt>
      <trkpt lat="43.93253" lon="7.41512">
        <ele>939.59997558594</ele>
        <time>2022-04-09T10:12:09.000Z</time>
      </trkpt>
      <trkpt lat="43.93252" lon="7.41508">
        <ele>939</ele>
        <time>2022-04-09T10:12:10.000Z</time>
      </trkpt>
      <trkpt lat="43.93253" lon="7.41498">
        <ele>937.59997558594</ele>
        <time>2022-04-09T10:12:12.000Z</time>
      </trkpt>
      <trkpt lat="43.93257" lon="7.41493">
        <ele>936.40002441406</ele>
        <time>2022-04-09T10:12:14.000Z</time>
      </trkpt>
      <trkpt lat="43.93263" lon="7.41494">
        <ele>935.40002441406</ele>
        <time>2022-04-09T10:12:16.000Z</time>
      </trkpt>
      <trkpt lat="43.93267" lon="7.41493">
        <ele>935</ele>
        <time>2022-04-09T10:12:17.000Z</time>
      </trkpt>
      <trkpt lat="43.93273" lon="7.41491">
        <ele>934.20001220703</ele>
        <time>2022-04-09T10:12:19.000Z</time>
      </trkpt>
      <trkpt lat="43.93277" lon="7.41494">
        <ele>933</ele>
        <time>2022-04-09T10:12:21.000Z</time>
      </trkpt>
      <trkpt lat="43.93281" lon="7.41493">
        <ele>931.40002441406</ele>
        <time>2022-04-09T10:12:23.000Z</time>
      </trkpt>
      <trkpt lat="43.93284" lon="7.41492">
        <ele>930.59997558594</ele>
        <time>2022-04-09T10:12:24.000Z</time>
      </trkpt>
      <trkpt lat="43.93287" lon="7.41494">
        <ele>930</ele>
        <time>2022-04-09T10:12:25.000Z</time>
      </trkpt>
      <trkpt lat="43.93295" lon="7.41495">
        <ele>928</ele>
        <time>2022-04-09T10:12:27.000Z</time>
      </trkpt>
      <trkpt lat="43.93304" lon="7.41498">
        <ele>926.20001220703</ele>
        <time>2022-04-09T10:12:29.000Z</time>
      </trkpt>
      <trkpt lat="43.93308" lon="7.415">
        <ele>925.40002441406</ele>
        <time>2022-04-09T10:12:30.000Z</time>
      </trkpt>
      <trkpt lat="43.93312" lon="7.41501">
        <ele>924.40002441406</ele>
        <time>2022-04-09T10:12:31.000Z</time>
      </trkpt>
      <trkpt lat="43.93315" lon="7.41501">
        <ele>923.40002441406</ele>
        <time>2022-04-09T10:12:32.000Z</time>
      </trkpt>
      <trkpt lat="43.93321" lon="7.41503">
        <ele>921.79998779297</ele>
        <time>2022-04-09T10:12:34.000Z</time>
      </trkpt>
      <trkpt lat="43.93324" lon="7.41503">
        <ele>920.59997558594</ele>
        <time>2022-04-09T10:12:35.000Z</time>
      </trkpt>
      <trkpt lat="43.93327" lon="7.41504">
        <ele>918.79998779297</ele>
        <time>2022-04-09T10:12:37.000Z</time>
      </trkpt>
      <trkpt lat="43.93326" lon="7.41503">
        <ele>918.20001220703</ele>
        <time>2022-04-09T10:12:38.000Z</time>
      </trkpt>
      <trkpt lat="43.93327" lon="7.41504">
        <ele>917.40002441406</ele>
        <time>2022-04-09T10:12:39.000Z</time>
      </trkpt>
      <trkpt lat="43.93327" lon="7.41503">
        <ele>916.40002441406</ele>
        <time>2022-04-09T10:12:41.000Z</time>
      </trkpt>
      <trkpt lat="43.93327" lon="7.41503">
        <ele>916</ele>
        <time>2022-04-09T10:12:49.000Z</time>
      </trkpt>
      <trkpt lat="43.9333" lon="7.41502">
        <ele>915.79998779297</ele>
        <time>2022-04-09T10:13:09.000Z</time>
      </trkpt>
      <trkpt lat="43.93341" lon="7.41502">
        <ele>915.59997558594</ele>
        <time>2022-04-09T10:13:13.000Z</time>
      </trkpt>
      <trkpt lat="43.93346" lon="7.41503">
        <ele>915.40002441406</ele>
        <time>2022-04-09T10:13:14.000Z</time>
      </trkpt>
      <trkpt lat="43.9335" lon="7.41504">
        <ele>914.79998779297</ele>
        <time>2022-04-09T10:13:15.000Z</time>
      </trkpt>
      <trkpt lat="43.93358" lon="7.41505">
        <ele>913.20001220703</ele>
        <time>2022-04-09T10:13:17.000Z</time>
      </trkpt>
      <trkpt lat="43.93365" lon="7.41505">
        <ele>911</ele>
        <time>2022-04-09T10:13:19.000Z</time>
      </trkpt>
      <trkpt lat="43.9337" lon="7.41507">
        <ele>910</ele>
        <time>2022-04-09T10:13:20.000Z</time>
      </trkpt>
      <trkpt lat="43.93375" lon="7.41508">
        <ele>909.20001220703</ele>
        <time>2022-04-09T10:13:21.000Z</time>
      </trkpt>
      <trkpt lat="43.93385" lon="7.4151">
        <ele>907.59997558594</ele>
        <time>2022-04-09T10:13:23.000Z</time>
      </trkpt>
      <trkpt lat="43.9339" lon="7.41513">
        <ele>906.59997558594</ele>
        <time>2022-04-09T10:13:24.000Z</time>
      </trkpt>
      <trkpt lat="43.93395" lon="7.41518">
        <ele>905.40002441406</ele>
        <time>2022-04-09T10:13:25.000Z</time>
      </trkpt>
      <trkpt lat="43.93405" lon="7.41526">
        <ele>903.40002441406</ele>
        <time>2022-04-09T10:13:27.000Z</time>
      </trkpt>
      <trkpt lat="43.9341" lon="7.41531">
        <ele>902.40002441406</ele>
        <time>2022-04-09T10:13:28.000Z</time>
      </trkpt>
      <trkpt lat="43.93416" lon="7.41535">
        <ele>901.40002441406</ele>
        <time>2022-04-09T10:13:29.000Z</time>
      </trkpt>
      <trkpt lat="43.93422" lon="7.41541">
        <ele>899.59997558594</ele>
        <time>2022-04-09T10:13:31.000Z</time>
      </trkpt>
      <trkpt lat="43.93426" lon="7.41545">
        <ele>898.59997558594</ele>
        <time>2022-04-09T10:13:32.000Z</time>
      </trkpt>
      <trkpt lat="43.93428" lon="7.41548">
        <ele>897.59997558594</ele>
        <time>2022-04-09T10:13:33.000Z</time>
      </trkpt>
      <trkpt lat="43.93431" lon="7.4155">
        <ele>896.20001220703</ele>
        <time>2022-04-09T10:13:35.000Z</time>
      </trkpt>
      <trkpt lat="43.93432" lon="7.41547">
        <ele>895</ele>
        <time>2022-04-09T10:13:37.000Z</time>
      </trkpt>
      <trkpt lat="43.93434" lon="7.41547">
        <ele>894</ele>
        <time>2022-04-09T10:13:39.000Z</time>
      </trkpt>
      <trkpt lat="43.93435" lon="7.41549">
        <ele>893.59997558594</ele>
        <time>2022-04-09T10:13:40.000Z</time>
      </trkpt>
      <trkpt lat="43.93436" lon="7.41551">
        <ele>893.20001220703</ele>
        <time>2022-04-09T10:13:41.000Z</time>
      </trkpt>
      <trkpt lat="43.93439" lon="7.41554">
        <ele>892.20001220703</ele>
        <time>2022-04-09T10:13:43.000Z</time>
      </trkpt>
      <trkpt lat="43.93442" lon="7.41557">
        <ele>891.59997558594</ele>
        <time>2022-04-09T10:13:44.000Z</time>
      </trkpt>
      <trkpt lat="43.93443" lon="7.41558">
        <ele>891</ele>
        <time>2022-04-09T10:13:45.000Z</time>
      </trkpt>
      <trkpt lat="43.93445" lon="7.41557">
        <ele>889.79998779297</ele>
        <time>2022-04-09T10:13:47.000Z</time>
      </trkpt>
      <trkpt lat="43.9345" lon="7.41552">
        <ele>888.40002441406</ele>
        <time>2022-04-09T10:13:50.000Z</time>
      </trkpt>
      <trkpt lat="43.93453" lon="7.41549">
        <ele>888</ele>
        <time>2022-04-09T10:13:51.000Z</time>
      </trkpt>
      <trkpt lat="43.93461" lon="7.41544">
        <ele>886.79998779297</ele>
        <time>2022-04-09T10:13:53.000Z</time>
      </trkpt>
      <trkpt lat="43.93465" lon="7.41542">
        <ele>886.40002441406</ele>
        <time>2022-04-09T10:13:54.000Z</time>
      </trkpt>
      <trkpt lat="43.93468" lon="7.41541">
        <ele>886</ele>
        <time>2022-04-09T10:13:55.000Z</time>
      </trkpt>
      <trkpt lat="43.93472" lon="7.41538">
        <ele>885</ele>
        <time>2022-04-09T10:13:56.000Z</time>
      </trkpt>
      <trkpt lat="43.93476" lon="7.41536">
        <ele>884.59997558594</ele>
        <time>2022-04-09T10:13:57.000Z</time>
      </trkpt>
      <trkpt lat="43.9348" lon="7.41537">
        <ele>883.79998779297</ele>
        <time>2022-04-09T10:13:58.000Z</time>
      </trkpt>
      <trkpt lat="43.93489" lon="7.41538">
        <ele>882.59997558594</ele>
        <time>2022-04-09T10:14:00.000Z</time>
      </trkpt>
      <trkpt lat="43.93498" lon="7.41538">
        <ele>881.40002441406</ele>
        <time>2022-04-09T10:14:03.000Z</time>
      </trkpt>
      <trkpt lat="43.93505" lon="7.41537">
        <ele>879.79998779297</ele>
        <time>2022-04-09T10:14:05.000Z</time>
      </trkpt>
      <trkpt lat="43.93509" lon="7.41538">
        <ele>878.79998779297</ele>
        <time>2022-04-09T10:14:06.000Z</time>
      </trkpt>
      <trkpt lat="43.93512" lon="7.4154">
        <ele>877.20001220703</ele>
        <time>2022-04-09T10:14:07.000Z</time>
      </trkpt>
      <trkpt lat="43.93514" lon="7.4154">
        <ele>876.20001220703</ele>
        <time>2022-04-09T10:14:08.000Z</time>
      </trkpt>
      <trkpt lat="43.93518" lon="7.41539">
        <ele>874.40002441406</ele>
        <time>2022-04-09T10:14:09.000Z</time>
      </trkpt>
      <trkpt lat="43.93527" lon="7.41536">
        <ele>872.59997558594</ele>
        <time>2022-04-09T10:14:11.000Z</time>
      </trkpt>
      <trkpt lat="43.93533" lon="7.41535">
        <ele>871.40002441406</ele>
        <time>2022-04-09T10:14:12.000Z</time>
      </trkpt>
      <trkpt lat="43.93542" lon="7.41532">
        <ele>870</ele>
        <time>2022-04-09T10:14:14.000Z</time>
      </trkpt>
      <trkpt lat="43.93551" lon="7.41534">
        <ele>869</ele>
        <time>2022-04-09T10:14:16.000Z</time>
      </trkpt>
      <trkpt lat="43.9356" lon="7.41537">
        <ele>867.79998779297</ele>
        <time>2022-04-09T10:14:18.000Z</time>
      </trkpt>
      <trkpt lat="43.93565" lon="7.4154">
        <ele>866.79998779297</ele>
        <time>2022-04-09T10:14:19.000Z</time>
      </trkpt>
      <trkpt lat="43.93568" lon="7.41543">
        <ele>866</ele>
        <time>2022-04-09T10:14:20.000Z</time>
      </trkpt>
      <trkpt lat="43.93571" lon="7.41545">
        <ele>865.40002441406</ele>
        <time>2022-04-09T10:14:21.000Z</time>
      </trkpt>
      <trkpt lat="43.93579" lon="7.41548">
        <ele>865</ele>
        <time>2022-04-09T10:14:23.000Z</time>
      </trkpt>
      <trkpt lat="43.93583" lon="7.41549">
        <ele>865.20001220703</ele>
        <time>2022-04-09T10:14:24.000Z</time>
      </trkpt>
      <trkpt lat="43.93587" lon="7.4155">
        <ele>865.20001220703</ele>
        <time>2022-04-09T10:14:25.000Z</time>
      </trkpt>
      <trkpt lat="43.93592" lon="7.41552">
        <ele>865</ele>
        <time>2022-04-09T10:14:26.000Z</time>
      </trkpt>
      <trkpt lat="43.93602" lon="7.41557">
        <ele>863.59997558594</ele>
        <time>2022-04-09T10:14:29.000Z</time>
      </trkpt>
      <trkpt lat="43.93607" lon="7.41559">
        <ele>863.20001220703</ele>
        <time>2022-04-09T10:14:30.000Z</time>
      </trkpt>
      <trkpt lat="43.93611" lon="7.41559">
        <ele>863</ele>
        <time>2022-04-09T10:14:31.000Z</time>
      </trkpt>
      <trkpt lat="43.93622" lon="7.41555">
        <ele>862.59997558594</ele>
        <time>2022-04-09T10:14:34.000Z</time>
      </trkpt>
      <trkpt lat="43.93626" lon="7.41554">
        <ele>862.20001220703</ele>
        <time>2022-04-09T10:14:35.000Z</time>
      </trkpt>
      <trkpt lat="43.93628" lon="7.41552">
        <ele>860.79998779297</ele>
        <time>2022-04-09T10:14:37.000Z</time>
      </trkpt>
      <trkpt lat="43.93627" lon="7.41552">
        <ele>860</ele>
        <time>2022-04-09T10:14:38.000Z</time>
      </trkpt>
      <trkpt lat="43.93626" lon="7.41552">
        <ele>859.20001220703</ele>
        <time>2022-04-09T10:14:39.000Z</time>
      </trkpt>
      <trkpt lat="43.93624" lon="7.41551">
        <ele>858.59997558594</ele>
        <time>2022-04-09T10:14:41.000Z</time>
      </trkpt>
      <trkpt lat="43.93619" lon="7.41548">
        <ele>858.20001220703</ele>
        <time>2022-04-09T10:14:43.000Z</time>
      </trkpt>
      <trkpt lat="43.93609" lon="7.41539">
        <ele>857</ele>
        <time>2022-04-09T10:14:46.000Z</time>
      </trkpt>
      <trkpt lat="43.93605" lon="7.41536">
        <ele>855.79998779297</ele>
        <time>2022-04-09T10:14:47.000Z</time>
      </trkpt>
      <trkpt lat="43.93602" lon="7.41534">
        <ele>854</ele>
        <time>2022-04-09T10:14:48.000Z</time>
      </trkpt>
      <trkpt lat="43.93599" lon="7.41527">
        <ele>852.79998779297</ele>
        <time>2022-04-09T10:14:49.000Z</time>
      </trkpt>
      <trkpt lat="43.93598" lon="7.41523">
        <ele>851.79998779297</ele>
        <time>2022-04-09T10:14:50.000Z</time>
      </trkpt>
      <trkpt lat="43.93595" lon="7.41518">
        <ele>849.79998779297</ele>
        <time>2022-04-09T10:14:52.000Z</time>
      </trkpt>
      <trkpt lat="43.93596" lon="7.41516">
        <ele>849.59997558594</ele>
        <time>2022-04-09T10:14:53.000Z</time>
      </trkpt>
      <trkpt lat="43.93599" lon="7.41515">
        <ele>848.79998779297</ele>
        <time>2022-04-09T10:14:54.000Z</time>
      </trkpt>
      <trkpt lat="43.93605" lon="7.41513">
        <ele>847.20001220703</ele>
        <time>2022-04-09T10:14:56.000Z</time>
      </trkpt>
      <trkpt lat="43.93612" lon="7.41513">
        <ele>846.59997558594</ele>
        <time>2022-04-09T10:14:58.000Z</time>
      </trkpt>
      <trkpt lat="43.93615" lon="7.41514">
        <ele>846</ele>
        <time>2022-04-09T10:14:59.000Z</time>
      </trkpt>
      <trkpt lat="43.93619" lon="7.41514">
        <ele>844.59997558594</ele>
        <time>2022-04-09T10:15:01.000Z</time>
      </trkpt>
      <trkpt lat="43.93619" lon="7.41512">
        <ele>844</ele>
        <time>2022-04-09T10:15:02.000Z</time>
      </trkpt>
      <trkpt lat="43.93619" lon="7.41512">
        <ele>843</ele>
        <time>2022-04-09T10:15:03.000Z</time>
      </trkpt>
      <trkpt lat="43.93617" lon="7.4151">
        <ele>842</ele>
        <time>2022-04-09T10:15:05.000Z</time>
      </trkpt>
      <trkpt lat="43.93616" lon="7.41509">
        <ele>841.40002441406</ele>
        <time>2022-04-09T10:15:06.000Z</time>
      </trkpt>
      <trkpt lat="43.93615" lon="7.41507">
        <ele>840.79998779297</ele>
        <time>2022-04-09T10:15:07.000Z</time>
      </trkpt>
      <trkpt lat="43.93616" lon="7.41503">
        <ele>840.59997558594</ele>
        <time>2022-04-09T10:15:09.000Z</time>
      </trkpt>
      <trkpt lat="43.93617" lon="7.41502">
        <ele>840</ele>
        <time>2022-04-09T10:15:11.000Z</time>
      </trkpt>
      <trkpt lat="43.93618" lon="7.41503">
        <ele>839.79998779297</ele>
        <time>2022-04-09T10:15:12.000Z</time>
      </trkpt>
      <trkpt lat="43.9362" lon="7.41505">
        <ele>839.40002441406</ele>
        <time>2022-04-09T10:15:13.000Z</time>
      </trkpt>
      <trkpt lat="43.93624" lon="7.41509">
        <ele>838.79998779297</ele>
        <time>2022-04-09T10:15:15.000Z</time>
      </trkpt>
      <trkpt lat="43.93626" lon="7.41509">
        <ele>838.40002441406</ele>
        <time>2022-04-09T10:15:16.000Z</time>
      </trkpt>
      <trkpt lat="43.93631" lon="7.41509">
        <ele>837.20001220703</ele>
        <time>2022-04-09T10:15:18.000Z</time>
      </trkpt>
      <trkpt lat="43.93635" lon="7.41509">
        <ele>836.79998779297</ele>
        <time>2022-04-09T10:15:19.000Z</time>
      </trkpt>
      <trkpt lat="43.93639" lon="7.41509">
        <ele>835.79998779297</ele>
        <time>2022-04-09T10:15:20.000Z</time>
      </trkpt>
      <trkpt lat="43.93643" lon="7.41511">
        <ele>834.59997558594</ele>
        <time>2022-04-09T10:15:21.000Z</time>
      </trkpt>
      <trkpt lat="43.93647" lon="7.41513">
        <ele>833.59997558594</ele>
        <time>2022-04-09T10:15:22.000Z</time>
      </trkpt>
      <trkpt lat="43.9365" lon="7.41514">
        <ele>832.20001220703</ele>
        <time>2022-04-09T10:15:23.000Z</time>
      </trkpt>
      <trkpt lat="43.93655" lon="7.41517">
        <ele>831.20001220703</ele>
        <time>2022-04-09T10:15:24.000Z</time>
      </trkpt>
      <trkpt lat="43.93659" lon="7.41519">
        <ele>830</ele>
        <time>2022-04-09T10:15:25.000Z</time>
      </trkpt>
      <trkpt lat="43.93665" lon="7.41521">
        <ele>828.59997558594</ele>
        <time>2022-04-09T10:15:26.000Z</time>
      </trkpt>
      <trkpt lat="43.9367" lon="7.41524">
        <ele>826.79998779297</ele>
        <time>2022-04-09T10:15:27.000Z</time>
      </trkpt>
      <trkpt lat="43.93673" lon="7.41525">
        <ele>825.40002441406</ele>
        <time>2022-04-09T10:15:28.000Z</time>
      </trkpt>
      <trkpt lat="43.93676" lon="7.41528">
        <ele>823.59997558594</ele>
        <time>2022-04-09T10:15:29.000Z</time>
      </trkpt>
      <trkpt lat="43.93683" lon="7.4153">
        <ele>822.79998779297</ele>
        <time>2022-04-09T10:15:30.000Z</time>
      </trkpt>
      <trkpt lat="43.93688" lon="7.41533">
        <ele>821.79998779297</ele>
        <time>2022-04-09T10:15:31.000Z</time>
      </trkpt>
      <trkpt lat="43.93697" lon="7.41538">
        <ele>819.79998779297</ele>
        <time>2022-04-09T10:15:33.000Z</time>
      </trkpt>
      <trkpt lat="43.937" lon="7.41541">
        <ele>818.40002441406</ele>
        <time>2022-04-09T10:15:34.000Z</time>
      </trkpt>
      <trkpt lat="43.93703" lon="7.41543">
        <ele>817</ele>
        <time>2022-04-09T10:15:35.000Z</time>
      </trkpt>
      <trkpt lat="43.93705" lon="7.41542">
        <ele>815.59997558594</ele>
        <time>2022-04-09T10:15:36.000Z</time>
      </trkpt>
      <trkpt lat="43.93708" lon="7.41542">
        <ele>814.59997558594</ele>
        <time>2022-04-09T10:15:37.000Z</time>
      </trkpt>
      <trkpt lat="43.93711" lon="7.41546">
        <ele>813.79998779297</ele>
        <time>2022-04-09T10:15:38.000Z</time>
      </trkpt>
      <trkpt lat="43.93715" lon="7.4155">
        <ele>812.79998779297</ele>
        <time>2022-04-09T10:15:39.000Z</time>
      </trkpt>
      <trkpt lat="43.93717" lon="7.41554">
        <ele>811.79998779297</ele>
        <time>2022-04-09T10:15:40.000Z</time>
      </trkpt>
      <trkpt lat="43.9372" lon="7.41559">
        <ele>811</ele>
        <time>2022-04-09T10:15:41.000Z</time>
      </trkpt>
      <trkpt lat="43.93722" lon="7.41565">
        <ele>810</ele>
        <time>2022-04-09T10:15:42.000Z</time>
      </trkpt>
      <trkpt lat="43.93725" lon="7.41569">
        <ele>808.79998779297</ele>
        <time>2022-04-09T10:15:43.000Z</time>
      </trkpt>
      <trkpt lat="43.93728" lon="7.41572">
        <ele>808</ele>
        <time>2022-04-09T10:15:44.000Z</time>
      </trkpt>
      <trkpt lat="43.9373" lon="7.41575">
        <ele>807</ele>
        <time>2022-04-09T10:15:45.000Z</time>
      </trkpt>
      <trkpt lat="43.93732" lon="7.41579">
        <ele>805.79998779297</ele>
        <time>2022-04-09T10:15:46.000Z</time>
      </trkpt>
      <trkpt lat="43.93735" lon="7.41584">
        <ele>804.79998779297</ele>
        <time>2022-04-09T10:15:47.000Z</time>
      </trkpt>
      <trkpt lat="43.93737" lon="7.41591">
        <ele>803.59997558594</ele>
        <time>2022-04-09T10:15:48.000Z</time>
      </trkpt>
      <trkpt lat="43.9374" lon="7.41598">
        <ele>802.59997558594</ele>
        <time>2022-04-09T10:15:49.000Z</time>
      </trkpt>
      <trkpt lat="43.93741" lon="7.41603">
        <ele>801.20001220703</ele>
        <time>2022-04-09T10:15:50.000Z</time>
      </trkpt>
      <trkpt lat="43.93746" lon="7.41608">
        <ele>800.20001220703</ele>
        <time>2022-04-09T10:15:51.000Z</time>
      </trkpt>
      <trkpt lat="43.93749" lon="7.41613">
        <ele>798.20001220703</ele>
        <time>2022-04-09T10:15:52.000Z</time>
      </trkpt>
      <trkpt lat="43.93754" lon="7.41619">
        <ele>797.20001220703</ele>
        <time>2022-04-09T10:15:53.000Z</time>
      </trkpt>
      <trkpt lat="43.93758" lon="7.41625">
        <ele>795.79998779297</ele>
        <time>2022-04-09T10:15:54.000Z</time>
      </trkpt>
      <trkpt lat="43.93759" lon="7.4163">
        <ele>794.40002441406</ele>
        <time>2022-04-09T10:15:55.000Z</time>
      </trkpt>
      <trkpt lat="43.93761" lon="7.41632">
        <ele>792.79998779297</ele>
        <time>2022-04-09T10:15:56.000Z</time>
      </trkpt>
      <trkpt lat="43.93763" lon="7.41632">
        <ele>792.40002441406</ele>
        <time>2022-04-09T10:15:57.000Z</time>
      </trkpt>
      <trkpt lat="43.93763" lon="7.41631">
        <ele>791.59997558594</ele>
        <time>2022-04-09T10:15:58.000Z</time>
      </trkpt>
      <trkpt lat="43.93763" lon="7.4163">
        <ele>791</ele>
        <time>2022-04-09T10:15:59.000Z</time>
      </trkpt>
      <trkpt lat="43.93763" lon="7.41628">
        <ele>790.40002441406</ele>
        <time>2022-04-09T10:16:00.000Z</time>
      </trkpt>
      <trkpt lat="43.93764" lon="7.41625">
        <ele>789.40002441406</ele>
        <time>2022-04-09T10:16:02.000Z</time>
      </trkpt>
      <trkpt lat="43.93765" lon="7.41625">
        <ele>788.79998779297</ele>
        <time>2022-04-09T10:16:03.000Z</time>
      </trkpt>
      <trkpt lat="43.93765" lon="7.41626">
        <ele>788.40002441406</ele>
        <time>2022-04-09T10:16:04.000Z</time>
      </trkpt>
      <trkpt lat="43.93766" lon="7.41631">
        <ele>787.59997558594</ele>
        <time>2022-04-09T10:16:06.000Z</time>
      </trkpt>
      <trkpt lat="43.93768" lon="7.41632">
        <ele>787.20001220703</ele>
        <time>2022-04-09T10:16:07.000Z</time>
      </trkpt>
      <trkpt lat="43.93768" lon="7.41627">
        <ele>786</ele>
        <time>2022-04-09T10:16:11.000Z</time>
      </trkpt>
      <trkpt lat="43.93767" lon="7.41618">
        <ele>784.79998779297</ele>
        <time>2022-04-09T10:16:15.000Z</time>
      </trkpt>
      <trkpt lat="43.93766" lon="7.41615">
        <ele>784.20001220703</ele>
        <time>2022-04-09T10:16:16.000Z</time>
      </trkpt>
      <trkpt lat="43.93764" lon="7.41612">
        <ele>783.59997558594</ele>
        <time>2022-04-09T10:16:17.000Z</time>
      </trkpt>
      <trkpt lat="43.93763" lon="7.41604">
        <ele>782</ele>
        <time>2022-04-09T10:16:19.000Z</time>
      </trkpt>
      <trkpt lat="43.9376" lon="7.41593">
        <ele>780.20001220703</ele>
        <time>2022-04-09T10:16:21.000Z</time>
      </trkpt>
      <trkpt lat="43.93758" lon="7.4159">
        <ele>779.20001220703</ele>
        <time>2022-04-09T10:16:22.000Z</time>
      </trkpt>
      <trkpt lat="43.93759" lon="7.41587">
        <ele>777.40002441406</ele>
        <time>2022-04-09T10:16:24.000Z</time>
      </trkpt>
      <trkpt lat="43.93759" lon="7.41588">
        <ele>776.40002441406</ele>
        <time>2022-04-09T10:16:25.000Z</time>
      </trkpt>
      <trkpt lat="43.93759" lon="7.41588">
        <ele>775.79998779297</ele>
        <time>2022-04-09T10:16:26.000Z</time>
      </trkpt>
      <trkpt lat="43.9376" lon="7.41585">
        <ele>774.79998779297</ele>
        <time>2022-04-09T10:16:30.000Z</time>
      </trkpt>
      <trkpt lat="43.93762" lon="7.41582">
        <ele>773.79998779297</ele>
        <time>2022-04-09T10:16:35.000Z</time>
      </trkpt>
      <trkpt lat="43.93765" lon="7.41583">
        <ele>773.59997558594</ele>
        <time>2022-04-09T10:16:40.000Z</time>
      </trkpt>
      <trkpt lat="43.93765" lon="7.41582">
        <ele>773.59997558594</ele>
        <time>2022-04-09T10:16:41.000Z</time>
      </trkpt>
      <trkpt lat="43.93766" lon="7.41581">
        <ele>773.20001220703</ele>
        <time>2022-04-09T10:16:47.000Z</time>
      </trkpt>
      <trkpt lat="43.93763" lon="7.4157">
        <ele>772.59997558594</ele>
        <time>2022-04-09T10:16:53.000Z</time>
      </trkpt>
      <trkpt lat="43.93763" lon="7.41568">
        <ele>772.40002441406</ele>
        <time>2022-04-09T10:16:54.000Z</time>
      </trkpt>
      <trkpt lat="43.93762" lon="7.41562">
        <ele>771.40002441406</ele>
        <time>2022-04-09T10:16:56.000Z</time>
      </trkpt>
      <trkpt lat="43.93762" lon="7.41558">
        <ele>769.79998779297</ele>
        <time>2022-04-09T10:16:58.000Z</time>
      </trkpt>
      <trkpt lat="43.9376" lon="7.41551">
        <ele>768.59997558594</ele>
        <time>2022-04-09T10:17:00.000Z</time>
      </trkpt>
      <trkpt lat="43.93759" lon="7.41544">
        <ele>767</ele>
        <time>2022-04-09T10:17:02.000Z</time>
      </trkpt>
      <trkpt lat="43.9376" lon="7.41539">
        <ele>765.59997558594</ele>
        <time>2022-04-09T10:17:04.000Z</time>
      </trkpt>
      <trkpt lat="43.93764" lon="7.41534">
        <ele>764.20001220703</ele>
        <time>2022-04-09T10:17:06.000Z</time>
      </trkpt>
      <trkpt lat="43.93763" lon="7.4153">
        <ele>763</ele>
        <time>2022-04-09T10:17:08.000Z</time>
      </trkpt>
      <trkpt lat="43.93763" lon="7.41527">
        <ele>762.79998779297</ele>
        <time>2022-04-09T10:17:09.000Z</time>
      </trkpt>
      <trkpt lat="43.9376" lon="7.41515">
        <ele>761.79998779297</ele>
        <time>2022-04-09T10:17:12.000Z</time>
      </trkpt>
      <trkpt lat="43.9376" lon="7.41514">
        <ele>761.20001220703</ele>
        <time>2022-04-09T10:17:13.000Z</time>
      </trkpt>
      <trkpt lat="43.93759" lon="7.4151">
        <ele>760.20001220703</ele>
        <time>2022-04-09T10:17:15.000Z</time>
      </trkpt>
      <trkpt lat="43.93758" lon="7.41503">
        <ele>760</ele>
        <time>2022-04-09T10:17:19.000Z</time>
      </trkpt>
      <trkpt lat="43.93757" lon="7.41497">
        <ele>761</ele>
        <time>2022-04-09T10:17:21.000Z</time>
      </trkpt>
      <trkpt lat="43.93755" lon="7.41491">
        <ele>761.79998779297</ele>
        <time>2022-04-09T10:17:23.000Z</time>
      </trkpt>
      <trkpt lat="43.93754" lon="7.41485">
        <ele>763.20001220703</ele>
        <time>2022-04-09T10:17:25.000Z</time>
      </trkpt>
      <trkpt lat="43.93753" lon="7.41481">
        <ele>764.20001220703</ele>
        <time>2022-04-09T10:17:27.000Z</time>
      </trkpt>
      <trkpt lat="43.93752" lon="7.41478">
        <ele>764.59997558594</ele>
        <time>2022-04-09T10:17:28.000Z</time>
      </trkpt>
      <trkpt lat="43.93751" lon="7.41475">
        <ele>765.79998779297</ele>
        <time>2022-04-09T10:17:32.000Z</time>
      </trkpt>
      <trkpt lat="43.9375" lon="7.41473">
        <ele>766.40002441406</ele>
        <time>2022-04-09T10:17:40.000Z</time>
      </trkpt>
      <trkpt lat="43.9375" lon="7.41473">
        <ele>766.20001220703</ele>
        <time>2022-04-09T10:17:52.000Z</time>
      </trkpt>
      <trkpt lat="43.93749" lon="7.41474">
        <ele>766.40002441406</ele>
        <time>2022-04-09T10:18:12.000Z</time>
      </trkpt>
      <trkpt lat="43.93745" lon="7.41469">
        <ele>766.40002441406</ele>
        <time>2022-04-09T10:18:16.000Z</time>
      </trkpt>
      <trkpt lat="43.93737" lon="7.4145">
        <ele>766.20001220703</ele>
        <time>2022-04-09T10:18:22.000Z</time>
      </trkpt>
      <trkpt lat="43.93724" lon="7.41432">
        <ele>766</ele>
        <time>2022-04-09T10:18:28.000Z</time>
      </trkpt>
      <trkpt lat="43.93718" lon="7.41431">
        <ele>765.79998779297</ele>
        <time>2022-04-09T10:18:29.000Z</time>
      </trkpt>
      <trkpt lat="43.93709" lon="7.41424">
        <ele>764.79998779297</ele>
        <time>2022-04-09T10:18:31.000Z</time>
      </trkpt>
      <trkpt lat="43.937" lon="7.41416">
        <ele>763.40002441406</ele>
        <time>2022-04-09T10:18:33.000Z</time>
      </trkpt>
      <trkpt lat="43.93695" lon="7.41411">
        <ele>762.59997558594</ele>
        <time>2022-04-09T10:18:34.000Z</time>
      </trkpt>
      <trkpt lat="43.93687" lon="7.41402">
        <ele>762.79998779297</ele>
        <time>2022-04-09T10:18:36.000Z</time>
      </trkpt>
      <trkpt lat="43.93684" lon="7.41399">
        <ele>762.40002441406</ele>
        <time>2022-04-09T10:18:37.000Z</time>
      </trkpt>
      <trkpt lat="43.9368" lon="7.41396">
        <ele>762</ele>
        <time>2022-04-09T10:18:38.000Z</time>
      </trkpt>
      <trkpt lat="43.93672" lon="7.41386">
        <ele>761.40002441406</ele>
        <time>2022-04-09T10:18:41.000Z</time>
      </trkpt>
      <trkpt lat="43.93673" lon="7.41378">
        <ele>760.59997558594</ele>
        <time>2022-04-09T10:18:43.000Z</time>
      </trkpt>
      <trkpt lat="43.93673" lon="7.41373">
        <ele>760.20001220703</ele>
        <time>2022-04-09T10:18:44.000Z</time>
      </trkpt>
      <trkpt lat="43.93675" lon="7.41368">
        <ele>759.59997558594</ele>
        <time>2022-04-09T10:18:45.000Z</time>
      </trkpt>
      <trkpt lat="43.93677" lon="7.41367">
        <ele>759</ele>
        <time>2022-04-09T10:18:46.000Z</time>
      </trkpt>
      <trkpt lat="43.93679" lon="7.41364">
        <ele>758.20001220703</ele>
        <time>2022-04-09T10:18:47.000Z</time>
      </trkpt>
      <trkpt lat="43.93681" lon="7.41361">
        <ele>757.40002441406</ele>
        <time>2022-04-09T10:18:48.000Z</time>
      </trkpt>
      <trkpt lat="43.9368" lon="7.4136">
        <ele>756.79998779297</ele>
        <time>2022-04-09T10:18:49.000Z</time>
      </trkpt>
      <trkpt lat="43.93674" lon="7.41352">
        <ele>755.40002441406</ele>
        <time>2022-04-09T10:18:51.000Z</time>
      </trkpt>
      <trkpt lat="43.93658" lon="7.4133">
        <ele>753.79998779297</ele>
        <time>2022-04-09T10:18:55.000Z</time>
      </trkpt>
      <trkpt lat="43.93651" lon="7.41321">
        <ele>752.59997558594</ele>
        <time>2022-04-09T10:18:57.000Z</time>
      </trkpt>
      <trkpt lat="43.93651" lon="7.41317">
        <ele>752.20001220703</ele>
        <time>2022-04-09T10:18:58.000Z</time>
      </trkpt>
      <trkpt lat="43.93652" lon="7.41312">
        <ele>751.59997558594</ele>
        <time>2022-04-09T10:18:59.000Z</time>
      </trkpt>
      <trkpt lat="43.93655" lon="7.41306">
        <ele>751.20001220703</ele>
        <time>2022-04-09T10:19:01.000Z</time>
      </trkpt>
      <trkpt lat="43.93653" lon="7.41295">
        <ele>750.20001220703</ele>
        <time>2022-04-09T10:19:04.000Z</time>
      </trkpt>
      <trkpt lat="43.93651" lon="7.41291">
        <ele>750</ele>
        <time>2022-04-09T10:19:05.000Z</time>
      </trkpt>
      <trkpt lat="43.93637" lon="7.41278">
        <ele>749.79998779297</ele>
        <time>2022-04-09T10:19:10.000Z</time>
      </trkpt>
      <trkpt lat="43.93632" lon="7.41275">
        <ele>749.79998779297</ele>
        <time>2022-04-09T10:19:12.000Z</time>
      </trkpt>
      <trkpt lat="43.93623" lon="7.4127">
        <ele>749.79998779297</ele>
        <time>2022-04-09T10:19:15.000Z</time>
      </trkpt>
      <trkpt lat="43.93613" lon="7.41263">
        <ele>751.79998779297</ele>
        <time>2022-04-09T10:19:19.000Z</time>
      </trkpt>
      <trkpt lat="43.93609" lon="7.4126">
        <ele>752.79998779297</ele>
        <time>2022-04-09T10:19:21.000Z</time>
      </trkpt>
      <trkpt lat="43.93605" lon="7.41257">
        <ele>754</ele>
        <time>2022-04-09T10:19:23.000Z</time>
      </trkpt>
      <trkpt lat="43.93599" lon="7.41251">
        <ele>755.20001220703</ele>
        <time>2022-04-09T10:19:26.000Z</time>
      </trkpt>
      <trkpt lat="43.93598" lon="7.41249">
        <ele>755.79998779297</ele>
        <time>2022-04-09T10:19:27.000Z</time>
      </trkpt>
      <trkpt lat="43.93597" lon="7.41247">
        <ele>756.59997558594</ele>
        <time>2022-04-09T10:19:29.000Z</time>
      </trkpt>
      <trkpt lat="43.93596" lon="7.41247">
        <ele>757</ele>
        <time>2022-04-09T10:19:30.000Z</time>
      </trkpt>
      <trkpt lat="43.93594" lon="7.41246">
        <ele>757.59997558594</ele>
        <time>2022-04-09T10:19:32.000Z</time>
      </trkpt>
      <trkpt lat="43.93594" lon="7.41245">
        <ele>757.79998779297</ele>
        <time>2022-04-09T10:19:33.000Z</time>
      </trkpt>
      <trkpt lat="43.93592" lon="7.41245">
        <ele>757.79998779297</ele>
        <time>2022-04-09T10:19:35.000Z</time>
      </trkpt>
      <trkpt lat="43.93593" lon="7.41249">
        <ele>757.59997558594</ele>
        <time>2022-04-09T10:19:40.000Z</time>
      </trkpt>
      <trkpt lat="43.93594" lon="7.41248">
        <ele>757.79998779297</ele>
        <time>2022-04-09T10:19:42.000Z</time>
      </trkpt>
      <trkpt lat="43.93594" lon="7.41248">
        <ele>757.59997558594</ele>
        <time>2022-04-09T10:19:44.000Z</time>
      </trkpt>
      <trkpt lat="43.93594" lon="7.41247">
        <ele>757.59997558594</ele>
        <time>2022-04-09T10:19:53.000Z</time>
      </trkpt>
      <trkpt lat="43.93599" lon="7.41243">
        <ele>757.79998779297</ele>
        <time>2022-04-09T10:20:08.000Z</time>
      </trkpt>
      <trkpt lat="43.93603" lon="7.41234">
        <ele>758.20001220703</ele>
        <time>2022-04-09T10:20:13.000Z</time>
      </trkpt>
      <trkpt lat="43.93608" lon="7.41226">
        <ele>758.79998779297</ele>
        <time>2022-04-09T10:20:17.000Z</time>
      </trkpt>
      <trkpt lat="43.9361" lon="7.41226">
        <ele>759</ele>
        <time>2022-04-09T10:20:18.000Z</time>
      </trkpt>
      <trkpt lat="43.93614" lon="7.41225">
        <ele>759.40002441406</ele>
        <time>2022-04-09T10:20:20.000Z</time>
      </trkpt>
      <trkpt lat="43.93619" lon="7.41224">
        <ele>759.79998779297</ele>
        <time>2022-04-09T10:20:23.000Z</time>
      </trkpt>
      <trkpt lat="43.93625" lon="7.41225">
        <ele>760.40002441406</ele>
        <time>2022-04-09T10:20:26.000Z</time>
      </trkpt>
      <trkpt lat="43.93628" lon="7.41225">
        <ele>760.79998779297</ele>
        <time>2022-04-09T10:20:28.000Z</time>
      </trkpt>
      <trkpt lat="43.9363" lon="7.41226">
        <ele>761</ele>
        <time>2022-04-09T10:20:29.000Z</time>
      </trkpt>
      <trkpt lat="43.93635" lon="7.41229">
        <ele>761.79998779297</ele>
        <time>2022-04-09T10:20:32.000Z</time>
      </trkpt>
      <trkpt lat="43.93639" lon="7.4123">
        <ele>762.20001220703</ele>
        <time>2022-04-09T10:20:34.000Z</time>
      </trkpt>
      <trkpt lat="43.93649" lon="7.41235">
        <ele>763.20001220703</ele>
        <time>2022-04-09T10:20:39.000Z</time>
      </trkpt>
      <trkpt lat="43.93659" lon="7.4124">
        <ele>764.59997558594</ele>
        <time>2022-04-09T10:20:44.000Z</time>
      </trkpt>
      <trkpt lat="43.93663" lon="7.41241">
        <ele>765</ele>
        <time>2022-04-09T10:20:46.000Z</time>
      </trkpt>
      <trkpt lat="43.93669" lon="7.41244">
        <ele>765.59997558594</ele>
        <time>2022-04-09T10:20:49.000Z</time>
      </trkpt>
      <trkpt lat="43.93678" lon="7.41246">
        <ele>766.79998779297</ele>
        <time>2022-04-09T10:20:53.000Z</time>
      </trkpt>
      <trkpt lat="43.9368" lon="7.41246">
        <ele>767</ele>
        <time>2022-04-09T10:20:54.000Z</time>
      </trkpt>
      <trkpt lat="43.93687" lon="7.41247">
        <ele>767.79998779297</ele>
        <time>2022-04-09T10:20:57.000Z</time>
      </trkpt>
      <trkpt lat="43.93694" lon="7.4124">
        <ele>769</ele>
        <time>2022-04-09T10:21:02.000Z</time>
      </trkpt>
      <trkpt lat="43.93692" lon="7.4123">
        <ele>770.20001220703</ele>
        <time>2022-04-09T10:21:05.000Z</time>
      </trkpt>
      <trkpt lat="43.9369" lon="7.41228">
        <ele>770.40002441406</ele>
        <time>2022-04-09T10:21:06.000Z</time>
      </trkpt>
      <trkpt lat="43.93686" lon="7.41223">
        <ele>771</ele>
        <time>2022-04-09T10:21:08.000Z</time>
      </trkpt>
      <trkpt lat="43.93684" lon="7.41221">
        <ele>771.40002441406</ele>
        <time>2022-04-09T10:21:09.000Z</time>
      </trkpt>
      <trkpt lat="43.93679" lon="7.41216">
        <ele>772.40002441406</ele>
        <time>2022-04-09T10:21:12.000Z</time>
      </trkpt>
      <trkpt lat="43.93675" lon="7.41212">
        <ele>773.20001220703</ele>
        <time>2022-04-09T10:21:14.000Z</time>
      </trkpt>
      <trkpt lat="43.93674" lon="7.41209">
        <ele>773.59997558594</ele>
        <time>2022-04-09T10:21:15.000Z</time>
      </trkpt>
      <trkpt lat="43.93667" lon="7.41201">
        <ele>774.59997558594</ele>
        <time>2022-04-09T10:21:19.000Z</time>
      </trkpt>
      <trkpt lat="43.93664" lon="7.41196">
        <ele>775</ele>
        <time>2022-04-09T10:21:21.000Z</time>
      </trkpt>
      <trkpt lat="43.93656" lon="7.41184">
        <ele>775.79998779297</ele>
        <time>2022-04-09T10:21:26.000Z</time>
      </trkpt>
      <trkpt lat="43.9365" lon="7.41173">
        <ele>776.59997558594</ele>
        <time>2022-04-09T10:21:30.000Z</time>
      </trkpt>
      <trkpt lat="43.93649" lon="7.41171">
        <ele>776.79998779297</ele>
        <time>2022-04-09T10:21:31.000Z</time>
      </trkpt>
      <trkpt lat="43.93643" lon="7.41157">
        <ele>778</ele>
        <time>2022-04-09T10:21:36.000Z</time>
      </trkpt>
      <trkpt lat="43.9364" lon="7.41152">
        <ele>778</ele>
        <time>2022-04-09T10:21:38.000Z</time>
      </trkpt>
      <trkpt lat="43.93632" lon="7.41136">
        <ele>779</ele>
        <time>2022-04-09T10:21:44.000Z</time>
      </trkpt>
      <trkpt lat="43.93628" lon="7.41128">
        <ele>779.79998779297</ele>
        <time>2022-04-09T10:21:47.000Z</time>
      </trkpt>
      <trkpt lat="43.93624" lon="7.41123">
        <ele>780.20001220703</ele>
        <time>2022-04-09T10:21:49.000Z</time>
      </trkpt>
      <trkpt lat="43.93617" lon="7.41112">
        <ele>781.40002441406</ele>
        <time>2022-04-09T10:21:54.000Z</time>
      </trkpt>
      <trkpt lat="43.93613" lon="7.41108">
        <ele>781.59997558594</ele>
        <time>2022-04-09T10:21:56.000Z</time>
      </trkpt>
      <trkpt lat="43.93605" lon="7.41097">
        <ele>782.40002441406</ele>
        <time>2022-04-09T10:22:01.000Z</time>
      </trkpt>
      <trkpt lat="43.93604" lon="7.41096">
        <ele>782.40002441406</ele>
        <time>2022-04-09T10:22:02.000Z</time>
      </trkpt>
      <trkpt lat="43.93597" lon="7.41091">
        <ele>783.40002441406</ele>
        <time>2022-04-09T10:22:07.000Z</time>
      </trkpt>
      <trkpt lat="43.93597" lon="7.41089">
        <ele>783.40002441406</ele>
        <time>2022-04-09T10:22:08.000Z</time>
      </trkpt>
      <trkpt lat="43.936" lon="7.41083">
        <ele>784.40002441406</ele>
        <time>2022-04-09T10:22:13.000Z</time>
      </trkpt>
      <trkpt lat="43.93601" lon="7.41084">
        <ele>784.59997558594</ele>
        <time>2022-04-09T10:22:17.000Z</time>
      </trkpt>
      <trkpt lat="43.93601" lon="7.41084">
        <ele>784.79998779297</ele>
        <time>2022-04-09T10:22:23.000Z</time>
      </trkpt>
      <trkpt lat="43.936" lon="7.41085">
        <ele>785.40002441406</ele>
        <time>2022-04-09T10:22:38.000Z</time>
      </trkpt>
      <trkpt lat="43.936" lon="7.41085">
        <ele>785.40002441406</ele>
        <time>2022-04-09T10:22:46.000Z</time>
      </trkpt>
      <trkpt lat="43.936" lon="7.41085">
        <ele>785.40002441406</ele>
        <time>2022-04-09T10:22:49.000Z</time>
      </trkpt>
      <trkpt lat="43.93601" lon="7.41087">
        <ele>785</ele>
        <time>2022-04-09T10:23:13.000Z</time>
      </trkpt>
      <trkpt lat="43.93605" lon="7.41088">
        <ele>785</ele>
        <time>2022-04-09T10:23:23.000Z</time>
      </trkpt>
      <trkpt lat="43.93614" lon="7.41092">
        <ele>784.79998779297</ele>
        <time>2022-04-09T10:23:28.000Z</time>
      </trkpt>
      <trkpt lat="43.9362" lon="7.41105">
        <ele>784.79998779297</ele>
        <time>2022-04-09T10:23:32.000Z</time>
      </trkpt>
      <trkpt lat="43.93632" lon="7.41122">
        <ele>785</ele>
        <time>2022-04-09T10:23:38.000Z</time>
      </trkpt>
      <trkpt lat="43.93641" lon="7.41131">
        <ele>785</ele>
        <time>2022-04-09T10:23:42.000Z</time>
      </trkpt>
      <trkpt lat="43.93643" lon="7.4113">
        <ele>785</ele>
        <time>2022-04-09T10:23:43.000Z</time>
      </trkpt>
      <trkpt lat="43.93643" lon="7.4112">
        <ele>785</ele>
        <time>2022-04-09T10:23:46.000Z</time>
      </trkpt>
      <trkpt lat="43.9364" lon="7.41114">
        <ele>785.20001220703</ele>
        <time>2022-04-09T10:23:48.000Z</time>
      </trkpt>
      <trkpt lat="43.93633" lon="7.41103">
        <ele>785.79998779297</ele>
        <time>2022-04-09T10:23:52.000Z</time>
      </trkpt>
      <trkpt lat="43.93628" lon="7.41094">
        <ele>786.79998779297</ele>
        <time>2022-04-09T10:23:55.000Z</time>
      </trkpt>
      <trkpt lat="43.93622" lon="7.41088">
        <ele>787.59997558594</ele>
        <time>2022-04-09T10:23:58.000Z</time>
      </trkpt>
      <trkpt lat="43.9362" lon="7.41085">
        <ele>787.79998779297</ele>
        <time>2022-04-09T10:23:59.000Z</time>
      </trkpt>
      <trkpt lat="43.93614" lon="7.41075">
        <ele>789</ele>
        <time>2022-04-09T10:24:03.000Z</time>
      </trkpt>
      <trkpt lat="43.93612" lon="7.41073">
        <ele>789.20001220703</ele>
        <time>2022-04-09T10:24:04.000Z</time>
      </trkpt>
      <trkpt lat="43.93606" lon="7.41063">
        <ele>790.20001220703</ele>
        <time>2022-04-09T10:24:08.000Z</time>
      </trkpt>
      <trkpt lat="43.93599" lon="7.41053">
        <ele>791.40002441406</ele>
        <time>2022-04-09T10:24:12.000Z</time>
      </trkpt>
      <trkpt lat="43.93593" lon="7.41042">
        <ele>792.59997558594</ele>
        <time>2022-04-09T10:24:16.000Z</time>
      </trkpt>
      <trkpt lat="43.93585" lon="7.41029">
        <ele>793.59997558594</ele>
        <time>2022-04-09T10:24:21.000Z</time>
      </trkpt>
      <trkpt lat="43.93584" lon="7.41027">
        <ele>794</ele>
        <time>2022-04-09T10:24:22.000Z</time>
      </trkpt>
      <trkpt lat="43.9358" lon="7.41018">
        <ele>794.79998779297</ele>
        <time>2022-04-09T10:24:25.000Z</time>
      </trkpt>
      <trkpt lat="43.93573" lon="7.41005">
        <ele>795.79998779297</ele>
        <time>2022-04-09T10:24:30.000Z</time>
      </trkpt>
      <trkpt lat="43.93571" lon="7.41002">
        <ele>796.20001220703</ele>
        <time>2022-04-09T10:24:31.000Z</time>
      </trkpt>
      <trkpt lat="43.93563" lon="7.40994">
        <ele>797.20001220703</ele>
        <time>2022-04-09T10:24:35.000Z</time>
      </trkpt>
      <trkpt lat="43.93557" lon="7.40989">
        <ele>797.79998779297</ele>
        <time>2022-04-09T10:24:38.000Z</time>
      </trkpt>
      <trkpt lat="43.93553" lon="7.40985">
        <ele>798.40002441406</ele>
        <time>2022-04-09T10:24:40.000Z</time>
      </trkpt>
      <trkpt lat="43.93545" lon="7.4098">
        <ele>799.40002441406</ele>
        <time>2022-04-09T10:24:44.000Z</time>
      </trkpt>
      <trkpt lat="43.9354" lon="7.40977">
        <ele>800</ele>
        <time>2022-04-09T10:24:46.000Z</time>
      </trkpt>
      <trkpt lat="43.93534" lon="7.40973">
        <ele>800.59997558594</ele>
        <time>2022-04-09T10:24:49.000Z</time>
      </trkpt>
      <trkpt lat="43.93524" lon="7.40965">
        <ele>801.79998779297</ele>
        <time>2022-04-09T10:24:54.000Z</time>
      </trkpt>
      <trkpt lat="43.93514" lon="7.40953">
        <ele>803</ele>
        <time>2022-04-09T10:25:00.000Z</time>
      </trkpt>
      <trkpt lat="43.93512" lon="7.40951">
        <ele>803.40002441406</ele>
        <time>2022-04-09T10:25:01.000Z</time>
      </trkpt>
      <trkpt lat="43.93507" lon="7.40945">
        <ele>804.20001220703</ele>
        <time>2022-04-09T10:25:04.000Z</time>
      </trkpt>
      <trkpt lat="43.935" lon="7.40937">
        <ele>805.20001220703</ele>
        <time>2022-04-09T10:25:08.000Z</time>
      </trkpt>
      <trkpt lat="43.93497" lon="7.40933">
        <ele>805.79998779297</ele>
        <time>2022-04-09T10:25:10.000Z</time>
      </trkpt>
      <trkpt lat="43.93493" lon="7.40929">
        <ele>806.40002441406</ele>
        <time>2022-04-09T10:25:12.000Z</time>
      </trkpt>
      <trkpt lat="43.93486" lon="7.40921">
        <ele>807.59997558594</ele>
        <time>2022-04-09T10:25:16.000Z</time>
      </trkpt>
      <trkpt lat="43.93482" lon="7.40918">
        <ele>808</ele>
        <time>2022-04-09T10:25:18.000Z</time>
      </trkpt>
      <trkpt lat="43.93478" lon="7.40914">
        <ele>808.59997558594</ele>
        <time>2022-04-09T10:25:20.000Z</time>
      </trkpt>
      <trkpt lat="43.93469" lon="7.40904">
        <ele>809.79998779297</ele>
        <time>2022-04-09T10:25:25.000Z</time>
      </trkpt>
      <trkpt lat="43.93467" lon="7.40902">
        <ele>810</ele>
        <time>2022-04-09T10:25:26.000Z</time>
      </trkpt>
      <trkpt lat="43.93461" lon="7.40896">
        <ele>810.79998779297</ele>
        <time>2022-04-09T10:25:29.000Z</time>
      </trkpt>
      <trkpt lat="43.93455" lon="7.40887">
        <ele>812</ele>
        <time>2022-04-09T10:25:33.000Z</time>
      </trkpt>
      <trkpt lat="43.9345" lon="7.40879">
        <ele>812.79998779297</ele>
        <time>2022-04-09T10:25:36.000Z</time>
      </trkpt>
      <trkpt lat="43.93447" lon="7.40873">
        <ele>813.20001220703</ele>
        <time>2022-04-09T10:25:38.000Z</time>
      </trkpt>
      <trkpt lat="43.93441" lon="7.40862">
        <ele>814.40002441406</ele>
        <time>2022-04-09T10:25:42.000Z</time>
      </trkpt>
      <trkpt lat="43.93435" lon="7.40851">
        <ele>815.20001220703</ele>
        <time>2022-04-09T10:25:46.000Z</time>
      </trkpt>
      <trkpt lat="43.93433" lon="7.40848">
        <ele>815.59997558594</ele>
        <time>2022-04-09T10:25:47.000Z</time>
      </trkpt>
      <trkpt lat="43.93424" lon="7.40836">
        <ele>816.40002441406</ele>
        <time>2022-04-09T10:25:52.000Z</time>
      </trkpt>
      <trkpt lat="43.93421" lon="7.40834">
        <ele>816.59997558594</ele>
        <time>2022-04-09T10:25:53.000Z</time>
      </trkpt>
      <trkpt lat="43.93416" lon="7.40833">
        <ele>817</ele>
        <time>2022-04-09T10:25:55.000Z</time>
      </trkpt>
      <trkpt lat="43.93411" lon="7.40836">
        <ele>817.40002441406</ele>
        <time>2022-04-09T10:25:57.000Z</time>
      </trkpt>
      <trkpt lat="43.93404" lon="7.40843">
        <ele>817.79998779297</ele>
        <time>2022-04-09T10:26:00.000Z</time>
      </trkpt>
      <trkpt lat="43.93399" lon="7.40851">
        <ele>818.59997558594</ele>
        <time>2022-04-09T10:26:03.000Z</time>
      </trkpt>
      <trkpt lat="43.93396" lon="7.40856">
        <ele>819</ele>
        <time>2022-04-09T10:26:05.000Z</time>
      </trkpt>
      <trkpt lat="43.93388" lon="7.40869">
        <ele>820.20001220703</ele>
        <time>2022-04-09T10:26:10.000Z</time>
      </trkpt>
      <trkpt lat="43.93379" lon="7.40879">
        <ele>821.40002441406</ele>
        <time>2022-04-09T10:26:15.000Z</time>
      </trkpt>
      <trkpt lat="43.93373" lon="7.40882">
        <ele>822</ele>
        <time>2022-04-09T10:26:18.000Z</time>
      </trkpt>
      <trkpt lat="43.93365" lon="7.40882">
        <ele>822.40002441406</ele>
        <time>2022-04-09T10:26:21.000Z</time>
      </trkpt>
      <trkpt lat="43.93353" lon="7.40881">
        <ele>823.79998779297</ele>
        <time>2022-04-09T10:26:26.000Z</time>
      </trkpt>
      <trkpt lat="43.93349" lon="7.4088">
        <ele>824.20001220703</ele>
        <time>2022-04-09T10:26:28.000Z</time>
      </trkpt>
      <trkpt lat="43.93341" lon="7.40879">
        <ele>824.79998779297</ele>
        <time>2022-04-09T10:26:31.000Z</time>
      </trkpt>
      <trkpt lat="43.93327" lon="7.40877">
        <ele>825.79998779297</ele>
        <time>2022-04-09T10:26:37.000Z</time>
      </trkpt>
      <trkpt lat="43.93325" lon="7.40876">
        <ele>826</ele>
        <time>2022-04-09T10:26:38.000Z</time>
      </trkpt>
      <trkpt lat="43.93316" lon="7.40874">
        <ele>827.20001220703</ele>
        <time>2022-04-09T10:26:42.000Z</time>
      </trkpt>
      <trkpt lat="43.93308" lon="7.4087">
        <ele>828</ele>
        <time>2022-04-09T10:26:46.000Z</time>
      </trkpt>
      <trkpt lat="43.93306" lon="7.4087">
        <ele>828.20001220703</ele>
        <time>2022-04-09T10:26:47.000Z</time>
      </trkpt>
      <trkpt lat="43.93294" lon="7.40867">
        <ele>829.40002441406</ele>
        <time>2022-04-09T10:26:53.000Z</time>
      </trkpt>
      <trkpt lat="43.93292" lon="7.40866">
        <ele>829.59997558594</ele>
        <time>2022-04-09T10:26:54.000Z</time>
      </trkpt>
      <trkpt lat="43.93284" lon="7.40862">
        <ele>830.59997558594</ele>
        <time>2022-04-09T10:26:58.000Z</time>
      </trkpt>
      <trkpt lat="43.93275" lon="7.40856">
        <ele>831.59997558594</ele>
        <time>2022-04-09T10:27:02.000Z</time>
      </trkpt>
      <trkpt lat="43.93273" lon="7.40855">
        <ele>831.79998779297</ele>
        <time>2022-04-09T10:27:03.000Z</time>
      </trkpt>
      <trkpt lat="43.93258" lon="7.40854">
        <ele>832.79998779297</ele>
        <time>2022-04-09T10:27:09.000Z</time>
      </trkpt>
      <trkpt lat="43.93255" lon="7.40854">
        <ele>833</ele>
        <time>2022-04-09T10:27:10.000Z</time>
      </trkpt>
      <trkpt lat="43.93248" lon="7.40853">
        <ele>833.79998779297</ele>
        <time>2022-04-09T10:27:13.000Z</time>
      </trkpt>
      <trkpt lat="43.93239" lon="7.40852">
        <ele>835</ele>
        <time>2022-04-09T10:27:17.000Z</time>
      </trkpt>
      <trkpt lat="43.93237" lon="7.40851">
        <ele>835.20001220703</ele>
        <time>2022-04-09T10:27:18.000Z</time>
      </trkpt>
      <trkpt lat="43.93228" lon="7.40847">
        <ele>836.20001220703</ele>
        <time>2022-04-09T10:27:22.000Z</time>
      </trkpt>
      <trkpt lat="43.93221" lon="7.40842">
        <ele>837.20001220703</ele>
        <time>2022-04-09T10:27:26.000Z</time>
      </trkpt>
      <trkpt lat="43.93212" lon="7.40835">
        <ele>838.40002441406</ele>
        <time>2022-04-09T10:27:31.000Z</time>
      </trkpt>
      <trkpt lat="43.93204" lon="7.40832">
        <ele>839.20001220703</ele>
        <time>2022-04-09T10:27:35.000Z</time>
      </trkpt>
      <trkpt lat="43.93202" lon="7.40832">
        <ele>839.40002441406</ele>
        <time>2022-04-09T10:27:36.000Z</time>
      </trkpt>
      <trkpt lat="43.93191" lon="7.4083">
        <ele>840.40002441406</ele>
        <time>2022-04-09T10:27:41.000Z</time>
      </trkpt>
      <trkpt lat="43.93186" lon="7.40831">
        <ele>840.79998779297</ele>
        <time>2022-04-09T10:27:43.000Z</time>
      </trkpt>
      <trkpt lat="43.93179" lon="7.40831">
        <ele>841.59997558594</ele>
        <time>2022-04-09T10:27:46.000Z</time>
      </trkpt>
      <trkpt lat="43.93169" lon="7.4083">
        <ele>842.79998779297</ele>
        <time>2022-04-09T10:27:50.000Z</time>
      </trkpt>
      <trkpt lat="43.93166" lon="7.40829">
        <ele>843</ele>
        <time>2022-04-09T10:27:51.000Z</time>
      </trkpt>
      <trkpt lat="43.93162" lon="7.40828">
        <ele>843.79998779297</ele>
        <time>2022-04-09T10:27:53.000Z</time>
      </trkpt>
      <trkpt lat="43.93153" lon="7.40824">
        <ele>844.79998779297</ele>
        <time>2022-04-09T10:27:57.000Z</time>
      </trkpt>
      <trkpt lat="43.93147" lon="7.4082">
        <ele>845.59997558594</ele>
        <time>2022-04-09T10:28:00.000Z</time>
      </trkpt>
      <trkpt lat="43.93145" lon="7.40819">
        <ele>846</ele>
        <time>2022-04-09T10:28:01.000Z</time>
      </trkpt>
      <trkpt lat="43.93137" lon="7.40808">
        <ele>847.40002441406</ele>
        <time>2022-04-09T10:28:06.000Z</time>
      </trkpt>
      <trkpt lat="43.93133" lon="7.40801">
        <ele>848.40002441406</ele>
        <time>2022-04-09T10:28:09.000Z</time>
      </trkpt>
      <trkpt lat="43.93127" lon="7.40793">
        <ele>849.40002441406</ele>
        <time>2022-04-09T10:28:13.000Z</time>
      </trkpt>
      <trkpt lat="43.93118" lon="7.40781">
        <ele>850.20001220703</ele>
        <time>2022-04-09T10:28:19.000Z</time>
      </trkpt>
      <trkpt lat="43.93117" lon="7.40779">
        <ele>850.40002441406</ele>
        <time>2022-04-09T10:28:20.000Z</time>
      </trkpt>
      <trkpt lat="43.93115" lon="7.40771">
        <ele>851.20001220703</ele>
        <time>2022-04-09T10:28:23.000Z</time>
      </trkpt>
      <trkpt lat="43.93116" lon="7.40769">
        <ele>851.20001220703</ele>
        <time>2022-04-09T10:28:24.000Z</time>
      </trkpt>
      <trkpt lat="43.93117" lon="7.40767">
        <ele>851.59997558594</ele>
        <time>2022-04-09T10:28:25.000Z</time>
      </trkpt>
      <trkpt lat="43.93123" lon="7.40768">
        <ele>852</ele>
        <time>2022-04-09T10:28:28.000Z</time>
      </trkpt>
      <trkpt lat="43.93125" lon="7.4077">
        <ele>852.20001220703</ele>
        <time>2022-04-09T10:28:29.000Z</time>
      </trkpt>
      <trkpt lat="43.93129" lon="7.40777">
        <ele>852.59997558594</ele>
        <time>2022-04-09T10:28:32.000Z</time>
      </trkpt>
      <trkpt lat="43.93133" lon="7.40783">
        <ele>852.79998779297</ele>
        <time>2022-04-09T10:28:35.000Z</time>
      </trkpt>
      <trkpt lat="43.93138" lon="7.40791">
        <ele>853.59997558594</ele>
        <time>2022-04-09T10:28:39.000Z</time>
      </trkpt>
      <trkpt lat="43.93143" lon="7.40796">
        <ele>854.40002441406</ele>
        <time>2022-04-09T10:28:42.000Z</time>
      </trkpt>
      <trkpt lat="43.93146" lon="7.40798">
        <ele>854.79998779297</ele>
        <time>2022-04-09T10:28:44.000Z</time>
      </trkpt>
      <trkpt lat="43.93153" lon="7.40803">
        <ele>855.59997558594</ele>
        <time>2022-04-09T10:28:48.000Z</time>
      </trkpt>
      <trkpt lat="43.93157" lon="7.40805">
        <ele>855.79998779297</ele>
        <time>2022-04-09T10:28:50.000Z</time>
      </trkpt>
      <trkpt lat="43.93166" lon="7.40807">
        <ele>856.59997558594</ele>
        <time>2022-04-09T10:28:55.000Z</time>
      </trkpt>
      <trkpt lat="43.9317" lon="7.40806">
        <ele>857</ele>
        <time>2022-04-09T10:28:57.000Z</time>
      </trkpt>
      <trkpt lat="43.9318" lon="7.40804">
        <ele>857.79998779297</ele>
        <time>2022-04-09T10:29:02.000Z</time>
      </trkpt>
      <trkpt lat="43.93183" lon="7.40801">
        <ele>858</ele>
        <time>2022-04-09T10:29:04.000Z</time>
      </trkpt>
      <trkpt lat="43.93191" lon="7.40795">
        <ele>858.59997558594</ele>
        <time>2022-04-09T10:29:08.000Z</time>
      </trkpt>
      <trkpt lat="43.93197" lon="7.40792">
        <ele>859.20001220703</ele>
        <time>2022-04-09T10:29:11.000Z</time>
      </trkpt>
      <trkpt lat="43.93207" lon="7.40791">
        <ele>860.20001220703</ele>
        <time>2022-04-09T10:29:16.000Z</time>
      </trkpt>
      <trkpt lat="43.93218" lon="7.40793">
        <ele>861.40002441406</ele>
        <time>2022-04-09T10:29:22.000Z</time>
      </trkpt>
      <trkpt lat="43.93224" lon="7.40795">
        <ele>862.40002441406</ele>
        <time>2022-04-09T10:29:26.000Z</time>
      </trkpt>
      <trkpt lat="43.9323" lon="7.40796">
        <ele>863</ele>
        <time>2022-04-09T10:29:29.000Z</time>
      </trkpt>
      <trkpt lat="43.93233" lon="7.40796">
        <ele>863.40002441406</ele>
        <time>2022-04-09T10:29:31.000Z</time>
      </trkpt>
      <trkpt lat="43.93239" lon="7.40796">
        <ele>864</ele>
        <time>2022-04-09T10:29:34.000Z</time>
      </trkpt>
      <trkpt lat="43.93243" lon="7.40796">
        <ele>864.59997558594</ele>
        <time>2022-04-09T10:29:36.000Z</time>
      </trkpt>
      <trkpt lat="43.93253" lon="7.40793">
        <ele>865.79998779297</ele>
        <time>2022-04-09T10:29:41.000Z</time>
      </trkpt>
      <trkpt lat="43.93267" lon="7.40788">
        <ele>866.59997558594</ele>
        <time>2022-04-09T10:29:48.000Z</time>
      </trkpt>
      <trkpt lat="43.93269" lon="7.40787">
        <ele>866.79998779297</ele>
        <time>2022-04-09T10:29:49.000Z</time>
      </trkpt>
      <trkpt lat="43.93281" lon="7.40783">
        <ele>867.59997558594</ele>
        <time>2022-04-09T10:29:55.000Z</time>
      </trkpt>
      <trkpt lat="43.93287" lon="7.40782">
        <ele>867.79998779297</ele>
        <time>2022-04-09T10:29:58.000Z</time>
      </trkpt>
      <trkpt lat="43.93295" lon="7.40781">
        <ele>869</ele>
        <time>2022-04-09T10:30:02.000Z</time>
      </trkpt>
      <trkpt lat="43.93297" lon="7.40781">
        <ele>869.20001220703</ele>
        <time>2022-04-09T10:30:03.000Z</time>
      </trkpt>
      <trkpt lat="43.93311" lon="7.40779">
        <ele>870</ele>
        <time>2022-04-09T10:30:10.000Z</time>
      </trkpt>
      <trkpt lat="43.93313" lon="7.40778">
        <ele>870.20001220703</ele>
        <time>2022-04-09T10:30:11.000Z</time>
      </trkpt>
      <trkpt lat="43.93323" lon="7.40777">
        <ele>871.20001220703</ele>
        <time>2022-04-09T10:30:16.000Z</time>
      </trkpt>
      <trkpt lat="43.93332" lon="7.40775">
        <ele>872</ele>
        <time>2022-04-09T10:30:20.000Z</time>
      </trkpt>
      <trkpt lat="43.93336" lon="7.40774">
        <ele>872.20001220703</ele>
        <time>2022-04-09T10:30:22.000Z</time>
      </trkpt>
      <trkpt lat="43.93346" lon="7.4077">
        <ele>873.20001220703</ele>
        <time>2022-04-09T10:30:27.000Z</time>
      </trkpt>
      <trkpt lat="43.93348" lon="7.40769">
        <ele>873.59997558594</ele>
        <time>2022-04-09T10:30:28.000Z</time>
      </trkpt>
      <trkpt lat="43.93359" lon="7.40764">
        <ele>874.40002441406</ele>
        <time>2022-04-09T10:30:33.000Z</time>
      </trkpt>
      <trkpt lat="43.93366" lon="7.40759">
        <ele>875</ele>
        <time>2022-04-09T10:30:37.000Z</time>
      </trkpt>
      <trkpt lat="43.93371" lon="7.40754">
        <ele>875.59997558594</ele>
        <time>2022-04-09T10:30:40.000Z</time>
      </trkpt>
      <trkpt lat="43.93373" lon="7.4075">
        <ele>875.79998779297</ele>
        <time>2022-04-09T10:30:42.000Z</time>
      </trkpt>
      <trkpt lat="43.93373" lon="7.40748">
        <ele>875.79998779297</ele>
        <time>2022-04-09T10:30:43.000Z</time>
      </trkpt>
      <trkpt lat="43.93368" lon="7.40745">
        <ele>876.40002441406</ele>
        <time>2022-04-09T10:30:48.000Z</time>
      </trkpt>
      <trkpt lat="43.93364" lon="7.40746">
        <ele>876.59997558594</ele>
        <time>2022-04-09T10:30:50.000Z</time>
      </trkpt>
      <trkpt lat="43.93355" lon="7.40751">
        <ele>877.20001220703</ele>
        <time>2022-04-09T10:30:55.000Z</time>
      </trkpt>
      <trkpt lat="43.93351" lon="7.40752">
        <ele>877.59997558594</ele>
        <time>2022-04-09T10:30:57.000Z</time>
      </trkpt>
      <trkpt lat="43.93343" lon="7.40752">
        <ele>878.20001220703</ele>
        <time>2022-04-09T10:31:01.000Z</time>
      </trkpt>
      <trkpt lat="43.93337" lon="7.40751">
        <ele>878.59997558594</ele>
        <time>2022-04-09T10:31:04.000Z</time>
      </trkpt>
      <trkpt lat="43.9333" lon="7.40749">
        <ele>879.40002441406</ele>
        <time>2022-04-09T10:31:08.000Z</time>
      </trkpt>
      <trkpt lat="43.93328" lon="7.40749">
        <ele>879.59997558594</ele>
        <time>2022-04-09T10:31:09.000Z</time>
      </trkpt>
      <trkpt lat="43.93312" lon="7.40743">
        <ele>880.59997558594</ele>
        <time>2022-04-09T10:31:17.000Z</time>
      </trkpt>
      <trkpt lat="43.9331" lon="7.40742">
        <ele>880.59997558594</ele>
        <time>2022-04-09T10:31:18.000Z</time>
      </trkpt>
      <trkpt lat="43.93298" lon="7.40739">
        <ele>882</ele>
        <time>2022-04-09T10:31:24.000Z</time>
      </trkpt>
      <trkpt lat="43.93295" lon="7.40738">
        <ele>882.20001220703</ele>
        <time>2022-04-09T10:31:25.000Z</time>
      </trkpt>
      <trkpt lat="43.93283" lon="7.40736">
        <ele>883</ele>
        <time>2022-04-09T10:31:31.000Z</time>
      </trkpt>
      <trkpt lat="43.93277" lon="7.40737">
        <ele>883.79998779297</ele>
        <time>2022-04-09T10:31:34.000Z</time>
      </trkpt>
      <trkpt lat="43.93275" lon="7.40736">
        <ele>884.20001220703</ele>
        <time>2022-04-09T10:31:35.000Z</time>
      </trkpt>
      <trkpt lat="43.93262" lon="7.40737">
        <ele>885</ele>
        <time>2022-04-09T10:31:41.000Z</time>
      </trkpt>
      <trkpt lat="43.93254" lon="7.40738">
        <ele>885.40002441406</ele>
        <time>2022-04-09T10:31:44.000Z</time>
      </trkpt>
      <trkpt lat="43.93245" lon="7.40739">
        <ele>886.79998779297</ele>
        <time>2022-04-09T10:31:48.000Z</time>
      </trkpt>
      <trkpt lat="43.9323" lon="7.40738">
        <ele>887.59997558594</ele>
        <time>2022-04-09T10:31:54.000Z</time>
      </trkpt>
      <trkpt lat="43.93221" lon="7.40737">
        <ele>888</ele>
        <time>2022-04-09T10:31:58.000Z</time>
      </trkpt>
      <trkpt lat="43.93208" lon="7.40734">
        <ele>889</ele>
        <time>2022-04-09T10:32:03.000Z</time>
      </trkpt>
      <trkpt lat="43.93204" lon="7.40733">
        <ele>889.20001220703</ele>
        <time>2022-04-09T10:32:05.000Z</time>
      </trkpt>
      <trkpt lat="43.93195" lon="7.40732">
        <ele>889.40002441406</ele>
        <time>2022-04-09T10:32:09.000Z</time>
      </trkpt>
      <trkpt lat="43.93184" lon="7.40728">
        <ele>890</ele>
        <time>2022-04-09T10:32:14.000Z</time>
      </trkpt>
      <trkpt lat="43.93184" lon="7.40725">
        <ele>890.20001220703</ele>
        <time>2022-04-09T10:32:15.000Z</time>
      </trkpt>
      <trkpt lat="43.93188" lon="7.4072">
        <ele>891</ele>
        <time>2022-04-09T10:32:18.000Z</time>
      </trkpt>
      <trkpt lat="43.9319" lon="7.4072">
        <ele>891.40002441406</ele>
        <time>2022-04-09T10:32:19.000Z</time>
      </trkpt>
      <trkpt lat="43.93199" lon="7.40721">
        <ele>892.40002441406</ele>
        <time>2022-04-09T10:32:23.000Z</time>
      </trkpt>
      <trkpt lat="43.93201" lon="7.40722">
        <ele>892.59997558594</ele>
        <time>2022-04-09T10:32:24.000Z</time>
      </trkpt>
      <trkpt lat="43.93207" lon="7.40723">
        <ele>893.59997558594</ele>
        <time>2022-04-09T10:32:27.000Z</time>
      </trkpt>
      <trkpt lat="43.93214" lon="7.40722">
        <ele>894.20001220703</ele>
        <time>2022-04-09T10:32:31.000Z</time>
      </trkpt>
      <trkpt lat="43.93216" lon="7.40722">
        <ele>894.59997558594</ele>
        <time>2022-04-09T10:32:32.000Z</time>
      </trkpt>
      <trkpt lat="43.93224" lon="7.4072">
        <ele>895.79998779297</ele>
        <time>2022-04-09T10:32:36.000Z</time>
      </trkpt>
      <trkpt lat="43.93234" lon="7.40716">
        <ele>896.40002441406</ele>
        <time>2022-04-09T10:32:40.000Z</time>
      </trkpt>
      <trkpt lat="43.93238" lon="7.40714">
        <ele>897</ele>
        <time>2022-04-09T10:32:42.000Z</time>
      </trkpt>
      <trkpt lat="43.93246" lon="7.40708">
        <ele>898</ele>
        <time>2022-04-09T10:32:46.000Z</time>
      </trkpt>
      <trkpt lat="43.93249" lon="7.40706">
        <ele>898.40002441406</ele>
        <time>2022-04-09T10:32:47.000Z</time>
      </trkpt>
      <trkpt lat="43.93255" lon="7.40703">
        <ele>899.20001220703</ele>
        <time>2022-04-09T10:32:49.000Z</time>
      </trkpt>
      <trkpt lat="43.93264" lon="7.40698">
        <ele>900.20001220703</ele>
        <time>2022-04-09T10:32:53.000Z</time>
      </trkpt>
      <trkpt lat="43.93266" lon="7.40696">
        <ele>900.40002441406</ele>
        <time>2022-04-09T10:32:54.000Z</time>
      </trkpt>
      <trkpt lat="43.93274" lon="7.40693">
        <ele>901.40002441406</ele>
        <time>2022-04-09T10:32:57.000Z</time>
      </trkpt>
      <trkpt lat="43.93279" lon="7.4069">
        <ele>902</ele>
        <time>2022-04-09T10:32:59.000Z</time>
      </trkpt>
      <trkpt lat="43.93284" lon="7.40688">
        <ele>902.40002441406</ele>
        <time>2022-04-09T10:33:01.000Z</time>
      </trkpt>
      <trkpt lat="43.93301" lon="7.40682">
        <ele>903.79998779297</ele>
        <time>2022-04-09T10:33:07.000Z</time>
      </trkpt>
      <trkpt lat="43.93304" lon="7.40682">
        <ele>903.79998779297</ele>
        <time>2022-04-09T10:33:08.000Z</time>
      </trkpt>
      <trkpt lat="43.93317" lon="7.40678">
        <ele>905</ele>
        <time>2022-04-09T10:33:12.000Z</time>
      </trkpt>
      <trkpt lat="43.93326" lon="7.40674">
        <ele>906.20001220703</ele>
        <time>2022-04-09T10:33:15.000Z</time>
      </trkpt>
      <trkpt lat="43.93338" lon="7.40667">
        <ele>907.40002441406</ele>
        <time>2022-04-09T10:33:19.000Z</time>
      </trkpt>
      <trkpt lat="43.93344" lon="7.40663">
        <ele>907.79998779297</ele>
        <time>2022-04-09T10:33:21.000Z</time>
      </trkpt>
      <trkpt lat="43.93351" lon="7.40655">
        <ele>908.59997558594</ele>
        <time>2022-04-09T10:33:24.000Z</time>
      </trkpt>
      <trkpt lat="43.9336" lon="7.40643">
        <ele>909.79998779297</ele>
        <time>2022-04-09T10:33:28.000Z</time>
      </trkpt>
      <trkpt lat="43.93368" lon="7.40631">
        <ele>911.20001220703</ele>
        <time>2022-04-09T10:33:32.000Z</time>
      </trkpt>
      <trkpt lat="43.93372" lon="7.40626">
        <ele>911.59997558594</ele>
        <time>2022-04-09T10:33:34.000Z</time>
      </trkpt>
      <trkpt lat="43.93383" lon="7.4062">
        <ele>912.20001220703</ele>
        <time>2022-04-09T10:33:38.000Z</time>
      </trkpt>
      <trkpt lat="43.93385" lon="7.40618">
        <ele>912.40002441406</ele>
        <time>2022-04-09T10:33:39.000Z</time>
      </trkpt>
      <trkpt lat="43.93393" lon="7.40615">
        <ele>913.40002441406</ele>
        <time>2022-04-09T10:33:42.000Z</time>
      </trkpt>
      <trkpt lat="43.934" lon="7.40612">
        <ele>914.40002441406</ele>
        <time>2022-04-09T10:33:45.000Z</time>
      </trkpt>
      <trkpt lat="43.93407" lon="7.4061">
        <ele>915.40002441406</ele>
        <time>2022-04-09T10:33:48.000Z</time>
      </trkpt>
      <trkpt lat="43.9341" lon="7.4061">
        <ele>915.59997558594</ele>
        <time>2022-04-09T10:33:49.000Z</time>
      </trkpt>
      <trkpt lat="43.93424" lon="7.40607">
        <ele>916.79998779297</ele>
        <time>2022-04-09T10:33:54.000Z</time>
      </trkpt>
      <trkpt lat="43.93427" lon="7.40607">
        <ele>916.79998779297</ele>
        <time>2022-04-09T10:33:55.000Z</time>
      </trkpt>
      <trkpt lat="43.9344" lon="7.40609">
        <ele>917.79998779297</ele>
        <time>2022-04-09T10:34:00.000Z</time>
      </trkpt>
      <trkpt lat="43.93447" lon="7.40611">
        <ele>918.79998779297</ele>
        <time>2022-04-09T10:34:03.000Z</time>
      </trkpt>
      <trkpt lat="43.93456" lon="7.40613">
        <ele>920</ele>
        <time>2022-04-09T10:34:06.000Z</time>
      </trkpt>
      <trkpt lat="43.93463" lon="7.40615">
        <ele>920.40002441406</ele>
        <time>2022-04-09T10:34:08.000Z</time>
      </trkpt>
      <trkpt lat="43.93472" lon="7.40617">
        <ele>921.20001220703</ele>
        <time>2022-04-09T10:34:11.000Z</time>
      </trkpt>
      <trkpt lat="43.93482" lon="7.40619">
        <ele>922.59997558594</ele>
        <time>2022-04-09T10:34:15.000Z</time>
      </trkpt>
      <trkpt lat="43.93497" lon="7.40625">
        <ele>923.59997558594</ele>
        <time>2022-04-09T10:34:21.000Z</time>
      </trkpt>
      <trkpt lat="43.93506" lon="7.40628">
        <ele>924</ele>
        <time>2022-04-09T10:34:24.000Z</time>
      </trkpt>
      <trkpt lat="43.93514" lon="7.40632">
        <ele>924.79998779297</ele>
        <time>2022-04-09T10:34:27.000Z</time>
      </trkpt>
      <trkpt lat="43.93521" lon="7.40636">
        <ele>926</ele>
        <time>2022-04-09T10:34:30.000Z</time>
      </trkpt>
      <trkpt lat="43.93524" lon="7.40638">
        <ele>926.20001220703</ele>
        <time>2022-04-09T10:34:31.000Z</time>
      </trkpt>
      <trkpt lat="43.93533" lon="7.40646">
        <ele>927</ele>
        <time>2022-04-09T10:34:35.000Z</time>
      </trkpt>
      <trkpt lat="43.93543" lon="7.40656">
        <ele>928.20001220703</ele>
        <time>2022-04-09T10:34:39.000Z</time>
      </trkpt>
      <trkpt lat="43.93545" lon="7.40659">
        <ele>928.59997558594</ele>
        <time>2022-04-09T10:34:40.000Z</time>
      </trkpt>
      <trkpt lat="43.93549" lon="7.40663">
        <ele>929.40002441406</ele>
        <time>2022-04-09T10:34:42.000Z</time>
      </trkpt>
      <trkpt lat="43.93555" lon="7.4067">
        <ele>930.59997558594</ele>
        <time>2022-04-09T10:34:45.000Z</time>
      </trkpt>
      <trkpt lat="43.93561" lon="7.40676">
        <ele>931.59997558594</ele>
        <time>2022-04-09T10:34:48.000Z</time>
      </trkpt>
      <trkpt lat="43.93578" lon="7.40687">
        <ele>932.79998779297</ele>
        <time>2022-04-09T10:34:54.000Z</time>
      </trkpt>
      <trkpt lat="43.93587" lon="7.40692">
        <ele>934</ele>
        <time>2022-04-09T10:34:57.000Z</time>
      </trkpt>
      <trkpt lat="43.93592" lon="7.40696">
        <ele>935.20001220703</ele>
        <time>2022-04-09T10:34:59.000Z</time>
      </trkpt>
      <trkpt lat="43.93599" lon="7.407">
        <ele>936.20001220703</ele>
        <time>2022-04-09T10:35:02.000Z</time>
      </trkpt>
      <trkpt lat="43.93612" lon="7.40707">
        <ele>937.40002441406</ele>
        <time>2022-04-09T10:35:07.000Z</time>
      </trkpt>
      <trkpt lat="43.93616" lon="7.40709">
        <ele>938</ele>
        <time>2022-04-09T10:35:09.000Z</time>
      </trkpt>
      <trkpt lat="43.9362" lon="7.4071">
        <ele>938.59997558594</ele>
        <time>2022-04-09T10:35:11.000Z</time>
      </trkpt>
      <trkpt lat="43.93629" lon="7.40712">
        <ele>939.59997558594</ele>
        <time>2022-04-09T10:35:15.000Z</time>
      </trkpt>
      <trkpt lat="43.93634" lon="7.40708">
        <ele>940.20001220703</ele>
        <time>2022-04-09T10:35:18.000Z</time>
      </trkpt>
      <trkpt lat="43.93638" lon="7.40702">
        <ele>940.79998779297</ele>
        <time>2022-04-09T10:35:21.000Z</time>
      </trkpt>
      <trkpt lat="43.93638" lon="7.407">
        <ele>940.79998779297</ele>
        <time>2022-04-09T10:35:22.000Z</time>
      </trkpt>
      <trkpt lat="43.93637" lon="7.40697">
        <ele>941</ele>
        <time>2022-04-09T10:35:23.000Z</time>
      </trkpt>
      <trkpt lat="43.93631" lon="7.4069">
        <ele>941.59997558594</ele>
        <time>2022-04-09T10:35:26.000Z</time>
      </trkpt>
      <trkpt lat="43.93628" lon="7.40687">
        <ele>941.79998779297</ele>
        <time>2022-04-09T10:35:27.000Z</time>
      </trkpt>
      <trkpt lat="43.93626" lon="7.40685">
        <ele>941.79998779297</ele>
        <time>2022-04-09T10:35:28.000Z</time>
      </trkpt>
      <trkpt lat="43.93601" lon="7.40662">
        <ele>942.59997558594</ele>
        <time>2022-04-09T10:35:37.000Z</time>
      </trkpt>
      <trkpt lat="43.93599" lon="7.40659">
        <ele>942.79998779297</ele>
        <time>2022-04-09T10:35:38.000Z</time>
      </trkpt>
      <trkpt lat="43.9358" lon="7.40639">
        <ele>944</ele>
        <time>2022-04-09T10:35:46.000Z</time>
      </trkpt>
      <trkpt lat="43.93565" lon="7.40624">
        <ele>944.79998779297</ele>
        <time>2022-04-09T10:35:53.000Z</time>
      </trkpt>
      <trkpt lat="43.93563" lon="7.40622">
        <ele>945</ele>
        <time>2022-04-09T10:35:54.000Z</time>
      </trkpt>
      <trkpt lat="43.93547" lon="7.40605">
        <ele>946</ele>
        <time>2022-04-09T10:36:01.000Z</time>
      </trkpt>
      <trkpt lat="43.93545" lon="7.40603">
        <ele>946.20001220703</ele>
        <time>2022-04-09T10:36:02.000Z</time>
      </trkpt>
      <trkpt lat="43.93531" lon="7.40588">
        <ele>947.59997558594</ele>
        <time>2022-04-09T10:36:08.000Z</time>
      </trkpt>
      <trkpt lat="43.93529" lon="7.40585">
        <ele>947.79998779297</ele>
        <time>2022-04-09T10:36:09.000Z</time>
      </trkpt>
      <trkpt lat="43.93523" lon="7.40578">
        <ele>948.59997558594</ele>
        <time>2022-04-09T10:36:12.000Z</time>
      </trkpt>
      <trkpt lat="43.93513" lon="7.40564">
        <ele>949.40002441406</ele>
        <time>2022-04-09T10:36:17.000Z</time>
      </trkpt>
      <trkpt lat="43.93509" lon="7.40559">
        <ele>949.59997558594</ele>
        <time>2022-04-09T10:36:19.000Z</time>
      </trkpt>
      <trkpt lat="43.93499" lon="7.40545">
        <ele>950.79998779297</ele>
        <time>2022-04-09T10:36:24.000Z</time>
      </trkpt>
      <trkpt lat="43.93497" lon="7.40543">
        <ele>951.20001220703</ele>
        <time>2022-04-09T10:36:25.000Z</time>
      </trkpt>
      <trkpt lat="43.93488" lon="7.40533">
        <ele>951.79998779297</ele>
        <time>2022-04-09T10:36:29.000Z</time>
      </trkpt>
      <trkpt lat="43.9348" lon="7.40522">
        <ele>952.59997558594</ele>
        <time>2022-04-09T10:36:33.000Z</time>
      </trkpt>
      <trkpt lat="43.93476" lon="7.40516">
        <ele>953</ele>
        <time>2022-04-09T10:36:35.000Z</time>
      </trkpt>
      <trkpt lat="43.93466" lon="7.40506">
        <ele>954</ele>
        <time>2022-04-09T10:36:39.000Z</time>
      </trkpt>
      <trkpt lat="43.93461" lon="7.40502">
        <ele>954.59997558594</ele>
        <time>2022-04-09T10:36:41.000Z</time>
      </trkpt>
      <trkpt lat="43.93455" lon="7.40499">
        <ele>955.40002441406</ele>
        <time>2022-04-09T10:36:43.000Z</time>
      </trkpt>
      <trkpt lat="43.93442" lon="7.40496">
        <ele>956.59997558594</ele>
        <time>2022-04-09T10:36:47.000Z</time>
      </trkpt>
      <trkpt lat="43.93434" lon="7.40494">
        <ele>958</ele>
        <time>2022-04-09T10:36:50.000Z</time>
      </trkpt>
      <trkpt lat="43.93422" lon="7.40496">
        <ele>958.79998779297</ele>
        <time>2022-04-09T10:36:54.000Z</time>
      </trkpt>
      <trkpt lat="43.93419" lon="7.40497">
        <ele>959.20001220703</ele>
        <time>2022-04-09T10:36:55.000Z</time>
      </trkpt>
      <trkpt lat="43.9341" lon="7.40498">
        <ele>960.20001220703</ele>
        <time>2022-04-09T10:36:58.000Z</time>
      </trkpt>
      <trkpt lat="43.93404" lon="7.40498">
        <ele>960.79998779297</ele>
        <time>2022-04-09T10:37:00.000Z</time>
      </trkpt>
      <trkpt lat="43.93395" lon="7.40498">
        <ele>961.20001220703</ele>
        <time>2022-04-09T10:37:03.000Z</time>
      </trkpt>
      <trkpt lat="43.93386" lon="7.40496">
        <ele>962</ele>
        <time>2022-04-09T10:37:06.000Z</time>
      </trkpt>
      <trkpt lat="43.9338" lon="7.40495">
        <ele>962.40002441406</ele>
        <time>2022-04-09T10:37:08.000Z</time>
      </trkpt>
      <trkpt lat="43.93363" lon="7.40491">
        <ele>963.59997558594</ele>
        <time>2022-04-09T10:37:14.000Z</time>
      </trkpt>
      <trkpt lat="43.93347" lon="7.40489">
        <ele>965</ele>
        <time>2022-04-09T10:37:19.000Z</time>
      </trkpt>
      <trkpt lat="43.93335" lon="7.40489">
        <ele>966.20001220703</ele>
        <time>2022-04-09T10:37:23.000Z</time>
      </trkpt>
      <trkpt lat="43.93332" lon="7.40489">
        <ele>966.40002441406</ele>
        <time>2022-04-09T10:37:24.000Z</time>
      </trkpt>
      <trkpt lat="43.93316" lon="7.40494">
        <ele>967.20001220703</ele>
        <time>2022-04-09T10:37:29.000Z</time>
      </trkpt>
      <trkpt lat="43.93311" lon="7.40497">
        <ele>967.59997558594</ele>
        <time>2022-04-09T10:37:31.000Z</time>
      </trkpt>
      <trkpt lat="43.93302" lon="7.405">
        <ele>968.59997558594</ele>
        <time>2022-04-09T10:37:34.000Z</time>
      </trkpt>
      <trkpt lat="43.93294" lon="7.40504">
        <ele>969.59997558594</ele>
        <time>2022-04-09T10:37:37.000Z</time>
      </trkpt>
      <trkpt lat="43.93288" lon="7.40506">
        <ele>970</ele>
        <time>2022-04-09T10:37:39.000Z</time>
      </trkpt>
      <trkpt lat="43.93279" lon="7.4051">
        <ele>970.59997558594</ele>
        <time>2022-04-09T10:37:42.000Z</time>
      </trkpt>
      <trkpt lat="43.93271" lon="7.40513">
        <ele>971.40002441406</ele>
        <time>2022-04-09T10:37:45.000Z</time>
      </trkpt>
      <trkpt lat="43.93265" lon="7.40515">
        <ele>971.79998779297</ele>
        <time>2022-04-09T10:37:47.000Z</time>
      </trkpt>
      <trkpt lat="43.93253" lon="7.40519">
        <ele>972.59997558594</ele>
        <time>2022-04-09T10:37:51.000Z</time>
      </trkpt>
      <trkpt lat="43.9325" lon="7.4052">
        <ele>973</ele>
        <time>2022-04-09T10:37:52.000Z</time>
      </trkpt>
      <trkpt lat="43.93233" lon="7.40519">
        <ele>973.79998779297</ele>
        <time>2022-04-09T10:37:58.000Z</time>
      </trkpt>
      <trkpt lat="43.9323" lon="7.40518">
        <ele>974.20001220703</ele>
        <time>2022-04-09T10:37:59.000Z</time>
      </trkpt>
      <trkpt lat="43.93223" lon="7.40514">
        <ele>975.40002441406</ele>
        <time>2022-04-09T10:38:02.000Z</time>
      </trkpt>
      <trkpt lat="43.93216" lon="7.40507">
        <ele>976.40002441406</ele>
        <time>2022-04-09T10:38:05.000Z</time>
      </trkpt>
      <trkpt lat="43.93209" lon="7.40501">
        <ele>977.40002441406</ele>
        <time>2022-04-09T10:38:08.000Z</time>
      </trkpt>
      <trkpt lat="43.93199" lon="7.40494">
        <ele>978.79998779297</ele>
        <time>2022-04-09T10:38:12.000Z</time>
      </trkpt>
      <trkpt lat="43.93197" lon="7.40492">
        <ele>979</ele>
        <time>2022-04-09T10:38:13.000Z</time>
      </trkpt>
      <trkpt lat="43.93191" lon="7.40488">
        <ele>980</ele>
        <time>2022-04-09T10:38:15.000Z</time>
      </trkpt>
      <trkpt lat="43.93183" lon="7.4048">
        <ele>981.20001220703</ele>
        <time>2022-04-09T10:38:19.000Z</time>
      </trkpt>
      <trkpt lat="43.93175" lon="7.40469">
        <ele>982.20001220703</ele>
        <time>2022-04-09T10:38:23.000Z</time>
      </trkpt>
      <trkpt lat="43.93167" lon="7.40458">
        <ele>983.40002441406</ele>
        <time>2022-04-09T10:38:27.000Z</time>
      </trkpt>
      <trkpt lat="43.93165" lon="7.40456">
        <ele>983.79998779297</ele>
        <time>2022-04-09T10:38:28.000Z</time>
      </trkpt>
      <trkpt lat="43.9316" lon="7.4045">
        <ele>984.59997558594</ele>
        <time>2022-04-09T10:38:30.000Z</time>
      </trkpt>
      <trkpt lat="43.93152" lon="7.4044">
        <ele>985.79998779297</ele>
        <time>2022-04-09T10:38:34.000Z</time>
      </trkpt>
      <trkpt lat="43.93145" lon="7.40431">
        <ele>986.59997558594</ele>
        <time>2022-04-09T10:38:37.000Z</time>
      </trkpt>
      <trkpt lat="43.93142" lon="7.40429">
        <ele>987</ele>
        <time>2022-04-09T10:38:38.000Z</time>
      </trkpt>
      <trkpt lat="43.93133" lon="7.40417">
        <ele>988</ele>
        <time>2022-04-09T10:38:42.000Z</time>
      </trkpt>
      <trkpt lat="43.93129" lon="7.40412">
        <ele>988.59997558594</ele>
        <time>2022-04-09T10:38:44.000Z</time>
      </trkpt>
      <trkpt lat="43.93124" lon="7.40406">
        <ele>989.20001220703</ele>
        <time>2022-04-09T10:38:46.000Z</time>
      </trkpt>
      <trkpt lat="43.93118" lon="7.40395">
        <ele>990.20001220703</ele>
        <time>2022-04-09T10:38:49.000Z</time>
      </trkpt>
      <trkpt lat="43.93116" lon="7.40392">
        <ele>990.79998779297</ele>
        <time>2022-04-09T10:38:50.000Z</time>
      </trkpt>
      <trkpt lat="43.93112" lon="7.40386">
        <ele>991.79998779297</ele>
        <time>2022-04-09T10:38:52.000Z</time>
      </trkpt>
      <trkpt lat="43.93107" lon="7.40375">
        <ele>992.79998779297</ele>
        <time>2022-04-09T10:38:55.000Z</time>
      </trkpt>
      <trkpt lat="43.93105" lon="7.40371">
        <ele>993.20001220703</ele>
        <time>2022-04-09T10:38:56.000Z</time>
      </trkpt>
      <trkpt lat="43.931" lon="7.4036">
        <ele>994</ele>
        <time>2022-04-09T10:38:59.000Z</time>
      </trkpt>
      <trkpt lat="43.93097" lon="7.40347">
        <ele>995</ele>
        <time>2022-04-09T10:39:02.000Z</time>
      </trkpt>
      <trkpt lat="43.93095" lon="7.40344">
        <ele>995</ele>
        <time>2022-04-09T10:39:03.000Z</time>
      </trkpt>
      <trkpt lat="43.93088" lon="7.40329">
        <ele>996.20001220703</ele>
        <time>2022-04-09T10:39:07.000Z</time>
      </trkpt>
      <trkpt lat="43.93083" lon="7.40323">
        <ele>996.79998779297</ele>
        <time>2022-04-09T10:39:09.000Z</time>
      </trkpt>
      <trkpt lat="43.93077" lon="7.40319">
        <ele>997.40002441406</ele>
        <time>2022-04-09T10:39:11.000Z</time>
      </trkpt>
      <trkpt lat="43.93064" lon="7.40314">
        <ele>998</ele>
        <time>2022-04-09T10:39:15.000Z</time>
      </trkpt>
      <trkpt lat="43.93054" lon="7.40309">
        <ele>998.40002441406</ele>
        <time>2022-04-09T10:39:18.000Z</time>
      </trkpt>
      <trkpt lat="43.93044" lon="7.4031">
        <ele>999.79998779297</ele>
        <time>2022-04-09T10:39:21.000Z</time>
      </trkpt>
      <trkpt lat="43.93034" lon="7.40323">
        <ele>1000.799987793</ele>
        <time>2022-04-09T10:39:25.000Z</time>
      </trkpt>
      <trkpt lat="43.93032" lon="7.40327">
        <ele>1001</ele>
        <time>2022-04-09T10:39:26.000Z</time>
      </trkpt>
      <trkpt lat="43.93026" lon="7.40338">
        <ele>1002</ele>
        <time>2022-04-09T10:39:29.000Z</time>
      </trkpt>
      <trkpt lat="43.93022" lon="7.40346">
        <ele>1002.5999755859</ele>
        <time>2022-04-09T10:39:31.000Z</time>
      </trkpt>
      <trkpt lat="43.93019" lon="7.4035">
        <ele>1003.200012207</ele>
        <time>2022-04-09T10:39:32.000Z</time>
      </trkpt>
      <trkpt lat="43.93008" lon="7.4036">
        <ele>1004.4000244141</ele>
        <time>2022-04-09T10:39:36.000Z</time>
      </trkpt>
      <trkpt lat="43.92996" lon="7.40368">
        <ele>1005.5999755859</ele>
        <time>2022-04-09T10:39:40.000Z</time>
      </trkpt>
      <trkpt lat="43.9299" lon="7.40373">
        <ele>1006.4000244141</ele>
        <time>2022-04-09T10:39:42.000Z</time>
      </trkpt>
      <trkpt lat="43.92987" lon="7.40374">
        <ele>1006.5999755859</ele>
        <time>2022-04-09T10:39:43.000Z</time>
      </trkpt>
      <trkpt lat="43.92978" lon="7.40379">
        <ele>1008</ele>
        <time>2022-04-09T10:39:46.000Z</time>
      </trkpt>
      <trkpt lat="43.92968" lon="7.40382">
        <ele>1009.4000244141</ele>
        <time>2022-04-09T10:39:49.000Z</time>
      </trkpt>
      <trkpt lat="43.92957" lon="7.40385">
        <ele>1010.4000244141</ele>
        <time>2022-04-09T10:39:52.000Z</time>
      </trkpt>
      <trkpt lat="43.92948" lon="7.40391">
        <ele>1011.5999755859</ele>
        <time>2022-04-09T10:39:55.000Z</time>
      </trkpt>
      <trkpt lat="43.92945" lon="7.40393">
        <ele>1011.799987793</ele>
        <time>2022-04-09T10:39:56.000Z</time>
      </trkpt>
      <trkpt lat="43.92936" lon="7.404">
        <ele>1012.799987793</ele>
        <time>2022-04-09T10:39:59.000Z</time>
      </trkpt>
      <trkpt lat="43.92927" lon="7.40409">
        <ele>1013.5999755859</ele>
        <time>2022-04-09T10:40:02.000Z</time>
      </trkpt>
      <trkpt lat="43.92925" lon="7.40411">
        <ele>1013.799987793</ele>
        <time>2022-04-09T10:40:03.000Z</time>
      </trkpt>
      <trkpt lat="43.92917" lon="7.40422">
        <ele>1015</ele>
        <time>2022-04-09T10:40:06.000Z</time>
      </trkpt>
      <trkpt lat="43.92912" lon="7.40429">
        <ele>1015.4000244141</ele>
        <time>2022-04-09T10:40:08.000Z</time>
      </trkpt>
      <trkpt lat="43.92909" lon="7.40439">
        <ele>1016</ele>
        <time>2022-04-09T10:40:10.000Z</time>
      </trkpt>
      <trkpt lat="43.92906" lon="7.40452">
        <ele>1017</ele>
        <time>2022-04-09T10:40:13.000Z</time>
      </trkpt>
      <trkpt lat="43.92905" lon="7.40462">
        <ele>1018.200012207</ele>
        <time>2022-04-09T10:40:15.000Z</time>
      </trkpt>
      <trkpt lat="43.92904" lon="7.40474">
        <ele>1019.4000244141</ele>
        <time>2022-04-09T10:40:18.000Z</time>
      </trkpt>
      <trkpt lat="43.92904" lon="7.40479">
        <ele>1019.5999755859</ele>
        <time>2022-04-09T10:40:19.000Z</time>
      </trkpt>
      <trkpt lat="43.92901" lon="7.40491">
        <ele>1020.5999755859</ele>
        <time>2022-04-09T10:40:22.000Z</time>
      </trkpt>
      <trkpt lat="43.92896" lon="7.40498">
        <ele>1021.5999755859</ele>
        <time>2022-04-09T10:40:24.000Z</time>
      </trkpt>
      <trkpt lat="43.92888" lon="7.40507">
        <ele>1022.799987793</ele>
        <time>2022-04-09T10:40:27.000Z</time>
      </trkpt>
      <trkpt lat="43.92882" lon="7.40509">
        <ele>1023</ele>
        <time>2022-04-09T10:40:29.000Z</time>
      </trkpt>
      <trkpt lat="43.92872" lon="7.40511">
        <ele>1023.799987793</ele>
        <time>2022-04-09T10:40:32.000Z</time>
      </trkpt>
      <trkpt lat="43.92862" lon="7.40514">
        <ele>1024.8000488281</ele>
        <time>2022-04-09T10:40:35.000Z</time>
      </trkpt>
      <trkpt lat="43.92858" lon="7.40516">
        <ele>1025</ele>
        <time>2022-04-09T10:40:36.000Z</time>
      </trkpt>
      <trkpt lat="43.92848" lon="7.40526">
        <ele>1026.4000244141</ele>
        <time>2022-04-09T10:40:40.000Z</time>
      </trkpt>
      <trkpt lat="43.92836" lon="7.40546">
        <ele>1027.4000244141</ele>
        <time>2022-04-09T10:40:46.000Z</time>
      </trkpt>
      <trkpt lat="43.92827" lon="7.40563">
        <ele>1028.8000488281</ele>
        <time>2022-04-09T10:40:50.000Z</time>
      </trkpt>
      <trkpt lat="43.92822" lon="7.40571">
        <ele>1029.1999511719</ele>
        <time>2022-04-09T10:40:52.000Z</time>
      </trkpt>
      <trkpt lat="43.92819" lon="7.40579">
        <ele>1029.8000488281</ele>
        <time>2022-04-09T10:40:54.000Z</time>
      </trkpt>
      <trkpt lat="43.92815" lon="7.4059">
        <ele>1031</ele>
        <time>2022-04-09T10:40:57.000Z</time>
      </trkpt>
      <trkpt lat="43.92813" lon="7.40597">
        <ele>1031.8000488281</ele>
        <time>2022-04-09T10:40:59.000Z</time>
      </trkpt>
      <trkpt lat="43.92811" lon="7.40602">
        <ele>1032.1999511719</ele>
        <time>2022-04-09T10:41:00.000Z</time>
      </trkpt>
      <trkpt lat="43.92807" lon="7.40617">
        <ele>1033.4000244141</ele>
        <time>2022-04-09T10:41:04.000Z</time>
      </trkpt>
      <trkpt lat="43.92805" lon="7.40635">
        <ele>1034.5999755859</ele>
        <time>2022-04-09T10:41:08.000Z</time>
      </trkpt>
      <trkpt lat="43.92804" lon="7.40645">
        <ele>1035.4000244141</ele>
        <time>2022-04-09T10:41:10.000Z</time>
      </trkpt>
      <trkpt lat="43.92803" lon="7.40649">
        <ele>1035.8000488281</ele>
        <time>2022-04-09T10:41:11.000Z</time>
      </trkpt>
      <trkpt lat="43.92801" lon="7.4066">
        <ele>1037.1999511719</ele>
        <time>2022-04-09T10:41:14.000Z</time>
      </trkpt>
      <trkpt lat="43.92799" lon="7.40666">
        <ele>1038</ele>
        <time>2022-04-09T10:41:16.000Z</time>
      </trkpt>
      <trkpt lat="43.92797" lon="7.40671">
        <ele>1038.4000244141</ele>
        <time>2022-04-09T10:41:18.000Z</time>
      </trkpt>
      <trkpt lat="43.92792" lon="7.40681">
        <ele>1039.4000244141</ele>
        <time>2022-04-09T10:41:22.000Z</time>
      </trkpt>
      <trkpt lat="43.92782" lon="7.40689">
        <ele>1040.8000488281</ele>
        <time>2022-04-09T10:41:27.000Z</time>
      </trkpt>
      <trkpt lat="43.92781" lon="7.4069">
        <ele>1041</ele>
        <time>2022-04-09T10:41:28.000Z</time>
      </trkpt>
      <trkpt lat="43.9277" lon="7.40694">
        <ele>1042</ele>
        <time>2022-04-09T10:41:33.000Z</time>
      </trkpt>
      <trkpt lat="43.92768" lon="7.40695">
        <ele>1042.4000244141</ele>
        <time>2022-04-09T10:41:34.000Z</time>
      </trkpt>
      <trkpt lat="43.92764" lon="7.40696">
        <ele>1043</ele>
        <time>2022-04-09T10:41:36.000Z</time>
      </trkpt>
      <trkpt lat="43.92751" lon="7.40694">
        <ele>1044</ele>
        <time>2022-04-09T10:41:42.000Z</time>
      </trkpt>
      <trkpt lat="43.92748" lon="7.40694">
        <ele>1044.1999511719</ele>
        <time>2022-04-09T10:41:43.000Z</time>
      </trkpt>
      <trkpt lat="43.9274" lon="7.40692">
        <ele>1045.1999511719</ele>
        <time>2022-04-09T10:41:47.000Z</time>
      </trkpt>
      <trkpt lat="43.92738" lon="7.40691">
        <ele>1045.4000244141</ele>
        <time>2022-04-09T10:41:48.000Z</time>
      </trkpt>
      <trkpt lat="43.92725" lon="7.40682">
        <ele>1046.4000244141</ele>
        <time>2022-04-09T10:41:56.000Z</time>
      </trkpt>
      <trkpt lat="43.92725" lon="7.40683">
        <ele>1047.1999511719</ele>
        <time>2022-04-09T10:42:00.000Z</time>
      </trkpt>
      <trkpt lat="43.92725" lon="7.40685">
        <ele>1047.4000244141</ele>
        <time>2022-04-09T10:42:06.000Z</time>
      </trkpt>
      <trkpt lat="43.92725" lon="7.40685">
        <ele>1047.5999755859</ele>
        <time>2022-04-09T10:42:08.000Z</time>
      </trkpt>
      <trkpt lat="43.92725" lon="7.40686">
        <ele>1046.8000488281</ele>
        <time>2022-04-09T10:42:16.000Z</time>
      </trkpt>
      <trkpt lat="43.92725" lon="7.40686">
        <ele>1048</ele>
        <time>2022-04-09T10:42:23.000Z</time>
      </trkpt>
      <trkpt lat="43.92727" lon="7.40688">
        <ele>1048</ele>
        <time>2022-04-09T10:42:30.000Z</time>
      </trkpt>
      <trkpt lat="43.92727" lon="7.40688">
        <ele>1048</ele>
        <time>2022-04-09T10:42:37.000Z</time>
      </trkpt>
      <trkpt lat="43.92727" lon="7.40689">
        <ele>1048.4000244141</ele>
        <time>2022-04-09T10:42:50.000Z</time>
      </trkpt>
      <trkpt lat="43.92727" lon="7.40689">
        <ele>1048.4000244141</ele>
        <time>2022-04-09T10:42:51.000Z</time>
      </trkpt>
      <trkpt lat="43.92727" lon="7.40688">
        <ele>1048.4000244141</ele>
        <time>2022-04-09T10:42:59.000Z</time>
      </trkpt>
      <trkpt lat="43.92727" lon="7.40688">
        <ele>1048.5999755859</ele>
        <time>2022-04-09T10:43:07.000Z</time>
      </trkpt>
      <trkpt lat="43.92727" lon="7.40687">
        <ele>1048.1999511719</ele>
        <time>2022-04-09T10:43:16.000Z</time>
      </trkpt>
      <trkpt lat="43.92725" lon="7.40685">
        <ele>1047.4000244141</ele>
        <time>2022-04-09T10:43:22.000Z</time>
      </trkpt>
      <trkpt lat="43.92726" lon="7.40683">
        <ele>1047.5999755859</ele>
        <time>2022-04-09T10:43:28.000Z</time>
      </trkpt>
      <trkpt lat="43.92725" lon="7.40684">
        <ele>1048</ele>
        <time>2022-04-09T10:43:47.000Z</time>
      </trkpt>
      <trkpt lat="43.92724" lon="7.40685">
        <ele>1048.1999511719</ele>
        <time>2022-04-09T10:43:54.000Z</time>
      </trkpt>
      <trkpt lat="43.92724" lon="7.40684">
        <ele>1048</ele>
        <time>2022-04-09T10:44:06.000Z</time>
      </trkpt>
      <trkpt lat="43.92725" lon="7.40684">
        <ele>1047.5999755859</ele>
        <time>2022-04-09T10:44:15.000Z</time>
      </trkpt>
      <trkpt lat="43.92725" lon="7.40684">
        <ele>1047.4000244141</ele>
        <time>2022-04-09T10:44:17.000Z</time>
      </trkpt>
      <trkpt lat="43.92725" lon="7.40684">
        <ele>1047.4000244141</ele>
        <time>2022-04-09T10:44:30.000Z</time>
      </trkpt>
      <trkpt lat="43.92725" lon="7.40683">
        <ele>1047.4000244141</ele>
        <time>2022-04-09T10:44:41.000Z</time>
      </trkpt>
      <trkpt lat="43.92726" lon="7.40683">
        <ele>1047.5999755859</ele>
        <time>2022-04-09T10:44:53.000Z</time>
      </trkpt>
      <trkpt lat="43.92725" lon="7.40683">
        <ele>1047.1999511719</ele>
        <time>2022-04-09T10:45:08.000Z</time>
      </trkpt>
      <trkpt lat="43.92725" lon="7.40684">
        <ele>1047</ele>
        <time>2022-04-09T10:45:27.000Z</time>
      </trkpt>
      <trkpt lat="43.92725" lon="7.40683">
        <ele>1047</ele>
        <time>2022-04-09T10:45:38.000Z</time>
      </trkpt>
      <trkpt lat="43.92725" lon="7.40681">
        <ele>1046.5999755859</ele>
        <time>2022-04-09T10:45:43.000Z</time>
      </trkpt>
      <trkpt lat="43.92725" lon="7.40683">
        <ele>1046.8000488281</ele>
        <time>2022-04-09T10:45:51.000Z</time>
      </trkpt>
      <trkpt lat="43.92725" lon="7.40682">
        <ele>1047</ele>
        <time>2022-04-09T10:45:57.000Z</time>
      </trkpt>
      <trkpt lat="43.92724" lon="7.40684">
        <ele>1047.5999755859</ele>
        <time>2022-04-09T10:46:06.000Z</time>
      </trkpt>
      <trkpt lat="43.92724" lon="7.40685">
        <ele>1047.1999511719</ele>
        <time>2022-04-09T10:46:13.000Z</time>
      </trkpt>
      <trkpt lat="43.92722" lon="7.40684">
        <ele>1046.8000488281</ele>
        <time>2022-04-09T10:46:18.000Z</time>
      </trkpt>
      <trkpt lat="43.92719" lon="7.40682">
        <ele>1047</ele>
        <time>2022-04-09T10:46:20.000Z</time>
      </trkpt>
      <trkpt lat="43.9271" lon="7.40675">
        <ele>1046.8000488281</ele>
        <time>2022-04-09T10:46:24.000Z</time>
      </trkpt>
      <trkpt lat="43.927" lon="7.40669">
        <ele>1046.4000244141</ele>
        <time>2022-04-09T10:46:26.000Z</time>
      </trkpt>
      <trkpt lat="43.92692" lon="7.40664">
        <ele>1045</ele>
        <time>2022-04-09T10:46:28.000Z</time>
      </trkpt>
      <trkpt lat="43.92687" lon="7.40662">
        <ele>1043.5999755859</ele>
        <time>2022-04-09T10:46:29.000Z</time>
      </trkpt>
      <trkpt lat="43.92682" lon="7.40661">
        <ele>1042</ele>
        <time>2022-04-09T10:46:30.000Z</time>
      </trkpt>
      <trkpt lat="43.92676" lon="7.40661">
        <ele>1040.5999755859</ele>
        <time>2022-04-09T10:46:31.000Z</time>
      </trkpt>
      <trkpt lat="43.92671" lon="7.4066">
        <ele>1039.4000244141</ele>
        <time>2022-04-09T10:46:32.000Z</time>
      </trkpt>
      <trkpt lat="43.92667" lon="7.40659">
        <ele>1038.8000488281</ele>
        <time>2022-04-09T10:46:33.000Z</time>
      </trkpt>
      <trkpt lat="43.92661" lon="7.40658">
        <ele>1037.8000488281</ele>
        <time>2022-04-09T10:46:34.000Z</time>
      </trkpt>
      <trkpt lat="43.92656" lon="7.40657">
        <ele>1037</ele>
        <time>2022-04-09T10:46:35.000Z</time>
      </trkpt>
      <trkpt lat="43.92651" lon="7.40655">
        <ele>1036</ele>
        <time>2022-04-09T10:46:36.000Z</time>
      </trkpt>
      <trkpt lat="43.92645" lon="7.40653">
        <ele>1035.1999511719</ele>
        <time>2022-04-09T10:46:37.000Z</time>
      </trkpt>
      <trkpt lat="43.92639" lon="7.40651">
        <ele>1034.1999511719</ele>
        <time>2022-04-09T10:46:38.000Z</time>
      </trkpt>
      <trkpt lat="43.92633" lon="7.40648">
        <ele>1033.1999511719</ele>
        <time>2022-04-09T10:46:39.000Z</time>
      </trkpt>
      <trkpt lat="43.92628" lon="7.40643">
        <ele>1032.1999511719</ele>
        <time>2022-04-09T10:46:40.000Z</time>
      </trkpt>
      <trkpt lat="43.92623" lon="7.40639">
        <ele>1031.1999511719</ele>
        <time>2022-04-09T10:46:41.000Z</time>
      </trkpt>
      <trkpt lat="43.92619" lon="7.40635">
        <ele>1030.4000244141</ele>
        <time>2022-04-09T10:46:42.000Z</time>
      </trkpt>
      <trkpt lat="43.92616" lon="7.40631">
        <ele>1030</ele>
        <time>2022-04-09T10:46:43.000Z</time>
      </trkpt>
      <trkpt lat="43.92609" lon="7.40623">
        <ele>1029.5999755859</ele>
        <time>2022-04-09T10:46:45.000Z</time>
      </trkpt>
      <trkpt lat="43.92598" lon="7.4061">
        <ele>1030.1999511719</ele>
        <time>2022-04-09T10:46:48.000Z</time>
      </trkpt>
      <trkpt lat="43.92592" lon="7.40598">
        <ele>1030.1999511719</ele>
        <time>2022-04-09T10:46:50.000Z</time>
      </trkpt>
      <trkpt lat="43.92584" lon="7.40582">
        <ele>1029.1999511719</ele>
        <time>2022-04-09T10:46:53.000Z</time>
      </trkpt>
      <trkpt lat="43.92581" lon="7.40576">
        <ele>1029</ele>
        <time>2022-04-09T10:46:54.000Z</time>
      </trkpt>
      <trkpt lat="43.92578" lon="7.4057">
        <ele>1029.1999511719</ele>
        <time>2022-04-09T10:46:55.000Z</time>
      </trkpt>
      <trkpt lat="43.92572" lon="7.40558">
        <ele>1029.4000244141</ele>
        <time>2022-04-09T10:46:57.000Z</time>
      </trkpt>
      <trkpt lat="43.92565" lon="7.40537">
        <ele>1028.1999511719</ele>
        <time>2022-04-09T10:47:00.000Z</time>
      </trkpt>
      <trkpt lat="43.92562" lon="7.40525">
        <ele>1026.8000488281</ele>
        <time>2022-04-09T10:47:02.000Z</time>
      </trkpt>
      <trkpt lat="43.9256" lon="7.40512">
        <ele>1025.8000488281</ele>
        <time>2022-04-09T10:47:04.000Z</time>
      </trkpt>
      <trkpt lat="43.92557" lon="7.40501">
        <ele>1025</ele>
        <time>2022-04-09T10:47:06.000Z</time>
      </trkpt>
      <trkpt lat="43.92555" lon="7.40495">
        <ele>1024.5999755859</ele>
        <time>2022-04-09T10:47:07.000Z</time>
      </trkpt>
      <trkpt lat="43.92553" lon="7.4049">
        <ele>1024.4000244141</ele>
        <time>2022-04-09T10:47:08.000Z</time>
      </trkpt>
      <trkpt lat="43.92551" lon="7.40484">
        <ele>1023.5999755859</ele>
        <time>2022-04-09T10:47:09.000Z</time>
      </trkpt>
      <trkpt lat="43.92549" lon="7.4048">
        <ele>1023</ele>
        <time>2022-04-09T10:47:10.000Z</time>
      </trkpt>
      <trkpt lat="43.92547" lon="7.40478">
        <ele>1022</ele>
        <time>2022-04-09T10:47:11.000Z</time>
      </trkpt>
      <trkpt lat="43.92544" lon="7.40476">
        <ele>1021.5999755859</ele>
        <time>2022-04-09T10:47:12.000Z</time>
      </trkpt>
      <trkpt lat="43.92535" lon="7.40472">
        <ele>1020.200012207</ele>
        <time>2022-04-09T10:47:14.000Z</time>
      </trkpt>
      <trkpt lat="43.9253" lon="7.40468">
        <ele>1019.799987793</ele>
        <time>2022-04-09T10:47:15.000Z</time>
      </trkpt>
      <trkpt lat="43.92525" lon="7.40464">
        <ele>1019</ele>
        <time>2022-04-09T10:47:16.000Z</time>
      </trkpt>
      <trkpt lat="43.9252" lon="7.40458">
        <ele>1018.200012207</ele>
        <time>2022-04-09T10:47:17.000Z</time>
      </trkpt>
      <trkpt lat="43.92517" lon="7.40454">
        <ele>1017.5999755859</ele>
        <time>2022-04-09T10:47:18.000Z</time>
      </trkpt>
      <trkpt lat="43.92515" lon="7.40448">
        <ele>1016.799987793</ele>
        <time>2022-04-09T10:47:19.000Z</time>
      </trkpt>
      <trkpt lat="43.92513" lon="7.40441">
        <ele>1015.799987793</ele>
        <time>2022-04-09T10:47:20.000Z</time>
      </trkpt>
      <trkpt lat="43.92513" lon="7.40433">
        <ele>1014.799987793</ele>
        <time>2022-04-09T10:47:21.000Z</time>
      </trkpt>
      <trkpt lat="43.92513" lon="7.40424">
        <ele>1013.5999755859</ele>
        <time>2022-04-09T10:47:22.000Z</time>
      </trkpt>
      <trkpt lat="43.92512" lon="7.40403">
        <ele>1011.4000244141</ele>
        <time>2022-04-09T10:47:24.000Z</time>
      </trkpt>
      <trkpt lat="43.92512" lon="7.40394">
        <ele>1010.4000244141</ele>
        <time>2022-04-09T10:47:25.000Z</time>
      </trkpt>
      <trkpt lat="43.92513" lon="7.40383">
        <ele>1008.799987793</ele>
        <time>2022-04-09T10:47:27.000Z</time>
      </trkpt>
      <trkpt lat="43.92512" lon="7.4038">
        <ele>1008.5999755859</ele>
        <time>2022-04-09T10:47:30.000Z</time>
      </trkpt>
      <trkpt lat="43.92512" lon="7.40378">
        <ele>1009.200012207</ele>
        <time>2022-04-09T10:47:35.000Z</time>
      </trkpt>
      <trkpt lat="43.92509" lon="7.40374">
        <ele>1010</ele>
        <time>2022-04-09T10:47:38.000Z</time>
      </trkpt>
      <trkpt lat="43.92508" lon="7.40374">
        <ele>1010.4000244141</ele>
        <time>2022-04-09T10:47:41.000Z</time>
      </trkpt>
      <trkpt lat="43.92502" lon="7.40372">
        <ele>1010.5999755859</ele>
        <time>2022-04-09T10:47:46.000Z</time>
      </trkpt>
      <trkpt lat="43.92485" lon="7.4036">
        <ele>1010.200012207</ele>
        <time>2022-04-09T10:47:51.000Z</time>
      </trkpt>
      <trkpt lat="43.92478" lon="7.40356">
        <ele>1010.200012207</ele>
        <time>2022-04-09T10:47:53.000Z</time>
      </trkpt>
      <trkpt lat="43.92468" lon="7.40346">
        <ele>1011</ele>
        <time>2022-04-09T10:47:56.000Z</time>
      </trkpt>
      <trkpt lat="43.92456" lon="7.40333">
        <ele>1012.200012207</ele>
        <time>2022-04-09T10:48:00.000Z</time>
      </trkpt>
      <trkpt lat="43.92452" lon="7.40331">
        <ele>1012.799987793</ele>
        <time>2022-04-09T10:48:01.000Z</time>
      </trkpt>
      <trkpt lat="43.92445" lon="7.4033">
        <ele>1013.4000244141</ele>
        <time>2022-04-09T10:48:03.000Z</time>
      </trkpt>
      <trkpt lat="43.92434" lon="7.40325">
        <ele>1014.200012207</ele>
        <time>2022-04-09T10:48:06.000Z</time>
      </trkpt>
      <trkpt lat="43.92419" lon="7.40306">
        <ele>1014.4000244141</ele>
        <time>2022-04-09T10:48:11.000Z</time>
      </trkpt>
      <trkpt lat="43.92416" lon="7.40285">
        <ele>1015.5999755859</ele>
        <time>2022-04-09T10:48:15.000Z</time>
      </trkpt>
      <trkpt lat="43.92414" lon="7.40277">
        <ele>1017</ele>
        <time>2022-04-09T10:48:17.000Z</time>
      </trkpt>
      <trkpt lat="43.92413" lon="7.40268">
        <ele>1018.200012207</ele>
        <time>2022-04-09T10:48:19.000Z</time>
      </trkpt>
      <trkpt lat="43.92413" lon="7.40263">
        <ele>1018.799987793</ele>
        <time>2022-04-09T10:48:20.000Z</time>
      </trkpt>
      <trkpt lat="43.92413" lon="7.40255">
        <ele>1019.200012207</ele>
        <time>2022-04-09T10:48:22.000Z</time>
      </trkpt>
      <trkpt lat="43.92415" lon="7.40241">
        <ele>1020.4000244141</ele>
        <time>2022-04-09T10:48:26.000Z</time>
      </trkpt>
      <trkpt lat="43.92417" lon="7.40234">
        <ele>1021.5999755859</ele>
        <time>2022-04-09T10:48:30.000Z</time>
      </trkpt>
      <trkpt lat="43.92417" lon="7.40234">
        <ele>1021.799987793</ele>
        <time>2022-04-09T10:48:32.000Z</time>
      </trkpt>
      <trkpt lat="43.92416" lon="7.40231">
        <ele>1021.200012207</ele>
        <time>2022-04-09T10:48:40.000Z</time>
      </trkpt>
      <trkpt lat="43.92414" lon="7.40227">
        <ele>1022</ele>
        <time>2022-04-09T10:48:47.000Z</time>
      </trkpt>
      <trkpt lat="43.92412" lon="7.40226">
        <ele>1022.799987793</ele>
        <time>2022-04-09T10:48:52.000Z</time>
      </trkpt>
      <trkpt lat="43.92403" lon="7.40217">
        <ele>1023</ele>
        <time>2022-04-09T10:48:56.000Z</time>
      </trkpt>
      <trkpt lat="43.92387" lon="7.40197">
        <ele>1022.5999755859</ele>
        <time>2022-04-09T10:49:02.000Z</time>
      </trkpt>
      <trkpt lat="43.92368" lon="7.40191">
        <ele>1023.5999755859</ele>
        <time>2022-04-09T10:49:07.000Z</time>
      </trkpt>
      <trkpt lat="43.92355" lon="7.40186">
        <ele>1023.5999755859</ele>
        <time>2022-04-09T10:49:10.000Z</time>
      </trkpt>
      <trkpt lat="43.92348" lon="7.40181">
        <ele>1023.4000244141</ele>
        <time>2022-04-09T10:49:12.000Z</time>
      </trkpt>
      <trkpt lat="43.92338" lon="7.40173">
        <ele>1024</ele>
        <time>2022-04-09T10:49:15.000Z</time>
      </trkpt>
      <trkpt lat="43.9233" lon="7.40161">
        <ele>1025.1999511719</ele>
        <time>2022-04-09T10:49:18.000Z</time>
      </trkpt>
      <trkpt lat="43.92327" lon="7.40156">
        <ele>1025.4000244141</ele>
        <time>2022-04-09T10:49:19.000Z</time>
      </trkpt>
      <trkpt lat="43.92315" lon="7.40143">
        <ele>1026.1999511719</ele>
        <time>2022-04-09T10:49:23.000Z</time>
      </trkpt>
      <trkpt lat="43.92307" lon="7.40131">
        <ele>1026.8000488281</ele>
        <time>2022-04-09T10:49:26.000Z</time>
      </trkpt>
      <trkpt lat="43.92302" lon="7.40124">
        <ele>1027.1999511719</ele>
        <time>2022-04-09T10:49:28.000Z</time>
      </trkpt>
      <trkpt lat="43.92283" lon="7.40095">
        <ele>1027</ele>
        <time>2022-04-09T10:49:35.000Z</time>
      </trkpt>
      <trkpt lat="43.92277" lon="7.4008">
        <ele>1027</ele>
        <time>2022-04-09T10:49:38.000Z</time>
      </trkpt>
      <trkpt lat="43.92274" lon="7.40062">
        <ele>1026.8000488281</ele>
        <time>2022-04-09T10:49:41.000Z</time>
      </trkpt>
      <trkpt lat="43.92268" lon="7.40038">
        <ele>1027.5999755859</ele>
        <time>2022-04-09T10:49:46.000Z</time>
      </trkpt>
      <trkpt lat="43.92265" lon="7.40028">
        <ele>1028.1999511719</ele>
        <time>2022-04-09T10:49:48.000Z</time>
      </trkpt>
      <trkpt lat="43.92258" lon="7.40006">
        <ele>1028.4000244141</ele>
        <time>2022-04-09T10:49:52.000Z</time>
      </trkpt>
      <trkpt lat="43.92256" lon="7.4">
        <ele>1028.1999511719</ele>
        <time>2022-04-09T10:49:53.000Z</time>
      </trkpt>
      <trkpt lat="43.92253" lon="7.39984">
        <ele>1027</ele>
        <time>2022-04-09T10:49:55.000Z</time>
      </trkpt>
      <trkpt lat="43.92252" lon="7.39976">
        <ele>1026.4000244141</ele>
        <time>2022-04-09T10:49:56.000Z</time>
      </trkpt>
      <trkpt lat="43.92251" lon="7.39968">
        <ele>1025.5999755859</ele>
        <time>2022-04-09T10:49:57.000Z</time>
      </trkpt>
      <trkpt lat="43.92251" lon="7.39962">
        <ele>1024.8000488281</ele>
        <time>2022-04-09T10:49:58.000Z</time>
      </trkpt>
      <trkpt lat="43.9225" lon="7.39954">
        <ele>1024</ele>
        <time>2022-04-09T10:49:59.000Z</time>
      </trkpt>
      <trkpt lat="43.9225" lon="7.39942">
        <ele>1023.5999755859</ele>
        <time>2022-04-09T10:50:01.000Z</time>
      </trkpt>
      <trkpt lat="43.92255" lon="7.39921">
        <ele>1023</ele>
        <time>2022-04-09T10:50:04.000Z</time>
      </trkpt>
      <trkpt lat="43.92258" lon="7.39915">
        <ele>1022.5999755859</ele>
        <time>2022-04-09T10:50:05.000Z</time>
      </trkpt>
      <trkpt lat="43.92264" lon="7.39904">
        <ele>1021.5999755859</ele>
        <time>2022-04-09T10:50:07.000Z</time>
      </trkpt>
      <trkpt lat="43.92271" lon="7.39899">
        <ele>1021</ele>
        <time>2022-04-09T10:50:09.000Z</time>
      </trkpt>
      <trkpt lat="43.92275" lon="7.39896">
        <ele>1020.4000244141</ele>
        <time>2022-04-09T10:50:11.000Z</time>
      </trkpt>
      <trkpt lat="43.92276" lon="7.39895">
        <ele>1020.5999755859</ele>
        <time>2022-04-09T10:50:13.000Z</time>
      </trkpt>
      <trkpt lat="43.92277" lon="7.39895">
        <ele>1020</ele>
        <time>2022-04-09T10:50:19.000Z</time>
      </trkpt>
      <trkpt lat="43.92278" lon="7.39892">
        <ele>1020.799987793</ele>
        <time>2022-04-09T10:50:26.000Z</time>
      </trkpt>
      <trkpt lat="43.92276" lon="7.3989">
        <ele>1021.5999755859</ele>
        <time>2022-04-09T10:50:30.000Z</time>
      </trkpt>
      <trkpt lat="43.92274" lon="7.3989">
        <ele>1022</ele>
        <time>2022-04-09T10:50:32.000Z</time>
      </trkpt>
      <trkpt lat="43.92272" lon="7.39888">
        <ele>1022.799987793</ele>
        <time>2022-04-09T10:50:35.000Z</time>
      </trkpt>
      <trkpt lat="43.92267" lon="7.39884">
        <ele>1023</ele>
        <time>2022-04-09T10:50:37.000Z</time>
      </trkpt>
      <trkpt lat="43.92259" lon="7.39873">
        <ele>1023.200012207</ele>
        <time>2022-04-09T10:50:40.000Z</time>
      </trkpt>
      <trkpt lat="43.92252" lon="7.39863">
        <ele>1022.5999755859</ele>
        <time>2022-04-09T10:50:42.000Z</time>
      </trkpt>
      <trkpt lat="43.92246" lon="7.39846">
        <ele>1021.799987793</ele>
        <time>2022-04-09T10:50:45.000Z</time>
      </trkpt>
      <trkpt lat="43.92245" lon="7.3984">
        <ele>1021.5999755859</ele>
        <time>2022-04-09T10:50:46.000Z</time>
      </trkpt>
      <trkpt lat="43.92245" lon="7.39834">
        <ele>1021.5999755859</ele>
        <time>2022-04-09T10:50:47.000Z</time>
      </trkpt>
      <trkpt lat="43.92245" lon="7.39821">
        <ele>1021.5999755859</ele>
        <time>2022-04-09T10:50:49.000Z</time>
      </trkpt>
      <trkpt lat="43.92245" lon="7.39797">
        <ele>1022.200012207</ele>
        <time>2022-04-09T10:50:53.000Z</time>
      </trkpt>
      <trkpt lat="43.92246" lon="7.39779">
        <ele>1022.5999755859</ele>
        <time>2022-04-09T10:50:56.000Z</time>
      </trkpt>
      <trkpt lat="43.92246" lon="7.39777">
        <ele>1022.4000244141</ele>
        <time>2022-04-09T10:50:57.000Z</time>
      </trkpt>
      <trkpt lat="43.92245" lon="7.39775">
        <ele>1022.5999755859</ele>
        <time>2022-04-09T10:50:59.000Z</time>
      </trkpt>
      <trkpt lat="43.92243" lon="7.39775">
        <ele>1022.799987793</ele>
        <time>2022-04-09T10:51:00.000Z</time>
      </trkpt>
      <trkpt lat="43.92234" lon="7.39779">
        <ele>1022.5999755859</ele>
        <time>2022-04-09T10:51:03.000Z</time>
      </trkpt>
      <trkpt lat="43.9222" lon="7.39788">
        <ele>1021.4000244141</ele>
        <time>2022-04-09T10:51:06.000Z</time>
      </trkpt>
      <trkpt lat="43.92216" lon="7.39789">
        <ele>1020.799987793</ele>
        <time>2022-04-09T10:51:07.000Z</time>
      </trkpt>
      <trkpt lat="43.92211" lon="7.39791">
        <ele>1020.200012207</ele>
        <time>2022-04-09T10:51:08.000Z</time>
      </trkpt>
      <trkpt lat="43.92185" lon="7.398">
        <ele>1020</ele>
        <time>2022-04-09T10:51:14.000Z</time>
      </trkpt>
      <trkpt lat="43.92182" lon="7.39798">
        <ele>1020.200012207</ele>
        <time>2022-04-09T10:51:15.000Z</time>
      </trkpt>
      <trkpt lat="43.9217" lon="7.39778">
        <ele>1019.799987793</ele>
        <time>2022-04-09T10:51:19.000Z</time>
      </trkpt>
      <trkpt lat="43.92167" lon="7.39772">
        <ele>1019.200012207</ele>
        <time>2022-04-09T10:51:20.000Z</time>
      </trkpt>
      <trkpt lat="43.92159" lon="7.39753">
        <ele>1017.799987793</ele>
        <time>2022-04-09T10:51:23.000Z</time>
      </trkpt>
      <trkpt lat="43.92156" lon="7.39748">
        <ele>1017.5999755859</ele>
        <time>2022-04-09T10:51:24.000Z</time>
      </trkpt>
      <trkpt lat="43.92149" lon="7.39736">
        <ele>1017.4000244141</ele>
        <time>2022-04-09T10:51:27.000Z</time>
      </trkpt>
      <trkpt lat="43.92146" lon="7.39736">
        <ele>1017.4000244141</ele>
        <time>2022-04-09T10:51:28.000Z</time>
      </trkpt>
      <trkpt lat="43.92139" lon="7.39747">
        <ele>1018.200012207</ele>
        <time>2022-04-09T10:51:31.000Z</time>
      </trkpt>
      <trkpt lat="43.92125" lon="7.3976">
        <ele>1018.799987793</ele>
        <time>2022-04-09T10:51:35.000Z</time>
      </trkpt>
      <trkpt lat="43.92121" lon="7.39762">
        <ele>1019</ele>
        <time>2022-04-09T10:51:36.000Z</time>
      </trkpt>
      <trkpt lat="43.9211" lon="7.39763">
        <ele>1020.4000244141</ele>
        <time>2022-04-09T10:51:39.000Z</time>
      </trkpt>
      <trkpt lat="43.92108" lon="7.39762">
        <ele>1021.200012207</ele>
        <time>2022-04-09T10:51:41.000Z</time>
      </trkpt>
      <trkpt lat="43.92107" lon="7.39762">
        <ele>1022</ele>
        <time>2022-04-09T10:51:42.000Z</time>
      </trkpt>
      <trkpt lat="43.92105" lon="7.39762">
        <ele>1022.4000244141</ele>
        <time>2022-04-09T10:51:43.000Z</time>
      </trkpt>
      <trkpt lat="43.92098" lon="7.39762">
        <ele>1023</ele>
        <time>2022-04-09T10:51:45.000Z</time>
      </trkpt>
      <trkpt lat="43.92093" lon="7.39761">
        <ele>1023.200012207</ele>
        <time>2022-04-09T10:51:46.000Z</time>
      </trkpt>
      <trkpt lat="43.92089" lon="7.39759">
        <ele>1023</ele>
        <time>2022-04-09T10:51:47.000Z</time>
      </trkpt>
      <trkpt lat="43.92073" lon="7.3975">
        <ele>1022.5999755859</ele>
        <time>2022-04-09T10:51:51.000Z</time>
      </trkpt>
      <trkpt lat="43.92064" lon="7.39756">
        <ele>1022.4000244141</ele>
        <time>2022-04-09T10:51:54.000Z</time>
      </trkpt>
      <trkpt lat="43.92059" lon="7.39763">
        <ele>1021.799987793</ele>
        <time>2022-04-09T10:51:56.000Z</time>
      </trkpt>
      <trkpt lat="43.92054" lon="7.39771">
        <ele>1021.5999755859</ele>
        <time>2022-04-09T10:51:58.000Z</time>
      </trkpt>
      <trkpt lat="43.92047" lon="7.39788">
        <ele>1023</ele>
        <time>2022-04-09T10:52:02.000Z</time>
      </trkpt>
      <trkpt lat="43.92045" lon="7.39796">
        <ele>1024</ele>
        <time>2022-04-09T10:52:04.000Z</time>
      </trkpt>
      <trkpt lat="43.92042" lon="7.39806">
        <ele>1025.1999511719</ele>
        <time>2022-04-09T10:52:06.000Z</time>
      </trkpt>
      <trkpt lat="43.9204" lon="7.39816">
        <ele>1026.4000244141</ele>
        <time>2022-04-09T10:52:08.000Z</time>
      </trkpt>
      <trkpt lat="43.92038" lon="7.39821">
        <ele>1027</ele>
        <time>2022-04-09T10:52:09.000Z</time>
      </trkpt>
      <trkpt lat="43.92035" lon="7.3983">
        <ele>1027.5999755859</ele>
        <time>2022-04-09T10:52:11.000Z</time>
      </trkpt>
      <trkpt lat="43.92028" lon="7.39842">
        <ele>1028.8000488281</ele>
        <time>2022-04-09T10:52:14.000Z</time>
      </trkpt>
      <trkpt lat="43.92022" lon="7.39848">
        <ele>1029.1999511719</ele>
        <time>2022-04-09T10:52:16.000Z</time>
      </trkpt>
      <trkpt lat="43.92015" lon="7.39852">
        <ele>1029.4000244141</ele>
        <time>2022-04-09T10:52:18.000Z</time>
      </trkpt>
      <trkpt lat="43.92008" lon="7.39853">
        <ele>1030</ele>
        <time>2022-04-09T10:52:20.000Z</time>
      </trkpt>
      <trkpt lat="43.92004" lon="7.39853">
        <ele>1030.5999755859</ele>
        <time>2022-04-09T10:52:21.000Z</time>
      </trkpt>
      <trkpt lat="43.92002" lon="7.39852">
        <ele>1031</ele>
        <time>2022-04-09T10:52:22.000Z</time>
      </trkpt>
      <trkpt lat="43.91999" lon="7.39852">
        <ele>1031.5999755859</ele>
        <time>2022-04-09T10:52:23.000Z</time>
      </trkpt>
      <trkpt lat="43.91991" lon="7.39853">
        <ele>1033.1999511719</ele>
        <time>2022-04-09T10:52:25.000Z</time>
      </trkpt>
      <trkpt lat="43.91988" lon="7.39853">
        <ele>1033.5999755859</ele>
        <time>2022-04-09T10:52:26.000Z</time>
      </trkpt>
      <trkpt lat="43.91982" lon="7.3985">
        <ele>1034.1999511719</ele>
        <time>2022-04-09T10:52:28.000Z</time>
      </trkpt>
      <trkpt lat="43.91978" lon="7.39846">
        <ele>1034.4000244141</ele>
        <time>2022-04-09T10:52:30.000Z</time>
      </trkpt>
      <trkpt lat="43.9197" lon="7.39839">
        <ele>1035.5999755859</ele>
        <time>2022-04-09T10:52:34.000Z</time>
      </trkpt>
      <trkpt lat="43.91967" lon="7.39838">
        <ele>1036</ele>
        <time>2022-04-09T10:52:35.000Z</time>
      </trkpt>
      <trkpt lat="43.91965" lon="7.39836">
        <ele>1036.5999755859</ele>
        <time>2022-04-09T10:52:36.000Z</time>
      </trkpt>
      <trkpt lat="43.91955" lon="7.39833">
        <ele>1037.8000488281</ele>
        <time>2022-04-09T10:52:39.000Z</time>
      </trkpt>
      <trkpt lat="43.91947" lon="7.39828">
        <ele>1038.1999511719</ele>
        <time>2022-04-09T10:52:42.000Z</time>
      </trkpt>
      <trkpt lat="43.91936" lon="7.39825">
        <ele>1038.8000488281</ele>
        <time>2022-04-09T10:52:46.000Z</time>
      </trkpt>
      <trkpt lat="43.91933" lon="7.39824">
        <ele>1039</ele>
        <time>2022-04-09T10:52:47.000Z</time>
      </trkpt>
      <trkpt lat="43.91925" lon="7.39823">
        <ele>1040</ele>
        <time>2022-04-09T10:52:50.000Z</time>
      </trkpt>
      <trkpt lat="43.91917" lon="7.39818">
        <ele>1041</ele>
        <time>2022-04-09T10:52:53.000Z</time>
      </trkpt>
      <trkpt lat="43.91909" lon="7.39813">
        <ele>1042.1999511719</ele>
        <time>2022-04-09T10:52:56.000Z</time>
      </trkpt>
      <trkpt lat="43.919" lon="7.39809">
        <ele>1043.4000244141</ele>
        <time>2022-04-09T10:52:59.000Z</time>
      </trkpt>
      <trkpt lat="43.91879" lon="7.39799">
        <ele>1044.5999755859</ele>
        <time>2022-04-09T10:53:05.000Z</time>
      </trkpt>
      <trkpt lat="43.91876" lon="7.39798">
        <ele>1045.1999511719</ele>
        <time>2022-04-09T10:53:06.000Z</time>
      </trkpt>
      <trkpt lat="43.91872" lon="7.39798">
        <ele>1045.8000488281</ele>
        <time>2022-04-09T10:53:07.000Z</time>
      </trkpt>
      <trkpt lat="43.91865" lon="7.39798">
        <ele>1047</ele>
        <time>2022-04-09T10:53:09.000Z</time>
      </trkpt>
      <trkpt lat="43.91856" lon="7.39798">
        <ele>1048.4000244141</ele>
        <time>2022-04-09T10:53:12.000Z</time>
      </trkpt>
      <trkpt lat="43.91843" lon="7.3979">
        <ele>1049</ele>
        <time>2022-04-09T10:53:17.000Z</time>
      </trkpt>
      <trkpt lat="43.91838" lon="7.39781">
        <ele>1049.4000244141</ele>
        <time>2022-04-09T10:53:20.000Z</time>
      </trkpt>
      <trkpt lat="43.91834" lon="7.39773">
        <ele>1049.5999755859</ele>
        <time>2022-04-09T10:53:23.000Z</time>
      </trkpt>
      <trkpt lat="43.91832" lon="7.39771">
        <ele>1050</ele>
        <time>2022-04-09T10:53:25.000Z</time>
      </trkpt>
      <trkpt lat="43.91829" lon="7.39774">
        <ele>1050.4000244141</ele>
        <time>2022-04-09T10:53:27.000Z</time>
      </trkpt>
      <trkpt lat="43.91823" lon="7.39782">
        <ele>1051</ele>
        <time>2022-04-09T10:53:30.000Z</time>
      </trkpt>
      <trkpt lat="43.91815" lon="7.3979">
        <ele>1051.1999511719</ele>
        <time>2022-04-09T10:53:32.000Z</time>
      </trkpt>
      <trkpt lat="43.918" lon="7.39793">
        <ele>1049.8000488281</ele>
        <time>2022-04-09T10:53:35.000Z</time>
      </trkpt>
      <trkpt lat="43.91796" lon="7.39794">
        <ele>1048.5999755859</ele>
        <time>2022-04-09T10:53:36.000Z</time>
      </trkpt>
      <trkpt lat="43.91785" lon="7.39798">
        <ele>1047</ele>
        <time>2022-04-09T10:53:38.000Z</time>
      </trkpt>
      <trkpt lat="43.9178" lon="7.39799">
        <ele>1046.1999511719</ele>
        <time>2022-04-09T10:53:39.000Z</time>
      </trkpt>
      <trkpt lat="43.91775" lon="7.39801">
        <ele>1045.5999755859</ele>
        <time>2022-04-09T10:53:40.000Z</time>
      </trkpt>
      <trkpt lat="43.91764" lon="7.3981">
        <ele>1043.4000244141</ele>
        <time>2022-04-09T10:53:42.000Z</time>
      </trkpt>
      <trkpt lat="43.91759" lon="7.39811">
        <ele>1042.1999511719</ele>
        <time>2022-04-09T10:53:43.000Z</time>
      </trkpt>
      <trkpt lat="43.91748" lon="7.39812">
        <ele>1040.4000244141</ele>
        <time>2022-04-09T10:53:45.000Z</time>
      </trkpt>
      <trkpt lat="43.91727" lon="7.3981">
        <ele>1040.4000244141</ele>
        <time>2022-04-09T10:53:50.000Z</time>
      </trkpt>
      <trkpt lat="43.91721" lon="7.39818">
        <ele>1040.5999755859</ele>
        <time>2022-04-09T10:53:53.000Z</time>
      </trkpt>
      <trkpt lat="43.91718" lon="7.39837">
        <ele>1039.8000488281</ele>
        <time>2022-04-09T10:53:56.000Z</time>
      </trkpt>
      <trkpt lat="43.91716" lon="7.39842">
        <ele>1039.1999511719</ele>
        <time>2022-04-09T10:53:57.000Z</time>
      </trkpt>
      <trkpt lat="43.91712" lon="7.39847">
        <ele>1038.1999511719</ele>
        <time>2022-04-09T10:53:59.000Z</time>
      </trkpt>
      <trkpt lat="43.9171" lon="7.39849">
        <ele>1038.1999511719</ele>
        <time>2022-04-09T10:54:00.000Z</time>
      </trkpt>
      <trkpt lat="43.91707" lon="7.39853">
        <ele>1038.4000244141</ele>
        <time>2022-04-09T10:54:02.000Z</time>
      </trkpt>
      <trkpt lat="43.91703" lon="7.39855">
        <ele>1039.4000244141</ele>
        <time>2022-04-09T10:54:04.000Z</time>
      </trkpt>
      <trkpt lat="43.91699" lon="7.39858">
        <ele>1040.4000244141</ele>
        <time>2022-04-09T10:54:06.000Z</time>
      </trkpt>
      <trkpt lat="43.91693" lon="7.39863">
        <ele>1041.5999755859</ele>
        <time>2022-04-09T10:54:09.000Z</time>
      </trkpt>
      <trkpt lat="43.91684" lon="7.39868">
        <ele>1042.4000244141</ele>
        <time>2022-04-09T10:54:12.000Z</time>
      </trkpt>
      <trkpt lat="43.91672" lon="7.39871">
        <ele>1042.5999755859</ele>
        <time>2022-04-09T10:54:15.000Z</time>
      </trkpt>
      <trkpt lat="43.91662" lon="7.3987">
        <ele>1042</ele>
        <time>2022-04-09T10:54:17.000Z</time>
      </trkpt>
      <trkpt lat="43.91658" lon="7.39871">
        <ele>1041.5999755859</ele>
        <time>2022-04-09T10:54:18.000Z</time>
      </trkpt>
      <trkpt lat="43.91643" lon="7.39869">
        <ele>1040.5999755859</ele>
        <time>2022-04-09T10:54:21.000Z</time>
      </trkpt>
      <trkpt lat="43.91634" lon="7.39866">
        <ele>1040.1999511719</ele>
        <time>2022-04-09T10:54:23.000Z</time>
      </trkpt>
      <trkpt lat="43.91622" lon="7.39859">
        <ele>1039.8000488281</ele>
        <time>2022-04-09T10:54:26.000Z</time>
      </trkpt>
      <trkpt lat="43.91606" lon="7.39849">
        <ele>1040</ele>
        <time>2022-04-09T10:54:30.000Z</time>
      </trkpt>
      <trkpt lat="43.91599" lon="7.39844">
        <ele>1040.5999755859</ele>
        <time>2022-04-09T10:54:32.000Z</time>
      </trkpt>
      <trkpt lat="43.91584" lon="7.39833">
        <ele>1041.8000488281</ele>
        <time>2022-04-09T10:54:37.000Z</time>
      </trkpt>
      <trkpt lat="43.91577" lon="7.39829">
        <ele>1042.1999511719</ele>
        <time>2022-04-09T10:54:39.000Z</time>
      </trkpt>
      <trkpt lat="43.9156" lon="7.39818">
        <ele>1043</ele>
        <time>2022-04-09T10:54:44.000Z</time>
      </trkpt>
      <trkpt lat="43.91547" lon="7.39813">
        <ele>1044</ele>
        <time>2022-04-09T10:54:48.000Z</time>
      </trkpt>
      <trkpt lat="43.91538" lon="7.39811">
        <ele>1044.4000244141</ele>
        <time>2022-04-09T10:54:50.000Z</time>
      </trkpt>
      <trkpt lat="43.91519" lon="7.39806">
        <ele>1043.8000488281</ele>
        <time>2022-04-09T10:54:54.000Z</time>
      </trkpt>
      <trkpt lat="43.91511" lon="7.39802">
        <ele>1043.4000244141</ele>
        <time>2022-04-09T10:54:56.000Z</time>
      </trkpt>
      <trkpt lat="43.91499" lon="7.39798">
        <ele>1043.4000244141</ele>
        <time>2022-04-09T10:54:59.000Z</time>
      </trkpt>
      <trkpt lat="43.91492" lon="7.39795">
        <ele>1043.4000244141</ele>
        <time>2022-04-09T10:55:01.000Z</time>
      </trkpt>
      <trkpt lat="43.9148" lon="7.3979">
        <ele>1043.1999511719</ele>
        <time>2022-04-09T10:55:04.000Z</time>
      </trkpt>
      <trkpt lat="43.91471" lon="7.39787">
        <ele>1043.1999511719</ele>
        <time>2022-04-09T10:55:06.000Z</time>
      </trkpt>
      <trkpt lat="43.91467" lon="7.39785">
        <ele>1043</ele>
        <time>2022-04-09T10:55:07.000Z</time>
      </trkpt>
      <trkpt lat="43.91459" lon="7.39781">
        <ele>1042.1999511719</ele>
        <time>2022-04-09T10:55:09.000Z</time>
      </trkpt>
      <trkpt lat="43.91455" lon="7.39779">
        <ele>1041.8000488281</ele>
        <time>2022-04-09T10:55:10.000Z</time>
      </trkpt>
      <trkpt lat="43.91444" lon="7.39775">
        <ele>1041.1999511719</ele>
        <time>2022-04-09T10:55:12.000Z</time>
      </trkpt>
      <trkpt lat="43.91439" lon="7.39775">
        <ele>1040.8000488281</ele>
        <time>2022-04-09T10:55:13.000Z</time>
      </trkpt>
      <trkpt lat="43.91432" lon="7.39776">
        <ele>1040.5999755859</ele>
        <time>2022-04-09T10:55:14.000Z</time>
      </trkpt>
      <trkpt lat="43.9142" lon="7.39776">
        <ele>1039.5999755859</ele>
        <time>2022-04-09T10:55:16.000Z</time>
      </trkpt>
      <trkpt lat="43.91409" lon="7.39779">
        <ele>1038.8000488281</ele>
        <time>2022-04-09T10:55:18.000Z</time>
      </trkpt>
      <trkpt lat="43.91403" lon="7.39782">
        <ele>1038.4000244141</ele>
        <time>2022-04-09T10:55:19.000Z</time>
      </trkpt>
      <trkpt lat="43.91397" lon="7.39784">
        <ele>1038</ele>
        <time>2022-04-09T10:55:20.000Z</time>
      </trkpt>
      <trkpt lat="43.91386" lon="7.39787">
        <ele>1037</ele>
        <time>2022-04-09T10:55:22.000Z</time>
      </trkpt>
      <trkpt lat="43.91382" lon="7.39789">
        <ele>1036.5999755859</ele>
        <time>2022-04-09T10:55:23.000Z</time>
      </trkpt>
      <trkpt lat="43.91376" lon="7.39793">
        <ele>1036.1999511719</ele>
        <time>2022-04-09T10:55:25.000Z</time>
      </trkpt>
      <trkpt lat="43.91366" lon="7.39795">
        <ele>1035.8000488281</ele>
        <time>2022-04-09T10:55:28.000Z</time>
      </trkpt>
      <trkpt lat="43.91349" lon="7.39798">
        <ele>1035.5999755859</ele>
        <time>2022-04-09T10:55:33.000Z</time>
      </trkpt>
      <trkpt lat="43.91345" lon="7.39801">
        <ele>1036</ele>
        <time>2022-04-09T10:55:34.000Z</time>
      </trkpt>
      <trkpt lat="43.91337" lon="7.39806">
        <ele>1036.4000244141</ele>
        <time>2022-04-09T10:55:36.000Z</time>
      </trkpt>
      <trkpt lat="43.91323" lon="7.39812">
        <ele>1036.4000244141</ele>
        <time>2022-04-09T10:55:39.000Z</time>
      </trkpt>
      <trkpt lat="43.91319" lon="7.39814">
        <ele>1036.5999755859</ele>
        <time>2022-04-09T10:55:40.000Z</time>
      </trkpt>
      <trkpt lat="43.9131" lon="7.39817">
        <ele>1036.5999755859</ele>
        <time>2022-04-09T10:55:42.000Z</time>
      </trkpt>
      <trkpt lat="43.91302" lon="7.39821">
        <ele>1036.8000488281</ele>
        <time>2022-04-09T10:55:44.000Z</time>
      </trkpt>
      <trkpt lat="43.91297" lon="7.39825">
        <ele>1036.8000488281</ele>
        <time>2022-04-09T10:55:45.000Z</time>
      </trkpt>
      <trkpt lat="43.91294" lon="7.39827">
        <ele>1036.8000488281</ele>
        <time>2022-04-09T10:55:46.000Z</time>
      </trkpt>
      <trkpt lat="43.91287" lon="7.3983">
        <ele>1036.5999755859</ele>
        <time>2022-04-09T10:55:47.000Z</time>
      </trkpt>
      <trkpt lat="43.91282" lon="7.39832">
        <ele>1036.1999511719</ele>
        <time>2022-04-09T10:55:48.000Z</time>
      </trkpt>
      <trkpt lat="43.91271" lon="7.39836">
        <ele>1035.4000244141</ele>
        <time>2022-04-09T10:55:50.000Z</time>
      </trkpt>
      <trkpt lat="43.9126" lon="7.39842">
        <ele>1035</ele>
        <time>2022-04-09T10:55:53.000Z</time>
      </trkpt>
      <trkpt lat="43.91247" lon="7.39858">
        <ele>1036.1999511719</ele>
        <time>2022-04-09T10:55:57.000Z</time>
      </trkpt>
      <trkpt lat="43.9124" lon="7.39866">
        <ele>1036.5999755859</ele>
        <time>2022-04-09T10:55:59.000Z</time>
      </trkpt>
      <trkpt lat="43.9123" lon="7.39886">
        <ele>1037</ele>
        <time>2022-04-09T10:56:03.000Z</time>
      </trkpt>
      <trkpt lat="43.91228" lon="7.39891">
        <ele>1037.1999511719</ele>
        <time>2022-04-09T10:56:04.000Z</time>
      </trkpt>
      <trkpt lat="43.91226" lon="7.39895">
        <ele>1037.4000244141</ele>
        <time>2022-04-09T10:56:05.000Z</time>
      </trkpt>
      <trkpt lat="43.91224" lon="7.399">
        <ele>1038</ele>
        <time>2022-04-09T10:56:06.000Z</time>
      </trkpt>
      <trkpt lat="43.9122" lon="7.39907">
        <ele>1038.8000488281</ele>
        <time>2022-04-09T10:56:08.000Z</time>
      </trkpt>
      <trkpt lat="43.91217" lon="7.39911">
        <ele>1039.4000244141</ele>
        <time>2022-04-09T10:56:09.000Z</time>
      </trkpt>
      <trkpt lat="43.91213" lon="7.39913">
        <ele>1039.5999755859</ele>
        <time>2022-04-09T10:56:10.000Z</time>
      </trkpt>
      <trkpt lat="43.91204" lon="7.39916">
        <ele>1040</ele>
        <time>2022-04-09T10:56:12.000Z</time>
      </trkpt>
      <trkpt lat="43.91195" lon="7.39915">
        <ele>1040.1999511719</ele>
        <time>2022-04-09T10:56:14.000Z</time>
      </trkpt>
      <trkpt lat="43.91186" lon="7.39914">
        <ele>1040</ele>
        <time>2022-04-09T10:56:16.000Z</time>
      </trkpt>
      <trkpt lat="43.91167" lon="7.39903">
        <ele>1038.5999755859</ele>
        <time>2022-04-09T10:56:21.000Z</time>
      </trkpt>
      <trkpt lat="43.91166" lon="7.39903">
        <ele>1039.1999511719</ele>
        <time>2022-04-09T10:56:24.000Z</time>
      </trkpt>
      <trkpt lat="43.91165" lon="7.39902">
        <ele>1040</ele>
        <time>2022-04-09T10:56:42.000Z</time>
      </trkpt>
      <trkpt lat="43.91164" lon="7.39902">
        <ele>1039.8000488281</ele>
        <time>2022-04-09T10:56:57.000Z</time>
      </trkpt>
      <trkpt lat="43.91162" lon="7.39898">
        <ele>1039.8000488281</ele>
        <time>2022-04-09T10:57:04.000Z</time>
      </trkpt>
      <trkpt lat="43.91162" lon="7.39899">
        <ele>1040.1999511719</ele>
        <time>2022-04-09T10:57:11.000Z</time>
      </trkpt>
      <trkpt lat="43.91161" lon="7.39899">
        <ele>1039.5999755859</ele>
        <time>2022-04-09T10:57:18.000Z</time>
      </trkpt>
      <trkpt lat="43.91161" lon="7.39898">
        <ele>1039.1999511719</ele>
        <time>2022-04-09T10:57:26.000Z</time>
      </trkpt>
      <trkpt lat="43.91161" lon="7.39898">
        <ele>1039</ele>
        <time>2022-04-09T10:57:37.000Z</time>
      </trkpt>
      <trkpt lat="43.91161" lon="7.39898">
        <ele>1039.5999755859</ele>
        <time>2022-04-09T10:57:46.000Z</time>
      </trkpt>
      <trkpt lat="43.91161" lon="7.39898">
        <ele>1039.4000244141</ele>
        <time>2022-04-09T10:57:57.000Z</time>
      </trkpt>
      <trkpt lat="43.91161" lon="7.39898">
        <ele>1039.1999511719</ele>
        <time>2022-04-09T10:58:08.000Z</time>
      </trkpt>
      <trkpt lat="43.91161" lon="7.39899">
        <ele>1039.1999511719</ele>
        <time>2022-04-09T10:58:15.000Z</time>
      </trkpt>
      <trkpt lat="43.91161" lon="7.39899">
        <ele>1039.1999511719</ele>
        <time>2022-04-09T10:58:23.000Z</time>
      </trkpt>
      <trkpt lat="43.91161" lon="7.39899">
        <ele>1039.1999511719</ele>
        <time>2022-04-09T10:58:29.000Z</time>
      </trkpt>
      <trkpt lat="43.91161" lon="7.39899">
        <ele>1039.1999511719</ele>
        <time>2022-04-09T10:58:34.000Z</time>
      </trkpt>
      <trkpt lat="43.91162" lon="7.39899">
        <ele>1038.8000488281</ele>
        <time>2022-04-09T10:58:44.000Z</time>
      </trkpt>
      <trkpt lat="43.91162" lon="7.39899">
        <ele>1038.5999755859</ele>
        <time>2022-04-09T10:58:56.000Z</time>
      </trkpt>
      <trkpt lat="43.91162" lon="7.39899">
        <ele>1039</ele>
        <time>2022-04-09T10:59:16.000Z</time>
      </trkpt>
      <trkpt lat="43.91162" lon="7.39899">
        <ele>1038.8000488281</ele>
        <time>2022-04-09T10:59:24.000Z</time>
      </trkpt>
      <trkpt lat="43.91162" lon="7.39899">
        <ele>1038.5999755859</ele>
        <time>2022-04-09T10:59:38.000Z</time>
      </trkpt>
      <trkpt lat="43.91162" lon="7.39899">
        <ele>1038.8000488281</ele>
        <time>2022-04-09T10:59:50.000Z</time>
      </trkpt>
      <trkpt lat="43.91163" lon="7.39899">
        <ele>1038.8000488281</ele>
        <time>2022-04-09T11:00:08.000Z</time>
      </trkpt>
      <trkpt lat="43.91162" lon="7.39899">
        <ele>1038.1999511719</ele>
        <time>2022-04-09T11:00:13.000Z</time>
      </trkpt>
      <trkpt lat="43.91163" lon="7.39899">
        <ele>1038.1999511719</ele>
        <time>2022-04-09T11:00:34.000Z</time>
      </trkpt>
      <trkpt lat="43.91164" lon="7.39899">
        <ele>1038.1999511719</ele>
        <time>2022-04-09T11:00:49.000Z</time>
      </trkpt>
      <trkpt lat="43.91164" lon="7.39899">
        <ele>1038.1999511719</ele>
        <time>2022-04-09T11:01:05.000Z</time>
      </trkpt>
      <trkpt lat="43.91164" lon="7.39899">
        <ele>1037.1999511719</ele>
        <time>2022-04-09T11:01:21.000Z</time>
      </trkpt>
      <trkpt lat="43.91164" lon="7.39899">
        <ele>1037.1999511719</ele>
        <time>2022-04-09T11:01:31.000Z</time>
      </trkpt>
      <trkpt lat="43.91165" lon="7.39899">
        <ele>1037</ele>
        <time>2022-04-09T11:01:43.000Z</time>
      </trkpt>
      <trkpt lat="43.91165" lon="7.39899">
        <ele>1037.4000244141</ele>
        <time>2022-04-09T11:01:59.000Z</time>
      </trkpt>
      <trkpt lat="43.91165" lon="7.39899">
        <ele>1037</ele>
        <time>2022-04-09T11:02:15.000Z</time>
      </trkpt>
      <trkpt lat="43.91165" lon="7.39899">
        <ele>1037</ele>
        <time>2022-04-09T11:02:32.000Z</time>
      </trkpt>
      <trkpt lat="43.91165" lon="7.39898">
        <ele>1036.5999755859</ele>
        <time>2022-04-09T11:02:55.000Z</time>
      </trkpt>
      <trkpt lat="43.91164" lon="7.39898">
        <ele>1036.8000488281</ele>
        <time>2022-04-09T11:03:13.000Z</time>
      </trkpt>
      <trkpt lat="43.91164" lon="7.39898">
        <ele>1037.1999511719</ele>
        <time>2022-04-09T11:03:29.000Z</time>
      </trkpt>
      <trkpt lat="43.91164" lon="7.39898">
        <ele>1036.4000244141</ele>
        <time>2022-04-09T11:03:43.000Z</time>
      </trkpt>
      <trkpt lat="43.91164" lon="7.39898">
        <ele>1036.4000244141</ele>
        <time>2022-04-09T11:04:03.000Z</time>
      </trkpt>
      <trkpt lat="43.91163" lon="7.39898">
        <ele>1036.8000488281</ele>
        <time>2022-04-09T11:04:25.000Z</time>
      </trkpt>
      <trkpt lat="43.91163" lon="7.39898">
        <ele>1036.4000244141</ele>
        <time>2022-04-09T11:04:41.000Z</time>
      </trkpt>
      <trkpt lat="43.91163" lon="7.39898">
        <ele>1036.8000488281</ele>
        <time>2022-04-09T11:05:05.000Z</time>
      </trkpt>
      <trkpt lat="43.91162" lon="7.39895">
        <ele>1036.5999755859</ele>
        <time>2022-04-09T11:05:22.000Z</time>
      </trkpt>
      <trkpt lat="43.91162" lon="7.39896">
        <ele>1036.8000488281</ele>
        <time>2022-04-09T11:05:44.000Z</time>
      </trkpt>
      <trkpt lat="43.91163" lon="7.39897">
        <ele>1036.8000488281</ele>
        <time>2022-04-09T11:06:02.000Z</time>
      </trkpt>
      <trkpt lat="43.91163" lon="7.39897">
        <ele>1036.5999755859</ele>
        <time>2022-04-09T11:06:22.000Z</time>
      </trkpt>
      <trkpt lat="43.91164" lon="7.39897">
        <ele>1037.1999511719</ele>
        <time>2022-04-09T11:06:34.000Z</time>
      </trkpt>
      <trkpt lat="43.91164" lon="7.39897">
        <ele>1037</ele>
        <time>2022-04-09T11:06:52.000Z</time>
      </trkpt>
      <trkpt lat="43.91163" lon="7.39898">
        <ele>1037.5999755859</ele>
        <time>2022-04-09T11:07:19.000Z</time>
      </trkpt>
      <trkpt lat="43.91163" lon="7.39898">
        <ele>1037.1999511719</ele>
        <time>2022-04-09T11:07:33.000Z</time>
      </trkpt>
      <trkpt lat="43.91163" lon="7.39898">
        <ele>1037.5999755859</ele>
        <time>2022-04-09T11:07:44.000Z</time>
      </trkpt>
      <trkpt lat="43.91163" lon="7.39899">
        <ele>1037.5999755859</ele>
        <time>2022-04-09T11:07:53.000Z</time>
      </trkpt>
      <trkpt lat="43.91163" lon="7.39899">
        <ele>1037.4000244141</ele>
        <time>2022-04-09T11:08:05.000Z</time>
      </trkpt>
      <trkpt lat="43.91163" lon="7.39899">
        <ele>1037.5999755859</ele>
        <time>2022-04-09T11:08:18.000Z</time>
      </trkpt>
      <trkpt lat="43.91162" lon="7.39899">
        <ele>1037.4000244141</ele>
        <time>2022-04-09T11:08:25.000Z</time>
      </trkpt>
      <trkpt lat="43.91161" lon="7.39899">
        <ele>1037.5999755859</ele>
        <time>2022-04-09T11:08:33.000Z</time>
      </trkpt>
      <trkpt lat="43.91163" lon="7.39899">
        <ele>1037.4000244141</ele>
        <time>2022-04-09T11:08:41.000Z</time>
      </trkpt>
      <trkpt lat="43.91161" lon="7.39896">
        <ele>1037.5999755859</ele>
        <time>2022-04-09T11:08:45.000Z</time>
      </trkpt>
      <trkpt lat="43.91158" lon="7.39895">
        <ele>1037.5999755859</ele>
        <time>2022-04-09T11:08:48.000Z</time>
      </trkpt>
      <trkpt lat="43.91157" lon="7.39896">
        <ele>1037.5999755859</ele>
        <time>2022-04-09T11:08:51.000Z</time>
      </trkpt>
      <trkpt lat="43.9116" lon="7.39898">
        <ele>1037.5999755859</ele>
        <time>2022-04-09T11:09:00.000Z</time>
      </trkpt>
      <trkpt lat="43.91161" lon="7.39898">
        <ele>1037.5999755859</ele>
        <time>2022-04-09T11:09:13.000Z</time>
      </trkpt>
      <trkpt lat="43.91162" lon="7.39899">
        <ele>1037.4000244141</ele>
        <time>2022-04-09T11:09:27.000Z</time>
      </trkpt>
      <trkpt lat="43.91163" lon="7.39898">
        <ele>1037.4000244141</ele>
        <time>2022-04-09T11:09:39.000Z</time>
      </trkpt>
      <trkpt lat="43.91162" lon="7.39897">
        <ele>1037.4000244141</ele>
        <time>2022-04-09T11:09:42.000Z</time>
      </trkpt>
      <trkpt lat="43.91162" lon="7.39897">
        <ele>1037.4000244141</ele>
        <time>2022-04-09T11:09:44.000Z</time>
      </trkpt>
      <trkpt lat="43.91164" lon="7.39899">
        <ele>1037.4000244141</ele>
        <time>2022-04-09T11:09:49.000Z</time>
      </trkpt>
      <trkpt lat="43.91162" lon="7.399">
        <ele>1037.4000244141</ele>
        <time>2022-04-09T11:09:50.000Z</time>
      </trkpt>
      <trkpt lat="43.91159" lon="7.399">
        <ele>1037.1999511719</ele>
        <time>2022-04-09T11:09:52.000Z</time>
      </trkpt>
      <trkpt lat="43.91159" lon="7.399">
        <ele>1037.1999511719</ele>
        <time>2022-04-09T11:09:54.000Z</time>
      </trkpt>
      <trkpt lat="43.9116" lon="7.39899">
        <ele>1037.4000244141</ele>
        <time>2022-04-09T11:10:03.000Z</time>
      </trkpt>
      <trkpt lat="43.91162" lon="7.39898">
        <ele>1037.5999755859</ele>
        <time>2022-04-09T11:10:18.000Z</time>
      </trkpt>
      <trkpt lat="43.91162" lon="7.39898">
        <ele>1037.8000488281</ele>
        <time>2022-04-09T11:10:31.000Z</time>
      </trkpt>
      <trkpt lat="43.91163" lon="7.39897">
        <ele>1037.4000244141</ele>
        <time>2022-04-09T11:10:51.000Z</time>
      </trkpt>
      <trkpt lat="43.91164" lon="7.39895">
        <ele>1037.5999755859</ele>
        <time>2022-04-09T11:11:13.000Z</time>
      </trkpt>
      <trkpt lat="43.91163" lon="7.39895">
        <ele>1037.5999755859</ele>
        <time>2022-04-09T11:11:33.000Z</time>
      </trkpt>
      <trkpt lat="43.91163" lon="7.39894">
        <ele>1038</ele>
        <time>2022-04-09T11:11:50.000Z</time>
      </trkpt>
      <trkpt lat="43.91162" lon="7.39893">
        <ele>1037.8000488281</ele>
        <time>2022-04-09T11:12:07.000Z</time>
      </trkpt>
      <trkpt lat="43.91162" lon="7.39894">
        <ele>1038.1999511719</ele>
        <time>2022-04-09T11:12:20.000Z</time>
      </trkpt>
      <trkpt lat="43.91161" lon="7.39894">
        <ele>1038</ele>
        <time>2022-04-09T11:12:33.000Z</time>
      </trkpt>
      <trkpt lat="43.91161" lon="7.39895">
        <ele>1038.1999511719</ele>
        <time>2022-04-09T11:12:49.000Z</time>
      </trkpt>
      <trkpt lat="43.91161" lon="7.39895">
        <ele>1038.5999755859</ele>
        <time>2022-04-09T11:12:58.000Z</time>
      </trkpt>
      <trkpt lat="43.9116" lon="7.39895">
        <ele>1039</ele>
        <time>2022-04-09T11:13:06.000Z</time>
      </trkpt>
      <trkpt lat="43.9116" lon="7.39894">
        <ele>1039.1999511719</ele>
        <time>2022-04-09T11:13:13.000Z</time>
      </trkpt>
      <trkpt lat="43.9116" lon="7.39894">
        <ele>1039.4000244141</ele>
        <time>2022-04-09T11:13:19.000Z</time>
      </trkpt>
      <trkpt lat="43.91159" lon="7.39894">
        <ele>1039.5999755859</ele>
        <time>2022-04-09T11:13:30.000Z</time>
      </trkpt>
      <trkpt lat="43.9116" lon="7.39895">
        <ele>1039.5999755859</ele>
        <time>2022-04-09T11:13:41.000Z</time>
      </trkpt>
      <trkpt lat="43.91162" lon="7.39896">
        <ele>1039.1999511719</ele>
        <time>2022-04-09T11:13:55.000Z</time>
      </trkpt>
      <trkpt lat="43.91163" lon="7.39896">
        <ele>1039.4000244141</ele>
        <time>2022-04-09T11:14:03.000Z</time>
      </trkpt>
      <trkpt lat="43.91163" lon="7.39896">
        <ele>1039.4000244141</ele>
        <time>2022-04-09T11:14:14.000Z</time>
      </trkpt>
      <trkpt lat="43.91163" lon="7.39895">
        <ele>1039.5999755859</ele>
        <time>2022-04-09T11:14:27.000Z</time>
      </trkpt>
      <trkpt lat="43.91163" lon="7.39896">
        <ele>1039.4000244141</ele>
        <time>2022-04-09T11:14:36.000Z</time>
      </trkpt>
      <trkpt lat="43.91163" lon="7.39896">
        <ele>1039.1999511719</ele>
        <time>2022-04-09T11:14:44.000Z</time>
      </trkpt>
      <trkpt lat="43.91164" lon="7.39896">
        <ele>1040</ele>
        <time>2022-04-09T11:14:58.000Z</time>
      </trkpt>
      <trkpt lat="43.91165" lon="7.39897">
        <ele>1039.5999755859</ele>
        <time>2022-04-09T11:15:07.000Z</time>
      </trkpt>
      <trkpt lat="43.91164" lon="7.39897">
        <ele>1039.5999755859</ele>
        <time>2022-04-09T11:15:15.000Z</time>
      </trkpt>
      <trkpt lat="43.91165" lon="7.39897">
        <ele>1038.8000488281</ele>
        <time>2022-04-09T11:15:31.000Z</time>
      </trkpt>
      <trkpt lat="43.91165" lon="7.39897">
        <ele>1039.1999511719</ele>
        <time>2022-04-09T11:15:44.000Z</time>
      </trkpt>
      <trkpt lat="43.91165" lon="7.39897">
        <ele>1039</ele>
        <time>2022-04-09T11:15:52.000Z</time>
      </trkpt>
      <trkpt lat="43.91165" lon="7.39896">
        <ele>1039.1999511719</ele>
        <time>2022-04-09T11:16:07.000Z</time>
      </trkpt>
      <trkpt lat="43.91165" lon="7.39896">
        <ele>1039.4000244141</ele>
        <time>2022-04-09T11:16:17.000Z</time>
      </trkpt>
      <trkpt lat="43.91165" lon="7.39896">
        <ele>1039.4000244141</ele>
        <time>2022-04-09T11:16:25.000Z</time>
      </trkpt>
      <trkpt lat="43.91165" lon="7.39896">
        <ele>1039.4000244141</ele>
        <time>2022-04-09T11:16:34.000Z</time>
      </trkpt>
      <trkpt lat="43.91165" lon="7.39895">
        <ele>1038.5999755859</ele>
        <time>2022-04-09T11:16:45.000Z</time>
      </trkpt>
      <trkpt lat="43.91165" lon="7.39895">
        <ele>1039.1999511719</ele>
        <time>2022-04-09T11:16:57.000Z</time>
      </trkpt>
      <trkpt lat="43.91165" lon="7.39894">
        <ele>1038.8000488281</ele>
        <time>2022-04-09T11:17:08.000Z</time>
      </trkpt>
      <trkpt lat="43.91165" lon="7.39894">
        <ele>1039.1999511719</ele>
        <time>2022-04-09T11:17:15.000Z</time>
      </trkpt>
      <trkpt lat="43.91165" lon="7.39895">
        <ele>1039.4000244141</ele>
        <time>2022-04-09T11:17:27.000Z</time>
      </trkpt>
      <trkpt lat="43.91165" lon="7.39895">
        <ele>1039.5999755859</ele>
        <time>2022-04-09T11:17:39.000Z</time>
      </trkpt>
      <trkpt lat="43.91165" lon="7.39896">
        <ele>1039.1999511719</ele>
        <time>2022-04-09T11:17:50.000Z</time>
      </trkpt>
      <trkpt lat="43.91165" lon="7.39896">
        <ele>1039.4000244141</ele>
        <time>2022-04-09T11:18:14.000Z</time>
      </trkpt>
      <trkpt lat="43.91165" lon="7.39897">
        <ele>1039.8000488281</ele>
        <time>2022-04-09T11:18:28.000Z</time>
      </trkpt>
      <trkpt lat="43.91165" lon="7.39897">
        <ele>1040</ele>
        <time>2022-04-09T11:18:40.000Z</time>
      </trkpt>
      <trkpt lat="43.91165" lon="7.39897">
        <ele>1039.8000488281</ele>
        <time>2022-04-09T11:18:51.000Z</time>
      </trkpt>
      <trkpt lat="43.91165" lon="7.39897">
        <ele>1039.8000488281</ele>
        <time>2022-04-09T11:18:59.000Z</time>
      </trkpt>
      <trkpt lat="43.91165" lon="7.39897">
        <ele>1040.1999511719</ele>
        <time>2022-04-09T11:19:10.000Z</time>
      </trkpt>
      <trkpt lat="43.91165" lon="7.39897">
        <ele>1040</ele>
        <time>2022-04-09T11:19:21.000Z</time>
      </trkpt>
      <trkpt lat="43.91163" lon="7.39897">
        <ele>1040.1999511719</ele>
        <time>2022-04-09T11:19:33.000Z</time>
      </trkpt>
      <trkpt lat="43.91163" lon="7.39897">
        <ele>1040.1999511719</ele>
        <time>2022-04-09T11:19:41.000Z</time>
      </trkpt>
      <trkpt lat="43.91163" lon="7.39897">
        <ele>1040.4000244141</ele>
        <time>2022-04-09T11:19:44.000Z</time>
      </trkpt>
      <trkpt lat="43.91163" lon="7.39897">
        <ele>1040.1999511719</ele>
        <time>2022-04-09T11:19:53.000Z</time>
      </trkpt>
      <trkpt lat="43.91164" lon="7.39898">
        <ele>1040</ele>
        <time>2022-04-09T11:20:00.000Z</time>
      </trkpt>
      <trkpt lat="43.91164" lon="7.39898">
        <ele>1040.4000244141</ele>
        <time>2022-04-09T11:20:28.000Z</time>
      </trkpt>
      <trkpt lat="43.91165" lon="7.39898">
        <ele>1040.4000244141</ele>
        <time>2022-04-09T11:20:43.000Z</time>
      </trkpt>
      <trkpt lat="43.91165" lon="7.39898">
        <ele>1040.4000244141</ele>
        <time>2022-04-09T11:21:10.000Z</time>
      </trkpt>
      <trkpt lat="43.91166" lon="7.39898">
        <ele>1040.5999755859</ele>
        <time>2022-04-09T11:21:27.000Z</time>
      </trkpt>
      <trkpt lat="43.91166" lon="7.39899">
        <ele>1040</ele>
        <time>2022-04-09T11:21:42.000Z</time>
      </trkpt>
      <trkpt lat="43.91166" lon="7.399">
        <ele>1040.1999511719</ele>
        <time>2022-04-09T11:21:59.000Z</time>
      </trkpt>
      <trkpt lat="43.91166" lon="7.39901">
        <ele>1040</ele>
        <time>2022-04-09T11:22:15.000Z</time>
      </trkpt>
      <trkpt lat="43.91166" lon="7.39902">
        <ele>1040.1999511719</ele>
        <time>2022-04-09T11:22:30.000Z</time>
      </trkpt>
      <trkpt lat="43.91166" lon="7.39902">
        <ele>1040.4000244141</ele>
        <time>2022-04-09T11:22:54.000Z</time>
      </trkpt>
      <trkpt lat="43.91167" lon="7.39901">
        <ele>1040.1999511719</ele>
        <time>2022-04-09T11:23:16.000Z</time>
      </trkpt>
      <trkpt lat="43.91166" lon="7.39901">
        <ele>1040.1999511719</ele>
        <time>2022-04-09T11:23:34.000Z</time>
      </trkpt>
      <trkpt lat="43.91166" lon="7.39902">
        <ele>1040.4000244141</ele>
        <time>2022-04-09T11:23:57.000Z</time>
      </trkpt>
      <trkpt lat="43.91165" lon="7.39903">
        <ele>1040.1999511719</ele>
        <time>2022-04-09T11:24:23.000Z</time>
      </trkpt>
      <trkpt lat="43.91165" lon="7.39903">
        <ele>1040.4000244141</ele>
        <time>2022-04-09T11:24:44.000Z</time>
      </trkpt>
      <trkpt lat="43.91165" lon="7.39902">
        <ele>1040.8000488281</ele>
        <time>2022-04-09T11:24:53.000Z</time>
      </trkpt>
      <trkpt lat="43.91164" lon="7.39901">
        <ele>1040.8000488281</ele>
        <time>2022-04-09T11:25:13.000Z</time>
      </trkpt>
      <trkpt lat="43.91164" lon="7.399">
        <ele>1040.4000244141</ele>
        <time>2022-04-09T11:25:26.000Z</time>
      </trkpt>
      <trkpt lat="43.91164" lon="7.39899">
        <ele>1040.8000488281</ele>
        <time>2022-04-09T11:25:58.000Z</time>
      </trkpt>
      <trkpt lat="43.91163" lon="7.39899">
        <ele>1040.8000488281</ele>
        <time>2022-04-09T11:26:10.000Z</time>
      </trkpt>
      <trkpt lat="43.91164" lon="7.39898">
        <ele>1040.4000244141</ele>
        <time>2022-04-09T11:26:22.000Z</time>
      </trkpt>
      <trkpt lat="43.91164" lon="7.39898">
        <ele>1040.1999511719</ele>
        <time>2022-04-09T11:26:36.000Z</time>
      </trkpt>
      <trkpt lat="43.91164" lon="7.39898">
        <ele>1040.4000244141</ele>
        <time>2022-04-09T11:26:48.000Z</time>
      </trkpt>
      <trkpt lat="43.91164" lon="7.39898">
        <ele>1040</ele>
        <time>2022-04-09T11:26:58.000Z</time>
      </trkpt>
      <trkpt lat="43.91164" lon="7.39898">
        <ele>1040.4000244141</ele>
        <time>2022-04-09T11:27:06.000Z</time>
      </trkpt>
      <trkpt lat="43.91164" lon="7.39898">
        <ele>1041</ele>
        <time>2022-04-09T11:27:14.000Z</time>
      </trkpt>
      <trkpt lat="43.91165" lon="7.39898">
        <ele>1040.8000488281</ele>
        <time>2022-04-09T11:27:22.000Z</time>
      </trkpt>
      <trkpt lat="43.91165" lon="7.39899">
        <ele>1040.1999511719</ele>
        <time>2022-04-09T11:27:46.000Z</time>
      </trkpt>
      <trkpt lat="43.91165" lon="7.399">
        <ele>1040.1999511719</ele>
        <time>2022-04-09T11:28:10.000Z</time>
      </trkpt>
      <trkpt lat="43.91166" lon="7.399">
        <ele>1040.1999511719</ele>
        <time>2022-04-09T11:28:33.000Z</time>
      </trkpt>
      <trkpt lat="43.91166" lon="7.39901">
        <ele>1040.4000244141</ele>
        <time>2022-04-09T11:28:54.000Z</time>
      </trkpt>
      <trkpt lat="43.91166" lon="7.399">
        <ele>1040.1999511719</ele>
        <time>2022-04-09T11:29:14.000Z</time>
      </trkpt>
      <trkpt lat="43.91167" lon="7.39899">
        <ele>1040.1999511719</ele>
        <time>2022-04-09T11:29:32.000Z</time>
      </trkpt>
      <trkpt lat="43.91168" lon="7.39899">
        <ele>1040.1999511719</ele>
        <time>2022-04-09T11:29:48.000Z</time>
      </trkpt>
      <trkpt lat="43.91168" lon="7.39899">
        <ele>1040.4000244141</ele>
        <time>2022-04-09T11:30:07.000Z</time>
      </trkpt>
      <trkpt lat="43.91167" lon="7.39901">
        <ele>1040.4000244141</ele>
        <time>2022-04-09T11:30:33.000Z</time>
      </trkpt>
      <trkpt lat="43.91166" lon="7.39902">
        <ele>1040.5999755859</ele>
        <time>2022-04-09T11:31:03.000Z</time>
      </trkpt>
      <trkpt lat="43.91166" lon="7.39902">
        <ele>1040.8000488281</ele>
        <time>2022-04-09T11:31:29.000Z</time>
      </trkpt>
      <trkpt lat="43.91166" lon="7.39902">
        <ele>1040.8000488281</ele>
        <time>2022-04-09T11:31:50.000Z</time>
      </trkpt>
      <trkpt lat="43.91166" lon="7.39901">
        <ele>1041</ele>
        <time>2022-04-09T11:32:09.000Z</time>
      </trkpt>
      <trkpt lat="43.91166" lon="7.399">
        <ele>1041.4000244141</ele>
        <time>2022-04-09T11:32:16.000Z</time>
      </trkpt>
      <trkpt lat="43.91165" lon="7.39899">
        <ele>1041.5999755859</ele>
        <time>2022-04-09T11:32:24.000Z</time>
      </trkpt>
      <trkpt lat="43.91165" lon="7.39899">
        <ele>1041.8000488281</ele>
        <time>2022-04-09T11:32:36.000Z</time>
      </trkpt>
      <trkpt lat="43.91165" lon="7.39898">
        <ele>1041.5999755859</ele>
        <time>2022-04-09T11:32:43.000Z</time>
      </trkpt>
      <trkpt lat="43.91165" lon="7.39898">
        <ele>1042.4000244141</ele>
        <time>2022-04-09T11:32:48.000Z</time>
      </trkpt>
      <trkpt lat="43.91165" lon="7.39898">
        <ele>1042.4000244141</ele>
        <time>2022-04-09T11:32:51.000Z</time>
      </trkpt>
      <trkpt lat="43.91165" lon="7.39898">
        <ele>1042</ele>
        <time>2022-04-09T11:32:57.000Z</time>
      </trkpt>
      <trkpt lat="43.91165" lon="7.39899">
        <ele>1042.1999511719</ele>
        <time>2022-04-09T11:33:03.000Z</time>
      </trkpt>
      <trkpt lat="43.91167" lon="7.39898">
        <ele>1042.4000244141</ele>
        <time>2022-04-09T11:33:05.000Z</time>
      </trkpt>
      <trkpt lat="43.91166" lon="7.39898">
        <ele>1042.5999755859</ele>
        <time>2022-04-09T11:33:06.000Z</time>
      </trkpt>
      <trkpt lat="43.91166" lon="7.39898">
        <ele>1042</ele>
        <time>2022-04-09T11:33:14.000Z</time>
      </trkpt>
      <trkpt lat="43.91165" lon="7.39898">
        <ele>1042</ele>
        <time>2022-04-09T11:33:22.000Z</time>
      </trkpt>
      <trkpt lat="43.91165" lon="7.39898">
        <ele>1041.8000488281</ele>
        <time>2022-04-09T11:33:28.000Z</time>
      </trkpt>
      <trkpt lat="43.91165" lon="7.39898">
        <ele>1042.1999511719</ele>
        <time>2022-04-09T11:33:38.000Z</time>
      </trkpt>
      <trkpt lat="43.91165" lon="7.39898">
        <ele>1041.8000488281</ele>
        <time>2022-04-09T11:33:51.000Z</time>
      </trkpt>
      <trkpt lat="43.91165" lon="7.39899">
        <ele>1042.4000244141</ele>
        <time>2022-04-09T11:34:05.000Z</time>
      </trkpt>
      <trkpt lat="43.91165" lon="7.39899">
        <ele>1042.5999755859</ele>
        <time>2022-04-09T11:34:12.000Z</time>
      </trkpt>
      <trkpt lat="43.91164" lon="7.39899">
        <ele>1042.4000244141</ele>
        <time>2022-04-09T11:34:20.000Z</time>
      </trkpt>
      <trkpt lat="43.91164" lon="7.39899">
        <ele>1042</ele>
        <time>2022-04-09T11:34:27.000Z</time>
      </trkpt>
      <trkpt lat="43.91164" lon="7.39897">
        <ele>1042</ele>
        <time>2022-04-09T11:34:34.000Z</time>
      </trkpt>
      <trkpt lat="43.91164" lon="7.39897">
        <ele>1042.8000488281</ele>
        <time>2022-04-09T11:34:40.000Z</time>
      </trkpt>
      <trkpt lat="43.91164" lon="7.39897">
        <ele>1042.8000488281</ele>
        <time>2022-04-09T11:34:47.000Z</time>
      </trkpt>
      <trkpt lat="43.91164" lon="7.39897">
        <ele>1042.4000244141</ele>
        <time>2022-04-09T11:34:54.000Z</time>
      </trkpt>
      <trkpt lat="43.91165" lon="7.39898">
        <ele>1042.8000488281</ele>
        <time>2022-04-09T11:35:02.000Z</time>
      </trkpt>
      <trkpt lat="43.91165" lon="7.39898">
        <ele>1042.8000488281</ele>
        <time>2022-04-09T11:35:16.000Z</time>
      </trkpt>
      <trkpt lat="43.91165" lon="7.39898">
        <ele>1043.4000244141</ele>
        <time>2022-04-09T11:35:23.000Z</time>
      </trkpt>
      <trkpt lat="43.91165" lon="7.39898">
        <ele>1043.4000244141</ele>
        <time>2022-04-09T11:35:27.000Z</time>
      </trkpt>
      <trkpt lat="43.91164" lon="7.39899">
        <ele>1043.4000244141</ele>
        <time>2022-04-09T11:35:34.000Z</time>
      </trkpt>
      <trkpt lat="43.91165" lon="7.39899">
        <ele>1043.8000488281</ele>
        <time>2022-04-09T11:35:40.000Z</time>
      </trkpt>
      <trkpt lat="43.91166" lon="7.39901">
        <ele>1043.8000488281</ele>
        <time>2022-04-09T11:35:46.000Z</time>
      </trkpt>
      <trkpt lat="43.91166" lon="7.39901">
        <ele>1042.8000488281</ele>
        <time>2022-04-09T11:35:54.000Z</time>
      </trkpt>
      <trkpt lat="43.91166" lon="7.39899">
        <ele>1042.8000488281</ele>
        <time>2022-04-09T11:35:56.000Z</time>
      </trkpt>
      <trkpt lat="43.91166" lon="7.399">
        <ele>1043.4000244141</ele>
        <time>2022-04-09T11:35:59.000Z</time>
      </trkpt>
      <trkpt lat="43.91166" lon="7.39901">
        <ele>1044.4000244141</ele>
        <time>2022-04-09T11:36:03.000Z</time>
      </trkpt>
      <trkpt lat="43.91166" lon="7.39901">
        <ele>1044.8000488281</ele>
        <time>2022-04-09T11:36:07.000Z</time>
      </trkpt>
      <trkpt lat="43.91163" lon="7.39903">
        <ele>1044.4000244141</ele>
        <time>2022-04-09T11:36:19.000Z</time>
      </trkpt>
      <trkpt lat="43.91163" lon="7.39903">
        <ele>1043.4000244141</ele>
        <time>2022-04-09T11:36:24.000Z</time>
      </trkpt>
      <trkpt lat="43.91163" lon="7.39903">
        <ele>1043.1999511719</ele>
        <time>2022-04-09T11:36:27.000Z</time>
      </trkpt>
      <trkpt lat="43.91163" lon="7.39903">
        <ele>1042.8000488281</ele>
        <time>2022-04-09T11:36:36.000Z</time>
      </trkpt>
      <trkpt lat="43.91163" lon="7.39903">
        <ele>1042.1999511719</ele>
        <time>2022-04-09T11:36:44.000Z</time>
      </trkpt>
      <trkpt lat="43.91163" lon="7.39903">
        <ele>1042.1999511719</ele>
        <time>2022-04-09T11:36:46.000Z</time>
      </trkpt>
      <trkpt lat="43.91162" lon="7.39903">
        <ele>1042.8000488281</ele>
        <time>2022-04-09T11:36:56.000Z</time>
      </trkpt>
      <trkpt lat="43.91157" lon="7.39901">
        <ele>1043</ele>
        <time>2022-04-09T11:37:03.000Z</time>
      </trkpt>
      <trkpt lat="43.91149" lon="7.39901">
        <ele>1042.8000488281</ele>
        <time>2022-04-09T11:37:07.000Z</time>
      </trkpt>
      <trkpt lat="43.91146" lon="7.39903">
        <ele>1042.1999511719</ele>
        <time>2022-04-09T11:37:08.000Z</time>
      </trkpt>
      <trkpt lat="43.91141" lon="7.39906">
        <ele>1041.1999511719</ele>
        <time>2022-04-09T11:37:10.000Z</time>
      </trkpt>
      <trkpt lat="43.91139" lon="7.399">
        <ele>1039.8000488281</ele>
        <time>2022-04-09T11:37:12.000Z</time>
      </trkpt>
      <trkpt lat="43.9114" lon="7.39899">
        <ele>1039</ele>
        <time>2022-04-09T11:37:15.000Z</time>
      </trkpt>
      <trkpt lat="43.91143" lon="7.39894">
        <ele>1038.5999755859</ele>
        <time>2022-04-09T11:37:17.000Z</time>
      </trkpt>
      <trkpt lat="43.91143" lon="7.39893">
        <ele>1038.5999755859</ele>
        <time>2022-04-09T11:37:18.000Z</time>
      </trkpt>
      <trkpt lat="43.91143" lon="7.39892">
        <ele>1038.1999511719</ele>
        <time>2022-04-09T11:37:19.000Z</time>
      </trkpt>
      <trkpt lat="43.91142" lon="7.3989">
        <ele>1037.5999755859</ele>
        <time>2022-04-09T11:37:21.000Z</time>
      </trkpt>
      <trkpt lat="43.91136" lon="7.3989">
        <ele>1036.8000488281</ele>
        <time>2022-04-09T11:37:24.000Z</time>
      </trkpt>
      <trkpt lat="43.91132" lon="7.39889">
        <ele>1036.1999511719</ele>
        <time>2022-04-09T11:37:26.000Z</time>
      </trkpt>
      <trkpt lat="43.9113" lon="7.39886">
        <ele>1035.1999511719</ele>
        <time>2022-04-09T11:37:29.000Z</time>
      </trkpt>
      <trkpt lat="43.91132" lon="7.39883">
        <ele>1034.1999511719</ele>
        <time>2022-04-09T11:37:31.000Z</time>
      </trkpt>
      <trkpt lat="43.91136" lon="7.3988">
        <ele>1033.1999511719</ele>
        <time>2022-04-09T11:37:33.000Z</time>
      </trkpt>
      <trkpt lat="43.91138" lon="7.39878">
        <ele>1032.5999755859</ele>
        <time>2022-04-09T11:37:34.000Z</time>
      </trkpt>
      <trkpt lat="43.91146" lon="7.39866">
        <ele>1031.1999511719</ele>
        <time>2022-04-09T11:37:37.000Z</time>
      </trkpt>
      <trkpt lat="43.91152" lon="7.39854">
        <ele>1029.5999755859</ele>
        <time>2022-04-09T11:37:40.000Z</time>
      </trkpt>
      <trkpt lat="43.91155" lon="7.39851">
        <ele>1028.8000488281</ele>
        <time>2022-04-09T11:37:41.000Z</time>
      </trkpt>
      <trkpt lat="43.91157" lon="7.39849">
        <ele>1027.8000488281</ele>
        <time>2022-04-09T11:37:42.000Z</time>
      </trkpt>
      <trkpt lat="43.91164" lon="7.39842">
        <ele>1026.5999755859</ele>
        <time>2022-04-09T11:37:44.000Z</time>
      </trkpt>
      <trkpt lat="43.91168" lon="7.39836">
        <ele>1026.1999511719</ele>
        <time>2022-04-09T11:37:46.000Z</time>
      </trkpt>
      <trkpt lat="43.91169" lon="7.39822">
        <ele>1025.5999755859</ele>
        <time>2022-04-09T11:37:51.000Z</time>
      </trkpt>
      <trkpt lat="43.91173" lon="7.39811">
        <ele>1025.5999755859</ele>
        <time>2022-04-09T11:37:57.000Z</time>
      </trkpt>
      <trkpt lat="43.91174" lon="7.39808">
        <ele>1026.5999755859</ele>
        <time>2022-04-09T11:38:01.000Z</time>
      </trkpt>
      <trkpt lat="43.91175" lon="7.39805">
        <ele>1027.5999755859</ele>
        <time>2022-04-09T11:38:06.000Z</time>
      </trkpt>
      <trkpt lat="43.91175" lon="7.39803">
        <ele>1028</ele>
        <time>2022-04-09T11:38:08.000Z</time>
      </trkpt>
      <trkpt lat="43.91175" lon="7.39802">
        <ele>1028</ele>
        <time>2022-04-09T11:38:09.000Z</time>
      </trkpt>
      <trkpt lat="43.91175" lon="7.39802">
        <ele>1028.5999755859</ele>
        <time>2022-04-09T11:38:14.000Z</time>
      </trkpt>
      <trkpt lat="43.91173" lon="7.39791">
        <ele>1028.5999755859</ele>
        <time>2022-04-09T11:38:19.000Z</time>
      </trkpt>
      <trkpt lat="43.91171" lon="7.39763">
        <ele>1029.5999755859</ele>
        <time>2022-04-09T11:38:26.000Z</time>
      </trkpt>
      <trkpt lat="43.91171" lon="7.3976">
        <ele>1029.8000488281</ele>
        <time>2022-04-09T11:38:27.000Z</time>
      </trkpt>
      <trkpt lat="43.91169" lon="7.39749">
        <ele>1031</ele>
        <time>2022-04-09T11:38:31.000Z</time>
      </trkpt>
      <trkpt lat="43.91169" lon="7.39746">
        <ele>1031.4000244141</ele>
        <time>2022-04-09T11:38:32.000Z</time>
      </trkpt>
      <trkpt lat="43.91167" lon="7.39735">
        <ele>1031</ele>
        <time>2022-04-09T11:38:34.000Z</time>
      </trkpt>
      <trkpt lat="43.91166" lon="7.39728">
        <ele>1030.8000488281</ele>
        <time>2022-04-09T11:38:35.000Z</time>
      </trkpt>
      <trkpt lat="43.91165" lon="7.39714">
        <ele>1029.8000488281</ele>
        <time>2022-04-09T11:38:37.000Z</time>
      </trkpt>
      <trkpt lat="43.91164" lon="7.39707">
        <ele>1028.8000488281</ele>
        <time>2022-04-09T11:38:39.000Z</time>
      </trkpt>
      <trkpt lat="43.91165" lon="7.39705">
        <ele>1027.5999755859</ele>
        <time>2022-04-09T11:38:40.000Z</time>
      </trkpt>
      <trkpt lat="43.91168" lon="7.39702">
        <ele>1026.8000488281</ele>
        <time>2022-04-09T11:38:42.000Z</time>
      </trkpt>
      <trkpt lat="43.91169" lon="7.39699">
        <ele>1026.4000244141</ele>
        <time>2022-04-09T11:38:43.000Z</time>
      </trkpt>
      <trkpt lat="43.91178" lon="7.39693">
        <ele>1026.5999755859</ele>
        <time>2022-04-09T11:38:46.000Z</time>
      </trkpt>
      <trkpt lat="43.91181" lon="7.39689">
        <ele>1025.8000488281</ele>
        <time>2022-04-09T11:38:48.000Z</time>
      </trkpt>
      <trkpt lat="43.91184" lon="7.39685">
        <ele>1025.4000244141</ele>
        <time>2022-04-09T11:38:49.000Z</time>
      </trkpt>
      <trkpt lat="43.91187" lon="7.39682">
        <ele>1025</ele>
        <time>2022-04-09T11:38:50.000Z</time>
      </trkpt>
      <trkpt lat="43.91194" lon="7.39678">
        <ele>1024.4000244141</ele>
        <time>2022-04-09T11:38:52.000Z</time>
      </trkpt>
      <trkpt lat="43.91202" lon="7.39674">
        <ele>1022.5999755859</ele>
        <time>2022-04-09T11:38:54.000Z</time>
      </trkpt>
      <trkpt lat="43.91205" lon="7.39673">
        <ele>1022.4000244141</ele>
        <time>2022-04-09T11:38:55.000Z</time>
      </trkpt>
      <trkpt lat="43.91209" lon="7.39673">
        <ele>1022</ele>
        <time>2022-04-09T11:38:56.000Z</time>
      </trkpt>
      <trkpt lat="43.91217" lon="7.3967">
        <ele>1022.4000244141</ele>
        <time>2022-04-09T11:38:59.000Z</time>
      </trkpt>
      <trkpt lat="43.91218" lon="7.39667">
        <ele>1022.4000244141</ele>
        <time>2022-04-09T11:39:00.000Z</time>
      </trkpt>
      <trkpt lat="43.91221" lon="7.39648">
        <ele>1022.5999755859</ele>
        <time>2022-04-09T11:39:04.000Z</time>
      </trkpt>
      <trkpt lat="43.91223" lon="7.39645">
        <ele>1022.4000244141</ele>
        <time>2022-04-09T11:39:05.000Z</time>
      </trkpt>
      <trkpt lat="43.91226" lon="7.39636">
        <ele>1022.5999755859</ele>
        <time>2022-04-09T11:39:08.000Z</time>
      </trkpt>
      <trkpt lat="43.91226" lon="7.39633">
        <ele>1022.799987793</ele>
        <time>2022-04-09T11:39:09.000Z</time>
      </trkpt>
      <trkpt lat="43.91219" lon="7.39618">
        <ele>1022.799987793</ele>
        <time>2022-04-09T11:39:12.000Z</time>
      </trkpt>
      <trkpt lat="43.91216" lon="7.39612">
        <ele>1022.5999755859</ele>
        <time>2022-04-09T11:39:13.000Z</time>
      </trkpt>
      <trkpt lat="43.91208" lon="7.39597">
        <ele>1022</ele>
        <time>2022-04-09T11:39:16.000Z</time>
      </trkpt>
      <trkpt lat="43.91204" lon="7.39585">
        <ele>1022</ele>
        <time>2022-04-09T11:39:18.000Z</time>
      </trkpt>
      <trkpt lat="43.91202" lon="7.39573">
        <ele>1021.799987793</ele>
        <time>2022-04-09T11:39:20.000Z</time>
      </trkpt>
      <trkpt lat="43.91201" lon="7.39563">
        <ele>1021.5999755859</ele>
        <time>2022-04-09T11:39:22.000Z</time>
      </trkpt>
      <trkpt lat="43.91204" lon="7.3956">
        <ele>1021.4000244141</ele>
        <time>2022-04-09T11:39:23.000Z</time>
      </trkpt>
      <trkpt lat="43.91212" lon="7.3955">
        <ele>1021</ele>
        <time>2022-04-09T11:39:27.000Z</time>
      </trkpt>
      <trkpt lat="43.91216" lon="7.39546">
        <ele>1021</ele>
        <time>2022-04-09T11:39:28.000Z</time>
      </trkpt>
      <trkpt lat="43.91223" lon="7.39538">
        <ele>1020</ele>
        <time>2022-04-09T11:39:30.000Z</time>
      </trkpt>
      <trkpt lat="43.91226" lon="7.39533">
        <ele>1019.5999755859</ele>
        <time>2022-04-09T11:39:31.000Z</time>
      </trkpt>
      <trkpt lat="43.91241" lon="7.39517">
        <ele>1019.799987793</ele>
        <time>2022-04-09T11:39:36.000Z</time>
      </trkpt>
      <trkpt lat="43.91255" lon="7.39499">
        <ele>1020</ele>
        <time>2022-04-09T11:39:41.000Z</time>
      </trkpt>
      <trkpt lat="43.91256" lon="7.39496">
        <ele>1019.799987793</ele>
        <time>2022-04-09T11:39:42.000Z</time>
      </trkpt>
      <trkpt lat="43.91255" lon="7.39486">
        <ele>1019.4000244141</ele>
        <time>2022-04-09T11:39:44.000Z</time>
      </trkpt>
      <trkpt lat="43.91254" lon="7.39482">
        <ele>1019</ele>
        <time>2022-04-09T11:39:45.000Z</time>
      </trkpt>
      <trkpt lat="43.91254" lon="7.39469">
        <ele>1018.4000244141</ele>
        <time>2022-04-09T11:39:48.000Z</time>
      </trkpt>
      <trkpt lat="43.91256" lon="7.39465">
        <ele>1018</ele>
        <time>2022-04-09T11:39:49.000Z</time>
      </trkpt>
      <trkpt lat="43.91257" lon="7.3946">
        <ele>1018</ele>
        <time>2022-04-09T11:39:50.000Z</time>
      </trkpt>
      <trkpt lat="43.91264" lon="7.39443">
        <ele>1016.4000244141</ele>
        <time>2022-04-09T11:39:53.000Z</time>
      </trkpt>
      <trkpt lat="43.91269" lon="7.39431">
        <ele>1014.5999755859</ele>
        <time>2022-04-09T11:39:55.000Z</time>
      </trkpt>
      <trkpt lat="43.91274" lon="7.39418">
        <ele>1013.200012207</ele>
        <time>2022-04-09T11:39:57.000Z</time>
      </trkpt>
      <trkpt lat="43.91278" lon="7.39412">
        <ele>1012.200012207</ele>
        <time>2022-04-09T11:39:58.000Z</time>
      </trkpt>
      <trkpt lat="43.9128" lon="7.39405">
        <ele>1011</ele>
        <time>2022-04-09T11:40:00.000Z</time>
      </trkpt>
      <trkpt lat="43.91285" lon="7.39398">
        <ele>1009.799987793</ele>
        <time>2022-04-09T11:40:02.000Z</time>
      </trkpt>
      <trkpt lat="43.91288" lon="7.39394">
        <ele>1009.200012207</ele>
        <time>2022-04-09T11:40:03.000Z</time>
      </trkpt>
      <trkpt lat="43.91291" lon="7.3939">
        <ele>1008.5999755859</ele>
        <time>2022-04-09T11:40:04.000Z</time>
      </trkpt>
      <trkpt lat="43.91294" lon="7.39383">
        <ele>1007.5999755859</ele>
        <time>2022-04-09T11:40:06.000Z</time>
      </trkpt>
      <trkpt lat="43.91293" lon="7.3938">
        <ele>1007.200012207</ele>
        <time>2022-04-09T11:40:07.000Z</time>
      </trkpt>
      <trkpt lat="43.91287" lon="7.39379">
        <ele>1006.799987793</ele>
        <time>2022-04-09T11:40:10.000Z</time>
      </trkpt>
      <trkpt lat="43.91282" lon="7.39378">
        <ele>1006.5999755859</ele>
        <time>2022-04-09T11:40:12.000Z</time>
      </trkpt>
      <trkpt lat="43.91276" lon="7.39377">
        <ele>1007.200012207</ele>
        <time>2022-04-09T11:40:14.000Z</time>
      </trkpt>
      <trkpt lat="43.91265" lon="7.39376">
        <ele>1008.5999755859</ele>
        <time>2022-04-09T11:40:17.000Z</time>
      </trkpt>
      <trkpt lat="43.91261" lon="7.39374">
        <ele>1009</ele>
        <time>2022-04-09T11:40:18.000Z</time>
      </trkpt>
      <trkpt lat="43.91247" lon="7.39365">
        <ele>1009.5999755859</ele>
        <time>2022-04-09T11:40:23.000Z</time>
      </trkpt>
      <trkpt lat="43.91244" lon="7.3936">
        <ele>1010.799987793</ele>
        <time>2022-04-09T11:40:25.000Z</time>
      </trkpt>
      <trkpt lat="43.91239" lon="7.39356">
        <ele>1012.5999755859</ele>
        <time>2022-04-09T11:40:27.000Z</time>
      </trkpt>
      <trkpt lat="43.91237" lon="7.39354">
        <ele>1013.200012207</ele>
        <time>2022-04-09T11:40:28.000Z</time>
      </trkpt>
      <trkpt lat="43.91235" lon="7.39352">
        <ele>1013.799987793</ele>
        <time>2022-04-09T11:40:29.000Z</time>
      </trkpt>
      <trkpt lat="43.91231" lon="7.39348">
        <ele>1015.200012207</ele>
        <time>2022-04-09T11:40:31.000Z</time>
      </trkpt>
      <trkpt lat="43.91225" lon="7.39344">
        <ele>1016.4000244141</ele>
        <time>2022-04-09T11:40:34.000Z</time>
      </trkpt>
      <trkpt lat="43.91223" lon="7.39342">
        <ele>1016.5999755859</ele>
        <time>2022-04-09T11:40:35.000Z</time>
      </trkpt>
      <trkpt lat="43.91213" lon="7.39329">
        <ele>1016.4000244141</ele>
        <time>2022-04-09T11:40:39.000Z</time>
      </trkpt>
      <trkpt lat="43.91199" lon="7.39314">
        <ele>1015</ele>
        <time>2022-04-09T11:40:43.000Z</time>
      </trkpt>
      <trkpt lat="43.91194" lon="7.39308">
        <ele>1014</ele>
        <time>2022-04-09T11:40:46.000Z</time>
      </trkpt>
      <trkpt lat="43.91187" lon="7.39302">
        <ele>1013.799987793</ele>
        <time>2022-04-09T11:40:48.000Z</time>
      </trkpt>
      <trkpt lat="43.91172" lon="7.39284">
        <ele>1013.200012207</ele>
        <time>2022-04-09T11:40:52.000Z</time>
      </trkpt>
      <trkpt lat="43.91167" lon="7.3928">
        <ele>1012.5999755859</ele>
        <time>2022-04-09T11:40:53.000Z</time>
      </trkpt>
      <trkpt lat="43.91164" lon="7.39275">
        <ele>1011.799987793</ele>
        <time>2022-04-09T11:40:54.000Z</time>
      </trkpt>
      <trkpt lat="43.91162" lon="7.3927">
        <ele>1011</ele>
        <time>2022-04-09T11:40:55.000Z</time>
      </trkpt>
      <trkpt lat="43.9116" lon="7.39265">
        <ele>1010.4000244141</ele>
        <time>2022-04-09T11:40:56.000Z</time>
      </trkpt>
      <trkpt lat="43.91158" lon="7.3926">
        <ele>1009.5999755859</ele>
        <time>2022-04-09T11:40:57.000Z</time>
      </trkpt>
      <trkpt lat="43.91154" lon="7.39258">
        <ele>1009</ele>
        <time>2022-04-09T11:40:58.000Z</time>
      </trkpt>
      <trkpt lat="43.91151" lon="7.39256">
        <ele>1008</ele>
        <time>2022-04-09T11:40:59.000Z</time>
      </trkpt>
      <trkpt lat="43.91148" lon="7.39254">
        <ele>1007</ele>
        <time>2022-04-09T11:41:00.000Z</time>
      </trkpt>
      <trkpt lat="43.91146" lon="7.39252">
        <ele>1006.5999755859</ele>
        <time>2022-04-09T11:41:01.000Z</time>
      </trkpt>
      <trkpt lat="43.9114" lon="7.39246">
        <ele>1005</ele>
        <time>2022-04-09T11:41:03.000Z</time>
      </trkpt>
      <trkpt lat="43.91137" lon="7.39241">
        <ele>1004</ele>
        <time>2022-04-09T11:41:04.000Z</time>
      </trkpt>
      <trkpt lat="43.91135" lon="7.39237">
        <ele>1003.5999755859</ele>
        <time>2022-04-09T11:41:05.000Z</time>
      </trkpt>
      <trkpt lat="43.91133" lon="7.39231">
        <ele>1002.5999755859</ele>
        <time>2022-04-09T11:41:06.000Z</time>
      </trkpt>
      <trkpt lat="43.91126" lon="7.39226">
        <ele>1001.5999755859</ele>
        <time>2022-04-09T11:41:08.000Z</time>
      </trkpt>
      <trkpt lat="43.91122" lon="7.39224">
        <ele>1001</ele>
        <time>2022-04-09T11:41:09.000Z</time>
      </trkpt>
      <trkpt lat="43.91118" lon="7.39219">
        <ele>1000.5999755859</ele>
        <time>2022-04-09T11:41:10.000Z</time>
      </trkpt>
      <trkpt lat="43.91108" lon="7.39206">
        <ele>999.40002441406</ele>
        <time>2022-04-09T11:41:13.000Z</time>
      </trkpt>
      <trkpt lat="43.91105" lon="7.39199">
        <ele>999.40002441406</ele>
        <time>2022-04-09T11:41:14.000Z</time>
      </trkpt>
      <trkpt lat="43.91096" lon="7.39181">
        <ele>997.79998779297</ele>
        <time>2022-04-09T11:41:17.000Z</time>
      </trkpt>
      <trkpt lat="43.9109" lon="7.39174">
        <ele>996.79998779297</ele>
        <time>2022-04-09T11:41:19.000Z</time>
      </trkpt>
      <trkpt lat="43.91087" lon="7.39169">
        <ele>995.59997558594</ele>
        <time>2022-04-09T11:41:20.000Z</time>
      </trkpt>
      <trkpt lat="43.91084" lon="7.39164">
        <ele>994</ele>
        <time>2022-04-09T11:41:21.000Z</time>
      </trkpt>
      <trkpt lat="43.9108" lon="7.39155">
        <ele>992.20001220703</ele>
        <time>2022-04-09T11:41:23.000Z</time>
      </trkpt>
      <trkpt lat="43.91077" lon="7.3915">
        <ele>991</ele>
        <time>2022-04-09T11:41:24.000Z</time>
      </trkpt>
      <trkpt lat="43.91073" lon="7.39147">
        <ele>990.20001220703</ele>
        <time>2022-04-09T11:41:25.000Z</time>
      </trkpt>
      <trkpt lat="43.91069" lon="7.39146">
        <ele>990.40002441406</ele>
        <time>2022-04-09T11:41:26.000Z</time>
      </trkpt>
      <trkpt lat="43.91062" lon="7.39143">
        <ele>990.59997558594</ele>
        <time>2022-04-09T11:41:28.000Z</time>
      </trkpt>
      <trkpt lat="43.91052" lon="7.39136">
        <ele>990.20001220703</ele>
        <time>2022-04-09T11:41:30.000Z</time>
      </trkpt>
      <trkpt lat="43.91047" lon="7.39135">
        <ele>989.20001220703</ele>
        <time>2022-04-09T11:41:31.000Z</time>
      </trkpt>
      <trkpt lat="43.91029" lon="7.39126">
        <ele>989.79998779297</ele>
        <time>2022-04-09T11:41:35.000Z</time>
      </trkpt>
      <trkpt lat="43.91024" lon="7.39124">
        <ele>989.79998779297</ele>
        <time>2022-04-09T11:41:36.000Z</time>
      </trkpt>
      <trkpt lat="43.91011" lon="7.39118">
        <ele>989.79998779297</ele>
        <time>2022-04-09T11:41:39.000Z</time>
      </trkpt>
      <trkpt lat="43.91008" lon="7.39118">
        <ele>989.79998779297</ele>
        <time>2022-04-09T11:41:40.000Z</time>
      </trkpt>
      <trkpt lat="43.90994" lon="7.39106">
        <ele>989.40002441406</ele>
        <time>2022-04-09T11:41:43.000Z</time>
      </trkpt>
      <trkpt lat="43.9099" lon="7.39101">
        <ele>989.20001220703</ele>
        <time>2022-04-09T11:41:44.000Z</time>
      </trkpt>
      <trkpt lat="43.90988" lon="7.39094">
        <ele>988.79998779297</ele>
        <time>2022-04-09T11:41:45.000Z</time>
      </trkpt>
      <trkpt lat="43.90989" lon="7.3908">
        <ele>987.79998779297</ele>
        <time>2022-04-09T11:41:47.000Z</time>
      </trkpt>
      <trkpt lat="43.9099" lon="7.39069">
        <ele>986.40002441406</ele>
        <time>2022-04-09T11:41:49.000Z</time>
      </trkpt>
      <trkpt lat="43.90987" lon="7.39059">
        <ele>984.79998779297</ele>
        <time>2022-04-09T11:41:51.000Z</time>
      </trkpt>
      <trkpt lat="43.90987" lon="7.39056">
        <ele>983.40002441406</ele>
        <time>2022-04-09T11:41:52.000Z</time>
      </trkpt>
      <trkpt lat="43.90987" lon="7.39055">
        <ele>982.40002441406</ele>
        <time>2022-04-09T11:41:53.000Z</time>
      </trkpt>
      <trkpt lat="43.90986" lon="7.39054">
        <ele>982</ele>
        <time>2022-04-09T11:41:54.000Z</time>
      </trkpt>
      <trkpt lat="43.90985" lon="7.39054">
        <ele>981</ele>
        <time>2022-04-09T11:41:56.000Z</time>
      </trkpt>
      <trkpt lat="43.90983" lon="7.39051">
        <ele>980.79998779297</ele>
        <time>2022-04-09T11:41:58.000Z</time>
      </trkpt>
      <trkpt lat="43.90979" lon="7.39042">
        <ele>979.40002441406</ele>
        <time>2022-04-09T11:42:01.000Z</time>
      </trkpt>
      <trkpt lat="43.90977" lon="7.39038">
        <ele>979</ele>
        <time>2022-04-09T11:42:02.000Z</time>
      </trkpt>
      <trkpt lat="43.90975" lon="7.39034">
        <ele>978.20001220703</ele>
        <time>2022-04-09T11:42:04.000Z</time>
      </trkpt>
      <trkpt lat="43.9097" lon="7.39031">
        <ele>977.40002441406</ele>
        <time>2022-04-09T11:42:06.000Z</time>
      </trkpt>
      <trkpt lat="43.90969" lon="7.39032">
        <ele>976.79998779297</ele>
        <time>2022-04-09T11:42:07.000Z</time>
      </trkpt>
      <trkpt lat="43.90967" lon="7.39034">
        <ele>975.20001220703</ele>
        <time>2022-04-09T11:42:09.000Z</time>
      </trkpt>
      <trkpt lat="43.90966" lon="7.39034">
        <ele>974.40002441406</ele>
        <time>2022-04-09T11:42:10.000Z</time>
      </trkpt>
      <trkpt lat="43.90964" lon="7.39032">
        <ele>973.59997558594</ele>
        <time>2022-04-09T11:42:11.000Z</time>
      </trkpt>
      <trkpt lat="43.90962" lon="7.39027">
        <ele>972.40002441406</ele>
        <time>2022-04-09T11:42:13.000Z</time>
      </trkpt>
      <trkpt lat="43.90956" lon="7.39017">
        <ele>971</ele>
        <time>2022-04-09T11:42:16.000Z</time>
      </trkpt>
      <trkpt lat="43.90953" lon="7.39007">
        <ele>970</ele>
        <time>2022-04-09T11:42:18.000Z</time>
      </trkpt>
      <trkpt lat="43.90952" lon="7.39">
        <ele>969.59997558594</ele>
        <time>2022-04-09T11:42:19.000Z</time>
      </trkpt>
      <trkpt lat="43.9095" lon="7.38988">
        <ele>968.40002441406</ele>
        <time>2022-04-09T11:42:21.000Z</time>
      </trkpt>
      <trkpt lat="43.90951" lon="7.38982">
        <ele>968</ele>
        <time>2022-04-09T11:42:22.000Z</time>
      </trkpt>
      <trkpt lat="43.90951" lon="7.38976">
        <ele>967.59997558594</ele>
        <time>2022-04-09T11:42:23.000Z</time>
      </trkpt>
      <trkpt lat="43.9095" lon="7.38968">
        <ele>967.20001220703</ele>
        <time>2022-04-09T11:42:24.000Z</time>
      </trkpt>
      <trkpt lat="43.9095" lon="7.38955">
        <ele>966.20001220703</ele>
        <time>2022-04-09T11:42:26.000Z</time>
      </trkpt>
      <trkpt lat="43.9095" lon="7.38949">
        <ele>965.79998779297</ele>
        <time>2022-04-09T11:42:27.000Z</time>
      </trkpt>
      <trkpt lat="43.90952" lon="7.38944">
        <ele>965.40002441406</ele>
        <time>2022-04-09T11:42:28.000Z</time>
      </trkpt>
      <trkpt lat="43.90951" lon="7.38933">
        <ele>964.40002441406</ele>
        <time>2022-04-09T11:42:30.000Z</time>
      </trkpt>
      <trkpt lat="43.9095" lon="7.38931">
        <ele>963.20001220703</ele>
        <time>2022-04-09T11:42:31.000Z</time>
      </trkpt>
      <trkpt lat="43.9095" lon="7.38931">
        <ele>961.79998779297</ele>
        <time>2022-04-09T11:42:33.000Z</time>
      </trkpt>
      <trkpt lat="43.90949" lon="7.38927">
        <ele>961</ele>
        <time>2022-04-09T11:42:34.000Z</time>
      </trkpt>
      <trkpt lat="43.90948" lon="7.38926">
        <ele>960.20001220703</ele>
        <time>2022-04-09T11:42:35.000Z</time>
      </trkpt>
      <trkpt lat="43.90946" lon="7.38923">
        <ele>958.79998779297</ele>
        <time>2022-04-09T11:42:38.000Z</time>
      </trkpt>
      <trkpt lat="43.90941" lon="7.38921">
        <ele>958.20001220703</ele>
        <time>2022-04-09T11:42:40.000Z</time>
      </trkpt>
      <trkpt lat="43.90938" lon="7.38919">
        <ele>957.79998779297</ele>
        <time>2022-04-09T11:42:41.000Z</time>
      </trkpt>
      <trkpt lat="43.90933" lon="7.3891">
        <ele>956.20001220703</ele>
        <time>2022-04-09T11:42:43.000Z</time>
      </trkpt>
      <trkpt lat="43.90931" lon="7.38899">
        <ele>954.79998779297</ele>
        <time>2022-04-09T11:42:45.000Z</time>
      </trkpt>
      <trkpt lat="43.9093" lon="7.38895">
        <ele>954.20001220703</ele>
        <time>2022-04-09T11:42:46.000Z</time>
      </trkpt>
      <trkpt lat="43.90928" lon="7.38892">
        <ele>953.20001220703</ele>
        <time>2022-04-09T11:42:47.000Z</time>
      </trkpt>
      <trkpt lat="43.90921" lon="7.38884">
        <ele>951.79998779297</ele>
        <time>2022-04-09T11:42:50.000Z</time>
      </trkpt>
      <trkpt lat="43.90915" lon="7.38878">
        <ele>950.20001220703</ele>
        <time>2022-04-09T11:42:52.000Z</time>
      </trkpt>
      <trkpt lat="43.90912" lon="7.38875">
        <ele>949.20001220703</ele>
        <time>2022-04-09T11:42:53.000Z</time>
      </trkpt>
      <trkpt lat="43.90908" lon="7.38871">
        <ele>948.59997558594</ele>
        <time>2022-04-09T11:42:54.000Z</time>
      </trkpt>
      <trkpt lat="43.90905" lon="7.38867">
        <ele>947.79998779297</ele>
        <time>2022-04-09T11:42:55.000Z</time>
      </trkpt>
      <trkpt lat="43.90903" lon="7.38863">
        <ele>946.79998779297</ele>
        <time>2022-04-09T11:42:56.000Z</time>
      </trkpt>
      <trkpt lat="43.90902" lon="7.38861">
        <ele>946</ele>
        <time>2022-04-09T11:42:57.000Z</time>
      </trkpt>
      <trkpt lat="43.90902" lon="7.38861">
        <ele>945.20001220703</ele>
        <time>2022-04-09T11:42:58.000Z</time>
      </trkpt>
      <trkpt lat="43.909" lon="7.38861">
        <ele>944.40002441406</ele>
        <time>2022-04-09T11:42:59.000Z</time>
      </trkpt>
      <trkpt lat="43.90897" lon="7.38861">
        <ele>943.59997558594</ele>
        <time>2022-04-09T11:43:00.000Z</time>
      </trkpt>
      <trkpt lat="43.90893" lon="7.38857">
        <ele>941.79998779297</ele>
        <time>2022-04-09T11:43:03.000Z</time>
      </trkpt>
      <trkpt lat="43.90893" lon="7.38854">
        <ele>941</ele>
        <time>2022-04-09T11:43:04.000Z</time>
      </trkpt>
      <trkpt lat="43.90893" lon="7.3885">
        <ele>939.79998779297</ele>
        <time>2022-04-09T11:43:05.000Z</time>
      </trkpt>
      <trkpt lat="43.90893" lon="7.38843">
        <ele>938</ele>
        <time>2022-04-09T11:43:07.000Z</time>
      </trkpt>
      <trkpt lat="43.90893" lon="7.38834">
        <ele>936.40002441406</ele>
        <time>2022-04-09T11:43:09.000Z</time>
      </trkpt>
      <trkpt lat="43.90894" lon="7.38828">
        <ele>935.20001220703</ele>
        <time>2022-04-09T11:43:10.000Z</time>
      </trkpt>
      <trkpt lat="43.90897" lon="7.38815">
        <ele>934</ele>
        <time>2022-04-09T11:43:12.000Z</time>
      </trkpt>
      <trkpt lat="43.90898" lon="7.38809">
        <ele>932.40002441406</ele>
        <time>2022-04-09T11:43:13.000Z</time>
      </trkpt>
      <trkpt lat="43.90899" lon="7.38799">
        <ele>931.20001220703</ele>
        <time>2022-04-09T11:43:15.000Z</time>
      </trkpt>
      <trkpt lat="43.90897" lon="7.38791">
        <ele>929.79998779297</ele>
        <time>2022-04-09T11:43:17.000Z</time>
      </trkpt>
      <trkpt lat="43.90894" lon="7.38789">
        <ele>929.40002441406</ele>
        <time>2022-04-09T11:43:18.000Z</time>
      </trkpt>
      <trkpt lat="43.9089" lon="7.38786">
        <ele>928.20001220703</ele>
        <time>2022-04-09T11:43:19.000Z</time>
      </trkpt>
      <trkpt lat="43.90877" lon="7.38776">
        <ele>927.20001220703</ele>
        <time>2022-04-09T11:43:23.000Z</time>
      </trkpt>
      <trkpt lat="43.90873" lon="7.38773">
        <ele>927.40002441406</ele>
        <time>2022-04-09T11:43:24.000Z</time>
      </trkpt>
      <trkpt lat="43.90868" lon="7.38768">
        <ele>927</ele>
        <time>2022-04-09T11:43:25.000Z</time>
      </trkpt>
      <trkpt lat="43.90859" lon="7.38754">
        <ele>925.79998779297</ele>
        <time>2022-04-09T11:43:28.000Z</time>
      </trkpt>
      <trkpt lat="43.90843" lon="7.38741">
        <ele>924.40002441406</ele>
        <time>2022-04-09T11:43:32.000Z</time>
      </trkpt>
      <trkpt lat="43.9084" lon="7.38736">
        <ele>924.20001220703</ele>
        <time>2022-04-09T11:43:33.000Z</time>
      </trkpt>
      <trkpt lat="43.90825" lon="7.38723">
        <ele>923.59997558594</ele>
        <time>2022-04-09T11:43:36.000Z</time>
      </trkpt>
      <trkpt lat="43.90821" lon="7.3872">
        <ele>923.40002441406</ele>
        <time>2022-04-09T11:43:37.000Z</time>
      </trkpt>
      <trkpt lat="43.90817" lon="7.38719">
        <ele>923.40002441406</ele>
        <time>2022-04-09T11:43:38.000Z</time>
      </trkpt>
      <trkpt lat="43.90807" lon="7.38715">
        <ele>922.79998779297</ele>
        <time>2022-04-09T11:43:40.000Z</time>
      </trkpt>
      <trkpt lat="43.90798" lon="7.38713">
        <ele>922.59997558594</ele>
        <time>2022-04-09T11:43:42.000Z</time>
      </trkpt>
      <trkpt lat="43.90791" lon="7.38711">
        <ele>922.79998779297</ele>
        <time>2022-04-09T11:43:43.000Z</time>
      </trkpt>
      <trkpt lat="43.90773" lon="7.38701">
        <ele>922.20001220703</ele>
        <time>2022-04-09T11:43:46.000Z</time>
      </trkpt>
      <trkpt lat="43.90763" lon="7.38694">
        <ele>921.20001220703</ele>
        <time>2022-04-09T11:43:48.000Z</time>
      </trkpt>
      <trkpt lat="43.90756" lon="7.38688">
        <ele>920.40002441406</ele>
        <time>2022-04-09T11:43:50.000Z</time>
      </trkpt>
      <trkpt lat="43.90746" lon="7.38682">
        <ele>920.79998779297</ele>
        <time>2022-04-09T11:43:53.000Z</time>
      </trkpt>
      <trkpt lat="43.90737" lon="7.38676">
        <ele>921.40002441406</ele>
        <time>2022-04-09T11:43:55.000Z</time>
      </trkpt>
      <trkpt lat="43.90721" lon="7.3866">
        <ele>921</ele>
        <time>2022-04-09T11:43:59.000Z</time>
      </trkpt>
      <trkpt lat="43.90716" lon="7.38656">
        <ele>919.59997558594</ele>
        <time>2022-04-09T11:44:00.000Z</time>
      </trkpt>
      <trkpt lat="43.90714" lon="7.38653">
        <ele>918.79998779297</ele>
        <time>2022-04-09T11:44:01.000Z</time>
      </trkpt>
      <trkpt lat="43.90711" lon="7.38649">
        <ele>917.59997558594</ele>
        <time>2022-04-09T11:44:02.000Z</time>
      </trkpt>
      <trkpt lat="43.90706" lon="7.38642">
        <ele>917.20001220703</ele>
        <time>2022-04-09T11:44:04.000Z</time>
      </trkpt>
      <trkpt lat="43.90704" lon="7.38633">
        <ele>916.59997558594</ele>
        <time>2022-04-09T11:44:06.000Z</time>
      </trkpt>
      <trkpt lat="43.90703" lon="7.38631">
        <ele>915.20001220703</ele>
        <time>2022-04-09T11:44:08.000Z</time>
      </trkpt>
      <trkpt lat="43.90701" lon="7.38636">
        <ele>914.20001220703</ele>
        <time>2022-04-09T11:44:10.000Z</time>
      </trkpt>
      <trkpt lat="43.90699" lon="7.3864">
        <ele>913.79998779297</ele>
        <time>2022-04-09T11:44:11.000Z</time>
      </trkpt>
      <trkpt lat="43.90697" lon="7.38647">
        <ele>913</ele>
        <time>2022-04-09T11:44:13.000Z</time>
      </trkpt>
      <trkpt lat="43.90694" lon="7.38649">
        <ele>912.20001220703</ele>
        <time>2022-04-09T11:44:15.000Z</time>
      </trkpt>
      <trkpt lat="43.90693" lon="7.38647">
        <ele>911.20001220703</ele>
        <time>2022-04-09T11:44:16.000Z</time>
      </trkpt>
      <trkpt lat="43.9069" lon="7.38646">
        <ele>910</ele>
        <time>2022-04-09T11:44:18.000Z</time>
      </trkpt>
      <trkpt lat="43.90688" lon="7.38647">
        <ele>908.79998779297</ele>
        <time>2022-04-09T11:44:19.000Z</time>
      </trkpt>
      <trkpt lat="43.90681" lon="7.38649">
        <ele>907</ele>
        <time>2022-04-09T11:44:21.000Z</time>
      </trkpt>
      <trkpt lat="43.90678" lon="7.38645">
        <ele>905.40002441406</ele>
        <time>2022-04-09T11:44:23.000Z</time>
      </trkpt>
      <trkpt lat="43.90678" lon="7.38645">
        <ele>904.59997558594</ele>
        <time>2022-04-09T11:44:24.000Z</time>
      </trkpt>
      <trkpt lat="43.90677" lon="7.38645">
        <ele>904</ele>
        <time>2022-04-09T11:44:25.000Z</time>
      </trkpt>
      <trkpt lat="43.90669" lon="7.38647">
        <ele>903.20001220703</ele>
        <time>2022-04-09T11:44:28.000Z</time>
      </trkpt>
      <trkpt lat="43.90666" lon="7.38648">
        <ele>902.79998779297</ele>
        <time>2022-04-09T11:44:29.000Z</time>
      </trkpt>
      <trkpt lat="43.90659" lon="7.38653">
        <ele>902</ele>
        <time>2022-04-09T11:44:32.000Z</time>
      </trkpt>
      <trkpt lat="43.90658" lon="7.38655">
        <ele>900.79998779297</ele>
        <time>2022-04-09T11:44:33.000Z</time>
      </trkpt>
      <trkpt lat="43.90651" lon="7.38655">
        <ele>899.20001220703</ele>
        <time>2022-04-09T11:44:36.000Z</time>
      </trkpt>
      <trkpt lat="43.90643" lon="7.38653">
        <ele>897.79998779297</ele>
        <time>2022-04-09T11:44:38.000Z</time>
      </trkpt>
      <trkpt lat="43.9064" lon="7.38653">
        <ele>897.20001220703</ele>
        <time>2022-04-09T11:44:39.000Z</time>
      </trkpt>
      <trkpt lat="43.90636" lon="7.38652">
        <ele>896.20001220703</ele>
        <time>2022-04-09T11:44:40.000Z</time>
      </trkpt>
      <trkpt lat="43.90633" lon="7.38654">
        <ele>894.79998779297</ele>
        <time>2022-04-09T11:44:42.000Z</time>
      </trkpt>
      <trkpt lat="43.90631" lon="7.38655">
        <ele>894.20001220703</ele>
        <time>2022-04-09T11:44:43.000Z</time>
      </trkpt>
      <trkpt lat="43.90628" lon="7.38657">
        <ele>893.40002441406</ele>
        <time>2022-04-09T11:44:44.000Z</time>
      </trkpt>
      <trkpt lat="43.90626" lon="7.38656">
        <ele>893</ele>
        <time>2022-04-09T11:44:45.000Z</time>
      </trkpt>
      <trkpt lat="43.90627" lon="7.38655">
        <ele>892.59997558594</ele>
        <time>2022-04-09T11:44:46.000Z</time>
      </trkpt>
      <trkpt lat="43.90627" lon="7.38656">
        <ele>892.20001220703</ele>
        <time>2022-04-09T11:44:47.000Z</time>
      </trkpt>
      <trkpt lat="43.90627" lon="7.38656">
        <ele>891.40002441406</ele>
        <time>2022-04-09T11:44:51.000Z</time>
      </trkpt>
      <trkpt lat="43.90627" lon="7.38657">
        <ele>891.40002441406</ele>
        <time>2022-04-09T11:45:05.000Z</time>
      </trkpt>
      <trkpt lat="43.90627" lon="7.38656">
        <ele>891.20001220703</ele>
        <time>2022-04-09T11:45:08.000Z</time>
      </trkpt>
      <trkpt lat="43.90627" lon="7.38656">
        <ele>891.20001220703</ele>
        <time>2022-04-09T11:45:10.000Z</time>
      </trkpt>
      <trkpt lat="43.90627" lon="7.38656">
        <ele>891.59997558594</ele>
        <time>2022-04-09T11:45:20.000Z</time>
      </trkpt>
      <trkpt lat="43.90627" lon="7.38657">
        <ele>891.20001220703</ele>
        <time>2022-04-09T11:45:29.000Z</time>
      </trkpt>
      <trkpt lat="43.90627" lon="7.38657">
        <ele>891.40002441406</ele>
        <time>2022-04-09T11:45:37.000Z</time>
      </trkpt>
      <trkpt lat="43.90627" lon="7.38657">
        <ele>891.40002441406</ele>
        <time>2022-04-09T11:45:47.000Z</time>
      </trkpt>
      <trkpt lat="43.90627" lon="7.38657">
        <ele>891.20001220703</ele>
        <time>2022-04-09T11:45:59.000Z</time>
      </trkpt>
      <trkpt lat="43.90627" lon="7.38657">
        <ele>890.59997558594</ele>
        <time>2022-04-09T11:46:18.000Z</time>
      </trkpt>
      <trkpt lat="43.90627" lon="7.38657">
        <ele>890</ele>
        <time>2022-04-09T11:46:27.000Z</time>
      </trkpt>
      <trkpt lat="43.90627" lon="7.38657">
        <ele>890.59997558594</ele>
        <time>2022-04-09T11:46:35.000Z</time>
      </trkpt>
      <trkpt lat="43.90627" lon="7.38658">
        <ele>891</ele>
        <time>2022-04-09T11:46:44.000Z</time>
      </trkpt>
      <trkpt lat="43.90627" lon="7.38658">
        <ele>891</ele>
        <time>2022-04-09T11:46:45.000Z</time>
      </trkpt>
      <trkpt lat="43.90627" lon="7.38654">
        <ele>891.40002441406</ele>
        <time>2022-04-09T11:46:56.000Z</time>
      </trkpt>
      <trkpt lat="43.9063" lon="7.38648">
        <ele>891</ele>
        <time>2022-04-09T11:47:01.000Z</time>
      </trkpt>
      <trkpt lat="43.90622" lon="7.38653">
        <ele>890.20001220703</ele>
        <time>2022-04-09T11:47:05.000Z</time>
      </trkpt>
      <trkpt lat="43.90621" lon="7.38657">
        <ele>889.79998779297</ele>
        <time>2022-04-09T11:47:06.000Z</time>
      </trkpt>
      <trkpt lat="43.90623" lon="7.38669">
        <ele>888.79998779297</ele>
        <time>2022-04-09T11:47:09.000Z</time>
      </trkpt>
      <trkpt lat="43.90625" lon="7.38671">
        <ele>888.59997558594</ele>
        <time>2022-04-09T11:47:10.000Z</time>
      </trkpt>
      <trkpt lat="43.90632" lon="7.38679">
        <ele>887.79998779297</ele>
        <time>2022-04-09T11:47:12.000Z</time>
      </trkpt>
      <trkpt lat="43.90635" lon="7.38683">
        <ele>887.20001220703</ele>
        <time>2022-04-09T11:47:13.000Z</time>
      </trkpt>
      <trkpt lat="43.9064" lon="7.38688">
        <ele>885.79998779297</ele>
        <time>2022-04-09T11:47:15.000Z</time>
      </trkpt>
      <trkpt lat="43.90642" lon="7.38689">
        <ele>884.59997558594</ele>
        <time>2022-04-09T11:47:16.000Z</time>
      </trkpt>
      <trkpt lat="43.90645" lon="7.38691">
        <ele>884.20001220703</ele>
        <time>2022-04-09T11:47:17.000Z</time>
      </trkpt>
      <trkpt lat="43.90647" lon="7.38693">
        <ele>883.59997558594</ele>
        <time>2022-04-09T11:47:18.000Z</time>
      </trkpt>
      <trkpt lat="43.90658" lon="7.38706">
        <ele>883.20001220703</ele>
        <time>2022-04-09T11:47:22.000Z</time>
      </trkpt>
      <trkpt lat="43.90661" lon="7.38711">
        <ele>883</ele>
        <time>2022-04-09T11:47:23.000Z</time>
      </trkpt>
      <trkpt lat="43.9067" lon="7.38726">
        <ele>881.79998779297</ele>
        <time>2022-04-09T11:47:26.000Z</time>
      </trkpt>
      <trkpt lat="43.90674" lon="7.38736">
        <ele>880.20001220703</ele>
        <time>2022-04-09T11:47:28.000Z</time>
      </trkpt>
      <trkpt lat="43.90677" lon="7.3874">
        <ele>879</ele>
        <time>2022-04-09T11:47:29.000Z</time>
      </trkpt>
      <trkpt lat="43.90679" lon="7.38745">
        <ele>877.79998779297</ele>
        <time>2022-04-09T11:47:30.000Z</time>
      </trkpt>
      <trkpt lat="43.90682" lon="7.3875">
        <ele>875.79998779297</ele>
        <time>2022-04-09T11:47:31.000Z</time>
      </trkpt>
      <trkpt lat="43.90684" lon="7.38755">
        <ele>874.79998779297</ele>
        <time>2022-04-09T11:47:32.000Z</time>
      </trkpt>
      <trkpt lat="43.90687" lon="7.38761">
        <ele>873.59997558594</ele>
        <time>2022-04-09T11:47:33.000Z</time>
      </trkpt>
      <trkpt lat="43.9069" lon="7.38767">
        <ele>872.59997558594</ele>
        <time>2022-04-09T11:47:34.000Z</time>
      </trkpt>
      <trkpt lat="43.90693" lon="7.38772">
        <ele>871.40002441406</ele>
        <time>2022-04-09T11:47:35.000Z</time>
      </trkpt>
      <trkpt lat="43.90697" lon="7.38779">
        <ele>870</ele>
        <time>2022-04-09T11:47:36.000Z</time>
      </trkpt>
      <trkpt lat="43.90701" lon="7.38785">
        <ele>868.59997558594</ele>
        <time>2022-04-09T11:47:37.000Z</time>
      </trkpt>
      <trkpt lat="43.90704" lon="7.38793">
        <ele>867</ele>
        <time>2022-04-09T11:47:38.000Z</time>
      </trkpt>
      <trkpt lat="43.90708" lon="7.38799">
        <ele>864.79998779297</ele>
        <time>2022-04-09T11:47:39.000Z</time>
      </trkpt>
      <trkpt lat="43.90711" lon="7.38805">
        <ele>863.20001220703</ele>
        <time>2022-04-09T11:47:40.000Z</time>
      </trkpt>
      <trkpt lat="43.90714" lon="7.38811">
        <ele>861.59997558594</ele>
        <time>2022-04-09T11:47:41.000Z</time>
      </trkpt>
      <trkpt lat="43.90717" lon="7.38817">
        <ele>859.59997558594</ele>
        <time>2022-04-09T11:47:42.000Z</time>
      </trkpt>
      <trkpt lat="43.9072" lon="7.38822">
        <ele>857.20001220703</ele>
        <time>2022-04-09T11:47:43.000Z</time>
      </trkpt>
      <trkpt lat="43.90721" lon="7.38826">
        <ele>855.59997558594</ele>
        <time>2022-04-09T11:47:44.000Z</time>
      </trkpt>
      <trkpt lat="43.90721" lon="7.38826">
        <ele>854</ele>
        <time>2022-04-09T11:47:45.000Z</time>
      </trkpt>
      <trkpt lat="43.90721" lon="7.38827">
        <ele>852.40002441406</ele>
        <time>2022-04-09T11:47:46.000Z</time>
      </trkpt>
      <trkpt lat="43.90721" lon="7.38828">
        <ele>851.20001220703</ele>
        <time>2022-04-09T11:47:47.000Z</time>
      </trkpt>
      <trkpt lat="43.90721" lon="7.3883">
        <ele>850</ele>
        <time>2022-04-09T11:47:49.000Z</time>
      </trkpt>
      <trkpt lat="43.90722" lon="7.38833">
        <ele>849.79998779297</ele>
        <time>2022-04-09T11:47:50.000Z</time>
      </trkpt>
      <trkpt lat="43.90731" lon="7.3884">
        <ele>849.20001220703</ele>
        <time>2022-04-09T11:47:53.000Z</time>
      </trkpt>
      <trkpt lat="43.90735" lon="7.38841">
        <ele>849</ele>
        <time>2022-04-09T11:47:54.000Z</time>
      </trkpt>
      <trkpt lat="43.90742" lon="7.38843">
        <ele>848.40002441406</ele>
        <time>2022-04-09T11:47:56.000Z</time>
      </trkpt>
      <trkpt lat="43.9075" lon="7.38846">
        <ele>848.59997558594</ele>
        <time>2022-04-09T11:47:58.000Z</time>
      </trkpt>
      <trkpt lat="43.90754" lon="7.3885">
        <ele>848.59997558594</ele>
        <time>2022-04-09T11:48:00.000Z</time>
      </trkpt>
      <trkpt lat="43.90757" lon="7.3885">
        <ele>848.79998779297</ele>
        <time>2022-04-09T11:48:01.000Z</time>
      </trkpt>
      <trkpt lat="43.90764" lon="7.38853">
        <ele>849.79998779297</ele>
        <time>2022-04-09T11:48:06.000Z</time>
      </trkpt>
      <trkpt lat="43.90764" lon="7.38853">
        <ele>850</ele>
        <time>2022-04-09T11:48:07.000Z</time>
      </trkpt>
      <trkpt lat="43.90766" lon="7.38857">
        <ele>849.20001220703</ele>
        <time>2022-04-09T11:48:12.000Z</time>
      </trkpt>
      <trkpt lat="43.90766" lon="7.38859">
        <ele>849.59997558594</ele>
        <time>2022-04-09T11:48:14.000Z</time>
      </trkpt>
      <trkpt lat="43.90766" lon="7.3886">
        <ele>850.20001220703</ele>
        <time>2022-04-09T11:48:18.000Z</time>
      </trkpt>
      <trkpt lat="43.90765" lon="7.38859">
        <ele>850</ele>
        <time>2022-04-09T11:48:32.000Z</time>
      </trkpt>
      <trkpt lat="43.90765" lon="7.38859">
        <ele>849.59997558594</ele>
        <time>2022-04-09T11:48:41.000Z</time>
      </trkpt>
      <trkpt lat="43.90765" lon="7.38859">
        <ele>849.59997558594</ele>
        <time>2022-04-09T11:48:42.000Z</time>
      </trkpt>
      <trkpt lat="43.90765" lon="7.38859">
        <ele>849.79998779297</ele>
        <time>2022-04-09T11:48:45.000Z</time>
      </trkpt>
      <trkpt lat="43.90764" lon="7.38858">
        <ele>849.59997558594</ele>
        <time>2022-04-09T11:48:55.000Z</time>
      </trkpt>
      <trkpt lat="43.90762" lon="7.38858">
        <ele>849.20001220703</ele>
        <time>2022-04-09T11:49:09.000Z</time>
      </trkpt>
      <trkpt lat="43.90762" lon="7.38858">
        <ele>849.59997558594</ele>
        <time>2022-04-09T11:49:17.000Z</time>
      </trkpt>
      <trkpt lat="43.90761" lon="7.38858">
        <ele>849.40002441406</ele>
        <time>2022-04-09T11:49:41.000Z</time>
      </trkpt>
      <trkpt lat="43.9076" lon="7.38856">
        <ele>849.40002441406</ele>
        <time>2022-04-09T11:50:04.000Z</time>
      </trkpt>
      <trkpt lat="43.90759" lon="7.38855">
        <ele>849.40002441406</ele>
        <time>2022-04-09T11:50:23.000Z</time>
      </trkpt>
      <trkpt lat="43.90759" lon="7.38857">
        <ele>849.59997558594</ele>
        <time>2022-04-09T11:50:31.000Z</time>
      </trkpt>
      <trkpt lat="43.90759" lon="7.38856">
        <ele>849.79998779297</ele>
        <time>2022-04-09T11:50:38.000Z</time>
      </trkpt>
      <trkpt lat="43.90759" lon="7.38855">
        <ele>849.79998779297</ele>
        <time>2022-04-09T11:50:44.000Z</time>
      </trkpt>
      <trkpt lat="43.90757" lon="7.38856">
        <ele>849.79998779297</ele>
        <time>2022-04-09T11:50:46.000Z</time>
      </trkpt>
      <trkpt lat="43.90756" lon="7.38858">
        <ele>849.20001220703</ele>
        <time>2022-04-09T11:50:50.000Z</time>
      </trkpt>
      <trkpt lat="43.90755" lon="7.38859">
        <ele>848.79998779297</ele>
        <time>2022-04-09T11:50:53.000Z</time>
      </trkpt>
      <trkpt lat="43.90753" lon="7.3886">
        <ele>849.20001220703</ele>
        <time>2022-04-09T11:50:56.000Z</time>
      </trkpt>
      <trkpt lat="43.90751" lon="7.38865">
        <ele>849.59997558594</ele>
        <time>2022-04-09T11:51:03.000Z</time>
      </trkpt>
      <trkpt lat="43.90751" lon="7.38867">
        <ele>849.79998779297</ele>
        <time>2022-04-09T11:51:04.000Z</time>
      </trkpt>
      <trkpt lat="43.90751" lon="7.38869">
        <ele>850</ele>
        <time>2022-04-09T11:51:05.000Z</time>
      </trkpt>
      <trkpt lat="43.90751" lon="7.38871">
        <ele>850.40002441406</ele>
        <time>2022-04-09T11:51:08.000Z</time>
      </trkpt>
      <trkpt lat="43.90752" lon="7.3888">
        <ele>851</ele>
        <time>2022-04-09T11:51:14.000Z</time>
      </trkpt>
      <trkpt lat="43.90752" lon="7.38883">
        <ele>851.20001220703</ele>
        <time>2022-04-09T11:51:16.000Z</time>
      </trkpt>
      <trkpt lat="43.90754" lon="7.38884">
        <ele>851</ele>
        <time>2022-04-09T11:51:19.000Z</time>
      </trkpt>
      <trkpt lat="43.90754" lon="7.38885">
        <ele>851</ele>
        <time>2022-04-09T11:51:22.000Z</time>
      </trkpt>
      <trkpt lat="43.90756" lon="7.38893">
        <ele>851.20001220703</ele>
        <time>2022-04-09T11:51:25.000Z</time>
      </trkpt>
      <trkpt lat="43.90761" lon="7.38914">
        <ele>851.59997558594</ele>
        <time>2022-04-09T11:51:30.000Z</time>
      </trkpt>
      <trkpt lat="43.90761" lon="7.38924">
        <ele>851.79998779297</ele>
        <time>2022-04-09T11:51:35.000Z</time>
      </trkpt>
      <trkpt lat="43.9076" lon="7.38926">
        <ele>851.40002441406</ele>
        <time>2022-04-09T11:51:38.000Z</time>
      </trkpt>
      <trkpt lat="43.90758" lon="7.38928">
        <ele>851.20001220703</ele>
        <time>2022-04-09T11:51:41.000Z</time>
      </trkpt>
      <trkpt lat="43.90756" lon="7.38929">
        <ele>851.20001220703</ele>
        <time>2022-04-09T11:51:46.000Z</time>
      </trkpt>
      <trkpt lat="43.90746" lon="7.38933">
        <ele>851.40002441406</ele>
        <time>2022-04-09T11:51:50.000Z</time>
      </trkpt>
      <trkpt lat="43.90739" lon="7.38933">
        <ele>851.59997558594</ele>
        <time>2022-04-09T11:51:52.000Z</time>
      </trkpt>
      <trkpt lat="43.90732" lon="7.38938">
        <ele>851.59997558594</ele>
        <time>2022-04-09T11:51:54.000Z</time>
      </trkpt>
      <trkpt lat="43.90726" lon="7.38947">
        <ele>851.40002441406</ele>
        <time>2022-04-09T11:51:56.000Z</time>
      </trkpt>
      <trkpt lat="43.90721" lon="7.38955">
        <ele>851.20001220703</ele>
        <time>2022-04-09T11:51:58.000Z</time>
      </trkpt>
      <trkpt lat="43.90717" lon="7.38959">
        <ele>851</ele>
        <time>2022-04-09T11:51:59.000Z</time>
      </trkpt>
      <trkpt lat="43.90703" lon="7.38973">
        <ele>850.79998779297</ele>
        <time>2022-04-09T11:52:04.000Z</time>
      </trkpt>
      <trkpt lat="43.90703" lon="7.38975">
        <ele>849.59997558594</ele>
        <time>2022-04-09T11:52:08.000Z</time>
      </trkpt>
      <trkpt lat="43.90703" lon="7.38978">
        <ele>850.20001220703</ele>
        <time>2022-04-09T11:52:14.000Z</time>
      </trkpt>
      <trkpt lat="43.90701" lon="7.38981">
        <ele>850.40002441406</ele>
        <time>2022-04-09T11:52:17.000Z</time>
      </trkpt>
      <trkpt lat="43.90698" lon="7.38984">
        <ele>850.40002441406</ele>
        <time>2022-04-09T11:52:19.000Z</time>
      </trkpt>
      <trkpt lat="43.90693" lon="7.38994">
        <ele>850.20001220703</ele>
        <time>2022-04-09T11:52:22.000Z</time>
      </trkpt>
      <trkpt lat="43.90692" lon="7.38998">
        <ele>849.59997558594</ele>
        <time>2022-04-09T11:52:23.000Z</time>
      </trkpt>
      <trkpt lat="43.90693" lon="7.3901">
        <ele>849.20001220703</ele>
        <time>2022-04-09T11:52:26.000Z</time>
      </trkpt>
      <trkpt lat="43.90693" lon="7.39014">
        <ele>849.20001220703</ele>
        <time>2022-04-09T11:52:27.000Z</time>
      </trkpt>
      <trkpt lat="43.90695" lon="7.39033">
        <ele>849.20001220703</ele>
        <time>2022-04-09T11:52:31.000Z</time>
      </trkpt>
      <trkpt lat="43.90695" lon="7.39045">
        <ele>849</ele>
        <time>2022-04-09T11:52:33.000Z</time>
      </trkpt>
      <trkpt lat="43.90693" lon="7.39054">
        <ele>848</ele>
        <time>2022-04-09T11:52:35.000Z</time>
      </trkpt>
      <trkpt lat="43.90693" lon="7.39058">
        <ele>847.40002441406</ele>
        <time>2022-04-09T11:52:36.000Z</time>
      </trkpt>
      <trkpt lat="43.90693" lon="7.39062">
        <ele>847.40002441406</ele>
        <time>2022-04-09T11:52:37.000Z</time>
      </trkpt>
      <trkpt lat="43.90691" lon="7.39068">
        <ele>846.40002441406</ele>
        <time>2022-04-09T11:52:38.000Z</time>
      </trkpt>
      <trkpt lat="43.90686" lon="7.3908">
        <ele>845.59997558594</ele>
        <time>2022-04-09T11:52:41.000Z</time>
      </trkpt>
      <trkpt lat="43.90684" lon="7.39087">
        <ele>845.40002441406</ele>
        <time>2022-04-09T11:52:43.000Z</time>
      </trkpt>
      <trkpt lat="43.90684" lon="7.39091">
        <ele>844.40002441406</ele>
        <time>2022-04-09T11:52:46.000Z</time>
      </trkpt>
      <trkpt lat="43.90684" lon="7.39091">
        <ele>844.20001220703</ele>
        <time>2022-04-09T11:52:47.000Z</time>
      </trkpt>
      <trkpt lat="43.90683" lon="7.39094">
        <ele>843.20001220703</ele>
        <time>2022-04-09T11:52:51.000Z</time>
      </trkpt>
      <trkpt lat="43.90682" lon="7.39095">
        <ele>843</ele>
        <time>2022-04-09T11:52:54.000Z</time>
      </trkpt>
      <trkpt lat="43.90681" lon="7.391">
        <ele>842.59997558594</ele>
        <time>2022-04-09T11:52:57.000Z</time>
      </trkpt>
      <trkpt lat="43.90682" lon="7.39116">
        <ele>842.59997558594</ele>
        <time>2022-04-09T11:53:01.000Z</time>
      </trkpt>
      <trkpt lat="43.90683" lon="7.39129">
        <ele>841.59997558594</ele>
        <time>2022-04-09T11:53:04.000Z</time>
      </trkpt>
      <trkpt lat="43.90681" lon="7.39136">
        <ele>840.40002441406</ele>
        <time>2022-04-09T11:53:06.000Z</time>
      </trkpt>
      <trkpt lat="43.90679" lon="7.39147">
        <ele>839</ele>
        <time>2022-04-09T11:53:08.000Z</time>
      </trkpt>
      <trkpt lat="43.90677" lon="7.39159">
        <ele>837.20001220703</ele>
        <time>2022-04-09T11:53:10.000Z</time>
      </trkpt>
      <trkpt lat="43.90676" lon="7.39163">
        <ele>835.79998779297</ele>
        <time>2022-04-09T11:53:11.000Z</time>
      </trkpt>
      <trkpt lat="43.90676" lon="7.39167">
        <ele>834.79998779297</ele>
        <time>2022-04-09T11:53:12.000Z</time>
      </trkpt>
      <trkpt lat="43.90674" lon="7.39168">
        <ele>833.20001220703</ele>
        <time>2022-04-09T11:53:13.000Z</time>
      </trkpt>
      <trkpt lat="43.90672" lon="7.39172">
        <ele>832</ele>
        <time>2022-04-09T11:53:14.000Z</time>
      </trkpt>
      <trkpt lat="43.90669" lon="7.3918">
        <ele>830.59997558594</ele>
        <time>2022-04-09T11:53:16.000Z</time>
      </trkpt>
      <trkpt lat="43.90665" lon="7.39192">
        <ele>828.59997558594</ele>
        <time>2022-04-09T11:53:18.000Z</time>
      </trkpt>
      <trkpt lat="43.90663" lon="7.39197">
        <ele>827.59997558594</ele>
        <time>2022-04-09T11:53:19.000Z</time>
      </trkpt>
      <trkpt lat="43.90661" lon="7.39202">
        <ele>826.40002441406</ele>
        <time>2022-04-09T11:53:20.000Z</time>
      </trkpt>
      <trkpt lat="43.9066" lon="7.39205">
        <ele>825.20001220703</ele>
        <time>2022-04-09T11:53:21.000Z</time>
      </trkpt>
      <trkpt lat="43.90657" lon="7.39208">
        <ele>824.20001220703</ele>
        <time>2022-04-09T11:53:22.000Z</time>
      </trkpt>
      <trkpt lat="43.90655" lon="7.3921">
        <ele>823.40002441406</ele>
        <time>2022-04-09T11:53:23.000Z</time>
      </trkpt>
      <trkpt lat="43.90652" lon="7.39215">
        <ele>821.59997558594</ele>
        <time>2022-04-09T11:53:25.000Z</time>
      </trkpt>
      <trkpt lat="43.9065" lon="7.39219">
        <ele>820.79998779297</ele>
        <time>2022-04-09T11:53:26.000Z</time>
      </trkpt>
      <trkpt lat="43.90647" lon="7.39223">
        <ele>820</ele>
        <time>2022-04-09T11:53:27.000Z</time>
      </trkpt>
      <trkpt lat="43.90644" lon="7.39231">
        <ele>819</ele>
        <time>2022-04-09T11:53:28.000Z</time>
      </trkpt>
      <trkpt lat="43.90642" lon="7.39238">
        <ele>817.79998779297</ele>
        <time>2022-04-09T11:53:29.000Z</time>
      </trkpt>
      <trkpt lat="43.9064" lon="7.39244">
        <ele>816.59997558594</ele>
        <time>2022-04-09T11:53:30.000Z</time>
      </trkpt>
      <trkpt lat="43.90639" lon="7.39249">
        <ele>815.40002441406</ele>
        <time>2022-04-09T11:53:32.000Z</time>
      </trkpt>
      <trkpt lat="43.90639" lon="7.39249">
        <ele>814.20001220703</ele>
        <time>2022-04-09T11:53:33.000Z</time>
      </trkpt>
      <trkpt lat="43.90638" lon="7.39251">
        <ele>813.20001220703</ele>
        <time>2022-04-09T11:53:36.000Z</time>
      </trkpt>
      <trkpt lat="43.90639" lon="7.39251">
        <ele>812.79998779297</ele>
        <time>2022-04-09T11:53:48.000Z</time>
      </trkpt>
      <trkpt lat="43.90638" lon="7.39251">
        <ele>813</ele>
        <time>2022-04-09T11:53:54.000Z</time>
      </trkpt>
      <trkpt lat="43.90637" lon="7.39255">
        <ele>813.79998779297</ele>
        <time>2022-04-09T11:54:04.000Z</time>
      </trkpt>
      <trkpt lat="43.90635" lon="7.39255">
        <ele>813.59997558594</ele>
        <time>2022-04-09T11:54:05.000Z</time>
      </trkpt>
      <trkpt lat="43.90634" lon="7.39249">
        <ele>813</ele>
        <time>2022-04-09T11:54:08.000Z</time>
      </trkpt>
      <trkpt lat="43.90634" lon="7.39246">
        <ele>812.79998779297</ele>
        <time>2022-04-09T11:54:09.000Z</time>
      </trkpt>
      <trkpt lat="43.90634" lon="7.39245">
        <ele>812.20001220703</ele>
        <time>2022-04-09T11:54:10.000Z</time>
      </trkpt>
      <trkpt lat="43.90631" lon="7.39242">
        <ele>810.59997558594</ele>
        <time>2022-04-09T11:54:13.000Z</time>
      </trkpt>
      <trkpt lat="43.90628" lon="7.39246">
        <ele>809.20001220703</ele>
        <time>2022-04-09T11:54:16.000Z</time>
      </trkpt>
      <trkpt lat="43.90626" lon="7.39248">
        <ele>809</ele>
        <time>2022-04-09T11:54:17.000Z</time>
      </trkpt>
      <trkpt lat="43.90626" lon="7.3925">
        <ele>808.59997558594</ele>
        <time>2022-04-09T11:54:18.000Z</time>
      </trkpt>
      <trkpt lat="43.90623" lon="7.39254">
        <ele>807.79998779297</ele>
        <time>2022-04-09T11:54:20.000Z</time>
      </trkpt>
      <trkpt lat="43.90619" lon="7.39259">
        <ele>806.40002441406</ele>
        <time>2022-04-09T11:54:22.000Z</time>
      </trkpt>
      <trkpt lat="43.90617" lon="7.39263">
        <ele>805.40002441406</ele>
        <time>2022-04-09T11:54:23.000Z</time>
      </trkpt>
      <trkpt lat="43.90615" lon="7.39266">
        <ele>804.20001220703</ele>
        <time>2022-04-09T11:54:24.000Z</time>
      </trkpt>
      <trkpt lat="43.90611" lon="7.39271">
        <ele>801.79998779297</ele>
        <time>2022-04-09T11:54:26.000Z</time>
      </trkpt>
      <trkpt lat="43.90609" lon="7.39273">
        <ele>800.59997558594</ele>
        <time>2022-04-09T11:54:27.000Z</time>
      </trkpt>
      <trkpt lat="43.90606" lon="7.39275">
        <ele>799.59997558594</ele>
        <time>2022-04-09T11:54:28.000Z</time>
      </trkpt>
      <trkpt lat="43.90605" lon="7.39272">
        <ele>798</ele>
        <time>2022-04-09T11:54:30.000Z</time>
      </trkpt>
      <trkpt lat="43.90606" lon="7.39269">
        <ele>798</ele>
        <time>2022-04-09T11:54:31.000Z</time>
      </trkpt>
      <trkpt lat="43.90606" lon="7.39267">
        <ele>797.20001220703</ele>
        <time>2022-04-09T11:54:32.000Z</time>
      </trkpt>
      <trkpt lat="43.90606" lon="7.39265">
        <ele>796.59997558594</ele>
        <time>2022-04-09T11:54:33.000Z</time>
      </trkpt>
      <trkpt lat="43.90606" lon="7.39263">
        <ele>795</ele>
        <time>2022-04-09T11:54:35.000Z</time>
      </trkpt>
      <trkpt lat="43.90605" lon="7.39262">
        <ele>794.59997558594</ele>
        <time>2022-04-09T11:54:36.000Z</time>
      </trkpt>
      <trkpt lat="43.90605" lon="7.39261">
        <ele>794.40002441406</ele>
        <time>2022-04-09T11:54:37.000Z</time>
      </trkpt>
      <trkpt lat="43.90604" lon="7.39261">
        <ele>794</ele>
        <time>2022-04-09T11:54:38.000Z</time>
      </trkpt>
      <trkpt lat="43.90603" lon="7.39261">
        <ele>793</ele>
        <time>2022-04-09T11:54:41.000Z</time>
      </trkpt>
      <trkpt lat="43.90603" lon="7.39261">
        <ele>792.40002441406</ele>
        <time>2022-04-09T11:54:43.000Z</time>
      </trkpt>
      <trkpt lat="43.90603" lon="7.39264">
        <ele>792</ele>
        <time>2022-04-09T11:54:50.000Z</time>
      </trkpt>
      <trkpt lat="43.90601" lon="7.39266">
        <ele>792</ele>
        <time>2022-04-09T11:54:53.000Z</time>
      </trkpt>
      <trkpt lat="43.90597" lon="7.39269">
        <ele>791.59997558594</ele>
        <time>2022-04-09T11:54:56.000Z</time>
      </trkpt>
      <trkpt lat="43.90594" lon="7.39271">
        <ele>791.20001220703</ele>
        <time>2022-04-09T11:54:57.000Z</time>
      </trkpt>
      <trkpt lat="43.90592" lon="7.39274">
        <ele>790.79998779297</ele>
        <time>2022-04-09T11:54:58.000Z</time>
      </trkpt>
      <trkpt lat="43.90588" lon="7.3928">
        <ele>789.40002441406</ele>
        <time>2022-04-09T11:55:00.000Z</time>
      </trkpt>
      <trkpt lat="43.90584" lon="7.39286">
        <ele>787.40002441406</ele>
        <time>2022-04-09T11:55:02.000Z</time>
      </trkpt>
      <trkpt lat="43.90581" lon="7.39288">
        <ele>785.20001220703</ele>
        <time>2022-04-09T11:55:04.000Z</time>
      </trkpt>
      <trkpt lat="43.90581" lon="7.39288">
        <ele>784.40002441406</ele>
        <time>2022-04-09T11:55:05.000Z</time>
      </trkpt>
      <trkpt lat="43.90581" lon="7.39289">
        <ele>783.20001220703</ele>
        <time>2022-04-09T11:55:06.000Z</time>
      </trkpt>
      <trkpt lat="43.90581" lon="7.39289">
        <ele>782</ele>
        <time>2022-04-09T11:55:08.000Z</time>
      </trkpt>
      <trkpt lat="43.90578" lon="7.39289">
        <ele>781.59997558594</ele>
        <time>2022-04-09T11:55:13.000Z</time>
      </trkpt>
      <trkpt lat="43.90575" lon="7.39288">
        <ele>780.79998779297</ele>
        <time>2022-04-09T11:55:17.000Z</time>
      </trkpt>
      <trkpt lat="43.90573" lon="7.39289">
        <ele>780.20001220703</ele>
        <time>2022-04-09T11:55:18.000Z</time>
      </trkpt>
      <trkpt lat="43.90572" lon="7.39291">
        <ele>779.40002441406</ele>
        <time>2022-04-09T11:55:19.000Z</time>
      </trkpt>
      <trkpt lat="43.9057" lon="7.39296">
        <ele>778.20001220703</ele>
        <time>2022-04-09T11:55:21.000Z</time>
      </trkpt>
      <trkpt lat="43.90568" lon="7.39296">
        <ele>777.59997558594</ele>
        <time>2022-04-09T11:55:22.000Z</time>
      </trkpt>
      <trkpt lat="43.90566" lon="7.39294">
        <ele>776.59997558594</ele>
        <time>2022-04-09T11:55:23.000Z</time>
      </trkpt>
      <trkpt lat="43.90565" lon="7.39292">
        <ele>776</ele>
        <time>2022-04-09T11:55:24.000Z</time>
      </trkpt>
      <trkpt lat="43.90565" lon="7.3929">
        <ele>775.40002441406</ele>
        <time>2022-04-09T11:55:25.000Z</time>
      </trkpt>
      <trkpt lat="43.90562" lon="7.3929">
        <ele>773.79998779297</ele>
        <time>2022-04-09T11:55:28.000Z</time>
      </trkpt>
      <trkpt lat="43.9056" lon="7.39297">
        <ele>772.59997558594</ele>
        <time>2022-04-09T11:55:30.000Z</time>
      </trkpt>
      <trkpt lat="43.9056" lon="7.39301">
        <ele>772</ele>
        <time>2022-04-09T11:55:31.000Z</time>
      </trkpt>
      <trkpt lat="43.90561" lon="7.39305">
        <ele>771.59997558594</ele>
        <time>2022-04-09T11:55:32.000Z</time>
      </trkpt>
      <trkpt lat="43.90561" lon="7.3931">
        <ele>771.20001220703</ele>
        <time>2022-04-09T11:55:33.000Z</time>
      </trkpt>
      <trkpt lat="43.90561" lon="7.39316">
        <ele>769.20001220703</ele>
        <time>2022-04-09T11:55:35.000Z</time>
      </trkpt>
      <trkpt lat="43.90561" lon="7.39319">
        <ele>768.20001220703</ele>
        <time>2022-04-09T11:55:36.000Z</time>
      </trkpt>
      <trkpt lat="43.90561" lon="7.39321">
        <ele>767.59997558594</ele>
        <time>2022-04-09T11:55:37.000Z</time>
      </trkpt>
      <trkpt lat="43.90561" lon="7.39324">
        <ele>766.20001220703</ele>
        <time>2022-04-09T11:55:38.000Z</time>
      </trkpt>
      <trkpt lat="43.90563" lon="7.39328">
        <ele>764.59997558594</ele>
        <time>2022-04-09T11:55:40.000Z</time>
      </trkpt>
      <trkpt lat="43.90564" lon="7.39333">
        <ele>763.20001220703</ele>
        <time>2022-04-09T11:55:42.000Z</time>
      </trkpt>
      <trkpt lat="43.90563" lon="7.39333">
        <ele>762.20001220703</ele>
        <time>2022-04-09T11:55:44.000Z</time>
      </trkpt>
      <trkpt lat="43.90563" lon="7.39333">
        <ele>761.20001220703</ele>
        <time>2022-04-09T11:55:47.000Z</time>
      </trkpt>
      <trkpt lat="43.9056" lon="7.39331">
        <ele>760.40002441406</ele>
        <time>2022-04-09T11:55:52.000Z</time>
      </trkpt>
      <trkpt lat="43.9056" lon="7.39332">
        <ele>759.79998779297</ele>
        <time>2022-04-09T11:55:56.000Z</time>
      </trkpt>
      <trkpt lat="43.9056" lon="7.39332">
        <ele>759.20001220703</ele>
        <time>2022-04-09T11:55:58.000Z</time>
      </trkpt>
      <trkpt lat="43.90562" lon="7.39341">
        <ele>758.79998779297</ele>
        <time>2022-04-09T11:56:02.000Z</time>
      </trkpt>
      <trkpt lat="43.90562" lon="7.39344">
        <ele>758.59997558594</ele>
        <time>2022-04-09T11:56:03.000Z</time>
      </trkpt>
      <trkpt lat="43.90564" lon="7.39347">
        <ele>758.20001220703</ele>
        <time>2022-04-09T11:56:04.000Z</time>
      </trkpt>
      <trkpt lat="43.90565" lon="7.39352">
        <ele>757</ele>
        <time>2022-04-09T11:56:06.000Z</time>
      </trkpt>
      <trkpt lat="43.90565" lon="7.39354">
        <ele>755.20001220703</ele>
        <time>2022-04-09T11:56:08.000Z</time>
      </trkpt>
      <trkpt lat="43.90566" lon="7.39354">
        <ele>753.40002441406</ele>
        <time>2022-04-09T11:56:10.000Z</time>
      </trkpt>
      <trkpt lat="43.90566" lon="7.39354">
        <ele>753</ele>
        <time>2022-04-09T11:56:11.000Z</time>
      </trkpt>
      <trkpt lat="43.90564" lon="7.39355">
        <ele>752.79998779297</ele>
        <time>2022-04-09T11:56:18.000Z</time>
      </trkpt>
      <trkpt lat="43.90563" lon="7.39355">
        <ele>752.40002441406</ele>
        <time>2022-04-09T11:56:21.000Z</time>
      </trkpt>
      <trkpt lat="43.90558" lon="7.39351">
        <ele>752.40002441406</ele>
        <time>2022-04-09T11:56:24.000Z</time>
      </trkpt>
      <trkpt lat="43.9055" lon="7.39346">
        <ele>751</ele>
        <time>2022-04-09T11:56:28.000Z</time>
      </trkpt>
      <trkpt lat="43.9055" lon="7.39346">
        <ele>750.40002441406</ele>
        <time>2022-04-09T11:56:29.000Z</time>
      </trkpt>
      <trkpt lat="43.90549" lon="7.39345">
        <ele>750</ele>
        <time>2022-04-09T11:56:30.000Z</time>
      </trkpt>
      <trkpt lat="43.9055" lon="7.39345">
        <ele>748.79998779297</ele>
        <time>2022-04-09T11:56:33.000Z</time>
      </trkpt>
      <trkpt lat="43.90549" lon="7.39346">
        <ele>748.40002441406</ele>
        <time>2022-04-09T11:56:35.000Z</time>
      </trkpt>
      <trkpt lat="43.9055" lon="7.39347">
        <ele>748.20001220703</ele>
        <time>2022-04-09T11:56:36.000Z</time>
      </trkpt>
      <trkpt lat="43.90549" lon="7.39348">
        <ele>747.79998779297</ele>
        <time>2022-04-09T11:56:39.000Z</time>
      </trkpt>
      <trkpt lat="43.9055" lon="7.39349">
        <ele>747.59997558594</ele>
        <time>2022-04-09T11:56:41.000Z</time>
      </trkpt>
      <trkpt lat="43.90548" lon="7.39353">
        <ele>747.40002441406</ele>
        <time>2022-04-09T11:56:48.000Z</time>
      </trkpt>
      <trkpt lat="43.90546" lon="7.39358">
        <ele>747</ele>
        <time>2022-04-09T11:56:50.000Z</time>
      </trkpt>
      <trkpt lat="43.90546" lon="7.3936">
        <ele>746.20001220703</ele>
        <time>2022-04-09T11:56:51.000Z</time>
      </trkpt>
      <trkpt lat="43.90546" lon="7.39363">
        <ele>745.59997558594</ele>
        <time>2022-04-09T11:56:52.000Z</time>
      </trkpt>
      <trkpt lat="43.90546" lon="7.39365">
        <ele>744.40002441406</ele>
        <time>2022-04-09T11:56:53.000Z</time>
      </trkpt>
      <trkpt lat="43.90547" lon="7.39369">
        <ele>742.40002441406</ele>
        <time>2022-04-09T11:56:55.000Z</time>
      </trkpt>
      <trkpt lat="43.90546" lon="7.39371">
        <ele>741.79998779297</ele>
        <time>2022-04-09T11:56:56.000Z</time>
      </trkpt>
      <trkpt lat="43.90545" lon="7.39372">
        <ele>741.20001220703</ele>
        <time>2022-04-09T11:56:57.000Z</time>
      </trkpt>
      <trkpt lat="43.90541" lon="7.39371">
        <ele>740</ele>
        <time>2022-04-09T11:56:59.000Z</time>
      </trkpt>
      <trkpt lat="43.90538" lon="7.39369">
        <ele>739.59997558594</ele>
        <time>2022-04-09T11:57:00.000Z</time>
      </trkpt>
      <trkpt lat="43.90536" lon="7.39367">
        <ele>739</ele>
        <time>2022-04-09T11:57:01.000Z</time>
      </trkpt>
      <trkpt lat="43.90529" lon="7.39362">
        <ele>738</ele>
        <time>2022-04-09T11:57:03.000Z</time>
      </trkpt>
      <trkpt lat="43.90522" lon="7.39357">
        <ele>736.59997558594</ele>
        <time>2022-04-09T11:57:05.000Z</time>
      </trkpt>
      <trkpt lat="43.90519" lon="7.39353">
        <ele>734.20001220703</ele>
        <time>2022-04-09T11:57:07.000Z</time>
      </trkpt>
      <trkpt lat="43.90519" lon="7.39353">
        <ele>733.20001220703</ele>
        <time>2022-04-09T11:57:08.000Z</time>
      </trkpt>
      <trkpt lat="43.90518" lon="7.39356">
        <ele>731.79998779297</ele>
        <time>2022-04-09T11:57:10.000Z</time>
      </trkpt>
      <trkpt lat="43.90519" lon="7.39361">
        <ele>731</ele>
        <time>2022-04-09T11:57:12.000Z</time>
      </trkpt>
      <trkpt lat="43.90519" lon="7.39365">
        <ele>730.79998779297</ele>
        <time>2022-04-09T11:57:13.000Z</time>
      </trkpt>
      <trkpt lat="43.90519" lon="7.39373">
        <ele>729.59997558594</ele>
        <time>2022-04-09T11:57:15.000Z</time>
      </trkpt>
      <trkpt lat="43.9052" lon="7.39381">
        <ele>728.20001220703</ele>
        <time>2022-04-09T11:57:17.000Z</time>
      </trkpt>
      <trkpt lat="43.9052" lon="7.39385">
        <ele>726.40002441406</ele>
        <time>2022-04-09T11:57:19.000Z</time>
      </trkpt>
      <trkpt lat="43.90521" lon="7.39388">
        <ele>725.20001220703</ele>
        <time>2022-04-09T11:57:21.000Z</time>
      </trkpt>
      <trkpt lat="43.90522" lon="7.39388">
        <ele>724</ele>
        <time>2022-04-09T11:57:24.000Z</time>
      </trkpt>
      <trkpt lat="43.90522" lon="7.39388">
        <ele>723.20001220703</ele>
        <time>2022-04-09T11:57:27.000Z</time>
      </trkpt>
      <trkpt lat="43.90522" lon="7.39389">
        <ele>722.79998779297</ele>
        <time>2022-04-09T11:57:31.000Z</time>
      </trkpt>
      <trkpt lat="43.90522" lon="7.39388">
        <ele>722.79998779297</ele>
        <time>2022-04-09T11:57:36.000Z</time>
      </trkpt>
      <trkpt lat="43.90519" lon="7.39389">
        <ele>722.79998779297</ele>
        <time>2022-04-09T11:57:43.000Z</time>
      </trkpt>
      <trkpt lat="43.9051" lon="7.39388">
        <ele>722</ele>
        <time>2022-04-09T11:57:47.000Z</time>
      </trkpt>
      <trkpt lat="43.90507" lon="7.39387">
        <ele>721.40002441406</ele>
        <time>2022-04-09T11:57:48.000Z</time>
      </trkpt>
      <trkpt lat="43.90502" lon="7.39384">
        <ele>720.20001220703</ele>
        <time>2022-04-09T11:57:50.000Z</time>
      </trkpt>
      <trkpt lat="43.90497" lon="7.39379">
        <ele>718.20001220703</ele>
        <time>2022-04-09T11:57:52.000Z</time>
      </trkpt>
      <trkpt lat="43.90495" lon="7.39378">
        <ele>717.20001220703</ele>
        <time>2022-04-09T11:57:53.000Z</time>
      </trkpt>
      <trkpt lat="43.90493" lon="7.39377">
        <ele>716</ele>
        <time>2022-04-09T11:57:54.000Z</time>
      </trkpt>
      <trkpt lat="43.90492" lon="7.39378">
        <ele>715.20001220703</ele>
        <time>2022-04-09T11:57:55.000Z</time>
      </trkpt>
      <trkpt lat="43.90491" lon="7.3938">
        <ele>714.20001220703</ele>
        <time>2022-04-09T11:57:56.000Z</time>
      </trkpt>
      <trkpt lat="43.90491" lon="7.39382">
        <ele>713.40002441406</ele>
        <time>2022-04-09T11:57:57.000Z</time>
      </trkpt>
      <trkpt lat="43.90491" lon="7.39381">
        <ele>712.59997558594</ele>
        <time>2022-04-09T11:57:58.000Z</time>
      </trkpt>
      <trkpt lat="43.9049" lon="7.39383">
        <ele>711</ele>
        <time>2022-04-09T11:58:00.000Z</time>
      </trkpt>
      <trkpt lat="43.90489" lon="7.39383">
        <ele>710.20001220703</ele>
        <time>2022-04-09T11:58:01.000Z</time>
      </trkpt>
      <trkpt lat="43.90489" lon="7.39384">
        <ele>709.79998779297</ele>
        <time>2022-04-09T11:58:02.000Z</time>
      </trkpt>
      <trkpt lat="43.90489" lon="7.39392">
        <ele>709.20001220703</ele>
        <time>2022-04-09T11:58:06.000Z</time>
      </trkpt>
      <trkpt lat="43.90489" lon="7.39394">
        <ele>708.40002441406</ele>
        <time>2022-04-09T11:58:09.000Z</time>
      </trkpt>
      <trkpt lat="43.90489" lon="7.39394">
        <ele>708</ele>
        <time>2022-04-09T11:58:10.000Z</time>
      </trkpt>
      <trkpt lat="43.90489" lon="7.39395">
        <ele>707.20001220703</ele>
        <time>2022-04-09T11:58:13.000Z</time>
      </trkpt>
      <trkpt lat="43.90489" lon="7.39395">
        <ele>707.40002441406</ele>
        <time>2022-04-09T11:58:16.000Z</time>
      </trkpt>
      <trkpt lat="43.90488" lon="7.39395">
        <ele>707.40002441406</ele>
        <time>2022-04-09T11:58:18.000Z</time>
      </trkpt>
      <trkpt lat="43.90484" lon="7.39389">
        <ele>707.40002441406</ele>
        <time>2022-04-09T11:58:21.000Z</time>
      </trkpt>
      <trkpt lat="43.90477" lon="7.39384">
        <ele>706.40002441406</ele>
        <time>2022-04-09T11:58:24.000Z</time>
      </trkpt>
      <trkpt lat="43.90474" lon="7.39381">
        <ele>705.59997558594</ele>
        <time>2022-04-09T11:58:25.000Z</time>
      </trkpt>
      <trkpt lat="43.90471" lon="7.39379">
        <ele>704.59997558594</ele>
        <time>2022-04-09T11:58:26.000Z</time>
      </trkpt>
      <trkpt lat="43.90469" lon="7.39378">
        <ele>703.59997558594</ele>
        <time>2022-04-09T11:58:27.000Z</time>
      </trkpt>
      <trkpt lat="43.90468" lon="7.39376">
        <ele>702.59997558594</ele>
        <time>2022-04-09T11:58:28.000Z</time>
      </trkpt>
      <trkpt lat="43.90465" lon="7.39375">
        <ele>701.59997558594</ele>
        <time>2022-04-09T11:58:29.000Z</time>
      </trkpt>
      <trkpt lat="43.9046" lon="7.3937">
        <ele>700</ele>
        <time>2022-04-09T11:58:31.000Z</time>
      </trkpt>
      <trkpt lat="43.90458" lon="7.39367">
        <ele>699.20001220703</ele>
        <time>2022-04-09T11:58:32.000Z</time>
      </trkpt>
      <trkpt lat="43.90454" lon="7.39362">
        <ele>698.40002441406</ele>
        <time>2022-04-09T11:58:33.000Z</time>
      </trkpt>
      <trkpt lat="43.9045" lon="7.3935">
        <ele>696.40002441406</ele>
        <time>2022-04-09T11:58:35.000Z</time>
      </trkpt>
      <trkpt lat="43.90447" lon="7.39346">
        <ele>695.40002441406</ele>
        <time>2022-04-09T11:58:36.000Z</time>
      </trkpt>
      <trkpt lat="43.90443" lon="7.39338">
        <ele>693.79998779297</ele>
        <time>2022-04-09T11:58:38.000Z</time>
      </trkpt>
      <trkpt lat="43.90442" lon="7.39336">
        <ele>692.59997558594</ele>
        <time>2022-04-09T11:58:40.000Z</time>
      </trkpt>
      <trkpt lat="43.90441" lon="7.39336">
        <ele>691.59997558594</ele>
        <time>2022-04-09T11:58:41.000Z</time>
      </trkpt>
      <trkpt lat="43.90441" lon="7.39342">
        <ele>690.20001220703</ele>
        <time>2022-04-09T11:58:43.000Z</time>
      </trkpt>
      <trkpt lat="43.9044" lon="7.39346">
        <ele>689.20001220703</ele>
        <time>2022-04-09T11:58:44.000Z</time>
      </trkpt>
      <trkpt lat="43.90439" lon="7.39348">
        <ele>689</ele>
        <time>2022-04-09T11:58:45.000Z</time>
      </trkpt>
      <trkpt lat="43.90437" lon="7.39348">
        <ele>688.59997558594</ele>
        <time>2022-04-09T11:58:46.000Z</time>
      </trkpt>
      <trkpt lat="43.90435" lon="7.39346">
        <ele>687.79998779297</ele>
        <time>2022-04-09T11:58:47.000Z</time>
      </trkpt>
      <trkpt lat="43.90433" lon="7.39342">
        <ele>687</ele>
        <time>2022-04-09T11:58:48.000Z</time>
      </trkpt>
      <trkpt lat="43.9043" lon="7.3934">
        <ele>686.40002441406</ele>
        <time>2022-04-09T11:58:49.000Z</time>
      </trkpt>
      <trkpt lat="43.90427" lon="7.3934">
        <ele>685.40002441406</ele>
        <time>2022-04-09T11:58:50.000Z</time>
      </trkpt>
      <trkpt lat="43.90424" lon="7.39341">
        <ele>684.59997558594</ele>
        <time>2022-04-09T11:58:51.000Z</time>
      </trkpt>
      <trkpt lat="43.90421" lon="7.39346">
        <ele>683.40002441406</ele>
        <time>2022-04-09T11:58:53.000Z</time>
      </trkpt>
      <trkpt lat="43.9042" lon="7.39348">
        <ele>682.40002441406</ele>
        <time>2022-04-09T11:58:54.000Z</time>
      </trkpt>
      <trkpt lat="43.9042" lon="7.39348">
        <ele>681.79998779297</ele>
        <time>2022-04-09T11:58:55.000Z</time>
      </trkpt>
      <trkpt lat="43.90419" lon="7.39348">
        <ele>680.20001220703</ele>
        <time>2022-04-09T11:58:57.000Z</time>
      </trkpt>
      <trkpt lat="43.90418" lon="7.39345">
        <ele>679.59997558594</ele>
        <time>2022-04-09T11:58:58.000Z</time>
      </trkpt>
      <trkpt lat="43.90417" lon="7.39342">
        <ele>679</ele>
        <time>2022-04-09T11:58:59.000Z</time>
      </trkpt>
      <trkpt lat="43.90413" lon="7.39338">
        <ele>678.20001220703</ele>
        <time>2022-04-09T11:59:01.000Z</time>
      </trkpt>
      <trkpt lat="43.90411" lon="7.39338">
        <ele>677.79998779297</ele>
        <time>2022-04-09T11:59:02.000Z</time>
      </trkpt>
      <trkpt lat="43.90409" lon="7.39338">
        <ele>676.59997558594</ele>
        <time>2022-04-09T11:59:04.000Z</time>
      </trkpt>
      <trkpt lat="43.9041" lon="7.3934">
        <ele>676</ele>
        <time>2022-04-09T11:59:06.000Z</time>
      </trkpt>
      <trkpt lat="43.90413" lon="7.39347">
        <ele>677.20001220703</ele>
        <time>2022-04-09T11:59:10.000Z</time>
      </trkpt>
      <trkpt lat="43.90414" lon="7.39348">
        <ele>677.59997558594</ele>
        <time>2022-04-09T11:59:11.000Z</time>
      </trkpt>
      <trkpt lat="43.90414" lon="7.39347">
        <ele>678.20001220703</ele>
        <time>2022-04-09T11:59:13.000Z</time>
      </trkpt>
      <trkpt lat="43.90415" lon="7.39347">
        <ele>678.40002441406</ele>
        <time>2022-04-09T11:59:15.000Z</time>
      </trkpt>
      <trkpt lat="43.90415" lon="7.39348">
        <ele>678.20001220703</ele>
        <time>2022-04-09T11:59:18.000Z</time>
      </trkpt>
      <trkpt lat="43.90416" lon="7.3935">
        <ele>678.59997558594</ele>
        <time>2022-04-09T11:59:21.000Z</time>
      </trkpt>
      <trkpt lat="43.90418" lon="7.39351">
        <ele>678.79998779297</ele>
        <time>2022-04-09T11:59:22.000Z</time>
      </trkpt>
      <trkpt lat="43.90419" lon="7.39352">
        <ele>679.79998779297</ele>
        <time>2022-04-09T11:59:26.000Z</time>
      </trkpt>
      <trkpt lat="43.9042" lon="7.39352">
        <ele>680.20001220703</ele>
        <time>2022-04-09T11:59:29.000Z</time>
      </trkpt>
      <trkpt lat="43.9042" lon="7.39354">
        <ele>680.20001220703</ele>
        <time>2022-04-09T11:59:30.000Z</time>
      </trkpt>
      <trkpt lat="43.90421" lon="7.39361">
        <ele>680.40002441406</ele>
        <time>2022-04-09T11:59:33.000Z</time>
      </trkpt>
      <trkpt lat="43.9042" lon="7.39366">
        <ele>681</ele>
        <time>2022-04-09T11:59:35.000Z</time>
      </trkpt>
      <trkpt lat="43.90418" lon="7.39364">
        <ele>681.79998779297</ele>
        <time>2022-04-09T11:59:37.000Z</time>
      </trkpt>
      <trkpt lat="43.90417" lon="7.39361">
        <ele>682.20001220703</ele>
        <time>2022-04-09T11:59:38.000Z</time>
      </trkpt>
      <trkpt lat="43.90416" lon="7.39352">
        <ele>683.40002441406</ele>
        <time>2022-04-09T11:59:41.000Z</time>
      </trkpt>
      <trkpt lat="43.90415" lon="7.39348">
        <ele>683.59997558594</ele>
        <time>2022-04-09T11:59:42.000Z</time>
      </trkpt>
      <trkpt lat="43.90408" lon="7.39336">
        <ele>684.20001220703</ele>
        <time>2022-04-09T11:59:47.000Z</time>
      </trkpt>
      <trkpt lat="43.90405" lon="7.39337">
        <ele>684.40002441406</ele>
        <time>2022-04-09T11:59:48.000Z</time>
      </trkpt>
      <trkpt lat="43.90404" lon="7.39342">
        <ele>685</ele>
        <time>2022-04-09T11:59:50.000Z</time>
      </trkpt>
      <trkpt lat="43.90401" lon="7.39347">
        <ele>685.59997558594</ele>
        <time>2022-04-09T11:59:52.000Z</time>
      </trkpt>
      <trkpt lat="43.90401" lon="7.39347">
        <ele>686</ele>
        <time>2022-04-09T11:59:53.000Z</time>
      </trkpt>
      <trkpt lat="43.904" lon="7.39348">
        <ele>687</ele>
        <time>2022-04-09T11:59:55.000Z</time>
      </trkpt>
      <trkpt lat="43.904" lon="7.39348">
        <ele>688</ele>
        <time>2022-04-09T11:59:58.000Z</time>
      </trkpt>
      <trkpt lat="43.904" lon="7.39348">
        <ele>688.20001220703</ele>
        <time>2022-04-09T12:00:00.000Z</time>
      </trkpt>
      <trkpt lat="43.90398" lon="7.39345">
        <ele>688.20001220703</ele>
        <time>2022-04-09T12:00:09.000Z</time>
      </trkpt>
      <trkpt lat="43.90396" lon="7.39343">
        <ele>688.40002441406</ele>
        <time>2022-04-09T12:00:12.000Z</time>
      </trkpt>
      <trkpt lat="43.90394" lon="7.39341">
        <ele>688.79998779297</ele>
        <time>2022-04-09T12:00:15.000Z</time>
      </trkpt>
      <trkpt lat="43.90394" lon="7.3934">
        <ele>689</ele>
        <time>2022-04-09T12:00:16.000Z</time>
      </trkpt>
      <trkpt lat="43.90392" lon="7.39339">
        <ele>690</ele>
        <time>2022-04-09T12:00:22.000Z</time>
      </trkpt>
      <trkpt lat="43.90392" lon="7.39339">
        <ele>690.20001220703</ele>
        <time>2022-04-09T12:00:23.000Z</time>
      </trkpt>
      <trkpt lat="43.90391" lon="7.39341">
        <ele>690.59997558594</ele>
        <time>2022-04-09T12:00:28.000Z</time>
      </trkpt>
      <trkpt lat="43.90391" lon="7.39344">
        <ele>691.20001220703</ele>
        <time>2022-04-09T12:00:31.000Z</time>
      </trkpt>
      <trkpt lat="43.90391" lon="7.39344">
        <ele>692</ele>
        <time>2022-04-09T12:00:36.000Z</time>
      </trkpt>
      <trkpt lat="43.90396" lon="7.39347">
        <ele>691</ele>
        <time>2022-04-09T12:00:42.000Z</time>
      </trkpt>
      <trkpt lat="43.90397" lon="7.39348">
        <ele>692.20001220703</ele>
        <time>2022-04-09T12:00:47.000Z</time>
      </trkpt>
      <trkpt lat="43.90397" lon="7.39349">
        <ele>692.20001220703</ele>
        <time>2022-04-09T12:00:50.000Z</time>
      </trkpt>
      <trkpt lat="43.90396" lon="7.39354">
        <ele>692.20001220703</ele>
        <time>2022-04-09T12:00:53.000Z</time>
      </trkpt>
      <trkpt lat="43.90396" lon="7.39356">
        <ele>692.40002441406</ele>
        <time>2022-04-09T12:00:55.000Z</time>
      </trkpt>
      <trkpt lat="43.90397" lon="7.39363">
        <ele>693.20001220703</ele>
        <time>2022-04-09T12:00:58.000Z</time>
      </trkpt>
      <trkpt lat="43.90398" lon="7.39365">
        <ele>693.59997558594</ele>
        <time>2022-04-09T12:00:59.000Z</time>
      </trkpt>
      <trkpt lat="43.90398" lon="7.3937">
        <ele>694</ele>
        <time>2022-04-09T12:01:02.000Z</time>
      </trkpt>
      <trkpt lat="43.90399" lon="7.39373">
        <ele>694.79998779297</ele>
        <time>2022-04-09T12:01:04.000Z</time>
      </trkpt>
      <trkpt lat="43.90399" lon="7.39379">
        <ele>695.59997558594</ele>
        <time>2022-04-09T12:01:07.000Z</time>
      </trkpt>
      <trkpt lat="43.90398" lon="7.39382">
        <ele>695.79998779297</ele>
        <time>2022-04-09T12:01:10.000Z</time>
      </trkpt>
      <trkpt lat="43.90398" lon="7.39382">
        <ele>695.79998779297</ele>
        <time>2022-04-09T12:01:11.000Z</time>
      </trkpt>
      <trkpt lat="43.90398" lon="7.39385">
        <ele>696.59997558594</ele>
        <time>2022-04-09T12:01:16.000Z</time>
      </trkpt>
      <trkpt lat="43.90398" lon="7.39387">
        <ele>696.59997558594</ele>
        <time>2022-04-09T12:01:19.000Z</time>
      </trkpt>
      <trkpt lat="43.90399" lon="7.39391">
        <ele>696.79998779297</ele>
        <time>2022-04-09T12:01:21.000Z</time>
      </trkpt>
      <trkpt lat="43.90398" lon="7.39406">
        <ele>696.59997558594</ele>
        <time>2022-04-09T12:01:25.000Z</time>
      </trkpt>
      <trkpt lat="43.90394" lon="7.39422">
        <ele>696.40002441406</ele>
        <time>2022-04-09T12:01:30.000Z</time>
      </trkpt>
      <trkpt lat="43.90395" lon="7.39434">
        <ele>696.79998779297</ele>
        <time>2022-04-09T12:01:33.000Z</time>
      </trkpt>
      <trkpt lat="43.90393" lon="7.39445">
        <ele>697.79998779297</ele>
        <time>2022-04-09T12:01:36.000Z</time>
      </trkpt>
      <trkpt lat="43.90393" lon="7.39448">
        <ele>698.40002441406</ele>
        <time>2022-04-09T12:01:37.000Z</time>
      </trkpt>
      <trkpt lat="43.90391" lon="7.39451">
        <ele>699</ele>
        <time>2022-04-09T12:01:38.000Z</time>
      </trkpt>
      <trkpt lat="43.90391" lon="7.39453">
        <ele>699.59997558594</ele>
        <time>2022-04-09T12:01:39.000Z</time>
      </trkpt>
      <trkpt lat="43.9039" lon="7.39456">
        <ele>700.20001220703</ele>
        <time>2022-04-09T12:01:40.000Z</time>
      </trkpt>
      <trkpt lat="43.90388" lon="7.39459">
        <ele>700.79998779297</ele>
        <time>2022-04-09T12:01:41.000Z</time>
      </trkpt>
      <trkpt lat="43.90386" lon="7.39465">
        <ele>702</ele>
        <time>2022-04-09T12:01:43.000Z</time>
      </trkpt>
      <trkpt lat="43.90385" lon="7.39471">
        <ele>703.20001220703</ele>
        <time>2022-04-09T12:01:45.000Z</time>
      </trkpt>
      <trkpt lat="43.90385" lon="7.39474">
        <ele>703.59997558594</ele>
        <time>2022-04-09T12:01:46.000Z</time>
      </trkpt>
      <trkpt lat="43.90384" lon="7.3948">
        <ele>704.40002441406</ele>
        <time>2022-04-09T12:01:48.000Z</time>
      </trkpt>
      <trkpt lat="43.90381" lon="7.39484">
        <ele>705</ele>
        <time>2022-04-09T12:01:50.000Z</time>
      </trkpt>
      <trkpt lat="43.90371" lon="7.39488">
        <ele>705.59997558594</ele>
        <time>2022-04-09T12:01:53.000Z</time>
      </trkpt>
      <trkpt lat="43.90367" lon="7.39493">
        <ele>706</ele>
        <time>2022-04-09T12:01:55.000Z</time>
      </trkpt>
      <trkpt lat="43.90371" lon="7.39498">
        <ele>706</ele>
        <time>2022-04-09T12:01:58.000Z</time>
      </trkpt>
      <trkpt lat="43.90385" lon="7.39503">
        <ele>706.40002441406</ele>
        <time>2022-04-09T12:02:06.000Z</time>
      </trkpt>
      <trkpt lat="43.9039" lon="7.39505">
        <ele>706.20001220703</ele>
        <time>2022-04-09T12:02:20.000Z</time>
      </trkpt>
      <trkpt lat="43.9039" lon="7.39506">
        <ele>706.20001220703</ele>
        <time>2022-04-09T12:02:30.000Z</time>
      </trkpt>
      <trkpt lat="43.9039" lon="7.39506">
        <ele>706.40002441406</ele>
        <time>2022-04-09T12:02:40.000Z</time>
      </trkpt>
      <trkpt lat="43.9039" lon="7.39506">
        <ele>706.20001220703</ele>
        <time>2022-04-09T12:02:46.000Z</time>
      </trkpt>
      <trkpt lat="43.90388" lon="7.39504">
        <ele>705.59997558594</ele>
        <time>2022-04-09T12:02:52.000Z</time>
      </trkpt>
      <trkpt lat="43.90388" lon="7.39501">
        <ele>705.59997558594</ele>
        <time>2022-04-09T12:02:59.000Z</time>
      </trkpt>
      <trkpt lat="43.90388" lon="7.39498">
        <ele>705.59997558594</ele>
        <time>2022-04-09T12:03:06.000Z</time>
      </trkpt>
      <trkpt lat="43.90388" lon="7.39496">
        <ele>705.59997558594</ele>
        <time>2022-04-09T12:03:11.000Z</time>
      </trkpt>
      <trkpt lat="43.9039" lon="7.39495">
        <ele>705.59997558594</ele>
        <time>2022-04-09T12:03:16.000Z</time>
      </trkpt>
      <trkpt lat="43.90392" lon="7.39493">
        <ele>705.59997558594</ele>
        <time>2022-04-09T12:03:22.000Z</time>
      </trkpt>
      <trkpt lat="43.90393" lon="7.39491">
        <ele>705.40002441406</ele>
        <time>2022-04-09T12:03:25.000Z</time>
      </trkpt>
      <trkpt lat="43.90394" lon="7.39489">
        <ele>705.20001220703</ele>
        <time>2022-04-09T12:03:27.000Z</time>
      </trkpt>
      <trkpt lat="43.90398" lon="7.39486">
        <ele>704.79998779297</ele>
        <time>2022-04-09T12:03:32.000Z</time>
      </trkpt>
      <trkpt lat="43.90399" lon="7.39483">
        <ele>704.59997558594</ele>
        <time>2022-04-09T12:03:36.000Z</time>
      </trkpt>
      <trkpt lat="43.90401" lon="7.39481">
        <ele>704.40002441406</ele>
        <time>2022-04-09T12:03:39.000Z</time>
      </trkpt>
      <trkpt lat="43.90401" lon="7.39478">
        <ele>704.40002441406</ele>
        <time>2022-04-09T12:03:43.000Z</time>
      </trkpt>
      <trkpt lat="43.90402" lon="7.39478">
        <ele>704.20001220703</ele>
        <time>2022-04-09T12:03:44.000Z</time>
      </trkpt>
      <trkpt lat="43.90403" lon="7.39475">
        <ele>703.79998779297</ele>
        <time>2022-04-09T12:03:48.000Z</time>
      </trkpt>
      <trkpt lat="43.90404" lon="7.39474">
        <ele>703.59997558594</ele>
        <time>2022-04-09T12:03:49.000Z</time>
      </trkpt>
      <trkpt lat="43.90406" lon="7.39471">
        <ele>702.59997558594</ele>
        <time>2022-04-09T12:03:54.000Z</time>
      </trkpt>
      <trkpt lat="43.90406" lon="7.3947">
        <ele>702.40002441406</ele>
        <time>2022-04-09T12:03:55.000Z</time>
      </trkpt>
      <trkpt lat="43.90408" lon="7.39466">
        <ele>701.59997558594</ele>
        <time>2022-04-09T12:04:00.000Z</time>
      </trkpt>
      <trkpt lat="43.90409" lon="7.39466">
        <ele>701.40002441406</ele>
        <time>2022-04-09T12:04:01.000Z</time>
      </trkpt>
      <trkpt lat="43.90412" lon="7.39464">
        <ele>700.20001220703</ele>
        <time>2022-04-09T12:04:06.000Z</time>
      </trkpt>
      <trkpt lat="43.90413" lon="7.39464">
        <ele>699</ele>
        <time>2022-04-09T12:04:12.000Z</time>
      </trkpt>
      <trkpt lat="43.90415" lon="7.39465">
        <ele>699</ele>
        <time>2022-04-09T12:04:19.000Z</time>
      </trkpt>
      <trkpt lat="43.90415" lon="7.39465">
        <ele>699</ele>
        <time>2022-04-09T12:04:20.000Z</time>
      </trkpt>
      <trkpt lat="43.90415" lon="7.39459">
        <ele>699</ele>
        <time>2022-04-09T12:04:23.000Z</time>
      </trkpt>
      <trkpt lat="43.90415" lon="7.39456">
        <ele>698.59997558594</ele>
        <time>2022-04-09T12:04:26.000Z</time>
      </trkpt>
      <trkpt lat="43.90414" lon="7.39453">
        <ele>698.20001220703</ele>
        <time>2022-04-09T12:04:28.000Z</time>
      </trkpt>
      <trkpt lat="43.90413" lon="7.3945">
        <ele>698</ele>
        <time>2022-04-09T12:04:30.000Z</time>
      </trkpt>
      <trkpt lat="43.90413" lon="7.39451">
        <ele>697.79998779297</ele>
        <time>2022-04-09T12:04:31.000Z</time>
      </trkpt>
      <trkpt lat="43.90411" lon="7.39445">
        <ele>696.59997558594</ele>
        <time>2022-04-09T12:04:35.000Z</time>
      </trkpt>
      <trkpt lat="43.9041" lon="7.39441">
        <ele>695.79998779297</ele>
        <time>2022-04-09T12:04:39.000Z</time>
      </trkpt>
      <trkpt lat="43.90408" lon="7.39437">
        <ele>695.59997558594</ele>
        <time>2022-04-09T12:04:41.000Z</time>
      </trkpt>
      <trkpt lat="43.90409" lon="7.39432">
        <ele>694.79998779297</ele>
        <time>2022-04-09T12:04:46.000Z</time>
      </trkpt>
      <trkpt lat="43.90408" lon="7.39429">
        <ele>694.59997558594</ele>
        <time>2022-04-09T12:04:47.000Z</time>
      </trkpt>
      <trkpt lat="43.90408" lon="7.39428">
        <ele>694.40002441406</ele>
        <time>2022-04-09T12:04:49.000Z</time>
      </trkpt>
      <trkpt lat="43.90407" lon="7.39425">
        <ele>694.20001220703</ele>
        <time>2022-04-09T12:04:51.000Z</time>
      </trkpt>
      <trkpt lat="43.90407" lon="7.39421">
        <ele>694.20001220703</ele>
        <time>2022-04-09T12:04:52.000Z</time>
      </trkpt>
      <trkpt lat="43.90406" lon="7.39416">
        <ele>693.79998779297</ele>
        <time>2022-04-09T12:04:57.000Z</time>
      </trkpt>
      <trkpt lat="43.90404" lon="7.39413">
        <ele>693.79998779297</ele>
        <time>2022-04-09T12:04:58.000Z</time>
      </trkpt>
      <trkpt lat="43.90403" lon="7.39409">
        <ele>693.79998779297</ele>
        <time>2022-04-09T12:05:01.000Z</time>
      </trkpt>
      <trkpt lat="43.90403" lon="7.39409">
        <ele>694</ele>
        <time>2022-04-09T12:05:02.000Z</time>
      </trkpt>
      <trkpt lat="43.90403" lon="7.39407">
        <ele>694</ele>
        <time>2022-04-09T12:05:03.000Z</time>
      </trkpt>
      <trkpt lat="43.90402" lon="7.39401">
        <ele>694</ele>
        <time>2022-04-09T12:05:07.000Z</time>
      </trkpt>
      <trkpt lat="43.90403" lon="7.39397">
        <ele>693.79998779297</ele>
        <time>2022-04-09T12:05:11.000Z</time>
      </trkpt>
      <trkpt lat="43.90403" lon="7.39391">
        <ele>693.59997558594</ele>
        <time>2022-04-09T12:05:17.000Z</time>
      </trkpt>
      <trkpt lat="43.90401" lon="7.39384">
        <ele>693.59997558594</ele>
        <time>2022-04-09T12:05:24.000Z</time>
      </trkpt>
      <trkpt lat="43.90401" lon="7.39383">
        <ele>693.59997558594</ele>
        <time>2022-04-09T12:05:25.000Z</time>
      </trkpt>
      <trkpt lat="43.90401" lon="7.39383">
        <ele>693.40002441406</ele>
        <time>2022-04-09T12:05:26.000Z</time>
      </trkpt>
      <trkpt lat="43.90401" lon="7.39378">
        <ele>693.20001220703</ele>
        <time>2022-04-09T12:05:30.000Z</time>
      </trkpt>
      <trkpt lat="43.90401" lon="7.39371">
        <ele>692.59997558594</ele>
        <time>2022-04-09T12:05:37.000Z</time>
      </trkpt>
      <trkpt lat="43.90401" lon="7.39371">
        <ele>692.40002441406</ele>
        <time>2022-04-09T12:05:38.000Z</time>
      </trkpt>
      <trkpt lat="43.904" lon="7.39367">
        <ele>692.40002441406</ele>
        <time>2022-04-09T12:05:40.000Z</time>
      </trkpt>
      <trkpt lat="43.904" lon="7.39363">
        <ele>691.79998779297</ele>
        <time>2022-04-09T12:05:45.000Z</time>
      </trkpt>
      <trkpt lat="43.904" lon="7.39359">
        <ele>691.40002441406</ele>
        <time>2022-04-09T12:05:48.000Z</time>
      </trkpt>
      <trkpt lat="43.904" lon="7.39355">
        <ele>690.40002441406</ele>
        <time>2022-04-09T12:05:53.000Z</time>
      </trkpt>
      <trkpt lat="43.904" lon="7.39355">
        <ele>690.40002441406</ele>
        <time>2022-04-09T12:05:54.000Z</time>
      </trkpt>
      <trkpt lat="43.90401" lon="7.39352">
        <ele>689.59997558594</ele>
        <time>2022-04-09T12:06:00.000Z</time>
      </trkpt>
      <trkpt lat="43.90402" lon="7.39353">
        <ele>689.20001220703</ele>
        <time>2022-04-09T12:06:02.000Z</time>
      </trkpt>
      <trkpt lat="43.90402" lon="7.39354">
        <ele>688.59997558594</ele>
        <time>2022-04-09T12:06:06.000Z</time>
      </trkpt>
      <trkpt lat="43.90403" lon="7.39358">
        <ele>688.20001220703</ele>
        <time>2022-04-09T12:06:11.000Z</time>
      </trkpt>
      <trkpt lat="43.90403" lon="7.39358">
        <ele>688</ele>
        <time>2022-04-09T12:06:12.000Z</time>
      </trkpt>
      <trkpt lat="43.90405" lon="7.39359">
        <ele>687.20001220703</ele>
        <time>2022-04-09T12:06:18.000Z</time>
      </trkpt>
      <trkpt lat="43.90405" lon="7.39359">
        <ele>687.20001220703</ele>
        <time>2022-04-09T12:06:19.000Z</time>
      </trkpt>
      <trkpt lat="43.90406" lon="7.39358">
        <ele>687</ele>
        <time>2022-04-09T12:06:25.000Z</time>
      </trkpt>
      <trkpt lat="43.90405" lon="7.39358">
        <ele>686</ele>
        <time>2022-04-09T12:06:31.000Z</time>
      </trkpt>
      <trkpt lat="43.90404" lon="7.39358">
        <ele>685.79998779297</ele>
        <time>2022-04-09T12:06:33.000Z</time>
      </trkpt>
      <trkpt lat="43.90399" lon="7.39357">
        <ele>686.20001220703</ele>
        <time>2022-04-09T12:06:41.000Z</time>
      </trkpt>
      <trkpt lat="43.90394" lon="7.39355">
        <ele>686.59997558594</ele>
        <time>2022-04-09T12:06:54.000Z</time>
      </trkpt>
      <trkpt lat="43.90394" lon="7.3935">
        <ele>686</ele>
        <time>2022-04-09T12:07:01.000Z</time>
      </trkpt>
      <trkpt lat="43.90394" lon="7.39347">
        <ele>685.40002441406</ele>
        <time>2022-04-09T12:07:04.000Z</time>
      </trkpt>
      <trkpt lat="43.90395" lon="7.39346">
        <ele>685</ele>
        <time>2022-04-09T12:07:06.000Z</time>
      </trkpt>
      <trkpt lat="43.90396" lon="7.39346">
        <ele>684.79998779297</ele>
        <time>2022-04-09T12:07:07.000Z</time>
      </trkpt>
      <trkpt lat="43.904" lon="7.39348">
        <ele>683.59997558594</ele>
        <time>2022-04-09T12:07:13.000Z</time>
      </trkpt>
      <trkpt lat="43.90408" lon="7.39357">
        <ele>682.79998779297</ele>
        <time>2022-04-09T12:07:20.000Z</time>
      </trkpt>
      <trkpt lat="43.90409" lon="7.39358">
        <ele>682.79998779297</ele>
        <time>2022-04-09T12:07:21.000Z</time>
      </trkpt>
      <trkpt lat="43.9041" lon="7.3936">
        <ele>682.59997558594</ele>
        <time>2022-04-09T12:07:23.000Z</time>
      </trkpt>
      <trkpt lat="43.90412" lon="7.39363">
        <ele>682.40002441406</ele>
        <time>2022-04-09T12:07:25.000Z</time>
      </trkpt>
      <trkpt lat="43.90412" lon="7.39364">
        <ele>682.20001220703</ele>
        <time>2022-04-09T12:07:26.000Z</time>
      </trkpt>
      <trkpt lat="43.90414" lon="7.39368">
        <ele>682</ele>
        <time>2022-04-09T12:07:29.000Z</time>
      </trkpt>
      <trkpt lat="43.90416" lon="7.39371">
        <ele>681.79998779297</ele>
        <time>2022-04-09T12:07:33.000Z</time>
      </trkpt>
      <trkpt lat="43.90421" lon="7.39372">
        <ele>681.79998779297</ele>
        <time>2022-04-09T12:07:38.000Z</time>
      </trkpt>
      <trkpt lat="43.90424" lon="7.39368">
        <ele>681.79998779297</ele>
        <time>2022-04-09T12:07:43.000Z</time>
      </trkpt>
      <trkpt lat="43.90424" lon="7.39367">
        <ele>681.59997558594</ele>
        <time>2022-04-09T12:07:44.000Z</time>
      </trkpt>
      <trkpt lat="43.90424" lon="7.39366">
        <ele>681.40002441406</ele>
        <time>2022-04-09T12:07:45.000Z</time>
      </trkpt>
      <trkpt lat="43.90425" lon="7.39364">
        <ele>680.40002441406</ele>
        <time>2022-04-09T12:07:47.000Z</time>
      </trkpt>
      <trkpt lat="43.90426" lon="7.39362">
        <ele>679.20001220703</ele>
        <time>2022-04-09T12:07:50.000Z</time>
      </trkpt>
      <trkpt lat="43.90431" lon="7.3936">
        <ele>678.79998779297</ele>
        <time>2022-04-09T12:07:57.000Z</time>
      </trkpt>
      <trkpt lat="43.90434" lon="7.39359">
        <ele>678</ele>
        <time>2022-04-09T12:08:00.000Z</time>
      </trkpt>
      <trkpt lat="43.90435" lon="7.39358">
        <ele>677.40002441406</ele>
        <time>2022-04-09T12:08:03.000Z</time>
      </trkpt>
      <trkpt lat="43.90436" lon="7.39354">
        <ele>677</ele>
        <time>2022-04-09T12:08:08.000Z</time>
      </trkpt>
      <trkpt lat="43.90437" lon="7.39353">
        <ele>676.79998779297</ele>
        <time>2022-04-09T12:08:09.000Z</time>
      </trkpt>
      <trkpt lat="43.90439" lon="7.39351">
        <ele>676</ele>
        <time>2022-04-09T12:08:14.000Z</time>
      </trkpt>
      <trkpt lat="43.9044" lon="7.39351">
        <ele>675.79998779297</ele>
        <time>2022-04-09T12:08:16.000Z</time>
      </trkpt>
      <trkpt lat="43.90441" lon="7.39351">
        <ele>675.79998779297</ele>
        <time>2022-04-09T12:08:21.000Z</time>
      </trkpt>
      <trkpt lat="43.90444" lon="7.39353">
        <ele>676</ele>
        <time>2022-04-09T12:08:28.000Z</time>
      </trkpt>
      <trkpt lat="43.90444" lon="7.39356">
        <ele>676</ele>
        <time>2022-04-09T12:08:33.000Z</time>
      </trkpt>
      <trkpt lat="43.90446" lon="7.39361">
        <ele>676.79998779297</ele>
        <time>2022-04-09T12:08:38.000Z</time>
      </trkpt>
      <trkpt lat="43.90446" lon="7.39361">
        <ele>676.79998779297</ele>
        <time>2022-04-09T12:08:39.000Z</time>
      </trkpt>
      <trkpt lat="43.90446" lon="7.39361">
        <ele>677</ele>
        <time>2022-04-09T12:08:41.000Z</time>
      </trkpt>
      <trkpt lat="43.90445" lon="7.39363">
        <ele>677.40002441406</ele>
        <time>2022-04-09T12:08:43.000Z</time>
      </trkpt>
      <trkpt lat="43.90445" lon="7.39366">
        <ele>678.20001220703</ele>
        <time>2022-04-09T12:08:46.000Z</time>
      </trkpt>
      <trkpt lat="43.90445" lon="7.39368">
        <ele>678.59997558594</ele>
        <time>2022-04-09T12:08:48.000Z</time>
      </trkpt>
      <trkpt lat="43.90445" lon="7.39369">
        <ele>679</ele>
        <time>2022-04-09T12:08:49.000Z</time>
      </trkpt>
      <trkpt lat="43.90444" lon="7.3937">
        <ele>679.20001220703</ele>
        <time>2022-04-09T12:08:51.000Z</time>
      </trkpt>
      <trkpt lat="43.90445" lon="7.39372">
        <ele>679.40002441406</ele>
        <time>2022-04-09T12:08:52.000Z</time>
      </trkpt>
      <trkpt lat="43.90445" lon="7.39373">
        <ele>680</ele>
        <time>2022-04-09T12:08:54.000Z</time>
      </trkpt>
      <trkpt lat="43.90444" lon="7.39375">
        <ele>680.40002441406</ele>
        <time>2022-04-09T12:08:56.000Z</time>
      </trkpt>
      <trkpt lat="43.90443" lon="7.39375">
        <ele>680.79998779297</ele>
        <time>2022-04-09T12:08:59.000Z</time>
      </trkpt>
      <trkpt lat="43.90442" lon="7.39372">
        <ele>681.40002441406</ele>
        <time>2022-04-09T12:09:03.000Z</time>
      </trkpt>
      <trkpt lat="43.90442" lon="7.39371">
        <ele>681.79998779297</ele>
        <time>2022-04-09T12:09:04.000Z</time>
      </trkpt>
      <trkpt lat="43.90441" lon="7.39365">
        <ele>682.20001220703</ele>
        <time>2022-04-09T12:09:10.000Z</time>
      </trkpt>
      <trkpt lat="43.9044" lon="7.39364">
        <ele>682.20001220703</ele>
        <time>2022-04-09T12:09:11.000Z</time>
      </trkpt>
      <trkpt lat="43.9044" lon="7.39363">
        <ele>682.59997558594</ele>
        <time>2022-04-09T12:09:14.000Z</time>
      </trkpt>
      <trkpt lat="43.9044" lon="7.39361">
        <ele>682.59997558594</ele>
        <time>2022-04-09T12:09:15.000Z</time>
      </trkpt>
      <trkpt lat="43.90439" lon="7.39359">
        <ele>682.79998779297</ele>
        <time>2022-04-09T12:09:17.000Z</time>
      </trkpt>
      <trkpt lat="43.90437" lon="7.39354">
        <ele>683</ele>
        <time>2022-04-09T12:09:22.000Z</time>
      </trkpt>
      <trkpt lat="43.90435" lon="7.39351">
        <ele>683.20001220703</ele>
        <time>2022-04-09T12:09:27.000Z</time>
      </trkpt>
      <trkpt lat="43.90434" lon="7.39347">
        <ele>683.40002441406</ele>
        <time>2022-04-09T12:09:33.000Z</time>
      </trkpt>
      <trkpt lat="43.90433" lon="7.39348">
        <ele>683.59997558594</ele>
        <time>2022-04-09T12:09:35.000Z</time>
      </trkpt>
      <trkpt lat="43.90433" lon="7.39351">
        <ele>683.79998779297</ele>
        <time>2022-04-09T12:09:40.000Z</time>
      </trkpt>
      <trkpt lat="43.90434" lon="7.39355">
        <ele>684.40002441406</ele>
        <time>2022-04-09T12:09:45.000Z</time>
      </trkpt>
      <trkpt lat="43.90434" lon="7.39356">
        <ele>684.59997558594</ele>
        <time>2022-04-09T12:09:46.000Z</time>
      </trkpt>
      <trkpt lat="43.90434" lon="7.39356">
        <ele>684.59997558594</ele>
        <time>2022-04-09T12:09:47.000Z</time>
      </trkpt>
      <trkpt lat="43.90434" lon="7.39357">
        <ele>684.79998779297</ele>
        <time>2022-04-09T12:09:49.000Z</time>
      </trkpt>
      <trkpt lat="43.90434" lon="7.3936">
        <ele>685.59997558594</ele>
        <time>2022-04-09T12:09:54.000Z</time>
      </trkpt>
      <trkpt lat="43.90434" lon="7.3936">
        <ele>686</ele>
        <time>2022-04-09T12:09:56.000Z</time>
      </trkpt>
      <trkpt lat="43.90434" lon="7.39359">
        <ele>686.40002441406</ele>
        <time>2022-04-09T12:10:02.000Z</time>
      </trkpt>
      <trkpt lat="43.90434" lon="7.39356">
        <ele>686.79998779297</ele>
        <time>2022-04-09T12:10:06.000Z</time>
      </trkpt>
      <trkpt lat="43.90433" lon="7.39354">
        <ele>687</ele>
        <time>2022-04-09T12:10:08.000Z</time>
      </trkpt>
      <trkpt lat="43.9043" lon="7.3935">
        <ele>687.79998779297</ele>
        <time>2022-04-09T12:10:14.000Z</time>
      </trkpt>
      <trkpt lat="43.90428" lon="7.39353">
        <ele>688.79998779297</ele>
        <time>2022-04-09T12:10:20.000Z</time>
      </trkpt>
      <trkpt lat="43.90428" lon="7.39356">
        <ele>689.40002441406</ele>
        <time>2022-04-09T12:10:25.000Z</time>
      </trkpt>
      <trkpt lat="43.90427" lon="7.39359">
        <ele>689.79998779297</ele>
        <time>2022-04-09T12:10:28.000Z</time>
      </trkpt>
      <trkpt lat="43.90428" lon="7.39359">
        <ele>690.20001220703</ele>
        <time>2022-04-09T12:10:29.000Z</time>
      </trkpt>
      <trkpt lat="43.90427" lon="7.39364">
        <ele>691</ele>
        <time>2022-04-09T12:10:33.000Z</time>
      </trkpt>
      <trkpt lat="43.90427" lon="7.39365">
        <ele>691.20001220703</ele>
        <time>2022-04-09T12:10:34.000Z</time>
      </trkpt>
      <trkpt lat="43.90429" lon="7.39369">
        <ele>691.79998779297</ele>
        <time>2022-04-09T12:10:39.000Z</time>
      </trkpt>
      <trkpt lat="43.90428" lon="7.39374">
        <ele>692</ele>
        <time>2022-04-09T12:10:43.000Z</time>
      </trkpt>
      <trkpt lat="43.90428" lon="7.39374">
        <ele>692.20001220703</ele>
        <time>2022-04-09T12:10:44.000Z</time>
      </trkpt>
      <trkpt lat="43.90428" lon="7.39379">
        <ele>692.79998779297</ele>
        <time>2022-04-09T12:10:50.000Z</time>
      </trkpt>
      <trkpt lat="43.90428" lon="7.39381">
        <ele>693</ele>
        <time>2022-04-09T12:10:52.000Z</time>
      </trkpt>
      <trkpt lat="43.90427" lon="7.39384">
        <ele>693.20001220703</ele>
        <time>2022-04-09T12:10:55.000Z</time>
      </trkpt>
      <trkpt lat="43.90426" lon="7.39387">
        <ele>693.20001220703</ele>
        <time>2022-04-09T12:10:59.000Z</time>
      </trkpt>
      <trkpt lat="43.90426" lon="7.39389">
        <ele>693.40002441406</ele>
        <time>2022-04-09T12:11:01.000Z</time>
      </trkpt>
      <trkpt lat="43.90426" lon="7.39393">
        <ele>693.79998779297</ele>
        <time>2022-04-09T12:11:04.000Z</time>
      </trkpt>
      <trkpt lat="43.90425" lon="7.39396">
        <ele>694.20001220703</ele>
        <time>2022-04-09T12:11:07.000Z</time>
      </trkpt>
      <trkpt lat="43.90426" lon="7.39402">
        <ele>694.40002441406</ele>
        <time>2022-04-09T12:11:11.000Z</time>
      </trkpt>
      <trkpt lat="43.90426" lon="7.39404">
        <ele>694.40002441406</ele>
        <time>2022-04-09T12:11:13.000Z</time>
      </trkpt>
      <trkpt lat="43.90427" lon="7.39409">
        <ele>694.40002441406</ele>
        <time>2022-04-09T12:11:17.000Z</time>
      </trkpt>
      <trkpt lat="43.90426" lon="7.39412">
        <ele>694.40002441406</ele>
        <time>2022-04-09T12:11:19.000Z</time>
      </trkpt>
      <trkpt lat="43.90425" lon="7.39415">
        <ele>694.59997558594</ele>
        <time>2022-04-09T12:11:22.000Z</time>
      </trkpt>
      <trkpt lat="43.90422" lon="7.3942">
        <ele>694.59997558594</ele>
        <time>2022-04-09T12:11:28.000Z</time>
      </trkpt>
      <trkpt lat="43.90422" lon="7.39425">
        <ele>694.59997558594</ele>
        <time>2022-04-09T12:11:34.000Z</time>
      </trkpt>
      <trkpt lat="43.90422" lon="7.39426">
        <ele>694.40002441406</ele>
        <time>2022-04-09T12:11:35.000Z</time>
      </trkpt>
      <trkpt lat="43.90421" lon="7.39433">
        <ele>695</ele>
        <time>2022-04-09T12:11:44.000Z</time>
      </trkpt>
      <trkpt lat="43.9042" lon="7.39434">
        <ele>695.20001220703</ele>
        <time>2022-04-09T12:11:45.000Z</time>
      </trkpt>
      <trkpt lat="43.90419" lon="7.39435">
        <ele>695.40002441406</ele>
        <time>2022-04-09T12:11:49.000Z</time>
      </trkpt>
      <trkpt lat="43.90418" lon="7.3944">
        <ele>696.20001220703</ele>
        <time>2022-04-09T12:11:56.000Z</time>
      </trkpt>
      <trkpt lat="43.90418" lon="7.39443">
        <ele>696.40002441406</ele>
        <time>2022-04-09T12:11:58.000Z</time>
      </trkpt>
      <trkpt lat="43.90419" lon="7.39448">
        <ele>697.20001220703</ele>
        <time>2022-04-09T12:12:02.000Z</time>
      </trkpt>
      <trkpt lat="43.90419" lon="7.39449">
        <ele>697.20001220703</ele>
        <time>2022-04-09T12:12:03.000Z</time>
      </trkpt>
      <trkpt lat="43.90418" lon="7.39451">
        <ele>697.79998779297</ele>
        <time>2022-04-09T12:12:07.000Z</time>
      </trkpt>
      <trkpt lat="43.90417" lon="7.39454">
        <ele>698.40002441406</ele>
        <time>2022-04-09T12:12:11.000Z</time>
      </trkpt>
      <trkpt lat="43.90416" lon="7.39454">
        <ele>698.59997558594</ele>
        <time>2022-04-09T12:12:13.000Z</time>
      </trkpt>
      <trkpt lat="43.90413" lon="7.39458">
        <ele>699.40002441406</ele>
        <time>2022-04-09T12:12:19.000Z</time>
      </trkpt>
      <trkpt lat="43.9041" lon="7.3946">
        <ele>700</ele>
        <time>2022-04-09T12:12:22.000Z</time>
      </trkpt>
      <trkpt lat="43.90409" lon="7.3946">
        <ele>700</ele>
        <time>2022-04-09T12:12:23.000Z</time>
      </trkpt>
      <trkpt lat="43.90408" lon="7.39463">
        <ele>700.59997558594</ele>
        <time>2022-04-09T12:12:26.000Z</time>
      </trkpt>
      <trkpt lat="43.90408" lon="7.39467">
        <ele>701.40002441406</ele>
        <time>2022-04-09T12:12:30.000Z</time>
      </trkpt>
      <trkpt lat="43.90408" lon="7.39468">
        <ele>701.59997558594</ele>
        <time>2022-04-09T12:12:31.000Z</time>
      </trkpt>
      <trkpt lat="43.90404" lon="7.39471">
        <ele>702.40002441406</ele>
        <time>2022-04-09T12:12:36.000Z</time>
      </trkpt>
      <trkpt lat="43.90402" lon="7.39473">
        <ele>702.59997558594</ele>
        <time>2022-04-09T12:12:38.000Z</time>
      </trkpt>
      <trkpt lat="43.90401" lon="7.39476">
        <ele>702.79998779297</ele>
        <time>2022-04-09T12:12:40.000Z</time>
      </trkpt>
      <trkpt lat="43.904" lon="7.39478">
        <ele>703</ele>
        <time>2022-04-09T12:12:42.000Z</time>
      </trkpt>
      <trkpt lat="43.90397" lon="7.39482">
        <ele>703.20001220703</ele>
        <time>2022-04-09T12:12:47.000Z</time>
      </trkpt>
      <trkpt lat="43.90396" lon="7.39482">
        <ele>703.20001220703</ele>
        <time>2022-04-09T12:12:48.000Z</time>
      </trkpt>
      <trkpt lat="43.90391" lon="7.39486">
        <ele>703.59997558594</ele>
        <time>2022-04-09T12:12:54.000Z</time>
      </trkpt>
      <trkpt lat="43.90391" lon="7.39488">
        <ele>703.79998779297</ele>
        <time>2022-04-09T12:12:56.000Z</time>
      </trkpt>
      <trkpt lat="43.90389" lon="7.39489">
        <ele>704</ele>
        <time>2022-04-09T12:12:58.000Z</time>
      </trkpt>
      <trkpt lat="43.90389" lon="7.3949">
        <ele>704</ele>
        <time>2022-04-09T12:12:59.000Z</time>
      </trkpt>
      <trkpt lat="43.90387" lon="7.39493">
        <ele>703.79998779297</ele>
        <time>2022-04-09T12:13:04.000Z</time>
      </trkpt>
      <trkpt lat="43.90385" lon="7.39498">
        <ele>703.79998779297</ele>
        <time>2022-04-09T12:13:10.000Z</time>
      </trkpt>
      <trkpt lat="43.90384" lon="7.39503">
        <ele>703.79998779297</ele>
        <time>2022-04-09T12:13:15.000Z</time>
      </trkpt>
      <trkpt lat="43.90384" lon="7.39507">
        <ele>704.20001220703</ele>
        <time>2022-04-09T12:13:22.000Z</time>
      </trkpt>
      <trkpt lat="43.90383" lon="7.39509">
        <ele>704.59997558594</ele>
        <time>2022-04-09T12:13:30.000Z</time>
      </trkpt>
      <trkpt lat="43.90383" lon="7.3951">
        <ele>704.79998779297</ele>
        <time>2022-04-09T12:13:36.000Z</time>
      </trkpt>
      <trkpt lat="43.90382" lon="7.39511">
        <ele>704.79998779297</ele>
        <time>2022-04-09T12:13:39.000Z</time>
      </trkpt>
      <trkpt lat="43.9038" lon="7.39512">
        <ele>705</ele>
        <time>2022-04-09T12:13:47.000Z</time>
      </trkpt>
      <trkpt lat="43.90378" lon="7.39513">
        <ele>705.59997558594</ele>
        <time>2022-04-09T12:13:58.000Z</time>
      </trkpt>
      <trkpt lat="43.90377" lon="7.39514">
        <ele>705.79998779297</ele>
        <time>2022-04-09T12:14:05.000Z</time>
      </trkpt>
      <trkpt lat="43.90378" lon="7.39515">
        <ele>705.59997558594</ele>
        <time>2022-04-09T12:14:14.000Z</time>
      </trkpt>
      <trkpt lat="43.90378" lon="7.39516">
        <ele>705.79998779297</ele>
        <time>2022-04-09T12:14:16.000Z</time>
      </trkpt>
      <trkpt lat="43.90378" lon="7.39516">
        <ele>706.20001220703</ele>
        <time>2022-04-09T12:14:21.000Z</time>
      </trkpt>
      <trkpt lat="43.90378" lon="7.39516">
        <ele>706</ele>
        <time>2022-04-09T12:14:31.000Z</time>
      </trkpt>
      <trkpt lat="43.90379" lon="7.39517">
        <ele>706</ele>
        <time>2022-04-09T12:14:44.000Z</time>
      </trkpt>
      <trkpt lat="43.9038" lon="7.39518">
        <ele>706</ele>
        <time>2022-04-09T12:14:55.000Z</time>
      </trkpt>
      <trkpt lat="43.90379" lon="7.39517">
        <ele>705.79998779297</ele>
        <time>2022-04-09T12:15:01.000Z</time>
      </trkpt>
      <trkpt lat="43.90381" lon="7.39517">
        <ele>705.20001220703</ele>
        <time>2022-04-09T12:15:06.000Z</time>
      </trkpt>
      <trkpt lat="43.90382" lon="7.39516">
        <ele>704.59997558594</ele>
        <time>2022-04-09T12:15:08.000Z</time>
      </trkpt>
      <trkpt lat="43.90382" lon="7.39514">
        <ele>703.79998779297</ele>
        <time>2022-04-09T12:15:12.000Z</time>
      </trkpt>
      <trkpt lat="43.90382" lon="7.39517">
        <ele>704.20001220703</ele>
        <time>2022-04-09T12:15:18.000Z</time>
      </trkpt>
      <trkpt lat="43.90381" lon="7.39519">
        <ele>705</ele>
        <time>2022-04-09T12:15:25.000Z</time>
      </trkpt>
      <trkpt lat="43.90379" lon="7.39522">
        <ele>705.79998779297</ele>
        <time>2022-04-09T12:15:31.000Z</time>
      </trkpt>
      <trkpt lat="43.90378" lon="7.39522">
        <ele>706.20001220703</ele>
        <time>2022-04-09T12:15:33.000Z</time>
      </trkpt>
      <trkpt lat="43.90376" lon="7.39522">
        <ele>706.40002441406</ele>
        <time>2022-04-09T12:15:43.000Z</time>
      </trkpt>
      <trkpt lat="43.90374" lon="7.39522">
        <ele>706</ele>
        <time>2022-04-09T12:15:53.000Z</time>
      </trkpt>
      <trkpt lat="43.90372" lon="7.39523">
        <ele>706.40002441406</ele>
        <time>2022-04-09T12:16:03.000Z</time>
      </trkpt>
      <trkpt lat="43.90372" lon="7.39521">
        <ele>706</ele>
        <time>2022-04-09T12:16:11.000Z</time>
      </trkpt>
      <trkpt lat="43.90371" lon="7.3952">
        <ele>705</ele>
        <time>2022-04-09T12:16:17.000Z</time>
      </trkpt>
      <trkpt lat="43.90372" lon="7.39521">
        <ele>704.79998779297</ele>
        <time>2022-04-09T12:16:23.000Z</time>
      </trkpt>
      <trkpt lat="43.90375" lon="7.39519">
        <ele>705.40002441406</ele>
        <time>2022-04-09T12:16:30.000Z</time>
      </trkpt>
      <trkpt lat="43.90378" lon="7.39519">
        <ele>705.20001220703</ele>
        <time>2022-04-09T12:16:37.000Z</time>
      </trkpt>
      <trkpt lat="43.90378" lon="7.3952">
        <ele>704.59997558594</ele>
        <time>2022-04-09T12:16:44.000Z</time>
      </trkpt>
      <trkpt lat="43.90377" lon="7.39519">
        <ele>704.40002441406</ele>
        <time>2022-04-09T12:16:52.000Z</time>
      </trkpt>
      <trkpt lat="43.90377" lon="7.39518">
        <ele>705.59997558594</ele>
        <time>2022-04-09T12:17:00.000Z</time>
      </trkpt>
      <trkpt lat="43.90377" lon="7.39519">
        <ele>706</ele>
        <time>2022-04-09T12:17:02.000Z</time>
      </trkpt>
      <trkpt lat="43.90374" lon="7.39522">
        <ele>706.40002441406</ele>
        <time>2022-04-09T12:17:06.000Z</time>
      </trkpt>
      <trkpt lat="43.90374" lon="7.39522">
        <ele>706.40002441406</ele>
        <time>2022-04-09T12:17:07.000Z</time>
      </trkpt>
      <trkpt lat="43.90374" lon="7.39522">
        <ele>706.79998779297</ele>
        <time>2022-04-09T12:17:11.000Z</time>
      </trkpt>
      <trkpt lat="43.90374" lon="7.39522">
        <ele>706.79998779297</ele>
        <time>2022-04-09T12:17:12.000Z</time>
      </trkpt>
      <trkpt lat="43.90374" lon="7.39522">
        <ele>706.40002441406</ele>
        <time>2022-04-09T12:17:30.000Z</time>
      </trkpt>
      <trkpt lat="43.90371" lon="7.39533">
        <ele>706.59997558594</ele>
        <time>2022-04-09T12:17:36.000Z</time>
      </trkpt>
      <trkpt lat="43.90369" lon="7.39536">
        <ele>706.59997558594</ele>
        <time>2022-04-09T12:17:38.000Z</time>
      </trkpt>
      <trkpt lat="43.90369" lon="7.39536">
        <ele>706.79998779297</ele>
        <time>2022-04-09T12:17:40.000Z</time>
      </trkpt>
      <trkpt lat="43.90368" lon="7.39537">
        <ele>707.79998779297</ele>
        <time>2022-04-09T12:17:46.000Z</time>
      </trkpt>
      <trkpt lat="43.90368" lon="7.39537">
        <ele>707.79998779297</ele>
        <time>2022-04-09T12:17:47.000Z</time>
      </trkpt>
      <trkpt lat="43.90367" lon="7.39538">
        <ele>708.20001220703</ele>
        <time>2022-04-09T12:18:05.000Z</time>
      </trkpt>
      <trkpt lat="43.90367" lon="7.39538">
        <ele>707.79998779297</ele>
        <time>2022-04-09T12:18:23.000Z</time>
      </trkpt>
      <trkpt lat="43.90366" lon="7.3954">
        <ele>707.79998779297</ele>
        <time>2022-04-09T12:18:25.000Z</time>
      </trkpt>
      <trkpt lat="43.90366" lon="7.3954">
        <ele>707.79998779297</ele>
        <time>2022-04-09T12:18:28.000Z</time>
      </trkpt>
      <trkpt lat="43.90365" lon="7.39541">
        <ele>708.20001220703</ele>
        <time>2022-04-09T12:18:38.000Z</time>
      </trkpt>
      <trkpt lat="43.90364" lon="7.39541">
        <ele>708</ele>
        <time>2022-04-09T12:18:54.000Z</time>
      </trkpt>
      <trkpt lat="43.90362" lon="7.39541">
        <ele>708.20001220703</ele>
        <time>2022-04-09T12:19:01.000Z</time>
      </trkpt>
      <trkpt lat="43.90361" lon="7.39539">
        <ele>709</ele>
        <time>2022-04-09T12:19:04.000Z</time>
      </trkpt>
      <trkpt lat="43.9036" lon="7.39538">
        <ele>709.59997558594</ele>
        <time>2022-04-09T12:19:07.000Z</time>
      </trkpt>
      <trkpt lat="43.90359" lon="7.39537">
        <ele>710</ele>
        <time>2022-04-09T12:19:14.000Z</time>
      </trkpt>
      <trkpt lat="43.90359" lon="7.39537">
        <ele>710</ele>
        <time>2022-04-09T12:19:15.000Z</time>
      </trkpt>
      <trkpt lat="43.90356" lon="7.39537">
        <ele>710.79998779297</ele>
        <time>2022-04-09T12:19:21.000Z</time>
      </trkpt>
      <trkpt lat="43.90355" lon="7.39537">
        <ele>711.20001220703</ele>
        <time>2022-04-09T12:19:23.000Z</time>
      </trkpt>
      <trkpt lat="43.90352" lon="7.39536">
        <ele>712.40002441406</ele>
        <time>2022-04-09T12:19:28.000Z</time>
      </trkpt>
      <trkpt lat="43.90351" lon="7.39535">
        <ele>713.40002441406</ele>
        <time>2022-04-09T12:19:35.000Z</time>
      </trkpt>
      <trkpt lat="43.90351" lon="7.39536">
        <ele>712.40002441406</ele>
        <time>2022-04-09T12:19:41.000Z</time>
      </trkpt>
      <trkpt lat="43.9035" lon="7.39536">
        <ele>713.59997558594</ele>
        <time>2022-04-09T12:19:46.000Z</time>
      </trkpt>
      <trkpt lat="43.90347" lon="7.39535">
        <ele>713.20001220703</ele>
        <time>2022-04-09T12:19:48.000Z</time>
      </trkpt>
      <trkpt lat="43.90343" lon="7.39531">
        <ele>713.40002441406</ele>
        <time>2022-04-09T12:19:51.000Z</time>
      </trkpt>
      <trkpt lat="43.90342" lon="7.3953">
        <ele>714</ele>
        <time>2022-04-09T12:19:53.000Z</time>
      </trkpt>
      <trkpt lat="43.90341" lon="7.39529">
        <ele>714.40002441406</ele>
        <time>2022-04-09T12:19:54.000Z</time>
      </trkpt>
      <trkpt lat="43.90341" lon="7.3953">
        <ele>715.20001220703</ele>
        <time>2022-04-09T12:20:00.000Z</time>
      </trkpt>
      <trkpt lat="43.9034" lon="7.39529">
        <ele>715.59997558594</ele>
        <time>2022-04-09T12:20:03.000Z</time>
      </trkpt>
      <trkpt lat="43.9034" lon="7.39529">
        <ele>716.40002441406</ele>
        <time>2022-04-09T12:20:05.000Z</time>
      </trkpt>
      <trkpt lat="43.9034" lon="7.39529">
        <ele>716.79998779297</ele>
        <time>2022-04-09T12:20:06.000Z</time>
      </trkpt>
      <trkpt lat="43.90337" lon="7.39527">
        <ele>717.40002441406</ele>
        <time>2022-04-09T12:20:13.000Z</time>
      </trkpt>
      <trkpt lat="43.90337" lon="7.39528">
        <ele>718</ele>
        <time>2022-04-09T12:20:15.000Z</time>
      </trkpt>
      <trkpt lat="43.90336" lon="7.39528">
        <ele>718</ele>
        <time>2022-04-09T12:20:19.000Z</time>
      </trkpt>
      <trkpt lat="43.90335" lon="7.39528">
        <ele>717.79998779297</ele>
        <time>2022-04-09T12:20:24.000Z</time>
      </trkpt>
      <trkpt lat="43.90334" lon="7.39527">
        <ele>718.20001220703</ele>
        <time>2022-04-09T12:20:32.000Z</time>
      </trkpt>
      <trkpt lat="43.90329" lon="7.39527">
        <ele>719</ele>
        <time>2022-04-09T12:20:39.000Z</time>
      </trkpt>
      <trkpt lat="43.90327" lon="7.39526">
        <ele>720</ele>
        <time>2022-04-09T12:20:45.000Z</time>
      </trkpt>
      <trkpt lat="43.90328" lon="7.39526">
        <ele>720</ele>
        <time>2022-04-09T12:20:49.000Z</time>
      </trkpt>
      <trkpt lat="43.90329" lon="7.39526">
        <ele>719.79998779297</ele>
        <time>2022-04-09T12:20:50.000Z</time>
      </trkpt>
      <trkpt lat="43.9033" lon="7.39527">
        <ele>719.40002441406</ele>
        <time>2022-04-09T12:20:53.000Z</time>
      </trkpt>
      <trkpt lat="43.90334" lon="7.39527">
        <ele>719</ele>
        <time>2022-04-09T12:20:59.000Z</time>
      </trkpt>
      <trkpt lat="43.90335" lon="7.39528">
        <ele>718</ele>
        <time>2022-04-09T12:21:03.000Z</time>
      </trkpt>
      <trkpt lat="43.90336" lon="7.39528">
        <ele>717.20001220703</ele>
        <time>2022-04-09T12:21:05.000Z</time>
      </trkpt>
      <trkpt lat="43.90336" lon="7.39528">
        <ele>716.59997558594</ele>
        <time>2022-04-09T12:21:06.000Z</time>
      </trkpt>
      <trkpt lat="43.90337" lon="7.39529">
        <ele>715.59997558594</ele>
        <time>2022-04-09T12:21:10.000Z</time>
      </trkpt>
      <trkpt lat="43.90338" lon="7.3953">
        <ele>715</ele>
        <time>2022-04-09T12:21:12.000Z</time>
      </trkpt>
      <trkpt lat="43.90339" lon="7.39532">
        <ele>714.40002441406</ele>
        <time>2022-04-09T12:21:14.000Z</time>
      </trkpt>
      <trkpt lat="43.90342" lon="7.39533">
        <ele>713.40002441406</ele>
        <time>2022-04-09T12:21:17.000Z</time>
      </trkpt>
      <trkpt lat="43.90343" lon="7.39533">
        <ele>713.20001220703</ele>
        <time>2022-04-09T12:21:18.000Z</time>
      </trkpt>
      <trkpt lat="43.90347" lon="7.39534">
        <ele>712.40002441406</ele>
        <time>2022-04-09T12:21:23.000Z</time>
      </trkpt>
      <trkpt lat="43.90348" lon="7.39535">
        <ele>712</ele>
        <time>2022-04-09T12:21:25.000Z</time>
      </trkpt>
      <trkpt lat="43.90351" lon="7.39535">
        <ele>711.20001220703</ele>
        <time>2022-04-09T12:21:29.000Z</time>
      </trkpt>
      <trkpt lat="43.90351" lon="7.39535">
        <ele>711.20001220703</ele>
        <time>2022-04-09T12:21:30.000Z</time>
      </trkpt>
      <trkpt lat="43.90353" lon="7.39537">
        <ele>710.20001220703</ele>
        <time>2022-04-09T12:21:35.000Z</time>
      </trkpt>
      <trkpt lat="43.90354" lon="7.39537">
        <ele>709.79998779297</ele>
        <time>2022-04-09T12:21:42.000Z</time>
      </trkpt>
      <trkpt lat="43.90356" lon="7.39539">
        <ele>708.79998779297</ele>
        <time>2022-04-09T12:21:48.000Z</time>
      </trkpt>
      <trkpt lat="43.90357" lon="7.39539">
        <ele>709.59997558594</ele>
        <time>2022-04-09T12:22:00.000Z</time>
      </trkpt>
      <trkpt lat="43.90359" lon="7.39539">
        <ele>708.40002441406</ele>
        <time>2022-04-09T12:22:16.000Z</time>
      </trkpt>
      <trkpt lat="43.90359" lon="7.39539">
        <ele>708.59997558594</ele>
        <time>2022-04-09T12:22:27.000Z</time>
      </trkpt>
      <trkpt lat="43.90359" lon="7.39537">
        <ele>708.40002441406</ele>
        <time>2022-04-09T12:22:49.000Z</time>
      </trkpt>
      <trkpt lat="43.90358" lon="7.39535">
        <ele>708.40002441406</ele>
        <time>2022-04-09T12:22:54.000Z</time>
      </trkpt>
      <trkpt lat="43.90358" lon="7.39534">
        <ele>709.59997558594</ele>
        <time>2022-04-09T12:23:01.000Z</time>
      </trkpt>
      <trkpt lat="43.90358" lon="7.39534">
        <ele>710</ele>
        <time>2022-04-09T12:23:03.000Z</time>
      </trkpt>
      <trkpt lat="43.90359" lon="7.39534">
        <ele>710.59997558594</ele>
        <time>2022-04-09T12:23:16.000Z</time>
      </trkpt>
      <trkpt lat="43.9036" lon="7.39535">
        <ele>710.59997558594</ele>
        <time>2022-04-09T12:23:22.000Z</time>
      </trkpt>
      <trkpt lat="43.90359" lon="7.39534">
        <ele>710.59997558594</ele>
        <time>2022-04-09T12:23:25.000Z</time>
      </trkpt>
      <trkpt lat="43.90358" lon="7.39534">
        <ele>710.59997558594</ele>
        <time>2022-04-09T12:23:26.000Z</time>
      </trkpt>
      <trkpt lat="43.90357" lon="7.39533">
        <ele>711.20001220703</ele>
        <time>2022-04-09T12:23:28.000Z</time>
      </trkpt>
      <trkpt lat="43.90354" lon="7.39533">
        <ele>712.40002441406</ele>
        <time>2022-04-09T12:23:32.000Z</time>
      </trkpt>
      <trkpt lat="43.90353" lon="7.39533">
        <ele>713</ele>
        <time>2022-04-09T12:23:34.000Z</time>
      </trkpt>
      <trkpt lat="43.90353" lon="7.39533">
        <ele>713.40002441406</ele>
        <time>2022-04-09T12:23:37.000Z</time>
      </trkpt>
      <trkpt lat="43.90353" lon="7.39534">
        <ele>713.40002441406</ele>
        <time>2022-04-09T12:23:44.000Z</time>
      </trkpt>
      <trkpt lat="43.90349" lon="7.39534">
        <ele>713.59997558594</ele>
        <time>2022-04-09T12:23:50.000Z</time>
      </trkpt>
      <trkpt lat="43.90346" lon="7.39533">
        <ele>714.59997558594</ele>
        <time>2022-04-09T12:23:56.000Z</time>
      </trkpt>
      <trkpt lat="43.90345" lon="7.39533">
        <ele>714.59997558594</ele>
        <time>2022-04-09T12:23:57.000Z</time>
      </trkpt>
      <trkpt lat="43.90345" lon="7.39532">
        <ele>715.40002441406</ele>
        <time>2022-04-09T12:24:04.000Z</time>
      </trkpt>
      <trkpt lat="43.90343" lon="7.39535">
        <ele>714.79998779297</ele>
        <time>2022-04-09T12:24:15.000Z</time>
      </trkpt>
      <trkpt lat="43.90342" lon="7.39537">
        <ele>715.40002441406</ele>
        <time>2022-04-09T12:24:28.000Z</time>
      </trkpt>
      <trkpt lat="43.90342" lon="7.39538">
        <ele>715.59997558594</ele>
        <time>2022-04-09T12:24:30.000Z</time>
      </trkpt>
      <trkpt lat="43.90342" lon="7.39539">
        <ele>715.59997558594</ele>
        <time>2022-04-09T12:24:36.000Z</time>
      </trkpt>
      <trkpt lat="43.90341" lon="7.39538">
        <ele>715.20001220703</ele>
        <time>2022-04-09T12:24:47.000Z</time>
      </trkpt>
      <trkpt lat="43.90339" lon="7.39536">
        <ele>715.79998779297</ele>
        <time>2022-04-09T12:24:52.000Z</time>
      </trkpt>
      <trkpt lat="43.90338" lon="7.39535">
        <ele>717</ele>
        <time>2022-04-09T12:24:56.000Z</time>
      </trkpt>
      <trkpt lat="43.90336" lon="7.39534">
        <ele>717.40002441406</ele>
        <time>2022-04-09T12:24:59.000Z</time>
      </trkpt>
      <trkpt lat="43.90336" lon="7.39533">
        <ele>718</ele>
        <time>2022-04-09T12:25:01.000Z</time>
      </trkpt>
      <trkpt lat="43.90334" lon="7.39533">
        <ele>718.59997558594</ele>
        <time>2022-04-09T12:25:03.000Z</time>
      </trkpt>
      <trkpt lat="43.90332" lon="7.39532">
        <ele>719.20001220703</ele>
        <time>2022-04-09T12:25:06.000Z</time>
      </trkpt>
      <trkpt lat="43.90332" lon="7.39532">
        <ele>719.40002441406</ele>
        <time>2022-04-09T12:25:07.000Z</time>
      </trkpt>
      <trkpt lat="43.90329" lon="7.39532">
        <ele>720.20001220703</ele>
        <time>2022-04-09T12:25:13.000Z</time>
      </trkpt>
      <trkpt lat="43.90328" lon="7.39532">
        <ele>720.40002441406</ele>
        <time>2022-04-09T12:25:14.000Z</time>
      </trkpt>
      <trkpt lat="43.90327" lon="7.39531">
        <ele>720.79998779297</ele>
        <time>2022-04-09T12:25:18.000Z</time>
      </trkpt>
      <trkpt lat="43.90326" lon="7.39531">
        <ele>721</ele>
        <time>2022-04-09T12:25:29.000Z</time>
      </trkpt>
      <trkpt lat="43.90324" lon="7.39531">
        <ele>720.59997558594</ele>
        <time>2022-04-09T12:25:36.000Z</time>
      </trkpt>
      <trkpt lat="43.90323" lon="7.3953">
        <ele>721</ele>
        <time>2022-04-09T12:25:42.000Z</time>
      </trkpt>
      <trkpt lat="43.90322" lon="7.39529">
        <ele>721.20001220703</ele>
        <time>2022-04-09T12:25:47.000Z</time>
      </trkpt>
      <trkpt lat="43.90322" lon="7.39529">
        <ele>721.40002441406</ele>
        <time>2022-04-09T12:25:50.000Z</time>
      </trkpt>
      <trkpt lat="43.90322" lon="7.39528">
        <ele>721.79998779297</ele>
        <time>2022-04-09T12:25:53.000Z</time>
      </trkpt>
      <trkpt lat="43.90318" lon="7.39527">
        <ele>722.20001220703</ele>
        <time>2022-04-09T12:26:04.000Z</time>
      </trkpt>
      <trkpt lat="43.9031" lon="7.39526">
        <ele>722.20001220703</ele>
        <time>2022-04-09T12:26:09.000Z</time>
      </trkpt>
      <trkpt lat="43.903" lon="7.39527">
        <ele>722.20001220703</ele>
        <time>2022-04-09T12:26:14.000Z</time>
      </trkpt>
      <trkpt lat="43.90294" lon="7.39523">
        <ele>722.59997558594</ele>
        <time>2022-04-09T12:26:18.000Z</time>
      </trkpt>
      <trkpt lat="43.90292" lon="7.39522">
        <ele>723</ele>
        <time>2022-04-09T12:26:19.000Z</time>
      </trkpt>
      <trkpt lat="43.9029" lon="7.39522">
        <ele>724</ele>
        <time>2022-04-09T12:26:21.000Z</time>
      </trkpt>
      <trkpt lat="43.90288" lon="7.39525">
        <ele>725</ele>
        <time>2022-04-09T12:26:23.000Z</time>
      </trkpt>
      <trkpt lat="43.90286" lon="7.39526">
        <ele>725.20001220703</ele>
        <time>2022-04-09T12:26:24.000Z</time>
      </trkpt>
      <trkpt lat="43.9028" lon="7.39527">
        <ele>725.59997558594</ele>
        <time>2022-04-09T12:26:27.000Z</time>
      </trkpt>
      <trkpt lat="43.90272" lon="7.39533">
        <ele>726</ele>
        <time>2022-04-09T12:26:32.000Z</time>
      </trkpt>
      <trkpt lat="43.90271" lon="7.39533">
        <ele>726</ele>
        <time>2022-04-09T12:26:33.000Z</time>
      </trkpt>
      <trkpt lat="43.90266" lon="7.39536">
        <ele>726.20001220703</ele>
        <time>2022-04-09T12:26:37.000Z</time>
      </trkpt>
      <trkpt lat="43.90264" lon="7.39536">
        <ele>726.40002441406</ele>
        <time>2022-04-09T12:26:38.000Z</time>
      </trkpt>
      <trkpt lat="43.9026" lon="7.39537">
        <ele>727.59997558594</ele>
        <time>2022-04-09T12:26:40.000Z</time>
      </trkpt>
      <trkpt lat="43.90259" lon="7.39537">
        <ele>729.20001220703</ele>
        <time>2022-04-09T12:26:42.000Z</time>
      </trkpt>
      <trkpt lat="43.90258" lon="7.39537">
        <ele>730.59997558594</ele>
        <time>2022-04-09T12:26:44.000Z</time>
      </trkpt>
      <trkpt lat="43.90256" lon="7.39538">
        <ele>731.79998779297</ele>
        <time>2022-04-09T12:26:48.000Z</time>
      </trkpt>
      <trkpt lat="43.90255" lon="7.39539">
        <ele>732</ele>
        <time>2022-04-09T12:26:49.000Z</time>
      </trkpt>
      <trkpt lat="43.90254" lon="7.3954">
        <ele>732.79998779297</ele>
        <time>2022-04-09T12:26:54.000Z</time>
      </trkpt>
      <trkpt lat="43.90253" lon="7.3954">
        <ele>732.79998779297</ele>
        <time>2022-04-09T12:26:55.000Z</time>
      </trkpt>
      <trkpt lat="43.90244" lon="7.39544">
        <ele>733.59997558594</ele>
        <time>2022-04-09T12:27:00.000Z</time>
      </trkpt>
      <trkpt lat="43.90242" lon="7.39545">
        <ele>734</ele>
        <time>2022-04-09T12:27:01.000Z</time>
      </trkpt>
      <trkpt lat="43.90239" lon="7.39548">
        <ele>735.20001220703</ele>
        <time>2022-04-09T12:27:03.000Z</time>
      </trkpt>
      <trkpt lat="43.90233" lon="7.3955">
        <ele>736.59997558594</ele>
        <time>2022-04-09T12:27:06.000Z</time>
      </trkpt>
      <trkpt lat="43.90229" lon="7.39552">
        <ele>737.79998779297</ele>
        <time>2022-04-09T12:27:09.000Z</time>
      </trkpt>
      <trkpt lat="43.90229" lon="7.39553">
        <ele>738.59997558594</ele>
        <time>2022-04-09T12:27:11.000Z</time>
      </trkpt>
      <trkpt lat="43.90228" lon="7.39553">
        <ele>739</ele>
        <time>2022-04-09T12:27:12.000Z</time>
      </trkpt>
      <trkpt lat="43.90226" lon="7.39554">
        <ele>740.20001220703</ele>
        <time>2022-04-09T12:27:15.000Z</time>
      </trkpt>
      <trkpt lat="43.90225" lon="7.39555">
        <ele>740.59997558594</ele>
        <time>2022-04-09T12:27:17.000Z</time>
      </trkpt>
      <trkpt lat="43.90219" lon="7.3956">
        <ele>741.20001220703</ele>
        <time>2022-04-09T12:27:21.000Z</time>
      </trkpt>
      <trkpt lat="43.90217" lon="7.39561">
        <ele>741.40002441406</ele>
        <time>2022-04-09T12:27:22.000Z</time>
      </trkpt>
      <trkpt lat="43.90213" lon="7.39564">
        <ele>742.40002441406</ele>
        <time>2022-04-09T12:27:25.000Z</time>
      </trkpt>
      <trkpt lat="43.90209" lon="7.39567">
        <ele>742.79998779297</ele>
        <time>2022-04-09T12:27:27.000Z</time>
      </trkpt>
      <trkpt lat="43.90196" lon="7.39573">
        <ele>742.79998779297</ele>
        <time>2022-04-09T12:27:33.000Z</time>
      </trkpt>
      <trkpt lat="43.90189" lon="7.39577">
        <ele>743.59997558594</ele>
        <time>2022-04-09T12:27:37.000Z</time>
      </trkpt>
      <trkpt lat="43.90186" lon="7.3958">
        <ele>744</ele>
        <time>2022-04-09T12:27:39.000Z</time>
      </trkpt>
      <trkpt lat="43.90182" lon="7.39583">
        <ele>744.79998779297</ele>
        <time>2022-04-09T12:27:41.000Z</time>
      </trkpt>
      <trkpt lat="43.90177" lon="7.39589">
        <ele>745.20001220703</ele>
        <time>2022-04-09T12:27:44.000Z</time>
      </trkpt>
      <trkpt lat="43.90167" lon="7.39596">
        <ele>745.79998779297</ele>
        <time>2022-04-09T12:27:49.000Z</time>
      </trkpt>
      <trkpt lat="43.90165" lon="7.39598">
        <ele>746.20001220703</ele>
        <time>2022-04-09T12:27:50.000Z</time>
      </trkpt>
      <trkpt lat="43.90162" lon="7.39601">
        <ele>747</ele>
        <time>2022-04-09T12:27:52.000Z</time>
      </trkpt>
      <trkpt lat="43.90151" lon="7.39605">
        <ele>747.79998779297</ele>
        <time>2022-04-09T12:27:57.000Z</time>
      </trkpt>
      <trkpt lat="43.90136" lon="7.39603">
        <ele>747.20001220703</ele>
        <time>2022-04-09T12:28:01.000Z</time>
      </trkpt>
      <trkpt lat="43.90132" lon="7.39603">
        <ele>746.79998779297</ele>
        <time>2022-04-09T12:28:02.000Z</time>
      </trkpt>
      <trkpt lat="43.90123" lon="7.39606">
        <ele>745.59997558594</ele>
        <time>2022-04-09T12:28:04.000Z</time>
      </trkpt>
      <trkpt lat="43.90118" lon="7.39608">
        <ele>744.79998779297</ele>
        <time>2022-04-09T12:28:05.000Z</time>
      </trkpt>
      <trkpt lat="43.90113" lon="7.39609">
        <ele>744</ele>
        <time>2022-04-09T12:28:06.000Z</time>
      </trkpt>
      <trkpt lat="43.90103" lon="7.39609">
        <ele>742.20001220703</ele>
        <time>2022-04-09T12:28:08.000Z</time>
      </trkpt>
      <trkpt lat="43.90093" lon="7.39608">
        <ele>740.20001220703</ele>
        <time>2022-04-09T12:28:10.000Z</time>
      </trkpt>
      <trkpt lat="43.90088" lon="7.39608">
        <ele>739</ele>
        <time>2022-04-09T12:28:11.000Z</time>
      </trkpt>
      <trkpt lat="43.90084" lon="7.39607">
        <ele>738</ele>
        <time>2022-04-09T12:28:12.000Z</time>
      </trkpt>
      <trkpt lat="43.90078" lon="7.39604">
        <ele>737</ele>
        <time>2022-04-09T12:28:13.000Z</time>
      </trkpt>
      <trkpt lat="43.90074" lon="7.39601">
        <ele>735.79998779297</ele>
        <time>2022-04-09T12:28:14.000Z</time>
      </trkpt>
      <trkpt lat="43.90069" lon="7.39598">
        <ele>734.59997558594</ele>
        <time>2022-04-09T12:28:15.000Z</time>
      </trkpt>
      <trkpt lat="43.90064" lon="7.39596">
        <ele>733.40002441406</ele>
        <time>2022-04-09T12:28:16.000Z</time>
      </trkpt>
      <trkpt lat="43.9006" lon="7.39594">
        <ele>731.40002441406</ele>
        <time>2022-04-09T12:28:17.000Z</time>
      </trkpt>
      <trkpt lat="43.90056" lon="7.39591">
        <ele>730.40002441406</ele>
        <time>2022-04-09T12:28:18.000Z</time>
      </trkpt>
      <trkpt lat="43.90053" lon="7.3959">
        <ele>729.20001220703</ele>
        <time>2022-04-09T12:28:19.000Z</time>
      </trkpt>
      <trkpt lat="43.90049" lon="7.39592">
        <ele>727.79998779297</ele>
        <time>2022-04-09T12:28:21.000Z</time>
      </trkpt>
      <trkpt lat="43.90045" lon="7.39597">
        <ele>726.59997558594</ele>
        <time>2022-04-09T12:28:23.000Z</time>
      </trkpt>
      <trkpt lat="43.90041" lon="7.396">
        <ele>726</ele>
        <time>2022-04-09T12:28:24.000Z</time>
      </trkpt>
      <trkpt lat="43.90036" lon="7.39601">
        <ele>725.59997558594</ele>
        <time>2022-04-09T12:28:25.000Z</time>
      </trkpt>
      <trkpt lat="43.90027" lon="7.39607">
        <ele>723.59997558594</ele>
        <time>2022-04-09T12:28:28.000Z</time>
      </trkpt>
      <trkpt lat="43.90021" lon="7.39609">
        <ele>722</ele>
        <time>2022-04-09T12:28:30.000Z</time>
      </trkpt>
      <trkpt lat="43.9001" lon="7.39616">
        <ele>721.20001220703</ele>
        <time>2022-04-09T12:28:34.000Z</time>
      </trkpt>
      <trkpt lat="43.90002" lon="7.39622">
        <ele>721</ele>
        <time>2022-04-09T12:28:37.000Z</time>
      </trkpt>
      <trkpt lat="43.89999" lon="7.39624">
        <ele>720.59997558594</ele>
        <time>2022-04-09T12:28:38.000Z</time>
      </trkpt>
      <trkpt lat="43.89997" lon="7.39627">
        <ele>720</ele>
        <time>2022-04-09T12:28:39.000Z</time>
      </trkpt>
      <trkpt lat="43.89991" lon="7.39632">
        <ele>718.40002441406</ele>
        <time>2022-04-09T12:28:41.000Z</time>
      </trkpt>
      <trkpt lat="43.89984" lon="7.39638">
        <ele>716.40002441406</ele>
        <time>2022-04-09T12:28:43.000Z</time>
      </trkpt>
      <trkpt lat="43.89981" lon="7.3964">
        <ele>715.40002441406</ele>
        <time>2022-04-09T12:28:44.000Z</time>
      </trkpt>
      <trkpt lat="43.89977" lon="7.39641">
        <ele>714.40002441406</ele>
        <time>2022-04-09T12:28:45.000Z</time>
      </trkpt>
      <trkpt lat="43.89969" lon="7.39642">
        <ele>712.40002441406</ele>
        <time>2022-04-09T12:28:47.000Z</time>
      </trkpt>
      <trkpt lat="43.89962" lon="7.39643">
        <ele>711</ele>
        <time>2022-04-09T12:28:49.000Z</time>
      </trkpt>
      <trkpt lat="43.89959" lon="7.39645">
        <ele>710.40002441406</ele>
        <time>2022-04-09T12:28:50.000Z</time>
      </trkpt>
      <trkpt lat="43.89957" lon="7.39647">
        <ele>709.79998779297</ele>
        <time>2022-04-09T12:28:51.000Z</time>
      </trkpt>
      <trkpt lat="43.89951" lon="7.39652">
        <ele>709</ele>
        <time>2022-04-09T12:28:53.000Z</time>
      </trkpt>
      <trkpt lat="43.89948" lon="7.39655">
        <ele>708.20001220703</ele>
        <time>2022-04-09T12:28:54.000Z</time>
      </trkpt>
      <trkpt lat="43.89935" lon="7.39666">
        <ele>707.20001220703</ele>
        <time>2022-04-09T12:28:58.000Z</time>
      </trkpt>
      <trkpt lat="43.89932" lon="7.39668">
        <ele>706.79998779297</ele>
        <time>2022-04-09T12:28:59.000Z</time>
      </trkpt>
      <trkpt lat="43.89929" lon="7.3967">
        <ele>706.20001220703</ele>
        <time>2022-04-09T12:29:00.000Z</time>
      </trkpt>
      <trkpt lat="43.89923" lon="7.39672">
        <ele>704.59997558594</ele>
        <time>2022-04-09T12:29:02.000Z</time>
      </trkpt>
      <trkpt lat="43.8992" lon="7.39673">
        <ele>704</ele>
        <time>2022-04-09T12:29:03.000Z</time>
      </trkpt>
      <trkpt lat="43.89917" lon="7.39673">
        <ele>703.40002441406</ele>
        <time>2022-04-09T12:29:04.000Z</time>
      </trkpt>
      <trkpt lat="43.89912" lon="7.39671">
        <ele>702.40002441406</ele>
        <time>2022-04-09T12:29:06.000Z</time>
      </trkpt>
      <trkpt lat="43.89909" lon="7.39668">
        <ele>701.59997558594</ele>
        <time>2022-04-09T12:29:07.000Z</time>
      </trkpt>
      <trkpt lat="43.89905" lon="7.39665">
        <ele>700.79998779297</ele>
        <time>2022-04-09T12:29:08.000Z</time>
      </trkpt>
      <trkpt lat="43.89899" lon="7.39661">
        <ele>698.79998779297</ele>
        <time>2022-04-09T12:29:10.000Z</time>
      </trkpt>
      <trkpt lat="43.89897" lon="7.39659">
        <ele>697.79998779297</ele>
        <time>2022-04-09T12:29:11.000Z</time>
      </trkpt>
      <trkpt lat="43.89896" lon="7.39658">
        <ele>697.20001220703</ele>
        <time>2022-04-09T12:29:12.000Z</time>
      </trkpt>
      <trkpt lat="43.89891" lon="7.39656">
        <ele>695.59997558594</ele>
        <time>2022-04-09T12:29:14.000Z</time>
      </trkpt>
      <trkpt lat="43.89886" lon="7.39654">
        <ele>694</ele>
        <time>2022-04-09T12:29:16.000Z</time>
      </trkpt>
      <trkpt lat="43.89882" lon="7.3965">
        <ele>691.79998779297</ele>
        <time>2022-04-09T12:29:18.000Z</time>
      </trkpt>
      <trkpt lat="43.89879" lon="7.39648">
        <ele>690.79998779297</ele>
        <time>2022-04-09T12:29:19.000Z</time>
      </trkpt>
      <trkpt lat="43.89876" lon="7.39645">
        <ele>689.79998779297</ele>
        <time>2022-04-09T12:29:20.000Z</time>
      </trkpt>
      <trkpt lat="43.89874" lon="7.39643">
        <ele>688.79998779297</ele>
        <time>2022-04-09T12:29:21.000Z</time>
      </trkpt>
      <trkpt lat="43.89871" lon="7.39641">
        <ele>687.79998779297</ele>
        <time>2022-04-09T12:29:22.000Z</time>
      </trkpt>
      <trkpt lat="43.89865" lon="7.39637">
        <ele>686.40002441406</ele>
        <time>2022-04-09T12:29:24.000Z</time>
      </trkpt>
      <trkpt lat="43.89863" lon="7.39634">
        <ele>685.59997558594</ele>
        <time>2022-04-09T12:29:25.000Z</time>
      </trkpt>
      <trkpt lat="43.89861" lon="7.3963">
        <ele>684.59997558594</ele>
        <time>2022-04-09T12:29:26.000Z</time>
      </trkpt>
      <trkpt lat="43.89857" lon="7.39628">
        <ele>683.40002441406</ele>
        <time>2022-04-09T12:29:28.000Z</time>
      </trkpt>
      <trkpt lat="43.89855" lon="7.39629">
        <ele>681.79998779297</ele>
        <time>2022-04-09T12:29:29.000Z</time>
      </trkpt>
      <trkpt lat="43.89853" lon="7.39632">
        <ele>680.59997558594</ele>
        <time>2022-04-09T12:29:31.000Z</time>
      </trkpt>
      <trkpt lat="43.89852" lon="7.39637">
        <ele>679.79998779297</ele>
        <time>2022-04-09T12:29:33.000Z</time>
      </trkpt>
      <trkpt lat="43.89849" lon="7.3965">
        <ele>682</ele>
        <time>2022-04-09T12:29:38.000Z</time>
      </trkpt>
      <trkpt lat="43.89849" lon="7.39652">
        <ele>682.40002441406</ele>
        <time>2022-04-09T12:29:39.000Z</time>
      </trkpt>
      <trkpt lat="43.89847" lon="7.39666">
        <ele>682.59997558594</ele>
        <time>2022-04-09T12:29:42.000Z</time>
      </trkpt>
      <trkpt lat="43.89844" lon="7.39689">
        <ele>680.59997558594</ele>
        <time>2022-04-09T12:29:46.000Z</time>
      </trkpt>
      <trkpt lat="43.89844" lon="7.39698">
        <ele>679.20001220703</ele>
        <time>2022-04-09T12:29:48.000Z</time>
      </trkpt>
      <trkpt lat="43.89843" lon="7.39707">
        <ele>678.59997558594</ele>
        <time>2022-04-09T12:29:50.000Z</time>
      </trkpt>
      <trkpt lat="43.89844" lon="7.39711">
        <ele>678.20001220703</ele>
        <time>2022-04-09T12:29:51.000Z</time>
      </trkpt>
      <trkpt lat="43.89845" lon="7.39715">
        <ele>677.20001220703</ele>
        <time>2022-04-09T12:29:52.000Z</time>
      </trkpt>
      <trkpt lat="43.89847" lon="7.39717">
        <ele>676.40002441406</ele>
        <time>2022-04-09T12:29:53.000Z</time>
      </trkpt>
      <trkpt lat="43.8985" lon="7.39719">
        <ele>675.40002441406</ele>
        <time>2022-04-09T12:29:54.000Z</time>
      </trkpt>
      <trkpt lat="43.89855" lon="7.39725">
        <ele>673.59997558594</ele>
        <time>2022-04-09T12:29:56.000Z</time>
      </trkpt>
      <trkpt lat="43.89856" lon="7.39728">
        <ele>673.40002441406</ele>
        <time>2022-04-09T12:29:57.000Z</time>
      </trkpt>
      <trkpt lat="43.89858" lon="7.39736">
        <ele>672.20001220703</ele>
        <time>2022-04-09T12:29:59.000Z</time>
      </trkpt>
      <trkpt lat="43.89858" lon="7.39742">
        <ele>672</ele>
        <time>2022-04-09T12:30:01.000Z</time>
      </trkpt>
      <trkpt lat="43.89856" lon="7.39747">
        <ele>672.20001220703</ele>
        <time>2022-04-09T12:30:03.000Z</time>
      </trkpt>
      <trkpt lat="43.8985" lon="7.39751">
        <ele>673.20001220703</ele>
        <time>2022-04-09T12:30:06.000Z</time>
      </trkpt>
      <trkpt lat="43.89848" lon="7.39751">
        <ele>673.40002441406</ele>
        <time>2022-04-09T12:30:07.000Z</time>
      </trkpt>
      <trkpt lat="43.89841" lon="7.3975">
        <ele>673.79998779297</ele>
        <time>2022-04-09T12:30:10.000Z</time>
      </trkpt>
      <trkpt lat="43.89837" lon="7.39751">
        <ele>674.79998779297</ele>
        <time>2022-04-09T12:30:13.000Z</time>
      </trkpt>
      <trkpt lat="43.89833" lon="7.39751">
        <ele>676</ele>
        <time>2022-04-09T12:30:15.000Z</time>
      </trkpt>
      <trkpt lat="43.89828" lon="7.39751">
        <ele>677.40002441406</ele>
        <time>2022-04-09T12:30:18.000Z</time>
      </trkpt>
      <trkpt lat="43.89826" lon="7.39751">
        <ele>677.59997558594</ele>
        <time>2022-04-09T12:30:19.000Z</time>
      </trkpt>
      <trkpt lat="43.8982" lon="7.39748">
        <ele>678.59997558594</ele>
        <time>2022-04-09T12:30:22.000Z</time>
      </trkpt>
      <trkpt lat="43.89818" lon="7.39749">
        <ele>678.59997558594</ele>
        <time>2022-04-09T12:30:23.000Z</time>
      </trkpt>
      <trkpt lat="43.89806" lon="7.39751">
        <ele>679.20001220703</ele>
        <time>2022-04-09T12:30:27.000Z</time>
      </trkpt>
      <trkpt lat="43.89802" lon="7.39751">
        <ele>679</ele>
        <time>2022-04-09T12:30:28.000Z</time>
      </trkpt>
      <trkpt lat="43.89796" lon="7.3975">
        <ele>678.40002441406</ele>
        <time>2022-04-09T12:30:30.000Z</time>
      </trkpt>
      <trkpt lat="43.89783" lon="7.39754">
        <ele>677.79998779297</ele>
        <time>2022-04-09T12:30:36.000Z</time>
      </trkpt>
      <trkpt lat="43.89772" lon="7.39755">
        <ele>678.59997558594</ele>
        <time>2022-04-09T12:30:41.000Z</time>
      </trkpt>
      <trkpt lat="43.89759" lon="7.39756">
        <ele>679.59997558594</ele>
        <time>2022-04-09T12:30:47.000Z</time>
      </trkpt>
      <trkpt lat="43.89755" lon="7.39758">
        <ele>679.59997558594</ele>
        <time>2022-04-09T12:30:48.000Z</time>
      </trkpt>
      <trkpt lat="43.89749" lon="7.39762">
        <ele>679.20001220703</ele>
        <time>2022-04-09T12:30:51.000Z</time>
      </trkpt>
      <trkpt lat="43.89746" lon="7.39766">
        <ele>678.79998779297</ele>
        <time>2022-04-09T12:30:53.000Z</time>
      </trkpt>
      <trkpt lat="43.89745" lon="7.39767">
        <ele>678.40002441406</ele>
        <time>2022-04-09T12:30:54.000Z</time>
      </trkpt>
      <trkpt lat="43.89744" lon="7.39768">
        <ele>678.20001220703</ele>
        <time>2022-04-09T12:30:55.000Z</time>
      </trkpt>
      <trkpt lat="43.89742" lon="7.39773">
        <ele>677.79998779297</ele>
        <time>2022-04-09T12:30:57.000Z</time>
      </trkpt>
      <trkpt lat="43.89742" lon="7.39777">
        <ele>677.40002441406</ele>
        <time>2022-04-09T12:30:58.000Z</time>
      </trkpt>
      <trkpt lat="43.8974" lon="7.39784">
        <ele>676.40002441406</ele>
        <time>2022-04-09T12:31:01.000Z</time>
      </trkpt>
      <trkpt lat="43.8974" lon="7.39786">
        <ele>676</ele>
        <time>2022-04-09T12:31:02.000Z</time>
      </trkpt>
      <trkpt lat="43.89737" lon="7.39796">
        <ele>674.79998779297</ele>
        <time>2022-04-09T12:31:05.000Z</time>
      </trkpt>
      <trkpt lat="43.89734" lon="7.39802">
        <ele>673.20001220703</ele>
        <time>2022-04-09T12:31:08.000Z</time>
      </trkpt>
      <trkpt lat="43.89732" lon="7.39802">
        <ele>672.40002441406</ele>
        <time>2022-04-09T12:31:09.000Z</time>
      </trkpt>
      <trkpt lat="43.89729" lon="7.39803">
        <ele>671.59997558594</ele>
        <time>2022-04-09T12:31:10.000Z</time>
      </trkpt>
      <trkpt lat="43.89724" lon="7.39802">
        <ele>670.40002441406</ele>
        <time>2022-04-09T12:31:12.000Z</time>
      </trkpt>
      <trkpt lat="43.89724" lon="7.39802">
        <ele>668.79998779297</ele>
        <time>2022-04-09T12:31:14.000Z</time>
      </trkpt>
      <trkpt lat="43.89723" lon="7.39802">
        <ele>667.79998779297</ele>
        <time>2022-04-09T12:31:17.000Z</time>
      </trkpt>
      <trkpt lat="43.89722" lon="7.39805">
        <ele>667.79998779297</ele>
        <time>2022-04-09T12:31:22.000Z</time>
      </trkpt>
      <trkpt lat="43.89723" lon="7.3981">
        <ele>667.59997558594</ele>
        <time>2022-04-09T12:31:28.000Z</time>
      </trkpt>
      <trkpt lat="43.89726" lon="7.39814">
        <ele>667.59997558594</ele>
        <time>2022-04-09T12:31:35.000Z</time>
      </trkpt>
      <trkpt lat="43.89737" lon="7.39818">
        <ele>666.59997558594</ele>
        <time>2022-04-09T12:31:40.000Z</time>
      </trkpt>
      <trkpt lat="43.89743" lon="7.39821">
        <ele>665.20001220703</ele>
        <time>2022-04-09T12:31:42.000Z</time>
      </trkpt>
      <trkpt lat="43.89745" lon="7.39826">
        <ele>664.20001220703</ele>
        <time>2022-04-09T12:31:43.000Z</time>
      </trkpt>
      <trkpt lat="43.89746" lon="7.39829">
        <ele>663.59997558594</ele>
        <time>2022-04-09T12:31:44.000Z</time>
      </trkpt>
      <trkpt lat="43.89745" lon="7.39832">
        <ele>663</ele>
        <time>2022-04-09T12:31:45.000Z</time>
      </trkpt>
      <trkpt lat="43.89745" lon="7.39841">
        <ele>663</ele>
        <time>2022-04-09T12:31:48.000Z</time>
      </trkpt>
      <trkpt lat="43.89745" lon="7.39843">
        <ele>663.59997558594</ele>
        <time>2022-04-09T12:31:49.000Z</time>
      </trkpt>
      <trkpt lat="43.89747" lon="7.39846">
        <ele>664.79998779297</ele>
        <time>2022-04-09T12:31:51.000Z</time>
      </trkpt>
      <trkpt lat="43.8975" lon="7.39848">
        <ele>665.20001220703</ele>
        <time>2022-04-09T12:31:53.000Z</time>
      </trkpt>
      <trkpt lat="43.89751" lon="7.3985">
        <ele>665</ele>
        <time>2022-04-09T12:31:54.000Z</time>
      </trkpt>
      <trkpt lat="43.89755" lon="7.39856">
        <ele>664.59997558594</ele>
        <time>2022-04-09T12:31:57.000Z</time>
      </trkpt>
      <trkpt lat="43.89753" lon="7.39857">
        <ele>664.59997558594</ele>
        <time>2022-04-09T12:31:58.000Z</time>
      </trkpt>
      <trkpt lat="43.8975" lon="7.39858">
        <ele>664.40002441406</ele>
        <time>2022-04-09T12:32:04.000Z</time>
      </trkpt>
      <trkpt lat="43.89747" lon="7.3986">
        <ele>665.20001220703</ele>
        <time>2022-04-09T12:32:10.000Z</time>
      </trkpt>
      <trkpt lat="43.89744" lon="7.39863">
        <ele>665.79998779297</ele>
        <time>2022-04-09T12:32:14.000Z</time>
      </trkpt>
      <trkpt lat="43.89743" lon="7.39865">
        <ele>666</ele>
        <time>2022-04-09T12:32:18.000Z</time>
      </trkpt>
      <trkpt lat="43.89742" lon="7.39867">
        <ele>665.40002441406</ele>
        <time>2022-04-09T12:32:24.000Z</time>
      </trkpt>
      <trkpt lat="43.89741" lon="7.39868">
        <ele>665.40002441406</ele>
        <time>2022-04-09T12:32:26.000Z</time>
      </trkpt>
      <trkpt lat="43.89736" lon="7.39879">
        <ele>665</ele>
        <time>2022-04-09T12:32:31.000Z</time>
      </trkpt>
      <trkpt lat="43.89734" lon="7.39881">
        <ele>664.79998779297</ele>
        <time>2022-04-09T12:32:32.000Z</time>
      </trkpt>
      <trkpt lat="43.89731" lon="7.39889">
        <ele>663.79998779297</ele>
        <time>2022-04-09T12:32:34.000Z</time>
      </trkpt>
      <trkpt lat="43.8973" lon="7.39897">
        <ele>663</ele>
        <time>2022-04-09T12:32:36.000Z</time>
      </trkpt>
      <trkpt lat="43.89728" lon="7.39901">
        <ele>663</ele>
        <time>2022-04-09T12:32:37.000Z</time>
      </trkpt>
      <trkpt lat="43.89726" lon="7.39904">
        <ele>662.59997558594</ele>
        <time>2022-04-09T12:32:38.000Z</time>
      </trkpt>
      <trkpt lat="43.89724" lon="7.39906">
        <ele>662.40002441406</ele>
        <time>2022-04-09T12:32:39.000Z</time>
      </trkpt>
      <trkpt lat="43.89721" lon="7.3991">
        <ele>661.20001220703</ele>
        <time>2022-04-09T12:32:42.000Z</time>
      </trkpt>
      <trkpt lat="43.8972" lon="7.39911">
        <ele>661.20001220703</ele>
        <time>2022-04-09T12:32:43.000Z</time>
      </trkpt>
      <trkpt lat="43.89715" lon="7.3992">
        <ele>660</ele>
        <time>2022-04-09T12:32:48.000Z</time>
      </trkpt>
      <trkpt lat="43.89714" lon="7.39921">
        <ele>659.59997558594</ele>
        <time>2022-04-09T12:32:49.000Z</time>
      </trkpt>
      <trkpt lat="43.89712" lon="7.39924">
        <ele>658.79998779297</ele>
        <time>2022-04-09T12:32:51.000Z</time>
      </trkpt>
      <trkpt lat="43.89707" lon="7.3993">
        <ele>658.59997558594</ele>
        <time>2022-04-09T12:32:54.000Z</time>
      </trkpt>
      <trkpt lat="43.89698" lon="7.39939">
        <ele>657.59997558594</ele>
        <time>2022-04-09T12:32:58.000Z</time>
      </trkpt>
      <trkpt lat="43.89696" lon="7.39941">
        <ele>657.20001220703</ele>
        <time>2022-04-09T12:32:59.000Z</time>
      </trkpt>
      <trkpt lat="43.89694" lon="7.39944">
        <ele>657</ele>
        <time>2022-04-09T12:33:00.000Z</time>
      </trkpt>
      <trkpt lat="43.8969" lon="7.39952">
        <ele>656.40002441406</ele>
        <time>2022-04-09T12:33:02.000Z</time>
      </trkpt>
      <trkpt lat="43.89688" lon="7.39955">
        <ele>656.20001220703</ele>
        <time>2022-04-09T12:33:03.000Z</time>
      </trkpt>
      <trkpt lat="43.89685" lon="7.39962">
        <ele>655.59997558594</ele>
        <time>2022-04-09T12:33:06.000Z</time>
      </trkpt>
      <trkpt lat="43.89682" lon="7.39968">
        <ele>656</ele>
        <time>2022-04-09T12:33:08.000Z</time>
      </trkpt>
      <trkpt lat="43.89679" lon="7.39974">
        <ele>656.40002441406</ele>
        <time>2022-04-09T12:33:10.000Z</time>
      </trkpt>
      <trkpt lat="43.89678" lon="7.39976">
        <ele>656.59997558594</ele>
        <time>2022-04-09T12:33:11.000Z</time>
      </trkpt>
      <trkpt lat="43.89675" lon="7.39987">
        <ele>657.40002441406</ele>
        <time>2022-04-09T12:33:14.000Z</time>
      </trkpt>
      <trkpt lat="43.89674" lon="7.3999">
        <ele>657.79998779297</ele>
        <time>2022-04-09T12:33:15.000Z</time>
      </trkpt>
      <trkpt lat="43.89672" lon="7.39995">
        <ele>659</ele>
        <time>2022-04-09T12:33:17.000Z</time>
      </trkpt>
      <trkpt lat="43.89672" lon="7.39998">
        <ele>659.59997558594</ele>
        <time>2022-04-09T12:33:18.000Z</time>
      </trkpt>
      <trkpt lat="43.89671" lon="7.40001">
        <ele>660.20001220703</ele>
        <time>2022-04-09T12:33:19.000Z</time>
      </trkpt>
      <trkpt lat="43.89669" lon="7.40009">
        <ele>661.40002441406</ele>
        <time>2022-04-09T12:33:22.000Z</time>
      </trkpt>
      <trkpt lat="43.89669" lon="7.40011">
        <ele>661.40002441406</ele>
        <time>2022-04-09T12:33:23.000Z</time>
      </trkpt>
      <trkpt lat="43.8967" lon="7.40014">
        <ele>662.20001220703</ele>
        <time>2022-04-09T12:33:28.000Z</time>
      </trkpt>
      <trkpt lat="43.8967" lon="7.40014">
        <ele>662.40002441406</ele>
        <time>2022-04-09T12:33:29.000Z</time>
      </trkpt>
      <trkpt lat="43.89671" lon="7.40016">
        <ele>662.40002441406</ele>
        <time>2022-04-09T12:33:31.000Z</time>
      </trkpt>
      <trkpt lat="43.89672" lon="7.40018">
        <ele>662.20001220703</ele>
        <time>2022-04-09T12:33:33.000Z</time>
      </trkpt>
      <trkpt lat="43.89673" lon="7.4002">
        <ele>662</ele>
        <time>2022-04-09T12:33:35.000Z</time>
      </trkpt>
      <trkpt lat="43.89673" lon="7.40023">
        <ele>661.20001220703</ele>
        <time>2022-04-09T12:33:38.000Z</time>
      </trkpt>
      <trkpt lat="43.89676" lon="7.40026">
        <ele>660.40002441406</ele>
        <time>2022-04-09T12:33:44.000Z</time>
      </trkpt>
      <trkpt lat="43.89676" lon="7.40027">
        <ele>660.20001220703</ele>
        <time>2022-04-09T12:33:45.000Z</time>
      </trkpt>
      <trkpt lat="43.8968" lon="7.40032">
        <ele>659.59997558594</ele>
        <time>2022-04-09T12:33:52.000Z</time>
      </trkpt>
      <trkpt lat="43.89688" lon="7.40047">
        <ele>659.79998779297</ele>
        <time>2022-04-09T12:33:57.000Z</time>
      </trkpt>
      <trkpt lat="43.89689" lon="7.4005">
        <ele>660.40002441406</ele>
        <time>2022-04-09T12:34:00.000Z</time>
      </trkpt>
      <trkpt lat="43.8969" lon="7.40051">
        <ele>661.20001220703</ele>
        <time>2022-04-09T12:34:04.000Z</time>
      </trkpt>
      <trkpt lat="43.8969" lon="7.40052">
        <ele>661.20001220703</ele>
        <time>2022-04-09T12:34:11.000Z</time>
      </trkpt>
      <trkpt lat="43.8969" lon="7.40056">
        <ele>661.59997558594</ele>
        <time>2022-04-09T12:34:17.000Z</time>
      </trkpt>
      <trkpt lat="43.89689" lon="7.40061">
        <ele>662.20001220703</ele>
        <time>2022-04-09T12:34:23.000Z</time>
      </trkpt>
      <trkpt lat="43.89689" lon="7.40062">
        <ele>662.59997558594</ele>
        <time>2022-04-09T12:34:25.000Z</time>
      </trkpt>
      <trkpt lat="43.89688" lon="7.40065">
        <ele>663.40002441406</ele>
        <time>2022-04-09T12:34:29.000Z</time>
      </trkpt>
      <trkpt lat="43.89688" lon="7.40067">
        <ele>663.79998779297</ele>
        <time>2022-04-09T12:34:31.000Z</time>
      </trkpt>
      <trkpt lat="43.89686" lon="7.40072">
        <ele>664.40002441406</ele>
        <time>2022-04-09T12:34:36.000Z</time>
      </trkpt>
      <trkpt lat="43.89685" lon="7.40072">
        <ele>664.59997558594</ele>
        <time>2022-04-09T12:34:38.000Z</time>
      </trkpt>
      <trkpt lat="43.89683" lon="7.40077">
        <ele>665.20001220703</ele>
        <time>2022-04-09T12:34:44.000Z</time>
      </trkpt>
      <trkpt lat="43.89681" lon="7.40079">
        <ele>665.40002441406</ele>
        <time>2022-04-09T12:34:47.000Z</time>
      </trkpt>
      <trkpt lat="43.8968" lon="7.40082">
        <ele>665.79998779297</ele>
        <time>2022-04-09T12:34:51.000Z</time>
      </trkpt>
      <trkpt lat="43.89681" lon="7.40084">
        <ele>665.79998779297</ele>
        <time>2022-04-09T12:34:58.000Z</time>
      </trkpt>
      <trkpt lat="43.89682" lon="7.40085">
        <ele>665.79998779297</ele>
        <time>2022-04-09T12:35:17.000Z</time>
      </trkpt>
      <trkpt lat="43.89682" lon="7.40085">
        <ele>665.79998779297</ele>
        <time>2022-04-09T12:35:34.000Z</time>
      </trkpt>
      <trkpt lat="43.89682" lon="7.40086">
        <ele>666.40002441406</ele>
        <time>2022-04-09T12:35:53.000Z</time>
      </trkpt>
      <trkpt lat="43.89681" lon="7.40088">
        <ele>666.40002441406</ele>
        <time>2022-04-09T12:35:56.000Z</time>
      </trkpt>
      <trkpt lat="43.8968" lon="7.4009">
        <ele>666.40002441406</ele>
        <time>2022-04-09T12:35:58.000Z</time>
      </trkpt>
      <trkpt lat="43.8968" lon="7.40091">
        <ele>665.79998779297</ele>
        <time>2022-04-09T12:36:03.000Z</time>
      </trkpt>
      <trkpt lat="43.89678" lon="7.401">
        <ele>665.59997558594</ele>
        <time>2022-04-09T12:36:08.000Z</time>
      </trkpt>
      <trkpt lat="43.89671" lon="7.40114">
        <ele>665.59997558594</ele>
        <time>2022-04-09T12:36:13.000Z</time>
      </trkpt>
      <trkpt lat="43.89667" lon="7.40123">
        <ele>665.79998779297</ele>
        <time>2022-04-09T12:36:17.000Z</time>
      </trkpt>
      <trkpt lat="43.89666" lon="7.40127">
        <ele>666.79998779297</ele>
        <time>2022-04-09T12:36:20.000Z</time>
      </trkpt>
      <trkpt lat="43.89664" lon="7.40129">
        <ele>667.59997558594</ele>
        <time>2022-04-09T12:36:22.000Z</time>
      </trkpt>
      <trkpt lat="43.89663" lon="7.40129">
        <ele>667.79998779297</ele>
        <time>2022-04-09T12:36:24.000Z</time>
      </trkpt>
      <trkpt lat="43.89662" lon="7.40129">
        <ele>668.20001220703</ele>
        <time>2022-04-09T12:36:27.000Z</time>
      </trkpt>
      <trkpt lat="43.89655" lon="7.40134">
        <ele>667.59997558594</ele>
        <time>2022-04-09T12:36:33.000Z</time>
      </trkpt>
      <trkpt lat="43.8965" lon="7.40136">
        <ele>666.79998779297</ele>
        <time>2022-04-09T12:36:35.000Z</time>
      </trkpt>
      <trkpt lat="43.89649" lon="7.40138">
        <ele>666.20001220703</ele>
        <time>2022-04-09T12:36:36.000Z</time>
      </trkpt>
      <trkpt lat="43.89648" lon="7.4014">
        <ele>665.40002441406</ele>
        <time>2022-04-09T12:36:37.000Z</time>
      </trkpt>
      <trkpt lat="43.89646" lon="7.40143">
        <ele>664.20001220703</ele>
        <time>2022-04-09T12:36:39.000Z</time>
      </trkpt>
      <trkpt lat="43.89645" lon="7.40144">
        <ele>663.20001220703</ele>
        <time>2022-04-09T12:36:40.000Z</time>
      </trkpt>
      <trkpt lat="43.89642" lon="7.40144">
        <ele>662.59997558594</ele>
        <time>2022-04-09T12:36:41.000Z</time>
      </trkpt>
      <trkpt lat="43.89636" lon="7.40145">
        <ele>661.59997558594</ele>
        <time>2022-04-09T12:36:43.000Z</time>
      </trkpt>
      <trkpt lat="43.89629" lon="7.40147">
        <ele>660.40002441406</ele>
        <time>2022-04-09T12:36:45.000Z</time>
      </trkpt>
      <trkpt lat="43.89626" lon="7.40148">
        <ele>660</ele>
        <time>2022-04-09T12:36:46.000Z</time>
      </trkpt>
      <trkpt lat="43.89622" lon="7.40148">
        <ele>659.40002441406</ele>
        <time>2022-04-09T12:36:47.000Z</time>
      </trkpt>
      <trkpt lat="43.89611" lon="7.4015">
        <ele>658.40002441406</ele>
        <time>2022-04-09T12:36:49.000Z</time>
      </trkpt>
      <trkpt lat="43.89606" lon="7.40153">
        <ele>657.59997558594</ele>
        <time>2022-04-09T12:36:50.000Z</time>
      </trkpt>
      <trkpt lat="43.89601" lon="7.40154">
        <ele>656.40002441406</ele>
        <time>2022-04-09T12:36:51.000Z</time>
      </trkpt>
      <trkpt lat="43.89598" lon="7.40156">
        <ele>655.40002441406</ele>
        <time>2022-04-09T12:36:52.000Z</time>
      </trkpt>
      <trkpt lat="43.89595" lon="7.40158">
        <ele>654.59997558594</ele>
        <time>2022-04-09T12:36:53.000Z</time>
      </trkpt>
      <trkpt lat="43.89591" lon="7.40161">
        <ele>653.40002441406</ele>
        <time>2022-04-09T12:36:54.000Z</time>
      </trkpt>
      <trkpt lat="43.89589" lon="7.40164">
        <ele>652.59997558594</ele>
        <time>2022-04-09T12:36:55.000Z</time>
      </trkpt>
      <trkpt lat="43.89587" lon="7.40167">
        <ele>652</ele>
        <time>2022-04-09T12:36:56.000Z</time>
      </trkpt>
      <trkpt lat="43.89582" lon="7.40172">
        <ele>650.20001220703</ele>
        <time>2022-04-09T12:36:58.000Z</time>
      </trkpt>
      <trkpt lat="43.89578" lon="7.40176">
        <ele>648.79998779297</ele>
        <time>2022-04-09T12:37:00.000Z</time>
      </trkpt>
      <trkpt lat="43.89574" lon="7.40182">
        <ele>647.40002441406</ele>
        <time>2022-04-09T12:37:02.000Z</time>
      </trkpt>
      <trkpt lat="43.89573" lon="7.40184">
        <ele>646.40002441406</ele>
        <time>2022-04-09T12:37:03.000Z</time>
      </trkpt>
      <trkpt lat="43.89571" lon="7.40186">
        <ele>645.59997558594</ele>
        <time>2022-04-09T12:37:04.000Z</time>
      </trkpt>
      <trkpt lat="43.89568" lon="7.40188">
        <ele>644.59997558594</ele>
        <time>2022-04-09T12:37:05.000Z</time>
      </trkpt>
      <trkpt lat="43.89565" lon="7.40192">
        <ele>643.79998779297</ele>
        <time>2022-04-09T12:37:06.000Z</time>
      </trkpt>
      <trkpt lat="43.89561" lon="7.40196">
        <ele>643.20001220703</ele>
        <time>2022-04-09T12:37:07.000Z</time>
      </trkpt>
      <trkpt lat="43.89556" lon="7.40199">
        <ele>642.40002441406</ele>
        <time>2022-04-09T12:37:08.000Z</time>
      </trkpt>
      <trkpt lat="43.89546" lon="7.40205">
        <ele>640.79998779297</ele>
        <time>2022-04-09T12:37:10.000Z</time>
      </trkpt>
      <trkpt lat="43.89542" lon="7.40208">
        <ele>640</ele>
        <time>2022-04-09T12:37:11.000Z</time>
      </trkpt>
      <trkpt lat="43.89539" lon="7.4021">
        <ele>639.20001220703</ele>
        <time>2022-04-09T12:37:12.000Z</time>
      </trkpt>
      <trkpt lat="43.89537" lon="7.40211">
        <ele>638.79998779297</ele>
        <time>2022-04-09T12:37:13.000Z</time>
      </trkpt>
      <trkpt lat="43.89525" lon="7.40213">
        <ele>638.59997558594</ele>
        <time>2022-04-09T12:37:17.000Z</time>
      </trkpt>
      <trkpt lat="43.8952" lon="7.40217">
        <ele>638.20001220703</ele>
        <time>2022-04-09T12:37:20.000Z</time>
      </trkpt>
      <trkpt lat="43.89521" lon="7.40219">
        <ele>637</ele>
        <time>2022-04-09T12:37:23.000Z</time>
      </trkpt>
      <trkpt lat="43.89523" lon="7.40219">
        <ele>636.40002441406</ele>
        <time>2022-04-09T12:37:24.000Z</time>
      </trkpt>
      <trkpt lat="43.89527" lon="7.40219">
        <ele>636</ele>
        <time>2022-04-09T12:37:25.000Z</time>
      </trkpt>
      <trkpt lat="43.89535" lon="7.40218">
        <ele>635.40002441406</ele>
        <time>2022-04-09T12:37:27.000Z</time>
      </trkpt>
      <trkpt lat="43.89539" lon="7.40218">
        <ele>635</ele>
        <time>2022-04-09T12:37:28.000Z</time>
      </trkpt>
      <trkpt lat="43.89546" lon="7.40219">
        <ele>633.79998779297</ele>
        <time>2022-04-09T12:37:30.000Z</time>
      </trkpt>
      <trkpt lat="43.89548" lon="7.40218">
        <ele>633.20001220703</ele>
        <time>2022-04-09T12:37:31.000Z</time>
      </trkpt>
      <trkpt lat="43.89551" lon="7.40219">
        <ele>632.20001220703</ele>
        <time>2022-04-09T12:37:32.000Z</time>
      </trkpt>
      <trkpt lat="43.89557" lon="7.40217">
        <ele>630.59997558594</ele>
        <time>2022-04-09T12:37:34.000Z</time>
      </trkpt>
      <trkpt lat="43.8956" lon="7.40217">
        <ele>629.40002441406</ele>
        <time>2022-04-09T12:37:35.000Z</time>
      </trkpt>
      <trkpt lat="43.89564" lon="7.40216">
        <ele>627.40002441406</ele>
        <time>2022-04-09T12:37:37.000Z</time>
      </trkpt>
      <trkpt lat="43.89566" lon="7.40216">
        <ele>625.79998779297</ele>
        <time>2022-04-09T12:37:38.000Z</time>
      </trkpt>
      <trkpt lat="43.89568" lon="7.40217">
        <ele>624.59997558594</ele>
        <time>2022-04-09T12:37:39.000Z</time>
      </trkpt>
      <trkpt lat="43.89573" lon="7.40219">
        <ele>622.79998779297</ele>
        <time>2022-04-09T12:37:41.000Z</time>
      </trkpt>
      <trkpt lat="43.89579" lon="7.40217">
        <ele>621.20001220703</ele>
        <time>2022-04-09T12:37:43.000Z</time>
      </trkpt>
      <trkpt lat="43.89584" lon="7.40219">
        <ele>619.20001220703</ele>
        <time>2022-04-09T12:37:45.000Z</time>
      </trkpt>
      <trkpt lat="43.89587" lon="7.40218">
        <ele>618.20001220703</ele>
        <time>2022-04-09T12:37:46.000Z</time>
      </trkpt>
      <trkpt lat="43.8959" lon="7.40217">
        <ele>617</ele>
        <time>2022-04-09T12:37:47.000Z</time>
      </trkpt>
      <trkpt lat="43.89595" lon="7.40218">
        <ele>615.40002441406</ele>
        <time>2022-04-09T12:37:49.000Z</time>
      </trkpt>
      <trkpt lat="43.89595" lon="7.4022">
        <ele>614.40002441406</ele>
        <time>2022-04-09T12:37:50.000Z</time>
      </trkpt>
      <trkpt lat="43.89594" lon="7.40221">
        <ele>613.20001220703</ele>
        <time>2022-04-09T12:37:51.000Z</time>
      </trkpt>
      <trkpt lat="43.8959" lon="7.40223">
        <ele>611.79998779297</ele>
        <time>2022-04-09T12:37:53.000Z</time>
      </trkpt>
      <trkpt lat="43.89582" lon="7.40227">
        <ele>611.40002441406</ele>
        <time>2022-04-09T12:37:55.000Z</time>
      </trkpt>
      <trkpt lat="43.89571" lon="7.40232">
        <ele>611.20001220703</ele>
        <time>2022-04-09T12:37:58.000Z</time>
      </trkpt>
      <trkpt lat="43.89564" lon="7.40236">
        <ele>611</ele>
        <time>2022-04-09T12:38:00.000Z</time>
      </trkpt>
      <trkpt lat="43.89556" lon="7.40242">
        <ele>611.20001220703</ele>
        <time>2022-04-09T12:38:02.000Z</time>
      </trkpt>
      <trkpt lat="43.89544" lon="7.40249">
        <ele>611.20001220703</ele>
        <time>2022-04-09T12:38:05.000Z</time>
      </trkpt>
      <trkpt lat="43.8954" lon="7.4025">
        <ele>610.79998779297</ele>
        <time>2022-04-09T12:38:06.000Z</time>
      </trkpt>
      <trkpt lat="43.89536" lon="7.40251">
        <ele>610.59997558594</ele>
        <time>2022-04-09T12:38:07.000Z</time>
      </trkpt>
      <trkpt lat="43.89526" lon="7.4025">
        <ele>610.40002441406</ele>
        <time>2022-04-09T12:38:10.000Z</time>
      </trkpt>
      <trkpt lat="43.89521" lon="7.40249">
        <ele>611.20001220703</ele>
        <time>2022-04-09T12:38:12.000Z</time>
      </trkpt>
      <trkpt lat="43.8952" lon="7.40251">
        <ele>611.79998779297</ele>
        <time>2022-04-09T12:38:13.000Z</time>
      </trkpt>
      <trkpt lat="43.89519" lon="7.40255">
        <ele>612</ele>
        <time>2022-04-09T12:38:14.000Z</time>
      </trkpt>
      <trkpt lat="43.89512" lon="7.40266">
        <ele>612.20001220703</ele>
        <time>2022-04-09T12:38:17.000Z</time>
      </trkpt>
      <trkpt lat="43.89507" lon="7.40272">
        <ele>612</ele>
        <time>2022-04-09T12:38:19.000Z</time>
      </trkpt>
      <trkpt lat="43.895" lon="7.40282">
        <ele>613</ele>
        <time>2022-04-09T12:38:22.000Z</time>
      </trkpt>
      <trkpt lat="43.89498" lon="7.40286">
        <ele>613.40002441406</ele>
        <time>2022-04-09T12:38:23.000Z</time>
      </trkpt>
      <trkpt lat="43.89493" lon="7.40293">
        <ele>614.20001220703</ele>
        <time>2022-04-09T12:38:25.000Z</time>
      </trkpt>
      <trkpt lat="43.89491" lon="7.40297">
        <ele>614.59997558594</ele>
        <time>2022-04-09T12:38:27.000Z</time>
      </trkpt>
      <trkpt lat="43.8949" lon="7.40301">
        <ele>615</ele>
        <time>2022-04-09T12:38:29.000Z</time>
      </trkpt>
      <trkpt lat="43.89488" lon="7.40308">
        <ele>615</ele>
        <time>2022-04-09T12:38:31.000Z</time>
      </trkpt>
      <trkpt lat="43.89487" lon="7.40326">
        <ele>613.59997558594</ele>
        <time>2022-04-09T12:38:34.000Z</time>
      </trkpt>
      <trkpt lat="43.89488" lon="7.40331">
        <ele>613</ele>
        <time>2022-04-09T12:38:35.000Z</time>
      </trkpt>
      <trkpt lat="43.89486" lon="7.40344">
        <ele>612.20001220703</ele>
        <time>2022-04-09T12:38:38.000Z</time>
      </trkpt>
      <trkpt lat="43.89485" lon="7.40348">
        <ele>612</ele>
        <time>2022-04-09T12:38:39.000Z</time>
      </trkpt>
      <trkpt lat="43.89484" lon="7.4035">
        <ele>612.20001220703</ele>
        <time>2022-04-09T12:38:40.000Z</time>
      </trkpt>
      <trkpt lat="43.89484" lon="7.40351">
        <ele>612.20001220703</ele>
        <time>2022-04-09T12:38:41.000Z</time>
      </trkpt>
      <trkpt lat="43.89484" lon="7.40353">
        <ele>612.79998779297</ele>
        <time>2022-04-09T12:38:46.000Z</time>
      </trkpt>
      <trkpt lat="43.89483" lon="7.40353">
        <ele>613</ele>
        <time>2022-04-09T12:38:47.000Z</time>
      </trkpt>
      <trkpt lat="43.89481" lon="7.40354">
        <ele>613.20001220703</ele>
        <time>2022-04-09T12:38:50.000Z</time>
      </trkpt>
      <trkpt lat="43.89479" lon="7.40354">
        <ele>613.79998779297</ele>
        <time>2022-04-09T12:38:53.000Z</time>
      </trkpt>
      <trkpt lat="43.89477" lon="7.40356">
        <ele>614.40002441406</ele>
        <time>2022-04-09T12:38:56.000Z</time>
      </trkpt>
      <trkpt lat="43.89474" lon="7.40358">
        <ele>615.40002441406</ele>
        <time>2022-04-09T12:39:01.000Z</time>
      </trkpt>
      <trkpt lat="43.89475" lon="7.40358">
        <ele>615.40002441406</ele>
        <time>2022-04-09T12:39:02.000Z</time>
      </trkpt>
      <trkpt lat="43.89473" lon="7.40359">
        <ele>615.20001220703</ele>
        <time>2022-04-09T12:39:09.000Z</time>
      </trkpt>
      <trkpt lat="43.89464" lon="7.40367">
        <ele>615.20001220703</ele>
        <time>2022-04-09T12:39:13.000Z</time>
      </trkpt>
      <trkpt lat="43.89453" lon="7.40383">
        <ele>614.59997558594</ele>
        <time>2022-04-09T12:39:18.000Z</time>
      </trkpt>
      <trkpt lat="43.89446" lon="7.40392">
        <ele>614.59997558594</ele>
        <time>2022-04-09T12:39:22.000Z</time>
      </trkpt>
      <trkpt lat="43.89445" lon="7.40393">
        <ele>614.40002441406</ele>
        <time>2022-04-09T12:39:23.000Z</time>
      </trkpt>
      <trkpt lat="43.89442" lon="7.40394">
        <ele>614</ele>
        <time>2022-04-09T12:39:25.000Z</time>
      </trkpt>
      <trkpt lat="43.89439" lon="7.40395">
        <ele>613.79998779297</ele>
        <time>2022-04-09T12:39:26.000Z</time>
      </trkpt>
      <trkpt lat="43.89436" lon="7.40396">
        <ele>613.79998779297</ele>
        <time>2022-04-09T12:39:27.000Z</time>
      </trkpt>
      <trkpt lat="43.89423" lon="7.40399">
        <ele>613.79998779297</ele>
        <time>2022-04-09T12:39:31.000Z</time>
      </trkpt>
      <trkpt lat="43.89411" lon="7.40395">
        <ele>613.40002441406</ele>
        <time>2022-04-09T12:39:35.000Z</time>
      </trkpt>
      <trkpt lat="43.89406" lon="7.40395">
        <ele>613.20001220703</ele>
        <time>2022-04-09T12:39:37.000Z</time>
      </trkpt>
      <trkpt lat="43.89402" lon="7.40396">
        <ele>613.40002441406</ele>
        <time>2022-04-09T12:39:39.000Z</time>
      </trkpt>
      <trkpt lat="43.89397" lon="7.40398">
        <ele>614.79998779297</ele>
        <time>2022-04-09T12:39:42.000Z</time>
      </trkpt>
      <trkpt lat="43.89392" lon="7.404">
        <ele>615.59997558594</ele>
        <time>2022-04-09T12:39:44.000Z</time>
      </trkpt>
      <trkpt lat="43.89388" lon="7.40399">
        <ele>615.79998779297</ele>
        <time>2022-04-09T12:39:46.000Z</time>
      </trkpt>
      <trkpt lat="43.89384" lon="7.40399">
        <ele>616</ele>
        <time>2022-04-09T12:39:48.000Z</time>
      </trkpt>
      <trkpt lat="43.89381" lon="7.40398">
        <ele>616</ele>
        <time>2022-04-09T12:39:49.000Z</time>
      </trkpt>
      <trkpt lat="43.89369" lon="7.40391">
        <ele>615.20001220703</ele>
        <time>2022-04-09T12:39:54.000Z</time>
      </trkpt>
      <trkpt lat="43.89366" lon="7.40389">
        <ele>614.59997558594</ele>
        <time>2022-04-09T12:39:55.000Z</time>
      </trkpt>
      <trkpt lat="43.89361" lon="7.40387">
        <ele>613.40002441406</ele>
        <time>2022-04-09T12:39:57.000Z</time>
      </trkpt>
      <trkpt lat="43.8936" lon="7.40386">
        <ele>612.79998779297</ele>
        <time>2022-04-09T12:39:58.000Z</time>
      </trkpt>
      <trkpt lat="43.89347" lon="7.40389">
        <ele>612.59997558594</ele>
        <time>2022-04-09T12:40:02.000Z</time>
      </trkpt>
      <trkpt lat="43.89339" lon="7.40392">
        <ele>611.79998779297</ele>
        <time>2022-04-09T12:40:04.000Z</time>
      </trkpt>
      <trkpt lat="43.89332" lon="7.40393">
        <ele>610</ele>
        <time>2022-04-09T12:40:06.000Z</time>
      </trkpt>
      <trkpt lat="43.89328" lon="7.40393">
        <ele>608.79998779297</ele>
        <time>2022-04-09T12:40:07.000Z</time>
      </trkpt>
      <trkpt lat="43.89312" lon="7.40397">
        <ele>609</ele>
        <time>2022-04-09T12:40:12.000Z</time>
      </trkpt>
      <trkpt lat="43.89305" lon="7.40398">
        <ele>608</ele>
        <time>2022-04-09T12:40:15.000Z</time>
      </trkpt>
      <trkpt lat="43.89304" lon="7.40397">
        <ele>607.79998779297</ele>
        <time>2022-04-09T12:40:16.000Z</time>
      </trkpt>
      <trkpt lat="43.89298" lon="7.40393">
        <ele>606.20001220703</ele>
        <time>2022-04-09T12:40:19.000Z</time>
      </trkpt>
      <trkpt lat="43.89295" lon="7.40391">
        <ele>605.79998779297</ele>
        <time>2022-04-09T12:40:20.000Z</time>
      </trkpt>
      <trkpt lat="43.89292" lon="7.4039">
        <ele>605</ele>
        <time>2022-04-09T12:40:21.000Z</time>
      </trkpt>
      <trkpt lat="43.89289" lon="7.40389">
        <ele>603.79998779297</ele>
        <time>2022-04-09T12:40:22.000Z</time>
      </trkpt>
      <trkpt lat="43.89283" lon="7.40389">
        <ele>602.40002441406</ele>
        <time>2022-04-09T12:40:24.000Z</time>
      </trkpt>
      <trkpt lat="43.89281" lon="7.40391">
        <ele>601.40002441406</ele>
        <time>2022-04-09T12:40:25.000Z</time>
      </trkpt>
      <trkpt lat="43.8928" lon="7.40393">
        <ele>600.79998779297</ele>
        <time>2022-04-09T12:40:26.000Z</time>
      </trkpt>
      <trkpt lat="43.8928" lon="7.40396">
        <ele>600.40002441406</ele>
        <time>2022-04-09T12:40:27.000Z</time>
      </trkpt>
      <trkpt lat="43.89278" lon="7.40403">
        <ele>599.59997558594</ele>
        <time>2022-04-09T12:40:29.000Z</time>
      </trkpt>
      <trkpt lat="43.89278" lon="7.40407">
        <ele>599.40002441406</ele>
        <time>2022-04-09T12:40:30.000Z</time>
      </trkpt>
      <trkpt lat="43.89277" lon="7.4041">
        <ele>599.20001220703</ele>
        <time>2022-04-09T12:40:31.000Z</time>
      </trkpt>
      <trkpt lat="43.89277" lon="7.40424">
        <ele>598</ele>
        <time>2022-04-09T12:40:35.000Z</time>
      </trkpt>
      <trkpt lat="43.89277" lon="7.40427">
        <ele>597.59997558594</ele>
        <time>2022-04-09T12:40:36.000Z</time>
      </trkpt>
      <trkpt lat="43.89275" lon="7.40428">
        <ele>596.79998779297</ele>
        <time>2022-04-09T12:40:38.000Z</time>
      </trkpt>
      <trkpt lat="43.89274" lon="7.40429">
        <ele>595.79998779297</ele>
        <time>2022-04-09T12:40:41.000Z</time>
      </trkpt>
      <trkpt lat="43.89273" lon="7.4043">
        <ele>595.20001220703</ele>
        <time>2022-04-09T12:40:43.000Z</time>
      </trkpt>
      <trkpt lat="43.89274" lon="7.40433">
        <ele>594.79998779297</ele>
        <time>2022-04-09T12:40:45.000Z</time>
      </trkpt>
      <trkpt lat="43.89274" lon="7.40438">
        <ele>593.79998779297</ele>
        <time>2022-04-09T12:40:48.000Z</time>
      </trkpt>
      <trkpt lat="43.89273" lon="7.40441">
        <ele>593.40002441406</ele>
        <time>2022-04-09T12:40:49.000Z</time>
      </trkpt>
      <trkpt lat="43.89269" lon="7.40446">
        <ele>592.20001220703</ele>
        <time>2022-04-09T12:40:51.000Z</time>
      </trkpt>
      <trkpt lat="43.89267" lon="7.40448">
        <ele>591.40002441406</ele>
        <time>2022-04-09T12:40:52.000Z</time>
      </trkpt>
      <trkpt lat="43.89265" lon="7.40449">
        <ele>591</ele>
        <time>2022-04-09T12:40:53.000Z</time>
      </trkpt>
      <trkpt lat="43.8926" lon="7.40455">
        <ele>589</ele>
        <time>2022-04-09T12:40:56.000Z</time>
      </trkpt>
      <trkpt lat="43.89257" lon="7.40457">
        <ele>587.59997558594</ele>
        <time>2022-04-09T12:40:58.000Z</time>
      </trkpt>
      <trkpt lat="43.89255" lon="7.40459">
        <ele>586.40002441406</ele>
        <time>2022-04-09T12:40:59.000Z</time>
      </trkpt>
      <trkpt lat="43.89253" lon="7.40462">
        <ele>585.59997558594</ele>
        <time>2022-04-09T12:41:00.000Z</time>
      </trkpt>
      <trkpt lat="43.89252" lon="7.40465">
        <ele>585.40002441406</ele>
        <time>2022-04-09T12:41:01.000Z</time>
      </trkpt>
      <trkpt lat="43.89248" lon="7.40471">
        <ele>584.20001220703</ele>
        <time>2022-04-09T12:41:03.000Z</time>
      </trkpt>
      <trkpt lat="43.89246" lon="7.40475">
        <ele>583.20001220703</ele>
        <time>2022-04-09T12:41:04.000Z</time>
      </trkpt>
      <trkpt lat="43.89245" lon="7.40479">
        <ele>582.59997558594</ele>
        <time>2022-04-09T12:41:05.000Z</time>
      </trkpt>
      <trkpt lat="43.89242" lon="7.40488">
        <ele>580.59997558594</ele>
        <time>2022-04-09T12:41:07.000Z</time>
      </trkpt>
      <trkpt lat="43.8924" lon="7.40492">
        <ele>580.20001220703</ele>
        <time>2022-04-09T12:41:08.000Z</time>
      </trkpt>
      <trkpt lat="43.89237" lon="7.40497">
        <ele>579.40002441406</ele>
        <time>2022-04-09T12:41:09.000Z</time>
      </trkpt>
      <trkpt lat="43.89235" lon="7.405">
        <ele>578.40002441406</ele>
        <time>2022-04-09T12:41:10.000Z</time>
      </trkpt>
      <trkpt lat="43.89229" lon="7.40508">
        <ele>577</ele>
        <time>2022-04-09T12:41:12.000Z</time>
      </trkpt>
      <trkpt lat="43.89227" lon="7.40513">
        <ele>576.20001220703</ele>
        <time>2022-04-09T12:41:13.000Z</time>
      </trkpt>
      <trkpt lat="43.89224" lon="7.4052">
        <ele>575.79998779297</ele>
        <time>2022-04-09T12:41:14.000Z</time>
      </trkpt>
      <trkpt lat="43.8922" lon="7.4053">
        <ele>574.59997558594</ele>
        <time>2022-04-09T12:41:16.000Z</time>
      </trkpt>
      <trkpt lat="43.89216" lon="7.40534">
        <ele>573.79998779297</ele>
        <time>2022-04-09T12:41:17.000Z</time>
      </trkpt>
      <trkpt lat="43.89213" lon="7.40537">
        <ele>572.79998779297</ele>
        <time>2022-04-09T12:41:18.000Z</time>
      </trkpt>
      <trkpt lat="43.89204" lon="7.40542">
        <ele>571</ele>
        <time>2022-04-09T12:41:20.000Z</time>
      </trkpt>
      <trkpt lat="43.892" lon="7.40544">
        <ele>570.20001220703</ele>
        <time>2022-04-09T12:41:21.000Z</time>
      </trkpt>
      <trkpt lat="43.89198" lon="7.40547">
        <ele>569.79998779297</ele>
        <time>2022-04-09T12:41:22.000Z</time>
      </trkpt>
      <trkpt lat="43.89198" lon="7.4055">
        <ele>568.79998779297</ele>
        <time>2022-04-09T12:41:23.000Z</time>
      </trkpt>
      <trkpt lat="43.89198" lon="7.40555">
        <ele>568.59997558594</ele>
        <time>2022-04-09T12:41:24.000Z</time>
      </trkpt>
      <trkpt lat="43.89196" lon="7.4057">
        <ele>569</ele>
        <time>2022-04-09T12:41:27.000Z</time>
      </trkpt>
      <trkpt lat="43.89196" lon="7.40575">
        <ele>569.40002441406</ele>
        <time>2022-04-09T12:41:28.000Z</time>
      </trkpt>
      <trkpt lat="43.89197" lon="7.40581">
        <ele>569.59997558594</ele>
        <time>2022-04-09T12:41:29.000Z</time>
      </trkpt>
      <trkpt lat="43.89198" lon="7.40591">
        <ele>569.20001220703</ele>
        <time>2022-04-09T12:41:32.000Z</time>
      </trkpt>
      <trkpt lat="43.89197" lon="7.40596">
        <ele>568</ele>
        <time>2022-04-09T12:41:34.000Z</time>
      </trkpt>
      <trkpt lat="43.89196" lon="7.406">
        <ele>567.20001220703</ele>
        <time>2022-04-09T12:41:36.000Z</time>
      </trkpt>
      <trkpt lat="43.89195" lon="7.40602">
        <ele>566.79998779297</ele>
        <time>2022-04-09T12:41:37.000Z</time>
      </trkpt>
      <trkpt lat="43.89191" lon="7.40612">
        <ele>565.20001220703</ele>
        <time>2022-04-09T12:41:40.000Z</time>
      </trkpt>
      <trkpt lat="43.89189" lon="7.40614">
        <ele>564.40002441406</ele>
        <time>2022-04-09T12:41:41.000Z</time>
      </trkpt>
      <trkpt lat="43.89184" lon="7.40617">
        <ele>563.79998779297</ele>
        <time>2022-04-09T12:41:43.000Z</time>
      </trkpt>
      <trkpt lat="43.89177" lon="7.40617">
        <ele>562.59997558594</ele>
        <time>2022-04-09T12:41:45.000Z</time>
      </trkpt>
      <trkpt lat="43.89168" lon="7.40617">
        <ele>561</ele>
        <time>2022-04-09T12:41:47.000Z</time>
      </trkpt>
      <trkpt lat="43.89161" lon="7.40624">
        <ele>559.59997558594</ele>
        <time>2022-04-09T12:41:49.000Z</time>
      </trkpt>
      <trkpt lat="43.89156" lon="7.40634">
        <ele>558.79998779297</ele>
        <time>2022-04-09T12:41:51.000Z</time>
      </trkpt>
      <trkpt lat="43.89154" lon="7.4064">
        <ele>558.20001220703</ele>
        <time>2022-04-09T12:41:52.000Z</time>
      </trkpt>
      <trkpt lat="43.8915" lon="7.40651">
        <ele>557.40002441406</ele>
        <time>2022-04-09T12:41:54.000Z</time>
      </trkpt>
      <trkpt lat="43.89148" lon="7.40656">
        <ele>557</ele>
        <time>2022-04-09T12:41:55.000Z</time>
      </trkpt>
      <trkpt lat="43.89145" lon="7.40668">
        <ele>555.59997558594</ele>
        <time>2022-04-09T12:41:57.000Z</time>
      </trkpt>
      <trkpt lat="43.89144" lon="7.40672">
        <ele>554.59997558594</ele>
        <time>2022-04-09T12:41:58.000Z</time>
      </trkpt>
      <trkpt lat="43.8914" lon="7.40674">
        <ele>553.79998779297</ele>
        <time>2022-04-09T12:41:59.000Z</time>
      </trkpt>
      <trkpt lat="43.89136" lon="7.40675">
        <ele>552.20001220703</ele>
        <time>2022-04-09T12:42:01.000Z</time>
      </trkpt>
      <trkpt lat="43.8913" lon="7.4068">
        <ele>550.79998779297</ele>
        <time>2022-04-09T12:42:04.000Z</time>
      </trkpt>
      <trkpt lat="43.89127" lon="7.40686">
        <ele>549.79998779297</ele>
        <time>2022-04-09T12:42:06.000Z</time>
      </trkpt>
      <trkpt lat="43.89124" lon="7.4069">
        <ele>549</ele>
        <time>2022-04-09T12:42:07.000Z</time>
      </trkpt>
      <trkpt lat="43.89118" lon="7.40696">
        <ele>547</ele>
        <time>2022-04-09T12:42:09.000Z</time>
      </trkpt>
      <trkpt lat="43.89114" lon="7.407">
        <ele>545.79998779297</ele>
        <time>2022-04-09T12:42:10.000Z</time>
      </trkpt>
      <trkpt lat="43.8911" lon="7.40703">
        <ele>544.20001220703</ele>
        <time>2022-04-09T12:42:11.000Z</time>
      </trkpt>
      <trkpt lat="43.89106" lon="7.40706">
        <ele>543.20001220703</ele>
        <time>2022-04-09T12:42:12.000Z</time>
      </trkpt>
      <trkpt lat="43.89104" lon="7.40709">
        <ele>542.20001220703</ele>
        <time>2022-04-09T12:42:13.000Z</time>
      </trkpt>
      <trkpt lat="43.89101" lon="7.40712">
        <ele>541</ele>
        <time>2022-04-09T12:42:14.000Z</time>
      </trkpt>
      <trkpt lat="43.89099" lon="7.40715">
        <ele>540.20001220703</ele>
        <time>2022-04-09T12:42:15.000Z</time>
      </trkpt>
      <trkpt lat="43.89097" lon="7.40717">
        <ele>539.40002441406</ele>
        <time>2022-04-09T12:42:16.000Z</time>
      </trkpt>
      <trkpt lat="43.89094" lon="7.4072">
        <ele>538.40002441406</ele>
        <time>2022-04-09T12:42:17.000Z</time>
      </trkpt>
      <trkpt lat="43.89087" lon="7.40725">
        <ele>536.59997558594</ele>
        <time>2022-04-09T12:42:19.000Z</time>
      </trkpt>
      <trkpt lat="43.89079" lon="7.4073">
        <ele>534.79998779297</ele>
        <time>2022-04-09T12:42:21.000Z</time>
      </trkpt>
      <trkpt lat="43.89073" lon="7.40734">
        <ele>533.79998779297</ele>
        <time>2022-04-09T12:42:23.000Z</time>
      </trkpt>
      <trkpt lat="43.89069" lon="7.40736">
        <ele>533.40002441406</ele>
        <time>2022-04-09T12:42:24.000Z</time>
      </trkpt>
      <trkpt lat="43.89063" lon="7.40741">
        <ele>532.59997558594</ele>
        <time>2022-04-09T12:42:26.000Z</time>
      </trkpt>
      <trkpt lat="43.89058" lon="7.40747">
        <ele>531.40002441406</ele>
        <time>2022-04-09T12:42:28.000Z</time>
      </trkpt>
      <trkpt lat="43.89051" lon="7.40753">
        <ele>529.59997558594</ele>
        <time>2022-04-09T12:42:30.000Z</time>
      </trkpt>
      <trkpt lat="43.89047" lon="7.40761">
        <ele>527.59997558594</ele>
        <time>2022-04-09T12:42:32.000Z</time>
      </trkpt>
      <trkpt lat="43.89045" lon="7.40764">
        <ele>526.79998779297</ele>
        <time>2022-04-09T12:42:33.000Z</time>
      </trkpt>
      <trkpt lat="43.89043" lon="7.4077">
        <ele>525.79998779297</ele>
        <time>2022-04-09T12:42:34.000Z</time>
      </trkpt>
      <trkpt lat="43.8904" lon="7.40774">
        <ele>524.40002441406</ele>
        <time>2022-04-09T12:42:35.000Z</time>
      </trkpt>
      <trkpt lat="43.89037" lon="7.40776">
        <ele>523.40002441406</ele>
        <time>2022-04-09T12:42:36.000Z</time>
      </trkpt>
      <trkpt lat="43.89034" lon="7.40778">
        <ele>522.40002441406</ele>
        <time>2022-04-09T12:42:37.000Z</time>
      </trkpt>
      <trkpt lat="43.89031" lon="7.40777">
        <ele>521.40002441406</ele>
        <time>2022-04-09T12:42:38.000Z</time>
      </trkpt>
      <trkpt lat="43.89027" lon="7.40777">
        <ele>519.59997558594</ele>
        <time>2022-04-09T12:42:39.000Z</time>
      </trkpt>
      <trkpt lat="43.89019" lon="7.40774">
        <ele>518</ele>
        <time>2022-04-09T12:42:41.000Z</time>
      </trkpt>
      <trkpt lat="43.89015" lon="7.40773">
        <ele>517.59997558594</ele>
        <time>2022-04-09T12:42:42.000Z</time>
      </trkpt>
      <trkpt lat="43.89012" lon="7.40775">
        <ele>517</ele>
        <time>2022-04-09T12:42:43.000Z</time>
      </trkpt>
      <trkpt lat="43.89013" lon="7.40783">
        <ele>515.79998779297</ele>
        <time>2022-04-09T12:42:46.000Z</time>
      </trkpt>
      <trkpt lat="43.89013" lon="7.40791">
        <ele>515.59997558594</ele>
        <time>2022-04-09T12:42:48.000Z</time>
      </trkpt>
      <trkpt lat="43.89012" lon="7.40798">
        <ele>515.79998779297</ele>
        <time>2022-04-09T12:42:50.000Z</time>
      </trkpt>
      <trkpt lat="43.89007" lon="7.4081">
        <ele>514.59997558594</ele>
        <time>2022-04-09T12:42:53.000Z</time>
      </trkpt>
      <trkpt lat="43.89002" lon="7.40821">
        <ele>513.20001220703</ele>
        <time>2022-04-09T12:42:55.000Z</time>
      </trkpt>
      <trkpt lat="43.88999" lon="7.40828">
        <ele>511.79998779297</ele>
        <time>2022-04-09T12:42:57.000Z</time>
      </trkpt>
      <trkpt lat="43.88999" lon="7.40827">
        <ele>511</ele>
        <time>2022-04-09T12:42:58.000Z</time>
      </trkpt>
      <trkpt lat="43.88998" lon="7.40832">
        <ele>512.59997558594</ele>
        <time>2022-04-09T12:43:04.000Z</time>
      </trkpt>
      <trkpt lat="43.88998" lon="7.40835">
        <ele>513</ele>
        <time>2022-04-09T12:43:07.000Z</time>
      </trkpt>
      <trkpt lat="43.88998" lon="7.40836">
        <ele>513.40002441406</ele>
        <time>2022-04-09T12:43:10.000Z</time>
      </trkpt>
      <trkpt lat="43.88996" lon="7.40844">
        <ele>513.40002441406</ele>
        <time>2022-04-09T12:43:16.000Z</time>
      </trkpt>
      <trkpt lat="43.88987" lon="7.4086">
        <ele>512.20001220703</ele>
        <time>2022-04-09T12:43:20.000Z</time>
      </trkpt>
      <trkpt lat="43.88985" lon="7.40862">
        <ele>511.20001220703</ele>
        <time>2022-04-09T12:43:21.000Z</time>
      </trkpt>
      <trkpt lat="43.88984" lon="7.40865">
        <ele>510.20001220703</ele>
        <time>2022-04-09T12:43:22.000Z</time>
      </trkpt>
      <trkpt lat="43.88984" lon="7.40868">
        <ele>508.79998779297</ele>
        <time>2022-04-09T12:43:23.000Z</time>
      </trkpt>
      <trkpt lat="43.88983" lon="7.40873">
        <ele>508</ele>
        <time>2022-04-09T12:43:24.000Z</time>
      </trkpt>
      <trkpt lat="43.88982" lon="7.40877">
        <ele>507.20001220703</ele>
        <time>2022-04-09T12:43:25.000Z</time>
      </trkpt>
      <trkpt lat="43.88981" lon="7.40885">
        <ele>506</ele>
        <time>2022-04-09T12:43:27.000Z</time>
      </trkpt>
      <trkpt lat="43.88979" lon="7.4089">
        <ele>505.60000610352</ele>
        <time>2022-04-09T12:43:28.000Z</time>
      </trkpt>
      <trkpt lat="43.88977" lon="7.40897">
        <ele>504.79998779297</ele>
        <time>2022-04-09T12:43:29.000Z</time>
      </trkpt>
      <trkpt lat="43.88971" lon="7.4091">
        <ele>503.39999389648</ele>
        <time>2022-04-09T12:43:31.000Z</time>
      </trkpt>
      <trkpt lat="43.88969" lon="7.40916">
        <ele>502.79998779297</ele>
        <time>2022-04-09T12:43:32.000Z</time>
      </trkpt>
      <trkpt lat="43.88967" lon="7.40921">
        <ele>501.60000610352</ele>
        <time>2022-04-09T12:43:33.000Z</time>
      </trkpt>
      <trkpt lat="43.88966" lon="7.40926">
        <ele>501</ele>
        <time>2022-04-09T12:43:34.000Z</time>
      </trkpt>
      <trkpt lat="43.88965" lon="7.40929">
        <ele>500.20001220703</ele>
        <time>2022-04-09T12:43:35.000Z</time>
      </trkpt>
      <trkpt lat="43.88964" lon="7.40932">
        <ele>499.39999389648</ele>
        <time>2022-04-09T12:43:36.000Z</time>
      </trkpt>
      <trkpt lat="43.88963" lon="7.40936">
        <ele>498.60000610352</ele>
        <time>2022-04-09T12:43:37.000Z</time>
      </trkpt>
      <trkpt lat="43.88956" lon="7.40947">
        <ele>498</ele>
        <time>2022-04-09T12:43:40.000Z</time>
      </trkpt>
      <trkpt lat="43.88952" lon="7.40956">
        <ele>498.60000610352</ele>
        <time>2022-04-09T12:43:43.000Z</time>
      </trkpt>
      <trkpt lat="43.88953" lon="7.4096">
        <ele>498.60000610352</ele>
        <time>2022-04-09T12:43:44.000Z</time>
      </trkpt>
      <trkpt lat="43.88951" lon="7.40975">
        <ele>498.79998779297</ele>
        <time>2022-04-09T12:43:47.000Z</time>
      </trkpt>
      <trkpt lat="43.88942" lon="7.40988">
        <ele>498.39999389648</ele>
        <time>2022-04-09T12:43:51.000Z</time>
      </trkpt>
      <trkpt lat="43.88936" lon="7.40994">
        <ele>498.20001220703</ele>
        <time>2022-04-09T12:43:54.000Z</time>
      </trkpt>
      <trkpt lat="43.88939" lon="7.41005">
        <ele>497.39999389648</ele>
        <time>2022-04-09T12:43:57.000Z</time>
      </trkpt>
      <trkpt lat="43.8894" lon="7.41022">
        <ele>497</ele>
        <time>2022-04-09T12:44:01.000Z</time>
      </trkpt>
      <trkpt lat="43.8894" lon="7.41028">
        <ele>497.20001220703</ele>
        <time>2022-04-09T12:44:03.000Z</time>
      </trkpt>
      <trkpt lat="43.88941" lon="7.41032">
        <ele>497.20001220703</ele>
        <time>2022-04-09T12:44:04.000Z</time>
      </trkpt>
      <trkpt lat="43.88942" lon="7.41035">
        <ele>497.39999389648</ele>
        <time>2022-04-09T12:44:05.000Z</time>
      </trkpt>
      <trkpt lat="43.88941" lon="7.41055">
        <ele>498</ele>
        <time>2022-04-09T12:44:09.000Z</time>
      </trkpt>
      <trkpt lat="43.88944" lon="7.41068">
        <ele>498</ele>
        <time>2022-04-09T12:44:12.000Z</time>
      </trkpt>
      <trkpt lat="43.88952" lon="7.41082">
        <ele>498</ele>
        <time>2022-04-09T12:44:15.000Z</time>
      </trkpt>
      <trkpt lat="43.88957" lon="7.41092">
        <ele>497.79998779297</ele>
        <time>2022-04-09T12:44:17.000Z</time>
      </trkpt>
      <trkpt lat="43.88966" lon="7.41104">
        <ele>497.60000610352</ele>
        <time>2022-04-09T12:44:20.000Z</time>
      </trkpt>
      <trkpt lat="43.88969" lon="7.41108">
        <ele>497.60000610352</ele>
        <time>2022-04-09T12:44:21.000Z</time>
      </trkpt>
      <trkpt lat="43.88976" lon="7.41116">
        <ele>497.60000610352</ele>
        <time>2022-04-09T12:44:23.000Z</time>
      </trkpt>
      <trkpt lat="43.88981" lon="7.41123">
        <ele>497.20001220703</ele>
        <time>2022-04-09T12:44:26.000Z</time>
      </trkpt>
      <trkpt lat="43.88983" lon="7.41126">
        <ele>497.39999389648</ele>
        <time>2022-04-09T12:44:29.000Z</time>
      </trkpt>
      <trkpt lat="43.88986" lon="7.41129">
        <ele>497.79998779297</ele>
        <time>2022-04-09T12:44:31.000Z</time>
      </trkpt>
      <trkpt lat="43.88993" lon="7.41134">
        <ele>498</ele>
        <time>2022-04-09T12:44:34.000Z</time>
      </trkpt>
      <trkpt lat="43.88999" lon="7.41145">
        <ele>498.20001220703</ele>
        <time>2022-04-09T12:44:37.000Z</time>
      </trkpt>
      <trkpt lat="43.89003" lon="7.41157">
        <ele>497.79998779297</ele>
        <time>2022-04-09T12:44:40.000Z</time>
      </trkpt>
      <trkpt lat="43.89012" lon="7.41168">
        <ele>498.20001220703</ele>
        <time>2022-04-09T12:44:44.000Z</time>
      </trkpt>
      <trkpt lat="43.89024" lon="7.41171">
        <ele>497.60000610352</ele>
        <time>2022-04-09T12:44:48.000Z</time>
      </trkpt>
      <trkpt lat="43.89029" lon="7.41173">
        <ele>497.20001220703</ele>
        <time>2022-04-09T12:44:52.000Z</time>
      </trkpt>
      <trkpt lat="43.89032" lon="7.41176">
        <ele>496.79998779297</ele>
        <time>2022-04-09T12:44:54.000Z</time>
      </trkpt>
      <trkpt lat="43.89032" lon="7.41182">
        <ele>495.79998779297</ele>
        <time>2022-04-09T12:44:56.000Z</time>
      </trkpt>
      <trkpt lat="43.89031" lon="7.41187">
        <ele>494.79998779297</ele>
        <time>2022-04-09T12:44:58.000Z</time>
      </trkpt>
      <trkpt lat="43.8903" lon="7.41192">
        <ele>494</ele>
        <time>2022-04-09T12:45:00.000Z</time>
      </trkpt>
      <trkpt lat="43.8903" lon="7.41192">
        <ele>493.39999389648</ele>
        <time>2022-04-09T12:45:01.000Z</time>
      </trkpt>
      <trkpt lat="43.89032" lon="7.41192">
        <ele>492</ele>
        <time>2022-04-09T12:45:04.000Z</time>
      </trkpt>
      <trkpt lat="43.89032" lon="7.41191">
        <ele>491.60000610352</ele>
        <time>2022-04-09T12:45:05.000Z</time>
      </trkpt>
      <trkpt lat="43.89032" lon="7.41191">
        <ele>491</ele>
        <time>2022-04-09T12:45:10.000Z</time>
      </trkpt>
      <trkpt lat="43.89033" lon="7.4119">
        <ele>490.79998779297</ele>
        <time>2022-04-09T12:45:12.000Z</time>
      </trkpt>
      <trkpt lat="43.89033" lon="7.41191">
        <ele>490.39999389648</ele>
        <time>2022-04-09T12:45:16.000Z</time>
      </trkpt>
      <trkpt lat="43.89032" lon="7.41194">
        <ele>489.60000610352</ele>
        <time>2022-04-09T12:45:20.000Z</time>
      </trkpt>
      <trkpt lat="43.89032" lon="7.41201">
        <ele>488.60000610352</ele>
        <time>2022-04-09T12:45:27.000Z</time>
      </trkpt>
      <trkpt lat="43.89034" lon="7.41197">
        <ele>488</ele>
        <time>2022-04-09T12:45:33.000Z</time>
      </trkpt>
      <trkpt lat="43.89035" lon="7.41193">
        <ele>487.39999389648</ele>
        <time>2022-04-09T12:45:38.000Z</time>
      </trkpt>
      <trkpt lat="43.89035" lon="7.4119">
        <ele>486.39999389648</ele>
        <time>2022-04-09T12:45:41.000Z</time>
      </trkpt>
      <trkpt lat="43.89036" lon="7.41189">
        <ele>486.20001220703</ele>
        <time>2022-04-09T12:45:42.000Z</time>
      </trkpt>
      <trkpt lat="43.89037" lon="7.41189">
        <ele>485.20001220703</ele>
        <time>2022-04-09T12:45:45.000Z</time>
      </trkpt>
      <trkpt lat="43.89037" lon="7.4119">
        <ele>484.60000610352</ele>
        <time>2022-04-09T12:45:53.000Z</time>
      </trkpt>
      <trkpt lat="43.89039" lon="7.412">
        <ele>484.39999389648</ele>
        <time>2022-04-09T12:45:59.000Z</time>
      </trkpt>
      <trkpt lat="43.89038" lon="7.41203">
        <ele>484</ele>
        <time>2022-04-09T12:46:00.000Z</time>
      </trkpt>
      <trkpt lat="43.89033" lon="7.41212">
        <ele>482</ele>
        <time>2022-04-09T12:46:03.000Z</time>
      </trkpt>
      <trkpt lat="43.89027" lon="7.41213">
        <ele>480.60000610352</ele>
        <time>2022-04-09T12:46:05.000Z</time>
      </trkpt>
      <trkpt lat="43.89018" lon="7.41217">
        <ele>479.20001220703</ele>
        <time>2022-04-09T12:46:08.000Z</time>
      </trkpt>
      <trkpt lat="43.89001" lon="7.41225">
        <ele>478.39999389648</ele>
        <time>2022-04-09T12:46:13.000Z</time>
      </trkpt>
      <trkpt lat="43.88998" lon="7.41228">
        <ele>478.20001220703</ele>
        <time>2022-04-09T12:46:14.000Z</time>
      </trkpt>
      <trkpt lat="43.88996" lon="7.41233">
        <ele>477.60000610352</ele>
        <time>2022-04-09T12:46:16.000Z</time>
      </trkpt>
      <trkpt lat="43.88996" lon="7.41235">
        <ele>477.39999389648</ele>
        <time>2022-04-09T12:46:17.000Z</time>
      </trkpt>
      <trkpt lat="43.88996" lon="7.41236">
        <ele>477.20001220703</ele>
        <time>2022-04-09T12:46:19.000Z</time>
      </trkpt>
      <trkpt lat="43.88996" lon="7.41238">
        <ele>476.60000610352</ele>
        <time>2022-04-09T12:46:22.000Z</time>
      </trkpt>
      <trkpt lat="43.88997" lon="7.4124">
        <ele>476</ele>
        <time>2022-04-09T12:46:25.000Z</time>
      </trkpt>
      <trkpt lat="43.88997" lon="7.41242">
        <ele>476</ele>
        <time>2022-04-09T12:46:28.000Z</time>
      </trkpt>
      <trkpt lat="43.88995" lon="7.41245">
        <ele>476.79998779297</ele>
        <time>2022-04-09T12:46:35.000Z</time>
      </trkpt>
      <trkpt lat="43.88992" lon="7.41253">
        <ele>476.79998779297</ele>
        <time>2022-04-09T12:46:43.000Z</time>
      </trkpt>
      <trkpt lat="43.88986" lon="7.41264">
        <ele>476.20001220703</ele>
        <time>2022-04-09T12:46:48.000Z</time>
      </trkpt>
      <trkpt lat="43.88985" lon="7.41265">
        <ele>476.39999389648</ele>
        <time>2022-04-09T12:46:49.000Z</time>
      </trkpt>
      <trkpt lat="43.88986" lon="7.4127">
        <ele>477.39999389648</ele>
        <time>2022-04-09T12:46:51.000Z</time>
      </trkpt>
      <trkpt lat="43.88986" lon="7.41272">
        <ele>478</ele>
        <time>2022-04-09T12:46:52.000Z</time>
      </trkpt>
      <trkpt lat="43.88986" lon="7.41274">
        <ele>478.39999389648</ele>
        <time>2022-04-09T12:46:53.000Z</time>
      </trkpt>
      <trkpt lat="43.88989" lon="7.41285">
        <ele>478.60000610352</ele>
        <time>2022-04-09T12:46:57.000Z</time>
      </trkpt>
      <trkpt lat="43.88993" lon="7.41296">
        <ele>478.20001220703</ele>
        <time>2022-04-09T12:46:59.000Z</time>
      </trkpt>
      <trkpt lat="43.88997" lon="7.41307">
        <ele>477.20001220703</ele>
        <time>2022-04-09T12:47:01.000Z</time>
      </trkpt>
      <trkpt lat="43.88999" lon="7.41313">
        <ele>476</ele>
        <time>2022-04-09T12:47:02.000Z</time>
      </trkpt>
      <trkpt lat="43.89002" lon="7.41319">
        <ele>475</ele>
        <time>2022-04-09T12:47:03.000Z</time>
      </trkpt>
      <trkpt lat="43.89003" lon="7.41325">
        <ele>474</ele>
        <time>2022-04-09T12:47:04.000Z</time>
      </trkpt>
      <trkpt lat="43.89003" lon="7.4133">
        <ele>473.20001220703</ele>
        <time>2022-04-09T12:47:05.000Z</time>
      </trkpt>
      <trkpt lat="43.89003" lon="7.41334">
        <ele>472.60000610352</ele>
        <time>2022-04-09T12:47:06.000Z</time>
      </trkpt>
      <trkpt lat="43.89001" lon="7.41343">
        <ele>472.39999389648</ele>
        <time>2022-04-09T12:47:09.000Z</time>
      </trkpt>
      <trkpt lat="43.89" lon="7.41347">
        <ele>473.79998779297</ele>
        <time>2022-04-09T12:47:13.000Z</time>
      </trkpt>
      <trkpt lat="43.89001" lon="7.41347">
        <ele>475</ele>
        <time>2022-04-09T12:47:17.000Z</time>
      </trkpt>
      <trkpt lat="43.89002" lon="7.41348">
        <ele>475</ele>
        <time>2022-04-09T12:47:25.000Z</time>
      </trkpt>
      <trkpt lat="43.89004" lon="7.41353">
        <ele>475.20001220703</ele>
        <time>2022-04-09T12:47:33.000Z</time>
      </trkpt>
      <trkpt lat="43.89005" lon="7.41354">
        <ele>475.60000610352</ele>
        <time>2022-04-09T12:47:43.000Z</time>
      </trkpt>
      <trkpt lat="43.89006" lon="7.41355">
        <ele>475.60000610352</ele>
        <time>2022-04-09T12:47:49.000Z</time>
      </trkpt>
      <trkpt lat="43.89006" lon="7.41359">
        <ele>475.60000610352</ele>
        <time>2022-04-09T12:47:56.000Z</time>
      </trkpt>
      <trkpt lat="43.89008" lon="7.41366">
        <ele>476.20001220703</ele>
        <time>2022-04-09T12:47:59.000Z</time>
      </trkpt>
      <trkpt lat="43.8901" lon="7.41371">
        <ele>476.79998779297</ele>
        <time>2022-04-09T12:48:01.000Z</time>
      </trkpt>
      <trkpt lat="43.89011" lon="7.41373">
        <ele>477.20001220703</ele>
        <time>2022-04-09T12:48:02.000Z</time>
      </trkpt>
      <trkpt lat="43.89014" lon="7.41379">
        <ele>478.60000610352</ele>
        <time>2022-04-09T12:48:05.000Z</time>
      </trkpt>
      <trkpt lat="43.89014" lon="7.41382">
        <ele>479</ele>
        <time>2022-04-09T12:48:06.000Z</time>
      </trkpt>
      <trkpt lat="43.89014" lon="7.41384">
        <ele>479.39999389648</ele>
        <time>2022-04-09T12:48:07.000Z</time>
      </trkpt>
      <trkpt lat="43.89014" lon="7.41387">
        <ele>480</ele>
        <time>2022-04-09T12:48:08.000Z</time>
      </trkpt>
      <trkpt lat="43.89017" lon="7.41398">
        <ele>480.60000610352</ele>
        <time>2022-04-09T12:48:11.000Z</time>
      </trkpt>
      <trkpt lat="43.89019" lon="7.41401">
        <ele>480.79998779297</ele>
        <time>2022-04-09T12:48:12.000Z</time>
      </trkpt>
      <trkpt lat="43.89021" lon="7.41406">
        <ele>480.20001220703</ele>
        <time>2022-04-09T12:48:16.000Z</time>
      </trkpt>
      <trkpt lat="43.89022" lon="7.41407">
        <ele>480</ele>
        <time>2022-04-09T12:48:19.000Z</time>
      </trkpt>
      <trkpt lat="43.89024" lon="7.41411">
        <ele>479.79998779297</ele>
        <time>2022-04-09T12:48:21.000Z</time>
      </trkpt>
      <trkpt lat="43.89035" lon="7.41423">
        <ele>478.79998779297</ele>
        <time>2022-04-09T12:48:26.000Z</time>
      </trkpt>
      <trkpt lat="43.89041" lon="7.41429">
        <ele>477.60000610352</ele>
        <time>2022-04-09T12:48:28.000Z</time>
      </trkpt>
      <trkpt lat="43.89047" lon="7.41437">
        <ele>476</ele>
        <time>2022-04-09T12:48:30.000Z</time>
      </trkpt>
      <trkpt lat="43.8905" lon="7.41439">
        <ele>475.20001220703</ele>
        <time>2022-04-09T12:48:31.000Z</time>
      </trkpt>
      <trkpt lat="43.89052" lon="7.4144">
        <ele>475</ele>
        <time>2022-04-09T12:48:32.000Z</time>
      </trkpt>
      <trkpt lat="43.89053" lon="7.4144">
        <ele>474.39999389648</ele>
        <time>2022-04-09T12:48:33.000Z</time>
      </trkpt>
      <trkpt lat="43.89055" lon="7.4144">
        <ele>473.60000610352</ele>
        <time>2022-04-09T12:48:34.000Z</time>
      </trkpt>
      <trkpt lat="43.8906" lon="7.41448">
        <ele>472</ele>
        <time>2022-04-09T12:48:37.000Z</time>
      </trkpt>
      <trkpt lat="43.89061" lon="7.41452">
        <ele>471.39999389648</ele>
        <time>2022-04-09T12:48:38.000Z</time>
      </trkpt>
      <trkpt lat="43.89062" lon="7.41461">
        <ele>470.20001220703</ele>
        <time>2022-04-09T12:48:40.000Z</time>
      </trkpt>
      <trkpt lat="43.89062" lon="7.41467">
        <ele>469.39999389648</ele>
        <time>2022-04-09T12:48:41.000Z</time>
      </trkpt>
      <trkpt lat="43.89063" lon="7.41473">
        <ele>468.39999389648</ele>
        <time>2022-04-09T12:48:42.000Z</time>
      </trkpt>
      <trkpt lat="43.89064" lon="7.41478">
        <ele>467.20001220703</ele>
        <time>2022-04-09T12:48:43.000Z</time>
      </trkpt>
      <trkpt lat="43.89065" lon="7.41489">
        <ele>465.39999389648</ele>
        <time>2022-04-09T12:48:45.000Z</time>
      </trkpt>
      <trkpt lat="43.89065" lon="7.41495">
        <ele>464.60000610352</ele>
        <time>2022-04-09T12:48:46.000Z</time>
      </trkpt>
      <trkpt lat="43.89065" lon="7.41501">
        <ele>463.79998779297</ele>
        <time>2022-04-09T12:48:47.000Z</time>
      </trkpt>
      <trkpt lat="43.89063" lon="7.41512">
        <ele>462.39999389648</ele>
        <time>2022-04-09T12:48:49.000Z</time>
      </trkpt>
      <trkpt lat="43.89063" lon="7.41524">
        <ele>460.60000610352</ele>
        <time>2022-04-09T12:48:51.000Z</time>
      </trkpt>
      <trkpt lat="43.89064" lon="7.41531">
        <ele>459.79998779297</ele>
        <time>2022-04-09T12:48:52.000Z</time>
      </trkpt>
      <trkpt lat="43.89065" lon="7.41537">
        <ele>459</ele>
        <time>2022-04-09T12:48:53.000Z</time>
      </trkpt>
      <trkpt lat="43.89067" lon="7.41548">
        <ele>457.39999389648</ele>
        <time>2022-04-09T12:48:55.000Z</time>
      </trkpt>
      <trkpt lat="43.89067" lon="7.41554">
        <ele>456.39999389648</ele>
        <time>2022-04-09T12:48:56.000Z</time>
      </trkpt>
      <trkpt lat="43.89067" lon="7.41558">
        <ele>455.20001220703</ele>
        <time>2022-04-09T12:48:57.000Z</time>
      </trkpt>
      <trkpt lat="43.89067" lon="7.41562">
        <ele>454</ele>
        <time>2022-04-09T12:48:58.000Z</time>
      </trkpt>
      <trkpt lat="43.89067" lon="7.41568">
        <ele>452.79998779297</ele>
        <time>2022-04-09T12:48:59.000Z</time>
      </trkpt>
      <trkpt lat="43.89067" lon="7.41573">
        <ele>451.60000610352</ele>
        <time>2022-04-09T12:49:00.000Z</time>
      </trkpt>
      <trkpt lat="43.89068" lon="7.41576">
        <ele>450</ele>
        <time>2022-04-09T12:49:01.000Z</time>
      </trkpt>
      <trkpt lat="43.8907" lon="7.41579">
        <ele>448.79998779297</ele>
        <time>2022-04-09T12:49:02.000Z</time>
      </trkpt>
      <trkpt lat="43.89072" lon="7.41581">
        <ele>447.60000610352</ele>
        <time>2022-04-09T12:49:03.000Z</time>
      </trkpt>
      <trkpt lat="43.89077" lon="7.4159">
        <ele>445.60000610352</ele>
        <time>2022-04-09T12:49:05.000Z</time>
      </trkpt>
      <trkpt lat="43.89079" lon="7.41595">
        <ele>444.39999389648</ele>
        <time>2022-04-09T12:49:06.000Z</time>
      </trkpt>
      <trkpt lat="43.8908" lon="7.41599">
        <ele>443.39999389648</ele>
        <time>2022-04-09T12:49:07.000Z</time>
      </trkpt>
      <trkpt lat="43.89084" lon="7.41609">
        <ele>441.20001220703</ele>
        <time>2022-04-09T12:49:09.000Z</time>
      </trkpt>
      <trkpt lat="43.89085" lon="7.41615">
        <ele>439.39999389648</ele>
        <time>2022-04-09T12:49:11.000Z</time>
      </trkpt>
      <trkpt lat="43.89086" lon="7.41616">
        <ele>437.79998779297</ele>
        <time>2022-04-09T12:49:13.000Z</time>
      </trkpt>
      <trkpt lat="43.89086" lon="7.41617">
        <ele>436.79998779297</ele>
        <time>2022-04-09T12:49:15.000Z</time>
      </trkpt>
      <trkpt lat="43.89087" lon="7.41618">
        <ele>436.60000610352</ele>
        <time>2022-04-09T12:49:16.000Z</time>
      </trkpt>
      <trkpt lat="43.89089" lon="7.41623">
        <ele>436.60000610352</ele>
        <time>2022-04-09T12:49:20.000Z</time>
      </trkpt>
      <trkpt lat="43.89091" lon="7.41626">
        <ele>436.20001220703</ele>
        <time>2022-04-09T12:49:25.000Z</time>
      </trkpt>
      <trkpt lat="43.89098" lon="7.41641">
        <ele>435.60000610352</ele>
        <time>2022-04-09T12:49:29.000Z</time>
      </trkpt>
      <trkpt lat="43.89108" lon="7.41647">
        <ele>434</ele>
        <time>2022-04-09T12:49:32.000Z</time>
      </trkpt>
      <trkpt lat="43.89115" lon="7.4165">
        <ele>432.39999389648</ele>
        <time>2022-04-09T12:49:34.000Z</time>
      </trkpt>
      <trkpt lat="43.89118" lon="7.41654">
        <ele>431.39999389648</ele>
        <time>2022-04-09T12:49:35.000Z</time>
      </trkpt>
      <trkpt lat="43.89119" lon="7.41658">
        <ele>430.39999389648</ele>
        <time>2022-04-09T12:49:36.000Z</time>
      </trkpt>
      <trkpt lat="43.89121" lon="7.41663">
        <ele>429.39999389648</ele>
        <time>2022-04-09T12:49:37.000Z</time>
      </trkpt>
      <trkpt lat="43.89124" lon="7.41668">
        <ele>428.60000610352</ele>
        <time>2022-04-09T12:49:38.000Z</time>
      </trkpt>
      <trkpt lat="43.89127" lon="7.41675">
        <ele>427.79998779297</ele>
        <time>2022-04-09T12:49:39.000Z</time>
      </trkpt>
      <trkpt lat="43.89129" lon="7.41682">
        <ele>427</ele>
        <time>2022-04-09T12:49:40.000Z</time>
      </trkpt>
      <trkpt lat="43.89131" lon="7.41687">
        <ele>425.79998779297</ele>
        <time>2022-04-09T12:49:41.000Z</time>
      </trkpt>
      <trkpt lat="43.89133" lon="7.41694">
        <ele>424.79998779297</ele>
        <time>2022-04-09T12:49:42.000Z</time>
      </trkpt>
      <trkpt lat="43.89135" lon="7.417">
        <ele>423.60000610352</ele>
        <time>2022-04-09T12:49:43.000Z</time>
      </trkpt>
      <trkpt lat="43.89142" lon="7.41716">
        <ele>421.79998779297</ele>
        <time>2022-04-09T12:49:45.000Z</time>
      </trkpt>
      <trkpt lat="43.89145" lon="7.41724">
        <ele>421</ele>
        <time>2022-04-09T12:49:46.000Z</time>
      </trkpt>
      <trkpt lat="43.89147" lon="7.41732">
        <ele>420.39999389648</ele>
        <time>2022-04-09T12:49:47.000Z</time>
      </trkpt>
      <trkpt lat="43.8915" lon="7.41748">
        <ele>418.60000610352</ele>
        <time>2022-04-09T12:49:49.000Z</time>
      </trkpt>
      <trkpt lat="43.89153" lon="7.41755">
        <ele>418.20001220703</ele>
        <time>2022-04-09T12:49:50.000Z</time>
      </trkpt>
      <trkpt lat="43.89158" lon="7.41768">
        <ele>417.60000610352</ele>
        <time>2022-04-09T12:49:52.000Z</time>
      </trkpt>
      <trkpt lat="43.89165" lon="7.41782">
        <ele>416.39999389648</ele>
        <time>2022-04-09T12:49:55.000Z</time>
      </trkpt>
      <trkpt lat="43.89167" lon="7.41788">
        <ele>415.79998779297</ele>
        <time>2022-04-09T12:49:56.000Z</time>
      </trkpt>
      <trkpt lat="43.89169" lon="7.41794">
        <ele>415.39999389648</ele>
        <time>2022-04-09T12:49:57.000Z</time>
      </trkpt>
      <trkpt lat="43.89172" lon="7.41808">
        <ele>414.39999389648</ele>
        <time>2022-04-09T12:49:59.000Z</time>
      </trkpt>
      <trkpt lat="43.89174" lon="7.41814">
        <ele>413.60000610352</ele>
        <time>2022-04-09T12:50:00.000Z</time>
      </trkpt>
      <trkpt lat="43.89176" lon="7.41819">
        <ele>412.20001220703</ele>
        <time>2022-04-09T12:50:02.000Z</time>
      </trkpt>
      <trkpt lat="43.89179" lon="7.41821">
        <ele>411.79998779297</ele>
        <time>2022-04-09T12:50:08.000Z</time>
      </trkpt>
      <trkpt lat="43.89181" lon="7.41823">
        <ele>411.60000610352</ele>
        <time>2022-04-09T12:50:13.000Z</time>
      </trkpt>
      <trkpt lat="43.89186" lon="7.41826">
        <ele>411.39999389648</ele>
        <time>2022-04-09T12:50:23.000Z</time>
      </trkpt>
      <trkpt lat="43.89187" lon="7.41828">
        <ele>411.20001220703</ele>
        <time>2022-04-09T12:50:25.000Z</time>
      </trkpt>
      <trkpt lat="43.89189" lon="7.4183">
        <ele>410.39999389648</ele>
        <time>2022-04-09T12:50:29.000Z</time>
      </trkpt>
      <trkpt lat="43.89189" lon="7.41831">
        <ele>410</ele>
        <time>2022-04-09T12:50:30.000Z</time>
      </trkpt>
      <trkpt lat="43.89191" lon="7.41832">
        <ele>409.60000610352</ele>
        <time>2022-04-09T12:50:34.000Z</time>
      </trkpt>
      <trkpt lat="43.89193" lon="7.41834">
        <ele>409</ele>
        <time>2022-04-09T12:50:38.000Z</time>
      </trkpt>
      <trkpt lat="43.89193" lon="7.41834">
        <ele>408.60000610352</ele>
        <time>2022-04-09T12:50:40.000Z</time>
      </trkpt>
      <trkpt lat="43.89194" lon="7.41835">
        <ele>407.79998779297</ele>
        <time>2022-04-09T12:50:45.000Z</time>
      </trkpt>
      <trkpt lat="43.89194" lon="7.41835">
        <ele>407.60000610352</ele>
        <time>2022-04-09T12:50:46.000Z</time>
      </trkpt>
      <trkpt lat="43.89195" lon="7.41835">
        <ele>407</ele>
        <time>2022-04-09T12:50:55.000Z</time>
      </trkpt>
      <trkpt lat="43.89197" lon="7.41836">
        <ele>407</ele>
        <time>2022-04-09T12:51:04.000Z</time>
      </trkpt>
      <trkpt lat="43.89199" lon="7.4184">
        <ele>407.39999389648</ele>
        <time>2022-04-09T12:51:11.000Z</time>
      </trkpt>
      <trkpt lat="43.89202" lon="7.41851">
        <ele>407.60000610352</ele>
        <time>2022-04-09T12:51:21.000Z</time>
      </trkpt>
      <trkpt lat="43.89204" lon="7.41857">
        <ele>407.39999389648</ele>
        <time>2022-04-09T12:51:26.000Z</time>
      </trkpt>
      <trkpt lat="43.89204" lon="7.41856">
        <ele>407.39999389648</ele>
        <time>2022-04-09T12:51:27.000Z</time>
      </trkpt>
      <trkpt lat="43.89203" lon="7.41858">
        <ele>407.20001220703</ele>
        <time>2022-04-09T12:51:28.000Z</time>
      </trkpt>
      <trkpt lat="43.89203" lon="7.41861">
        <ele>407.39999389648</ele>
        <time>2022-04-09T12:51:31.000Z</time>
      </trkpt>
      <trkpt lat="43.89204" lon="7.41863">
        <ele>407.60000610352</ele>
        <time>2022-04-09T12:51:33.000Z</time>
      </trkpt>
      <trkpt lat="43.89204" lon="7.41864">
        <ele>407.79998779297</ele>
        <time>2022-04-09T12:51:34.000Z</time>
      </trkpt>
      <trkpt lat="43.89205" lon="7.41868">
        <ele>408.20001220703</ele>
        <time>2022-04-09T12:51:37.000Z</time>
      </trkpt>
      <trkpt lat="43.89206" lon="7.41869">
        <ele>408.39999389648</ele>
        <time>2022-04-09T12:51:39.000Z</time>
      </trkpt>
      <trkpt lat="43.89206" lon="7.41871">
        <ele>408.79998779297</ele>
        <time>2022-04-09T12:51:43.000Z</time>
      </trkpt>
      <trkpt lat="43.89206" lon="7.41872">
        <ele>409.39999389648</ele>
        <time>2022-04-09T12:51:46.000Z</time>
      </trkpt>
      <trkpt lat="43.89206" lon="7.41874">
        <ele>409.79998779297</ele>
        <time>2022-04-09T12:51:53.000Z</time>
      </trkpt>
      <trkpt lat="43.89206" lon="7.41875">
        <ele>409.79998779297</ele>
        <time>2022-04-09T12:51:54.000Z</time>
      </trkpt>
      <trkpt lat="43.89207" lon="7.41879">
        <ele>410.60000610352</ele>
        <time>2022-04-09T12:52:00.000Z</time>
      </trkpt>
      <trkpt lat="43.89207" lon="7.41882">
        <ele>411</ele>
        <time>2022-04-09T12:52:02.000Z</time>
      </trkpt>
      <trkpt lat="43.89207" lon="7.41888">
        <ele>411.60000610352</ele>
        <time>2022-04-09T12:52:08.000Z</time>
      </trkpt>
      <trkpt lat="43.89206" lon="7.41893">
        <ele>412.20001220703</ele>
        <time>2022-04-09T12:52:12.000Z</time>
      </trkpt>
      <trkpt lat="43.89206" lon="7.41894">
        <ele>412.20001220703</ele>
        <time>2022-04-09T12:52:13.000Z</time>
      </trkpt>
      <trkpt lat="43.89206" lon="7.41898">
        <ele>412.39999389648</ele>
        <time>2022-04-09T12:52:16.000Z</time>
      </trkpt>
      <trkpt lat="43.89206" lon="7.41901">
        <ele>412.79998779297</ele>
        <time>2022-04-09T12:52:21.000Z</time>
      </trkpt>
      <trkpt lat="43.89207" lon="7.41907">
        <ele>412.60000610352</ele>
        <time>2022-04-09T12:52:25.000Z</time>
      </trkpt>
      <trkpt lat="43.89207" lon="7.4191">
        <ele>412.60000610352</ele>
        <time>2022-04-09T12:52:26.000Z</time>
      </trkpt>
      <trkpt lat="43.89205" lon="7.41921">
        <ele>412.39999389648</ele>
        <time>2022-04-09T12:52:30.000Z</time>
      </trkpt>
      <trkpt lat="43.89205" lon="7.41923">
        <ele>412.60000610352</ele>
        <time>2022-04-09T12:52:31.000Z</time>
      </trkpt>
      <trkpt lat="43.89204" lon="7.41937">
        <ele>412.60000610352</ele>
        <time>2022-04-09T12:52:36.000Z</time>
      </trkpt>
      <trkpt lat="43.89204" lon="7.41954">
        <ele>412.39999389648</ele>
        <time>2022-04-09T12:52:42.000Z</time>
      </trkpt>
      <trkpt lat="43.89203" lon="7.41961">
        <ele>412.39999389648</ele>
        <time>2022-04-09T12:52:44.000Z</time>
      </trkpt>
      <trkpt lat="43.89203" lon="7.41967">
        <ele>412.39999389648</ele>
        <time>2022-04-09T12:52:46.000Z</time>
      </trkpt>
      <trkpt lat="43.89201" lon="7.4198">
        <ele>412.39999389648</ele>
        <time>2022-04-09T12:52:50.000Z</time>
      </trkpt>
      <trkpt lat="43.89202" lon="7.41997">
        <ele>412.39999389648</ele>
        <time>2022-04-09T12:52:55.000Z</time>
      </trkpt>
      <trkpt lat="43.89202" lon="7.42005">
        <ele>412.39999389648</ele>
        <time>2022-04-09T12:52:57.000Z</time>
      </trkpt>
      <trkpt lat="43.89202" lon="7.42016">
        <ele>412.20001220703</ele>
        <time>2022-04-09T12:53:00.000Z</time>
      </trkpt>
      <trkpt lat="43.89204" lon="7.42042">
        <ele>412.39999389648</ele>
        <time>2022-04-09T12:53:07.000Z</time>
      </trkpt>
      <trkpt lat="43.89204" lon="7.4206">
        <ele>412.39999389648</ele>
        <time>2022-04-09T12:53:12.000Z</time>
      </trkpt>
      <trkpt lat="43.89204" lon="7.42084">
        <ele>411.79998779297</ele>
        <time>2022-04-09T12:53:18.000Z</time>
      </trkpt>
      <trkpt lat="43.89201" lon="7.42105">
        <ele>411.79998779297</ele>
        <time>2022-04-09T12:53:23.000Z</time>
      </trkpt>
      <trkpt lat="43.89194" lon="7.4213">
        <ele>412</ele>
        <time>2022-04-09T12:53:29.000Z</time>
      </trkpt>
      <trkpt lat="43.89178" lon="7.42161">
        <ele>411.60000610352</ele>
        <time>2022-04-09T12:53:37.000Z</time>
      </trkpt>
      <trkpt lat="43.89167" lon="7.42183">
        <ele>412</ele>
        <time>2022-04-09T12:53:43.000Z</time>
      </trkpt>
      <trkpt lat="43.89153" lon="7.42206">
        <ele>413</ele>
        <time>2022-04-09T12:53:50.000Z</time>
      </trkpt>
      <trkpt lat="43.89136" lon="7.42227">
        <ele>413</ele>
        <time>2022-04-09T12:53:57.000Z</time>
      </trkpt>
      <trkpt lat="43.89131" lon="7.42234">
        <ele>413.20001220703</ele>
        <time>2022-04-09T12:53:59.000Z</time>
      </trkpt>
      <trkpt lat="43.8912" lon="7.42247">
        <ele>413.60000610352</ele>
        <time>2022-04-09T12:54:03.000Z</time>
      </trkpt>
      <trkpt lat="43.89098" lon="7.42269">
        <ele>414.20001220703</ele>
        <time>2022-04-09T12:54:11.000Z</time>
      </trkpt>
      <trkpt lat="43.89076" lon="7.42296">
        <ele>413.79998779297</ele>
        <time>2022-04-09T12:54:19.000Z</time>
      </trkpt>
      <trkpt lat="43.89055" lon="7.42321">
        <ele>414</ele>
        <time>2022-04-09T12:54:27.000Z</time>
      </trkpt>
      <trkpt lat="43.89038" lon="7.42325">
        <ele>414.39999389648</ele>
        <time>2022-04-09T12:54:32.000Z</time>
      </trkpt>
      <trkpt lat="43.89016" lon="7.42312">
        <ele>414</ele>
        <time>2022-04-09T12:54:39.000Z</time>
      </trkpt>
      <trkpt lat="43.88993" lon="7.42291">
        <ele>414</ele>
        <time>2022-04-09T12:54:47.000Z</time>
      </trkpt>
      <trkpt lat="43.88971" lon="7.42281">
        <ele>414.60000610352</ele>
        <time>2022-04-09T12:54:54.000Z</time>
      </trkpt>
      <trkpt lat="43.88959" lon="7.4229">
        <ele>415</ele>
        <time>2022-04-09T12:54:58.000Z</time>
      </trkpt>
      <trkpt lat="43.88947" lon="7.42314">
        <ele>415.20001220703</ele>
        <time>2022-04-09T12:55:04.000Z</time>
      </trkpt>
      <trkpt lat="43.88946" lon="7.42319">
        <ele>415.20001220703</ele>
        <time>2022-04-09T12:55:05.000Z</time>
      </trkpt>
      <trkpt lat="43.88947" lon="7.42343">
        <ele>416.39999389648</ele>
        <time>2022-04-09T12:55:10.000Z</time>
      </trkpt>
      <trkpt lat="43.8895" lon="7.42371">
        <ele>417</ele>
        <time>2022-04-09T12:55:16.000Z</time>
      </trkpt>
      <trkpt lat="43.88945" lon="7.42394">
        <ele>417.39999389648</ele>
        <time>2022-04-09T12:55:21.000Z</time>
      </trkpt>
      <trkpt lat="43.88938" lon="7.42404">
        <ele>417.60000610352</ele>
        <time>2022-04-09T12:55:24.000Z</time>
      </trkpt>
      <trkpt lat="43.88932" lon="7.42409">
        <ele>417.60000610352</ele>
        <time>2022-04-09T12:55:26.000Z</time>
      </trkpt>
      <trkpt lat="43.88915" lon="7.42426">
        <ele>418.20001220703</ele>
        <time>2022-04-09T12:55:32.000Z</time>
      </trkpt>
      <trkpt lat="43.88912" lon="7.42429">
        <ele>418.60000610352</ele>
        <time>2022-04-09T12:55:33.000Z</time>
      </trkpt>
      <trkpt lat="43.88896" lon="7.42449">
        <ele>419.60000610352</ele>
        <time>2022-04-09T12:55:39.000Z</time>
      </trkpt>
      <trkpt lat="43.88891" lon="7.42456">
        <ele>420</ele>
        <time>2022-04-09T12:55:41.000Z</time>
      </trkpt>
      <trkpt lat="43.88883" lon="7.42467">
        <ele>420.79998779297</ele>
        <time>2022-04-09T12:55:44.000Z</time>
      </trkpt>
      <trkpt lat="43.88867" lon="7.42491">
        <ele>421.39999389648</ele>
        <time>2022-04-09T12:55:50.000Z</time>
      </trkpt>
      <trkpt lat="43.88846" lon="7.42531">
        <ele>421.39999389648</ele>
        <time>2022-04-09T12:55:59.000Z</time>
      </trkpt>
      <trkpt lat="43.88824" lon="7.42575">
        <ele>421</ele>
        <time>2022-04-09T12:56:09.000Z</time>
      </trkpt>
      <trkpt lat="43.88804" lon="7.42617">
        <ele>420.79998779297</ele>
        <time>2022-04-09T12:56:18.000Z</time>
      </trkpt>
      <trkpt lat="43.88783" lon="7.42655">
        <ele>421</ele>
        <time>2022-04-09T12:56:26.000Z</time>
      </trkpt>
      <trkpt lat="43.88758" lon="7.42705">
        <ele>420.79998779297</ele>
        <time>2022-04-09T12:56:36.000Z</time>
      </trkpt>
      <trkpt lat="43.88737" lon="7.42755">
        <ele>421.20001220703</ele>
        <time>2022-04-09T12:56:45.000Z</time>
      </trkpt>
      <trkpt lat="43.88718" lon="7.42791">
        <ele>420.20001220703</ele>
        <time>2022-04-09T12:56:52.000Z</time>
      </trkpt>
      <trkpt lat="43.88714" lon="7.42795">
        <ele>420.20001220703</ele>
        <time>2022-04-09T12:56:53.000Z</time>
      </trkpt>
      <trkpt lat="43.88686" lon="7.42818">
        <ele>420</ele>
        <time>2022-04-09T12:57:00.000Z</time>
      </trkpt>
      <trkpt lat="43.88682" lon="7.42821">
        <ele>419.60000610352</ele>
        <time>2022-04-09T12:57:01.000Z</time>
      </trkpt>
      <trkpt lat="43.88655" lon="7.42839">
        <ele>420.39999389648</ele>
        <time>2022-04-09T12:57:08.000Z</time>
      </trkpt>
      <trkpt lat="43.88624" lon="7.42855">
        <ele>420</ele>
        <time>2022-04-09T12:57:16.000Z</time>
      </trkpt>
      <trkpt lat="43.88588" lon="7.42871">
        <ele>419.60000610352</ele>
        <time>2022-04-09T12:57:24.000Z</time>
      </trkpt>
      <trkpt lat="43.88562" lon="7.42888">
        <ele>419</ele>
        <time>2022-04-09T12:57:31.000Z</time>
      </trkpt>
      <trkpt lat="43.88547" lon="7.42902">
        <ele>418.60000610352</ele>
        <time>2022-04-09T12:57:35.000Z</time>
      </trkpt>
      <trkpt lat="43.88543" lon="7.42907">
        <ele>418.60000610352</ele>
        <time>2022-04-09T12:57:36.000Z</time>
      </trkpt>
      <trkpt lat="43.88539" lon="7.42912">
        <ele>418.39999389648</ele>
        <time>2022-04-09T12:57:37.000Z</time>
      </trkpt>
      <trkpt lat="43.88517" lon="7.42938">
        <ele>417.60000610352</ele>
        <time>2022-04-09T12:57:42.000Z</time>
      </trkpt>
      <trkpt lat="43.88512" lon="7.42943">
        <ele>417.39999389648</ele>
        <time>2022-04-09T12:57:43.000Z</time>
      </trkpt>
      <trkpt lat="43.88506" lon="7.42948">
        <ele>417.20001220703</ele>
        <time>2022-04-09T12:57:44.000Z</time>
      </trkpt>
      <trkpt lat="43.88493" lon="7.42953">
        <ele>416.20001220703</ele>
        <time>2022-04-09T12:57:46.000Z</time>
      </trkpt>
      <trkpt lat="43.88472" lon="7.42949">
        <ele>415.20001220703</ele>
        <time>2022-04-09T12:57:49.000Z</time>
      </trkpt>
      <trkpt lat="43.88454" lon="7.42933">
        <ele>414.60000610352</ele>
        <time>2022-04-09T12:57:52.000Z</time>
      </trkpt>
      <trkpt lat="43.88448" lon="7.42927">
        <ele>414.20001220703</ele>
        <time>2022-04-09T12:57:53.000Z</time>
      </trkpt>
      <trkpt lat="43.88441" lon="7.42922">
        <ele>414</ele>
        <time>2022-04-09T12:57:54.000Z</time>
      </trkpt>
      <trkpt lat="43.88427" lon="7.42918">
        <ele>413</ele>
        <time>2022-04-09T12:57:56.000Z</time>
      </trkpt>
      <trkpt lat="43.8842" lon="7.4292">
        <ele>412.60000610352</ele>
        <time>2022-04-09T12:57:57.000Z</time>
      </trkpt>
      <trkpt lat="43.88409" lon="7.4293">
        <ele>412.20001220703</ele>
        <time>2022-04-09T12:57:59.000Z</time>
      </trkpt>
      <trkpt lat="43.88404" lon="7.42936">
        <ele>411.79998779297</ele>
        <time>2022-04-09T12:58:00.000Z</time>
      </trkpt>
      <trkpt lat="43.88399" lon="7.42943">
        <ele>411.60000610352</ele>
        <time>2022-04-09T12:58:01.000Z</time>
      </trkpt>
      <trkpt lat="43.88381" lon="7.42968">
        <ele>410.79998779297</ele>
        <time>2022-04-09T12:58:05.000Z</time>
      </trkpt>
      <trkpt lat="43.88372" lon="7.42978">
        <ele>410.60000610352</ele>
        <time>2022-04-09T12:58:07.000Z</time>
      </trkpt>
      <trkpt lat="43.88357" lon="7.4299">
        <ele>410.60000610352</ele>
        <time>2022-04-09T12:58:10.000Z</time>
      </trkpt>
      <trkpt lat="43.88351" lon="7.42993">
        <ele>410.60000610352</ele>
        <time>2022-04-09T12:58:11.000Z</time>
      </trkpt>
      <trkpt lat="43.88334" lon="7.42998">
        <ele>410.39999389648</ele>
        <time>2022-04-09T12:58:14.000Z</time>
      </trkpt>
      <trkpt lat="43.88305" lon="7.43006">
        <ele>409.20001220703</ele>
        <time>2022-04-09T12:58:19.000Z</time>
      </trkpt>
      <trkpt lat="43.88285" lon="7.43011">
        <ele>408.39999389648</ele>
        <time>2022-04-09T12:58:23.000Z</time>
      </trkpt>
      <trkpt lat="43.88274" lon="7.43015">
        <ele>408</ele>
        <time>2022-04-09T12:58:25.000Z</time>
      </trkpt>
      <trkpt lat="43.8827" lon="7.43017">
        <ele>408</ele>
        <time>2022-04-09T12:58:26.000Z</time>
      </trkpt>
      <trkpt lat="43.88262" lon="7.43024">
        <ele>407.39999389648</ele>
        <time>2022-04-09T12:58:28.000Z</time>
      </trkpt>
      <trkpt lat="43.88255" lon="7.43034">
        <ele>407</ele>
        <time>2022-04-09T12:58:30.000Z</time>
      </trkpt>
      <trkpt lat="43.88246" lon="7.4305">
        <ele>407.79998779297</ele>
        <time>2022-04-09T12:58:33.000Z</time>
      </trkpt>
      <trkpt lat="43.88243" lon="7.43055">
        <ele>408</ele>
        <time>2022-04-09T12:58:34.000Z</time>
      </trkpt>
      <trkpt lat="43.88231" lon="7.43077">
        <ele>407.39999389648</ele>
        <time>2022-04-09T12:58:38.000Z</time>
      </trkpt>
      <trkpt lat="43.88223" lon="7.43085">
        <ele>407.20001220703</ele>
        <time>2022-04-09T12:58:40.000Z</time>
      </trkpt>
      <trkpt lat="43.88197" lon="7.43093">
        <ele>407.20001220703</ele>
        <time>2022-04-09T12:58:45.000Z</time>
      </trkpt>
      <trkpt lat="43.88192" lon="7.43093">
        <ele>407.20001220703</ele>
        <time>2022-04-09T12:58:46.000Z</time>
      </trkpt>
      <trkpt lat="43.88175" lon="7.43094">
        <ele>407</ele>
        <time>2022-04-09T12:58:49.000Z</time>
      </trkpt>
      <trkpt lat="43.88165" lon="7.43097">
        <ele>407</ele>
        <time>2022-04-09T12:58:51.000Z</time>
      </trkpt>
      <trkpt lat="43.8816" lon="7.43099">
        <ele>407</ele>
        <time>2022-04-09T12:58:52.000Z</time>
      </trkpt>
      <trkpt lat="43.88121" lon="7.43124">
        <ele>406.20001220703</ele>
        <time>2022-04-09T12:59:00.000Z</time>
      </trkpt>
      <trkpt lat="43.88075" lon="7.43154">
        <ele>406.60000610352</ele>
        <time>2022-04-09T12:59:10.000Z</time>
      </trkpt>
      <trkpt lat="43.8803" lon="7.43185">
        <ele>406.39999389648</ele>
        <time>2022-04-09T12:59:20.000Z</time>
      </trkpt>
      <trkpt lat="43.8799" lon="7.43213">
        <ele>407.20001220703</ele>
        <time>2022-04-09T12:59:29.000Z</time>
      </trkpt>
      <trkpt lat="43.87986" lon="7.43217">
        <ele>407.39999389648</ele>
        <time>2022-04-09T12:59:30.000Z</time>
      </trkpt>
      <trkpt lat="43.87975" lon="7.43237">
        <ele>407.60000610352</ele>
        <time>2022-04-09T12:59:34.000Z</time>
      </trkpt>
      <trkpt lat="43.87977" lon="7.43263">
        <ele>407.20001220703</ele>
        <time>2022-04-09T12:59:38.000Z</time>
      </trkpt>
      <trkpt lat="43.8798" lon="7.43276">
        <ele>407</ele>
        <time>2022-04-09T12:59:40.000Z</time>
      </trkpt>
      <trkpt lat="43.87991" lon="7.43312">
        <ele>406.39999389648</ele>
        <time>2022-04-09T12:59:46.000Z</time>
      </trkpt>
      <trkpt lat="43.88005" lon="7.43361">
        <ele>406</ele>
        <time>2022-04-09T12:59:54.000Z</time>
      </trkpt>
      <trkpt lat="43.88005" lon="7.43365">
        <ele>405.79998779297</ele>
        <time>2022-04-09T12:59:55.000Z</time>
      </trkpt>
      <trkpt lat="43.88006" lon="7.43373">
        <ele>405.79998779297</ele>
        <time>2022-04-09T12:59:56.000Z</time>
      </trkpt>
      <trkpt lat="43.88001" lon="7.43398">
        <ele>406</ele>
        <time>2022-04-09T13:00:00.000Z</time>
      </trkpt>
      <trkpt lat="43.87995" lon="7.43411">
        <ele>405.79998779297</ele>
        <time>2022-04-09T13:00:04.000Z</time>
      </trkpt>
      <trkpt lat="43.87998" lon="7.43412">
        <ele>406</ele>
        <time>2022-04-09T13:00:07.000Z</time>
      </trkpt>
      <trkpt lat="43.88001" lon="7.43408">
        <ele>406</ele>
        <time>2022-04-09T13:00:10.000Z</time>
      </trkpt>
      <trkpt lat="43.88003" lon="7.43406">
        <ele>406.20001220703</ele>
        <time>2022-04-09T13:00:11.000Z</time>
      </trkpt>
      <trkpt lat="43.88005" lon="7.43406">
        <ele>406.20001220703</ele>
        <time>2022-04-09T13:00:12.000Z</time>
      </trkpt>
      <trkpt lat="43.88012" lon="7.43417">
        <ele>406.39999389648</ele>
        <time>2022-04-09T13:00:16.000Z</time>
      </trkpt>
      <trkpt lat="43.88024" lon="7.43442">
        <ele>405.39999389648</ele>
        <time>2022-04-09T13:00:21.000Z</time>
      </trkpt>
      <trkpt lat="43.88029" lon="7.43454">
        <ele>404.79998779297</ele>
        <time>2022-04-09T13:00:23.000Z</time>
      </trkpt>
      <trkpt lat="43.88044" lon="7.43487">
        <ele>403.60000610352</ele>
        <time>2022-04-09T13:00:28.000Z</time>
      </trkpt>
      <trkpt lat="43.88058" lon="7.43522">
        <ele>402.39999389648</ele>
        <time>2022-04-09T13:00:33.000Z</time>
      </trkpt>
      <trkpt lat="43.8806" lon="7.4353">
        <ele>402</ele>
        <time>2022-04-09T13:00:34.000Z</time>
      </trkpt>
      <trkpt lat="43.88066" lon="7.43548">
        <ele>401.20001220703</ele>
        <time>2022-04-09T13:00:36.000Z</time>
      </trkpt>
      <trkpt lat="43.88077" lon="7.43574">
        <ele>399.79998779297</ele>
        <time>2022-04-09T13:00:39.000Z</time>
      </trkpt>
      <trkpt lat="43.88083" lon="7.4359">
        <ele>398.39999389648</ele>
        <time>2022-04-09T13:00:41.000Z</time>
      </trkpt>
      <trkpt lat="43.8809" lon="7.43602">
        <ele>396.79998779297</ele>
        <time>2022-04-09T13:00:43.000Z</time>
      </trkpt>
      <trkpt lat="43.88095" lon="7.43605">
        <ele>396</ele>
        <time>2022-04-09T13:00:44.000Z</time>
      </trkpt>
      <trkpt lat="43.88099" lon="7.43607">
        <ele>395.39999389648</ele>
        <time>2022-04-09T13:00:45.000Z</time>
      </trkpt>
      <trkpt lat="43.88112" lon="7.43613">
        <ele>394.79998779297</ele>
        <time>2022-04-09T13:00:48.000Z</time>
      </trkpt>
      <trkpt lat="43.88114" lon="7.43619">
        <ele>394.79998779297</ele>
        <time>2022-04-09T13:00:49.000Z</time>
      </trkpt>
      <trkpt lat="43.88112" lon="7.43642">
        <ele>394.60000610352</ele>
        <time>2022-04-09T13:00:52.000Z</time>
      </trkpt>
      <trkpt lat="43.88111" lon="7.43651">
        <ele>394</ele>
        <time>2022-04-09T13:00:53.000Z</time>
      </trkpt>
      <trkpt lat="43.88107" lon="7.43676">
        <ele>392.60000610352</ele>
        <time>2022-04-09T13:00:56.000Z</time>
      </trkpt>
      <trkpt lat="43.88106" lon="7.43682">
        <ele>392</ele>
        <time>2022-04-09T13:00:57.000Z</time>
      </trkpt>
      <trkpt lat="43.88104" lon="7.43693">
        <ele>391.20001220703</ele>
        <time>2022-04-09T13:00:59.000Z</time>
      </trkpt>
      <trkpt lat="43.881" lon="7.43724">
        <ele>391</ele>
        <time>2022-04-09T13:01:04.000Z</time>
      </trkpt>
      <trkpt lat="43.88097" lon="7.4374">
        <ele>390.39999389648</ele>
        <time>2022-04-09T13:01:06.000Z</time>
      </trkpt>
      <trkpt lat="43.88095" lon="7.43747">
        <ele>390.20001220703</ele>
        <time>2022-04-09T13:01:07.000Z</time>
      </trkpt>
      <trkpt lat="43.88089" lon="7.4377">
        <ele>389.20001220703</ele>
        <time>2022-04-09T13:01:10.000Z</time>
      </trkpt>
      <trkpt lat="43.88087" lon="7.43779">
        <ele>388.39999389648</ele>
        <time>2022-04-09T13:01:11.000Z</time>
      </trkpt>
      <trkpt lat="43.88084" lon="7.43794">
        <ele>387.60000610352</ele>
        <time>2022-04-09T13:01:13.000Z</time>
      </trkpt>
      <trkpt lat="43.88083" lon="7.43801">
        <ele>387.20001220703</ele>
        <time>2022-04-09T13:01:14.000Z</time>
      </trkpt>
      <trkpt lat="43.88081" lon="7.43806">
        <ele>386.60000610352</ele>
        <time>2022-04-09T13:01:15.000Z</time>
      </trkpt>
      <trkpt lat="43.88081" lon="7.43811">
        <ele>385.60000610352</ele>
        <time>2022-04-09T13:01:17.000Z</time>
      </trkpt>
      <trkpt lat="43.88082" lon="7.43811">
        <ele>385</ele>
        <time>2022-04-09T13:01:18.000Z</time>
      </trkpt>
      <trkpt lat="43.88084" lon="7.43808">
        <ele>384.39999389648</ele>
        <time>2022-04-09T13:01:19.000Z</time>
      </trkpt>
      <trkpt lat="43.88089" lon="7.43804">
        <ele>383.39999389648</ele>
        <time>2022-04-09T13:01:21.000Z</time>
      </trkpt>
      <trkpt lat="43.8809" lon="7.43806">
        <ele>383.39999389648</ele>
        <time>2022-04-09T13:01:22.000Z</time>
      </trkpt>
      <trkpt lat="43.8809" lon="7.43808">
        <ele>382.79998779297</ele>
        <time>2022-04-09T13:01:23.000Z</time>
      </trkpt>
      <trkpt lat="43.88089" lon="7.4381">
        <ele>382.20001220703</ele>
        <time>2022-04-09T13:01:24.000Z</time>
      </trkpt>
      <trkpt lat="43.88086" lon="7.43819">
        <ele>380.20001220703</ele>
        <time>2022-04-09T13:01:27.000Z</time>
      </trkpt>
      <trkpt lat="43.88086" lon="7.43822">
        <ele>380</ele>
        <time>2022-04-09T13:01:28.000Z</time>
      </trkpt>
      <trkpt lat="43.88085" lon="7.43825">
        <ele>379.20001220703</ele>
        <time>2022-04-09T13:01:29.000Z</time>
      </trkpt>
      <trkpt lat="43.88082" lon="7.43829">
        <ele>378.60000610352</ele>
        <time>2022-04-09T13:01:30.000Z</time>
      </trkpt>
      <trkpt lat="43.88078" lon="7.43835">
        <ele>378</ele>
        <time>2022-04-09T13:01:31.000Z</time>
      </trkpt>
      <trkpt lat="43.88072" lon="7.4385">
        <ele>376.20001220703</ele>
        <time>2022-04-09T13:01:33.000Z</time>
      </trkpt>
      <trkpt lat="43.88068" lon="7.43857">
        <ele>375.39999389648</ele>
        <time>2022-04-09T13:01:34.000Z</time>
      </trkpt>
      <trkpt lat="43.88064" lon="7.43864">
        <ele>374</ele>
        <time>2022-04-09T13:01:35.000Z</time>
      </trkpt>
      <trkpt lat="43.8806" lon="7.43871">
        <ele>373</ele>
        <time>2022-04-09T13:01:36.000Z</time>
      </trkpt>
      <trkpt lat="43.88054" lon="7.43885">
        <ele>371.79998779297</ele>
        <time>2022-04-09T13:01:38.000Z</time>
      </trkpt>
      <trkpt lat="43.88051" lon="7.43891">
        <ele>371.20001220703</ele>
        <time>2022-04-09T13:01:39.000Z</time>
      </trkpt>
      <trkpt lat="43.88044" lon="7.43903">
        <ele>370.79998779297</ele>
        <time>2022-04-09T13:01:41.000Z</time>
      </trkpt>
      <trkpt lat="43.88033" lon="7.43919">
        <ele>370.79998779297</ele>
        <time>2022-04-09T13:01:44.000Z</time>
      </trkpt>
      <trkpt lat="43.88002" lon="7.43964">
        <ele>371.79998779297</ele>
        <time>2022-04-09T13:01:53.000Z</time>
      </trkpt>
      <trkpt lat="43.87999" lon="7.43969">
        <ele>372</ele>
        <time>2022-04-09T13:01:54.000Z</time>
      </trkpt>
      <trkpt lat="43.87966" lon="7.44018">
        <ele>371.20001220703</ele>
        <time>2022-04-09T13:02:04.000Z</time>
      </trkpt>
      <trkpt lat="43.87938" lon="7.4406">
        <ele>371.60000610352</ele>
        <time>2022-04-09T13:02:12.000Z</time>
      </trkpt>
      <trkpt lat="43.87912" lon="7.441">
        <ele>371.39999389648</ele>
        <time>2022-04-09T13:02:20.000Z</time>
      </trkpt>
      <trkpt lat="43.87909" lon="7.44105">
        <ele>371.60000610352</ele>
        <time>2022-04-09T13:02:21.000Z</time>
      </trkpt>
      <trkpt lat="43.87893" lon="7.4413">
        <ele>371.60000610352</ele>
        <time>2022-04-09T13:02:26.000Z</time>
      </trkpt>
      <trkpt lat="43.87873" lon="7.4416">
        <ele>372.20001220703</ele>
        <time>2022-04-09T13:02:33.000Z</time>
      </trkpt>
      <trkpt lat="43.87868" lon="7.4417">
        <ele>373.20001220703</ele>
        <time>2022-04-09T13:02:36.000Z</time>
      </trkpt>
      <trkpt lat="43.87866" lon="7.44178">
        <ele>374</ele>
        <time>2022-04-09T13:02:38.000Z</time>
      </trkpt>
      <trkpt lat="43.87865" lon="7.44182">
        <ele>374.20001220703</ele>
        <time>2022-04-09T13:02:39.000Z</time>
      </trkpt>
      <trkpt lat="43.87862" lon="7.44193">
        <ele>375.39999389648</ele>
        <time>2022-04-09T13:02:42.000Z</time>
      </trkpt>
      <trkpt lat="43.8786" lon="7.44199">
        <ele>376.20001220703</ele>
        <time>2022-04-09T13:02:44.000Z</time>
      </trkpt>
      <trkpt lat="43.8786" lon="7.44202">
        <ele>376.79998779297</ele>
        <time>2022-04-09T13:02:45.000Z</time>
      </trkpt>
      <trkpt lat="43.87856" lon="7.44212">
        <ele>377.79998779297</ele>
        <time>2022-04-09T13:02:48.000Z</time>
      </trkpt>
      <trkpt lat="43.87852" lon="7.4422">
        <ele>378</ele>
        <time>2022-04-09T13:02:50.000Z</time>
      </trkpt>
      <trkpt lat="43.87842" lon="7.44249">
        <ele>377.20001220703</ele>
        <time>2022-04-09T13:02:57.000Z</time>
      </trkpt>
      <trkpt lat="43.87836" lon="7.44264">
        <ele>376.79998779297</ele>
        <time>2022-04-09T13:03:00.000Z</time>
      </trkpt>
      <trkpt lat="43.87834" lon="7.44269">
        <ele>376.79998779297</ele>
        <time>2022-04-09T13:03:01.000Z</time>
      </trkpt>
      <trkpt lat="43.87828" lon="7.44277">
        <ele>376.60000610352</ele>
        <time>2022-04-09T13:03:03.000Z</time>
      </trkpt>
      <trkpt lat="43.87822" lon="7.44287">
        <ele>376.60000610352</ele>
        <time>2022-04-09T13:03:05.000Z</time>
      </trkpt>
      <trkpt lat="43.87809" lon="7.44308">
        <ele>376.20001220703</ele>
        <time>2022-04-09T13:03:09.000Z</time>
      </trkpt>
      <trkpt lat="43.87806" lon="7.44331">
        <ele>375.79998779297</ele>
        <time>2022-04-09T13:03:12.000Z</time>
      </trkpt>
      <trkpt lat="43.87806" lon="7.44338">
        <ele>375.39999389648</ele>
        <time>2022-04-09T13:03:13.000Z</time>
      </trkpt>
      <trkpt lat="43.87809" lon="7.44363">
        <ele>373.79998779297</ele>
        <time>2022-04-09T13:03:16.000Z</time>
      </trkpt>
      <trkpt lat="43.8781" lon="7.44372">
        <ele>373.39999389648</ele>
        <time>2022-04-09T13:03:17.000Z</time>
      </trkpt>
      <trkpt lat="43.8781" lon="7.4439">
        <ele>372.39999389648</ele>
        <time>2022-04-09T13:03:19.000Z</time>
      </trkpt>
      <trkpt lat="43.87811" lon="7.4441">
        <ele>371.39999389648</ele>
        <time>2022-04-09T13:03:21.000Z</time>
      </trkpt>
      <trkpt lat="43.87811" lon="7.44419">
        <ele>371</ele>
        <time>2022-04-09T13:03:22.000Z</time>
      </trkpt>
      <trkpt lat="43.8781" lon="7.4445">
        <ele>370.20001220703</ele>
        <time>2022-04-09T13:03:25.000Z</time>
      </trkpt>
      <trkpt lat="43.87806" lon="7.44481">
        <ele>368.79998779297</ele>
        <time>2022-04-09T13:03:28.000Z</time>
      </trkpt>
      <trkpt lat="43.87803" lon="7.44505">
        <ele>367.79998779297</ele>
        <time>2022-04-09T13:03:30.000Z</time>
      </trkpt>
      <trkpt lat="43.87802" lon="7.44516">
        <ele>367.20001220703</ele>
        <time>2022-04-09T13:03:31.000Z</time>
      </trkpt>
      <trkpt lat="43.878" lon="7.44538">
        <ele>365.79998779297</ele>
        <time>2022-04-09T13:03:33.000Z</time>
      </trkpt>
      <trkpt lat="43.87797" lon="7.44561">
        <ele>364</ele>
        <time>2022-04-09T13:03:35.000Z</time>
      </trkpt>
      <trkpt lat="43.87796" lon="7.44572">
        <ele>363</ele>
        <time>2022-04-09T13:03:36.000Z</time>
      </trkpt>
      <trkpt lat="43.87795" lon="7.44583">
        <ele>362.39999389648</ele>
        <time>2022-04-09T13:03:37.000Z</time>
      </trkpt>
      <trkpt lat="43.87793" lon="7.44615">
        <ele>361.39999389648</ele>
        <time>2022-04-09T13:03:40.000Z</time>
      </trkpt>
      <trkpt lat="43.8779" lon="7.44646">
        <ele>360.60000610352</ele>
        <time>2022-04-09T13:03:43.000Z</time>
      </trkpt>
      <trkpt lat="43.87788" lon="7.44665">
        <ele>360</ele>
        <time>2022-04-09T13:03:45.000Z</time>
      </trkpt>
      <trkpt lat="43.87785" lon="7.447">
        <ele>359.20001220703</ele>
        <time>2022-04-09T13:03:49.000Z</time>
      </trkpt>
      <trkpt lat="43.87782" lon="7.44724">
        <ele>359</ele>
        <time>2022-04-09T13:03:52.000Z</time>
      </trkpt>
      <trkpt lat="43.87781" lon="7.44738">
        <ele>359</ele>
        <time>2022-04-09T13:03:54.000Z</time>
      </trkpt>
      <trkpt lat="43.87782" lon="7.44744">
        <ele>359</ele>
        <time>2022-04-09T13:03:55.000Z</time>
      </trkpt>
      <trkpt lat="43.87787" lon="7.44754">
        <ele>359.20001220703</ele>
        <time>2022-04-09T13:03:59.000Z</time>
      </trkpt>
      <trkpt lat="43.8779" lon="7.44753">
        <ele>359.20001220703</ele>
        <time>2022-04-09T13:04:03.000Z</time>
      </trkpt>
      <trkpt lat="43.8779" lon="7.44751">
        <ele>359.60000610352</ele>
        <time>2022-04-09T13:04:10.000Z</time>
      </trkpt>
      <trkpt lat="43.8779" lon="7.44751">
        <ele>359.39999389648</ele>
        <time>2022-04-09T13:04:22.000Z</time>
      </trkpt>
      <trkpt lat="43.87789" lon="7.44751">
        <ele>359.39999389648</ele>
        <time>2022-04-09T13:04:30.000Z</time>
      </trkpt>
      <trkpt lat="43.87789" lon="7.44753">
        <ele>359.20001220703</ele>
        <time>2022-04-09T13:04:37.000Z</time>
      </trkpt>
      <trkpt lat="43.87789" lon="7.44756">
        <ele>359.20001220703</ele>
        <time>2022-04-09T13:04:43.000Z</time>
      </trkpt>
      <trkpt lat="43.87789" lon="7.44757">
        <ele>359.39999389648</ele>
        <time>2022-04-09T13:04:52.000Z</time>
      </trkpt>
      <trkpt lat="43.87788" lon="7.44758">
        <ele>359.39999389648</ele>
        <time>2022-04-09T13:05:17.000Z</time>
      </trkpt>
      <trkpt lat="43.87788" lon="7.44759">
        <ele>359</ele>
        <time>2022-04-09T13:05:30.000Z</time>
      </trkpt>
      <trkpt lat="43.87787" lon="7.4476">
        <ele>359</ele>
        <time>2022-04-09T13:05:46.000Z</time>
      </trkpt>
      <trkpt lat="43.87788" lon="7.4476">
        <ele>358.79998779297</ele>
        <time>2022-04-09T13:05:57.000Z</time>
      </trkpt>
      <trkpt lat="43.87788" lon="7.44762">
        <ele>359</ele>
        <time>2022-04-09T13:06:07.000Z</time>
      </trkpt>
      <trkpt lat="43.87788" lon="7.44761">
        <ele>358.79998779297</ele>
        <time>2022-04-09T13:06:29.000Z</time>
      </trkpt>
      <trkpt lat="43.87788" lon="7.4476">
        <ele>358.79998779297</ele>
        <time>2022-04-09T13:06:46.000Z</time>
      </trkpt>
      <trkpt lat="43.87788" lon="7.44759">
        <ele>359</ele>
        <time>2022-04-09T13:07:02.000Z</time>
      </trkpt>
      <trkpt lat="43.87789" lon="7.44763">
        <ele>358.60000610352</ele>
        <time>2022-04-09T13:07:14.000Z</time>
      </trkpt>
      <trkpt lat="43.87792" lon="7.44769">
        <ele>358.60000610352</ele>
        <time>2022-04-09T13:07:21.000Z</time>
      </trkpt>
      <trkpt lat="43.87795" lon="7.44774">
        <ele>358.39999389648</ele>
        <time>2022-04-09T13:07:28.000Z</time>
      </trkpt>
      <trkpt lat="43.87794" lon="7.44774">
        <ele>358.39999389648</ele>
        <time>2022-04-09T13:07:38.000Z</time>
      </trkpt>
      <trkpt lat="43.87793" lon="7.44774">
        <ele>358.60000610352</ele>
        <time>2022-04-09T13:07:49.000Z</time>
      </trkpt>
      <trkpt lat="43.87792" lon="7.44773">
        <ele>359.39999389648</ele>
        <time>2022-04-09T13:07:56.000Z</time>
      </trkpt>
      <trkpt lat="43.8779" lon="7.44773">
        <ele>358.60000610352</ele>
        <time>2022-04-09T13:08:02.000Z</time>
      </trkpt>
      <trkpt lat="43.87791" lon="7.44774">
        <ele>358.79998779297</ele>
        <time>2022-04-09T13:08:08.000Z</time>
      </trkpt>
      <trkpt lat="43.87791" lon="7.44776">
        <ele>358.60000610352</ele>
        <time>2022-04-09T13:08:14.000Z</time>
      </trkpt>
      <trkpt lat="43.87792" lon="7.44777">
        <ele>359</ele>
        <time>2022-04-09T13:08:21.000Z</time>
      </trkpt>
      <trkpt lat="43.87792" lon="7.44777">
        <ele>358.60000610352</ele>
        <time>2022-04-09T13:08:28.000Z</time>
      </trkpt>
      <trkpt lat="43.87792" lon="7.44777">
        <ele>358.79998779297</ele>
        <time>2022-04-09T13:08:35.000Z</time>
      </trkpt>
      <trkpt lat="43.87793" lon="7.44775">
        <ele>358.79998779297</ele>
        <time>2022-04-09T13:08:47.000Z</time>
      </trkpt>
      <trkpt lat="43.87793" lon="7.44775">
        <ele>358.79998779297</ele>
        <time>2022-04-09T13:08:57.000Z</time>
      </trkpt>
      <trkpt lat="43.87792" lon="7.44775">
        <ele>358.39999389648</ele>
        <time>2022-04-09T13:09:06.000Z</time>
      </trkpt>
      <trkpt lat="43.87792" lon="7.44773">
        <ele>359.20001220703</ele>
        <time>2022-04-09T13:09:22.000Z</time>
      </trkpt>
      <trkpt lat="43.87795" lon="7.4477">
        <ele>359</ele>
        <time>2022-04-09T13:09:41.000Z</time>
      </trkpt>
      <trkpt lat="43.87794" lon="7.44771">
        <ele>359</ele>
        <time>2022-04-09T13:09:53.000Z</time>
      </trkpt>
      <trkpt lat="43.87795" lon="7.44768">
        <ele>359</ele>
        <time>2022-04-09T13:09:56.000Z</time>
      </trkpt>
      <trkpt lat="43.87796" lon="7.44766">
        <ele>358.79998779297</ele>
        <time>2022-04-09T13:09:58.000Z</time>
      </trkpt>
      <trkpt lat="43.87796" lon="7.44761">
        <ele>358.39999389648</ele>
        <time>2022-04-09T13:10:07.000Z</time>
      </trkpt>
      <trkpt lat="43.87795" lon="7.44758">
        <ele>358.20001220703</ele>
        <time>2022-04-09T13:10:17.000Z</time>
      </trkpt>
      <trkpt lat="43.87795" lon="7.44757">
        <ele>358</ele>
        <time>2022-04-09T13:10:25.000Z</time>
      </trkpt>
      <trkpt lat="43.87797" lon="7.44754">
        <ele>357.60000610352</ele>
        <time>2022-04-09T13:10:30.000Z</time>
      </trkpt>
      <trkpt lat="43.87796" lon="7.44751">
        <ele>358.60000610352</ele>
        <time>2022-04-09T13:10:37.000Z</time>
      </trkpt>
      <trkpt lat="43.87794" lon="7.44751">
        <ele>357.79998779297</ele>
        <time>2022-04-09T13:10:50.000Z</time>
      </trkpt>
      <trkpt lat="43.87793" lon="7.44752">
        <ele>358.20001220703</ele>
        <time>2022-04-09T13:10:58.000Z</time>
      </trkpt>
      <trkpt lat="43.87791" lon="7.44752">
        <ele>358.20001220703</ele>
        <time>2022-04-09T13:11:10.000Z</time>
      </trkpt>
      <trkpt lat="43.87791" lon="7.44751">
        <ele>357.79998779297</ele>
        <time>2022-04-09T13:11:21.000Z</time>
      </trkpt>
      <trkpt lat="43.8779" lon="7.4475">
        <ele>357.79998779297</ele>
        <time>2022-04-09T13:11:34.000Z</time>
      </trkpt>
      <trkpt lat="43.8779" lon="7.44749">
        <ele>357.79998779297</ele>
        <time>2022-04-09T13:11:42.000Z</time>
      </trkpt>
      <trkpt lat="43.8779" lon="7.44749">
        <ele>357.60000610352</ele>
        <time>2022-04-09T13:11:49.000Z</time>
      </trkpt>
      <trkpt lat="43.87789" lon="7.44747">
        <ele>357.20001220703</ele>
        <time>2022-04-09T13:11:57.000Z</time>
      </trkpt>
      <trkpt lat="43.87788" lon="7.44747">
        <ele>357.20001220703</ele>
        <time>2022-04-09T13:12:04.000Z</time>
      </trkpt>
      <trkpt lat="43.87789" lon="7.44748">
        <ele>358.20001220703</ele>
        <time>2022-04-09T13:12:11.000Z</time>
      </trkpt>
      <trkpt lat="43.87789" lon="7.44751">
        <ele>357.60000610352</ele>
        <time>2022-04-09T13:12:18.000Z</time>
      </trkpt>
      <trkpt lat="43.8779" lon="7.44752">
        <ele>357.39999389648</ele>
        <time>2022-04-09T13:12:23.000Z</time>
      </trkpt>
      <trkpt lat="43.8779" lon="7.44751">
        <ele>357.20001220703</ele>
        <time>2022-04-09T13:12:29.000Z</time>
      </trkpt>
      <trkpt lat="43.8779" lon="7.4475">
        <ele>357.20001220703</ele>
        <time>2022-04-09T13:12:35.000Z</time>
      </trkpt>
      <trkpt lat="43.87789" lon="7.44756">
        <ele>357</ele>
        <time>2022-04-09T13:12:40.000Z</time>
      </trkpt>
      <trkpt lat="43.87788" lon="7.44756">
        <ele>357.20001220703</ele>
        <time>2022-04-09T13:12:45.000Z</time>
      </trkpt>
      <trkpt lat="43.87788" lon="7.44757">
        <ele>357.20001220703</ele>
        <time>2022-04-09T13:12:48.000Z</time>
      </trkpt>
      <trkpt lat="43.87789" lon="7.44758">
        <ele>357.20001220703</ele>
        <time>2022-04-09T13:12:50.000Z</time>
      </trkpt>
      <trkpt lat="43.87791" lon="7.44764">
        <ele>357.20001220703</ele>
        <time>2022-04-09T13:12:55.000Z</time>
      </trkpt>
      <trkpt lat="43.87792" lon="7.44764">
        <ele>357.39999389648</ele>
        <time>2022-04-09T13:12:57.000Z</time>
      </trkpt>
      <trkpt lat="43.87792" lon="7.4476">
        <ele>358</ele>
        <time>2022-04-09T13:13:00.000Z</time>
      </trkpt>
      <trkpt lat="43.87792" lon="7.44755">
        <ele>357.39999389648</ele>
        <time>2022-04-09T13:13:07.000Z</time>
      </trkpt>
      <trkpt lat="43.87792" lon="7.44755">
        <ele>357</ele>
        <time>2022-04-09T13:13:17.000Z</time>
      </trkpt>
      <trkpt lat="43.87793" lon="7.44753">
        <ele>357.60000610352</ele>
        <time>2022-04-09T13:13:25.000Z</time>
      </trkpt>
      <trkpt lat="43.87793" lon="7.44754">
        <ele>357.60000610352</ele>
        <time>2022-04-09T13:13:35.000Z</time>
      </trkpt>
      <trkpt lat="43.87794" lon="7.44755">
        <ele>357.20001220703</ele>
        <time>2022-04-09T13:13:42.000Z</time>
      </trkpt>
      <trkpt lat="43.87793" lon="7.44755">
        <ele>357.39999389648</ele>
        <time>2022-04-09T13:13:49.000Z</time>
      </trkpt>
      <trkpt lat="43.87793" lon="7.44754">
        <ele>357.39999389648</ele>
        <time>2022-04-09T13:13:54.000Z</time>
      </trkpt>
      <trkpt lat="43.87792" lon="7.44754">
        <ele>356.79998779297</ele>
        <time>2022-04-09T13:13:58.000Z</time>
      </trkpt>
      <trkpt lat="43.87792" lon="7.44754">
        <ele>357</ele>
        <time>2022-04-09T13:14:01.000Z</time>
      </trkpt>
      <trkpt lat="43.87792" lon="7.44753">
        <ele>356.60000610352</ele>
        <time>2022-04-09T13:14:10.000Z</time>
      </trkpt>
      <trkpt lat="43.87791" lon="7.44752">
        <ele>356.39999389648</ele>
        <time>2022-04-09T13:14:18.000Z</time>
      </trkpt>
      <trkpt lat="43.87791" lon="7.44752">
        <ele>356.20001220703</ele>
        <time>2022-04-09T13:14:31.000Z</time>
      </trkpt>
      <trkpt lat="43.87791" lon="7.44751">
        <ele>356.39999389648</ele>
        <time>2022-04-09T13:14:44.000Z</time>
      </trkpt>
      <trkpt lat="43.87791" lon="7.44751">
        <ele>356.39999389648</ele>
        <time>2022-04-09T13:14:54.000Z</time>
      </trkpt>
      <trkpt lat="43.87791" lon="7.44751">
        <ele>356.39999389648</ele>
        <time>2022-04-09T13:15:15.000Z</time>
      </trkpt>
      <trkpt lat="43.87791" lon="7.44751">
        <ele>356.20001220703</ele>
        <time>2022-04-09T13:15:33.000Z</time>
      </trkpt>
      <trkpt lat="43.87792" lon="7.44751">
        <ele>356.39999389648</ele>
        <time>2022-04-09T13:15:52.000Z</time>
      </trkpt>
      <trkpt lat="43.87792" lon="7.44751">
        <ele>357.39999389648</ele>
        <time>2022-04-09T13:16:03.000Z</time>
      </trkpt>
      <trkpt lat="43.87791" lon="7.44752">
        <ele>356.79998779297</ele>
        <time>2022-04-09T13:16:14.000Z</time>
      </trkpt>
      <trkpt lat="43.87791" lon="7.44752">
        <ele>357.20001220703</ele>
        <time>2022-04-09T13:16:29.000Z</time>
      </trkpt>
      <trkpt lat="43.87791" lon="7.44752">
        <ele>357</ele>
        <time>2022-04-09T13:16:38.000Z</time>
      </trkpt>
      <trkpt lat="43.87792" lon="7.44752">
        <ele>357</ele>
        <time>2022-04-09T13:16:52.000Z</time>
      </trkpt>
      <trkpt lat="43.87793" lon="7.44753">
        <ele>356.79998779297</ele>
        <time>2022-04-09T13:17:08.000Z</time>
      </trkpt>
      <trkpt lat="43.87793" lon="7.44754">
        <ele>356.39999389648</ele>
        <time>2022-04-09T13:17:25.000Z</time>
      </trkpt>
      <trkpt lat="43.87793" lon="7.44755">
        <ele>356.79998779297</ele>
        <time>2022-04-09T13:17:35.000Z</time>
      </trkpt>
      <trkpt lat="43.87793" lon="7.44756">
        <ele>357</ele>
        <time>2022-04-09T13:17:46.000Z</time>
      </trkpt>
      <trkpt lat="43.87794" lon="7.44755">
        <ele>357</ele>
        <time>2022-04-09T13:17:56.000Z</time>
      </trkpt>
      <trkpt lat="43.87795" lon="7.44754">
        <ele>357.79998779297</ele>
        <time>2022-04-09T13:18:16.000Z</time>
      </trkpt>
      <trkpt lat="43.87795" lon="7.44753">
        <ele>358.20001220703</ele>
        <time>2022-04-09T13:18:17.000Z</time>
      </trkpt>
      <trkpt lat="43.87794" lon="7.44753">
        <ele>357.60000610352</ele>
        <time>2022-04-09T13:18:24.000Z</time>
      </trkpt>
      <trkpt lat="43.87794" lon="7.44754">
        <ele>357.20001220703</ele>
        <time>2022-04-09T13:18:35.000Z</time>
      </trkpt>
      <trkpt lat="43.87794" lon="7.44753">
        <ele>357</ele>
        <time>2022-04-09T13:18:45.000Z</time>
      </trkpt>
      <trkpt lat="43.87793" lon="7.44753">
        <ele>357.20001220703</ele>
        <time>2022-04-09T13:18:59.000Z</time>
      </trkpt>
      <trkpt lat="43.87793" lon="7.44753">
        <ele>357.20001220703</ele>
        <time>2022-04-09T13:19:12.000Z</time>
      </trkpt>
      <trkpt lat="43.87794" lon="7.44752">
        <ele>357</ele>
        <time>2022-04-09T13:19:26.000Z</time>
      </trkpt>
      <trkpt lat="43.87795" lon="7.44752">
        <ele>356.79998779297</ele>
        <time>2022-04-09T13:19:32.000Z</time>
      </trkpt>
      <trkpt lat="43.87796" lon="7.44753">
        <ele>357</ele>
        <time>2022-04-09T13:19:43.000Z</time>
      </trkpt>
      <trkpt lat="43.87796" lon="7.44753">
        <ele>357.39999389648</ele>
        <time>2022-04-09T13:19:56.000Z</time>
      </trkpt>
      <trkpt lat="43.87795" lon="7.44753">
        <ele>357.20001220703</ele>
        <time>2022-04-09T13:20:07.000Z</time>
      </trkpt>
      <trkpt lat="43.87794" lon="7.44754">
        <ele>356.79998779297</ele>
        <time>2022-04-09T13:20:18.000Z</time>
      </trkpt>
      <trkpt lat="43.87792" lon="7.44756">
        <ele>357.20001220703</ele>
        <time>2022-04-09T13:20:38.000Z</time>
      </trkpt>
      <trkpt lat="43.87791" lon="7.44756">
        <ele>357.39999389648</ele>
        <time>2022-04-09T13:20:49.000Z</time>
      </trkpt>
      <trkpt lat="43.87791" lon="7.44756">
        <ele>357.20001220703</ele>
        <time>2022-04-09T13:21:08.000Z</time>
      </trkpt>
      <trkpt lat="43.87791" lon="7.44755">
        <ele>357.20001220703</ele>
        <time>2022-04-09T13:21:32.000Z</time>
      </trkpt>
      <trkpt lat="43.87791" lon="7.44756">
        <ele>357.60000610352</ele>
        <time>2022-04-09T13:21:48.000Z</time>
      </trkpt>
      <trkpt lat="43.87791" lon="7.44757">
        <ele>357</ele>
        <time>2022-04-09T13:22:20.000Z</time>
      </trkpt>
      <trkpt lat="43.87792" lon="7.44757">
        <ele>357.39999389648</ele>
        <time>2022-04-09T13:22:29.000Z</time>
      </trkpt>
      <trkpt lat="43.87793" lon="7.44756">
        <ele>357.39999389648</ele>
        <time>2022-04-09T13:22:53.000Z</time>
      </trkpt>
      <trkpt lat="43.87793" lon="7.44755">
        <ele>357.39999389648</ele>
        <time>2022-04-09T13:23:06.000Z</time>
      </trkpt>
      <trkpt lat="43.87793" lon="7.44756">
        <ele>357.60000610352</ele>
        <time>2022-04-09T13:23:29.000Z</time>
      </trkpt>
      <trkpt lat="43.87793" lon="7.44756">
        <ele>357.20001220703</ele>
        <time>2022-04-09T13:23:54.000Z</time>
      </trkpt>
      <trkpt lat="43.87793" lon="7.44756">
        <ele>357</ele>
        <time>2022-04-09T13:24:07.000Z</time>
      </trkpt>
      <trkpt lat="43.87792" lon="7.44755">
        <ele>356.39999389648</ele>
        <time>2022-04-09T13:24:37.000Z</time>
      </trkpt>
      <trkpt lat="43.87792" lon="7.44754">
        <ele>356.20001220703</ele>
        <time>2022-04-09T13:24:50.000Z</time>
      </trkpt>
      <trkpt lat="43.87793" lon="7.44753">
        <ele>356.20001220703</ele>
        <time>2022-04-09T13:25:16.000Z</time>
      </trkpt>
      <trkpt lat="43.87793" lon="7.44753">
        <ele>356.39999389648</ele>
        <time>2022-04-09T13:25:36.000Z</time>
      </trkpt>
      <trkpt lat="43.87794" lon="7.44753">
        <ele>356</ele>
        <time>2022-04-09T13:25:53.000Z</time>
      </trkpt>
      <trkpt lat="43.87794" lon="7.44754">
        <ele>355.79998779297</ele>
        <time>2022-04-09T13:26:06.000Z</time>
      </trkpt>
      <trkpt lat="43.87794" lon="7.44754">
        <ele>355.60000610352</ele>
        <time>2022-04-09T13:26:15.000Z</time>
      </trkpt>
      <trkpt lat="43.87794" lon="7.44754">
        <ele>356</ele>
        <time>2022-04-09T13:26:45.000Z</time>
      </trkpt>
      <trkpt lat="43.87794" lon="7.44755">
        <ele>356</ele>
        <time>2022-04-09T13:27:15.000Z</time>
      </trkpt>
      <trkpt lat="43.87794" lon="7.44754">
        <ele>355.60000610352</ele>
        <time>2022-04-09T13:27:42.000Z</time>
      </trkpt>
      <trkpt lat="43.87794" lon="7.44753">
        <ele>356</ele>
        <time>2022-04-09T13:28:02.000Z</time>
      </trkpt>
      <trkpt lat="43.87794" lon="7.44753">
        <ele>355.79998779297</ele>
        <time>2022-04-09T13:28:25.000Z</time>
      </trkpt>
      <trkpt lat="43.87794" lon="7.44752">
        <ele>355.79998779297</ele>
        <time>2022-04-09T13:28:47.000Z</time>
      </trkpt>
      <trkpt lat="43.87794" lon="7.44752">
        <ele>356</ele>
        <time>2022-04-09T13:29:14.000Z</time>
      </trkpt>
      <trkpt lat="43.87795" lon="7.44753">
        <ele>355.60000610352</ele>
        <time>2022-04-09T13:29:40.000Z</time>
      </trkpt>
      <trkpt lat="43.87795" lon="7.44753">
        <ele>355.60000610352</ele>
        <time>2022-04-09T13:30:06.000Z</time>
      </trkpt>
      <trkpt lat="43.87795" lon="7.44754">
        <ele>355.60000610352</ele>
        <time>2022-04-09T13:30:30.000Z</time>
      </trkpt>
      <trkpt lat="43.87795" lon="7.44753">
        <ele>355.79998779297</ele>
        <time>2022-04-09T13:30:44.000Z</time>
      </trkpt>
      <trkpt lat="43.87796" lon="7.44754">
        <ele>356</ele>
        <time>2022-04-09T13:31:11.000Z</time>
      </trkpt>
      <trkpt lat="43.87797" lon="7.44755">
        <ele>356</ele>
        <time>2022-04-09T13:31:29.000Z</time>
      </trkpt>
      <trkpt lat="43.87796" lon="7.44756">
        <ele>355.79998779297</ele>
        <time>2022-04-09T13:31:47.000Z</time>
      </trkpt>
      <trkpt lat="43.87795" lon="7.44757">
        <ele>356.20001220703</ele>
        <time>2022-04-09T13:32:09.000Z</time>
      </trkpt>
      <trkpt lat="43.87795" lon="7.44758">
        <ele>356.20001220703</ele>
        <time>2022-04-09T13:32:28.000Z</time>
      </trkpt>
      <trkpt lat="43.87795" lon="7.44758">
        <ele>356.20001220703</ele>
        <time>2022-04-09T13:32:33.000Z</time>
      </trkpt>
      <trkpt lat="43.87795" lon="7.44758">
        <ele>356.60000610352</ele>
        <time>2022-04-09T13:32:42.000Z</time>
      </trkpt>
      <trkpt lat="43.87795" lon="7.44758">
        <ele>356.39999389648</ele>
        <time>2022-04-09T13:32:51.000Z</time>
      </trkpt>
      <trkpt lat="43.87795" lon="7.44758">
        <ele>356.60000610352</ele>
        <time>2022-04-09T13:33:03.000Z</time>
      </trkpt>
      <trkpt lat="43.87795" lon="7.44757">
        <ele>356.39999389648</ele>
        <time>2022-04-09T13:33:13.000Z</time>
      </trkpt>
      <trkpt lat="43.87795" lon="7.44757">
        <ele>356.79998779297</ele>
        <time>2022-04-09T13:33:20.000Z</time>
      </trkpt>
      <trkpt lat="43.87795" lon="7.44756">
        <ele>356.79998779297</ele>
        <time>2022-04-09T13:33:29.000Z</time>
      </trkpt>
      <trkpt lat="43.87795" lon="7.44756">
        <ele>356.20001220703</ele>
        <time>2022-04-09T13:33:42.000Z</time>
      </trkpt>
      <trkpt lat="43.87796" lon="7.44756">
        <ele>355.79998779297</ele>
        <time>2022-04-09T13:33:57.000Z</time>
      </trkpt>
      <trkpt lat="43.87796" lon="7.44756">
        <ele>355.79998779297</ele>
        <time>2022-04-09T13:34:03.000Z</time>
      </trkpt>
      <trkpt lat="43.87796" lon="7.44756">
        <ele>355.60000610352</ele>
        <time>2022-04-09T13:34:28.000Z</time>
      </trkpt>
      <trkpt lat="43.87796" lon="7.44757">
        <ele>356.20001220703</ele>
        <time>2022-04-09T13:34:56.000Z</time>
      </trkpt>
      <trkpt lat="43.87795" lon="7.44757">
        <ele>356.20001220703</ele>
        <time>2022-04-09T13:35:26.000Z</time>
      </trkpt>
      <trkpt lat="43.87795" lon="7.44757">
        <ele>356</ele>
        <time>2022-04-09T13:35:36.000Z</time>
      </trkpt>
      <trkpt lat="43.87795" lon="7.44756">
        <ele>356</ele>
        <time>2022-04-09T13:35:56.000Z</time>
      </trkpt>
      <trkpt lat="43.87796" lon="7.44756">
        <ele>356</ele>
        <time>2022-04-09T13:36:13.000Z</time>
      </trkpt>
      <trkpt lat="43.87796" lon="7.44756">
        <ele>356.20001220703</ele>
        <time>2022-04-09T13:36:25.000Z</time>
      </trkpt>
      <trkpt lat="43.87797" lon="7.44754">
        <ele>356.20001220703</ele>
        <time>2022-04-09T13:36:40.000Z</time>
      </trkpt>
      <trkpt lat="43.87798" lon="7.44753">
        <ele>356</ele>
        <time>2022-04-09T13:37:02.000Z</time>
      </trkpt>
      <trkpt lat="43.87798" lon="7.44752">
        <ele>356.39999389648</ele>
        <time>2022-04-09T13:37:23.000Z</time>
      </trkpt>
      <trkpt lat="43.87799" lon="7.44752">
        <ele>356.60000610352</ele>
        <time>2022-04-09T13:37:39.000Z</time>
      </trkpt>
      <trkpt lat="43.87799" lon="7.44753">
        <ele>356.79998779297</ele>
        <time>2022-04-09T13:37:49.000Z</time>
      </trkpt>
      <trkpt lat="43.87799" lon="7.44753">
        <ele>356.79998779297</ele>
        <time>2022-04-09T13:38:02.000Z</time>
      </trkpt>
      <trkpt lat="43.87798" lon="7.44753">
        <ele>356.60000610352</ele>
        <time>2022-04-09T13:38:26.000Z</time>
      </trkpt>
      <trkpt lat="43.87798" lon="7.44754">
        <ele>356.39999389648</ele>
        <time>2022-04-09T13:38:46.000Z</time>
      </trkpt>
      <trkpt lat="43.87797" lon="7.44754">
        <ele>356.39999389648</ele>
        <time>2022-04-09T13:39:09.000Z</time>
      </trkpt>
      <trkpt lat="43.87797" lon="7.44753">
        <ele>356.20001220703</ele>
        <time>2022-04-09T13:39:35.000Z</time>
      </trkpt>
      <trkpt lat="43.87797" lon="7.44753">
        <ele>356.20001220703</ele>
        <time>2022-04-09T13:39:53.000Z</time>
      </trkpt>
      <trkpt lat="43.87796" lon="7.44755">
        <ele>356.20001220703</ele>
        <time>2022-04-09T13:40:18.000Z</time>
      </trkpt>
      <trkpt lat="43.87796" lon="7.44756">
        <ele>356.20001220703</ele>
        <time>2022-04-09T13:40:40.000Z</time>
      </trkpt>
      <trkpt lat="43.87795" lon="7.44757">
        <ele>356.20001220703</ele>
        <time>2022-04-09T13:41:04.000Z</time>
      </trkpt>
      <trkpt lat="43.87795" lon="7.44757">
        <ele>356</ele>
        <time>2022-04-09T13:41:31.000Z</time>
      </trkpt>
      <trkpt lat="43.87795" lon="7.44758">
        <ele>357</ele>
        <time>2022-04-09T13:41:56.000Z</time>
      </trkpt>
      <trkpt lat="43.87795" lon="7.44758">
        <ele>356.20001220703</ele>
        <time>2022-04-09T13:42:15.000Z</time>
      </trkpt>
      <trkpt lat="43.87795" lon="7.44758">
        <ele>356.20001220703</ele>
        <time>2022-04-09T13:42:39.000Z</time>
      </trkpt>
      <trkpt lat="43.87794" lon="7.44758">
        <ele>356.20001220703</ele>
        <time>2022-04-09T13:43:12.000Z</time>
      </trkpt>
      <trkpt lat="43.87794" lon="7.4476">
        <ele>356.20001220703</ele>
        <time>2022-04-09T13:43:39.000Z</time>
      </trkpt>
      <trkpt lat="43.87794" lon="7.4476">
        <ele>356.39999389648</ele>
        <time>2022-04-09T13:43:55.000Z</time>
      </trkpt>
      <trkpt lat="43.87794" lon="7.4476">
        <ele>356.20001220703</ele>
        <time>2022-04-09T13:44:04.000Z</time>
      </trkpt>
      <trkpt lat="43.87794" lon="7.4476">
        <ele>356.39999389648</ele>
        <time>2022-04-09T13:44:15.000Z</time>
      </trkpt>
      <trkpt lat="43.87795" lon="7.44759">
        <ele>356.20001220703</ele>
        <time>2022-04-09T13:44:27.000Z</time>
      </trkpt>
      <trkpt lat="43.87795" lon="7.4476">
        <ele>356.39999389648</ele>
        <time>2022-04-09T13:44:37.000Z</time>
      </trkpt>
      <trkpt lat="43.87795" lon="7.44759">
        <ele>356.20001220703</ele>
        <time>2022-04-09T13:44:48.000Z</time>
      </trkpt>
      <trkpt lat="43.87795" lon="7.44758">
        <ele>357.20001220703</ele>
        <time>2022-04-09T13:44:59.000Z</time>
      </trkpt>
      <trkpt lat="43.87795" lon="7.44758">
        <ele>357</ele>
        <time>2022-04-09T13:45:07.000Z</time>
      </trkpt>
      <trkpt lat="43.87793" lon="7.4476">
        <ele>356.39999389648</ele>
        <time>2022-04-09T13:45:17.000Z</time>
      </trkpt>
      <trkpt lat="43.87792" lon="7.44761">
        <ele>356.39999389648</ele>
        <time>2022-04-09T13:45:24.000Z</time>
      </trkpt>
      <trkpt lat="43.87791" lon="7.44761">
        <ele>356.60000610352</ele>
        <time>2022-04-09T13:45:32.000Z</time>
      </trkpt>
      <trkpt lat="43.87791" lon="7.4476">
        <ele>356.79998779297</ele>
        <time>2022-04-09T13:45:39.000Z</time>
      </trkpt>
      <trkpt lat="43.87792" lon="7.4476">
        <ele>357</ele>
        <time>2022-04-09T13:45:52.000Z</time>
      </trkpt>
      <trkpt lat="43.87793" lon="7.44762">
        <ele>356.79998779297</ele>
        <time>2022-04-09T13:46:01.000Z</time>
      </trkpt>
      <trkpt lat="43.87793" lon="7.44761">
        <ele>356.60000610352</ele>
        <time>2022-04-09T13:46:08.000Z</time>
      </trkpt>
      <trkpt lat="43.87793" lon="7.44759">
        <ele>356</ele>
        <time>2022-04-09T13:46:24.000Z</time>
      </trkpt>
      <trkpt lat="43.87793" lon="7.44757">
        <ele>356</ele>
        <time>2022-04-09T13:46:31.000Z</time>
      </trkpt>
      <trkpt lat="43.87793" lon="7.44758">
        <ele>356.20001220703</ele>
        <time>2022-04-09T13:46:38.000Z</time>
      </trkpt>
      <trkpt lat="43.87792" lon="7.4476">
        <ele>356.20001220703</ele>
        <time>2022-04-09T13:46:48.000Z</time>
      </trkpt>
      <trkpt lat="43.87791" lon="7.44761">
        <ele>356</ele>
        <time>2022-04-09T13:46:55.000Z</time>
      </trkpt>
      <trkpt lat="43.87791" lon="7.44762">
        <ele>356.20001220703</ele>
        <time>2022-04-09T13:47:12.000Z</time>
      </trkpt>
      <trkpt lat="43.87791" lon="7.44762">
        <ele>356.39999389648</ele>
        <time>2022-04-09T13:47:30.000Z</time>
      </trkpt>
      <trkpt lat="43.8779" lon="7.44764">
        <ele>356.20001220703</ele>
        <time>2022-04-09T13:47:45.000Z</time>
      </trkpt>
      <trkpt lat="43.87789" lon="7.44765">
        <ele>356.60000610352</ele>
        <time>2022-04-09T13:47:57.000Z</time>
      </trkpt>
      <trkpt lat="43.87789" lon="7.44766">
        <ele>356.39999389648</ele>
        <time>2022-04-09T13:48:04.000Z</time>
      </trkpt>
      <trkpt lat="43.87788" lon="7.44767">
        <ele>356</ele>
        <time>2022-04-09T13:48:11.000Z</time>
      </trkpt>
      <trkpt lat="43.87788" lon="7.44767">
        <ele>355.60000610352</ele>
        <time>2022-04-09T13:48:18.000Z</time>
      </trkpt>
      <trkpt lat="43.87788" lon="7.44768">
        <ele>355.79998779297</ele>
        <time>2022-04-09T13:48:28.000Z</time>
      </trkpt>
      <trkpt lat="43.87787" lon="7.44769">
        <ele>356</ele>
        <time>2022-04-09T13:48:53.000Z</time>
      </trkpt>
      <trkpt lat="43.87787" lon="7.44768">
        <ele>356</ele>
        <time>2022-04-09T13:49:06.000Z</time>
      </trkpt>
      <trkpt lat="43.87787" lon="7.44767">
        <ele>356</ele>
        <time>2022-04-09T13:49:24.000Z</time>
      </trkpt>
      <trkpt lat="43.87788" lon="7.44767">
        <ele>356.20001220703</ele>
        <time>2022-04-09T13:49:52.000Z</time>
      </trkpt>
      <trkpt lat="43.87787" lon="7.44768">
        <ele>356.20001220703</ele>
        <time>2022-04-09T13:50:03.000Z</time>
      </trkpt>
      <trkpt lat="43.87784" lon="7.44774">
        <ele>355.79998779297</ele>
        <time>2022-04-09T13:50:09.000Z</time>
      </trkpt>
      <trkpt lat="43.8778" lon="7.44791">
        <ele>355.60000610352</ele>
        <time>2022-04-09T13:50:15.000Z</time>
      </trkpt>
      <trkpt lat="43.87778" lon="7.44824">
        <ele>355.39999389648</ele>
        <time>2022-04-09T13:50:22.000Z</time>
      </trkpt>
      <trkpt lat="43.87778" lon="7.44854">
        <ele>355.39999389648</ele>
        <time>2022-04-09T13:50:29.000Z</time>
      </trkpt>
      <trkpt lat="43.87779" lon="7.44869">
        <ele>355.79998779297</ele>
        <time>2022-04-09T13:50:34.000Z</time>
      </trkpt>
      <trkpt lat="43.87779" lon="7.44892">
        <ele>356</ele>
        <time>2022-04-09T13:50:40.000Z</time>
      </trkpt>
      <trkpt lat="43.87774" lon="7.44921">
        <ele>356.39999389648</ele>
        <time>2022-04-09T13:50:47.000Z</time>
      </trkpt>
      <trkpt lat="43.87766" lon="7.44961">
        <ele>356.60000610352</ele>
        <time>2022-04-09T13:50:56.000Z</time>
      </trkpt>
      <trkpt lat="43.87766" lon="7.44965">
        <ele>356.79998779297</ele>
        <time>2022-04-09T13:50:57.000Z</time>
      </trkpt>
      <trkpt lat="43.87765" lon="7.44983">
        <ele>355.79998779297</ele>
        <time>2022-04-09T13:51:01.000Z</time>
      </trkpt>
      <trkpt lat="43.8776" lon="7.44995">
        <ele>355.39999389648</ele>
        <time>2022-04-09T13:51:04.000Z</time>
      </trkpt>
      <trkpt lat="43.87746" lon="7.45">
        <ele>356.60000610352</ele>
        <time>2022-04-09T13:51:08.000Z</time>
      </trkpt>
      <trkpt lat="43.87743" lon="7.45001">
        <ele>357</ele>
        <time>2022-04-09T13:51:09.000Z</time>
      </trkpt>
      <trkpt lat="43.87722" lon="7.45012">
        <ele>356.60000610352</ele>
        <time>2022-04-09T13:51:15.000Z</time>
      </trkpt>
      <trkpt lat="43.8769" lon="7.45034">
        <ele>357.39999389648</ele>
        <time>2022-04-09T13:51:24.000Z</time>
      </trkpt>
      <trkpt lat="43.87671" lon="7.45048">
        <ele>358</ele>
        <time>2022-04-09T13:51:30.000Z</time>
      </trkpt>
      <trkpt lat="43.87659" lon="7.45056">
        <ele>358.39999389648</ele>
        <time>2022-04-09T13:51:34.000Z</time>
      </trkpt>
      <trkpt lat="43.8765" lon="7.45067">
        <ele>359</ele>
        <time>2022-04-09T13:51:39.000Z</time>
      </trkpt>
      <trkpt lat="43.87649" lon="7.45069">
        <ele>359</ele>
        <time>2022-04-09T13:51:40.000Z</time>
      </trkpt>
      <trkpt lat="43.87648" lon="7.45081">
        <ele>359.39999389648</ele>
        <time>2022-04-09T13:51:45.000Z</time>
      </trkpt>
      <trkpt lat="43.87648" lon="7.45095">
        <ele>360.20001220703</ele>
        <time>2022-04-09T13:51:50.000Z</time>
      </trkpt>
      <trkpt lat="43.87648" lon="7.45099">
        <ele>360.39999389648</ele>
        <time>2022-04-09T13:51:51.000Z</time>
      </trkpt>
      <trkpt lat="43.87648" lon="7.45109">
        <ele>361.39999389648</ele>
        <time>2022-04-09T13:51:54.000Z</time>
      </trkpt>
      <trkpt lat="43.87648" lon="7.45119">
        <ele>362.60000610352</ele>
        <time>2022-04-09T13:51:57.000Z</time>
      </trkpt>
      <trkpt lat="43.87648" lon="7.45122">
        <ele>363</ele>
        <time>2022-04-09T13:51:58.000Z</time>
      </trkpt>
      <trkpt lat="43.87648" lon="7.4513">
        <ele>363.79998779297</ele>
        <time>2022-04-09T13:52:01.000Z</time>
      </trkpt>
      <trkpt lat="43.87648" lon="7.45135">
        <ele>364.60000610352</ele>
        <time>2022-04-09T13:52:03.000Z</time>
      </trkpt>
      <trkpt lat="43.87648" lon="7.45138">
        <ele>365</ele>
        <time>2022-04-09T13:52:04.000Z</time>
      </trkpt>
      <trkpt lat="43.87646" lon="7.45148">
        <ele>366.39999389648</ele>
        <time>2022-04-09T13:52:08.000Z</time>
      </trkpt>
      <trkpt lat="43.87642" lon="7.45157">
        <ele>367.39999389648</ele>
        <time>2022-04-09T13:52:13.000Z</time>
      </trkpt>
      <trkpt lat="43.87641" lon="7.45158">
        <ele>367.79998779297</ele>
        <time>2022-04-09T13:52:14.000Z</time>
      </trkpt>
      <trkpt lat="43.87635" lon="7.45162">
        <ele>368.79998779297</ele>
        <time>2022-04-09T13:52:17.000Z</time>
      </trkpt>
      <trkpt lat="43.87629" lon="7.45162">
        <ele>369.60000610352</ele>
        <time>2022-04-09T13:52:20.000Z</time>
      </trkpt>
      <trkpt lat="43.87627" lon="7.45164">
        <ele>369.79998779297</ele>
        <time>2022-04-09T13:52:21.000Z</time>
      </trkpt>
      <trkpt lat="43.87618" lon="7.45168">
        <ele>371.20001220703</ele>
        <time>2022-04-09T13:52:26.000Z</time>
      </trkpt>
      <trkpt lat="43.87608" lon="7.45172">
        <ele>372.39999389648</ele>
        <time>2022-04-09T13:52:31.000Z</time>
      </trkpt>
      <trkpt lat="43.87604" lon="7.45174">
        <ele>372.79998779297</ele>
        <time>2022-04-09T13:52:33.000Z</time>
      </trkpt>
      <trkpt lat="43.87597" lon="7.45178">
        <ele>373.39999389648</ele>
        <time>2022-04-09T13:52:37.000Z</time>
      </trkpt>
      <trkpt lat="43.87591" lon="7.45181">
        <ele>373.39999389648</ele>
        <time>2022-04-09T13:52:40.000Z</time>
      </trkpt>
      <trkpt lat="43.87579" lon="7.45185">
        <ele>374.20001220703</ele>
        <time>2022-04-09T13:52:46.000Z</time>
      </trkpt>
      <trkpt lat="43.87574" lon="7.45187">
        <ele>374.60000610352</ele>
        <time>2022-04-09T13:52:48.000Z</time>
      </trkpt>
      <trkpt lat="43.87569" lon="7.45188">
        <ele>375</ele>
        <time>2022-04-09T13:52:50.000Z</time>
      </trkpt>
      <trkpt lat="43.87561" lon="7.45189">
        <ele>375.79998779297</ele>
        <time>2022-04-09T13:52:54.000Z</time>
      </trkpt>
      <trkpt lat="43.87558" lon="7.4519">
        <ele>376.20001220703</ele>
        <time>2022-04-09T13:52:56.000Z</time>
      </trkpt>
      <trkpt lat="43.87553" lon="7.4519">
        <ele>377</ele>
        <time>2022-04-09T13:52:58.000Z</time>
      </trkpt>
      <trkpt lat="43.87544" lon="7.45192">
        <ele>378.60000610352</ele>
        <time>2022-04-09T13:53:01.000Z</time>
      </trkpt>
      <trkpt lat="43.87538" lon="7.45194">
        <ele>379.60000610352</ele>
        <time>2022-04-09T13:53:03.000Z</time>
      </trkpt>
      <trkpt lat="43.87532" lon="7.45195">
        <ele>380.79998779297</ele>
        <time>2022-04-09T13:53:05.000Z</time>
      </trkpt>
      <trkpt lat="43.87526" lon="7.45197">
        <ele>382.20001220703</ele>
        <time>2022-04-09T13:53:07.000Z</time>
      </trkpt>
      <trkpt lat="43.87521" lon="7.45197">
        <ele>383.39999389648</ele>
        <time>2022-04-09T13:53:09.000Z</time>
      </trkpt>
      <trkpt lat="43.87518" lon="7.45198">
        <ele>384.79998779297</ele>
        <time>2022-04-09T13:53:11.000Z</time>
      </trkpt>
      <trkpt lat="43.87519" lon="7.45198">
        <ele>386</ele>
        <time>2022-04-09T13:53:13.000Z</time>
      </trkpt>
      <trkpt lat="43.87518" lon="7.45198">
        <ele>387</ele>
        <time>2022-04-09T13:53:15.000Z</time>
      </trkpt>
      <trkpt lat="43.87518" lon="7.45198">
        <ele>387.20001220703</ele>
        <time>2022-04-09T13:53:16.000Z</time>
      </trkpt>
      <trkpt lat="43.87516" lon="7.45199">
        <ele>387.20001220703</ele>
        <time>2022-04-09T13:53:23.000Z</time>
      </trkpt>
      <trkpt lat="43.87514" lon="7.452">
        <ele>388.20001220703</ele>
        <time>2022-04-09T13:53:29.000Z</time>
      </trkpt>
      <trkpt lat="43.87513" lon="7.452">
        <ele>388.39999389648</ele>
        <time>2022-04-09T13:53:30.000Z</time>
      </trkpt>
      <trkpt lat="43.87511" lon="7.45202">
        <ele>388.39999389648</ele>
        <time>2022-04-09T13:53:39.000Z</time>
      </trkpt>
      <trkpt lat="43.87511" lon="7.45205">
        <ele>388.20001220703</ele>
        <time>2022-04-09T13:53:45.000Z</time>
      </trkpt>
      <trkpt lat="43.87513" lon="7.45217">
        <ele>388</ele>
        <time>2022-04-09T13:53:49.000Z</time>
      </trkpt>
      <trkpt lat="43.87514" lon="7.45247">
        <ele>387.20001220703</ele>
        <time>2022-04-09T13:53:55.000Z</time>
      </trkpt>
      <trkpt lat="43.87519" lon="7.4528">
        <ele>386</ele>
        <time>2022-04-09T13:54:00.000Z</time>
      </trkpt>
      <trkpt lat="43.8752" lon="7.45288">
        <ele>385.60000610352</ele>
        <time>2022-04-09T13:54:01.000Z</time>
      </trkpt>
      <trkpt lat="43.87525" lon="7.45311">
        <ele>384.79998779297</ele>
        <time>2022-04-09T13:54:04.000Z</time>
      </trkpt>
      <trkpt lat="43.87531" lon="7.45339">
        <ele>384.39999389648</ele>
        <time>2022-04-09T13:54:08.000Z</time>
      </trkpt>
      <trkpt lat="43.87532" lon="7.45353">
        <ele>383.60000610352</ele>
        <time>2022-04-09T13:54:10.000Z</time>
      </trkpt>
      <trkpt lat="43.87532" lon="7.45361">
        <ele>383.20001220703</ele>
        <time>2022-04-09T13:54:11.000Z</time>
      </trkpt>
      <trkpt lat="43.87531" lon="7.45376">
        <ele>382.39999389648</ele>
        <time>2022-04-09T13:54:13.000Z</time>
      </trkpt>
      <trkpt lat="43.87529" lon="7.45407">
        <ele>381.20001220703</ele>
        <time>2022-04-09T13:54:17.000Z</time>
      </trkpt>
      <trkpt lat="43.87526" lon="7.45431">
        <ele>380.20001220703</ele>
        <time>2022-04-09T13:54:20.000Z</time>
      </trkpt>
      <trkpt lat="43.87523" lon="7.45438">
        <ele>380</ele>
        <time>2022-04-09T13:54:21.000Z</time>
      </trkpt>
      <trkpt lat="43.87519" lon="7.45452">
        <ele>379.79998779297</ele>
        <time>2022-04-09T13:54:24.000Z</time>
      </trkpt>
      <trkpt lat="43.87518" lon="7.45462">
        <ele>381</ele>
        <time>2022-04-09T13:54:27.000Z</time>
      </trkpt>
      <trkpt lat="43.87517" lon="7.45469">
        <ele>382.20001220703</ele>
        <time>2022-04-09T13:54:29.000Z</time>
      </trkpt>
      <trkpt lat="43.87515" lon="7.4548">
        <ele>383.20001220703</ele>
        <time>2022-04-09T13:54:32.000Z</time>
      </trkpt>
      <trkpt lat="43.87513" lon="7.4549">
        <ele>384.39999389648</ele>
        <time>2022-04-09T13:54:35.000Z</time>
      </trkpt>
      <trkpt lat="43.87512" lon="7.45497">
        <ele>385.20001220703</ele>
        <time>2022-04-09T13:54:37.000Z</time>
      </trkpt>
      <trkpt lat="43.87511" lon="7.455">
        <ele>385.60000610352</ele>
        <time>2022-04-09T13:54:38.000Z</time>
      </trkpt>
      <trkpt lat="43.87508" lon="7.45515">
        <ele>386.79998779297</ele>
        <time>2022-04-09T13:54:42.000Z</time>
      </trkpt>
      <trkpt lat="43.87504" lon="7.45524">
        <ele>387.79998779297</ele>
        <time>2022-04-09T13:54:45.000Z</time>
      </trkpt>
      <trkpt lat="43.87503" lon="7.45527">
        <ele>388.20001220703</ele>
        <time>2022-04-09T13:54:46.000Z</time>
      </trkpt>
      <trkpt lat="43.87499" lon="7.45539">
        <ele>389.39999389648</ele>
        <time>2022-04-09T13:54:50.000Z</time>
      </trkpt>
      <trkpt lat="43.87497" lon="7.45544">
        <ele>390</ele>
        <time>2022-04-09T13:54:52.000Z</time>
      </trkpt>
      <trkpt lat="43.87495" lon="7.4555">
        <ele>390.60000610352</ele>
        <time>2022-04-09T13:54:54.000Z</time>
      </trkpt>
      <trkpt lat="43.87491" lon="7.45563">
        <ele>391.60000610352</ele>
        <time>2022-04-09T13:54:58.000Z</time>
      </trkpt>
      <trkpt lat="43.87486" lon="7.45576">
        <ele>392.60000610352</ele>
        <time>2022-04-09T13:55:02.000Z</time>
      </trkpt>
      <trkpt lat="43.87482" lon="7.45585">
        <ele>393.60000610352</ele>
        <time>2022-04-09T13:55:05.000Z</time>
      </trkpt>
      <trkpt lat="43.87481" lon="7.45588">
        <ele>393.79998779297</ele>
        <time>2022-04-09T13:55:06.000Z</time>
      </trkpt>
      <trkpt lat="43.87478" lon="7.45598">
        <ele>395</ele>
        <time>2022-04-09T13:55:09.000Z</time>
      </trkpt>
      <trkpt lat="43.87474" lon="7.4561">
        <ele>396.20001220703</ele>
        <time>2022-04-09T13:55:13.000Z</time>
      </trkpt>
      <trkpt lat="43.87471" lon="7.45624">
        <ele>397.60000610352</ele>
        <time>2022-04-09T13:55:17.000Z</time>
      </trkpt>
      <trkpt lat="43.87468" lon="7.45633">
        <ele>398.60000610352</ele>
        <time>2022-04-09T13:55:20.000Z</time>
      </trkpt>
      <trkpt lat="43.87466" lon="7.45636">
        <ele>399</ele>
        <time>2022-04-09T13:55:21.000Z</time>
      </trkpt>
      <trkpt lat="43.87464" lon="7.45642">
        <ele>399.60000610352</ele>
        <time>2022-04-09T13:55:23.000Z</time>
      </trkpt>
      <trkpt lat="43.87459" lon="7.45651">
        <ele>400.79998779297</ele>
        <time>2022-04-09T13:55:26.000Z</time>
      </trkpt>
      <trkpt lat="43.87456" lon="7.45655">
        <ele>401.39999389648</ele>
        <time>2022-04-09T13:55:28.000Z</time>
      </trkpt>
      <trkpt lat="43.87453" lon="7.45657">
        <ele>402</ele>
        <time>2022-04-09T13:55:29.000Z</time>
      </trkpt>
      <trkpt lat="43.87447" lon="7.45664">
        <ele>403.20001220703</ele>
        <time>2022-04-09T13:55:32.000Z</time>
      </trkpt>
      <trkpt lat="43.87441" lon="7.45669">
        <ele>404.39999389648</ele>
        <time>2022-04-09T13:55:35.000Z</time>
      </trkpt>
      <trkpt lat="43.87436" lon="7.45679">
        <ele>405.60000610352</ele>
        <time>2022-04-09T13:55:39.000Z</time>
      </trkpt>
      <trkpt lat="43.87433" lon="7.45685">
        <ele>406.39999389648</ele>
        <time>2022-04-09T13:55:41.000Z</time>
      </trkpt>
      <trkpt lat="43.87431" lon="7.45688">
        <ele>406.79998779297</ele>
        <time>2022-04-09T13:55:42.000Z</time>
      </trkpt>
      <trkpt lat="43.87427" lon="7.45697">
        <ele>408</ele>
        <time>2022-04-09T13:55:45.000Z</time>
      </trkpt>
      <trkpt lat="43.87425" lon="7.45707">
        <ele>409.20001220703</ele>
        <time>2022-04-09T13:55:48.000Z</time>
      </trkpt>
      <trkpt lat="43.87426" lon="7.45713">
        <ele>409.79998779297</ele>
        <time>2022-04-09T13:55:50.000Z</time>
      </trkpt>
      <trkpt lat="43.87428" lon="7.45719">
        <ele>410.39999389648</ele>
        <time>2022-04-09T13:55:52.000Z</time>
      </trkpt>
      <trkpt lat="43.87433" lon="7.4573">
        <ele>411.79998779297</ele>
        <time>2022-04-09T13:55:56.000Z</time>
      </trkpt>
      <trkpt lat="43.8744" lon="7.45739">
        <ele>413</ele>
        <time>2022-04-09T13:56:00.000Z</time>
      </trkpt>
      <trkpt lat="43.87442" lon="7.45745">
        <ele>413.60000610352</ele>
        <time>2022-04-09T13:56:02.000Z</time>
      </trkpt>
      <trkpt lat="43.87444" lon="7.4575">
        <ele>414.20001220703</ele>
        <time>2022-04-09T13:56:04.000Z</time>
      </trkpt>
      <trkpt lat="43.87447" lon="7.45762">
        <ele>415.39999389648</ele>
        <time>2022-04-09T13:56:08.000Z</time>
      </trkpt>
      <trkpt lat="43.87448" lon="7.45765">
        <ele>415.79998779297</ele>
        <time>2022-04-09T13:56:09.000Z</time>
      </trkpt>
      <trkpt lat="43.87448" lon="7.45772">
        <ele>416.60000610352</ele>
        <time>2022-04-09T13:56:11.000Z</time>
      </trkpt>
      <trkpt lat="43.87447" lon="7.45781">
        <ele>417.60000610352</ele>
        <time>2022-04-09T13:56:14.000Z</time>
      </trkpt>
      <trkpt lat="43.87447" lon="7.45785">
        <ele>417.79998779297</ele>
        <time>2022-04-09T13:56:15.000Z</time>
      </trkpt>
      <trkpt lat="43.87448" lon="7.45799">
        <ele>419</ele>
        <time>2022-04-09T13:56:19.000Z</time>
      </trkpt>
      <trkpt lat="43.87449" lon="7.4581">
        <ele>419.79998779297</ele>
        <time>2022-04-09T13:56:22.000Z</time>
      </trkpt>
      <trkpt lat="43.87448" lon="7.45819">
        <ele>420</ele>
        <time>2022-04-09T13:56:24.000Z</time>
      </trkpt>
      <trkpt lat="43.87449" lon="7.4584">
        <ele>421</ele>
        <time>2022-04-09T13:56:29.000Z</time>
      </trkpt>
      <trkpt lat="43.87447" lon="7.45861">
        <ele>422</ele>
        <time>2022-04-09T13:56:34.000Z</time>
      </trkpt>
      <trkpt lat="43.87446" lon="7.45878">
        <ele>423.39999389648</ele>
        <time>2022-04-09T13:56:38.000Z</time>
      </trkpt>
      <trkpt lat="43.87445" lon="7.45886">
        <ele>424</ele>
        <time>2022-04-09T13:56:40.000Z</time>
      </trkpt>
      <trkpt lat="43.87444" lon="7.45895">
        <ele>424.60000610352</ele>
        <time>2022-04-09T13:56:42.000Z</time>
      </trkpt>
      <trkpt lat="43.87442" lon="7.45907">
        <ele>425.79998779297</ele>
        <time>2022-04-09T13:56:45.000Z</time>
      </trkpt>
      <trkpt lat="43.8744" lon="7.45924">
        <ele>427</ele>
        <time>2022-04-09T13:56:49.000Z</time>
      </trkpt>
      <trkpt lat="43.87438" lon="7.45936">
        <ele>428</ele>
        <time>2022-04-09T13:56:52.000Z</time>
      </trkpt>
      <trkpt lat="43.87436" lon="7.45948">
        <ele>429.20001220703</ele>
        <time>2022-04-09T13:56:55.000Z</time>
      </trkpt>
      <trkpt lat="43.87434" lon="7.45959">
        <ele>430.20001220703</ele>
        <time>2022-04-09T13:56:58.000Z</time>
      </trkpt>
      <trkpt lat="43.87429" lon="7.45975">
        <ele>431.60000610352</ele>
        <time>2022-04-09T13:57:02.000Z</time>
      </trkpt>
      <trkpt lat="43.87426" lon="7.45982">
        <ele>432.20001220703</ele>
        <time>2022-04-09T13:57:04.000Z</time>
      </trkpt>
      <trkpt lat="43.87422" lon="7.45988">
        <ele>432.60000610352</ele>
        <time>2022-04-09T13:57:06.000Z</time>
      </trkpt>
      <trkpt lat="43.87413" lon="7.45998">
        <ele>433.79998779297</ele>
        <time>2022-04-09T13:57:10.000Z</time>
      </trkpt>
      <trkpt lat="43.87411" lon="7.46001">
        <ele>434.20001220703</ele>
        <time>2022-04-09T13:57:11.000Z</time>
      </trkpt>
      <trkpt lat="43.87407" lon="7.46004">
        <ele>434.79998779297</ele>
        <time>2022-04-09T13:57:13.000Z</time>
      </trkpt>
      <trkpt lat="43.87401" lon="7.46009">
        <ele>435.79998779297</ele>
        <time>2022-04-09T13:57:15.000Z</time>
      </trkpt>
      <trkpt lat="43.87397" lon="7.46012">
        <ele>436.60000610352</ele>
        <time>2022-04-09T13:57:17.000Z</time>
      </trkpt>
      <trkpt lat="43.87395" lon="7.46014">
        <ele>437</ele>
        <time>2022-04-09T13:57:18.000Z</time>
      </trkpt>
      <trkpt lat="43.87387" lon="7.46027">
        <ele>438.20001220703</ele>
        <time>2022-04-09T13:57:23.000Z</time>
      </trkpt>
      <trkpt lat="43.87385" lon="7.4603">
        <ele>438.60000610352</ele>
        <time>2022-04-09T13:57:24.000Z</time>
      </trkpt>
      <trkpt lat="43.87381" lon="7.46036">
        <ele>439.39999389648</ele>
        <time>2022-04-09T13:57:26.000Z</time>
      </trkpt>
      <trkpt lat="43.87376" lon="7.46044">
        <ele>440.60000610352</ele>
        <time>2022-04-09T13:57:29.000Z</time>
      </trkpt>
      <trkpt lat="43.87371" lon="7.46051">
        <ele>441.60000610352</ele>
        <time>2022-04-09T13:57:32.000Z</time>
      </trkpt>
      <trkpt lat="43.87369" lon="7.46053">
        <ele>442.20001220703</ele>
        <time>2022-04-09T13:57:33.000Z</time>
      </trkpt>
      <trkpt lat="43.87365" lon="7.46058">
        <ele>442.79998779297</ele>
        <time>2022-04-09T13:57:35.000Z</time>
      </trkpt>
      <trkpt lat="43.87359" lon="7.46064">
        <ele>443.79998779297</ele>
        <time>2022-04-09T13:57:38.000Z</time>
      </trkpt>
      <trkpt lat="43.87355" lon="7.46068">
        <ele>444.60000610352</ele>
        <time>2022-04-09T13:57:40.000Z</time>
      </trkpt>
      <trkpt lat="43.87353" lon="7.4607">
        <ele>445</ele>
        <time>2022-04-09T13:57:41.000Z</time>
      </trkpt>
      <trkpt lat="43.87346" lon="7.46077">
        <ele>446</ele>
        <time>2022-04-09T13:57:44.000Z</time>
      </trkpt>
      <trkpt lat="43.87342" lon="7.4608">
        <ele>446.79998779297</ele>
        <time>2022-04-09T13:57:46.000Z</time>
      </trkpt>
      <trkpt lat="43.87336" lon="7.46084">
        <ele>447.20001220703</ele>
        <time>2022-04-09T13:57:48.000Z</time>
      </trkpt>
      <trkpt lat="43.8733" lon="7.46092">
        <ele>448</ele>
        <time>2022-04-09T13:57:51.000Z</time>
      </trkpt>
      <trkpt lat="43.87329" lon="7.46094">
        <ele>448.39999389648</ele>
        <time>2022-04-09T13:57:52.000Z</time>
      </trkpt>
      <trkpt lat="43.87328" lon="7.4611">
        <ele>449.60000610352</ele>
        <time>2022-04-09T13:57:56.000Z</time>
      </trkpt>
      <trkpt lat="43.87331" lon="7.46117">
        <ele>450.60000610352</ele>
        <time>2022-04-09T13:57:59.000Z</time>
      </trkpt>
      <trkpt lat="43.87334" lon="7.46119">
        <ele>450.79998779297</ele>
        <time>2022-04-09T13:58:00.000Z</time>
      </trkpt>
      <trkpt lat="43.87341" lon="7.46124">
        <ele>452</ele>
        <time>2022-04-09T13:58:03.000Z</time>
      </trkpt>
      <trkpt lat="43.87349" lon="7.46131">
        <ele>453.20001220703</ele>
        <time>2022-04-09T13:58:06.000Z</time>
      </trkpt>
      <trkpt lat="43.87352" lon="7.46134">
        <ele>453.79998779297</ele>
        <time>2022-04-09T13:58:07.000Z</time>
      </trkpt>
      <trkpt lat="43.87355" lon="7.4614">
        <ele>454.79998779297</ele>
        <time>2022-04-09T13:58:09.000Z</time>
      </trkpt>
      <trkpt lat="43.87363" lon="7.46146">
        <ele>455.79998779297</ele>
        <time>2022-04-09T13:58:12.000Z</time>
      </trkpt>
      <trkpt lat="43.87366" lon="7.46147">
        <ele>456</ele>
        <time>2022-04-09T13:58:13.000Z</time>
      </trkpt>
      <trkpt lat="43.8738" lon="7.4615">
        <ele>457</ele>
        <time>2022-04-09T13:58:18.000Z</time>
      </trkpt>
      <trkpt lat="43.87389" lon="7.46152">
        <ele>458</ele>
        <time>2022-04-09T13:58:21.000Z</time>
      </trkpt>
      <trkpt lat="43.87397" lon="7.46156">
        <ele>459.60000610352</ele>
        <time>2022-04-09T13:58:24.000Z</time>
      </trkpt>
      <trkpt lat="43.87402" lon="7.46161">
        <ele>460.60000610352</ele>
        <time>2022-04-09T13:58:26.000Z</time>
      </trkpt>
      <trkpt lat="43.87407" lon="7.46164">
        <ele>461.39999389648</ele>
        <time>2022-04-09T13:58:28.000Z</time>
      </trkpt>
      <trkpt lat="43.87409" lon="7.46166">
        <ele>462</ele>
        <time>2022-04-09T13:58:29.000Z</time>
      </trkpt>
      <trkpt lat="43.87416" lon="7.46176">
        <ele>463</ele>
        <time>2022-04-09T13:58:33.000Z</time>
      </trkpt>
      <trkpt lat="43.87418" lon="7.46183">
        <ele>463.39999389648</ele>
        <time>2022-04-09T13:58:35.000Z</time>
      </trkpt>
      <trkpt lat="43.87416" lon="7.46194">
        <ele>464.20001220703</ele>
        <time>2022-04-09T13:58:38.000Z</time>
      </trkpt>
      <trkpt lat="43.87416" lon="7.46197">
        <ele>464.39999389648</ele>
        <time>2022-04-09T13:58:39.000Z</time>
      </trkpt>
      <trkpt lat="43.87412" lon="7.46212">
        <ele>465.39999389648</ele>
        <time>2022-04-09T13:58:43.000Z</time>
      </trkpt>
      <trkpt lat="43.8741" lon="7.46224">
        <ele>466.20001220703</ele>
        <time>2022-04-09T13:58:46.000Z</time>
      </trkpt>
      <trkpt lat="43.8741" lon="7.46228">
        <ele>466.60000610352</ele>
        <time>2022-04-09T13:58:47.000Z</time>
      </trkpt>
      <trkpt lat="43.87411" lon="7.46244">
        <ele>467.79998779297</ele>
        <time>2022-04-09T13:58:51.000Z</time>
      </trkpt>
      <trkpt lat="43.87411" lon="7.46261">
        <ele>468.60000610352</ele>
        <time>2022-04-09T13:58:55.000Z</time>
      </trkpt>
      <trkpt lat="43.87412" lon="7.46265">
        <ele>468.79998779297</ele>
        <time>2022-04-09T13:58:56.000Z</time>
      </trkpt>
      <trkpt lat="43.87415" lon="7.46289">
        <ele>470</ele>
        <time>2022-04-09T13:59:02.000Z</time>
      </trkpt>
      <trkpt lat="43.87416" lon="7.46292">
        <ele>470.39999389648</ele>
        <time>2022-04-09T13:59:03.000Z</time>
      </trkpt>
      <trkpt lat="43.87419" lon="7.46317">
        <ele>471.20001220703</ele>
        <time>2022-04-09T13:59:09.000Z</time>
      </trkpt>
      <trkpt lat="43.87419" lon="7.4633">
        <ele>471.79998779297</ele>
        <time>2022-04-09T13:59:12.000Z</time>
      </trkpt>
      <trkpt lat="43.87419" lon="7.46339">
        <ele>472.20001220703</ele>
        <time>2022-04-09T13:59:14.000Z</time>
      </trkpt>
      <trkpt lat="43.87418" lon="7.46365">
        <ele>473.20001220703</ele>
        <time>2022-04-09T13:59:20.000Z</time>
      </trkpt>
      <trkpt lat="43.87418" lon="7.4637">
        <ele>473.60000610352</ele>
        <time>2022-04-09T13:59:21.000Z</time>
      </trkpt>
      <trkpt lat="43.87416" lon="7.46392">
        <ele>474.20001220703</ele>
        <time>2022-04-09T13:59:26.000Z</time>
      </trkpt>
      <trkpt lat="43.87415" lon="7.46402">
        <ele>474.60000610352</ele>
        <time>2022-04-09T13:59:28.000Z</time>
      </trkpt>
      <trkpt lat="43.8741" lon="7.46423">
        <ele>475.79998779297</ele>
        <time>2022-04-09T13:59:33.000Z</time>
      </trkpt>
      <trkpt lat="43.87412" lon="7.46433">
        <ele>476.39999389648</ele>
        <time>2022-04-09T13:59:35.000Z</time>
      </trkpt>
      <trkpt lat="43.87413" lon="7.46437">
        <ele>476.79998779297</ele>
        <time>2022-04-09T13:59:36.000Z</time>
      </trkpt>
      <trkpt lat="43.87415" lon="7.46442">
        <ele>477</ele>
        <time>2022-04-09T13:59:37.000Z</time>
      </trkpt>
      <trkpt lat="43.87422" lon="7.46457">
        <ele>478</ele>
        <time>2022-04-09T13:59:41.000Z</time>
      </trkpt>
      <trkpt lat="43.8743" lon="7.46472">
        <ele>479.20001220703</ele>
        <time>2022-04-09T13:59:45.000Z</time>
      </trkpt>
      <trkpt lat="43.87441" lon="7.46497">
        <ele>480.20001220703</ele>
        <time>2022-04-09T13:59:51.000Z</time>
      </trkpt>
      <trkpt lat="43.87442" lon="7.46502">
        <ele>480.39999389648</ele>
        <time>2022-04-09T13:59:52.000Z</time>
      </trkpt>
      <trkpt lat="43.87451" lon="7.46535">
        <ele>481.20001220703</ele>
        <time>2022-04-09T13:59:59.000Z</time>
      </trkpt>
      <trkpt lat="43.87452" lon="7.46546">
        <ele>481.39999389648</ele>
        <time>2022-04-09T14:00:01.000Z</time>
      </trkpt>
      <trkpt lat="43.87459" lon="7.46584">
        <ele>481.20001220703</ele>
        <time>2022-04-09T14:00:07.000Z</time>
      </trkpt>
      <trkpt lat="43.87461" lon="7.46609">
        <ele>480.20001220703</ele>
        <time>2022-04-09T14:00:10.000Z</time>
      </trkpt>
      <trkpt lat="43.87459" lon="7.46628">
        <ele>479.20001220703</ele>
        <time>2022-04-09T14:00:12.000Z</time>
      </trkpt>
      <trkpt lat="43.87459" lon="7.4664">
        <ele>478.39999389648</ele>
        <time>2022-04-09T14:00:13.000Z</time>
      </trkpt>
      <trkpt lat="43.87458" lon="7.46651">
        <ele>477.60000610352</ele>
        <time>2022-04-09T14:00:14.000Z</time>
      </trkpt>
      <trkpt lat="43.87458" lon="7.46661">
        <ele>476.79998779297</ele>
        <time>2022-04-09T14:00:15.000Z</time>
      </trkpt>
      <trkpt lat="43.8746" lon="7.46672">
        <ele>476.20001220703</ele>
        <time>2022-04-09T14:00:16.000Z</time>
      </trkpt>
      <trkpt lat="43.87462" lon="7.46683">
        <ele>475.60000610352</ele>
        <time>2022-04-09T14:00:17.000Z</time>
      </trkpt>
      <trkpt lat="43.87469" lon="7.46691">
        <ele>475</ele>
        <time>2022-04-09T14:00:18.000Z</time>
      </trkpt>
      <trkpt lat="43.87473" lon="7.46698">
        <ele>473.79998779297</ele>
        <time>2022-04-09T14:00:19.000Z</time>
      </trkpt>
      <trkpt lat="43.87478" lon="7.46704">
        <ele>473.20001220703</ele>
        <time>2022-04-09T14:00:20.000Z</time>
      </trkpt>
      <trkpt lat="43.87494" lon="7.46723">
        <ele>474</ele>
        <time>2022-04-09T14:00:24.000Z</time>
      </trkpt>
      <trkpt lat="43.87498" lon="7.46727">
        <ele>474.79998779297</ele>
        <time>2022-04-09T14:00:25.000Z</time>
      </trkpt>
      <trkpt lat="43.87506" lon="7.46737">
        <ele>476.20001220703</ele>
        <time>2022-04-09T14:00:27.000Z</time>
      </trkpt>
      <trkpt lat="43.87513" lon="7.46747">
        <ele>477.79998779297</ele>
        <time>2022-04-09T14:00:29.000Z</time>
      </trkpt>
      <trkpt lat="43.8752" lon="7.46757">
        <ele>479.39999389648</ele>
        <time>2022-04-09T14:00:31.000Z</time>
      </trkpt>
      <trkpt lat="43.87525" lon="7.46767">
        <ele>480.39999389648</ele>
        <time>2022-04-09T14:00:33.000Z</time>
      </trkpt>
      <trkpt lat="43.8753" lon="7.46782">
        <ele>481.60000610352</ele>
        <time>2022-04-09T14:00:36.000Z</time>
      </trkpt>
      <trkpt lat="43.87531" lon="7.46789">
        <ele>482.20001220703</ele>
        <time>2022-04-09T14:00:37.000Z</time>
      </trkpt>
      <trkpt lat="43.87532" lon="7.46794">
        <ele>482.79998779297</ele>
        <time>2022-04-09T14:00:38.000Z</time>
      </trkpt>
      <trkpt lat="43.87534" lon="7.46806">
        <ele>484</ele>
        <time>2022-04-09T14:00:40.000Z</time>
      </trkpt>
      <trkpt lat="43.87536" lon="7.46818">
        <ele>485</ele>
        <time>2022-04-09T14:00:42.000Z</time>
      </trkpt>
      <trkpt lat="43.87539" lon="7.46828">
        <ele>486.20001220703</ele>
        <time>2022-04-09T14:00:44.000Z</time>
      </trkpt>
      <trkpt lat="43.87543" lon="7.46836">
        <ele>487.20001220703</ele>
        <time>2022-04-09T14:00:46.000Z</time>
      </trkpt>
      <trkpt lat="43.87548" lon="7.46847">
        <ele>488.39999389648</ele>
        <time>2022-04-09T14:00:49.000Z</time>
      </trkpt>
      <trkpt lat="43.87551" lon="7.46863">
        <ele>489.39999389648</ele>
        <time>2022-04-09T14:00:53.000Z</time>
      </trkpt>
      <trkpt lat="43.87552" lon="7.46872">
        <ele>490</ele>
        <time>2022-04-09T14:00:55.000Z</time>
      </trkpt>
      <trkpt lat="43.87554" lon="7.46882">
        <ele>490.79998779297</ele>
        <time>2022-04-09T14:00:57.000Z</time>
      </trkpt>
      <trkpt lat="43.87557" lon="7.46894">
        <ele>492.20001220703</ele>
        <time>2022-04-09T14:01:00.000Z</time>
      </trkpt>
      <trkpt lat="43.87557" lon="7.46903">
        <ele>492.79998779297</ele>
        <time>2022-04-09T14:01:02.000Z</time>
      </trkpt>
      <trkpt lat="43.87557" lon="7.46911">
        <ele>493.39999389648</ele>
        <time>2022-04-09T14:01:04.000Z</time>
      </trkpt>
      <trkpt lat="43.87554" lon="7.46928">
        <ele>494.39999389648</ele>
        <time>2022-04-09T14:01:08.000Z</time>
      </trkpt>
      <trkpt lat="43.87554" lon="7.46932">
        <ele>494.60000610352</ele>
        <time>2022-04-09T14:01:09.000Z</time>
      </trkpt>
      <trkpt lat="43.87552" lon="7.46943">
        <ele>496.39999389648</ele>
        <time>2022-04-09T14:01:12.000Z</time>
      </trkpt>
      <trkpt lat="43.87551" lon="7.4695">
        <ele>497.79998779297</ele>
        <time>2022-04-09T14:01:14.000Z</time>
      </trkpt>
      <trkpt lat="43.8755" lon="7.46954">
        <ele>498.39999389648</ele>
        <time>2022-04-09T14:01:15.000Z</time>
      </trkpt>
      <trkpt lat="43.87549" lon="7.46957">
        <ele>498.79998779297</ele>
        <time>2022-04-09T14:01:16.000Z</time>
      </trkpt>
      <trkpt lat="43.87543" lon="7.46969">
        <ele>500</ele>
        <time>2022-04-09T14:01:20.000Z</time>
      </trkpt>
      <trkpt lat="43.87541" lon="7.46975">
        <ele>500.79998779297</ele>
        <time>2022-04-09T14:01:22.000Z</time>
      </trkpt>
      <trkpt lat="43.8754" lon="7.46978">
        <ele>501.20001220703</ele>
        <time>2022-04-09T14:01:23.000Z</time>
      </trkpt>
      <trkpt lat="43.87536" lon="7.46987">
        <ele>502.39999389648</ele>
        <time>2022-04-09T14:01:26.000Z</time>
      </trkpt>
      <trkpt lat="43.87532" lon="7.46997">
        <ele>503.39999389648</ele>
        <time>2022-04-09T14:01:29.000Z</time>
      </trkpt>
      <trkpt lat="43.87531" lon="7.47">
        <ele>503.79998779297</ele>
        <time>2022-04-09T14:01:30.000Z</time>
      </trkpt>
      <trkpt lat="43.87526" lon="7.47009">
        <ele>504.60000610352</ele>
        <time>2022-04-09T14:01:33.000Z</time>
      </trkpt>
      <trkpt lat="43.87518" lon="7.47017">
        <ele>505.79998779297</ele>
        <time>2022-04-09T14:01:37.000Z</time>
      </trkpt>
      <trkpt lat="43.87512" lon="7.47022">
        <ele>506.79998779297</ele>
        <time>2022-04-09T14:01:40.000Z</time>
      </trkpt>
      <trkpt lat="43.87506" lon="7.47026">
        <ele>507.60000610352</ele>
        <time>2022-04-09T14:01:43.000Z</time>
      </trkpt>
      <trkpt lat="43.87504" lon="7.47027">
        <ele>508</ele>
        <time>2022-04-09T14:01:44.000Z</time>
      </trkpt>
      <trkpt lat="43.87498" lon="7.47032">
        <ele>509.20001220703</ele>
        <time>2022-04-09T14:01:47.000Z</time>
      </trkpt>
      <trkpt lat="43.87493" lon="7.47035">
        <ele>510.20001220703</ele>
        <time>2022-04-09T14:01:49.000Z</time>
      </trkpt>
      <trkpt lat="43.87491" lon="7.47037">
        <ele>510.60000610352</ele>
        <time>2022-04-09T14:01:50.000Z</time>
      </trkpt>
      <trkpt lat="43.87485" lon="7.47041">
        <ele>511.79998779297</ele>
        <time>2022-04-09T14:01:53.000Z</time>
      </trkpt>
      <trkpt lat="43.87477" lon="7.47045">
        <ele>513.20001220703</ele>
        <time>2022-04-09T14:01:56.000Z</time>
      </trkpt>
      <trkpt lat="43.87475" lon="7.47045">
        <ele>513.59997558594</ele>
        <time>2022-04-09T14:01:57.000Z</time>
      </trkpt>
      <trkpt lat="43.8747" lon="7.47045">
        <ele>514.40002441406</ele>
        <time>2022-04-09T14:01:59.000Z</time>
      </trkpt>
      <trkpt lat="43.87465" lon="7.47045">
        <ele>515.59997558594</ele>
        <time>2022-04-09T14:02:01.000Z</time>
      </trkpt>
      <trkpt lat="43.87462" lon="7.47044">
        <ele>516</ele>
        <time>2022-04-09T14:02:02.000Z</time>
      </trkpt>
      <trkpt lat="43.87457" lon="7.47043">
        <ele>516.79998779297</ele>
        <time>2022-04-09T14:02:04.000Z</time>
      </trkpt>
      <trkpt lat="43.87447" lon="7.47041">
        <ele>517.79998779297</ele>
        <time>2022-04-09T14:02:08.000Z</time>
      </trkpt>
      <trkpt lat="43.87445" lon="7.4704">
        <ele>518</ele>
        <time>2022-04-09T14:02:09.000Z</time>
      </trkpt>
      <trkpt lat="43.87437" lon="7.47038">
        <ele>519</ele>
        <time>2022-04-09T14:02:12.000Z</time>
      </trkpt>
      <trkpt lat="43.87429" lon="7.47033">
        <ele>520.20001220703</ele>
        <time>2022-04-09T14:02:15.000Z</time>
      </trkpt>
      <trkpt lat="43.87424" lon="7.47029">
        <ele>520.59997558594</ele>
        <time>2022-04-09T14:02:17.000Z</time>
      </trkpt>
      <trkpt lat="43.8742" lon="7.47025">
        <ele>521.40002441406</ele>
        <time>2022-04-09T14:02:19.000Z</time>
      </trkpt>
      <trkpt lat="43.87407" lon="7.4701">
        <ele>522.40002441406</ele>
        <time>2022-04-09T14:02:25.000Z</time>
      </trkpt>
      <trkpt lat="43.87405" lon="7.47008">
        <ele>522.59997558594</ele>
        <time>2022-04-09T14:02:26.000Z</time>
      </trkpt>
      <trkpt lat="43.87397" lon="7.46997">
        <ele>523.59997558594</ele>
        <time>2022-04-09T14:02:30.000Z</time>
      </trkpt>
      <trkpt lat="43.87388" lon="7.46983">
        <ele>524.79998779297</ele>
        <time>2022-04-09T14:02:35.000Z</time>
      </trkpt>
      <trkpt lat="43.87385" lon="7.46973">
        <ele>525.79998779297</ele>
        <time>2022-04-09T14:02:38.000Z</time>
      </trkpt>
      <trkpt lat="43.87379" lon="7.46956">
        <ele>527</ele>
        <time>2022-04-09T14:02:43.000Z</time>
      </trkpt>
      <trkpt lat="43.87375" lon="7.46946">
        <ele>528.20001220703</ele>
        <time>2022-04-09T14:02:46.000Z</time>
      </trkpt>
      <trkpt lat="43.87372" lon="7.46931">
        <ele>529.40002441406</ele>
        <time>2022-04-09T14:02:50.000Z</time>
      </trkpt>
      <trkpt lat="43.87371" lon="7.46924">
        <ele>530.20001220703</ele>
        <time>2022-04-09T14:02:52.000Z</time>
      </trkpt>
      <trkpt lat="43.8737" lon="7.4692">
        <ele>530.40002441406</ele>
        <time>2022-04-09T14:02:53.000Z</time>
      </trkpt>
      <trkpt lat="43.87368" lon="7.46903">
        <ele>531.59997558594</ele>
        <time>2022-04-09T14:02:58.000Z</time>
      </trkpt>
      <trkpt lat="43.87367" lon="7.46888">
        <ele>532.40002441406</ele>
        <time>2022-04-09T14:03:02.000Z</time>
      </trkpt>
      <trkpt lat="43.87366" lon="7.46884">
        <ele>532.79998779297</ele>
        <time>2022-04-09T14:03:03.000Z</time>
      </trkpt>
      <trkpt lat="43.87363" lon="7.46863">
        <ele>534</ele>
        <time>2022-04-09T14:03:09.000Z</time>
      </trkpt>
      <trkpt lat="43.87362" lon="7.46851">
        <ele>534.79998779297</ele>
        <time>2022-04-09T14:03:12.000Z</time>
      </trkpt>
      <trkpt lat="43.87361" lon="7.46841">
        <ele>535.20001220703</ele>
        <time>2022-04-09T14:03:15.000Z</time>
      </trkpt>
      <trkpt lat="43.8736" lon="7.46824">
        <ele>536</ele>
        <time>2022-04-09T14:03:20.000Z</time>
      </trkpt>
      <trkpt lat="43.87359" lon="7.46821">
        <ele>536.20001220703</ele>
        <time>2022-04-09T14:03:21.000Z</time>
      </trkpt>
      <trkpt lat="43.87353" lon="7.46804">
        <ele>537.40002441406</ele>
        <time>2022-04-09T14:03:26.000Z</time>
      </trkpt>
      <trkpt lat="43.87342" lon="7.46802">
        <ele>538</ele>
        <time>2022-04-09T14:03:30.000Z</time>
      </trkpt>
      <trkpt lat="43.87337" lon="7.46807">
        <ele>538.40002441406</ele>
        <time>2022-04-09T14:03:32.000Z</time>
      </trkpt>
      <trkpt lat="43.8733" lon="7.46816">
        <ele>539.20001220703</ele>
        <time>2022-04-09T14:03:35.000Z</time>
      </trkpt>
      <trkpt lat="43.87311" lon="7.46846">
        <ele>539.59997558594</ele>
        <time>2022-04-09T14:03:43.000Z</time>
      </trkpt>
      <trkpt lat="43.87293" lon="7.46872">
        <ele>539.59997558594</ele>
        <time>2022-04-09T14:03:50.000Z</time>
      </trkpt>
      <trkpt lat="43.8728" lon="7.46887">
        <ele>540.59997558594</ele>
        <time>2022-04-09T14:03:55.000Z</time>
      </trkpt>
      <trkpt lat="43.87272" lon="7.46894">
        <ele>541</ele>
        <time>2022-04-09T14:03:58.000Z</time>
      </trkpt>
      <trkpt lat="43.87254" lon="7.46909">
        <ele>541.59997558594</ele>
        <time>2022-04-09T14:04:05.000Z</time>
      </trkpt>
      <trkpt lat="43.87243" lon="7.46911">
        <ele>543</ele>
        <time>2022-04-09T14:04:09.000Z</time>
      </trkpt>
      <trkpt lat="43.87237" lon="7.46911">
        <ele>544</ele>
        <time>2022-04-09T14:04:11.000Z</time>
      </trkpt>
      <trkpt lat="43.87235" lon="7.46911">
        <ele>544.20001220703</ele>
        <time>2022-04-09T14:04:12.000Z</time>
      </trkpt>
      <trkpt lat="43.87228" lon="7.4691">
        <ele>545.20001220703</ele>
        <time>2022-04-09T14:04:15.000Z</time>
      </trkpt>
      <trkpt lat="43.87222" lon="7.4691">
        <ele>546.20001220703</ele>
        <time>2022-04-09T14:04:18.000Z</time>
      </trkpt>
      <trkpt lat="43.8722" lon="7.4691">
        <ele>546.59997558594</ele>
        <time>2022-04-09T14:04:19.000Z</time>
      </trkpt>
      <trkpt lat="43.87214" lon="7.46911">
        <ele>547.40002441406</ele>
        <time>2022-04-09T14:04:22.000Z</time>
      </trkpt>
      <trkpt lat="43.87209" lon="7.46913">
        <ele>548.20001220703</ele>
        <time>2022-04-09T14:04:25.000Z</time>
      </trkpt>
      <trkpt lat="43.87207" lon="7.46914">
        <ele>548.59997558594</ele>
        <time>2022-04-09T14:04:26.000Z</time>
      </trkpt>
      <trkpt lat="43.87201" lon="7.46916">
        <ele>549.59997558594</ele>
        <time>2022-04-09T14:04:29.000Z</time>
      </trkpt>
      <trkpt lat="43.87197" lon="7.46917">
        <ele>550.20001220703</ele>
        <time>2022-04-09T14:04:31.000Z</time>
      </trkpt>
      <trkpt lat="43.87194" lon="7.46918">
        <ele>550.59997558594</ele>
        <time>2022-04-09T14:04:33.000Z</time>
      </trkpt>
      <trkpt lat="43.87187" lon="7.46921">
        <ele>551.79998779297</ele>
        <time>2022-04-09T14:04:36.000Z</time>
      </trkpt>
      <trkpt lat="43.87184" lon="7.46922">
        <ele>552.59997558594</ele>
        <time>2022-04-09T14:04:38.000Z</time>
      </trkpt>
      <trkpt lat="43.87179" lon="7.46924">
        <ele>553.20001220703</ele>
        <time>2022-04-09T14:04:40.000Z</time>
      </trkpt>
      <trkpt lat="43.87171" lon="7.46927">
        <ele>554.59997558594</ele>
        <time>2022-04-09T14:04:44.000Z</time>
      </trkpt>
      <trkpt lat="43.87169" lon="7.46928">
        <ele>555</ele>
        <time>2022-04-09T14:04:45.000Z</time>
      </trkpt>
      <trkpt lat="43.87164" lon="7.46929">
        <ele>555.79998779297</ele>
        <time>2022-04-09T14:04:47.000Z</time>
      </trkpt>
      <trkpt lat="43.8716" lon="7.46932">
        <ele>556.79998779297</ele>
        <time>2022-04-09T14:04:49.000Z</time>
      </trkpt>
      <trkpt lat="43.87156" lon="7.46935">
        <ele>557.40002441406</ele>
        <time>2022-04-09T14:04:51.000Z</time>
      </trkpt>
      <trkpt lat="43.87154" lon="7.46937">
        <ele>557.79998779297</ele>
        <time>2022-04-09T14:04:52.000Z</time>
      </trkpt>
      <trkpt lat="43.87149" lon="7.4694">
        <ele>558.79998779297</ele>
        <time>2022-04-09T14:04:55.000Z</time>
      </trkpt>
      <trkpt lat="43.87147" lon="7.46942">
        <ele>559.20001220703</ele>
        <time>2022-04-09T14:04:56.000Z</time>
      </trkpt>
      <trkpt lat="43.87142" lon="7.46951">
        <ele>560.20001220703</ele>
        <time>2022-04-09T14:04:59.000Z</time>
      </trkpt>
      <trkpt lat="43.87138" lon="7.46961">
        <ele>561.20001220703</ele>
        <time>2022-04-09T14:05:02.000Z</time>
      </trkpt>
      <trkpt lat="43.87136" lon="7.46973">
        <ele>562.59997558594</ele>
        <time>2022-04-09T14:05:05.000Z</time>
      </trkpt>
      <trkpt lat="43.87137" lon="7.46984">
        <ele>563.59997558594</ele>
        <time>2022-04-09T14:05:08.000Z</time>
      </trkpt>
      <trkpt lat="43.87138" lon="7.46987">
        <ele>564.20001220703</ele>
        <time>2022-04-09T14:05:09.000Z</time>
      </trkpt>
      <trkpt lat="43.8714" lon="7.46994">
        <ele>564.79998779297</ele>
        <time>2022-04-09T14:05:11.000Z</time>
      </trkpt>
      <trkpt lat="43.87141" lon="7.47004">
        <ele>566.20001220703</ele>
        <time>2022-04-09T14:05:14.000Z</time>
      </trkpt>
      <trkpt lat="43.87142" lon="7.47008">
        <ele>566.59997558594</ele>
        <time>2022-04-09T14:05:15.000Z</time>
      </trkpt>
      <trkpt lat="43.87142" lon="7.47015">
        <ele>567.40002441406</ele>
        <time>2022-04-09T14:05:17.000Z</time>
      </trkpt>
      <trkpt lat="43.87139" lon="7.4703">
        <ele>568.59997558594</ele>
        <time>2022-04-09T14:05:21.000Z</time>
      </trkpt>
      <trkpt lat="43.87137" lon="7.4704">
        <ele>569.79998779297</ele>
        <time>2022-04-09T14:05:24.000Z</time>
      </trkpt>
      <trkpt lat="43.87134" lon="7.47055">
        <ele>570.79998779297</ele>
        <time>2022-04-09T14:05:28.000Z</time>
      </trkpt>
      <trkpt lat="43.87134" lon="7.47059">
        <ele>571</ele>
        <time>2022-04-09T14:05:29.000Z</time>
      </trkpt>
      <trkpt lat="43.87134" lon="7.4707">
        <ele>572</ele>
        <time>2022-04-09T14:05:32.000Z</time>
      </trkpt>
      <trkpt lat="43.87134" lon="7.47089">
        <ele>573.20001220703</ele>
        <time>2022-04-09T14:05:37.000Z</time>
      </trkpt>
      <trkpt lat="43.87136" lon="7.47105">
        <ele>574.20001220703</ele>
        <time>2022-04-09T14:05:41.000Z</time>
      </trkpt>
      <trkpt lat="43.87137" lon="7.47121">
        <ele>575</ele>
        <time>2022-04-09T14:05:45.000Z</time>
      </trkpt>
      <trkpt lat="43.87139" lon="7.47128">
        <ele>575.40002441406</ele>
        <time>2022-04-09T14:05:47.000Z</time>
      </trkpt>
      <trkpt lat="43.8714" lon="7.47143">
        <ele>576.59997558594</ele>
        <time>2022-04-09T14:05:51.000Z</time>
      </trkpt>
      <trkpt lat="43.8714" lon="7.47157">
        <ele>577.59997558594</ele>
        <time>2022-04-09T14:05:55.000Z</time>
      </trkpt>
      <trkpt lat="43.87139" lon="7.47169">
        <ele>578.79998779297</ele>
        <time>2022-04-09T14:05:58.000Z</time>
      </trkpt>
      <trkpt lat="43.8714" lon="7.4718">
        <ele>580</ele>
        <time>2022-04-09T14:06:01.000Z</time>
      </trkpt>
      <trkpt lat="43.87141" lon="7.47196">
        <ele>581</ele>
        <time>2022-04-09T14:06:05.000Z</time>
      </trkpt>
      <trkpt lat="43.87142" lon="7.47211">
        <ele>582.59997558594</ele>
        <time>2022-04-09T14:06:09.000Z</time>
      </trkpt>
      <trkpt lat="43.87143" lon="7.47222">
        <ele>583.79998779297</ele>
        <time>2022-04-09T14:06:12.000Z</time>
      </trkpt>
      <trkpt lat="43.87144" lon="7.47229">
        <ele>584.40002441406</ele>
        <time>2022-04-09T14:06:14.000Z</time>
      </trkpt>
      <trkpt lat="43.87144" lon="7.47236">
        <ele>585</ele>
        <time>2022-04-09T14:06:16.000Z</time>
      </trkpt>
      <trkpt lat="43.87143" lon="7.47251">
        <ele>586.20001220703</ele>
        <time>2022-04-09T14:06:20.000Z</time>
      </trkpt>
      <trkpt lat="43.87142" lon="7.47255">
        <ele>586.59997558594</ele>
        <time>2022-04-09T14:06:21.000Z</time>
      </trkpt>
      <trkpt lat="43.87141" lon="7.47264">
        <ele>587.40002441406</ele>
        <time>2022-04-09T14:06:24.000Z</time>
      </trkpt>
      <trkpt lat="43.87141" lon="7.47275">
        <ele>588.40002441406</ele>
        <time>2022-04-09T14:06:27.000Z</time>
      </trkpt>
      <trkpt lat="43.87139" lon="7.47284">
        <ele>589.40002441406</ele>
        <time>2022-04-09T14:06:30.000Z</time>
      </trkpt>
      <trkpt lat="43.87139" lon="7.47287">
        <ele>589.59997558594</ele>
        <time>2022-04-09T14:06:31.000Z</time>
      </trkpt>
      <trkpt lat="43.87135" lon="7.47306">
        <ele>590.79998779297</ele>
        <time>2022-04-09T14:06:37.000Z</time>
      </trkpt>
      <trkpt lat="43.87133" lon="7.47314">
        <ele>591.79998779297</ele>
        <time>2022-04-09T14:06:40.000Z</time>
      </trkpt>
      <trkpt lat="43.87128" lon="7.47325">
        <ele>593</ele>
        <time>2022-04-09T14:06:44.000Z</time>
      </trkpt>
      <trkpt lat="43.87126" lon="7.47328">
        <ele>593.40002441406</ele>
        <time>2022-04-09T14:06:45.000Z</time>
      </trkpt>
      <trkpt lat="43.87122" lon="7.47336">
        <ele>594.20001220703</ele>
        <time>2022-04-09T14:06:49.000Z</time>
      </trkpt>
      <trkpt lat="43.8712" lon="7.47338">
        <ele>594.79998779297</ele>
        <time>2022-04-09T14:06:51.000Z</time>
      </trkpt>
      <trkpt lat="43.87114" lon="7.47341">
        <ele>595.40002441406</ele>
        <time>2022-04-09T14:06:55.000Z</time>
      </trkpt>
      <trkpt lat="43.87111" lon="7.47337">
        <ele>595.59997558594</ele>
        <time>2022-04-09T14:06:57.000Z</time>
      </trkpt>
      <trkpt lat="43.87109" lon="7.47331">
        <ele>595.79998779297</ele>
        <time>2022-04-09T14:06:59.000Z</time>
      </trkpt>
      <trkpt lat="43.87106" lon="7.47322">
        <ele>596.40002441406</ele>
        <time>2022-04-09T14:07:02.000Z</time>
      </trkpt>
      <trkpt lat="43.87105" lon="7.47319">
        <ele>596.59997558594</ele>
        <time>2022-04-09T14:07:03.000Z</time>
      </trkpt>
      <trkpt lat="43.87103" lon="7.47312">
        <ele>597.40002441406</ele>
        <time>2022-04-09T14:07:05.000Z</time>
      </trkpt>
      <trkpt lat="43.871" lon="7.47303">
        <ele>598.79998779297</ele>
        <time>2022-04-09T14:07:08.000Z</time>
      </trkpt>
      <trkpt lat="43.87096" lon="7.47293">
        <ele>600</ele>
        <time>2022-04-09T14:07:11.000Z</time>
      </trkpt>
      <trkpt lat="43.87092" lon="7.47284">
        <ele>601.40002441406</ele>
        <time>2022-04-09T14:07:14.000Z</time>
      </trkpt>
      <trkpt lat="43.87086" lon="7.47272">
        <ele>602.59997558594</ele>
        <time>2022-04-09T14:07:18.000Z</time>
      </trkpt>
      <trkpt lat="43.8708" lon="7.47259">
        <ele>603.79998779297</ele>
        <time>2022-04-09T14:07:22.000Z</time>
      </trkpt>
      <trkpt lat="43.87076" lon="7.47253">
        <ele>604.40002441406</ele>
        <time>2022-04-09T14:07:24.000Z</time>
      </trkpt>
      <trkpt lat="43.87072" lon="7.47249">
        <ele>605</ele>
        <time>2022-04-09T14:07:26.000Z</time>
      </trkpt>
      <trkpt lat="43.87063" lon="7.47242">
        <ele>605.79998779297</ele>
        <time>2022-04-09T14:07:30.000Z</time>
      </trkpt>
      <trkpt lat="43.87058" lon="7.47239">
        <ele>606.20001220703</ele>
        <time>2022-04-09T14:07:32.000Z</time>
      </trkpt>
      <trkpt lat="43.8705" lon="7.47231">
        <ele>607.20001220703</ele>
        <time>2022-04-09T14:07:36.000Z</time>
      </trkpt>
      <trkpt lat="43.87048" lon="7.47228">
        <ele>607.59997558594</ele>
        <time>2022-04-09T14:07:37.000Z</time>
      </trkpt>
      <trkpt lat="43.87046" lon="7.47222">
        <ele>608.40002441406</ele>
        <time>2022-04-09T14:07:39.000Z</time>
      </trkpt>
      <trkpt lat="43.87044" lon="7.47212">
        <ele>609.79998779297</ele>
        <time>2022-04-09T14:07:42.000Z</time>
      </trkpt>
      <trkpt lat="43.87042" lon="7.47205">
        <ele>610.59997558594</ele>
        <time>2022-04-09T14:07:44.000Z</time>
      </trkpt>
      <trkpt lat="43.8704" lon="7.47201">
        <ele>610.79998779297</ele>
        <time>2022-04-09T14:07:45.000Z</time>
      </trkpt>
      <trkpt lat="43.87035" lon="7.47184">
        <ele>612.20001220703</ele>
        <time>2022-04-09T14:07:50.000Z</time>
      </trkpt>
      <trkpt lat="43.87034" lon="7.4718">
        <ele>612.40002441406</ele>
        <time>2022-04-09T14:07:51.000Z</time>
      </trkpt>
      <trkpt lat="43.87032" lon="7.4717">
        <ele>613.20001220703</ele>
        <time>2022-04-09T14:07:54.000Z</time>
      </trkpt>
      <trkpt lat="43.87028" lon="7.47161">
        <ele>614.20001220703</ele>
        <time>2022-04-09T14:07:57.000Z</time>
      </trkpt>
      <trkpt lat="43.87027" lon="7.47158">
        <ele>614.40002441406</ele>
        <time>2022-04-09T14:07:58.000Z</time>
      </trkpt>
      <trkpt lat="43.87021" lon="7.47146">
        <ele>615.59997558594</ele>
        <time>2022-04-09T14:08:02.000Z</time>
      </trkpt>
      <trkpt lat="43.87017" lon="7.47138">
        <ele>617</ele>
        <time>2022-04-09T14:08:05.000Z</time>
      </trkpt>
      <trkpt lat="43.87012" lon="7.47125">
        <ele>618</ele>
        <time>2022-04-09T14:08:09.000Z</time>
      </trkpt>
      <trkpt lat="43.8701" lon="7.47113">
        <ele>619</ele>
        <time>2022-04-09T14:08:13.000Z</time>
      </trkpt>
      <trkpt lat="43.87009" lon="7.47109">
        <ele>619.20001220703</ele>
        <time>2022-04-09T14:08:14.000Z</time>
      </trkpt>
      <trkpt lat="43.87007" lon="7.47094">
        <ele>620.40002441406</ele>
        <time>2022-04-09T14:08:19.000Z</time>
      </trkpt>
      <trkpt lat="43.87006" lon="7.4709">
        <ele>620.40002441406</ele>
        <time>2022-04-09T14:08:20.000Z</time>
      </trkpt>
      <trkpt lat="43.87005" lon="7.47075">
        <ele>621.40002441406</ele>
        <time>2022-04-09T14:08:25.000Z</time>
      </trkpt>
      <trkpt lat="43.87005" lon="7.47057">
        <ele>622.40002441406</ele>
        <time>2022-04-09T14:08:31.000Z</time>
      </trkpt>
      <trkpt lat="43.87005" lon="7.47053">
        <ele>622.59997558594</ele>
        <time>2022-04-09T14:08:32.000Z</time>
      </trkpt>
      <trkpt lat="43.87008" lon="7.47039">
        <ele>623.59997558594</ele>
        <time>2022-04-09T14:08:37.000Z</time>
      </trkpt>
      <trkpt lat="43.87008" lon="7.47036">
        <ele>624</ele>
        <time>2022-04-09T14:08:38.000Z</time>
      </trkpt>
      <trkpt lat="43.87009" lon="7.47027">
        <ele>624.79998779297</ele>
        <time>2022-04-09T14:08:41.000Z</time>
      </trkpt>
      <trkpt lat="43.87011" lon="7.47017">
        <ele>625.59997558594</ele>
        <time>2022-04-09T14:08:45.000Z</time>
      </trkpt>
      <trkpt lat="43.87011" lon="7.47014">
        <ele>625.79998779297</ele>
        <time>2022-04-09T14:08:46.000Z</time>
      </trkpt>
      <trkpt lat="43.87013" lon="7.47">
        <ele>626.79998779297</ele>
        <time>2022-04-09T14:08:51.000Z</time>
      </trkpt>
      <trkpt lat="43.87014" lon="7.46995">
        <ele>627.59997558594</ele>
        <time>2022-04-09T14:08:53.000Z</time>
      </trkpt>
      <trkpt lat="43.87014" lon="7.46992">
        <ele>628</ele>
        <time>2022-04-09T14:08:54.000Z</time>
      </trkpt>
      <trkpt lat="43.87014" lon="7.46975">
        <ele>628.40002441406</ele>
        <time>2022-04-09T14:09:00.000Z</time>
      </trkpt>
      <trkpt lat="43.87014" lon="7.46969">
        <ele>629</ele>
        <time>2022-04-09T14:09:02.000Z</time>
      </trkpt>
      <trkpt lat="43.87017" lon="7.4696">
        <ele>630</ele>
        <time>2022-04-09T14:09:05.000Z</time>
      </trkpt>
      <trkpt lat="43.87017" lon="7.46958">
        <ele>630.40002441406</ele>
        <time>2022-04-09T14:09:06.000Z</time>
      </trkpt>
      <trkpt lat="43.8702" lon="7.46949">
        <ele>631.20001220703</ele>
        <time>2022-04-09T14:09:09.000Z</time>
      </trkpt>
      <trkpt lat="43.87023" lon="7.4694">
        <ele>631.59997558594</ele>
        <time>2022-04-09T14:09:12.000Z</time>
      </trkpt>
      <trkpt lat="43.87026" lon="7.46929">
        <ele>632.20001220703</ele>
        <time>2022-04-09T14:09:16.000Z</time>
      </trkpt>
      <trkpt lat="43.87027" lon="7.4692">
        <ele>633</ele>
        <time>2022-04-09T14:09:19.000Z</time>
      </trkpt>
      <trkpt lat="43.87028" lon="7.46915">
        <ele>633.40002441406</ele>
        <time>2022-04-09T14:09:21.000Z</time>
      </trkpt>
      <trkpt lat="43.8703" lon="7.46904">
        <ele>634.40002441406</ele>
        <time>2022-04-09T14:09:25.000Z</time>
      </trkpt>
      <trkpt lat="43.87031" lon="7.46901">
        <ele>634.79998779297</ele>
        <time>2022-04-09T14:09:26.000Z</time>
      </trkpt>
      <trkpt lat="43.87032" lon="7.46892">
        <ele>635.59997558594</ele>
        <time>2022-04-09T14:09:29.000Z</time>
      </trkpt>
      <trkpt lat="43.87034" lon="7.46877">
        <ele>636.79998779297</ele>
        <time>2022-04-09T14:09:34.000Z</time>
      </trkpt>
      <trkpt lat="43.87036" lon="7.46865">
        <ele>638</ele>
        <time>2022-04-09T14:09:38.000Z</time>
      </trkpt>
      <trkpt lat="43.87037" lon="7.46859">
        <ele>638.59997558594</ele>
        <time>2022-04-09T14:09:40.000Z</time>
      </trkpt>
      <trkpt lat="43.87039" lon="7.4685">
        <ele>639.20001220703</ele>
        <time>2022-04-09T14:09:43.000Z</time>
      </trkpt>
      <trkpt lat="43.87043" lon="7.46837">
        <ele>640.40002441406</ele>
        <time>2022-04-09T14:09:47.000Z</time>
      </trkpt>
      <trkpt lat="43.87044" lon="7.46829">
        <ele>641.20001220703</ele>
        <time>2022-04-09T14:09:50.000Z</time>
      </trkpt>
      <trkpt lat="43.87045" lon="7.46826">
        <ele>641.40002441406</ele>
        <time>2022-04-09T14:09:51.000Z</time>
      </trkpt>
      <trkpt lat="43.87049" lon="7.46813">
        <ele>642.59997558594</ele>
        <time>2022-04-09T14:09:55.000Z</time>
      </trkpt>
      <trkpt lat="43.87051" lon="7.46806">
        <ele>643</ele>
        <time>2022-04-09T14:09:57.000Z</time>
      </trkpt>
      <trkpt lat="43.87055" lon="7.46797">
        <ele>643.79998779297</ele>
        <time>2022-04-09T14:10:00.000Z</time>
      </trkpt>
      <trkpt lat="43.87061" lon="7.46789">
        <ele>645</ele>
        <time>2022-04-09T14:10:03.000Z</time>
      </trkpt>
      <trkpt lat="43.87068" lon="7.46783">
        <ele>646</ele>
        <time>2022-04-09T14:10:07.000Z</time>
      </trkpt>
      <trkpt lat="43.87076" lon="7.46777">
        <ele>647.20001220703</ele>
        <time>2022-04-09T14:10:11.000Z</time>
      </trkpt>
      <trkpt lat="43.87077" lon="7.46775">
        <ele>647.40002441406</ele>
        <time>2022-04-09T14:10:12.000Z</time>
      </trkpt>
      <trkpt lat="43.87083" lon="7.46765">
        <ele>648.20001220703</ele>
        <time>2022-04-09T14:10:16.000Z</time>
      </trkpt>
      <trkpt lat="43.87083" lon="7.46761">
        <ele>648.40002441406</ele>
        <time>2022-04-09T14:10:17.000Z</time>
      </trkpt>
      <trkpt lat="43.87079" lon="7.46744">
        <ele>649</ele>
        <time>2022-04-09T14:10:22.000Z</time>
      </trkpt>
      <trkpt lat="43.87079" lon="7.46741">
        <ele>649.59997558594</ele>
        <time>2022-04-09T14:10:23.000Z</time>
      </trkpt>
      <trkpt lat="43.87076" lon="7.46733">
        <ele>651</ele>
        <time>2022-04-09T14:10:26.000Z</time>
      </trkpt>
      <trkpt lat="43.87072" lon="7.46725">
        <ele>652</ele>
        <time>2022-04-09T14:10:30.000Z</time>
      </trkpt>
      <trkpt lat="43.87066" lon="7.4671">
        <ele>653</ele>
        <time>2022-04-09T14:10:36.000Z</time>
      </trkpt>
      <trkpt lat="43.87065" lon="7.46708">
        <ele>653.20001220703</ele>
        <time>2022-04-09T14:10:37.000Z</time>
      </trkpt>
      <trkpt lat="43.87063" lon="7.46697">
        <ele>654</ele>
        <time>2022-04-09T14:10:41.000Z</time>
      </trkpt>
      <trkpt lat="43.87061" lon="7.46684">
        <ele>655</ele>
        <time>2022-04-09T14:10:46.000Z</time>
      </trkpt>
      <trkpt lat="43.87061" lon="7.46681">
        <ele>655.20001220703</ele>
        <time>2022-04-09T14:10:47.000Z</time>
      </trkpt>
      <trkpt lat="43.87056" lon="7.46666">
        <ele>656.40002441406</ele>
        <time>2022-04-09T14:10:52.000Z</time>
      </trkpt>
      <trkpt lat="43.87054" lon="7.46663">
        <ele>656.40002441406</ele>
        <time>2022-04-09T14:10:53.000Z</time>
      </trkpt>
      <trkpt lat="43.87048" lon="7.46655">
        <ele>657.40002441406</ele>
        <time>2022-04-09T14:10:56.000Z</time>
      </trkpt>
      <trkpt lat="43.87041" lon="7.46647">
        <ele>658.40002441406</ele>
        <time>2022-04-09T14:11:00.000Z</time>
      </trkpt>
      <trkpt lat="43.87037" lon="7.4664">
        <ele>659.79998779297</ele>
        <time>2022-04-09T14:11:04.000Z</time>
      </trkpt>
      <trkpt lat="43.87035" lon="7.46631">
        <ele>660.40002441406</ele>
        <time>2022-04-09T14:11:07.000Z</time>
      </trkpt>
      <trkpt lat="43.87036" lon="7.46626">
        <ele>660.79998779297</ele>
        <time>2022-04-09T14:11:09.000Z</time>
      </trkpt>
      <trkpt lat="43.87039" lon="7.46619">
        <ele>661.59997558594</ele>
        <time>2022-04-09T14:11:12.000Z</time>
      </trkpt>
      <trkpt lat="43.8704" lon="7.46617">
        <ele>661.79998779297</ele>
        <time>2022-04-09T14:11:13.000Z</time>
      </trkpt>
      <trkpt lat="43.8704" lon="7.46604">
        <ele>662.79998779297</ele>
        <time>2022-04-09T14:11:18.000Z</time>
      </trkpt>
      <trkpt lat="43.87039" lon="7.46602">
        <ele>663</ele>
        <time>2022-04-09T14:11:19.000Z</time>
      </trkpt>
      <trkpt lat="43.87031" lon="7.46594">
        <ele>663.79998779297</ele>
        <time>2022-04-09T14:11:23.000Z</time>
      </trkpt>
      <trkpt lat="43.87026" lon="7.4659">
        <ele>664.40002441406</ele>
        <time>2022-04-09T14:11:25.000Z</time>
      </trkpt>
      <trkpt lat="43.87018" lon="7.46579">
        <ele>665.59997558594</ele>
        <time>2022-04-09T14:11:30.000Z</time>
      </trkpt>
      <trkpt lat="43.87012" lon="7.46571">
        <ele>666.79998779297</ele>
        <time>2022-04-09T14:11:34.000Z</time>
      </trkpt>
      <trkpt lat="43.8701" lon="7.46567">
        <ele>667</ele>
        <time>2022-04-09T14:11:36.000Z</time>
      </trkpt>
      <trkpt lat="43.87003" lon="7.46558">
        <ele>667.79998779297</ele>
        <time>2022-04-09T14:11:41.000Z</time>
      </trkpt>
      <trkpt lat="43.87001" lon="7.46557">
        <ele>668</ele>
        <time>2022-04-09T14:11:42.000Z</time>
      </trkpt>
      <trkpt lat="43.86994" lon="7.4655">
        <ele>668.79998779297</ele>
        <time>2022-04-09T14:11:46.000Z</time>
      </trkpt>
      <trkpt lat="43.86987" lon="7.46539">
        <ele>669.59997558594</ele>
        <time>2022-04-09T14:11:50.000Z</time>
      </trkpt>
      <trkpt lat="43.86983" lon="7.46533">
        <ele>670</ele>
        <time>2022-04-09T14:11:52.000Z</time>
      </trkpt>
      <trkpt lat="43.86977" lon="7.46513">
        <ele>671.20001220703</ele>
        <time>2022-04-09T14:11:57.000Z</time>
      </trkpt>
      <trkpt lat="43.86976" lon="7.465">
        <ele>672.40002441406</ele>
        <time>2022-04-09T14:12:01.000Z</time>
      </trkpt>
      <trkpt lat="43.86977" lon="7.46497">
        <ele>672.59997558594</ele>
        <time>2022-04-09T14:12:02.000Z</time>
      </trkpt>
      <trkpt lat="43.86977" lon="7.46487">
        <ele>673.59997558594</ele>
        <time>2022-04-09T14:12:05.000Z</time>
      </trkpt>
      <trkpt lat="43.86978" lon="7.46474">
        <ele>674.79998779297</ele>
        <time>2022-04-09T14:12:09.000Z</time>
      </trkpt>
      <trkpt lat="43.86978" lon="7.46463">
        <ele>675.79998779297</ele>
        <time>2022-04-09T14:12:13.000Z</time>
      </trkpt>
      <trkpt lat="43.86977" lon="7.46452">
        <ele>676.59997558594</ele>
        <time>2022-04-09T14:12:17.000Z</time>
      </trkpt>
      <trkpt lat="43.86977" lon="7.46449">
        <ele>676.79998779297</ele>
        <time>2022-04-09T14:12:18.000Z</time>
      </trkpt>
      <trkpt lat="43.86977" lon="7.46442">
        <ele>677.79998779297</ele>
        <time>2022-04-09T14:12:22.000Z</time>
      </trkpt>
      <trkpt lat="43.86977" lon="7.4644">
        <ele>678</ele>
        <time>2022-04-09T14:12:23.000Z</time>
      </trkpt>
      <trkpt lat="43.86976" lon="7.46432">
        <ele>679</ele>
        <time>2022-04-09T14:12:28.000Z</time>
      </trkpt>
      <trkpt lat="43.86975" lon="7.46431">
        <ele>679.20001220703</ele>
        <time>2022-04-09T14:12:29.000Z</time>
      </trkpt>
      <trkpt lat="43.86973" lon="7.46425">
        <ele>679.79998779297</ele>
        <time>2022-04-09T14:12:33.000Z</time>
      </trkpt>
      <trkpt lat="43.86972" lon="7.46425">
        <ele>680</ele>
        <time>2022-04-09T14:12:34.000Z</time>
      </trkpt>
      <trkpt lat="43.86971" lon="7.46424">
        <ele>680.20001220703</ele>
        <time>2022-04-09T14:12:35.000Z</time>
      </trkpt>
      <trkpt lat="43.86968" lon="7.46426">
        <ele>679.79998779297</ele>
        <time>2022-04-09T14:12:40.000Z</time>
      </trkpt>
      <trkpt lat="43.86967" lon="7.46427">
        <ele>679.59997558594</ele>
        <time>2022-04-09T14:12:41.000Z</time>
      </trkpt>
      <trkpt lat="43.86967" lon="7.46427">
        <ele>679.40002441406</ele>
        <time>2022-04-09T14:12:44.000Z</time>
      </trkpt>
      <trkpt lat="43.86967" lon="7.46426">
        <ele>679.59997558594</ele>
        <time>2022-04-09T14:12:49.000Z</time>
      </trkpt>
      <trkpt lat="43.86968" lon="7.46425">
        <ele>679.79998779297</ele>
        <time>2022-04-09T14:12:58.000Z</time>
      </trkpt>
      <trkpt lat="43.86968" lon="7.46425">
        <ele>679.20001220703</ele>
        <time>2022-04-09T14:13:05.000Z</time>
      </trkpt>
      <trkpt lat="43.8697" lon="7.46425">
        <ele>679.79998779297</ele>
        <time>2022-04-09T14:13:22.000Z</time>
      </trkpt>
      <trkpt lat="43.8697" lon="7.46425">
        <ele>679.40002441406</ele>
        <time>2022-04-09T14:13:37.000Z</time>
      </trkpt>
      <trkpt lat="43.8697" lon="7.46425">
        <ele>679.20001220703</ele>
        <time>2022-04-09T14:13:53.000Z</time>
      </trkpt>
      <trkpt lat="43.86969" lon="7.46426">
        <ele>679.40002441406</ele>
        <time>2022-04-09T14:14:10.000Z</time>
      </trkpt>
      <trkpt lat="43.86969" lon="7.46426">
        <ele>679.59997558594</ele>
        <time>2022-04-09T14:14:26.000Z</time>
      </trkpt>
      <trkpt lat="43.86969" lon="7.46427">
        <ele>679.59997558594</ele>
        <time>2022-04-09T14:14:40.000Z</time>
      </trkpt>
      <trkpt lat="43.86969" lon="7.46426">
        <ele>679.20001220703</ele>
        <time>2022-04-09T14:14:50.000Z</time>
      </trkpt>
      <trkpt lat="43.86969" lon="7.46427">
        <ele>679.40002441406</ele>
        <time>2022-04-09T14:14:59.000Z</time>
      </trkpt>
      <trkpt lat="43.86971" lon="7.46426">
        <ele>679</ele>
        <time>2022-04-09T14:15:17.000Z</time>
      </trkpt>
      <trkpt lat="43.86971" lon="7.46426">
        <ele>679</ele>
        <time>2022-04-09T14:15:19.000Z</time>
      </trkpt>
      <trkpt lat="43.86972" lon="7.46426">
        <ele>679.40002441406</ele>
        <time>2022-04-09T14:15:35.000Z</time>
      </trkpt>
      <trkpt lat="43.86972" lon="7.46426">
        <ele>679.20001220703</ele>
        <time>2022-04-09T14:15:52.000Z</time>
      </trkpt>
      <trkpt lat="43.86972" lon="7.46426">
        <ele>680</ele>
        <time>2022-04-09T14:16:08.000Z</time>
      </trkpt>
      <trkpt lat="43.86972" lon="7.46426">
        <ele>680</ele>
        <time>2022-04-09T14:16:09.000Z</time>
      </trkpt>
      <trkpt lat="43.8697" lon="7.46426">
        <ele>680.20001220703</ele>
        <time>2022-04-09T14:16:26.000Z</time>
      </trkpt>
      <trkpt lat="43.8697" lon="7.46426">
        <ele>679.79998779297</ele>
        <time>2022-04-09T14:16:42.000Z</time>
      </trkpt>
      <trkpt lat="43.8697" lon="7.46426">
        <ele>679</ele>
        <time>2022-04-09T14:17:02.000Z</time>
      </trkpt>
      <trkpt lat="43.8697" lon="7.46426">
        <ele>679.40002441406</ele>
        <time>2022-04-09T14:17:16.000Z</time>
      </trkpt>
      <trkpt lat="43.86969" lon="7.46426">
        <ele>679.79998779297</ele>
        <time>2022-04-09T14:17:45.000Z</time>
      </trkpt>
      <trkpt lat="43.86971" lon="7.46426">
        <ele>679.20001220703</ele>
        <time>2022-04-09T14:18:06.000Z</time>
      </trkpt>
      <trkpt lat="43.8697" lon="7.46426">
        <ele>679.40002441406</ele>
        <time>2022-04-09T14:18:28.000Z</time>
      </trkpt>
      <trkpt lat="43.8697" lon="7.46426">
        <ele>678.79998779297</ele>
        <time>2022-04-09T14:18:47.000Z</time>
      </trkpt>
      <trkpt lat="43.8697" lon="7.46426">
        <ele>679.79998779297</ele>
        <time>2022-04-09T14:18:54.000Z</time>
      </trkpt>
      <trkpt lat="43.8697" lon="7.46426">
        <ele>679.59997558594</ele>
        <time>2022-04-09T14:19:09.000Z</time>
      </trkpt>
      <trkpt lat="43.8697" lon="7.46426">
        <ele>680</ele>
        <time>2022-04-09T14:19:14.000Z</time>
      </trkpt>
      <trkpt lat="43.86969" lon="7.46426">
        <ele>679.59997558594</ele>
        <time>2022-04-09T14:19:19.000Z</time>
      </trkpt>
      <trkpt lat="43.86969" lon="7.46426">
        <ele>679.79998779297</ele>
        <time>2022-04-09T14:19:30.000Z</time>
      </trkpt>
      <trkpt lat="43.8697" lon="7.46426">
        <ele>679.20001220703</ele>
        <time>2022-04-09T14:19:47.000Z</time>
      </trkpt>
      <trkpt lat="43.8697" lon="7.46426">
        <ele>679</ele>
        <time>2022-04-09T14:19:52.000Z</time>
      </trkpt>
      <trkpt lat="43.8697" lon="7.46426">
        <ele>678.79998779297</ele>
        <time>2022-04-09T14:19:58.000Z</time>
      </trkpt>
      <trkpt lat="43.86968" lon="7.46426">
        <ele>679</ele>
        <time>2022-04-09T14:20:13.000Z</time>
      </trkpt>
      <trkpt lat="43.86968" lon="7.46423">
        <ele>678.20001220703</ele>
        <time>2022-04-09T14:20:18.000Z</time>
      </trkpt>
      <trkpt lat="43.8697" lon="7.46423">
        <ele>678</ele>
        <time>2022-04-09T14:20:19.000Z</time>
      </trkpt>
      <trkpt lat="43.8697" lon="7.46424">
        <ele>678.40002441406</ele>
        <time>2022-04-09T14:20:23.000Z</time>
      </trkpt>
      <trkpt lat="43.86968" lon="7.46425">
        <ele>678.20001220703</ele>
        <time>2022-04-09T14:20:30.000Z</time>
      </trkpt>
      <trkpt lat="43.86968" lon="7.46426">
        <ele>677.79998779297</ele>
        <time>2022-04-09T14:20:33.000Z</time>
      </trkpt>
      <trkpt lat="43.86969" lon="7.46426">
        <ele>679</ele>
        <time>2022-04-09T14:20:40.000Z</time>
      </trkpt>
      <trkpt lat="43.86969" lon="7.46426">
        <ele>679</ele>
        <time>2022-04-09T14:20:42.000Z</time>
      </trkpt>
      <trkpt lat="43.86969" lon="7.46426">
        <ele>679.20001220703</ele>
        <time>2022-04-09T14:21:05.000Z</time>
      </trkpt>
      <trkpt lat="43.8697" lon="7.46426">
        <ele>679.20001220703</ele>
        <time>2022-04-09T14:21:26.000Z</time>
      </trkpt>
      <trkpt lat="43.86968" lon="7.46426">
        <ele>678.59997558594</ele>
        <time>2022-04-09T14:21:44.000Z</time>
      </trkpt>
      <trkpt lat="43.86968" lon="7.46426">
        <ele>678.40002441406</ele>
        <time>2022-04-09T14:22:03.000Z</time>
      </trkpt>
      <trkpt lat="43.86967" lon="7.46426">
        <ele>679</ele>
        <time>2022-04-09T14:22:12.000Z</time>
      </trkpt>
      <trkpt lat="43.86967" lon="7.46426">
        <ele>678.79998779297</ele>
        <time>2022-04-09T14:22:34.000Z</time>
      </trkpt>
      <trkpt lat="43.86967" lon="7.46426">
        <ele>679.20001220703</ele>
        <time>2022-04-09T14:22:45.000Z</time>
      </trkpt>
      <trkpt lat="43.86967" lon="7.46426">
        <ele>678.59997558594</ele>
        <time>2022-04-09T14:22:59.000Z</time>
      </trkpt>
      <trkpt lat="43.86969" lon="7.46426">
        <ele>678.79998779297</ele>
        <time>2022-04-09T14:23:13.000Z</time>
      </trkpt>
      <trkpt lat="43.8697" lon="7.46426">
        <ele>678.40002441406</ele>
        <time>2022-04-09T14:23:23.000Z</time>
      </trkpt>
      <trkpt lat="43.8697" lon="7.46426">
        <ele>678.59997558594</ele>
        <time>2022-04-09T14:23:39.000Z</time>
      </trkpt>
      <trkpt lat="43.86969" lon="7.46426">
        <ele>678.59997558594</ele>
        <time>2022-04-09T14:23:51.000Z</time>
      </trkpt>
      <trkpt lat="43.86971" lon="7.46426">
        <ele>678.20001220703</ele>
        <time>2022-04-09T14:24:11.000Z</time>
      </trkpt>
      <trkpt lat="43.86971" lon="7.46426">
        <ele>677.79998779297</ele>
        <time>2022-04-09T14:24:21.000Z</time>
      </trkpt>
      <trkpt lat="43.86971" lon="7.46426">
        <ele>677.59997558594</ele>
        <time>2022-04-09T14:24:29.000Z</time>
      </trkpt>
      <trkpt lat="43.86972" lon="7.46425">
        <ele>677.59997558594</ele>
        <time>2022-04-09T14:24:38.000Z</time>
      </trkpt>
      <trkpt lat="43.86973" lon="7.46425">
        <ele>678</ele>
        <time>2022-04-09T14:24:53.000Z</time>
      </trkpt>
      <trkpt lat="43.86972" lon="7.46426">
        <ele>678.20001220703</ele>
        <time>2022-04-09T14:25:07.000Z</time>
      </trkpt>
      <trkpt lat="43.86972" lon="7.46427">
        <ele>677.59997558594</ele>
        <time>2022-04-09T14:25:13.000Z</time>
      </trkpt>
      <trkpt lat="43.86971" lon="7.46429">
        <ele>677.79998779297</ele>
        <time>2022-04-09T14:25:14.000Z</time>
      </trkpt>
      <trkpt lat="43.86971" lon="7.46441">
        <ele>677.79998779297</ele>
        <time>2022-04-09T14:25:19.000Z</time>
      </trkpt>
      <trkpt lat="43.86969" lon="7.46456">
        <ele>679</ele>
        <time>2022-04-09T14:25:24.000Z</time>
      </trkpt>
      <trkpt lat="43.86966" lon="7.46464">
        <ele>679.79998779297</ele>
        <time>2022-04-09T14:25:27.000Z</time>
      </trkpt>
      <trkpt lat="43.86966" lon="7.46467">
        <ele>680.20001220703</ele>
        <time>2022-04-09T14:25:28.000Z</time>
      </trkpt>
      <trkpt lat="43.86962" lon="7.46479">
        <ele>681.40002441406</ele>
        <time>2022-04-09T14:25:32.000Z</time>
      </trkpt>
      <trkpt lat="43.86959" lon="7.46484">
        <ele>682</ele>
        <time>2022-04-09T14:25:34.000Z</time>
      </trkpt>
      <trkpt lat="43.86956" lon="7.4649">
        <ele>682.59997558594</ele>
        <time>2022-04-09T14:25:36.000Z</time>
      </trkpt>
      <trkpt lat="43.86952" lon="7.46498">
        <ele>683.59997558594</ele>
        <time>2022-04-09T14:25:39.000Z</time>
      </trkpt>
      <trkpt lat="43.86948" lon="7.46506">
        <ele>684.79998779297</ele>
        <time>2022-04-09T14:25:42.000Z</time>
      </trkpt>
      <trkpt lat="43.86943" lon="7.46514">
        <ele>686</ele>
        <time>2022-04-09T14:25:45.000Z</time>
      </trkpt>
      <trkpt lat="43.86939" lon="7.46523">
        <ele>687.40002441406</ele>
        <time>2022-04-09T14:25:48.000Z</time>
      </trkpt>
      <trkpt lat="43.86937" lon="7.4653">
        <ele>688</ele>
        <time>2022-04-09T14:25:50.000Z</time>
      </trkpt>
      <trkpt lat="43.86936" lon="7.46533">
        <ele>688.40002441406</ele>
        <time>2022-04-09T14:25:51.000Z</time>
      </trkpt>
      <trkpt lat="43.86934" lon="7.46547">
        <ele>689.59997558594</ele>
        <time>2022-04-09T14:25:55.000Z</time>
      </trkpt>
      <trkpt lat="43.86932" lon="7.46554">
        <ele>690.59997558594</ele>
        <time>2022-04-09T14:25:57.000Z</time>
      </trkpt>
      <trkpt lat="43.86931" lon="7.46564">
        <ele>691.79998779297</ele>
        <time>2022-04-09T14:26:00.000Z</time>
      </trkpt>
      <trkpt lat="43.86932" lon="7.46575">
        <ele>692.59997558594</ele>
        <time>2022-04-09T14:26:03.000Z</time>
      </trkpt>
      <trkpt lat="43.86934" lon="7.46582">
        <ele>693</ele>
        <time>2022-04-09T14:26:05.000Z</time>
      </trkpt>
      <trkpt lat="43.86935" lon="7.46597">
        <ele>694</ele>
        <time>2022-04-09T14:26:09.000Z</time>
      </trkpt>
      <trkpt lat="43.86935" lon="7.466">
        <ele>694.40002441406</ele>
        <time>2022-04-09T14:26:10.000Z</time>
      </trkpt>
      <trkpt lat="43.86935" lon="7.46611">
        <ele>695.20001220703</ele>
        <time>2022-04-09T14:26:13.000Z</time>
      </trkpt>
      <trkpt lat="43.86933" lon="7.46622">
        <ele>696.20001220703</ele>
        <time>2022-04-09T14:26:16.000Z</time>
      </trkpt>
      <trkpt lat="43.86932" lon="7.46625">
        <ele>696.59997558594</ele>
        <time>2022-04-09T14:26:17.000Z</time>
      </trkpt>
      <trkpt lat="43.86928" lon="7.46634">
        <ele>698</ele>
        <time>2022-04-09T14:26:20.000Z</time>
      </trkpt>
      <trkpt lat="43.86924" lon="7.46638">
        <ele>698.79998779297</ele>
        <time>2022-04-09T14:26:22.000Z</time>
      </trkpt>
      <trkpt lat="43.86922" lon="7.4664">
        <ele>699.20001220703</ele>
        <time>2022-04-09T14:26:23.000Z</time>
      </trkpt>
      <trkpt lat="43.86916" lon="7.46646">
        <ele>700.59997558594</ele>
        <time>2022-04-09T14:26:26.000Z</time>
      </trkpt>
      <trkpt lat="43.86911" lon="7.46655">
        <ele>701.59997558594</ele>
        <time>2022-04-09T14:26:29.000Z</time>
      </trkpt>
      <trkpt lat="43.86914" lon="7.46668">
        <ele>702.40002441406</ele>
        <time>2022-04-09T14:26:33.000Z</time>
      </trkpt>
      <trkpt lat="43.86916" lon="7.46671">
        <ele>702.59997558594</ele>
        <time>2022-04-09T14:26:34.000Z</time>
      </trkpt>
      <trkpt lat="43.86923" lon="7.4668">
        <ele>703.79998779297</ele>
        <time>2022-04-09T14:26:38.000Z</time>
      </trkpt>
      <trkpt lat="43.86924" lon="7.46684">
        <ele>704</ele>
        <time>2022-04-09T14:26:39.000Z</time>
      </trkpt>
      <trkpt lat="43.86924" lon="7.46694">
        <ele>705</ele>
        <time>2022-04-09T14:26:42.000Z</time>
      </trkpt>
      <trkpt lat="43.86923" lon="7.46697">
        <ele>705.40002441406</ele>
        <time>2022-04-09T14:26:43.000Z</time>
      </trkpt>
      <trkpt lat="43.86921" lon="7.46703">
        <ele>706.59997558594</ele>
        <time>2022-04-09T14:26:45.000Z</time>
      </trkpt>
      <trkpt lat="43.86918" lon="7.46712">
        <ele>707.59997558594</ele>
        <time>2022-04-09T14:26:48.000Z</time>
      </trkpt>
      <trkpt lat="43.86917" lon="7.46722">
        <ele>708.59997558594</ele>
        <time>2022-04-09T14:26:51.000Z</time>
      </trkpt>
      <trkpt lat="43.86916" lon="7.46725">
        <ele>709</ele>
        <time>2022-04-09T14:26:52.000Z</time>
      </trkpt>
      <trkpt lat="43.86915" lon="7.46735">
        <ele>710.40002441406</ele>
        <time>2022-04-09T14:26:55.000Z</time>
      </trkpt>
      <trkpt lat="43.86913" lon="7.46744">
        <ele>711.79998779297</ele>
        <time>2022-04-09T14:26:58.000Z</time>
      </trkpt>
      <trkpt lat="43.86912" lon="7.46748">
        <ele>712</ele>
        <time>2022-04-09T14:26:59.000Z</time>
      </trkpt>
      <trkpt lat="43.86907" lon="7.46756">
        <ele>712.79998779297</ele>
        <time>2022-04-09T14:27:02.000Z</time>
      </trkpt>
      <trkpt lat="43.86903" lon="7.46765">
        <ele>713.79998779297</ele>
        <time>2022-04-09T14:27:05.000Z</time>
      </trkpt>
      <trkpt lat="43.869" lon="7.46771">
        <ele>714.59997558594</ele>
        <time>2022-04-09T14:27:07.000Z</time>
      </trkpt>
      <trkpt lat="43.86898" lon="7.46777">
        <ele>715.20001220703</ele>
        <time>2022-04-09T14:27:09.000Z</time>
      </trkpt>
      <trkpt lat="43.86895" lon="7.46786">
        <ele>716.40002441406</ele>
        <time>2022-04-09T14:27:12.000Z</time>
      </trkpt>
      <trkpt lat="43.86893" lon="7.46792">
        <ele>717.20001220703</ele>
        <time>2022-04-09T14:27:14.000Z</time>
      </trkpt>
      <trkpt lat="43.86892" lon="7.46795">
        <ele>717.59997558594</ele>
        <time>2022-04-09T14:27:15.000Z</time>
      </trkpt>
      <trkpt lat="43.86889" lon="7.46805">
        <ele>718.59997558594</ele>
        <time>2022-04-09T14:27:18.000Z</time>
      </trkpt>
      <trkpt lat="43.86885" lon="7.46814">
        <ele>719.79998779297</ele>
        <time>2022-04-09T14:27:21.000Z</time>
      </trkpt>
      <trkpt lat="43.86884" lon="7.46816">
        <ele>720</ele>
        <time>2022-04-09T14:27:22.000Z</time>
      </trkpt>
      <trkpt lat="43.8688" lon="7.46826">
        <ele>721</ele>
        <time>2022-04-09T14:27:25.000Z</time>
      </trkpt>
      <trkpt lat="43.86877" lon="7.46838">
        <ele>722.20001220703</ele>
        <time>2022-04-09T14:27:29.000Z</time>
      </trkpt>
      <trkpt lat="43.86874" lon="7.46849">
        <ele>723.40002441406</ele>
        <time>2022-04-09T14:27:32.000Z</time>
      </trkpt>
      <trkpt lat="43.86871" lon="7.46861">
        <ele>724.59997558594</ele>
        <time>2022-04-09T14:27:36.000Z</time>
      </trkpt>
      <trkpt lat="43.86868" lon="7.4687">
        <ele>725.59997558594</ele>
        <time>2022-04-09T14:27:39.000Z</time>
      </trkpt>
      <trkpt lat="43.86866" lon="7.4688">
        <ele>726.79998779297</ele>
        <time>2022-04-09T14:27:42.000Z</time>
      </trkpt>
      <trkpt lat="43.86865" lon="7.46883">
        <ele>727.20001220703</ele>
        <time>2022-04-09T14:27:43.000Z</time>
      </trkpt>
      <trkpt lat="43.86862" lon="7.46889">
        <ele>727.79998779297</ele>
        <time>2022-04-09T14:27:45.000Z</time>
      </trkpt>
      <trkpt lat="43.86857" lon="7.469">
        <ele>729</ele>
        <time>2022-04-09T14:27:49.000Z</time>
      </trkpt>
      <trkpt lat="43.86855" lon="7.46903">
        <ele>729.40002441406</ele>
        <time>2022-04-09T14:27:50.000Z</time>
      </trkpt>
      <trkpt lat="43.86851" lon="7.46911">
        <ele>730.40002441406</ele>
        <time>2022-04-09T14:27:53.000Z</time>
      </trkpt>
      <trkpt lat="43.86847" lon="7.46923">
        <ele>731.40002441406</ele>
        <time>2022-04-09T14:27:57.000Z</time>
      </trkpt>
      <trkpt lat="43.86847" lon="7.46925">
        <ele>731.79998779297</ele>
        <time>2022-04-09T14:27:58.000Z</time>
      </trkpt>
      <trkpt lat="43.86846" lon="7.46932">
        <ele>732.59997558594</ele>
        <time>2022-04-09T14:28:00.000Z</time>
      </trkpt>
      <trkpt lat="43.86845" lon="7.46941">
        <ele>734</ele>
        <time>2022-04-09T14:28:03.000Z</time>
      </trkpt>
      <trkpt lat="43.86845" lon="7.46945">
        <ele>734.20001220703</ele>
        <time>2022-04-09T14:28:04.000Z</time>
      </trkpt>
      <trkpt lat="43.86842" lon="7.46957">
        <ele>735</ele>
        <time>2022-04-09T14:28:08.000Z</time>
      </trkpt>
      <trkpt lat="43.86839" lon="7.46967">
        <ele>736</ele>
        <time>2022-04-09T14:28:11.000Z</time>
      </trkpt>
      <trkpt lat="43.86838" lon="7.4697">
        <ele>736.40002441406</ele>
        <time>2022-04-09T14:28:12.000Z</time>
      </trkpt>
      <trkpt lat="43.86836" lon="7.46976">
        <ele>737.20001220703</ele>
        <time>2022-04-09T14:28:14.000Z</time>
      </trkpt>
      <trkpt lat="43.86831" lon="7.46991">
        <ele>738.40002441406</ele>
        <time>2022-04-09T14:28:19.000Z</time>
      </trkpt>
      <trkpt lat="43.8683" lon="7.46998">
        <ele>738.59997558594</ele>
        <time>2022-04-09T14:28:21.000Z</time>
      </trkpt>
      <trkpt lat="43.86826" lon="7.47011">
        <ele>739.40002441406</ele>
        <time>2022-04-09T14:28:25.000Z</time>
      </trkpt>
      <trkpt lat="43.86824" lon="7.4702">
        <ele>740.59997558594</ele>
        <time>2022-04-09T14:28:28.000Z</time>
      </trkpt>
      <trkpt lat="43.86822" lon="7.47027">
        <ele>741.59997558594</ele>
        <time>2022-04-09T14:28:30.000Z</time>
      </trkpt>
      <trkpt lat="43.86821" lon="7.47036">
        <ele>742.79998779297</ele>
        <time>2022-04-09T14:28:33.000Z</time>
      </trkpt>
      <trkpt lat="43.8682" lon="7.47043">
        <ele>743.20001220703</ele>
        <time>2022-04-09T14:28:35.000Z</time>
      </trkpt>
      <trkpt lat="43.86818" lon="7.47053">
        <ele>743.79998779297</ele>
        <time>2022-04-09T14:28:38.000Z</time>
      </trkpt>
      <trkpt lat="43.86815" lon="7.47069">
        <ele>745</ele>
        <time>2022-04-09T14:28:43.000Z</time>
      </trkpt>
      <trkpt lat="43.86813" lon="7.47078">
        <ele>745.79998779297</ele>
        <time>2022-04-09T14:28:46.000Z</time>
      </trkpt>
      <trkpt lat="43.86812" lon="7.47081">
        <ele>746.20001220703</ele>
        <time>2022-04-09T14:28:47.000Z</time>
      </trkpt>
      <trkpt lat="43.86807" lon="7.47092">
        <ele>747.40002441406</ele>
        <time>2022-04-09T14:28:51.000Z</time>
      </trkpt>
      <trkpt lat="43.86802" lon="7.47099">
        <ele>748.20001220703</ele>
        <time>2022-04-09T14:28:54.000Z</time>
      </trkpt>
      <trkpt lat="43.86799" lon="7.47103">
        <ele>748.59997558594</ele>
        <time>2022-04-09T14:28:56.000Z</time>
      </trkpt>
      <trkpt lat="43.86793" lon="7.47109">
        <ele>749.59997558594</ele>
        <time>2022-04-09T14:28:59.000Z</time>
      </trkpt>
      <trkpt lat="43.86787" lon="7.47115">
        <ele>750.59997558594</ele>
        <time>2022-04-09T14:29:02.000Z</time>
      </trkpt>
      <trkpt lat="43.86785" lon="7.47116">
        <ele>751</ele>
        <time>2022-04-09T14:29:03.000Z</time>
      </trkpt>
      <trkpt lat="43.8678" lon="7.47123">
        <ele>752</ele>
        <time>2022-04-09T14:29:06.000Z</time>
      </trkpt>
      <trkpt lat="43.86776" lon="7.47128">
        <ele>753.20001220703</ele>
        <time>2022-04-09T14:29:08.000Z</time>
      </trkpt>
      <trkpt lat="43.86773" lon="7.47134">
        <ele>754</ele>
        <time>2022-04-09T14:29:10.000Z</time>
      </trkpt>
      <trkpt lat="43.86771" lon="7.47139">
        <ele>754.40002441406</ele>
        <time>2022-04-09T14:29:12.000Z</time>
      </trkpt>
      <trkpt lat="43.86766" lon="7.47153">
        <ele>755.40002441406</ele>
        <time>2022-04-09T14:29:17.000Z</time>
      </trkpt>
      <trkpt lat="43.86763" lon="7.47162">
        <ele>756.79998779297</ele>
        <time>2022-04-09T14:29:20.000Z</time>
      </trkpt>
      <trkpt lat="43.86761" lon="7.47171">
        <ele>757.79998779297</ele>
        <time>2022-04-09T14:29:23.000Z</time>
      </trkpt>
      <trkpt lat="43.8676" lon="7.47177">
        <ele>758.40002441406</ele>
        <time>2022-04-09T14:29:25.000Z</time>
      </trkpt>
      <trkpt lat="43.86758" lon="7.47183">
        <ele>759</ele>
        <time>2022-04-09T14:29:27.000Z</time>
      </trkpt>
      <trkpt lat="43.86755" lon="7.47195">
        <ele>760.20001220703</ele>
        <time>2022-04-09T14:29:31.000Z</time>
      </trkpt>
      <trkpt lat="43.86753" lon="7.47204">
        <ele>761.20001220703</ele>
        <time>2022-04-09T14:29:34.000Z</time>
      </trkpt>
      <trkpt lat="43.86751" lon="7.47215">
        <ele>762.20001220703</ele>
        <time>2022-04-09T14:29:37.000Z</time>
      </trkpt>
      <trkpt lat="43.86748" lon="7.47229">
        <ele>763.40002441406</ele>
        <time>2022-04-09T14:29:41.000Z</time>
      </trkpt>
      <trkpt lat="43.86747" lon="7.47236">
        <ele>764</ele>
        <time>2022-04-09T14:29:43.000Z</time>
      </trkpt>
      <trkpt lat="43.86746" lon="7.47243">
        <ele>764.79998779297</ele>
        <time>2022-04-09T14:29:45.000Z</time>
      </trkpt>
      <trkpt lat="43.86744" lon="7.47254">
        <ele>765.79998779297</ele>
        <time>2022-04-09T14:29:48.000Z</time>
      </trkpt>
      <trkpt lat="43.86741" lon="7.47264">
        <ele>766.79998779297</ele>
        <time>2022-04-09T14:29:51.000Z</time>
      </trkpt>
      <trkpt lat="43.86738" lon="7.47273">
        <ele>768</ele>
        <time>2022-04-09T14:29:54.000Z</time>
      </trkpt>
      <trkpt lat="43.86735" lon="7.47284">
        <ele>769.20001220703</ele>
        <time>2022-04-09T14:29:58.000Z</time>
      </trkpt>
      <trkpt lat="43.86732" lon="7.47294">
        <ele>769.79998779297</ele>
        <time>2022-04-09T14:30:01.000Z</time>
      </trkpt>
      <trkpt lat="43.8673" lon="7.47299">
        <ele>770.40002441406</ele>
        <time>2022-04-09T14:30:03.000Z</time>
      </trkpt>
      <trkpt lat="43.86724" lon="7.47312">
        <ele>771.79998779297</ele>
        <time>2022-04-09T14:30:07.000Z</time>
      </trkpt>
      <trkpt lat="43.86721" lon="7.47317">
        <ele>772.59997558594</ele>
        <time>2022-04-09T14:30:09.000Z</time>
      </trkpt>
      <trkpt lat="43.86719" lon="7.4732">
        <ele>773</ele>
        <time>2022-04-09T14:30:10.000Z</time>
      </trkpt>
      <trkpt lat="43.86711" lon="7.47331">
        <ele>774.40002441406</ele>
        <time>2022-04-09T14:30:14.000Z</time>
      </trkpt>
      <trkpt lat="43.86706" lon="7.47339">
        <ele>775.79998779297</ele>
        <time>2022-04-09T14:30:17.000Z</time>
      </trkpt>
      <trkpt lat="43.86699" lon="7.47347">
        <ele>777</ele>
        <time>2022-04-09T14:30:20.000Z</time>
      </trkpt>
      <trkpt lat="43.86693" lon="7.47354">
        <ele>778</ele>
        <time>2022-04-09T14:30:23.000Z</time>
      </trkpt>
      <trkpt lat="43.8669" lon="7.47356">
        <ele>778.40002441406</ele>
        <time>2022-04-09T14:30:24.000Z</time>
      </trkpt>
      <trkpt lat="43.86686" lon="7.4736">
        <ele>779.20001220703</ele>
        <time>2022-04-09T14:30:26.000Z</time>
      </trkpt>
      <trkpt lat="43.86677" lon="7.47369">
        <ele>780.20001220703</ele>
        <time>2022-04-09T14:30:30.000Z</time>
      </trkpt>
      <trkpt lat="43.86671" lon="7.47376">
        <ele>780.79998779297</ele>
        <time>2022-04-09T14:30:33.000Z</time>
      </trkpt>
      <trkpt lat="43.86667" lon="7.4738">
        <ele>781.40002441406</ele>
        <time>2022-04-09T14:30:35.000Z</time>
      </trkpt>
      <trkpt lat="43.8666" lon="7.4739">
        <ele>782.59997558594</ele>
        <time>2022-04-09T14:30:39.000Z</time>
      </trkpt>
      <trkpt lat="43.86656" lon="7.47395">
        <ele>783.40002441406</ele>
        <time>2022-04-09T14:30:41.000Z</time>
      </trkpt>
      <trkpt lat="43.86654" lon="7.47397">
        <ele>783.59997558594</ele>
        <time>2022-04-09T14:30:42.000Z</time>
      </trkpt>
      <trkpt lat="43.86647" lon="7.47405">
        <ele>785</ele>
        <time>2022-04-09T14:30:45.000Z</time>
      </trkpt>
      <trkpt lat="43.86641" lon="7.47412">
        <ele>786</ele>
        <time>2022-04-09T14:30:48.000Z</time>
      </trkpt>
      <trkpt lat="43.86639" lon="7.47414">
        <ele>786.40002441406</ele>
        <time>2022-04-09T14:30:49.000Z</time>
      </trkpt>
      <trkpt lat="43.86632" lon="7.47421">
        <ele>787.20001220703</ele>
        <time>2022-04-09T14:30:53.000Z</time>
      </trkpt>
      <trkpt lat="43.86626" lon="7.47425">
        <ele>788.59997558594</ele>
        <time>2022-04-09T14:30:56.000Z</time>
      </trkpt>
      <trkpt lat="43.86623" lon="7.47426">
        <ele>789</ele>
        <time>2022-04-09T14:30:57.000Z</time>
      </trkpt>
      <trkpt lat="43.86619" lon="7.47426">
        <ele>789.79998779297</ele>
        <time>2022-04-09T14:30:59.000Z</time>
      </trkpt>
      <trkpt lat="43.86605" lon="7.47425">
        <ele>790.79998779297</ele>
        <time>2022-04-09T14:31:04.000Z</time>
      </trkpt>
      <trkpt lat="43.86603" lon="7.47425">
        <ele>791</ele>
        <time>2022-04-09T14:31:05.000Z</time>
      </trkpt>
      <trkpt lat="43.86585" lon="7.47424">
        <ele>792.20001220703</ele>
        <time>2022-04-09T14:31:11.000Z</time>
      </trkpt>
      <trkpt lat="43.86582" lon="7.47423">
        <ele>792.59997558594</ele>
        <time>2022-04-09T14:31:12.000Z</time>
      </trkpt>
      <trkpt lat="43.86576" lon="7.47422">
        <ele>793.40002441406</ele>
        <time>2022-04-09T14:31:14.000Z</time>
      </trkpt>
      <trkpt lat="43.86568" lon="7.47419">
        <ele>794.79998779297</ele>
        <time>2022-04-09T14:31:17.000Z</time>
      </trkpt>
      <trkpt lat="43.8656" lon="7.47414">
        <ele>796.20001220703</ele>
        <time>2022-04-09T14:31:20.000Z</time>
      </trkpt>
      <trkpt lat="43.86551" lon="7.4741">
        <ele>797.40002441406</ele>
        <time>2022-04-09T14:31:24.000Z</time>
      </trkpt>
      <trkpt lat="43.86544" lon="7.47408">
        <ele>798.20001220703</ele>
        <time>2022-04-09T14:31:27.000Z</time>
      </trkpt>
      <trkpt lat="43.8654" lon="7.47408">
        <ele>798.59997558594</ele>
        <time>2022-04-09T14:31:29.000Z</time>
      </trkpt>
      <trkpt lat="43.86529" lon="7.47407">
        <ele>799.40002441406</ele>
        <time>2022-04-09T14:31:35.000Z</time>
      </trkpt>
      <trkpt lat="43.86512" lon="7.47412">
        <ele>799</ele>
        <time>2022-04-09T14:31:40.000Z</time>
      </trkpt>
      <trkpt lat="43.86487" lon="7.47419">
        <ele>797.40002441406</ele>
        <time>2022-04-09T14:31:44.000Z</time>
      </trkpt>
      <trkpt lat="43.86479" lon="7.47419">
        <ele>796.59997558594</ele>
        <time>2022-04-09T14:31:45.000Z</time>
      </trkpt>
      <trkpt lat="43.86472" lon="7.4742">
        <ele>795.59997558594</ele>
        <time>2022-04-09T14:31:46.000Z</time>
      </trkpt>
      <trkpt lat="43.86464" lon="7.47423">
        <ele>794.59997558594</ele>
        <time>2022-04-09T14:31:47.000Z</time>
      </trkpt>
      <trkpt lat="43.86458" lon="7.47428">
        <ele>793.59997558594</ele>
        <time>2022-04-09T14:31:48.000Z</time>
      </trkpt>
      <trkpt lat="43.86452" lon="7.47436">
        <ele>792</ele>
        <time>2022-04-09T14:31:49.000Z</time>
      </trkpt>
      <trkpt lat="43.8644" lon="7.47455">
        <ele>790.40002441406</ele>
        <time>2022-04-09T14:31:51.000Z</time>
      </trkpt>
      <trkpt lat="43.86434" lon="7.47463">
        <ele>789.79998779297</ele>
        <time>2022-04-09T14:31:52.000Z</time>
      </trkpt>
      <trkpt lat="43.86427" lon="7.47468">
        <ele>789</ele>
        <time>2022-04-09T14:31:53.000Z</time>
      </trkpt>
      <trkpt lat="43.86421" lon="7.47473">
        <ele>788.40002441406</ele>
        <time>2022-04-09T14:31:54.000Z</time>
      </trkpt>
      <trkpt lat="43.86416" lon="7.47477">
        <ele>788.40002441406</ele>
        <time>2022-04-09T14:31:55.000Z</time>
      </trkpt>
      <trkpt lat="43.86407" lon="7.47486">
        <ele>789.20001220703</ele>
        <time>2022-04-09T14:31:58.000Z</time>
      </trkpt>
      <trkpt lat="43.86404" lon="7.4749">
        <ele>790.20001220703</ele>
        <time>2022-04-09T14:32:00.000Z</time>
      </trkpt>
      <trkpt lat="43.86401" lon="7.47491">
        <ele>791.40002441406</ele>
        <time>2022-04-09T14:32:02.000Z</time>
      </trkpt>
      <trkpt lat="43.86398" lon="7.47494">
        <ele>792.59997558594</ele>
        <time>2022-04-09T14:32:05.000Z</time>
      </trkpt>
      <trkpt lat="43.86393" lon="7.47502">
        <ele>793</ele>
        <time>2022-04-09T14:32:09.000Z</time>
      </trkpt>
      <trkpt lat="43.86388" lon="7.47508">
        <ele>793.59997558594</ele>
        <time>2022-04-09T14:32:12.000Z</time>
      </trkpt>
      <trkpt lat="43.86381" lon="7.47516">
        <ele>794.59997558594</ele>
        <time>2022-04-09T14:32:16.000Z</time>
      </trkpt>
      <trkpt lat="43.86379" lon="7.47519">
        <ele>795</ele>
        <time>2022-04-09T14:32:17.000Z</time>
      </trkpt>
      <trkpt lat="43.86372" lon="7.47526">
        <ele>795.79998779297</ele>
        <time>2022-04-09T14:32:20.000Z</time>
      </trkpt>
      <trkpt lat="43.86365" lon="7.47533">
        <ele>797</ele>
        <time>2022-04-09T14:32:23.000Z</time>
      </trkpt>
      <trkpt lat="43.86359" lon="7.4754">
        <ele>798.40002441406</ele>
        <time>2022-04-09T14:32:26.000Z</time>
      </trkpt>
      <trkpt lat="43.86348" lon="7.47549">
        <ele>799.40002441406</ele>
        <time>2022-04-09T14:32:30.000Z</time>
      </trkpt>
      <trkpt lat="43.8634" lon="7.47554">
        <ele>800.20001220703</ele>
        <time>2022-04-09T14:32:33.000Z</time>
      </trkpt>
      <trkpt lat="43.86337" lon="7.47556">
        <ele>800.59997558594</ele>
        <time>2022-04-09T14:32:34.000Z</time>
      </trkpt>
      <trkpt lat="43.8632" lon="7.47565">
        <ele>801.79998779297</ele>
        <time>2022-04-09T14:32:40.000Z</time>
      </trkpt>
      <trkpt lat="43.86312" lon="7.47569">
        <ele>802.59997558594</ele>
        <time>2022-04-09T14:32:43.000Z</time>
      </trkpt>
      <trkpt lat="43.86309" lon="7.47571">
        <ele>803</ele>
        <time>2022-04-09T14:32:44.000Z</time>
      </trkpt>
      <trkpt lat="43.86297" lon="7.47575">
        <ele>804.20001220703</ele>
        <time>2022-04-09T14:32:48.000Z</time>
      </trkpt>
      <trkpt lat="43.86289" lon="7.47579">
        <ele>805.20001220703</ele>
        <time>2022-04-09T14:32:51.000Z</time>
      </trkpt>
      <trkpt lat="43.86286" lon="7.47581">
        <ele>805.59997558594</ele>
        <time>2022-04-09T14:32:52.000Z</time>
      </trkpt>
      <trkpt lat="43.86275" lon="7.47585">
        <ele>806.59997558594</ele>
        <time>2022-04-09T14:32:56.000Z</time>
      </trkpt>
      <trkpt lat="43.86272" lon="7.47587">
        <ele>806.79998779297</ele>
        <time>2022-04-09T14:32:57.000Z</time>
      </trkpt>
      <trkpt lat="43.86264" lon="7.47592">
        <ele>807.59997558594</ele>
        <time>2022-04-09T14:33:00.000Z</time>
      </trkpt>
      <trkpt lat="43.86254" lon="7.47598">
        <ele>808.79998779297</ele>
        <time>2022-04-09T14:33:04.000Z</time>
      </trkpt>
      <trkpt lat="43.86246" lon="7.47606">
        <ele>809.79998779297</ele>
        <time>2022-04-09T14:33:07.000Z</time>
      </trkpt>
      <trkpt lat="43.86243" lon="7.47617">
        <ele>810.59997558594</ele>
        <time>2022-04-09T14:33:10.000Z</time>
      </trkpt>
      <trkpt lat="43.86243" lon="7.4763">
        <ele>811</ele>
        <time>2022-04-09T14:33:13.000Z</time>
      </trkpt>
      <trkpt lat="43.86244" lon="7.47638">
        <ele>811.59997558594</ele>
        <time>2022-04-09T14:33:15.000Z</time>
      </trkpt>
      <trkpt lat="43.86245" lon="7.47646">
        <ele>812.20001220703</ele>
        <time>2022-04-09T14:33:17.000Z</time>
      </trkpt>
      <trkpt lat="43.86242" lon="7.4766">
        <ele>813.20001220703</ele>
        <time>2022-04-09T14:33:21.000Z</time>
      </trkpt>
      <trkpt lat="43.86232" lon="7.47664">
        <ele>814</ele>
        <time>2022-04-09T14:33:25.000Z</time>
      </trkpt>
      <trkpt lat="43.86226" lon="7.47664">
        <ele>814.40002441406</ele>
        <time>2022-04-09T14:33:27.000Z</time>
      </trkpt>
      <trkpt lat="43.86216" lon="7.47662">
        <ele>814.79998779297</ele>
        <time>2022-04-09T14:33:31.000Z</time>
      </trkpt>
      <trkpt lat="43.86208" lon="7.4766">
        <ele>815.40002441406</ele>
        <time>2022-04-09T14:33:34.000Z</time>
      </trkpt>
      <trkpt lat="43.86199" lon="7.47656">
        <ele>816.40002441406</ele>
        <time>2022-04-09T14:33:37.000Z</time>
      </trkpt>
      <trkpt lat="43.86196" lon="7.47655">
        <ele>816.59997558594</ele>
        <time>2022-04-09T14:33:38.000Z</time>
      </trkpt>
      <trkpt lat="43.86185" lon="7.4765">
        <ele>817.59997558594</ele>
        <time>2022-04-09T14:33:42.000Z</time>
      </trkpt>
      <trkpt lat="43.86177" lon="7.47648">
        <ele>818.40002441406</ele>
        <time>2022-04-09T14:33:45.000Z</time>
      </trkpt>
      <trkpt lat="43.86172" lon="7.47645">
        <ele>818.79998779297</ele>
        <time>2022-04-09T14:33:47.000Z</time>
      </trkpt>
      <trkpt lat="43.86162" lon="7.4764">
        <ele>819.59997558594</ele>
        <time>2022-04-09T14:33:51.000Z</time>
      </trkpt>
      <trkpt lat="43.8616" lon="7.47638">
        <ele>820</ele>
        <time>2022-04-09T14:33:52.000Z</time>
      </trkpt>
      <trkpt lat="43.86151" lon="7.47632">
        <ele>821.40002441406</ele>
        <time>2022-04-09T14:33:56.000Z</time>
      </trkpt>
      <trkpt lat="43.86144" lon="7.47623">
        <ele>822.59997558594</ele>
        <time>2022-04-09T14:34:00.000Z</time>
      </trkpt>
      <trkpt lat="43.86141" lon="7.47609">
        <ele>823.59997558594</ele>
        <time>2022-04-09T14:34:05.000Z</time>
      </trkpt>
      <trkpt lat="43.8614" lon="7.47606">
        <ele>824</ele>
        <time>2022-04-09T14:34:06.000Z</time>
      </trkpt>
      <trkpt lat="43.8614" lon="7.47596">
        <ele>825</ele>
        <time>2022-04-09T14:34:09.000Z</time>
      </trkpt>
      <trkpt lat="43.86139" lon="7.47589">
        <ele>825.40002441406</ele>
        <time>2022-04-09T14:34:11.000Z</time>
      </trkpt>
      <trkpt lat="43.86137" lon="7.47578">
        <ele>826.20001220703</ele>
        <time>2022-04-09T14:34:14.000Z</time>
      </trkpt>
      <trkpt lat="43.86135" lon="7.47564">
        <ele>827.40002441406</ele>
        <time>2022-04-09T14:34:18.000Z</time>
      </trkpt>
      <trkpt lat="43.86134" lon="7.47561">
        <ele>827.59997558594</ele>
        <time>2022-04-09T14:34:19.000Z</time>
      </trkpt>
      <trkpt lat="43.86131" lon="7.47551">
        <ele>828.40002441406</ele>
        <time>2022-04-09T14:34:22.000Z</time>
      </trkpt>
      <trkpt lat="43.86124" lon="7.47533">
        <ele>829.20001220703</ele>
        <time>2022-04-09T14:34:28.000Z</time>
      </trkpt>
      <trkpt lat="43.86121" lon="7.47527">
        <ele>829.59997558594</ele>
        <time>2022-04-09T14:34:30.000Z</time>
      </trkpt>
      <trkpt lat="43.8612" lon="7.4752">
        <ele>830.20001220703</ele>
        <time>2022-04-09T14:34:32.000Z</time>
      </trkpt>
      <trkpt lat="43.86121" lon="7.47517">
        <ele>830.40002441406</ele>
        <time>2022-04-09T14:34:33.000Z</time>
      </trkpt>
      <trkpt lat="43.86124" lon="7.47516">
        <ele>830.79998779297</ele>
        <time>2022-04-09T14:34:34.000Z</time>
      </trkpt>
      <trkpt lat="43.86129" lon="7.47518">
        <ele>831.40002441406</ele>
        <time>2022-04-09T14:34:36.000Z</time>
      </trkpt>
      <trkpt lat="43.86132" lon="7.47524">
        <ele>832</ele>
        <time>2022-04-09T14:34:38.000Z</time>
      </trkpt>
      <trkpt lat="43.86134" lon="7.47527">
        <ele>832.20001220703</ele>
        <time>2022-04-09T14:34:39.000Z</time>
      </trkpt>
      <trkpt lat="43.86136" lon="7.47534">
        <ele>832.40002441406</ele>
        <time>2022-04-09T14:34:41.000Z</time>
      </trkpt>
      <trkpt lat="43.86141" lon="7.47542">
        <ele>833</ele>
        <time>2022-04-09T14:34:44.000Z</time>
      </trkpt>
      <trkpt lat="43.86152" lon="7.47553">
        <ele>834.20001220703</ele>
        <time>2022-04-09T14:34:49.000Z</time>
      </trkpt>
      <trkpt lat="43.86167" lon="7.47553">
        <ele>835</ele>
        <time>2022-04-09T14:34:55.000Z</time>
      </trkpt>
      <trkpt lat="43.86172" lon="7.47551">
        <ele>835.20001220703</ele>
        <time>2022-04-09T14:34:57.000Z</time>
      </trkpt>
      <trkpt lat="43.86178" lon="7.47542">
        <ele>835.59997558594</ele>
        <time>2022-04-09T14:35:01.000Z</time>
      </trkpt>
      <trkpt lat="43.86179" lon="7.47532">
        <ele>836.59997558594</ele>
        <time>2022-04-09T14:35:05.000Z</time>
      </trkpt>
      <trkpt lat="43.86178" lon="7.4753">
        <ele>836.79998779297</ele>
        <time>2022-04-09T14:35:06.000Z</time>
      </trkpt>
      <trkpt lat="43.8617" lon="7.47522">
        <ele>837.79998779297</ele>
        <time>2022-04-09T14:35:11.000Z</time>
      </trkpt>
      <trkpt lat="43.86168" lon="7.47521">
        <ele>838</ele>
        <time>2022-04-09T14:35:12.000Z</time>
      </trkpt>
      <trkpt lat="43.86163" lon="7.47517">
        <ele>838.79998779297</ele>
        <time>2022-04-09T14:35:15.000Z</time>
      </trkpt>
      <trkpt lat="43.86155" lon="7.47509">
        <ele>839.20001220703</ele>
        <time>2022-04-09T14:35:20.000Z</time>
      </trkpt>
      <trkpt lat="43.86146" lon="7.47501">
        <ele>839.79998779297</ele>
        <time>2022-04-09T14:35:24.000Z</time>
      </trkpt>
      <trkpt lat="43.86138" lon="7.47494">
        <ele>840.40002441406</ele>
        <time>2022-04-09T14:35:28.000Z</time>
      </trkpt>
      <trkpt lat="43.86131" lon="7.47488">
        <ele>840.79998779297</ele>
        <time>2022-04-09T14:35:31.000Z</time>
      </trkpt>
      <trkpt lat="43.86118" lon="7.47479">
        <ele>841.79998779297</ele>
        <time>2022-04-09T14:35:37.000Z</time>
      </trkpt>
      <trkpt lat="43.86107" lon="7.47472">
        <ele>843</ele>
        <time>2022-04-09T14:35:42.000Z</time>
      </trkpt>
      <trkpt lat="43.86097" lon="7.47464">
        <ele>844</ele>
        <time>2022-04-09T14:35:47.000Z</time>
      </trkpt>
      <trkpt lat="43.86095" lon="7.47463">
        <ele>844.40002441406</ele>
        <time>2022-04-09T14:35:48.000Z</time>
      </trkpt>
      <trkpt lat="43.86087" lon="7.47456">
        <ele>845.40002441406</ele>
        <time>2022-04-09T14:35:52.000Z</time>
      </trkpt>
      <trkpt lat="43.86076" lon="7.47447">
        <ele>846.40002441406</ele>
        <time>2022-04-09T14:35:57.000Z</time>
      </trkpt>
      <trkpt lat="43.86074" lon="7.47445">
        <ele>846.79998779297</ele>
        <time>2022-04-09T14:35:58.000Z</time>
      </trkpt>
      <trkpt lat="43.86068" lon="7.4744">
        <ele>847.59997558594</ele>
        <time>2022-04-09T14:36:01.000Z</time>
      </trkpt>
      <trkpt lat="43.86058" lon="7.47435">
        <ele>848.79998779297</ele>
        <time>2022-04-09T14:36:06.000Z</time>
      </trkpt>
      <trkpt lat="43.86048" lon="7.47429">
        <ele>849.79998779297</ele>
        <time>2022-04-09T14:36:11.000Z</time>
      </trkpt>
      <trkpt lat="43.86042" lon="7.47426">
        <ele>850.59997558594</ele>
        <time>2022-04-09T14:36:14.000Z</time>
      </trkpt>
      <trkpt lat="43.8604" lon="7.47424">
        <ele>850.79998779297</ele>
        <time>2022-04-09T14:36:15.000Z</time>
      </trkpt>
      <trkpt lat="43.86029" lon="7.47418">
        <ele>852</ele>
        <time>2022-04-09T14:36:20.000Z</time>
      </trkpt>
      <trkpt lat="43.86023" lon="7.47415">
        <ele>852.59997558594</ele>
        <time>2022-04-09T14:36:23.000Z</time>
      </trkpt>
      <trkpt lat="43.86018" lon="7.47412">
        <ele>853</ele>
        <time>2022-04-09T14:36:25.000Z</time>
      </trkpt>
      <trkpt lat="43.86008" lon="7.47405">
        <ele>854.40002441406</ele>
        <time>2022-04-09T14:36:30.000Z</time>
      </trkpt>
      <trkpt lat="43.86003" lon="7.47402">
        <ele>854.79998779297</ele>
        <time>2022-04-09T14:36:32.000Z</time>
      </trkpt>
      <trkpt lat="43.85996" lon="7.47398">
        <ele>855.40002441406</ele>
        <time>2022-04-09T14:36:35.000Z</time>
      </trkpt>
      <trkpt lat="43.85985" lon="7.4739">
        <ele>856.59997558594</ele>
        <time>2022-04-09T14:36:40.000Z</time>
      </trkpt>
      <trkpt lat="43.85982" lon="7.47388">
        <ele>856.79998779297</ele>
        <time>2022-04-09T14:36:41.000Z</time>
      </trkpt>
      <trkpt lat="43.85972" lon="7.47381">
        <ele>857.59997558594</ele>
        <time>2022-04-09T14:36:45.000Z</time>
      </trkpt>
      <trkpt lat="43.85965" lon="7.47377">
        <ele>858.79998779297</ele>
        <time>2022-04-09T14:36:48.000Z</time>
      </trkpt>
      <trkpt lat="43.85961" lon="7.47373">
        <ele>859.40002441406</ele>
        <time>2022-04-09T14:36:50.000Z</time>
      </trkpt>
      <trkpt lat="43.85954" lon="7.47369">
        <ele>859.79998779297</ele>
        <time>2022-04-09T14:36:53.000Z</time>
      </trkpt>
      <trkpt lat="43.85946" lon="7.47362">
        <ele>861</ele>
        <time>2022-04-09T14:36:57.000Z</time>
      </trkpt>
      <trkpt lat="43.85936" lon="7.47356">
        <ele>862.20001220703</ele>
        <time>2022-04-09T14:37:02.000Z</time>
      </trkpt>
      <trkpt lat="43.85933" lon="7.47357">
        <ele>862.40002441406</ele>
        <time>2022-04-09T14:37:03.000Z</time>
      </trkpt>
      <trkpt lat="43.85921" lon="7.47358">
        <ele>863.20001220703</ele>
        <time>2022-04-09T14:37:08.000Z</time>
      </trkpt>
      <trkpt lat="43.85919" lon="7.47356">
        <ele>863.40002441406</ele>
        <time>2022-04-09T14:37:09.000Z</time>
      </trkpt>
      <trkpt lat="43.85918" lon="7.47353">
        <ele>863.59997558594</ele>
        <time>2022-04-09T14:37:10.000Z</time>
      </trkpt>
      <trkpt lat="43.8592" lon="7.47347">
        <ele>864.20001220703</ele>
        <time>2022-04-09T14:37:12.000Z</time>
      </trkpt>
      <trkpt lat="43.85922" lon="7.47346">
        <ele>864.40002441406</ele>
        <time>2022-04-09T14:37:13.000Z</time>
      </trkpt>
      <trkpt lat="43.85927" lon="7.47346">
        <ele>864.79998779297</ele>
        <time>2022-04-09T14:37:15.000Z</time>
      </trkpt>
      <trkpt lat="43.8593" lon="7.47346">
        <ele>865</ele>
        <time>2022-04-09T14:37:16.000Z</time>
      </trkpt>
      <trkpt lat="43.85944" lon="7.47347">
        <ele>865.59997558594</ele>
        <time>2022-04-09T14:37:22.000Z</time>
      </trkpt>
      <trkpt lat="43.85949" lon="7.47349">
        <ele>865.79998779297</ele>
        <time>2022-04-09T14:37:24.000Z</time>
      </trkpt>
      <trkpt lat="43.85955" lon="7.47353">
        <ele>866.79998779297</ele>
        <time>2022-04-09T14:37:28.000Z</time>
      </trkpt>
      <trkpt lat="43.85959" lon="7.47355">
        <ele>867</ele>
        <time>2022-04-09T14:37:30.000Z</time>
      </trkpt>
      <trkpt lat="43.85968" lon="7.47358">
        <ele>867.79998779297</ele>
        <time>2022-04-09T14:37:35.000Z</time>
      </trkpt>
      <trkpt lat="43.85974" lon="7.47359">
        <ele>868.20001220703</ele>
        <time>2022-04-09T14:37:38.000Z</time>
      </trkpt>
      <trkpt lat="43.85982" lon="7.47361">
        <ele>868.79998779297</ele>
        <time>2022-04-09T14:37:41.000Z</time>
      </trkpt>
      <trkpt lat="43.85993" lon="7.47363">
        <ele>869.79998779297</ele>
        <time>2022-04-09T14:37:46.000Z</time>
      </trkpt>
      <trkpt lat="43.85995" lon="7.47364">
        <ele>870</ele>
        <time>2022-04-09T14:37:47.000Z</time>
      </trkpt>
      <trkpt lat="43.86005" lon="7.47366">
        <ele>871.20001220703</ele>
        <time>2022-04-09T14:37:52.000Z</time>
      </trkpt>
      <trkpt lat="43.8601" lon="7.47366">
        <ele>871.59997558594</ele>
        <time>2022-04-09T14:37:54.000Z</time>
      </trkpt>
      <trkpt lat="43.86016" lon="7.47366">
        <ele>872.40002441406</ele>
        <time>2022-04-09T14:37:57.000Z</time>
      </trkpt>
      <trkpt lat="43.86025" lon="7.47367">
        <ele>873.40002441406</ele>
        <time>2022-04-09T14:38:01.000Z</time>
      </trkpt>
      <trkpt lat="43.86027" lon="7.47368">
        <ele>873.59997558594</ele>
        <time>2022-04-09T14:38:02.000Z</time>
      </trkpt>
      <trkpt lat="43.86036" lon="7.47369">
        <ele>874.79998779297</ele>
        <time>2022-04-09T14:38:06.000Z</time>
      </trkpt>
      <trkpt lat="43.86044" lon="7.4737">
        <ele>875.20001220703</ele>
        <time>2022-04-09T14:38:09.000Z</time>
      </trkpt>
      <trkpt lat="43.86055" lon="7.47372">
        <ele>875.79998779297</ele>
        <time>2022-04-09T14:38:13.000Z</time>
      </trkpt>
      <trkpt lat="43.86067" lon="7.47374">
        <ele>876.79998779297</ele>
        <time>2022-04-09T14:38:18.000Z</time>
      </trkpt>
      <trkpt lat="43.8607" lon="7.47375">
        <ele>877</ele>
        <time>2022-04-09T14:38:19.000Z</time>
      </trkpt>
      <trkpt lat="43.86079" lon="7.47378">
        <ele>878</ele>
        <time>2022-04-09T14:38:23.000Z</time>
      </trkpt>
      <trkpt lat="43.86084" lon="7.4738">
        <ele>878.40002441406</ele>
        <time>2022-04-09T14:38:25.000Z</time>
      </trkpt>
      <trkpt lat="43.86093" lon="7.47382">
        <ele>879.40002441406</ele>
        <time>2022-04-09T14:38:29.000Z</time>
      </trkpt>
      <trkpt lat="43.86103" lon="7.47384">
        <ele>880.40002441406</ele>
        <time>2022-04-09T14:38:33.000Z</time>
      </trkpt>
      <trkpt lat="43.86105" lon="7.47385">
        <ele>880.59997558594</ele>
        <time>2022-04-09T14:38:34.000Z</time>
      </trkpt>
      <trkpt lat="43.86114" lon="7.47387">
        <ele>881.40002441406</ele>
        <time>2022-04-09T14:38:38.000Z</time>
      </trkpt>
      <trkpt lat="43.86123" lon="7.47389">
        <ele>882.59997558594</ele>
        <time>2022-04-09T14:38:42.000Z</time>
      </trkpt>
      <trkpt lat="43.8613" lon="7.47389">
        <ele>883.59997558594</ele>
        <time>2022-04-09T14:38:45.000Z</time>
      </trkpt>
      <trkpt lat="43.86138" lon="7.47389">
        <ele>884.40002441406</ele>
        <time>2022-04-09T14:38:48.000Z</time>
      </trkpt>
      <trkpt lat="43.86143" lon="7.4739">
        <ele>884.79998779297</ele>
        <time>2022-04-09T14:38:50.000Z</time>
      </trkpt>
      <trkpt lat="43.86155" lon="7.47393">
        <ele>886</ele>
        <time>2022-04-09T14:38:54.000Z</time>
      </trkpt>
      <trkpt lat="43.8616" lon="7.47394">
        <ele>886.59997558594</ele>
        <time>2022-04-09T14:38:56.000Z</time>
      </trkpt>
      <trkpt lat="43.86165" lon="7.47395">
        <ele>887</ele>
        <time>2022-04-09T14:38:58.000Z</time>
      </trkpt>
      <trkpt lat="43.86175" lon="7.47396">
        <ele>888</ele>
        <time>2022-04-09T14:39:02.000Z</time>
      </trkpt>
      <trkpt lat="43.86184" lon="7.47398">
        <ele>888.79998779297</ele>
        <time>2022-04-09T14:39:05.000Z</time>
      </trkpt>
      <trkpt lat="43.86186" lon="7.47399">
        <ele>889.20001220703</ele>
        <time>2022-04-09T14:39:06.000Z</time>
      </trkpt>
      <trkpt lat="43.86195" lon="7.47402">
        <ele>890.20001220703</ele>
        <time>2022-04-09T14:39:09.000Z</time>
      </trkpt>
      <trkpt lat="43.86207" lon="7.47404">
        <ele>891.40002441406</ele>
        <time>2022-04-09T14:39:13.000Z</time>
      </trkpt>
      <trkpt lat="43.8621" lon="7.47404">
        <ele>891.79998779297</ele>
        <time>2022-04-09T14:39:14.000Z</time>
      </trkpt>
      <trkpt lat="43.86218" lon="7.47406">
        <ele>892.59997558594</ele>
        <time>2022-04-09T14:39:17.000Z</time>
      </trkpt>
      <trkpt lat="43.86227" lon="7.47409">
        <ele>893.40002441406</ele>
        <time>2022-04-09T14:39:21.000Z</time>
      </trkpt>
      <trkpt lat="43.86228" lon="7.47409">
        <ele>893.59997558594</ele>
        <time>2022-04-09T14:39:22.000Z</time>
      </trkpt>
      <trkpt lat="43.86235" lon="7.47411">
        <ele>894.79998779297</ele>
        <time>2022-04-09T14:39:26.000Z</time>
      </trkpt>
      <trkpt lat="43.86239" lon="7.47413">
        <ele>895.40002441406</ele>
        <time>2022-04-09T14:39:29.000Z</time>
      </trkpt>
      <trkpt lat="43.8624" lon="7.47412">
        <ele>895.59997558594</ele>
        <time>2022-04-09T14:39:30.000Z</time>
      </trkpt>
      <trkpt lat="43.86242" lon="7.47411">
        <ele>895.79998779297</ele>
        <time>2022-04-09T14:39:33.000Z</time>
      </trkpt>
      <trkpt lat="43.86243" lon="7.4741">
        <ele>895.59997558594</ele>
        <time>2022-04-09T14:39:41.000Z</time>
      </trkpt>
      <trkpt lat="43.86247" lon="7.47409">
        <ele>896</ele>
        <time>2022-04-09T14:39:47.000Z</time>
      </trkpt>
      <trkpt lat="43.86247" lon="7.47408">
        <ele>896</ele>
        <time>2022-04-09T14:39:48.000Z</time>
      </trkpt>
      <trkpt lat="43.86251" lon="7.47406">
        <ele>896.59997558594</ele>
        <time>2022-04-09T14:39:55.000Z</time>
      </trkpt>
      <trkpt lat="43.8626" lon="7.47401">
        <ele>897</ele>
        <time>2022-04-09T14:40:00.000Z</time>
      </trkpt>
      <trkpt lat="43.86269" lon="7.47397">
        <ele>898</ele>
        <time>2022-04-09T14:40:04.000Z</time>
      </trkpt>
      <trkpt lat="43.86278" lon="7.47391">
        <ele>899</ele>
        <time>2022-04-09T14:40:08.000Z</time>
      </trkpt>
      <trkpt lat="43.86287" lon="7.47382">
        <ele>900.20001220703</ele>
        <time>2022-04-09T14:40:12.000Z</time>
      </trkpt>
      <trkpt lat="43.86294" lon="7.47376">
        <ele>900.79998779297</ele>
        <time>2022-04-09T14:40:15.000Z</time>
      </trkpt>
      <trkpt lat="43.86299" lon="7.47372">
        <ele>901.40002441406</ele>
        <time>2022-04-09T14:40:17.000Z</time>
      </trkpt>
      <trkpt lat="43.86308" lon="7.47364">
        <ele>902.40002441406</ele>
        <time>2022-04-09T14:40:21.000Z</time>
      </trkpt>
      <trkpt lat="43.86312" lon="7.4736">
        <ele>902.79998779297</ele>
        <time>2022-04-09T14:40:23.000Z</time>
      </trkpt>
      <trkpt lat="43.86317" lon="7.47353">
        <ele>903.40002441406</ele>
        <time>2022-04-09T14:40:26.000Z</time>
      </trkpt>
      <trkpt lat="43.86325" lon="7.47341">
        <ele>904.59997558594</ele>
        <time>2022-04-09T14:40:31.000Z</time>
      </trkpt>
      <trkpt lat="43.86327" lon="7.47338">
        <ele>904.79998779297</ele>
        <time>2022-04-09T14:40:32.000Z</time>
      </trkpt>
      <trkpt lat="43.86332" lon="7.47329">
        <ele>905.59997558594</ele>
        <time>2022-04-09T14:40:36.000Z</time>
      </trkpt>
      <trkpt lat="43.86337" lon="7.47319">
        <ele>906.40002441406</ele>
        <time>2022-04-09T14:40:40.000Z</time>
      </trkpt>
      <trkpt lat="43.86339" lon="7.47317">
        <ele>906.59997558594</ele>
        <time>2022-04-09T14:40:41.000Z</time>
      </trkpt>
      <trkpt lat="43.86344" lon="7.47305">
        <ele>907.79998779297</ele>
        <time>2022-04-09T14:40:46.000Z</time>
      </trkpt>
      <trkpt lat="43.86348" lon="7.47297">
        <ele>908.20001220703</ele>
        <time>2022-04-09T14:40:49.000Z</time>
      </trkpt>
      <trkpt lat="43.86351" lon="7.47287">
        <ele>908.79998779297</ele>
        <time>2022-04-09T14:40:53.000Z</time>
      </trkpt>
      <trkpt lat="43.86355" lon="7.47275">
        <ele>910</ele>
        <time>2022-04-09T14:40:58.000Z</time>
      </trkpt>
      <trkpt lat="43.8636" lon="7.4726">
        <ele>911.20001220703</ele>
        <time>2022-04-09T14:41:04.000Z</time>
      </trkpt>
      <trkpt lat="43.86362" lon="7.47247">
        <ele>912.40002441406</ele>
        <time>2022-04-09T14:41:09.000Z</time>
      </trkpt>
      <trkpt lat="43.86366" lon="7.47232">
        <ele>913.40002441406</ele>
        <time>2022-04-09T14:41:15.000Z</time>
      </trkpt>
      <trkpt lat="43.86368" lon="7.47224">
        <ele>914</ele>
        <time>2022-04-09T14:41:18.000Z</time>
      </trkpt>
      <trkpt lat="43.8637" lon="7.47215">
        <ele>914.59997558594</ele>
        <time>2022-04-09T14:41:21.000Z</time>
      </trkpt>
      <trkpt lat="43.86375" lon="7.47199">
        <ele>915.40002441406</ele>
        <time>2022-04-09T14:41:27.000Z</time>
      </trkpt>
      <trkpt lat="43.86376" lon="7.47196">
        <ele>915.59997558594</ele>
        <time>2022-04-09T14:41:28.000Z</time>
      </trkpt>
      <trkpt lat="43.86381" lon="7.47183">
        <ele>916.79998779297</ele>
        <time>2022-04-09T14:41:33.000Z</time>
      </trkpt>
      <trkpt lat="43.86383" lon="7.47181">
        <ele>917</ele>
        <time>2022-04-09T14:41:34.000Z</time>
      </trkpt>
      <trkpt lat="43.86386" lon="7.47175">
        <ele>917.79998779297</ele>
        <time>2022-04-09T14:41:37.000Z</time>
      </trkpt>
      <trkpt lat="43.86395" lon="7.47162">
        <ele>919</ele>
        <time>2022-04-09T14:41:43.000Z</time>
      </trkpt>
      <trkpt lat="43.86404" lon="7.4715">
        <ele>920</ele>
        <time>2022-04-09T14:41:49.000Z</time>
      </trkpt>
      <trkpt lat="43.86407" lon="7.47146">
        <ele>920.20001220703</ele>
        <time>2022-04-09T14:41:51.000Z</time>
      </trkpt>
      <trkpt lat="43.86414" lon="7.47135">
        <ele>921</ele>
        <time>2022-04-09T14:41:56.000Z</time>
      </trkpt>
      <trkpt lat="43.86419" lon="7.47128">
        <ele>921.59997558594</ele>
        <time>2022-04-09T14:41:59.000Z</time>
      </trkpt>
      <trkpt lat="43.86423" lon="7.47121">
        <ele>922.20001220703</ele>
        <time>2022-04-09T14:42:02.000Z</time>
      </trkpt>
      <trkpt lat="43.86434" lon="7.47106">
        <ele>923.40002441406</ele>
        <time>2022-04-09T14:42:09.000Z</time>
      </trkpt>
      <trkpt lat="43.86444" lon="7.47092">
        <ele>924.59997558594</ele>
        <time>2022-04-09T14:42:16.000Z</time>
      </trkpt>
      <trkpt lat="43.86451" lon="7.47084">
        <ele>925.79998779297</ele>
        <time>2022-04-09T14:42:20.000Z</time>
      </trkpt>
      <trkpt lat="43.86455" lon="7.47079">
        <ele>926.40002441406</ele>
        <time>2022-04-09T14:42:23.000Z</time>
      </trkpt>
      <trkpt lat="43.86461" lon="7.47074">
        <ele>927</ele>
        <time>2022-04-09T14:42:26.000Z</time>
      </trkpt>
      <trkpt lat="43.86467" lon="7.47067">
        <ele>927.59997558594</ele>
        <time>2022-04-09T14:42:30.000Z</time>
      </trkpt>
      <trkpt lat="43.86471" lon="7.47063">
        <ele>928</ele>
        <time>2022-04-09T14:42:32.000Z</time>
      </trkpt>
      <trkpt lat="43.86479" lon="7.4705">
        <ele>929.20001220703</ele>
        <time>2022-04-09T14:42:38.000Z</time>
      </trkpt>
      <trkpt lat="43.86485" lon="7.47039">
        <ele>930.40002441406</ele>
        <time>2022-04-09T14:42:43.000Z</time>
      </trkpt>
      <trkpt lat="43.8649" lon="7.47029">
        <ele>931.40002441406</ele>
        <time>2022-04-09T14:42:47.000Z</time>
      </trkpt>
      <trkpt lat="43.86497" lon="7.47013">
        <ele>932.59997558594</ele>
        <time>2022-04-09T14:42:53.000Z</time>
      </trkpt>
      <trkpt lat="43.86497" lon="7.4701">
        <ele>932.79998779297</ele>
        <time>2022-04-09T14:42:54.000Z</time>
      </trkpt>
      <trkpt lat="43.86498" lon="7.47004">
        <ele>933.59997558594</ele>
        <time>2022-04-09T14:42:56.000Z</time>
      </trkpt>
      <trkpt lat="43.86496" lon="7.46992">
        <ele>934.20001220703</ele>
        <time>2022-04-09T14:43:00.000Z</time>
      </trkpt>
      <trkpt lat="43.86493" lon="7.46985">
        <ele>934.59997558594</ele>
        <time>2022-04-09T14:43:03.000Z</time>
      </trkpt>
      <trkpt lat="43.86488" lon="7.4698">
        <ele>935.20001220703</ele>
        <time>2022-04-09T14:43:06.000Z</time>
      </trkpt>
      <trkpt lat="43.86485" lon="7.46974">
        <ele>935.79998779297</ele>
        <time>2022-04-09T14:43:09.000Z</time>
      </trkpt>
      <trkpt lat="43.8648" lon="7.46969">
        <ele>937</ele>
        <time>2022-04-09T14:43:13.000Z</time>
      </trkpt>
      <trkpt lat="43.86475" lon="7.46965">
        <ele>938.20001220703</ele>
        <time>2022-04-09T14:43:17.000Z</time>
      </trkpt>
      <trkpt lat="43.86467" lon="7.46961">
        <ele>939</ele>
        <time>2022-04-09T14:43:23.000Z</time>
      </trkpt>
      <trkpt lat="43.86464" lon="7.4696">
        <ele>939.20001220703</ele>
        <time>2022-04-09T14:43:25.000Z</time>
      </trkpt>
      <trkpt lat="43.86453" lon="7.46956">
        <ele>939.79998779297</ele>
        <time>2022-04-09T14:43:31.000Z</time>
      </trkpt>
      <trkpt lat="43.86445" lon="7.46956">
        <ele>940.40002441406</ele>
        <time>2022-04-09T14:43:35.000Z</time>
      </trkpt>
      <trkpt lat="43.8644" lon="7.46956">
        <ele>941.20001220703</ele>
        <time>2022-04-09T14:43:38.000Z</time>
      </trkpt>
      <trkpt lat="43.86438" lon="7.46956">
        <ele>941.40002441406</ele>
        <time>2022-04-09T14:43:39.000Z</time>
      </trkpt>
      <trkpt lat="43.8643" lon="7.46956">
        <ele>942.40002441406</ele>
        <time>2022-04-09T14:43:43.000Z</time>
      </trkpt>
      <trkpt lat="43.86423" lon="7.46957">
        <ele>943.40002441406</ele>
        <time>2022-04-09T14:43:47.000Z</time>
      </trkpt>
      <trkpt lat="43.86421" lon="7.46957">
        <ele>943.79998779297</ele>
        <time>2022-04-09T14:43:48.000Z</time>
      </trkpt>
      <trkpt lat="43.86413" lon="7.46958">
        <ele>944.79998779297</ele>
        <time>2022-04-09T14:43:53.000Z</time>
      </trkpt>
      <trkpt lat="43.86411" lon="7.46958">
        <ele>945</ele>
        <time>2022-04-09T14:43:54.000Z</time>
      </trkpt>
      <trkpt lat="43.86399" lon="7.46957">
        <ele>946</ele>
        <time>2022-04-09T14:44:01.000Z</time>
      </trkpt>
      <trkpt lat="43.86388" lon="7.46956">
        <ele>946.79998779297</ele>
        <time>2022-04-09T14:44:08.000Z</time>
      </trkpt>
      <trkpt lat="43.86386" lon="7.46956">
        <ele>947</ele>
        <time>2022-04-09T14:44:09.000Z</time>
      </trkpt>
      <trkpt lat="43.86373" lon="7.46954">
        <ele>947.79998779297</ele>
        <time>2022-04-09T14:44:16.000Z</time>
      </trkpt>
      <trkpt lat="43.86367" lon="7.46952">
        <ele>948</ele>
        <time>2022-04-09T14:44:19.000Z</time>
      </trkpt>
      <trkpt lat="43.86353" lon="7.4695">
        <ele>949.20001220703</ele>
        <time>2022-04-09T14:44:26.000Z</time>
      </trkpt>
      <trkpt lat="43.86341" lon="7.46948">
        <ele>950.40002441406</ele>
        <time>2022-04-09T14:44:32.000Z</time>
      </trkpt>
      <trkpt lat="43.86332" lon="7.46947">
        <ele>951</ele>
        <time>2022-04-09T14:44:37.000Z</time>
      </trkpt>
      <trkpt lat="43.86322" lon="7.46945">
        <ele>951.40002441406</ele>
        <time>2022-04-09T14:44:42.000Z</time>
      </trkpt>
      <trkpt lat="43.86317" lon="7.46944">
        <ele>952</ele>
        <time>2022-04-09T14:44:45.000Z</time>
      </trkpt>
      <trkpt lat="43.86312" lon="7.46943">
        <ele>952.59997558594</ele>
        <time>2022-04-09T14:44:48.000Z</time>
      </trkpt>
      <trkpt lat="43.86302" lon="7.46938">
        <ele>953.40002441406</ele>
        <time>2022-04-09T14:44:54.000Z</time>
      </trkpt>
      <trkpt lat="43.86299" lon="7.46937">
        <ele>953.59997558594</ele>
        <time>2022-04-09T14:44:56.000Z</time>
      </trkpt>
      <trkpt lat="43.86291" lon="7.46932">
        <ele>954.40002441406</ele>
        <time>2022-04-09T14:45:01.000Z</time>
      </trkpt>
      <trkpt lat="43.86287" lon="7.46931">
        <ele>954.59997558594</ele>
        <time>2022-04-09T14:45:03.000Z</time>
      </trkpt>
      <trkpt lat="43.86277" lon="7.46925">
        <ele>955.79998779297</ele>
        <time>2022-04-09T14:45:09.000Z</time>
      </trkpt>
      <trkpt lat="43.8627" lon="7.4692">
        <ele>957</ele>
        <time>2022-04-09T14:45:14.000Z</time>
      </trkpt>
      <trkpt lat="43.86267" lon="7.46919">
        <ele>957.20001220703</ele>
        <time>2022-04-09T14:45:16.000Z</time>
      </trkpt>
      <trkpt lat="43.8626" lon="7.46914">
        <ele>958.20001220703</ele>
        <time>2022-04-09T14:45:21.000Z</time>
      </trkpt>
      <trkpt lat="43.86258" lon="7.46912">
        <ele>958.59997558594</ele>
        <time>2022-04-09T14:45:23.000Z</time>
      </trkpt>
      <trkpt lat="43.8625" lon="7.46909">
        <ele>959.20001220703</ele>
        <time>2022-04-09T14:45:27.000Z</time>
      </trkpt>
      <trkpt lat="43.86249" lon="7.46908">
        <ele>959.40002441406</ele>
        <time>2022-04-09T14:45:28.000Z</time>
      </trkpt>
      <trkpt lat="43.86241" lon="7.46901">
        <ele>960.40002441406</ele>
        <time>2022-04-09T14:45:33.000Z</time>
      </trkpt>
      <trkpt lat="43.86239" lon="7.469">
        <ele>960.59997558594</ele>
        <time>2022-04-09T14:45:34.000Z</time>
      </trkpt>
      <trkpt lat="43.8623" lon="7.46894">
        <ele>961.40002441406</ele>
        <time>2022-04-09T14:45:40.000Z</time>
      </trkpt>
      <trkpt lat="43.86228" lon="7.46893">
        <ele>961.59997558594</ele>
        <time>2022-04-09T14:45:41.000Z</time>
      </trkpt>
      <trkpt lat="43.86223" lon="7.46889">
        <ele>962.40002441406</ele>
        <time>2022-04-09T14:45:45.000Z</time>
      </trkpt>
      <trkpt lat="43.86218" lon="7.46888">
        <ele>963</ele>
        <time>2022-04-09T14:45:48.000Z</time>
      </trkpt>
      <trkpt lat="43.86213" lon="7.46887">
        <ele>963.59997558594</ele>
        <time>2022-04-09T14:45:51.000Z</time>
      </trkpt>
      <trkpt lat="43.86206" lon="7.46884">
        <ele>964.79998779297</ele>
        <time>2022-04-09T14:45:56.000Z</time>
      </trkpt>
      <trkpt lat="43.86197" lon="7.46876">
        <ele>965.79998779297</ele>
        <time>2022-04-09T14:46:02.000Z</time>
      </trkpt>
      <trkpt lat="43.86196" lon="7.46874">
        <ele>966</ele>
        <time>2022-04-09T14:46:03.000Z</time>
      </trkpt>
      <trkpt lat="43.86194" lon="7.46865">
        <ele>966.79998779297</ele>
        <time>2022-04-09T14:46:07.000Z</time>
      </trkpt>
      <trkpt lat="43.86194" lon="7.46863">
        <ele>967</ele>
        <time>2022-04-09T14:46:08.000Z</time>
      </trkpt>
      <trkpt lat="43.86195" lon="7.46855">
        <ele>968</ele>
        <time>2022-04-09T14:46:12.000Z</time>
      </trkpt>
      <trkpt lat="43.86196" lon="7.46849">
        <ele>968.59997558594</ele>
        <time>2022-04-09T14:46:15.000Z</time>
      </trkpt>
      <trkpt lat="43.86197" lon="7.46843">
        <ele>969</ele>
        <time>2022-04-09T14:46:18.000Z</time>
      </trkpt>
      <trkpt lat="43.86197" lon="7.46841">
        <ele>969.20001220703</ele>
        <time>2022-04-09T14:46:19.000Z</time>
      </trkpt>
      <trkpt lat="43.862" lon="7.4683">
        <ele>970.20001220703</ele>
        <time>2022-04-09T14:46:25.000Z</time>
      </trkpt>
      <trkpt lat="43.86203" lon="7.46819">
        <ele>971.20001220703</ele>
        <time>2022-04-09T14:46:31.000Z</time>
      </trkpt>
      <trkpt lat="43.86204" lon="7.46815">
        <ele>971.79998779297</ele>
        <time>2022-04-09T14:46:33.000Z</time>
      </trkpt>
      <trkpt lat="43.86205" lon="7.46808">
        <ele>972.40002441406</ele>
        <time>2022-04-09T14:46:38.000Z</time>
      </trkpt>
      <trkpt lat="43.86206" lon="7.46801">
        <ele>973</ele>
        <time>2022-04-09T14:46:43.000Z</time>
      </trkpt>
      <trkpt lat="43.86206" lon="7.46797">
        <ele>973.20001220703</ele>
        <time>2022-04-09T14:46:46.000Z</time>
      </trkpt>
      <trkpt lat="43.86206" lon="7.46796">
        <ele>973.40002441406</ele>
        <time>2022-04-09T14:46:47.000Z</time>
      </trkpt>
      <trkpt lat="43.86207" lon="7.46791">
        <ele>973.79998779297</ele>
        <time>2022-04-09T14:46:50.000Z</time>
      </trkpt>
      <trkpt lat="43.86207" lon="7.4679">
        <ele>974</ele>
        <time>2022-04-09T14:46:51.000Z</time>
      </trkpt>
      <trkpt lat="43.86205" lon="7.46783">
        <ele>974.40002441406</ele>
        <time>2022-04-09T14:46:56.000Z</time>
      </trkpt>
      <trkpt lat="43.86205" lon="7.46781">
        <ele>974.59997558594</ele>
        <time>2022-04-09T14:46:57.000Z</time>
      </trkpt>
      <trkpt lat="43.86199" lon="7.46767">
        <ele>975</ele>
        <time>2022-04-09T14:47:05.000Z</time>
      </trkpt>
      <trkpt lat="43.86193" lon="7.46758">
        <ele>975.20001220703</ele>
        <time>2022-04-09T14:47:12.000Z</time>
      </trkpt>
      <trkpt lat="43.86191" lon="7.46757">
        <ele>975.40002441406</ele>
        <time>2022-04-09T14:47:14.000Z</time>
      </trkpt>
      <trkpt lat="43.86186" lon="7.46753">
        <ele>976</ele>
        <time>2022-04-09T14:47:20.000Z</time>
      </trkpt>
      <trkpt lat="43.8618" lon="7.46753">
        <ele>976.59997558594</ele>
        <time>2022-04-09T14:47:26.000Z</time>
      </trkpt>
      <trkpt lat="43.86179" lon="7.46753">
        <ele>976.59997558594</ele>
        <time>2022-04-09T14:47:27.000Z</time>
      </trkpt>
      <trkpt lat="43.86172" lon="7.46752">
        <ele>976.79998779297</ele>
        <time>2022-04-09T14:47:34.000Z</time>
      </trkpt>
      <trkpt lat="43.86166" lon="7.46755">
        <ele>977.59997558594</ele>
        <time>2022-04-09T14:47:40.000Z</time>
      </trkpt>
      <trkpt lat="43.86164" lon="7.46755">
        <ele>978.20001220703</ele>
        <time>2022-04-09T14:47:42.000Z</time>
      </trkpt>
      <trkpt lat="43.86159" lon="7.4676">
        <ele>978.59997558594</ele>
        <time>2022-04-09T14:47:47.000Z</time>
      </trkpt>
      <trkpt lat="43.86158" lon="7.46761">
        <ele>978.79998779297</ele>
        <time>2022-04-09T14:47:48.000Z</time>
      </trkpt>
      <trkpt lat="43.86154" lon="7.46764">
        <ele>980</ele>
        <time>2022-04-09T14:47:52.000Z</time>
      </trkpt>
      <trkpt lat="43.86152" lon="7.46766">
        <ele>980.40002441406</ele>
        <time>2022-04-09T14:47:54.000Z</time>
      </trkpt>
      <trkpt lat="43.86144" lon="7.46768">
        <ele>981</ele>
        <time>2022-04-09T14:48:01.000Z</time>
      </trkpt>
      <trkpt lat="43.86143" lon="7.46768">
        <ele>981</ele>
        <time>2022-04-09T14:48:02.000Z</time>
      </trkpt>
      <trkpt lat="43.86136" lon="7.46773">
        <ele>981.40002441406</ele>
        <time>2022-04-09T14:48:09.000Z</time>
      </trkpt>
      <trkpt lat="43.86131" lon="7.46774">
        <ele>982</ele>
        <time>2022-04-09T14:48:13.000Z</time>
      </trkpt>
      <trkpt lat="43.86127" lon="7.46777">
        <ele>982.59997558594</ele>
        <time>2022-04-09T14:48:17.000Z</time>
      </trkpt>
      <trkpt lat="43.86122" lon="7.46779">
        <ele>983.20001220703</ele>
        <time>2022-04-09T14:48:22.000Z</time>
      </trkpt>
      <trkpt lat="43.8612" lon="7.4678">
        <ele>983.40002441406</ele>
        <time>2022-04-09T14:48:24.000Z</time>
      </trkpt>
      <trkpt lat="43.86112" lon="7.46783">
        <ele>984</ele>
        <time>2022-04-09T14:48:31.000Z</time>
      </trkpt>
      <trkpt lat="43.86104" lon="7.46784">
        <ele>984.20001220703</ele>
        <time>2022-04-09T14:48:37.000Z</time>
      </trkpt>
      <trkpt lat="43.86103" lon="7.46784">
        <ele>984.40002441406</ele>
        <time>2022-04-09T14:48:38.000Z</time>
      </trkpt>
      <trkpt lat="43.86097" lon="7.46785">
        <ele>985.40002441406</ele>
        <time>2022-04-09T14:48:44.000Z</time>
      </trkpt>
      <trkpt lat="43.86094" lon="7.46786">
        <ele>985.59997558594</ele>
        <time>2022-04-09T14:48:47.000Z</time>
      </trkpt>
      <trkpt lat="43.8609" lon="7.46787">
        <ele>986</ele>
        <time>2022-04-09T14:48:52.000Z</time>
      </trkpt>
      <trkpt lat="43.86085" lon="7.46787">
        <ele>986.40002441406</ele>
        <time>2022-04-09T14:48:57.000Z</time>
      </trkpt>
      <trkpt lat="43.86083" lon="7.46787">
        <ele>986.59997558594</ele>
        <time>2022-04-09T14:48:59.000Z</time>
      </trkpt>
      <trkpt lat="43.8608" lon="7.46787">
        <ele>987.20001220703</ele>
        <time>2022-04-09T14:49:02.000Z</time>
      </trkpt>
      <trkpt lat="43.86079" lon="7.46786">
        <ele>987.40002441406</ele>
        <time>2022-04-09T14:49:03.000Z</time>
      </trkpt>
      <trkpt lat="43.86078" lon="7.46785">
        <ele>987.59997558594</ele>
        <time>2022-04-09T14:49:04.000Z</time>
      </trkpt>
      <trkpt lat="43.86078" lon="7.4678">
        <ele>988</ele>
        <time>2022-04-09T14:49:09.000Z</time>
      </trkpt>
      <trkpt lat="43.86078" lon="7.46781">
        <ele>988</ele>
        <time>2022-04-09T14:49:12.000Z</time>
      </trkpt>
      <trkpt lat="43.86078" lon="7.4678">
        <ele>988</ele>
        <time>2022-04-09T14:49:13.000Z</time>
      </trkpt>
      <trkpt lat="43.86075" lon="7.46781">
        <ele>988</ele>
        <time>2022-04-09T14:49:21.000Z</time>
      </trkpt>
      <trkpt lat="43.86074" lon="7.46783">
        <ele>988</ele>
        <time>2022-04-09T14:49:37.000Z</time>
      </trkpt>
      <trkpt lat="43.86073" lon="7.46782">
        <ele>988.20001220703</ele>
        <time>2022-04-09T14:49:52.000Z</time>
      </trkpt>
      <trkpt lat="43.86075" lon="7.46781">
        <ele>987.79998779297</ele>
        <time>2022-04-09T14:49:58.000Z</time>
      </trkpt>
      <trkpt lat="43.86076" lon="7.46781">
        <ele>988</ele>
        <time>2022-04-09T14:50:07.000Z</time>
      </trkpt>
      <trkpt lat="43.86075" lon="7.4678">
        <ele>987.59997558594</ele>
        <time>2022-04-09T14:50:20.000Z</time>
      </trkpt>
      <trkpt lat="43.86074" lon="7.46778">
        <ele>987.40002441406</ele>
        <time>2022-04-09T14:50:28.000Z</time>
      </trkpt>
      <trkpt lat="43.86073" lon="7.46777">
        <ele>987.59997558594</ele>
        <time>2022-04-09T14:50:34.000Z</time>
      </trkpt>
      <trkpt lat="43.86073" lon="7.46775">
        <ele>987.20001220703</ele>
        <time>2022-04-09T14:50:44.000Z</time>
      </trkpt>
      <trkpt lat="43.86073" lon="7.46776">
        <ele>987.40002441406</ele>
        <time>2022-04-09T14:50:53.000Z</time>
      </trkpt>
      <trkpt lat="43.86072" lon="7.46776">
        <ele>987.20001220703</ele>
        <time>2022-04-09T14:51:05.000Z</time>
      </trkpt>
      <trkpt lat="43.86071" lon="7.46774">
        <ele>987.20001220703</ele>
        <time>2022-04-09T14:51:12.000Z</time>
      </trkpt>
      <trkpt lat="43.86072" lon="7.46774">
        <ele>987.59997558594</ele>
        <time>2022-04-09T14:51:19.000Z</time>
      </trkpt>
      <trkpt lat="43.86072" lon="7.46775">
        <ele>987.79998779297</ele>
        <time>2022-04-09T14:51:28.000Z</time>
      </trkpt>
      <trkpt lat="43.86073" lon="7.46775">
        <ele>987.40002441406</ele>
        <time>2022-04-09T14:51:37.000Z</time>
      </trkpt>
      <trkpt lat="43.86074" lon="7.46776">
        <ele>987.40002441406</ele>
        <time>2022-04-09T14:51:47.000Z</time>
      </trkpt>
      <trkpt lat="43.86075" lon="7.46776">
        <ele>987.20001220703</ele>
        <time>2022-04-09T14:51:58.000Z</time>
      </trkpt>
      <trkpt lat="43.86075" lon="7.46776">
        <ele>987.20001220703</ele>
        <time>2022-04-09T14:52:05.000Z</time>
      </trkpt>
      <trkpt lat="43.86075" lon="7.46776">
        <ele>986.40002441406</ele>
        <time>2022-04-09T14:52:11.000Z</time>
      </trkpt>
      <trkpt lat="43.86075" lon="7.46776">
        <ele>986.40002441406</ele>
        <time>2022-04-09T14:52:12.000Z</time>
      </trkpt>
      <trkpt lat="43.86077" lon="7.46776">
        <ele>986.79998779297</ele>
        <time>2022-04-09T14:52:21.000Z</time>
      </trkpt>
      <trkpt lat="43.86079" lon="7.46776">
        <ele>986.59997558594</ele>
        <time>2022-04-09T14:52:28.000Z</time>
      </trkpt>
      <trkpt lat="43.86078" lon="7.46775">
        <ele>987.20001220703</ele>
        <time>2022-04-09T14:52:36.000Z</time>
      </trkpt>
      <trkpt lat="43.86078" lon="7.46775">
        <ele>986.59997558594</ele>
        <time>2022-04-09T14:52:41.000Z</time>
      </trkpt>
      <trkpt lat="43.86078" lon="7.46775">
        <ele>987</ele>
        <time>2022-04-09T14:52:48.000Z</time>
      </trkpt>
      <trkpt lat="43.86078" lon="7.46775">
        <ele>987</ele>
        <time>2022-04-09T14:52:57.000Z</time>
      </trkpt>
      <trkpt lat="43.86079" lon="7.46776">
        <ele>987.20001220703</ele>
        <time>2022-04-09T14:53:05.000Z</time>
      </trkpt>
      <trkpt lat="43.86079" lon="7.46776">
        <ele>986.59997558594</ele>
        <time>2022-04-09T14:53:13.000Z</time>
      </trkpt>
      <trkpt lat="43.86081" lon="7.46776">
        <ele>987</ele>
        <time>2022-04-09T14:53:19.000Z</time>
      </trkpt>
      <trkpt lat="43.8608" lon="7.46776">
        <ele>987.20001220703</ele>
        <time>2022-04-09T14:53:26.000Z</time>
      </trkpt>
      <trkpt lat="43.8608" lon="7.46776">
        <ele>986.79998779297</ele>
        <time>2022-04-09T14:53:33.000Z</time>
      </trkpt>
      <trkpt lat="43.86082" lon="7.46777">
        <ele>986.40002441406</ele>
        <time>2022-04-09T14:53:40.000Z</time>
      </trkpt>
      <trkpt lat="43.86081" lon="7.46778">
        <ele>986.79998779297</ele>
        <time>2022-04-09T14:53:53.000Z</time>
      </trkpt>
      <trkpt lat="43.86081" lon="7.46778">
        <ele>986.79998779297</ele>
        <time>2022-04-09T14:54:01.000Z</time>
      </trkpt>
      <trkpt lat="43.86081" lon="7.46778">
        <ele>986.40002441406</ele>
        <time>2022-04-09T14:54:09.000Z</time>
      </trkpt>
      <trkpt lat="43.86081" lon="7.46777">
        <ele>986.20001220703</ele>
        <time>2022-04-09T14:54:19.000Z</time>
      </trkpt>
      <trkpt lat="43.86081" lon="7.46776">
        <ele>986.79998779297</ele>
        <time>2022-04-09T14:54:26.000Z</time>
      </trkpt>
      <trkpt lat="43.86081" lon="7.46777">
        <ele>986.40002441406</ele>
        <time>2022-04-09T14:54:36.000Z</time>
      </trkpt>
      <trkpt lat="43.86082" lon="7.46778">
        <ele>986.40002441406</ele>
        <time>2022-04-09T14:54:45.000Z</time>
      </trkpt>
      <trkpt lat="43.86082" lon="7.46777">
        <ele>986.20001220703</ele>
        <time>2022-04-09T14:54:54.000Z</time>
      </trkpt>
      <trkpt lat="43.86082" lon="7.46777">
        <ele>986</ele>
        <time>2022-04-09T14:55:00.000Z</time>
      </trkpt>
      <trkpt lat="43.86082" lon="7.46778">
        <ele>985.59997558594</ele>
        <time>2022-04-09T14:55:10.000Z</time>
      </trkpt>
      <trkpt lat="43.86083" lon="7.46778">
        <ele>986</ele>
        <time>2022-04-09T14:55:18.000Z</time>
      </trkpt>
      <trkpt lat="43.86081" lon="7.46779">
        <ele>986.79998779297</ele>
        <time>2022-04-09T14:55:32.000Z</time>
      </trkpt>
      <trkpt lat="43.86081" lon="7.46779">
        <ele>987.20001220703</ele>
        <time>2022-04-09T14:55:52.000Z</time>
      </trkpt>
      <trkpt lat="43.86081" lon="7.46779">
        <ele>987.40002441406</ele>
        <time>2022-04-09T14:56:10.000Z</time>
      </trkpt>
      <trkpt lat="43.86081" lon="7.46779">
        <ele>987.40002441406</ele>
        <time>2022-04-09T14:56:14.000Z</time>
      </trkpt>
      <trkpt lat="43.8608" lon="7.46779">
        <ele>987.59997558594</ele>
        <time>2022-04-09T14:56:29.000Z</time>
      </trkpt>
      <trkpt lat="43.86081" lon="7.46778">
        <ele>987.59997558594</ele>
        <time>2022-04-09T14:56:30.000Z</time>
      </trkpt>
      <trkpt lat="43.86087" lon="7.46776">
        <ele>987.59997558594</ele>
        <time>2022-04-09T14:56:33.000Z</time>
      </trkpt>
      <trkpt lat="43.86093" lon="7.46774">
        <ele>987</ele>
        <time>2022-04-09T14:56:35.000Z</time>
      </trkpt>
      <trkpt lat="43.86098" lon="7.46773">
        <ele>986.59997558594</ele>
        <time>2022-04-09T14:56:36.000Z</time>
      </trkpt>
      <trkpt lat="43.86103" lon="7.4677">
        <ele>986</ele>
        <time>2022-04-09T14:56:37.000Z</time>
      </trkpt>
      <trkpt lat="43.86112" lon="7.46762">
        <ele>984.40002441406</ele>
        <time>2022-04-09T14:56:39.000Z</time>
      </trkpt>
      <trkpt lat="43.86115" lon="7.46759">
        <ele>983.40002441406</ele>
        <time>2022-04-09T14:56:40.000Z</time>
      </trkpt>
      <trkpt lat="43.8612" lon="7.46756">
        <ele>982.20001220703</ele>
        <time>2022-04-09T14:56:41.000Z</time>
      </trkpt>
      <trkpt lat="43.86124" lon="7.46755">
        <ele>981.20001220703</ele>
        <time>2022-04-09T14:56:42.000Z</time>
      </trkpt>
      <trkpt lat="43.86128" lon="7.46754">
        <ele>980.40002441406</ele>
        <time>2022-04-09T14:56:43.000Z</time>
      </trkpt>
      <trkpt lat="43.86132" lon="7.46753">
        <ele>979.20001220703</ele>
        <time>2022-04-09T14:56:44.000Z</time>
      </trkpt>
      <trkpt lat="43.86136" lon="7.46751">
        <ele>978.40002441406</ele>
        <time>2022-04-09T14:56:45.000Z</time>
      </trkpt>
      <trkpt lat="43.8614" lon="7.46748">
        <ele>978</ele>
        <time>2022-04-09T14:56:46.000Z</time>
      </trkpt>
      <trkpt lat="43.86143" lon="7.46746">
        <ele>977.20001220703</ele>
        <time>2022-04-09T14:56:47.000Z</time>
      </trkpt>
      <trkpt lat="43.86148" lon="7.46742">
        <ele>976.79998779297</ele>
        <time>2022-04-09T14:56:48.000Z</time>
      </trkpt>
      <trkpt lat="43.8616" lon="7.46737">
        <ele>975.59997558594</ele>
        <time>2022-04-09T14:56:50.000Z</time>
      </trkpt>
      <trkpt lat="43.86165" lon="7.46736">
        <ele>974.40002441406</ele>
        <time>2022-04-09T14:56:51.000Z</time>
      </trkpt>
      <trkpt lat="43.86174" lon="7.46733">
        <ele>972.59997558594</ele>
        <time>2022-04-09T14:56:53.000Z</time>
      </trkpt>
      <trkpt lat="43.86182" lon="7.46731">
        <ele>971.59997558594</ele>
        <time>2022-04-09T14:56:55.000Z</time>
      </trkpt>
      <trkpt lat="43.86187" lon="7.46731">
        <ele>970.40002441406</ele>
        <time>2022-04-09T14:56:57.000Z</time>
      </trkpt>
      <trkpt lat="43.86188" lon="7.46731">
        <ele>970</ele>
        <time>2022-04-09T14:56:58.000Z</time>
      </trkpt>
      <trkpt lat="43.8619" lon="7.4673">
        <ele>969</ele>
        <time>2022-04-09T14:56:59.000Z</time>
      </trkpt>
      <trkpt lat="43.86196" lon="7.46724">
        <ele>967.20001220703</ele>
        <time>2022-04-09T14:57:02.000Z</time>
      </trkpt>
      <trkpt lat="43.86203" lon="7.46721">
        <ele>965.40002441406</ele>
        <time>2022-04-09T14:57:04.000Z</time>
      </trkpt>
      <trkpt lat="43.86208" lon="7.46718">
        <ele>963.20001220703</ele>
        <time>2022-04-09T14:57:06.000Z</time>
      </trkpt>
      <trkpt lat="43.86208" lon="7.46716">
        <ele>962.20001220703</ele>
        <time>2022-04-09T14:57:07.000Z</time>
      </trkpt>
      <trkpt lat="43.86211" lon="7.46714">
        <ele>961</ele>
        <time>2022-04-09T14:57:08.000Z</time>
      </trkpt>
      <trkpt lat="43.86214" lon="7.46712">
        <ele>960</ele>
        <time>2022-04-09T14:57:09.000Z</time>
      </trkpt>
      <trkpt lat="43.86217" lon="7.4671">
        <ele>959</ele>
        <time>2022-04-09T14:57:10.000Z</time>
      </trkpt>
      <trkpt lat="43.86218" lon="7.46711">
        <ele>958</ele>
        <time>2022-04-09T14:57:11.000Z</time>
      </trkpt>
      <trkpt lat="43.8622" lon="7.46711">
        <ele>957</ele>
        <time>2022-04-09T14:57:12.000Z</time>
      </trkpt>
      <trkpt lat="43.86223" lon="7.46708">
        <ele>955</ele>
        <time>2022-04-09T14:57:14.000Z</time>
      </trkpt>
      <trkpt lat="43.86222" lon="7.46709">
        <ele>953.79998779297</ele>
        <time>2022-04-09T14:57:15.000Z</time>
      </trkpt>
      <trkpt lat="43.86224" lon="7.46708">
        <ele>952.59997558594</ele>
        <time>2022-04-09T14:57:16.000Z</time>
      </trkpt>
      <trkpt lat="43.86226" lon="7.46708">
        <ele>951</ele>
        <time>2022-04-09T14:57:18.000Z</time>
      </trkpt>
      <trkpt lat="43.86229" lon="7.46709">
        <ele>950.40002441406</ele>
        <time>2022-04-09T14:57:21.000Z</time>
      </trkpt>
      <trkpt lat="43.86231" lon="7.46708">
        <ele>950.20001220703</ele>
        <time>2022-04-09T14:57:23.000Z</time>
      </trkpt>
      <trkpt lat="43.86231" lon="7.46705">
        <ele>950</ele>
        <time>2022-04-09T14:57:25.000Z</time>
      </trkpt>
      <trkpt lat="43.86232" lon="7.46703">
        <ele>949.59997558594</ele>
        <time>2022-04-09T14:57:26.000Z</time>
      </trkpt>
      <trkpt lat="43.86235" lon="7.46698">
        <ele>948.79998779297</ele>
        <time>2022-04-09T14:57:28.000Z</time>
      </trkpt>
      <trkpt lat="43.86237" lon="7.46697">
        <ele>948</ele>
        <time>2022-04-09T14:57:29.000Z</time>
      </trkpt>
      <trkpt lat="43.86238" lon="7.46697">
        <ele>947.40002441406</ele>
        <time>2022-04-09T14:57:30.000Z</time>
      </trkpt>
      <trkpt lat="43.86242" lon="7.46695">
        <ele>946</ele>
        <time>2022-04-09T14:57:32.000Z</time>
      </trkpt>
      <trkpt lat="43.86246" lon="7.46694">
        <ele>944.79998779297</ele>
        <time>2022-04-09T14:57:34.000Z</time>
      </trkpt>
      <trkpt lat="43.86249" lon="7.46692">
        <ele>944.20001220703</ele>
        <time>2022-04-09T14:57:35.000Z</time>
      </trkpt>
      <trkpt lat="43.86253" lon="7.46691">
        <ele>943.59997558594</ele>
        <time>2022-04-09T14:57:36.000Z</time>
      </trkpt>
      <trkpt lat="43.86258" lon="7.4669">
        <ele>941.79998779297</ele>
        <time>2022-04-09T14:57:38.000Z</time>
      </trkpt>
      <trkpt lat="43.86261" lon="7.46688">
        <ele>940.59997558594</ele>
        <time>2022-04-09T14:57:39.000Z</time>
      </trkpt>
      <trkpt lat="43.86265" lon="7.46686">
        <ele>939.79998779297</ele>
        <time>2022-04-09T14:57:40.000Z</time>
      </trkpt>
      <trkpt lat="43.86269" lon="7.46683">
        <ele>939</ele>
        <time>2022-04-09T14:57:41.000Z</time>
      </trkpt>
      <trkpt lat="43.86273" lon="7.46679">
        <ele>938.40002441406</ele>
        <time>2022-04-09T14:57:42.000Z</time>
      </trkpt>
      <trkpt lat="43.86274" lon="7.46676">
        <ele>937.59997558594</ele>
        <time>2022-04-09T14:57:43.000Z</time>
      </trkpt>
      <trkpt lat="43.86276" lon="7.46673">
        <ele>936.20001220703</ele>
        <time>2022-04-09T14:57:45.000Z</time>
      </trkpt>
      <trkpt lat="43.86276" lon="7.46671">
        <ele>935.79998779297</ele>
        <time>2022-04-09T14:57:46.000Z</time>
      </trkpt>
      <trkpt lat="43.86277" lon="7.4667">
        <ele>935.40002441406</ele>
        <time>2022-04-09T14:57:47.000Z</time>
      </trkpt>
      <trkpt lat="43.86277" lon="7.4667">
        <ele>935.20001220703</ele>
        <time>2022-04-09T14:57:48.000Z</time>
      </trkpt>
      <trkpt lat="43.86277" lon="7.46668">
        <ele>934.79998779297</ele>
        <time>2022-04-09T14:57:53.000Z</time>
      </trkpt>
      <trkpt lat="43.86276" lon="7.46666">
        <ele>934.79998779297</ele>
        <time>2022-04-09T14:57:54.000Z</time>
      </trkpt>
      <trkpt lat="43.86266" lon="7.46661">
        <ele>934</ele>
        <time>2022-04-09T14:57:57.000Z</time>
      </trkpt>
      <trkpt lat="43.86262" lon="7.46661">
        <ele>933.59997558594</ele>
        <time>2022-04-09T14:57:58.000Z</time>
      </trkpt>
      <trkpt lat="43.86258" lon="7.4666">
        <ele>932.59997558594</ele>
        <time>2022-04-09T14:57:59.000Z</time>
      </trkpt>
      <trkpt lat="43.86253" lon="7.46657">
        <ele>930.59997558594</ele>
        <time>2022-04-09T14:58:01.000Z</time>
      </trkpt>
      <trkpt lat="43.8625" lon="7.46656">
        <ele>929.79998779297</ele>
        <time>2022-04-09T14:58:02.000Z</time>
      </trkpt>
      <trkpt lat="43.86247" lon="7.46655">
        <ele>929</ele>
        <time>2022-04-09T14:58:03.000Z</time>
      </trkpt>
      <trkpt lat="43.8624" lon="7.46653">
        <ele>927.20001220703</ele>
        <time>2022-04-09T14:58:05.000Z</time>
      </trkpt>
      <trkpt lat="43.86235" lon="7.4665">
        <ele>927</ele>
        <time>2022-04-09T14:58:06.000Z</time>
      </trkpt>
      <trkpt lat="43.8623" lon="7.46646">
        <ele>926</ele>
        <time>2022-04-09T14:58:07.000Z</time>
      </trkpt>
      <trkpt lat="43.86221" lon="7.46639">
        <ele>924.79998779297</ele>
        <time>2022-04-09T14:58:09.000Z</time>
      </trkpt>
      <trkpt lat="43.86213" lon="7.46633">
        <ele>923.40002441406</ele>
        <time>2022-04-09T14:58:11.000Z</time>
      </trkpt>
      <trkpt lat="43.86209" lon="7.46631">
        <ele>923</ele>
        <time>2022-04-09T14:58:12.000Z</time>
      </trkpt>
      <trkpt lat="43.86205" lon="7.46628">
        <ele>922.40002441406</ele>
        <time>2022-04-09T14:58:13.000Z</time>
      </trkpt>
      <trkpt lat="43.86198" lon="7.46625">
        <ele>921</ele>
        <time>2022-04-09T14:58:15.000Z</time>
      </trkpt>
      <trkpt lat="43.86194" lon="7.46619">
        <ele>919.40002441406</ele>
        <time>2022-04-09T14:58:18.000Z</time>
      </trkpt>
      <trkpt lat="43.86196" lon="7.46609">
        <ele>918.40002441406</ele>
        <time>2022-04-09T14:58:21.000Z</time>
      </trkpt>
      <trkpt lat="43.86196" lon="7.46605">
        <ele>918.20001220703</ele>
        <time>2022-04-09T14:58:22.000Z</time>
      </trkpt>
      <trkpt lat="43.86197" lon="7.46601">
        <ele>918</ele>
        <time>2022-04-09T14:58:23.000Z</time>
      </trkpt>
      <trkpt lat="43.862" lon="7.46594">
        <ele>917.79998779297</ele>
        <time>2022-04-09T14:58:25.000Z</time>
      </trkpt>
      <trkpt lat="43.86202" lon="7.4659">
        <ele>917.59997558594</ele>
        <time>2022-04-09T14:58:26.000Z</time>
      </trkpt>
      <trkpt lat="43.86204" lon="7.46583">
        <ele>916.79998779297</ele>
        <time>2022-04-09T14:58:28.000Z</time>
      </trkpt>
      <trkpt lat="43.86208" lon="7.46577">
        <ele>915.59997558594</ele>
        <time>2022-04-09T14:58:30.000Z</time>
      </trkpt>
      <trkpt lat="43.86211" lon="7.46573">
        <ele>915.20001220703</ele>
        <time>2022-04-09T14:58:31.000Z</time>
      </trkpt>
      <trkpt lat="43.86213" lon="7.4657">
        <ele>914.40002441406</ele>
        <time>2022-04-09T14:58:32.000Z</time>
      </trkpt>
      <trkpt lat="43.86217" lon="7.46561">
        <ele>914.40002441406</ele>
        <time>2022-04-09T14:58:34.000Z</time>
      </trkpt>
      <trkpt lat="43.86222" lon="7.4655">
        <ele>913.40002441406</ele>
        <time>2022-04-09T14:58:36.000Z</time>
      </trkpt>
      <trkpt lat="43.86225" lon="7.46545">
        <ele>913.20001220703</ele>
        <time>2022-04-09T14:58:37.000Z</time>
      </trkpt>
      <trkpt lat="43.86228" lon="7.46541">
        <ele>912.59997558594</ele>
        <time>2022-04-09T14:58:38.000Z</time>
      </trkpt>
      <trkpt lat="43.8623" lon="7.46536">
        <ele>911.79998779297</ele>
        <time>2022-04-09T14:58:39.000Z</time>
      </trkpt>
      <trkpt lat="43.8624" lon="7.46516">
        <ele>910.20001220703</ele>
        <time>2022-04-09T14:58:42.000Z</time>
      </trkpt>
      <trkpt lat="43.86242" lon="7.46511">
        <ele>908.79998779297</ele>
        <time>2022-04-09T14:58:43.000Z</time>
      </trkpt>
      <trkpt lat="43.86248" lon="7.465">
        <ele>906.79998779297</ele>
        <time>2022-04-09T14:58:45.000Z</time>
      </trkpt>
      <trkpt lat="43.86253" lon="7.46488">
        <ele>904.79998779297</ele>
        <time>2022-04-09T14:58:47.000Z</time>
      </trkpt>
      <trkpt lat="43.86256" lon="7.46483">
        <ele>903.79998779297</ele>
        <time>2022-04-09T14:58:48.000Z</time>
      </trkpt>
      <trkpt lat="43.86258" lon="7.46478">
        <ele>902.20001220703</ele>
        <time>2022-04-09T14:58:49.000Z</time>
      </trkpt>
      <trkpt lat="43.86259" lon="7.46474">
        <ele>900.79998779297</ele>
        <time>2022-04-09T14:58:50.000Z</time>
      </trkpt>
      <trkpt lat="43.86261" lon="7.4647">
        <ele>899.40002441406</ele>
        <time>2022-04-09T14:58:51.000Z</time>
      </trkpt>
      <trkpt lat="43.86263" lon="7.46465">
        <ele>898</ele>
        <time>2022-04-09T14:58:52.000Z</time>
      </trkpt>
      <trkpt lat="43.86266" lon="7.4646">
        <ele>897.20001220703</ele>
        <time>2022-04-09T14:58:53.000Z</time>
      </trkpt>
      <trkpt lat="43.86269" lon="7.46455">
        <ele>896.20001220703</ele>
        <time>2022-04-09T14:58:54.000Z</time>
      </trkpt>
      <trkpt lat="43.86276" lon="7.46444">
        <ele>894.40002441406</ele>
        <time>2022-04-09T14:58:56.000Z</time>
      </trkpt>
      <trkpt lat="43.86277" lon="7.4644">
        <ele>893.20001220703</ele>
        <time>2022-04-09T14:58:57.000Z</time>
      </trkpt>
      <trkpt lat="43.86278" lon="7.46438">
        <ele>892</ele>
        <time>2022-04-09T14:58:58.000Z</time>
      </trkpt>
      <trkpt lat="43.86279" lon="7.46436">
        <ele>890.79998779297</ele>
        <time>2022-04-09T14:58:59.000Z</time>
      </trkpt>
      <trkpt lat="43.8628" lon="7.46434">
        <ele>889.40002441406</ele>
        <time>2022-04-09T14:59:00.000Z</time>
      </trkpt>
      <trkpt lat="43.86282" lon="7.46431">
        <ele>888.40002441406</ele>
        <time>2022-04-09T14:59:01.000Z</time>
      </trkpt>
      <trkpt lat="43.86284" lon="7.46429">
        <ele>887.59997558594</ele>
        <time>2022-04-09T14:59:02.000Z</time>
      </trkpt>
      <trkpt lat="43.86286" lon="7.46427">
        <ele>886.59997558594</ele>
        <time>2022-04-09T14:59:03.000Z</time>
      </trkpt>
      <trkpt lat="43.86287" lon="7.46425">
        <ele>885.79998779297</ele>
        <time>2022-04-09T14:59:04.000Z</time>
      </trkpt>
      <trkpt lat="43.86287" lon="7.46422">
        <ele>885.20001220703</ele>
        <time>2022-04-09T14:59:05.000Z</time>
      </trkpt>
      <trkpt lat="43.86287" lon="7.46421">
        <ele>883.40002441406</ele>
        <time>2022-04-09T14:59:07.000Z</time>
      </trkpt>
      <trkpt lat="43.8629" lon="7.46418">
        <ele>882.59997558594</ele>
        <time>2022-04-09T14:59:08.000Z</time>
      </trkpt>
      <trkpt lat="43.86291" lon="7.46415">
        <ele>881.79998779297</ele>
        <time>2022-04-09T14:59:09.000Z</time>
      </trkpt>
      <trkpt lat="43.86293" lon="7.4641">
        <ele>880.20001220703</ele>
        <time>2022-04-09T14:59:11.000Z</time>
      </trkpt>
      <trkpt lat="43.86294" lon="7.46406">
        <ele>879.40002441406</ele>
        <time>2022-04-09T14:59:12.000Z</time>
      </trkpt>
      <trkpt lat="43.86295" lon="7.46403">
        <ele>878.20001220703</ele>
        <time>2022-04-09T14:59:13.000Z</time>
      </trkpt>
      <trkpt lat="43.86299" lon="7.46396">
        <ele>875.79998779297</ele>
        <time>2022-04-09T14:59:15.000Z</time>
      </trkpt>
      <trkpt lat="43.863" lon="7.46393">
        <ele>874.79998779297</ele>
        <time>2022-04-09T14:59:16.000Z</time>
      </trkpt>
      <trkpt lat="43.86302" lon="7.4639">
        <ele>873.59997558594</ele>
        <time>2022-04-09T14:59:17.000Z</time>
      </trkpt>
      <trkpt lat="43.86305" lon="7.46387">
        <ele>872.59997558594</ele>
        <time>2022-04-09T14:59:18.000Z</time>
      </trkpt>
      <trkpt lat="43.86309" lon="7.46384">
        <ele>871.59997558594</ele>
        <time>2022-04-09T14:59:19.000Z</time>
      </trkpt>
      <trkpt lat="43.86312" lon="7.46382">
        <ele>870.79998779297</ele>
        <time>2022-04-09T14:59:20.000Z</time>
      </trkpt>
      <trkpt lat="43.86315" lon="7.46377">
        <ele>869.79998779297</ele>
        <time>2022-04-09T14:59:21.000Z</time>
      </trkpt>
      <trkpt lat="43.86318" lon="7.46371">
        <ele>869.20001220703</ele>
        <time>2022-04-09T14:59:22.000Z</time>
      </trkpt>
      <trkpt lat="43.8632" lon="7.46365">
        <ele>868</ele>
        <time>2022-04-09T14:59:23.000Z</time>
      </trkpt>
      <trkpt lat="43.86321" lon="7.4636">
        <ele>866.79998779297</ele>
        <time>2022-04-09T14:59:24.000Z</time>
      </trkpt>
      <trkpt lat="43.86321" lon="7.46357">
        <ele>866</ele>
        <time>2022-04-09T14:59:25.000Z</time>
      </trkpt>
      <trkpt lat="43.86322" lon="7.46353">
        <ele>865.40002441406</ele>
        <time>2022-04-09T14:59:26.000Z</time>
      </trkpt>
      <trkpt lat="43.86324" lon="7.46345">
        <ele>864.79998779297</ele>
        <time>2022-04-09T14:59:28.000Z</time>
      </trkpt>
      <trkpt lat="43.86325" lon="7.4634">
        <ele>864.79998779297</ele>
        <time>2022-04-09T14:59:29.000Z</time>
      </trkpt>
      <trkpt lat="43.86327" lon="7.46335">
        <ele>864.40002441406</ele>
        <time>2022-04-09T14:59:30.000Z</time>
      </trkpt>
      <trkpt lat="43.86328" lon="7.46326">
        <ele>863</ele>
        <time>2022-04-09T14:59:32.000Z</time>
      </trkpt>
      <trkpt lat="43.86329" lon="7.46323">
        <ele>862</ele>
        <time>2022-04-09T14:59:33.000Z</time>
      </trkpt>
      <trkpt lat="43.86331" lon="7.46321">
        <ele>860.79998779297</ele>
        <time>2022-04-09T14:59:34.000Z</time>
      </trkpt>
      <trkpt lat="43.86331" lon="7.46317">
        <ele>859.59997558594</ele>
        <time>2022-04-09T14:59:35.000Z</time>
      </trkpt>
      <trkpt lat="43.86331" lon="7.46312">
        <ele>859</ele>
        <time>2022-04-09T14:59:36.000Z</time>
      </trkpt>
      <trkpt lat="43.86331" lon="7.46307">
        <ele>858</ele>
        <time>2022-04-09T14:59:37.000Z</time>
      </trkpt>
      <trkpt lat="43.86329" lon="7.46296">
        <ele>857</ele>
        <time>2022-04-09T14:59:39.000Z</time>
      </trkpt>
      <trkpt lat="43.86329" lon="7.4629">
        <ele>856.59997558594</ele>
        <time>2022-04-09T14:59:40.000Z</time>
      </trkpt>
      <trkpt lat="43.86329" lon="7.46282">
        <ele>856.20001220703</ele>
        <time>2022-04-09T14:59:41.000Z</time>
      </trkpt>
      <trkpt lat="43.8633" lon="7.46277">
        <ele>855.79998779297</ele>
        <time>2022-04-09T14:59:42.000Z</time>
      </trkpt>
      <trkpt lat="43.86331" lon="7.46266">
        <ele>854</ele>
        <time>2022-04-09T14:59:44.000Z</time>
      </trkpt>
      <trkpt lat="43.86332" lon="7.4626">
        <ele>852.40002441406</ele>
        <time>2022-04-09T14:59:46.000Z</time>
      </trkpt>
      <trkpt lat="43.86333" lon="7.46258">
        <ele>851.40002441406</ele>
        <time>2022-04-09T14:59:47.000Z</time>
      </trkpt>
      <trkpt lat="43.86335" lon="7.46251">
        <ele>849.79998779297</ele>
        <time>2022-04-09T14:59:50.000Z</time>
      </trkpt>
      <trkpt lat="43.86337" lon="7.46246">
        <ele>848.79998779297</ele>
        <time>2022-04-09T14:59:51.000Z</time>
      </trkpt>
      <trkpt lat="43.86336" lon="7.4624">
        <ele>848</ele>
        <time>2022-04-09T14:59:52.000Z</time>
      </trkpt>
      <trkpt lat="43.86335" lon="7.46234">
        <ele>847.20001220703</ele>
        <time>2022-04-09T14:59:53.000Z</time>
      </trkpt>
      <trkpt lat="43.86336" lon="7.46227">
        <ele>845.40002441406</ele>
        <time>2022-04-09T14:59:55.000Z</time>
      </trkpt>
      <trkpt lat="43.86338" lon="7.46225">
        <ele>844.59997558594</ele>
        <time>2022-04-09T14:59:56.000Z</time>
      </trkpt>
      <trkpt lat="43.86339" lon="7.46224">
        <ele>843.59997558594</ele>
        <time>2022-04-09T14:59:57.000Z</time>
      </trkpt>
      <trkpt lat="43.86343" lon="7.46224">
        <ele>841.79998779297</ele>
        <time>2022-04-09T14:59:59.000Z</time>
      </trkpt>
      <trkpt lat="43.86348" lon="7.46225">
        <ele>840.59997558594</ele>
        <time>2022-04-09T15:00:01.000Z</time>
      </trkpt>
      <trkpt lat="43.8635" lon="7.46226">
        <ele>840.20001220703</ele>
        <time>2022-04-09T15:00:02.000Z</time>
      </trkpt>
      <trkpt lat="43.86351" lon="7.46227">
        <ele>839.40002441406</ele>
        <time>2022-04-09T15:00:03.000Z</time>
      </trkpt>
      <trkpt lat="43.86356" lon="7.46228">
        <ele>837.79998779297</ele>
        <time>2022-04-09T15:00:05.000Z</time>
      </trkpt>
      <trkpt lat="43.86357" lon="7.46228">
        <ele>836.79998779297</ele>
        <time>2022-04-09T15:00:06.000Z</time>
      </trkpt>
      <trkpt lat="43.8636" lon="7.46227">
        <ele>835.20001220703</ele>
        <time>2022-04-09T15:00:08.000Z</time>
      </trkpt>
      <trkpt lat="43.86363" lon="7.46225">
        <ele>834</ele>
        <time>2022-04-09T15:00:10.000Z</time>
      </trkpt>
      <trkpt lat="43.86364" lon="7.46225">
        <ele>833.59997558594</ele>
        <time>2022-04-09T15:00:11.000Z</time>
      </trkpt>
      <trkpt lat="43.86366" lon="7.46226">
        <ele>832.79998779297</ele>
        <time>2022-04-09T15:00:12.000Z</time>
      </trkpt>
      <trkpt lat="43.86369" lon="7.46226">
        <ele>832.20001220703</ele>
        <time>2022-04-09T15:00:13.000Z</time>
      </trkpt>
      <trkpt lat="43.86372" lon="7.46228">
        <ele>831.59997558594</ele>
        <time>2022-04-09T15:00:14.000Z</time>
      </trkpt>
      <trkpt lat="43.86375" lon="7.46229">
        <ele>830.40002441406</ele>
        <time>2022-04-09T15:00:15.000Z</time>
      </trkpt>
      <trkpt lat="43.86379" lon="7.4623">
        <ele>829.20001220703</ele>
        <time>2022-04-09T15:00:16.000Z</time>
      </trkpt>
      <trkpt lat="43.86387" lon="7.4623">
        <ele>827.20001220703</ele>
        <time>2022-04-09T15:00:18.000Z</time>
      </trkpt>
      <trkpt lat="43.86389" lon="7.4623">
        <ele>826</ele>
        <time>2022-04-09T15:00:19.000Z</time>
      </trkpt>
      <trkpt lat="43.86392" lon="7.46228">
        <ele>825.40002441406</ele>
        <time>2022-04-09T15:00:20.000Z</time>
      </trkpt>
      <trkpt lat="43.86394" lon="7.46226">
        <ele>824.59997558594</ele>
        <time>2022-04-09T15:00:21.000Z</time>
      </trkpt>
      <trkpt lat="43.86402" lon="7.46222">
        <ele>823</ele>
        <time>2022-04-09T15:00:23.000Z</time>
      </trkpt>
      <trkpt lat="43.86409" lon="7.46217">
        <ele>821.59997558594</ele>
        <time>2022-04-09T15:00:25.000Z</time>
      </trkpt>
      <trkpt lat="43.8641" lon="7.46214">
        <ele>821</ele>
        <time>2022-04-09T15:00:26.000Z</time>
      </trkpt>
      <trkpt lat="43.86412" lon="7.46212">
        <ele>820</ele>
        <time>2022-04-09T15:00:27.000Z</time>
      </trkpt>
      <trkpt lat="43.86412" lon="7.46212">
        <ele>818.20001220703</ele>
        <time>2022-04-09T15:00:29.000Z</time>
      </trkpt>
      <trkpt lat="43.86413" lon="7.46212">
        <ele>817</ele>
        <time>2022-04-09T15:00:31.000Z</time>
      </trkpt>
      <trkpt lat="43.86418" lon="7.46212">
        <ele>817</ele>
        <time>2022-04-09T15:00:39.000Z</time>
      </trkpt>
      <trkpt lat="43.86428" lon="7.46219">
        <ele>816.20001220703</ele>
        <time>2022-04-09T15:00:44.000Z</time>
      </trkpt>
      <trkpt lat="43.8643" lon="7.46222">
        <ele>815.79998779297</ele>
        <time>2022-04-09T15:00:46.000Z</time>
      </trkpt>
      <trkpt lat="43.86431" lon="7.46223">
        <ele>815.20001220703</ele>
        <time>2022-04-09T15:00:47.000Z</time>
      </trkpt>
      <trkpt lat="43.86434" lon="7.4622">
        <ele>814.20001220703</ele>
        <time>2022-04-09T15:00:49.000Z</time>
      </trkpt>
      <trkpt lat="43.86438" lon="7.46215">
        <ele>812.79998779297</ele>
        <time>2022-04-09T15:00:51.000Z</time>
      </trkpt>
      <trkpt lat="43.8644" lon="7.46215">
        <ele>812.20001220703</ele>
        <time>2022-04-09T15:00:52.000Z</time>
      </trkpt>
      <trkpt lat="43.86443" lon="7.46218">
        <ele>811.59997558594</ele>
        <time>2022-04-09T15:00:53.000Z</time>
      </trkpt>
      <trkpt lat="43.86444" lon="7.46223">
        <ele>810.20001220703</ele>
        <time>2022-04-09T15:00:55.000Z</time>
      </trkpt>
      <trkpt lat="43.86444" lon="7.46225">
        <ele>809.59997558594</ele>
        <time>2022-04-09T15:00:56.000Z</time>
      </trkpt>
      <trkpt lat="43.86444" lon="7.46227">
        <ele>809</ele>
        <time>2022-04-09T15:00:57.000Z</time>
      </trkpt>
      <trkpt lat="43.86444" lon="7.46232">
        <ele>807.59997558594</ele>
        <time>2022-04-09T15:00:59.000Z</time>
      </trkpt>
      <trkpt lat="43.86446" lon="7.46235">
        <ele>806.40002441406</ele>
        <time>2022-04-09T15:01:01.000Z</time>
      </trkpt>
      <trkpt lat="43.86447" lon="7.46236">
        <ele>805</ele>
        <time>2022-04-09T15:01:04.000Z</time>
      </trkpt>
      <trkpt lat="43.86448" lon="7.46236">
        <ele>804.40002441406</ele>
        <time>2022-04-09T15:01:05.000Z</time>
      </trkpt>
      <trkpt lat="43.86449" lon="7.46235">
        <ele>803.79998779297</ele>
        <time>2022-04-09T15:01:06.000Z</time>
      </trkpt>
      <trkpt lat="43.86453" lon="7.46234">
        <ele>802.59997558594</ele>
        <time>2022-04-09T15:01:08.000Z</time>
      </trkpt>
      <trkpt lat="43.86455" lon="7.46232">
        <ele>801.79998779297</ele>
        <time>2022-04-09T15:01:09.000Z</time>
      </trkpt>
      <trkpt lat="43.86457" lon="7.46229">
        <ele>801</ele>
        <time>2022-04-09T15:01:10.000Z</time>
      </trkpt>
      <trkpt lat="43.86463" lon="7.46224">
        <ele>799.20001220703</ele>
        <time>2022-04-09T15:01:12.000Z</time>
      </trkpt>
      <trkpt lat="43.86467" lon="7.46222">
        <ele>798.40002441406</ele>
        <time>2022-04-09T15:01:13.000Z</time>
      </trkpt>
      <trkpt lat="43.86471" lon="7.46219">
        <ele>797.40002441406</ele>
        <time>2022-04-09T15:01:14.000Z</time>
      </trkpt>
      <trkpt lat="43.86479" lon="7.46213">
        <ele>795.79998779297</ele>
        <time>2022-04-09T15:01:16.000Z</time>
      </trkpt>
      <trkpt lat="43.86484" lon="7.46211">
        <ele>794.79998779297</ele>
        <time>2022-04-09T15:01:17.000Z</time>
      </trkpt>
      <trkpt lat="43.86489" lon="7.4621">
        <ele>793.79998779297</ele>
        <time>2022-04-09T15:01:18.000Z</time>
      </trkpt>
      <trkpt lat="43.86493" lon="7.4621">
        <ele>792.40002441406</ele>
        <time>2022-04-09T15:01:19.000Z</time>
      </trkpt>
      <trkpt lat="43.86497" lon="7.46208">
        <ele>791</ele>
        <time>2022-04-09T15:01:20.000Z</time>
      </trkpt>
      <trkpt lat="43.86501" lon="7.46205">
        <ele>789.79998779297</ele>
        <time>2022-04-09T15:01:21.000Z</time>
      </trkpt>
      <trkpt lat="43.86507" lon="7.46197">
        <ele>788.20001220703</ele>
        <time>2022-04-09T15:01:23.000Z</time>
      </trkpt>
      <trkpt lat="43.86511" lon="7.46197">
        <ele>787.59997558594</ele>
        <time>2022-04-09T15:01:24.000Z</time>
      </trkpt>
      <trkpt lat="43.86516" lon="7.46197">
        <ele>787</ele>
        <time>2022-04-09T15:01:25.000Z</time>
      </trkpt>
      <trkpt lat="43.8652" lon="7.46196">
        <ele>786.40002441406</ele>
        <time>2022-04-09T15:01:26.000Z</time>
      </trkpt>
      <trkpt lat="43.86524" lon="7.46193">
        <ele>785.40002441406</ele>
        <time>2022-04-09T15:01:27.000Z</time>
      </trkpt>
      <trkpt lat="43.86528" lon="7.46188">
        <ele>784.20001220703</ele>
        <time>2022-04-09T15:01:28.000Z</time>
      </trkpt>
      <trkpt lat="43.86541" lon="7.46178">
        <ele>782.40002441406</ele>
        <time>2022-04-09T15:01:30.000Z</time>
      </trkpt>
      <trkpt lat="43.86547" lon="7.46174">
        <ele>781.59997558594</ele>
        <time>2022-04-09T15:01:31.000Z</time>
      </trkpt>
      <trkpt lat="43.86554" lon="7.4617">
        <ele>780.59997558594</ele>
        <time>2022-04-09T15:01:32.000Z</time>
      </trkpt>
      <trkpt lat="43.86566" lon="7.46163">
        <ele>779.20001220703</ele>
        <time>2022-04-09T15:01:34.000Z</time>
      </trkpt>
      <trkpt lat="43.86571" lon="7.4616">
        <ele>778.79998779297</ele>
        <time>2022-04-09T15:01:35.000Z</time>
      </trkpt>
      <trkpt lat="43.86576" lon="7.46157">
        <ele>777.79998779297</ele>
        <time>2022-04-09T15:01:36.000Z</time>
      </trkpt>
      <trkpt lat="43.86582" lon="7.46152">
        <ele>775.79998779297</ele>
        <time>2022-04-09T15:01:37.000Z</time>
      </trkpt>
      <trkpt lat="43.86586" lon="7.46146">
        <ele>774.79998779297</ele>
        <time>2022-04-09T15:01:38.000Z</time>
      </trkpt>
      <trkpt lat="43.86591" lon="7.46141">
        <ele>773</ele>
        <time>2022-04-09T15:01:39.000Z</time>
      </trkpt>
      <trkpt lat="43.86595" lon="7.46138">
        <ele>771.40002441406</ele>
        <time>2022-04-09T15:01:40.000Z</time>
      </trkpt>
      <trkpt lat="43.866" lon="7.46135">
        <ele>770.20001220703</ele>
        <time>2022-04-09T15:01:41.000Z</time>
      </trkpt>
      <trkpt lat="43.86604" lon="7.46131">
        <ele>770</ele>
        <time>2022-04-09T15:01:42.000Z</time>
      </trkpt>
      <trkpt lat="43.86608" lon="7.46128">
        <ele>768.79998779297</ele>
        <time>2022-04-09T15:01:43.000Z</time>
      </trkpt>
      <trkpt lat="43.86614" lon="7.46116">
        <ele>766.40002441406</ele>
        <time>2022-04-09T15:01:45.000Z</time>
      </trkpt>
      <trkpt lat="43.86615" lon="7.46109">
        <ele>765.59997558594</ele>
        <time>2022-04-09T15:01:46.000Z</time>
      </trkpt>
      <trkpt lat="43.86617" lon="7.46102">
        <ele>764</ele>
        <time>2022-04-09T15:01:47.000Z</time>
      </trkpt>
      <trkpt lat="43.86619" lon="7.46098">
        <ele>762.79998779297</ele>
        <time>2022-04-09T15:01:48.000Z</time>
      </trkpt>
      <trkpt lat="43.86622" lon="7.46095">
        <ele>761.20001220703</ele>
        <time>2022-04-09T15:01:49.000Z</time>
      </trkpt>
      <trkpt lat="43.86626" lon="7.46096">
        <ele>762.40002441406</ele>
        <time>2022-04-09T15:01:50.000Z</time>
      </trkpt>
      <trkpt lat="43.8663" lon="7.46098">
        <ele>761.79998779297</ele>
        <time>2022-04-09T15:01:51.000Z</time>
      </trkpt>
      <trkpt lat="43.86634" lon="7.46101">
        <ele>759.79998779297</ele>
        <time>2022-04-09T15:01:52.000Z</time>
      </trkpt>
      <trkpt lat="43.86637" lon="7.46104">
        <ele>758.40002441406</ele>
        <time>2022-04-09T15:01:53.000Z</time>
      </trkpt>
      <trkpt lat="43.86641" lon="7.46106">
        <ele>756.40002441406</ele>
        <time>2022-04-09T15:01:54.000Z</time>
      </trkpt>
      <trkpt lat="43.86643" lon="7.46109">
        <ele>755</ele>
        <time>2022-04-09T15:01:55.000Z</time>
      </trkpt>
      <trkpt lat="43.86646" lon="7.46111">
        <ele>753.59997558594</ele>
        <time>2022-04-09T15:01:56.000Z</time>
      </trkpt>
      <trkpt lat="43.86649" lon="7.46113">
        <ele>752.20001220703</ele>
        <time>2022-04-09T15:01:57.000Z</time>
      </trkpt>
      <trkpt lat="43.86651" lon="7.46114">
        <ele>750.59997558594</ele>
        <time>2022-04-09T15:01:58.000Z</time>
      </trkpt>
      <trkpt lat="43.86653" lon="7.46116">
        <ele>750</ele>
        <time>2022-04-09T15:01:59.000Z</time>
      </trkpt>
      <trkpt lat="43.86654" lon="7.46116">
        <ele>748.79998779297</ele>
        <time>2022-04-09T15:02:00.000Z</time>
      </trkpt>
      <trkpt lat="43.86655" lon="7.46115">
        <ele>747.79998779297</ele>
        <time>2022-04-09T15:02:01.000Z</time>
      </trkpt>
      <trkpt lat="43.86657" lon="7.46113">
        <ele>745.40002441406</ele>
        <time>2022-04-09T15:02:02.000Z</time>
      </trkpt>
      <trkpt lat="43.86659" lon="7.46112">
        <ele>743.79998779297</ele>
        <time>2022-04-09T15:02:03.000Z</time>
      </trkpt>
      <trkpt lat="43.86661" lon="7.46111">
        <ele>742.59997558594</ele>
        <time>2022-04-09T15:02:04.000Z</time>
      </trkpt>
      <trkpt lat="43.86664" lon="7.46111">
        <ele>741</ele>
        <time>2022-04-09T15:02:05.000Z</time>
      </trkpt>
      <trkpt lat="43.86666" lon="7.4611">
        <ele>739.40002441406</ele>
        <time>2022-04-09T15:02:06.000Z</time>
      </trkpt>
      <trkpt lat="43.86668" lon="7.46107">
        <ele>736.59997558594</ele>
        <time>2022-04-09T15:02:07.000Z</time>
      </trkpt>
      <trkpt lat="43.8667" lon="7.46105">
        <ele>735.20001220703</ele>
        <time>2022-04-09T15:02:08.000Z</time>
      </trkpt>
      <trkpt lat="43.86671" lon="7.46102">
        <ele>733.59997558594</ele>
        <time>2022-04-09T15:02:09.000Z</time>
      </trkpt>
      <trkpt lat="43.86675" lon="7.46099">
        <ele>731.59997558594</ele>
        <time>2022-04-09T15:02:11.000Z</time>
      </trkpt>
      <trkpt lat="43.86679" lon="7.46097">
        <ele>729.59997558594</ele>
        <time>2022-04-09T15:02:13.000Z</time>
      </trkpt>
      <trkpt lat="43.86682" lon="7.46097">
        <ele>728.59997558594</ele>
        <time>2022-04-09T15:02:14.000Z</time>
      </trkpt>
      <trkpt lat="43.86684" lon="7.46097">
        <ele>727.79998779297</ele>
        <time>2022-04-09T15:02:15.000Z</time>
      </trkpt>
      <trkpt lat="43.86686" lon="7.46095">
        <ele>726.40002441406</ele>
        <time>2022-04-09T15:02:16.000Z</time>
      </trkpt>
      <trkpt lat="43.86691" lon="7.46091">
        <ele>724.40002441406</ele>
        <time>2022-04-09T15:02:18.000Z</time>
      </trkpt>
      <trkpt lat="43.86693" lon="7.46089">
        <ele>723.40002441406</ele>
        <time>2022-04-09T15:02:19.000Z</time>
      </trkpt>
      <trkpt lat="43.86695" lon="7.46089">
        <ele>722.20001220703</ele>
        <time>2022-04-09T15:02:20.000Z</time>
      </trkpt>
      <trkpt lat="43.86697" lon="7.46091">
        <ele>721.20001220703</ele>
        <time>2022-04-09T15:02:21.000Z</time>
      </trkpt>
      <trkpt lat="43.86699" lon="7.46093">
        <ele>720</ele>
        <time>2022-04-09T15:02:22.000Z</time>
      </trkpt>
      <trkpt lat="43.86703" lon="7.46094">
        <ele>718</ele>
        <time>2022-04-09T15:02:24.000Z</time>
      </trkpt>
      <trkpt lat="43.86708" lon="7.46092">
        <ele>715.40002441406</ele>
        <time>2022-04-09T15:02:26.000Z</time>
      </trkpt>
      <trkpt lat="43.86711" lon="7.46092">
        <ele>714.59997558594</ele>
        <time>2022-04-09T15:02:27.000Z</time>
      </trkpt>
      <trkpt lat="43.86713" lon="7.46092">
        <ele>713.79998779297</ele>
        <time>2022-04-09T15:02:28.000Z</time>
      </trkpt>
      <trkpt lat="43.86718" lon="7.46093">
        <ele>713</ele>
        <time>2022-04-09T15:02:30.000Z</time>
      </trkpt>
      <trkpt lat="43.86719" lon="7.46092">
        <ele>712</ele>
        <time>2022-04-09T15:02:31.000Z</time>
      </trkpt>
      <trkpt lat="43.86724" lon="7.46086">
        <ele>711</ele>
        <time>2022-04-09T15:02:34.000Z</time>
      </trkpt>
      <trkpt lat="43.8673" lon="7.46087">
        <ele>710.40002441406</ele>
        <time>2022-04-09T15:02:37.000Z</time>
      </trkpt>
      <trkpt lat="43.86737" lon="7.46083">
        <ele>709.79998779297</ele>
        <time>2022-04-09T15:02:40.000Z</time>
      </trkpt>
      <trkpt lat="43.86746" lon="7.46073">
        <ele>708.40002441406</ele>
        <time>2022-04-09T15:02:43.000Z</time>
      </trkpt>
      <trkpt lat="43.86749" lon="7.46068">
        <ele>708</ele>
        <time>2022-04-09T15:02:44.000Z</time>
      </trkpt>
      <trkpt lat="43.86751" lon="7.46064">
        <ele>706.79998779297</ele>
        <time>2022-04-09T15:02:45.000Z</time>
      </trkpt>
      <trkpt lat="43.86756" lon="7.46052">
        <ele>705.59997558594</ele>
        <time>2022-04-09T15:02:47.000Z</time>
      </trkpt>
      <trkpt lat="43.8676" lon="7.46046">
        <ele>704.20001220703</ele>
        <time>2022-04-09T15:02:48.000Z</time>
      </trkpt>
      <trkpt lat="43.86763" lon="7.46039">
        <ele>703.20001220703</ele>
        <time>2022-04-09T15:02:49.000Z</time>
      </trkpt>
      <trkpt lat="43.86767" lon="7.46032">
        <ele>702.59997558594</ele>
        <time>2022-04-09T15:02:50.000Z</time>
      </trkpt>
      <trkpt lat="43.86772" lon="7.46025">
        <ele>701.59997558594</ele>
        <time>2022-04-09T15:02:51.000Z</time>
      </trkpt>
      <trkpt lat="43.86781" lon="7.46011">
        <ele>700.40002441406</ele>
        <time>2022-04-09T15:02:53.000Z</time>
      </trkpt>
      <trkpt lat="43.86785" lon="7.46006">
        <ele>699.79998779297</ele>
        <time>2022-04-09T15:02:54.000Z</time>
      </trkpt>
      <trkpt lat="43.86789" lon="7.46002">
        <ele>699.20001220703</ele>
        <time>2022-04-09T15:02:55.000Z</time>
      </trkpt>
      <trkpt lat="43.86791" lon="7.45996">
        <ele>698.79998779297</ele>
        <time>2022-04-09T15:02:56.000Z</time>
      </trkpt>
      <trkpt lat="43.86799" lon="7.45986">
        <ele>698.79998779297</ele>
        <time>2022-04-09T15:02:59.000Z</time>
      </trkpt>
      <trkpt lat="43.86807" lon="7.45974">
        <ele>699.40002441406</ele>
        <time>2022-04-09T15:03:03.000Z</time>
      </trkpt>
      <trkpt lat="43.86809" lon="7.45961">
        <ele>699.40002441406</ele>
        <time>2022-04-09T15:03:05.000Z</time>
      </trkpt>
      <trkpt lat="43.86809" lon="7.45954">
        <ele>699</ele>
        <time>2022-04-09T15:03:06.000Z</time>
      </trkpt>
      <trkpt lat="43.8681" lon="7.45947">
        <ele>698.40002441406</ele>
        <time>2022-04-09T15:03:07.000Z</time>
      </trkpt>
      <trkpt lat="43.8681" lon="7.45939">
        <ele>697.79998779297</ele>
        <time>2022-04-09T15:03:08.000Z</time>
      </trkpt>
      <trkpt lat="43.86812" lon="7.45931">
        <ele>696.79998779297</ele>
        <time>2022-04-09T15:03:09.000Z</time>
      </trkpt>
      <trkpt lat="43.86814" lon="7.45925">
        <ele>696</ele>
        <time>2022-04-09T15:03:10.000Z</time>
      </trkpt>
      <trkpt lat="43.86815" lon="7.45917">
        <ele>694.59997558594</ele>
        <time>2022-04-09T15:03:11.000Z</time>
      </trkpt>
      <trkpt lat="43.86819" lon="7.45907">
        <ele>692.40002441406</ele>
        <time>2022-04-09T15:03:13.000Z</time>
      </trkpt>
      <trkpt lat="43.86821" lon="7.45902">
        <ele>691.20001220703</ele>
        <time>2022-04-09T15:03:14.000Z</time>
      </trkpt>
      <trkpt lat="43.86822" lon="7.45895">
        <ele>690.20001220703</ele>
        <time>2022-04-09T15:03:15.000Z</time>
      </trkpt>
      <trkpt lat="43.86823" lon="7.45877">
        <ele>688.20001220703</ele>
        <time>2022-04-09T15:03:17.000Z</time>
      </trkpt>
      <trkpt lat="43.86824" lon="7.45868">
        <ele>687.20001220703</ele>
        <time>2022-04-09T15:03:18.000Z</time>
      </trkpt>
      <trkpt lat="43.86825" lon="7.45857">
        <ele>686.20001220703</ele>
        <time>2022-04-09T15:03:19.000Z</time>
      </trkpt>
      <trkpt lat="43.86827" lon="7.45837">
        <ele>684.40002441406</ele>
        <time>2022-04-09T15:03:21.000Z</time>
      </trkpt>
      <trkpt lat="43.86828" lon="7.45828">
        <ele>683</ele>
        <time>2022-04-09T15:03:22.000Z</time>
      </trkpt>
      <trkpt lat="43.86829" lon="7.45819">
        <ele>682.40002441406</ele>
        <time>2022-04-09T15:03:23.000Z</time>
      </trkpt>
      <trkpt lat="43.8683" lon="7.4581">
        <ele>681.79998779297</ele>
        <time>2022-04-09T15:03:24.000Z</time>
      </trkpt>
      <trkpt lat="43.8683" lon="7.45786">
        <ele>682</ele>
        <time>2022-04-09T15:03:27.000Z</time>
      </trkpt>
      <trkpt lat="43.86829" lon="7.45779">
        <ele>681.59997558594</ele>
        <time>2022-04-09T15:03:28.000Z</time>
      </trkpt>
      <trkpt lat="43.86822" lon="7.45755">
        <ele>681.40002441406</ele>
        <time>2022-04-09T15:03:32.000Z</time>
      </trkpt>
      <trkpt lat="43.86823" lon="7.45745">
        <ele>682</ele>
        <time>2022-04-09T15:03:34.000Z</time>
      </trkpt>
      <trkpt lat="43.86827" lon="7.45735">
        <ele>682.79998779297</ele>
        <time>2022-04-09T15:03:36.000Z</time>
      </trkpt>
      <trkpt lat="43.8683" lon="7.45727">
        <ele>683</ele>
        <time>2022-04-09T15:03:38.000Z</time>
      </trkpt>
      <trkpt lat="43.86835" lon="7.4572">
        <ele>682.59997558594</ele>
        <time>2022-04-09T15:03:40.000Z</time>
      </trkpt>
      <trkpt lat="43.86842" lon="7.45709">
        <ele>681.79998779297</ele>
        <time>2022-04-09T15:03:43.000Z</time>
      </trkpt>
      <trkpt lat="43.86843" lon="7.45707">
        <ele>681.40002441406</ele>
        <time>2022-04-09T15:03:44.000Z</time>
      </trkpt>
      <trkpt lat="43.86845" lon="7.45699">
        <ele>680.20001220703</ele>
        <time>2022-04-09T15:03:46.000Z</time>
      </trkpt>
      <trkpt lat="43.86846" lon="7.45694">
        <ele>679.59997558594</ele>
        <time>2022-04-09T15:03:47.000Z</time>
      </trkpt>
      <trkpt lat="43.86847" lon="7.4569">
        <ele>679.20001220703</ele>
        <time>2022-04-09T15:03:48.000Z</time>
      </trkpt>
      <trkpt lat="43.86853" lon="7.4568">
        <ele>678.79998779297</ele>
        <time>2022-04-09T15:03:51.000Z</time>
      </trkpt>
      <trkpt lat="43.86861" lon="7.45667">
        <ele>678.20001220703</ele>
        <time>2022-04-09T15:03:54.000Z</time>
      </trkpt>
      <trkpt lat="43.86863" lon="7.45661">
        <ele>677.79998779297</ele>
        <time>2022-04-09T15:03:55.000Z</time>
      </trkpt>
      <trkpt lat="43.86868" lon="7.45651">
        <ele>676.20001220703</ele>
        <time>2022-04-09T15:03:57.000Z</time>
      </trkpt>
      <trkpt lat="43.86872" lon="7.45643">
        <ele>676.20001220703</ele>
        <time>2022-04-09T15:03:59.000Z</time>
      </trkpt>
      <trkpt lat="43.86876" lon="7.4564">
        <ele>676.59997558594</ele>
        <time>2022-04-09T15:04:01.000Z</time>
      </trkpt>
      <trkpt lat="43.86879" lon="7.45644">
        <ele>677.20001220703</ele>
        <time>2022-04-09T15:04:03.000Z</time>
      </trkpt>
      <trkpt lat="43.86881" lon="7.45646">
        <ele>677.20001220703</ele>
        <time>2022-04-09T15:04:04.000Z</time>
      </trkpt>
      <trkpt lat="43.86887" lon="7.45641">
        <ele>677</ele>
        <time>2022-04-09T15:04:07.000Z</time>
      </trkpt>
      <trkpt lat="43.86891" lon="7.45633">
        <ele>676</ele>
        <time>2022-04-09T15:04:09.000Z</time>
      </trkpt>
      <trkpt lat="43.86895" lon="7.45628">
        <ele>675</ele>
        <time>2022-04-09T15:04:11.000Z</time>
      </trkpt>
      <trkpt lat="43.86901" lon="7.45625">
        <ele>673.40002441406</ele>
        <time>2022-04-09T15:04:13.000Z</time>
      </trkpt>
      <trkpt lat="43.86904" lon="7.45624">
        <ele>672.79998779297</ele>
        <time>2022-04-09T15:04:14.000Z</time>
      </trkpt>
      <trkpt lat="43.86908" lon="7.45621">
        <ele>672</ele>
        <time>2022-04-09T15:04:15.000Z</time>
      </trkpt>
      <trkpt lat="43.8691" lon="7.45619">
        <ele>671</ele>
        <time>2022-04-09T15:04:16.000Z</time>
      </trkpt>
      <trkpt lat="43.86914" lon="7.45614">
        <ele>669.59997558594</ele>
        <time>2022-04-09T15:04:17.000Z</time>
      </trkpt>
      <trkpt lat="43.86918" lon="7.45609">
        <ele>669.20001220703</ele>
        <time>2022-04-09T15:04:18.000Z</time>
      </trkpt>
      <trkpt lat="43.86921" lon="7.45606">
        <ele>668.20001220703</ele>
        <time>2022-04-09T15:04:19.000Z</time>
      </trkpt>
      <trkpt lat="43.86923" lon="7.45603">
        <ele>667.20001220703</ele>
        <time>2022-04-09T15:04:20.000Z</time>
      </trkpt>
      <trkpt lat="43.86926" lon="7.456">
        <ele>666</ele>
        <time>2022-04-09T15:04:21.000Z</time>
      </trkpt>
      <trkpt lat="43.86932" lon="7.45593">
        <ele>665</ele>
        <time>2022-04-09T15:04:23.000Z</time>
      </trkpt>
      <trkpt lat="43.86936" lon="7.4559">
        <ele>664.40002441406</ele>
        <time>2022-04-09T15:04:24.000Z</time>
      </trkpt>
      <trkpt lat="43.86941" lon="7.45586">
        <ele>663.40002441406</ele>
        <time>2022-04-09T15:04:26.000Z</time>
      </trkpt>
      <trkpt lat="43.86944" lon="7.45585">
        <ele>662.59997558594</ele>
        <time>2022-04-09T15:04:27.000Z</time>
      </trkpt>
      <trkpt lat="43.86947" lon="7.45587">
        <ele>662.20001220703</ele>
        <time>2022-04-09T15:04:28.000Z</time>
      </trkpt>
      <trkpt lat="43.86956" lon="7.45591">
        <ele>660.79998779297</ele>
        <time>2022-04-09T15:04:31.000Z</time>
      </trkpt>
      <trkpt lat="43.86958" lon="7.45593">
        <ele>660.20001220703</ele>
        <time>2022-04-09T15:04:32.000Z</time>
      </trkpt>
      <trkpt lat="43.8696" lon="7.45595">
        <ele>659.59997558594</ele>
        <time>2022-04-09T15:04:33.000Z</time>
      </trkpt>
      <trkpt lat="43.86962" lon="7.45598">
        <ele>658.59997558594</ele>
        <time>2022-04-09T15:04:35.000Z</time>
      </trkpt>
      <trkpt lat="43.86963" lon="7.45596">
        <ele>658</ele>
        <time>2022-04-09T15:04:36.000Z</time>
      </trkpt>
      <trkpt lat="43.86964" lon="7.45594">
        <ele>657.79998779297</ele>
        <time>2022-04-09T15:04:37.000Z</time>
      </trkpt>
      <trkpt lat="43.86966" lon="7.45591">
        <ele>657.40002441406</ele>
        <time>2022-04-09T15:04:38.000Z</time>
      </trkpt>
      <trkpt lat="43.86968" lon="7.45587">
        <ele>657.20001220703</ele>
        <time>2022-04-09T15:04:39.000Z</time>
      </trkpt>
      <trkpt lat="43.86967" lon="7.45577">
        <ele>655.79998779297</ele>
        <time>2022-04-09T15:04:41.000Z</time>
      </trkpt>
      <trkpt lat="43.86966" lon="7.45574">
        <ele>654.79998779297</ele>
        <time>2022-04-09T15:04:42.000Z</time>
      </trkpt>
      <trkpt lat="43.86966" lon="7.45571">
        <ele>654</ele>
        <time>2022-04-09T15:04:43.000Z</time>
      </trkpt>
      <trkpt lat="43.86968" lon="7.45565">
        <ele>652.79998779297</ele>
        <time>2022-04-09T15:04:45.000Z</time>
      </trkpt>
      <trkpt lat="43.86969" lon="7.45562">
        <ele>651.40002441406</ele>
        <time>2022-04-09T15:04:47.000Z</time>
      </trkpt>
      <trkpt lat="43.86971" lon="7.45562">
        <ele>649.79998779297</ele>
        <time>2022-04-09T15:04:49.000Z</time>
      </trkpt>
      <trkpt lat="43.86971" lon="7.45561">
        <ele>648.40002441406</ele>
        <time>2022-04-09T15:04:51.000Z</time>
      </trkpt>
      <trkpt lat="43.86973" lon="7.45558">
        <ele>647.40002441406</ele>
        <time>2022-04-09T15:04:53.000Z</time>
      </trkpt>
      <trkpt lat="43.86974" lon="7.45558">
        <ele>647</ele>
        <time>2022-04-09T15:04:54.000Z</time>
      </trkpt>
      <trkpt lat="43.86975" lon="7.45562">
        <ele>645.79998779297</ele>
        <time>2022-04-09T15:04:56.000Z</time>
      </trkpt>
      <trkpt lat="43.86977" lon="7.45566">
        <ele>644.59997558594</ele>
        <time>2022-04-09T15:04:58.000Z</time>
      </trkpt>
      <trkpt lat="43.86977" lon="7.45567">
        <ele>643.40002441406</ele>
        <time>2022-04-09T15:05:00.000Z</time>
      </trkpt>
      <trkpt lat="43.86979" lon="7.45564">
        <ele>642.40002441406</ele>
        <time>2022-04-09T15:05:01.000Z</time>
      </trkpt>
      <trkpt lat="43.8698" lon="7.45561">
        <ele>641.79998779297</ele>
        <time>2022-04-09T15:05:02.000Z</time>
      </trkpt>
      <trkpt lat="43.86982" lon="7.45558">
        <ele>641.20001220703</ele>
        <time>2022-04-09T15:05:03.000Z</time>
      </trkpt>
      <trkpt lat="43.86983" lon="7.45555">
        <ele>640.59997558594</ele>
        <time>2022-04-09T15:05:04.000Z</time>
      </trkpt>
      <trkpt lat="43.86987" lon="7.45547">
        <ele>638.79998779297</ele>
        <time>2022-04-09T15:05:06.000Z</time>
      </trkpt>
      <trkpt lat="43.86989" lon="7.45543">
        <ele>637.79998779297</ele>
        <time>2022-04-09T15:05:07.000Z</time>
      </trkpt>
      <trkpt lat="43.86992" lon="7.45533">
        <ele>636</ele>
        <time>2022-04-09T15:05:09.000Z</time>
      </trkpt>
      <trkpt lat="43.86992" lon="7.45528">
        <ele>634.79998779297</ele>
        <time>2022-04-09T15:05:10.000Z</time>
      </trkpt>
      <trkpt lat="43.86991" lon="7.45521">
        <ele>634</ele>
        <time>2022-04-09T15:05:11.000Z</time>
      </trkpt>
      <trkpt lat="43.86992" lon="7.45517">
        <ele>633</ele>
        <time>2022-04-09T15:05:12.000Z</time>
      </trkpt>
      <trkpt lat="43.86993" lon="7.45516">
        <ele>632</ele>
        <time>2022-04-09T15:05:13.000Z</time>
      </trkpt>
      <trkpt lat="43.86995" lon="7.45518">
        <ele>630.79998779297</ele>
        <time>2022-04-09T15:05:14.000Z</time>
      </trkpt>
      <trkpt lat="43.86999" lon="7.45521">
        <ele>629</ele>
        <time>2022-04-09T15:05:16.000Z</time>
      </trkpt>
      <trkpt lat="43.87001" lon="7.45519">
        <ele>627.40002441406</ele>
        <time>2022-04-09T15:05:18.000Z</time>
      </trkpt>
      <trkpt lat="43.87001" lon="7.45517">
        <ele>627</ele>
        <time>2022-04-09T15:05:19.000Z</time>
      </trkpt>
      <trkpt lat="43.87001" lon="7.45513">
        <ele>626.20001220703</ele>
        <time>2022-04-09T15:05:20.000Z</time>
      </trkpt>
      <trkpt lat="43.87002" lon="7.45509">
        <ele>625</ele>
        <time>2022-04-09T15:05:22.000Z</time>
      </trkpt>
      <trkpt lat="43.87004" lon="7.45512">
        <ele>623.79998779297</ele>
        <time>2022-04-09T15:05:24.000Z</time>
      </trkpt>
      <trkpt lat="43.87006" lon="7.45513">
        <ele>623</ele>
        <time>2022-04-09T15:05:25.000Z</time>
      </trkpt>
      <trkpt lat="43.87005" lon="7.45512">
        <ele>622.40002441406</ele>
        <time>2022-04-09T15:05:26.000Z</time>
      </trkpt>
      <trkpt lat="43.87007" lon="7.4551">
        <ele>621.40002441406</ele>
        <time>2022-04-09T15:05:28.000Z</time>
      </trkpt>
      <trkpt lat="43.8701" lon="7.45499">
        <ele>620</ele>
        <time>2022-04-09T15:05:31.000Z</time>
      </trkpt>
      <trkpt lat="43.87011" lon="7.45496">
        <ele>619</ele>
        <time>2022-04-09T15:05:33.000Z</time>
      </trkpt>
      <trkpt lat="43.87012" lon="7.45492">
        <ele>617.79998779297</ele>
        <time>2022-04-09T15:05:35.000Z</time>
      </trkpt>
      <trkpt lat="43.87013" lon="7.45489">
        <ele>616.79998779297</ele>
        <time>2022-04-09T15:05:37.000Z</time>
      </trkpt>
      <trkpt lat="43.87014" lon="7.45486">
        <ele>615.40002441406</ele>
        <time>2022-04-09T15:05:39.000Z</time>
      </trkpt>
      <trkpt lat="43.87015" lon="7.45481">
        <ele>614.40002441406</ele>
        <time>2022-04-09T15:05:41.000Z</time>
      </trkpt>
      <trkpt lat="43.87016" lon="7.45477">
        <ele>614</ele>
        <time>2022-04-09T15:05:42.000Z</time>
      </trkpt>
      <trkpt lat="43.87016" lon="7.45474">
        <ele>613.40002441406</ele>
        <time>2022-04-09T15:05:43.000Z</time>
      </trkpt>
      <trkpt lat="43.87017" lon="7.45472">
        <ele>612.79998779297</ele>
        <time>2022-04-09T15:05:44.000Z</time>
      </trkpt>
      <trkpt lat="43.87017" lon="7.45467">
        <ele>611.40002441406</ele>
        <time>2022-04-09T15:05:46.000Z</time>
      </trkpt>
      <trkpt lat="43.87018" lon="7.45465">
        <ele>610.59997558594</ele>
        <time>2022-04-09T15:05:47.000Z</time>
      </trkpt>
      <trkpt lat="43.87018" lon="7.45463">
        <ele>610</ele>
        <time>2022-04-09T15:05:48.000Z</time>
      </trkpt>
      <trkpt lat="43.8702" lon="7.45461">
        <ele>608.40002441406</ele>
        <time>2022-04-09T15:05:50.000Z</time>
      </trkpt>
      <trkpt lat="43.87021" lon="7.45461">
        <ele>607.59997558594</ele>
        <time>2022-04-09T15:05:51.000Z</time>
      </trkpt>
      <trkpt lat="43.87022" lon="7.45462">
        <ele>606.59997558594</ele>
        <time>2022-04-09T15:05:52.000Z</time>
      </trkpt>
      <trkpt lat="43.87025" lon="7.4546">
        <ele>605</ele>
        <time>2022-04-09T15:05:54.000Z</time>
      </trkpt>
      <trkpt lat="43.87026" lon="7.45457">
        <ele>604.40002441406</ele>
        <time>2022-04-09T15:05:55.000Z</time>
      </trkpt>
      <trkpt lat="43.87027" lon="7.45454">
        <ele>603.79998779297</ele>
        <time>2022-04-09T15:05:56.000Z</time>
      </trkpt>
      <trkpt lat="43.87029" lon="7.45451">
        <ele>603.20001220703</ele>
        <time>2022-04-09T15:05:57.000Z</time>
      </trkpt>
      <trkpt lat="43.87032" lon="7.45447">
        <ele>602.20001220703</ele>
        <time>2022-04-09T15:05:58.000Z</time>
      </trkpt>
      <trkpt lat="43.87035" lon="7.45441">
        <ele>601.40002441406</ele>
        <time>2022-04-09T15:05:59.000Z</time>
      </trkpt>
      <trkpt lat="43.87039" lon="7.45436">
        <ele>600.20001220703</ele>
        <time>2022-04-09T15:06:00.000Z</time>
      </trkpt>
      <trkpt lat="43.87043" lon="7.45433">
        <ele>599.20001220703</ele>
        <time>2022-04-09T15:06:01.000Z</time>
      </trkpt>
      <trkpt lat="43.87046" lon="7.45429">
        <ele>597.79998779297</ele>
        <time>2022-04-09T15:06:02.000Z</time>
      </trkpt>
      <trkpt lat="43.87048" lon="7.45425">
        <ele>596.79998779297</ele>
        <time>2022-04-09T15:06:03.000Z</time>
      </trkpt>
      <trkpt lat="43.87051" lon="7.45415">
        <ele>594.79998779297</ele>
        <time>2022-04-09T15:06:05.000Z</time>
      </trkpt>
      <trkpt lat="43.87052" lon="7.45408">
        <ele>593.40002441406</ele>
        <time>2022-04-09T15:06:06.000Z</time>
      </trkpt>
      <trkpt lat="43.87053" lon="7.45402">
        <ele>592.20001220703</ele>
        <time>2022-04-09T15:06:07.000Z</time>
      </trkpt>
      <trkpt lat="43.87054" lon="7.45397">
        <ele>590.79998779297</ele>
        <time>2022-04-09T15:06:08.000Z</time>
      </trkpt>
      <trkpt lat="43.87053" lon="7.45389">
        <ele>589.40002441406</ele>
        <time>2022-04-09T15:06:09.000Z</time>
      </trkpt>
      <trkpt lat="43.87053" lon="7.45386">
        <ele>588.79998779297</ele>
        <time>2022-04-09T15:06:10.000Z</time>
      </trkpt>
      <trkpt lat="43.87055" lon="7.45382">
        <ele>587.40002441406</ele>
        <time>2022-04-09T15:06:11.000Z</time>
      </trkpt>
      <trkpt lat="43.87057" lon="7.45383">
        <ele>586</ele>
        <time>2022-04-09T15:06:12.000Z</time>
      </trkpt>
      <trkpt lat="43.87061" lon="7.4539">
        <ele>584.20001220703</ele>
        <time>2022-04-09T15:06:14.000Z</time>
      </trkpt>
      <trkpt lat="43.87064" lon="7.45394">
        <ele>583.40002441406</ele>
        <time>2022-04-09T15:06:15.000Z</time>
      </trkpt>
      <trkpt lat="43.87067" lon="7.45397">
        <ele>583</ele>
        <time>2022-04-09T15:06:16.000Z</time>
      </trkpt>
      <trkpt lat="43.8707" lon="7.45402">
        <ele>581.79998779297</ele>
        <time>2022-04-09T15:06:17.000Z</time>
      </trkpt>
      <trkpt lat="43.87076" lon="7.45409">
        <ele>579.79998779297</ele>
        <time>2022-04-09T15:06:19.000Z</time>
      </trkpt>
      <trkpt lat="43.87085" lon="7.45426">
        <ele>579</ele>
        <time>2022-04-09T15:06:23.000Z</time>
      </trkpt>
      <trkpt lat="43.87086" lon="7.4543">
        <ele>578.59997558594</ele>
        <time>2022-04-09T15:06:24.000Z</time>
      </trkpt>
      <trkpt lat="43.87088" lon="7.45432">
        <ele>577.20001220703</ele>
        <time>2022-04-09T15:06:26.000Z</time>
      </trkpt>
      <trkpt lat="43.87088" lon="7.4543">
        <ele>576.59997558594</ele>
        <time>2022-04-09T15:06:27.000Z</time>
      </trkpt>
      <trkpt lat="43.8709" lon="7.45427">
        <ele>576</ele>
        <time>2022-04-09T15:06:28.000Z</time>
      </trkpt>
      <trkpt lat="43.87092" lon="7.4542">
        <ele>574.20001220703</ele>
        <time>2022-04-09T15:06:30.000Z</time>
      </trkpt>
      <trkpt lat="43.87095" lon="7.45413">
        <ele>572.59997558594</ele>
        <time>2022-04-09T15:06:32.000Z</time>
      </trkpt>
      <trkpt lat="43.87098" lon="7.45405">
        <ele>570.79998779297</ele>
        <time>2022-04-09T15:06:34.000Z</time>
      </trkpt>
      <trkpt lat="43.87102" lon="7.45397">
        <ele>566.20001220703</ele>
        <time>2022-04-09T15:06:36.000Z</time>
      </trkpt>
      <trkpt lat="43.87107" lon="7.45389">
        <ele>565</ele>
        <time>2022-04-09T15:06:38.000Z</time>
      </trkpt>
      <trkpt lat="43.87109" lon="7.45383">
        <ele>563.79998779297</ele>
        <time>2022-04-09T15:06:39.000Z</time>
      </trkpt>
      <trkpt lat="43.87112" lon="7.45376">
        <ele>561.40002441406</ele>
        <time>2022-04-09T15:06:40.000Z</time>
      </trkpt>
      <trkpt lat="43.87116" lon="7.4537">
        <ele>561</ele>
        <time>2022-04-09T15:06:41.000Z</time>
      </trkpt>
      <trkpt lat="43.8712" lon="7.45364">
        <ele>559.59997558594</ele>
        <time>2022-04-09T15:06:42.000Z</time>
      </trkpt>
      <trkpt lat="43.87124" lon="7.45359">
        <ele>558.20001220703</ele>
        <time>2022-04-09T15:06:43.000Z</time>
      </trkpt>
      <trkpt lat="43.87127" lon="7.45354">
        <ele>557.20001220703</ele>
        <time>2022-04-09T15:06:44.000Z</time>
      </trkpt>
      <trkpt lat="43.87133" lon="7.45343">
        <ele>556.40002441406</ele>
        <time>2022-04-09T15:06:46.000Z</time>
      </trkpt>
      <trkpt lat="43.87135" lon="7.45337">
        <ele>555.79998779297</ele>
        <time>2022-04-09T15:06:47.000Z</time>
      </trkpt>
      <trkpt lat="43.87136" lon="7.45332">
        <ele>555</ele>
        <time>2022-04-09T15:06:48.000Z</time>
      </trkpt>
      <trkpt lat="43.87139" lon="7.45327">
        <ele>554.40002441406</ele>
        <time>2022-04-09T15:06:49.000Z</time>
      </trkpt>
      <trkpt lat="43.87141" lon="7.45325">
        <ele>553.59997558594</ele>
        <time>2022-04-09T15:06:50.000Z</time>
      </trkpt>
      <trkpt lat="43.87143" lon="7.45324">
        <ele>552.40002441406</ele>
        <time>2022-04-09T15:06:51.000Z</time>
      </trkpt>
      <trkpt lat="43.87144" lon="7.45322">
        <ele>550.59997558594</ele>
        <time>2022-04-09T15:06:52.000Z</time>
      </trkpt>
      <trkpt lat="43.87148" lon="7.45318">
        <ele>550</ele>
        <time>2022-04-09T15:06:54.000Z</time>
      </trkpt>
      <trkpt lat="43.8715" lon="7.45316">
        <ele>549</ele>
        <time>2022-04-09T15:06:55.000Z</time>
      </trkpt>
      <trkpt lat="43.87153" lon="7.45314">
        <ele>546.20001220703</ele>
        <time>2022-04-09T15:06:56.000Z</time>
      </trkpt>
      <trkpt lat="43.87156" lon="7.45312">
        <ele>545</ele>
        <time>2022-04-09T15:06:57.000Z</time>
      </trkpt>
      <trkpt lat="43.87158" lon="7.45311">
        <ele>544.40002441406</ele>
        <time>2022-04-09T15:06:58.000Z</time>
      </trkpt>
      <trkpt lat="43.87165" lon="7.45306">
        <ele>543.79998779297</ele>
        <time>2022-04-09T15:07:00.000Z</time>
      </trkpt>
      <trkpt lat="43.8717" lon="7.45303">
        <ele>541.59997558594</ele>
        <time>2022-04-09T15:07:02.000Z</time>
      </trkpt>
      <trkpt lat="43.87173" lon="7.45302">
        <ele>540.40002441406</ele>
        <time>2022-04-09T15:07:03.000Z</time>
      </trkpt>
      <trkpt lat="43.87176" lon="7.45301">
        <ele>539.40002441406</ele>
        <time>2022-04-09T15:07:04.000Z</time>
      </trkpt>
      <trkpt lat="43.87178" lon="7.45301">
        <ele>538.20001220703</ele>
        <time>2022-04-09T15:07:05.000Z</time>
      </trkpt>
      <trkpt lat="43.8718" lon="7.45301">
        <ele>537</ele>
        <time>2022-04-09T15:07:06.000Z</time>
      </trkpt>
      <trkpt lat="43.87181" lon="7.45301">
        <ele>534.79998779297</ele>
        <time>2022-04-09T15:07:08.000Z</time>
      </trkpt>
      <trkpt lat="43.87181" lon="7.453">
        <ele>533.20001220703</ele>
        <time>2022-04-09T15:07:10.000Z</time>
      </trkpt>
      <trkpt lat="43.87181" lon="7.45299">
        <ele>532.20001220703</ele>
        <time>2022-04-09T15:07:12.000Z</time>
      </trkpt>
      <trkpt lat="43.87181" lon="7.45298">
        <ele>531</ele>
        <time>2022-04-09T15:07:17.000Z</time>
      </trkpt>
      <trkpt lat="43.87181" lon="7.45297">
        <ele>530</ele>
        <time>2022-04-09T15:07:23.000Z</time>
      </trkpt>
      <trkpt lat="43.87181" lon="7.45297">
        <ele>529</ele>
        <time>2022-04-09T15:07:29.000Z</time>
      </trkpt>
      <trkpt lat="43.87181" lon="7.45297">
        <ele>528.79998779297</ele>
        <time>2022-04-09T15:07:30.000Z</time>
      </trkpt>
      <trkpt lat="43.87182" lon="7.45296">
        <ele>527.79998779297</ele>
        <time>2022-04-09T15:07:35.000Z</time>
      </trkpt>
      <trkpt lat="43.87184" lon="7.45293">
        <ele>527.40002441406</ele>
        <time>2022-04-09T15:07:38.000Z</time>
      </trkpt>
      <trkpt lat="43.87186" lon="7.45293">
        <ele>526.40002441406</ele>
        <time>2022-04-09T15:07:41.000Z</time>
      </trkpt>
      <trkpt lat="43.87187" lon="7.45294">
        <ele>525.79998779297</ele>
        <time>2022-04-09T15:07:42.000Z</time>
      </trkpt>
      <trkpt lat="43.87188" lon="7.45294">
        <ele>525.20001220703</ele>
        <time>2022-04-09T15:07:43.000Z</time>
      </trkpt>
      <trkpt lat="43.87189" lon="7.45293">
        <ele>524.20001220703</ele>
        <time>2022-04-09T15:07:45.000Z</time>
      </trkpt>
      <trkpt lat="43.8719" lon="7.45292">
        <ele>523.79998779297</ele>
        <time>2022-04-09T15:07:46.000Z</time>
      </trkpt>
      <trkpt lat="43.87191" lon="7.45289">
        <ele>522.79998779297</ele>
        <time>2022-04-09T15:07:48.000Z</time>
      </trkpt>
      <trkpt lat="43.87193" lon="7.45285">
        <ele>521.20001220703</ele>
        <time>2022-04-09T15:07:51.000Z</time>
      </trkpt>
      <trkpt lat="43.87194" lon="7.45283">
        <ele>520.59997558594</ele>
        <time>2022-04-09T15:07:52.000Z</time>
      </trkpt>
      <trkpt lat="43.87195" lon="7.45282">
        <ele>520</ele>
        <time>2022-04-09T15:07:53.000Z</time>
      </trkpt>
      <trkpt lat="43.87196" lon="7.45283">
        <ele>519.20001220703</ele>
        <time>2022-04-09T15:07:54.000Z</time>
      </trkpt>
      <trkpt lat="43.87197" lon="7.45283">
        <ele>518.59997558594</ele>
        <time>2022-04-09T15:07:55.000Z</time>
      </trkpt>
      <trkpt lat="43.87197" lon="7.45285">
        <ele>517.40002441406</ele>
        <time>2022-04-09T15:07:57.000Z</time>
      </trkpt>
      <trkpt lat="43.87197" lon="7.45285">
        <ele>516.40002441406</ele>
        <time>2022-04-09T15:07:59.000Z</time>
      </trkpt>
      <trkpt lat="43.87198" lon="7.45287">
        <ele>516</ele>
        <time>2022-04-09T15:08:00.000Z</time>
      </trkpt>
      <trkpt lat="43.872" lon="7.45289">
        <ele>515.40002441406</ele>
        <time>2022-04-09T15:08:02.000Z</time>
      </trkpt>
      <trkpt lat="43.87201" lon="7.45289">
        <ele>515.20001220703</ele>
        <time>2022-04-09T15:08:03.000Z</time>
      </trkpt>
      <trkpt lat="43.87204" lon="7.45288">
        <ele>514.20001220703</ele>
        <time>2022-04-09T15:08:05.000Z</time>
      </trkpt>
      <trkpt lat="43.87208" lon="7.45285">
        <ele>512.59997558594</ele>
        <time>2022-04-09T15:08:07.000Z</time>
      </trkpt>
      <trkpt lat="43.87212" lon="7.45281">
        <ele>510.79998779297</ele>
        <time>2022-04-09T15:08:09.000Z</time>
      </trkpt>
      <trkpt lat="43.87215" lon="7.45276">
        <ele>509</ele>
        <time>2022-04-09T15:08:11.000Z</time>
      </trkpt>
      <trkpt lat="43.87217" lon="7.45276">
        <ele>506.60000610352</ele>
        <time>2022-04-09T15:08:13.000Z</time>
      </trkpt>
      <trkpt lat="43.87218" lon="7.45276">
        <ele>504.79998779297</ele>
        <time>2022-04-09T15:08:15.000Z</time>
      </trkpt>
      <trkpt lat="43.87218" lon="7.45276">
        <ele>503.39999389648</ele>
        <time>2022-04-09T15:08:17.000Z</time>
      </trkpt>
      <trkpt lat="43.87219" lon="7.45275">
        <ele>502.39999389648</ele>
        <time>2022-04-09T15:08:27.000Z</time>
      </trkpt>
      <trkpt lat="43.87219" lon="7.45273">
        <ele>502.39999389648</ele>
        <time>2022-04-09T15:08:36.000Z</time>
      </trkpt>
      <trkpt lat="43.87219" lon="7.45273">
        <ele>502.39999389648</ele>
        <time>2022-04-09T15:08:40.000Z</time>
      </trkpt>
      <trkpt lat="43.87219" lon="7.45272">
        <ele>502.20001220703</ele>
        <time>2022-04-09T15:08:48.000Z</time>
      </trkpt>
      <trkpt lat="43.87221" lon="7.45271">
        <ele>502</ele>
        <time>2022-04-09T15:08:57.000Z</time>
      </trkpt>
      <trkpt lat="43.87223" lon="7.45269">
        <ele>501.79998779297</ele>
        <time>2022-04-09T15:09:03.000Z</time>
      </trkpt>
      <trkpt lat="43.87225" lon="7.45264">
        <ele>501.60000610352</ele>
        <time>2022-04-09T15:09:05.000Z</time>
      </trkpt>
      <trkpt lat="43.8723" lon="7.45259">
        <ele>501.20001220703</ele>
        <time>2022-04-09T15:09:07.000Z</time>
      </trkpt>
      <trkpt lat="43.87235" lon="7.45254">
        <ele>500.20001220703</ele>
        <time>2022-04-09T15:09:09.000Z</time>
      </trkpt>
      <trkpt lat="43.87237" lon="7.45253">
        <ele>499.39999389648</ele>
        <time>2022-04-09T15:09:10.000Z</time>
      </trkpt>
      <trkpt lat="43.87239" lon="7.45253">
        <ele>498</ele>
        <time>2022-04-09T15:09:11.000Z</time>
      </trkpt>
      <trkpt lat="43.87246" lon="7.45253">
        <ele>496.60000610352</ele>
        <time>2022-04-09T15:09:13.000Z</time>
      </trkpt>
      <trkpt lat="43.87252" lon="7.45253">
        <ele>496</ele>
        <time>2022-04-09T15:09:14.000Z</time>
      </trkpt>
      <trkpt lat="43.87257" lon="7.45253">
        <ele>495.20001220703</ele>
        <time>2022-04-09T15:09:15.000Z</time>
      </trkpt>
      <trkpt lat="43.87265" lon="7.45252">
        <ele>493.20001220703</ele>
        <time>2022-04-09T15:09:17.000Z</time>
      </trkpt>
      <trkpt lat="43.87268" lon="7.45253">
        <ele>492</ele>
        <time>2022-04-09T15:09:18.000Z</time>
      </trkpt>
      <trkpt lat="43.87273" lon="7.45251">
        <ele>490.20001220703</ele>
        <time>2022-04-09T15:09:20.000Z</time>
      </trkpt>
      <trkpt lat="43.87277" lon="7.45249">
        <ele>489.60000610352</ele>
        <time>2022-04-09T15:09:21.000Z</time>
      </trkpt>
      <trkpt lat="43.8728" lon="7.45249">
        <ele>489</ele>
        <time>2022-04-09T15:09:22.000Z</time>
      </trkpt>
      <trkpt lat="43.87285" lon="7.45248">
        <ele>487.60000610352</ele>
        <time>2022-04-09T15:09:24.000Z</time>
      </trkpt>
      <trkpt lat="43.87292" lon="7.45247">
        <ele>485.79998779297</ele>
        <time>2022-04-09T15:09:26.000Z</time>
      </trkpt>
      <trkpt lat="43.87298" lon="7.45248">
        <ele>484.20001220703</ele>
        <time>2022-04-09T15:09:28.000Z</time>
      </trkpt>
      <trkpt lat="43.873" lon="7.45249">
        <ele>483</ele>
        <time>2022-04-09T15:09:29.000Z</time>
      </trkpt>
      <trkpt lat="43.87303" lon="7.45251">
        <ele>482</ele>
        <time>2022-04-09T15:09:30.000Z</time>
      </trkpt>
      <trkpt lat="43.87307" lon="7.45257">
        <ele>480.39999389648</ele>
        <time>2022-04-09T15:09:32.000Z</time>
      </trkpt>
      <trkpt lat="43.8731" lon="7.45258">
        <ele>479.20001220703</ele>
        <time>2022-04-09T15:09:33.000Z</time>
      </trkpt>
      <trkpt lat="43.87316" lon="7.45262">
        <ele>477.79998779297</ele>
        <time>2022-04-09T15:09:35.000Z</time>
      </trkpt>
      <trkpt lat="43.87321" lon="7.45266">
        <ele>476.39999389648</ele>
        <time>2022-04-09T15:09:37.000Z</time>
      </trkpt>
      <trkpt lat="43.87324" lon="7.45265">
        <ele>476</ele>
        <time>2022-04-09T15:09:38.000Z</time>
      </trkpt>
      <trkpt lat="43.87327" lon="7.45264">
        <ele>475.20001220703</ele>
        <time>2022-04-09T15:09:39.000Z</time>
      </trkpt>
      <trkpt lat="43.87331" lon="7.45265">
        <ele>473.39999389648</ele>
        <time>2022-04-09T15:09:41.000Z</time>
      </trkpt>
      <trkpt lat="43.87331" lon="7.45267">
        <ele>472.39999389648</ele>
        <time>2022-04-09T15:09:42.000Z</time>
      </trkpt>
      <trkpt lat="43.87329" lon="7.4527">
        <ele>471</ele>
        <time>2022-04-09T15:09:44.000Z</time>
      </trkpt>
      <trkpt lat="43.87326" lon="7.45274">
        <ele>470.60000610352</ele>
        <time>2022-04-09T15:09:46.000Z</time>
      </trkpt>
      <trkpt lat="43.87323" lon="7.45288">
        <ele>470.20001220703</ele>
        <time>2022-04-09T15:09:50.000Z</time>
      </trkpt>
      <trkpt lat="43.87323" lon="7.45289">
        <ele>470</ele>
        <time>2022-04-09T15:09:51.000Z</time>
      </trkpt>
      <trkpt lat="43.87324" lon="7.45291">
        <ele>469.79998779297</ele>
        <time>2022-04-09T15:09:52.000Z</time>
      </trkpt>
      <trkpt lat="43.87325" lon="7.45291">
        <ele>469.20001220703</ele>
        <time>2022-04-09T15:09:54.000Z</time>
      </trkpt>
      <trkpt lat="43.87326" lon="7.4529">
        <ele>468.79998779297</ele>
        <time>2022-04-09T15:09:55.000Z</time>
      </trkpt>
      <trkpt lat="43.87328" lon="7.45286">
        <ele>467.39999389648</ele>
        <time>2022-04-09T15:09:58.000Z</time>
      </trkpt>
      <trkpt lat="43.87328" lon="7.45286">
        <ele>466.20001220703</ele>
        <time>2022-04-09T15:10:01.000Z</time>
      </trkpt>
      <trkpt lat="43.87329" lon="7.45286">
        <ele>465.60000610352</ele>
        <time>2022-04-09T15:10:05.000Z</time>
      </trkpt>
      <trkpt lat="43.87335" lon="7.45282">
        <ele>465.60000610352</ele>
        <time>2022-04-09T15:10:09.000Z</time>
      </trkpt>
      <trkpt lat="43.87337" lon="7.45282">
        <ele>465.39999389648</ele>
        <time>2022-04-09T15:10:10.000Z</time>
      </trkpt>
      <trkpt lat="43.87339" lon="7.45282">
        <ele>465.20001220703</ele>
        <time>2022-04-09T15:10:11.000Z</time>
      </trkpt>
      <trkpt lat="43.87343" lon="7.45282">
        <ele>464</ele>
        <time>2022-04-09T15:10:13.000Z</time>
      </trkpt>
      <trkpt lat="43.87344" lon="7.45281">
        <ele>463.39999389648</ele>
        <time>2022-04-09T15:10:14.000Z</time>
      </trkpt>
      <trkpt lat="43.87346" lon="7.45279">
        <ele>462.60000610352</ele>
        <time>2022-04-09T15:10:15.000Z</time>
      </trkpt>
      <trkpt lat="43.87348" lon="7.45278">
        <ele>461.79998779297</ele>
        <time>2022-04-09T15:10:16.000Z</time>
      </trkpt>
      <trkpt lat="43.87349" lon="7.45278">
        <ele>461.20001220703</ele>
        <time>2022-04-09T15:10:17.000Z</time>
      </trkpt>
      <trkpt lat="43.87351" lon="7.45277">
        <ele>460</ele>
        <time>2022-04-09T15:10:19.000Z</time>
      </trkpt>
      <trkpt lat="43.87354" lon="7.45276">
        <ele>459</ele>
        <time>2022-04-09T15:10:21.000Z</time>
      </trkpt>
      <trkpt lat="43.87355" lon="7.45276">
        <ele>458.60000610352</ele>
        <time>2022-04-09T15:10:22.000Z</time>
      </trkpt>
      <trkpt lat="43.87358" lon="7.45274">
        <ele>457.20001220703</ele>
        <time>2022-04-09T15:10:24.000Z</time>
      </trkpt>
      <trkpt lat="43.8736" lon="7.45272">
        <ele>456.20001220703</ele>
        <time>2022-04-09T15:10:26.000Z</time>
      </trkpt>
      <trkpt lat="43.87361" lon="7.4527">
        <ele>454.60000610352</ele>
        <time>2022-04-09T15:10:29.000Z</time>
      </trkpt>
      <trkpt lat="43.87362" lon="7.45271">
        <ele>454</ele>
        <time>2022-04-09T15:10:31.000Z</time>
      </trkpt>
      <trkpt lat="43.87362" lon="7.45271">
        <ele>453.60000610352</ele>
        <time>2022-04-09T15:10:32.000Z</time>
      </trkpt>
      <trkpt lat="43.87363" lon="7.45272">
        <ele>452.79998779297</ele>
        <time>2022-04-09T15:10:36.000Z</time>
      </trkpt>
      <trkpt lat="43.87363" lon="7.45273">
        <ele>453</ele>
        <time>2022-04-09T15:10:41.000Z</time>
      </trkpt>
      <trkpt lat="43.87363" lon="7.45274">
        <ele>452.60000610352</ele>
        <time>2022-04-09T15:10:46.000Z</time>
      </trkpt>
      <trkpt lat="43.87363" lon="7.45275">
        <ele>452.39999389648</ele>
        <time>2022-04-09T15:10:47.000Z</time>
      </trkpt>
      <trkpt lat="43.87363" lon="7.45276">
        <ele>452.39999389648</ele>
        <time>2022-04-09T15:10:48.000Z</time>
      </trkpt>
      <trkpt lat="43.87364" lon="7.45277">
        <ele>452</ele>
        <time>2022-04-09T15:10:50.000Z</time>
      </trkpt>
      <trkpt lat="43.87367" lon="7.45275">
        <ele>451.39999389648</ele>
        <time>2022-04-09T15:10:52.000Z</time>
      </trkpt>
      <trkpt lat="43.87368" lon="7.45273">
        <ele>451</ele>
        <time>2022-04-09T15:10:53.000Z</time>
      </trkpt>
      <trkpt lat="43.87371" lon="7.45266">
        <ele>450.20001220703</ele>
        <time>2022-04-09T15:10:56.000Z</time>
      </trkpt>
      <trkpt lat="43.87375" lon="7.45263">
        <ele>449.39999389648</ele>
        <time>2022-04-09T15:10:58.000Z</time>
      </trkpt>
      <trkpt lat="43.87377" lon="7.45262">
        <ele>449</ele>
        <time>2022-04-09T15:10:59.000Z</time>
      </trkpt>
      <trkpt lat="43.8738" lon="7.45264">
        <ele>447.60000610352</ele>
        <time>2022-04-09T15:11:01.000Z</time>
      </trkpt>
      <trkpt lat="43.87381" lon="7.45266">
        <ele>447</ele>
        <time>2022-04-09T15:11:02.000Z</time>
      </trkpt>
      <trkpt lat="43.8738" lon="7.4527">
        <ele>446.39999389648</ele>
        <time>2022-04-09T15:11:03.000Z</time>
      </trkpt>
      <trkpt lat="43.87378" lon="7.45279">
        <ele>445.20001220703</ele>
        <time>2022-04-09T15:11:05.000Z</time>
      </trkpt>
      <trkpt lat="43.87377" lon="7.45283">
        <ele>444.39999389648</ele>
        <time>2022-04-09T15:11:06.000Z</time>
      </trkpt>
      <trkpt lat="43.87376" lon="7.45287">
        <ele>443.79998779297</ele>
        <time>2022-04-09T15:11:07.000Z</time>
      </trkpt>
      <trkpt lat="43.87376" lon="7.45289">
        <ele>443.20001220703</ele>
        <time>2022-04-09T15:11:08.000Z</time>
      </trkpt>
      <trkpt lat="43.87377" lon="7.4529">
        <ele>442.60000610352</ele>
        <time>2022-04-09T15:11:09.000Z</time>
      </trkpt>
      <trkpt lat="43.87382" lon="7.45286">
        <ele>441.20001220703</ele>
        <time>2022-04-09T15:11:12.000Z</time>
      </trkpt>
      <trkpt lat="43.87383" lon="7.45283">
        <ele>440.79998779297</ele>
        <time>2022-04-09T15:11:13.000Z</time>
      </trkpt>
      <trkpt lat="43.87388" lon="7.45282">
        <ele>440</ele>
        <time>2022-04-09T15:11:15.000Z</time>
      </trkpt>
      <trkpt lat="43.8739" lon="7.45283">
        <ele>439.39999389648</ele>
        <time>2022-04-09T15:11:16.000Z</time>
      </trkpt>
      <trkpt lat="43.87392" lon="7.45283">
        <ele>438.79998779297</ele>
        <time>2022-04-09T15:11:17.000Z</time>
      </trkpt>
      <trkpt lat="43.87397" lon="7.45282">
        <ele>437</ele>
        <time>2022-04-09T15:11:19.000Z</time>
      </trkpt>
      <trkpt lat="43.87399" lon="7.4528">
        <ele>436</ele>
        <time>2022-04-09T15:11:20.000Z</time>
      </trkpt>
      <trkpt lat="43.874" lon="7.45278">
        <ele>435.20001220703</ele>
        <time>2022-04-09T15:11:21.000Z</time>
      </trkpt>
      <trkpt lat="43.87402" lon="7.45273">
        <ele>433.60000610352</ele>
        <time>2022-04-09T15:11:23.000Z</time>
      </trkpt>
      <trkpt lat="43.87402" lon="7.45273">
        <ele>433</ele>
        <time>2022-04-09T15:11:24.000Z</time>
      </trkpt>
      <trkpt lat="43.87403" lon="7.45273">
        <ele>432.60000610352</ele>
        <time>2022-04-09T15:11:25.000Z</time>
      </trkpt>
      <trkpt lat="43.87405" lon="7.45274">
        <ele>431.39999389648</ele>
        <time>2022-04-09T15:11:27.000Z</time>
      </trkpt>
      <trkpt lat="43.87406" lon="7.45275">
        <ele>430.39999389648</ele>
        <time>2022-04-09T15:11:30.000Z</time>
      </trkpt>
      <trkpt lat="43.87407" lon="7.45273">
        <ele>429.20001220703</ele>
        <time>2022-04-09T15:11:34.000Z</time>
      </trkpt>
      <trkpt lat="43.87407" lon="7.45273">
        <ele>429</ele>
        <time>2022-04-09T15:11:35.000Z</time>
      </trkpt>
      <trkpt lat="43.87408" lon="7.45272">
        <ele>428.39999389648</ele>
        <time>2022-04-09T15:11:45.000Z</time>
      </trkpt>
      <trkpt lat="43.87409" lon="7.4527">
        <ele>428.60000610352</ele>
        <time>2022-04-09T15:11:48.000Z</time>
      </trkpt>
      <trkpt lat="43.87412" lon="7.4527">
        <ele>428.20001220703</ele>
        <time>2022-04-09T15:11:50.000Z</time>
      </trkpt>
      <trkpt lat="43.87412" lon="7.4527">
        <ele>428</ele>
        <time>2022-04-09T15:11:51.000Z</time>
      </trkpt>
      <trkpt lat="43.87413" lon="7.45267">
        <ele>426.79998779297</ele>
        <time>2022-04-09T15:11:54.000Z</time>
      </trkpt>
      <trkpt lat="43.87414" lon="7.45265">
        <ele>426.60000610352</ele>
        <time>2022-04-09T15:11:55.000Z</time>
      </trkpt>
      <trkpt lat="43.87415" lon="7.45264">
        <ele>426.20001220703</ele>
        <time>2022-04-09T15:11:56.000Z</time>
      </trkpt>
      <trkpt lat="43.87416" lon="7.45263">
        <ele>425.60000610352</ele>
        <time>2022-04-09T15:11:58.000Z</time>
      </trkpt>
      <trkpt lat="43.87416" lon="7.45263">
        <ele>424.60000610352</ele>
        <time>2022-04-09T15:12:00.000Z</time>
      </trkpt>
      <trkpt lat="43.87416" lon="7.45263">
        <ele>424.20001220703</ele>
        <time>2022-04-09T15:12:01.000Z</time>
      </trkpt>
      <trkpt lat="43.87419" lon="7.45263">
        <ele>423.60000610352</ele>
        <time>2022-04-09T15:12:05.000Z</time>
      </trkpt>
      <trkpt lat="43.87421" lon="7.45264">
        <ele>423.20001220703</ele>
        <time>2022-04-09T15:12:07.000Z</time>
      </trkpt>
      <trkpt lat="43.87424" lon="7.45258">
        <ele>422</ele>
        <time>2022-04-09T15:12:10.000Z</time>
      </trkpt>
      <trkpt lat="43.87426" lon="7.45256">
        <ele>421.60000610352</ele>
        <time>2022-04-09T15:12:11.000Z</time>
      </trkpt>
      <trkpt lat="43.87427" lon="7.45248">
        <ele>420.60000610352</ele>
        <time>2022-04-09T15:12:13.000Z</time>
      </trkpt>
      <trkpt lat="43.87427" lon="7.45243">
        <ele>420.20001220703</ele>
        <time>2022-04-09T15:12:14.000Z</time>
      </trkpt>
      <trkpt lat="43.87428" lon="7.4524">
        <ele>419.60000610352</ele>
        <time>2022-04-09T15:12:15.000Z</time>
      </trkpt>
      <trkpt lat="43.8743" lon="7.4524">
        <ele>419</ele>
        <time>2022-04-09T15:12:16.000Z</time>
      </trkpt>
      <trkpt lat="43.87432" lon="7.45243">
        <ele>418.39999389648</ele>
        <time>2022-04-09T15:12:17.000Z</time>
      </trkpt>
      <trkpt lat="43.87435" lon="7.45251">
        <ele>417.60000610352</ele>
        <time>2022-04-09T15:12:19.000Z</time>
      </trkpt>
      <trkpt lat="43.87436" lon="7.45254">
        <ele>417</ele>
        <time>2022-04-09T15:12:20.000Z</time>
      </trkpt>
      <trkpt lat="43.8744" lon="7.45256">
        <ele>415.79998779297</ele>
        <time>2022-04-09T15:12:22.000Z</time>
      </trkpt>
      <trkpt lat="43.87443" lon="7.4526">
        <ele>414.60000610352</ele>
        <time>2022-04-09T15:12:24.000Z</time>
      </trkpt>
      <trkpt lat="43.87446" lon="7.45263">
        <ele>413.39999389648</ele>
        <time>2022-04-09T15:12:26.000Z</time>
      </trkpt>
      <trkpt lat="43.87451" lon="7.45261">
        <ele>412.20001220703</ele>
        <time>2022-04-09T15:12:28.000Z</time>
      </trkpt>
      <trkpt lat="43.87452" lon="7.45257">
        <ele>411.60000610352</ele>
        <time>2022-04-09T15:12:29.000Z</time>
      </trkpt>
      <trkpt lat="43.87454" lon="7.45252">
        <ele>411</ele>
        <time>2022-04-09T15:12:30.000Z</time>
      </trkpt>
      <trkpt lat="43.87456" lon="7.45247">
        <ele>410.20001220703</ele>
        <time>2022-04-09T15:12:31.000Z</time>
      </trkpt>
      <trkpt lat="43.87457" lon="7.45241">
        <ele>409.39999389648</ele>
        <time>2022-04-09T15:12:32.000Z</time>
      </trkpt>
      <trkpt lat="43.87458" lon="7.45236">
        <ele>408.60000610352</ele>
        <time>2022-04-09T15:12:33.000Z</time>
      </trkpt>
      <trkpt lat="43.87458" lon="7.45229">
        <ele>407.60000610352</ele>
        <time>2022-04-09T15:12:34.000Z</time>
      </trkpt>
      <trkpt lat="43.87457" lon="7.45215">
        <ele>406</ele>
        <time>2022-04-09T15:12:36.000Z</time>
      </trkpt>
      <trkpt lat="43.87456" lon="7.45209">
        <ele>405</ele>
        <time>2022-04-09T15:12:37.000Z</time>
      </trkpt>
      <trkpt lat="43.87456" lon="7.45199">
        <ele>403</ele>
        <time>2022-04-09T15:12:39.000Z</time>
      </trkpt>
      <trkpt lat="43.87458" lon="7.45195">
        <ele>402</ele>
        <time>2022-04-09T15:12:40.000Z</time>
      </trkpt>
      <trkpt lat="43.8746" lon="7.45191">
        <ele>400.79998779297</ele>
        <time>2022-04-09T15:12:41.000Z</time>
      </trkpt>
      <trkpt lat="43.87461" lon="7.45186">
        <ele>399.39999389648</ele>
        <time>2022-04-09T15:12:43.000Z</time>
      </trkpt>
      <trkpt lat="43.8746" lon="7.45181">
        <ele>398.60000610352</ele>
        <time>2022-04-09T15:12:45.000Z</time>
      </trkpt>
      <trkpt lat="43.87464" lon="7.45178">
        <ele>398.79998779297</ele>
        <time>2022-04-09T15:12:48.000Z</time>
      </trkpt>
      <trkpt lat="43.87469" lon="7.45191">
        <ele>398.60000610352</ele>
        <time>2022-04-09T15:12:51.000Z</time>
      </trkpt>
      <trkpt lat="43.8747" lon="7.45197">
        <ele>398</ele>
        <time>2022-04-09T15:12:52.000Z</time>
      </trkpt>
      <trkpt lat="43.87473" lon="7.45208">
        <ele>396.60000610352</ele>
        <time>2022-04-09T15:12:54.000Z</time>
      </trkpt>
      <trkpt lat="43.87474" lon="7.45213">
        <ele>395.39999389648</ele>
        <time>2022-04-09T15:12:55.000Z</time>
      </trkpt>
      <trkpt lat="43.87475" lon="7.45214">
        <ele>394.60000610352</ele>
        <time>2022-04-09T15:12:56.000Z</time>
      </trkpt>
      <trkpt lat="43.87476" lon="7.45213">
        <ele>394</ele>
        <time>2022-04-09T15:12:57.000Z</time>
      </trkpt>
      <trkpt lat="43.87477" lon="7.45211">
        <ele>393.39999389648</ele>
        <time>2022-04-09T15:12:58.000Z</time>
      </trkpt>
      <trkpt lat="43.87476" lon="7.45206">
        <ele>393</ele>
        <time>2022-04-09T15:12:59.000Z</time>
      </trkpt>
      <trkpt lat="43.87478" lon="7.45197">
        <ele>391.60000610352</ele>
        <time>2022-04-09T15:13:01.000Z</time>
      </trkpt>
      <trkpt lat="43.87478" lon="7.45188">
        <ele>390.39999389648</ele>
        <time>2022-04-09T15:13:03.000Z</time>
      </trkpt>
      <trkpt lat="43.8748" lon="7.45185">
        <ele>389.79998779297</ele>
        <time>2022-04-09T15:13:04.000Z</time>
      </trkpt>
      <trkpt lat="43.87482" lon="7.45186">
        <ele>389</ele>
        <time>2022-04-09T15:13:05.000Z</time>
      </trkpt>
      <trkpt lat="43.87484" lon="7.45191">
        <ele>389</ele>
        <time>2022-04-09T15:13:07.000Z</time>
      </trkpt>
      <trkpt lat="43.87486" lon="7.45204">
        <ele>388.60000610352</ele>
        <time>2022-04-09T15:13:10.000Z</time>
      </trkpt>
      <trkpt lat="43.87488" lon="7.45205">
        <ele>387.60000610352</ele>
        <time>2022-04-09T15:13:11.000Z</time>
      </trkpt>
      <trkpt lat="43.87494" lon="7.45205">
        <ele>385.60000610352</ele>
        <time>2022-04-09T15:13:13.000Z</time>
      </trkpt>
      <trkpt lat="43.87501" lon="7.45204">
        <ele>384</ele>
        <time>2022-04-09T15:13:15.000Z</time>
      </trkpt>
      <trkpt lat="43.87506" lon="7.45202">
        <ele>382.60000610352</ele>
        <time>2022-04-09T15:13:17.000Z</time>
      </trkpt>
      <trkpt lat="43.87509" lon="7.45202">
        <ele>382</ele>
        <time>2022-04-09T15:13:18.000Z</time>
      </trkpt>
      <trkpt lat="43.8751" lon="7.45202">
        <ele>381.20001220703</ele>
        <time>2022-04-09T15:13:19.000Z</time>
      </trkpt>
      <trkpt lat="43.87511" lon="7.45201">
        <ele>380.20001220703</ele>
        <time>2022-04-09T15:13:20.000Z</time>
      </trkpt>
      <trkpt lat="43.87512" lon="7.45201">
        <ele>379.39999389648</ele>
        <time>2022-04-09T15:13:21.000Z</time>
      </trkpt>
      <trkpt lat="43.87513" lon="7.45201">
        <ele>379</ele>
        <time>2022-04-09T15:13:22.000Z</time>
      </trkpt>
      <trkpt lat="43.87523" lon="7.45199">
        <ele>377.60000610352</ele>
        <time>2022-04-09T15:13:26.000Z</time>
      </trkpt>
      <trkpt lat="43.8753" lon="7.45198">
        <ele>376.20001220703</ele>
        <time>2022-04-09T15:13:28.000Z</time>
      </trkpt>
      <trkpt lat="43.87541" lon="7.45196">
        <ele>374.39999389648</ele>
        <time>2022-04-09T15:13:30.000Z</time>
      </trkpt>
      <trkpt lat="43.87546" lon="7.45194">
        <ele>373.20001220703</ele>
        <time>2022-04-09T15:13:31.000Z</time>
      </trkpt>
      <trkpt lat="43.87558" lon="7.45191">
        <ele>371.60000610352</ele>
        <time>2022-04-09T15:13:33.000Z</time>
      </trkpt>
      <trkpt lat="43.8757" lon="7.45189">
        <ele>369.60000610352</ele>
        <time>2022-04-09T15:13:35.000Z</time>
      </trkpt>
      <trkpt lat="43.87577" lon="7.45188">
        <ele>369</ele>
        <time>2022-04-09T15:13:36.000Z</time>
      </trkpt>
      <trkpt lat="43.87584" lon="7.45186">
        <ele>368</ele>
        <time>2022-04-09T15:13:37.000Z</time>
      </trkpt>
      <trkpt lat="43.8759" lon="7.45182">
        <ele>367</ele>
        <time>2022-04-09T15:13:38.000Z</time>
      </trkpt>
      <trkpt lat="43.87603" lon="7.45175">
        <ele>364.79998779297</ele>
        <time>2022-04-09T15:13:40.000Z</time>
      </trkpt>
      <trkpt lat="43.87617" lon="7.4517">
        <ele>363.20001220703</ele>
        <time>2022-04-09T15:13:42.000Z</time>
      </trkpt>
      <trkpt lat="43.87636" lon="7.45164">
        <ele>361.79998779297</ele>
        <time>2022-04-09T15:13:45.000Z</time>
      </trkpt>
      <trkpt lat="43.87644" lon="7.45156">
        <ele>360.79998779297</ele>
        <time>2022-04-09T15:13:47.000Z</time>
      </trkpt>
      <trkpt lat="43.87645" lon="7.45148">
        <ele>360.20001220703</ele>
        <time>2022-04-09T15:13:48.000Z</time>
      </trkpt>
      <trkpt lat="43.87647" lon="7.45128">
        <ele>358.79998779297</ele>
        <time>2022-04-09T15:13:50.000Z</time>
      </trkpt>
      <trkpt lat="43.87646" lon="7.45118">
        <ele>358</ele>
        <time>2022-04-09T15:13:51.000Z</time>
      </trkpt>
      <trkpt lat="43.87646" lon="7.45107">
        <ele>356.79998779297</ele>
        <time>2022-04-09T15:13:52.000Z</time>
      </trkpt>
      <trkpt lat="43.87646" lon="7.45097">
        <ele>355.79998779297</ele>
        <time>2022-04-09T15:13:53.000Z</time>
      </trkpt>
      <trkpt lat="43.87645" lon="7.45087">
        <ele>354.60000610352</ele>
        <time>2022-04-09T15:13:54.000Z</time>
      </trkpt>
      <trkpt lat="43.87645" lon="7.4508">
        <ele>353.39999389648</ele>
        <time>2022-04-09T15:13:55.000Z</time>
      </trkpt>
      <trkpt lat="43.87647" lon="7.45075">
        <ele>352.20001220703</ele>
        <time>2022-04-09T15:13:56.000Z</time>
      </trkpt>
      <trkpt lat="43.87655" lon="7.45072">
        <ele>350.20001220703</ele>
        <time>2022-04-09T15:13:58.000Z</time>
      </trkpt>
      <trkpt lat="43.87662" lon="7.45067">
        <ele>349.20001220703</ele>
        <time>2022-04-09T15:14:00.000Z</time>
      </trkpt>
      <trkpt lat="43.87665" lon="7.45063">
        <ele>348.79998779297</ele>
        <time>2022-04-09T15:14:01.000Z</time>
      </trkpt>
      <trkpt lat="43.8768" lon="7.45042">
        <ele>348.20001220703</ele>
        <time>2022-04-09T15:14:05.000Z</time>
      </trkpt>
      <trkpt lat="43.8769" lon="7.45034">
        <ele>348</ele>
        <time>2022-04-09T15:14:07.000Z</time>
      </trkpt>
      <trkpt lat="43.87715" lon="7.45018">
        <ele>347</ele>
        <time>2022-04-09T15:14:12.000Z</time>
      </trkpt>
      <trkpt lat="43.8773" lon="7.45009">
        <ele>346.79998779297</ele>
        <time>2022-04-09T15:14:15.000Z</time>
      </trkpt>
      <trkpt lat="43.87741" lon="7.45009">
        <ele>346.79998779297</ele>
        <time>2022-04-09T15:14:17.000Z</time>
      </trkpt>
      <trkpt lat="43.87751" lon="7.4501">
        <ele>346.79998779297</ele>
        <time>2022-04-09T15:14:19.000Z</time>
      </trkpt>
      <trkpt lat="43.87755" lon="7.45011">
        <ele>346.79998779297</ele>
        <time>2022-04-09T15:14:20.000Z</time>
      </trkpt>
      <trkpt lat="43.87759" lon="7.45009">
        <ele>346.60000610352</ele>
        <time>2022-04-09T15:14:21.000Z</time>
      </trkpt>
      <trkpt lat="43.87763" lon="7.44997">
        <ele>346.60000610352</ele>
        <time>2022-04-09T15:14:24.000Z</time>
      </trkpt>
      <trkpt lat="43.87764" lon="7.4498">
        <ele>346.60000610352</ele>
        <time>2022-04-09T15:14:27.000Z</time>
      </trkpt>
      <trkpt lat="43.87766" lon="7.4496">
        <ele>346.60000610352</ele>
        <time>2022-04-09T15:14:30.000Z</time>
      </trkpt>
      <trkpt lat="43.87776" lon="7.44919">
        <ele>346.79998779297</ele>
        <time>2022-04-09T15:14:36.000Z</time>
      </trkpt>
      <trkpt lat="43.87779" lon="7.44905">
        <ele>346.60000610352</ele>
        <time>2022-04-09T15:14:38.000Z</time>
      </trkpt>
      <trkpt lat="43.87782" lon="7.44881">
        <ele>346</ele>
        <time>2022-04-09T15:14:41.000Z</time>
      </trkpt>
      <trkpt lat="43.87782" lon="7.44873">
        <ele>345.79998779297</ele>
        <time>2022-04-09T15:14:42.000Z</time>
      </trkpt>
      <trkpt lat="43.87784" lon="7.44825">
        <ele>345.20001220703</ele>
        <time>2022-04-09T15:14:48.000Z</time>
      </trkpt>
      <trkpt lat="43.87784" lon="7.44816">
        <ele>345</ele>
        <time>2022-04-09T15:14:49.000Z</time>
      </trkpt>
      <trkpt lat="43.87785" lon="7.44793">
        <ele>344.79998779297</ele>
        <time>2022-04-09T15:14:52.000Z</time>
      </trkpt>
      <trkpt lat="43.87787" lon="7.44779">
        <ele>345</ele>
        <time>2022-04-09T15:14:54.000Z</time>
      </trkpt>
      <trkpt lat="43.87787" lon="7.44771">
        <ele>345</ele>
        <time>2022-04-09T15:14:55.000Z</time>
      </trkpt>
      <trkpt lat="43.8779" lon="7.44753">
        <ele>345.20001220703</ele>
        <time>2022-04-09T15:14:58.000Z</time>
      </trkpt>
      <trkpt lat="43.87792" lon="7.44748">
        <ele>345.20001220703</ele>
        <time>2022-04-09T15:14:59.000Z</time>
      </trkpt>
      <trkpt lat="43.87799" lon="7.44741">
        <ele>345.20001220703</ele>
        <time>2022-04-09T15:15:01.000Z</time>
      </trkpt>
      <trkpt lat="43.87818" lon="7.44739">
        <ele>345.20001220703</ele>
        <time>2022-04-09T15:15:05.000Z</time>
      </trkpt>
      <trkpt lat="43.87823" lon="7.4474">
        <ele>345.20001220703</ele>
        <time>2022-04-09T15:15:06.000Z</time>
      </trkpt>
      <trkpt lat="43.87845" lon="7.44743">
        <ele>344</ele>
        <time>2022-04-09T15:15:10.000Z</time>
      </trkpt>
      <trkpt lat="43.8785" lon="7.4474">
        <ele>343.79998779297</ele>
        <time>2022-04-09T15:15:11.000Z</time>
      </trkpt>
      <trkpt lat="43.87858" lon="7.4472">
        <ele>343.60000610352</ele>
        <time>2022-04-09T15:15:14.000Z</time>
      </trkpt>
      <trkpt lat="43.87871" lon="7.44689">
        <ele>344.20001220703</ele>
        <time>2022-04-09T15:15:19.000Z</time>
      </trkpt>
      <trkpt lat="43.87874" lon="7.44683">
        <ele>344.20001220703</ele>
        <time>2022-04-09T15:15:20.000Z</time>
      </trkpt>
      <trkpt lat="43.87886" lon="7.44666">
        <ele>344.79998779297</ele>
        <time>2022-04-09T15:15:24.000Z</time>
      </trkpt>
      <trkpt lat="43.87889" lon="7.44663">
        <ele>345</ele>
        <time>2022-04-09T15:15:25.000Z</time>
      </trkpt>
      <trkpt lat="43.87906" lon="7.44649">
        <ele>345</ele>
        <time>2022-04-09T15:15:30.000Z</time>
      </trkpt>
      <trkpt lat="43.87922" lon="7.44634">
        <ele>345.79998779297</ele>
        <time>2022-04-09T15:15:35.000Z</time>
      </trkpt>
      <trkpt lat="43.87925" lon="7.44631">
        <ele>346</ele>
        <time>2022-04-09T15:15:36.000Z</time>
      </trkpt>
      <trkpt lat="43.87935" lon="7.44621">
        <ele>347.20001220703</ele>
        <time>2022-04-09T15:15:39.000Z</time>
      </trkpt>
      <trkpt lat="43.87941" lon="7.44613">
        <ele>347.60000610352</ele>
        <time>2022-04-09T15:15:41.000Z</time>
      </trkpt>
      <trkpt lat="43.87951" lon="7.44601">
        <ele>347.39999389648</ele>
        <time>2022-04-09T15:15:44.000Z</time>
      </trkpt>
      <trkpt lat="43.87962" lon="7.44591">
        <ele>347.20001220703</ele>
        <time>2022-04-09T15:15:47.000Z</time>
      </trkpt>
      <trkpt lat="43.87989" lon="7.44564">
        <ele>347.39999389648</ele>
        <time>2022-04-09T15:15:55.000Z</time>
      </trkpt>
      <trkpt lat="43.88005" lon="7.44542">
        <ele>347.79998779297</ele>
        <time>2022-04-09T15:16:01.000Z</time>
      </trkpt>
      <trkpt lat="43.88022" lon="7.44509">
        <ele>347.60000610352</ele>
        <time>2022-04-09T15:16:09.000Z</time>
      </trkpt>
      <trkpt lat="43.88034" lon="7.44475">
        <ele>348</ele>
        <time>2022-04-09T15:16:17.000Z</time>
      </trkpt>
      <trkpt lat="43.88038" lon="7.44457">
        <ele>348.20001220703</ele>
        <time>2022-04-09T15:16:21.000Z</time>
      </trkpt>
      <trkpt lat="43.88039" lon="7.44445">
        <ele>348.39999389648</ele>
        <time>2022-04-09T15:16:24.000Z</time>
      </trkpt>
      <trkpt lat="43.88037" lon="7.44439">
        <ele>348.60000610352</ele>
        <time>2022-04-09T15:16:26.000Z</time>
      </trkpt>
      <trkpt lat="43.88032" lon="7.44432">
        <ele>348.20001220703</ele>
        <time>2022-04-09T15:16:28.000Z</time>
      </trkpt>
      <trkpt lat="43.88013" lon="7.44413">
        <ele>347.60000610352</ele>
        <time>2022-04-09T15:16:34.000Z</time>
      </trkpt>
      <trkpt lat="43.87999" lon="7.44401">
        <ele>347.79998779297</ele>
        <time>2022-04-09T15:16:39.000Z</time>
      </trkpt>
      <trkpt lat="43.87993" lon="7.444">
        <ele>347.79998779297</ele>
        <time>2022-04-09T15:16:43.000Z</time>
      </trkpt>
      <trkpt lat="43.87992" lon="7.44398">
        <ele>347.60000610352</ele>
        <time>2022-04-09T15:16:48.000Z</time>
      </trkpt>
      <trkpt lat="43.8799" lon="7.44399">
        <ele>348</ele>
        <time>2022-04-09T15:16:55.000Z</time>
      </trkpt>
      <trkpt lat="43.8799" lon="7.44399">
        <ele>347.79998779297</ele>
        <time>2022-04-09T15:17:08.000Z</time>
      </trkpt>
      <trkpt lat="43.87991" lon="7.44399">
        <ele>347.79998779297</ele>
        <time>2022-04-09T15:17:15.000Z</time>
      </trkpt>
      <trkpt lat="43.87991" lon="7.44406">
        <ele>347.79998779297</ele>
        <time>2022-04-09T15:17:21.000Z</time>
      </trkpt>
      <trkpt lat="43.8799" lon="7.44416">
        <ele>347.60000610352</ele>
        <time>2022-04-09T15:17:29.000Z</time>
      </trkpt>
      <trkpt lat="43.8799" lon="7.44417">
        <ele>348</ele>
        <time>2022-04-09T15:17:35.000Z</time>
      </trkpt>
      <trkpt lat="43.8799" lon="7.44416">
        <ele>347.60000610352</ele>
        <time>2022-04-09T15:17:42.000Z</time>
      </trkpt>
      <trkpt lat="43.87987" lon="7.44415">
        <ele>347.60000610352</ele>
        <time>2022-04-09T15:17:48.000Z</time>
      </trkpt>
      <trkpt lat="43.87987" lon="7.44415">
        <ele>347.79998779297</ele>
        <time>2022-04-09T15:17:56.000Z</time>
      </trkpt>
      <trkpt lat="43.87987" lon="7.44414">
        <ele>347.79998779297</ele>
        <time>2022-04-09T15:18:03.000Z</time>
      </trkpt>
      <trkpt lat="43.87989" lon="7.44414">
        <ele>347.60000610352</ele>
        <time>2022-04-09T15:18:08.000Z</time>
      </trkpt>
      <trkpt lat="43.87989" lon="7.44414">
        <ele>347.39999389648</ele>
        <time>2022-04-09T15:18:09.000Z</time>
      </trkpt>
      <trkpt lat="43.87991" lon="7.44413">
        <ele>347.39999389648</ele>
        <time>2022-04-09T15:18:15.000Z</time>
      </trkpt>
      <trkpt lat="43.87992" lon="7.44413">
        <ele>347.20001220703</ele>
        <time>2022-04-09T15:18:17.000Z</time>
      </trkpt>
      <trkpt lat="43.87992" lon="7.44412">
        <ele>347.20001220703</ele>
        <time>2022-04-09T15:18:23.000Z</time>
      </trkpt>
      <trkpt lat="43.87992" lon="7.44412">
        <ele>347.79998779297</ele>
        <time>2022-04-09T15:18:29.000Z</time>
      </trkpt>
      <trkpt lat="43.87992" lon="7.44411">
        <ele>347.39999389648</ele>
        <time>2022-04-09T15:18:34.000Z</time>
      </trkpt>
      <trkpt lat="43.87993" lon="7.44412">
        <ele>347</ele>
        <time>2022-04-09T15:18:48.000Z</time>
      </trkpt>
      <trkpt lat="43.87993" lon="7.44409">
        <ele>347</ele>
        <time>2022-04-09T15:18:55.000Z</time>
      </trkpt>
      <trkpt lat="43.87991" lon="7.44406">
        <ele>346.79998779297</ele>
        <time>2022-04-09T15:18:59.000Z</time>
      </trkpt>
      <trkpt lat="43.87991" lon="7.44405">
        <ele>347</ele>
        <time>2022-04-09T15:19:05.000Z</time>
      </trkpt>
      <trkpt lat="43.8799" lon="7.44406">
        <ele>346.79998779297</ele>
        <time>2022-04-09T15:19:13.000Z</time>
      </trkpt>
      <trkpt lat="43.87989" lon="7.44406">
        <ele>346.60000610352</ele>
        <time>2022-04-09T15:19:22.000Z</time>
      </trkpt>
      <trkpt lat="43.87988" lon="7.44408">
        <ele>346.20001220703</ele>
        <time>2022-04-09T15:19:37.000Z</time>
      </trkpt>
      <trkpt lat="43.87989" lon="7.44409">
        <ele>346</ele>
        <time>2022-04-09T15:19:46.000Z</time>
      </trkpt>
      <trkpt lat="43.87989" lon="7.44409">
        <ele>346.20001220703</ele>
        <time>2022-04-09T15:19:58.000Z</time>
      </trkpt>
      <trkpt lat="43.87989" lon="7.44409">
        <ele>347</ele>
        <time>2022-04-09T15:20:06.000Z</time>
      </trkpt>
      <trkpt lat="43.87991" lon="7.44406">
        <ele>346.79998779297</ele>
        <time>2022-04-09T15:20:12.000Z</time>
      </trkpt>
      <trkpt lat="43.87992" lon="7.44406">
        <ele>346.60000610352</ele>
        <time>2022-04-09T15:20:17.000Z</time>
      </trkpt>
      <trkpt lat="43.87993" lon="7.44406">
        <ele>347.20001220703</ele>
        <time>2022-04-09T15:20:23.000Z</time>
      </trkpt>
      <trkpt lat="43.87993" lon="7.44407">
        <ele>347.39999389648</ele>
        <time>2022-04-09T15:20:27.000Z</time>
      </trkpt>
      <trkpt lat="43.87992" lon="7.44409">
        <ele>347.20001220703</ele>
        <time>2022-04-09T15:20:37.000Z</time>
      </trkpt>
      <trkpt lat="43.87992" lon="7.4441">
        <ele>347</ele>
        <time>2022-04-09T15:20:42.000Z</time>
      </trkpt>
      <trkpt lat="43.87992" lon="7.44409">
        <ele>347.20001220703</ele>
        <time>2022-04-09T15:20:49.000Z</time>
      </trkpt>
      <trkpt lat="43.87991" lon="7.44413">
        <ele>346.60000610352</ele>
        <time>2022-04-09T15:20:57.000Z</time>
      </trkpt>
      <trkpt lat="43.87991" lon="7.44412">
        <ele>346.39999389648</ele>
        <time>2022-04-09T15:21:05.000Z</time>
      </trkpt>
      <trkpt lat="43.87992" lon="7.44409">
        <ele>347.20001220703</ele>
        <time>2022-04-09T15:21:12.000Z</time>
      </trkpt>
      <trkpt lat="43.87992" lon="7.44409">
        <ele>346.79998779297</ele>
        <time>2022-04-09T15:21:18.000Z</time>
      </trkpt>
      <trkpt lat="43.87992" lon="7.44406">
        <ele>346.79998779297</ele>
        <time>2022-04-09T15:21:27.000Z</time>
      </trkpt>
      <trkpt lat="43.87992" lon="7.44405">
        <ele>346.60000610352</ele>
        <time>2022-04-09T15:21:40.000Z</time>
      </trkpt>
      <trkpt lat="43.87992" lon="7.44405">
        <ele>346.20001220703</ele>
        <time>2022-04-09T15:21:49.000Z</time>
      </trkpt>
      <trkpt lat="43.87993" lon="7.44405">
        <ele>346</ele>
        <time>2022-04-09T15:21:51.000Z</time>
      </trkpt>
      <trkpt lat="43.87993" lon="7.44404">
        <ele>346.60000610352</ele>
        <time>2022-04-09T15:22:00.000Z</time>
      </trkpt>
      <trkpt lat="43.87993" lon="7.44406">
        <ele>346.60000610352</ele>
        <time>2022-04-09T15:22:07.000Z</time>
      </trkpt>
      <trkpt lat="43.87993" lon="7.44406">
        <ele>346.60000610352</ele>
        <time>2022-04-09T15:22:14.000Z</time>
      </trkpt>
      <trkpt lat="43.87994" lon="7.44403">
        <ele>346.20001220703</ele>
        <time>2022-04-09T15:22:20.000Z</time>
      </trkpt>
      <trkpt lat="43.87995" lon="7.44404">
        <ele>346.39999389648</ele>
        <time>2022-04-09T15:22:27.000Z</time>
      </trkpt>
      <trkpt lat="43.87995" lon="7.44404">
        <ele>346</ele>
        <time>2022-04-09T15:22:31.000Z</time>
      </trkpt>
      <trkpt lat="43.87996" lon="7.44406">
        <ele>345.60000610352</ele>
        <time>2022-04-09T15:22:41.000Z</time>
      </trkpt>
      <trkpt lat="43.87996" lon="7.44406">
        <ele>345.60000610352</ele>
        <time>2022-04-09T15:22:50.000Z</time>
      </trkpt>
      <trkpt lat="43.87996" lon="7.44406">
        <ele>346</ele>
        <time>2022-04-09T15:23:02.000Z</time>
      </trkpt>
      <trkpt lat="43.87996" lon="7.44406">
        <ele>345.20001220703</ele>
        <time>2022-04-09T15:23:10.000Z</time>
      </trkpt>
      <trkpt lat="43.87995" lon="7.44407">
        <ele>345.79998779297</ele>
        <time>2022-04-09T15:23:16.000Z</time>
      </trkpt>
      <trkpt lat="43.87995" lon="7.44408">
        <ele>346.20001220703</ele>
        <time>2022-04-09T15:23:18.000Z</time>
      </trkpt>
      <trkpt lat="43.87995" lon="7.44406">
        <ele>346.39999389648</ele>
        <time>2022-04-09T15:23:22.000Z</time>
      </trkpt>
      <trkpt lat="43.87995" lon="7.44405">
        <ele>345.60000610352</ele>
        <time>2022-04-09T15:23:27.000Z</time>
      </trkpt>
      <trkpt lat="43.87996" lon="7.44404">
        <ele>345.79998779297</ele>
        <time>2022-04-09T15:23:35.000Z</time>
      </trkpt>
      <trkpt lat="43.87996" lon="7.44406">
        <ele>345.39999389648</ele>
        <time>2022-04-09T15:23:42.000Z</time>
      </trkpt>
      <trkpt lat="43.87996" lon="7.44405">
        <ele>346</ele>
        <time>2022-04-09T15:23:53.000Z</time>
      </trkpt>
      <trkpt lat="43.87996" lon="7.44406">
        <ele>345.20001220703</ele>
        <time>2022-04-09T15:24:03.000Z</time>
      </trkpt>
      <trkpt lat="43.87997" lon="7.44406">
        <ele>345.60000610352</ele>
        <time>2022-04-09T15:24:15.000Z</time>
      </trkpt>
      <trkpt lat="43.87997" lon="7.44406">
        <ele>345.60000610352</ele>
        <time>2022-04-09T15:24:24.000Z</time>
      </trkpt>
      <trkpt lat="43.87996" lon="7.44405">
        <ele>345</ele>
        <time>2022-04-09T15:24:30.000Z</time>
      </trkpt>
      <trkpt lat="43.87995" lon="7.44406">
        <ele>344.79998779297</ele>
        <time>2022-04-09T15:24:37.000Z</time>
      </trkpt>
      <trkpt lat="43.87996" lon="7.44406">
        <ele>344.60000610352</ele>
        <time>2022-04-09T15:24:45.000Z</time>
      </trkpt>
      <trkpt lat="43.87996" lon="7.44406">
        <ele>344</ele>
        <time>2022-04-09T15:24:51.000Z</time>
      </trkpt>
      <trkpt lat="43.87996" lon="7.44405">
        <ele>343.79998779297</ele>
        <time>2022-04-09T15:24:57.000Z</time>
      </trkpt>
      <trkpt lat="43.87996" lon="7.44406">
        <ele>344</ele>
        <time>2022-04-09T15:25:05.000Z</time>
      </trkpt>
      <trkpt lat="43.87996" lon="7.44406">
        <ele>344</ele>
        <time>2022-04-09T15:25:14.000Z</time>
      </trkpt>
      <trkpt lat="43.87996" lon="7.44406">
        <ele>343.39999389648</ele>
        <time>2022-04-09T15:25:23.000Z</time>
      </trkpt>
      <trkpt lat="43.87996" lon="7.44406">
        <ele>344.60000610352</ele>
        <time>2022-04-09T15:25:38.000Z</time>
      </trkpt>
      <trkpt lat="43.87996" lon="7.44406">
        <ele>344.79998779297</ele>
        <time>2022-04-09T15:25:51.000Z</time>
      </trkpt>
      <trkpt lat="43.87995" lon="7.44407">
        <ele>345.20001220703</ele>
        <time>2022-04-09T15:26:00.000Z</time>
      </trkpt>
      <trkpt lat="43.87995" lon="7.44407">
        <ele>345.20001220703</ele>
        <time>2022-04-09T15:26:03.000Z</time>
      </trkpt>
      <trkpt lat="43.87995" lon="7.44408">
        <ele>346</ele>
        <time>2022-04-09T15:26:15.000Z</time>
      </trkpt>
      <trkpt lat="43.87994" lon="7.44408">
        <ele>344.79998779297</ele>
        <time>2022-04-09T15:26:24.000Z</time>
      </trkpt>
      <trkpt lat="43.87994" lon="7.44409">
        <ele>344.39999389648</ele>
        <time>2022-04-09T15:26:29.000Z</time>
      </trkpt>
      <trkpt lat="43.87994" lon="7.44409">
        <ele>344.20001220703</ele>
        <time>2022-04-09T15:26:33.000Z</time>
      </trkpt>
      <trkpt lat="43.87995" lon="7.44408">
        <ele>344.20001220703</ele>
        <time>2022-04-09T15:26:35.000Z</time>
      </trkpt>
      <trkpt lat="43.87993" lon="7.44407">
        <ele>344</ele>
        <time>2022-04-09T15:26:37.000Z</time>
      </trkpt>
      <trkpt lat="43.87991" lon="7.44407">
        <ele>344.20001220703</ele>
        <time>2022-04-09T15:26:39.000Z</time>
      </trkpt>
      <trkpt lat="43.87991" lon="7.44409">
        <ele>344.60000610352</ele>
        <time>2022-04-09T15:26:46.000Z</time>
      </trkpt>
      <trkpt lat="43.87992" lon="7.44408">
        <ele>344.60000610352</ele>
        <time>2022-04-09T15:26:55.000Z</time>
      </trkpt>
      <trkpt lat="43.87993" lon="7.44408">
        <ele>345.20001220703</ele>
        <time>2022-04-09T15:26:59.000Z</time>
      </trkpt>
      <trkpt lat="43.87993" lon="7.44408">
        <ele>345.20001220703</ele>
        <time>2022-04-09T15:27:03.000Z</time>
      </trkpt>
      <trkpt lat="43.87993" lon="7.44407">
        <ele>344.79998779297</ele>
        <time>2022-04-09T15:27:14.000Z</time>
      </trkpt>
      <trkpt lat="43.87993" lon="7.44406">
        <ele>344.79998779297</ele>
        <time>2022-04-09T15:27:25.000Z</time>
      </trkpt>
      <trkpt lat="43.87993" lon="7.44404">
        <ele>345.20001220703</ele>
        <time>2022-04-09T15:27:38.000Z</time>
      </trkpt>
      <trkpt lat="43.87994" lon="7.44403">
        <ele>344.79998779297</ele>
        <time>2022-04-09T15:27:43.000Z</time>
      </trkpt>
      <trkpt lat="43.87994" lon="7.44405">
        <ele>345</ele>
        <time>2022-04-09T15:27:50.000Z</time>
      </trkpt>
      <trkpt lat="43.87993" lon="7.44406">
        <ele>345.60000610352</ele>
        <time>2022-04-09T15:28:01.000Z</time>
      </trkpt>
      <trkpt lat="43.87993" lon="7.44406">
        <ele>345.60000610352</ele>
        <time>2022-04-09T15:28:07.000Z</time>
      </trkpt>
      <trkpt lat="43.87993" lon="7.44405">
        <ele>345.20001220703</ele>
        <time>2022-04-09T15:28:15.000Z</time>
      </trkpt>
      <trkpt lat="43.87993" lon="7.44405">
        <ele>345.79998779297</ele>
        <time>2022-04-09T15:28:25.000Z</time>
      </trkpt>
      <trkpt lat="43.87992" lon="7.44405">
        <ele>345.39999389648</ele>
        <time>2022-04-09T15:28:32.000Z</time>
      </trkpt>
      <trkpt lat="43.87993" lon="7.44405">
        <ele>344.79998779297</ele>
        <time>2022-04-09T15:28:43.000Z</time>
      </trkpt>
      <trkpt lat="43.87994" lon="7.44405">
        <ele>345</ele>
        <time>2022-04-09T15:28:55.000Z</time>
      </trkpt>
      <trkpt lat="43.87994" lon="7.44405">
        <ele>344.60000610352</ele>
        <time>2022-04-09T15:29:04.000Z</time>
      </trkpt>
      <trkpt lat="43.87994" lon="7.44404">
        <ele>344.39999389648</ele>
        <time>2022-04-09T15:29:09.000Z</time>
      </trkpt>
      <trkpt lat="43.87995" lon="7.44405">
        <ele>344</ele>
        <time>2022-04-09T15:29:15.000Z</time>
      </trkpt>
      <trkpt lat="43.87995" lon="7.44405">
        <ele>344</ele>
        <time>2022-04-09T15:29:16.000Z</time>
      </trkpt>
      <trkpt lat="43.87995" lon="7.44404">
        <ele>345.20001220703</ele>
        <time>2022-04-09T15:29:21.000Z</time>
      </trkpt>
      <trkpt lat="43.87995" lon="7.44404">
        <ele>345</ele>
        <time>2022-04-09T15:29:23.000Z</time>
      </trkpt>
      <trkpt lat="43.87994" lon="7.44404">
        <ele>344.20001220703</ele>
        <time>2022-04-09T15:29:29.000Z</time>
      </trkpt>
      <trkpt lat="43.87993" lon="7.44403">
        <ele>344.39999389648</ele>
        <time>2022-04-09T15:29:39.000Z</time>
      </trkpt>
      <trkpt lat="43.87992" lon="7.44401">
        <ele>344.20001220703</ele>
        <time>2022-04-09T15:29:48.000Z</time>
      </trkpt>
      <trkpt lat="43.87992" lon="7.44401">
        <ele>344</ele>
        <time>2022-04-09T15:29:49.000Z</time>
      </trkpt>
      <trkpt lat="43.87993" lon="7.44401">
        <ele>344.60000610352</ele>
        <time>2022-04-09T15:29:56.000Z</time>
      </trkpt>
      <trkpt lat="43.87994" lon="7.44401">
        <ele>344.20001220703</ele>
        <time>2022-04-09T15:30:03.000Z</time>
      </trkpt>
      <trkpt lat="43.87993" lon="7.44401">
        <ele>344.79998779297</ele>
        <time>2022-04-09T15:30:12.000Z</time>
      </trkpt>
      <trkpt lat="43.87994" lon="7.44401">
        <ele>344</ele>
        <time>2022-04-09T15:30:19.000Z</time>
      </trkpt>
      <trkpt lat="43.87994" lon="7.44399">
        <ele>343.39999389648</ele>
        <time>2022-04-09T15:30:33.000Z</time>
      </trkpt>
      <trkpt lat="43.87993" lon="7.44398">
        <ele>343.20001220703</ele>
        <time>2022-04-09T15:30:36.000Z</time>
      </trkpt>
      <trkpt lat="43.87993" lon="7.44398">
        <ele>343.20001220703</ele>
        <time>2022-04-09T15:30:43.000Z</time>
      </trkpt>
      <trkpt lat="43.87993" lon="7.44397">
        <ele>344</ele>
        <time>2022-04-09T15:30:50.000Z</time>
      </trkpt>
      <trkpt lat="43.87993" lon="7.44397">
        <ele>344.20001220703</ele>
        <time>2022-04-09T15:30:52.000Z</time>
      </trkpt>
      <trkpt lat="43.87993" lon="7.44398">
        <ele>345</ele>
        <time>2022-04-09T15:30:58.000Z</time>
      </trkpt>
      <trkpt lat="43.87992" lon="7.44399">
        <ele>345.39999389648</ele>
        <time>2022-04-09T15:31:00.000Z</time>
      </trkpt>
      <trkpt lat="43.87992" lon="7.44399">
        <ele>346</ele>
        <time>2022-04-09T15:31:03.000Z</time>
      </trkpt>
      <trkpt lat="43.87992" lon="7.44399">
        <ele>345.20001220703</ele>
        <time>2022-04-09T15:31:10.000Z</time>
      </trkpt>
      <trkpt lat="43.87992" lon="7.44398">
        <ele>345</ele>
        <time>2022-04-09T15:31:22.000Z</time>
      </trkpt>
      <trkpt lat="43.87992" lon="7.44397">
        <ele>345.20001220703</ele>
        <time>2022-04-09T15:31:35.000Z</time>
      </trkpt>
      <trkpt lat="43.87991" lon="7.44396">
        <ele>345.60000610352</ele>
        <time>2022-04-09T15:31:47.000Z</time>
      </trkpt>
      <trkpt lat="43.87991" lon="7.44397">
        <ele>345.79998779297</ele>
        <time>2022-04-09T15:31:57.000Z</time>
      </trkpt>
      <trkpt lat="43.87992" lon="7.44397">
        <ele>345.60000610352</ele>
        <time>2022-04-09T15:32:04.000Z</time>
      </trkpt>
      <trkpt lat="43.87993" lon="7.44399">
        <ele>345.60000610352</ele>
        <time>2022-04-09T15:32:18.000Z</time>
      </trkpt>
      <trkpt lat="43.87993" lon="7.444">
        <ele>345.79998779297</ele>
        <time>2022-04-09T15:32:28.000Z</time>
      </trkpt>
      <trkpt lat="43.87993" lon="7.44401">
        <ele>345.39999389648</ele>
        <time>2022-04-09T15:32:35.000Z</time>
      </trkpt>
      <trkpt lat="43.87995" lon="7.44402">
        <ele>345.39999389648</ele>
        <time>2022-04-09T15:32:42.000Z</time>
      </trkpt>
      <trkpt lat="43.87994" lon="7.44403">
        <ele>345.39999389648</ele>
        <time>2022-04-09T15:32:49.000Z</time>
      </trkpt>
      <trkpt lat="43.87994" lon="7.44406">
        <ele>345.60000610352</ele>
        <time>2022-04-09T15:32:56.000Z</time>
      </trkpt>
      <trkpt lat="43.87994" lon="7.44408">
        <ele>345.39999389648</ele>
        <time>2022-04-09T15:33:02.000Z</time>
      </trkpt>
      <trkpt lat="43.87994" lon="7.44408">
        <ele>345.20001220703</ele>
        <time>2022-04-09T15:33:10.000Z</time>
      </trkpt>
      <trkpt lat="43.87994" lon="7.44408">
        <ele>345.39999389648</ele>
        <time>2022-04-09T15:33:17.000Z</time>
      </trkpt>
      <trkpt lat="43.87994" lon="7.4441">
        <ele>345.20001220703</ele>
        <time>2022-04-09T15:33:28.000Z</time>
      </trkpt>
      <trkpt lat="43.87994" lon="7.4441">
        <ele>345.39999389648</ele>
        <time>2022-04-09T15:33:38.000Z</time>
      </trkpt>
      <trkpt lat="43.87993" lon="7.4441">
        <ele>345.39999389648</ele>
        <time>2022-04-09T15:33:46.000Z</time>
      </trkpt>
      <trkpt lat="43.87993" lon="7.4441">
        <ele>345.20001220703</ele>
        <time>2022-04-09T15:33:47.000Z</time>
      </trkpt>
      <trkpt lat="43.87993" lon="7.44409">
        <ele>345.39999389648</ele>
        <time>2022-04-09T15:33:54.000Z</time>
      </trkpt>
      <trkpt lat="43.87993" lon="7.4441">
        <ele>345.60000610352</ele>
        <time>2022-04-09T15:34:15.000Z</time>
      </trkpt>
      <trkpt lat="43.87993" lon="7.4441">
        <ele>345.39999389648</ele>
        <time>2022-04-09T15:34:27.000Z</time>
      </trkpt>
      <trkpt lat="43.87992" lon="7.44412">
        <ele>345.60000610352</ele>
        <time>2022-04-09T15:34:34.000Z</time>
      </trkpt>
      <trkpt lat="43.87992" lon="7.44418">
        <ele>345.39999389648</ele>
        <time>2022-04-09T15:34:40.000Z</time>
      </trkpt>
      <trkpt lat="43.87995" lon="7.44422">
        <ele>345.20001220703</ele>
        <time>2022-04-09T15:34:44.000Z</time>
      </trkpt>
      <trkpt lat="43.87998" lon="7.44421">
        <ele>345</ele>
        <time>2022-04-09T15:34:46.000Z</time>
      </trkpt>
      <trkpt lat="43.88012" lon="7.44422">
        <ele>345</ele>
        <time>2022-04-09T15:34:51.000Z</time>
      </trkpt>
      <trkpt lat="43.88016" lon="7.44424">
        <ele>345.20001220703</ele>
        <time>2022-04-09T15:34:52.000Z</time>
      </trkpt>
      <trkpt lat="43.8802" lon="7.44427">
        <ele>345.20001220703</ele>
        <time>2022-04-09T15:34:53.000Z</time>
      </trkpt>
      <trkpt lat="43.88032" lon="7.44435">
        <ele>345.60000610352</ele>
        <time>2022-04-09T15:34:56.000Z</time>
      </trkpt>
      <trkpt lat="43.88038" lon="7.4444">
        <ele>345.79998779297</ele>
        <time>2022-04-09T15:35:00.000Z</time>
      </trkpt>
      <trkpt lat="43.88038" lon="7.44449">
        <ele>346.39999389648</ele>
        <time>2022-04-09T15:35:04.000Z</time>
      </trkpt>
      <trkpt lat="43.88038" lon="7.44455">
        <ele>346.60000610352</ele>
        <time>2022-04-09T15:35:05.000Z</time>
      </trkpt>
      <trkpt lat="43.8803" lon="7.44482">
        <ele>346.79998779297</ele>
        <time>2022-04-09T15:35:09.000Z</time>
      </trkpt>
      <trkpt lat="43.88016" lon="7.44514">
        <ele>346.20001220703</ele>
        <time>2022-04-09T15:35:13.000Z</time>
      </trkpt>
      <trkpt lat="43.88001" lon="7.44544">
        <ele>346</ele>
        <time>2022-04-09T15:35:17.000Z</time>
      </trkpt>
      <trkpt lat="43.87995" lon="7.44553">
        <ele>345.39999389648</ele>
        <time>2022-04-09T15:35:19.000Z</time>
      </trkpt>
      <trkpt lat="43.87992" lon="7.44558">
        <ele>345.39999389648</ele>
        <time>2022-04-09T15:35:20.000Z</time>
      </trkpt>
      <trkpt lat="43.87988" lon="7.44563">
        <ele>345.20001220703</ele>
        <time>2022-04-09T15:35:21.000Z</time>
      </trkpt>
      <trkpt lat="43.87961" lon="7.44588">
        <ele>345.20001220703</ele>
        <time>2022-04-09T15:35:26.000Z</time>
      </trkpt>
      <trkpt lat="43.87932" lon="7.44621">
        <ele>345.39999389648</ele>
        <time>2022-04-09T15:35:31.000Z</time>
      </trkpt>
      <trkpt lat="43.8792" lon="7.44632">
        <ele>345.20001220703</ele>
        <time>2022-04-09T15:35:34.000Z</time>
      </trkpt>
      <trkpt lat="43.87901" lon="7.4465">
        <ele>344.60000610352</ele>
        <time>2022-04-09T15:35:39.000Z</time>
      </trkpt>
      <trkpt lat="43.87891" lon="7.44659">
        <ele>344</ele>
        <time>2022-04-09T15:35:41.000Z</time>
      </trkpt>
      <trkpt lat="43.87878" lon="7.44671">
        <ele>342.60000610352</ele>
        <time>2022-04-09T15:35:44.000Z</time>
      </trkpt>
      <trkpt lat="43.87874" lon="7.44675">
        <ele>342.20001220703</ele>
        <time>2022-04-09T15:35:45.000Z</time>
      </trkpt>
      <trkpt lat="43.8787" lon="7.4468">
        <ele>341.60000610352</ele>
        <time>2022-04-09T15:35:46.000Z</time>
      </trkpt>
      <trkpt lat="43.87866" lon="7.44686">
        <ele>341.39999389648</ele>
        <time>2022-04-09T15:35:47.000Z</time>
      </trkpt>
      <trkpt lat="43.8786" lon="7.44698">
        <ele>341.20001220703</ele>
        <time>2022-04-09T15:35:49.000Z</time>
      </trkpt>
      <trkpt lat="43.87851" lon="7.44727">
        <ele>340.79998779297</ele>
        <time>2022-04-09T15:35:54.000Z</time>
      </trkpt>
      <trkpt lat="43.8785" lon="7.44732">
        <ele>340.20001220703</ele>
        <time>2022-04-09T15:35:56.000Z</time>
      </trkpt>
      <trkpt lat="43.8785" lon="7.44733">
        <ele>340</ele>
        <time>2022-04-09T15:35:57.000Z</time>
      </trkpt>
      <trkpt lat="43.87846" lon="7.4474">
        <ele>340</ele>
        <time>2022-04-09T15:36:02.000Z</time>
      </trkpt>
      <trkpt lat="43.87843" lon="7.4474">
        <ele>340</ele>
        <time>2022-04-09T15:36:03.000Z</time>
      </trkpt>
      <trkpt lat="43.87825" lon="7.44736">
        <ele>340.39999389648</ele>
        <time>2022-04-09T15:36:07.000Z</time>
      </trkpt>
      <trkpt lat="43.87797" lon="7.44732">
        <ele>341.20001220703</ele>
        <time>2022-04-09T15:36:13.000Z</time>
      </trkpt>
      <trkpt lat="43.87789" lon="7.44736">
        <ele>341.39999389648</ele>
        <time>2022-04-09T15:36:16.000Z</time>
      </trkpt>
      <trkpt lat="43.87789" lon="7.44736">
        <ele>341.39999389648</ele>
        <time>2022-04-09T15:36:17.000Z</time>
      </trkpt>
      <trkpt lat="43.87783" lon="7.44749">
        <ele>341.79998779297</ele>
        <time>2022-04-09T15:36:22.000Z</time>
      </trkpt>
      <trkpt lat="43.87782" lon="7.4478">
        <ele>342</ele>
        <time>2022-04-09T15:36:26.000Z</time>
      </trkpt>
      <trkpt lat="43.87781" lon="7.44807">
        <ele>341.79998779297</ele>
        <time>2022-04-09T15:36:30.000Z</time>
      </trkpt>
      <trkpt lat="43.8778" lon="7.44841">
        <ele>341.20001220703</ele>
        <time>2022-04-09T15:36:35.000Z</time>
      </trkpt>
      <trkpt lat="43.87778" lon="7.4487">
        <ele>341.20001220703</ele>
        <time>2022-04-09T15:36:38.000Z</time>
      </trkpt>
      <trkpt lat="43.87778" lon="7.4488">
        <ele>341.20001220703</ele>
        <time>2022-04-09T15:36:39.000Z</time>
      </trkpt>
      <trkpt lat="43.87769" lon="7.44929">
        <ele>342.39999389648</ele>
        <time>2022-04-09T15:36:44.000Z</time>
      </trkpt>
      <trkpt lat="43.87758" lon="7.44984">
        <ele>342.79998779297</ele>
        <time>2022-04-09T15:36:50.000Z</time>
      </trkpt>
      <trkpt lat="43.87743" lon="7.44996">
        <ele>342.60000610352</ele>
        <time>2022-04-09T15:36:53.000Z</time>
      </trkpt>
      <trkpt lat="43.87736" lon="7.44998">
        <ele>342.39999389648</ele>
        <time>2022-04-09T15:36:54.000Z</time>
      </trkpt>
      <trkpt lat="43.87721" lon="7.45004">
        <ele>342.39999389648</ele>
        <time>2022-04-09T15:36:56.000Z</time>
      </trkpt>
      <trkpt lat="43.87713" lon="7.4501">
        <ele>342.60000610352</ele>
        <time>2022-04-09T15:36:57.000Z</time>
      </trkpt>
      <trkpt lat="43.87669" lon="7.45043">
        <ele>343.20001220703</ele>
        <time>2022-04-09T15:37:03.000Z</time>
      </trkpt>
      <trkpt lat="43.87664" lon="7.45048">
        <ele>343.39999389648</ele>
        <time>2022-04-09T15:37:04.000Z</time>
      </trkpt>
      <trkpt lat="43.87658" lon="7.45052">
        <ele>343.60000610352</ele>
        <time>2022-04-09T15:37:05.000Z</time>
      </trkpt>
      <trkpt lat="43.87653" lon="7.45052">
        <ele>343.79998779297</ele>
        <time>2022-04-09T15:37:06.000Z</time>
      </trkpt>
    </trkseg>
  </trk>
</gpx>